﻿<?xml version="1.0" encoding="utf-8"?><gpx creator="Garmin Desktop App" version="1.1" xsi:schemaLocation="http://www.topografix.com/GPX/1/1 http://www.topografix.com/GPX/1/1/gpx.xsd http://www.garmin.com/xmlschemas/WaypointExtension/v1 http://www8.garmin.com/xmlschemas/WaypointExtensionv1.xsd http://www.garmin.com/xmlschemas/TrackPointExtension/v1 http://www.garmin.com/xmlschemas/TrackPointExtensionv1.xsd http://www.garmin.com/xmlschemas/GpxExtensions/v3 http://www8.garmin.com/xmlschemas/GpxExtensionsv3.xsd http://www.garmin.com/xmlschemas/ActivityExtension/v1 http://www8.garmin.com/xmlschemas/ActivityExtensionv1.xsd http://www.garmin.com/xmlschemas/AdventuresExtensions/v1 http://www8.garmin.com/xmlschemas/AdventuresExtensionv1.xsd http://www.garmin.com/xmlschemas/PressureExtension/v1 http://www.garmin.com/xmlschemas/PressureExtensionv1.xsd http://www.garmin.com/xmlschemas/TripExtensions/v1 http://www.garmin.com/xmlschemas/TripExtensionsv1.xsd http://www.garmin.com/xmlschemas/TripMetaDataExtensions/v1 http://www.garmin.com/xmlschemas/TripMetaDataExtensionsv1.xsd http://www.garmin.com/xmlschemas/ViaPointTransportationModeExtensions/v1 http://www.garmin.com/xmlschemas/ViaPointTransportationModeExtensionsv1.xsd http://www.garmin.com/xmlschemas/CreationTimeExtension/v1 http://www.garmin.com/xmlschemas/CreationTimeExtensionsv1.xsd http://www.garmin.com/xmlschemas/AccelerationExtension/v1 http://www.garmin.com/xmlschemas/AccelerationExtensionv1.xsd http://www.garmin.com/xmlschemas/PowerExtension/v1 http://www.garmin.com/xmlschemas/PowerExtensionv1.xsd http://www.garmin.com/xmlschemas/VideoExtension/v1 http://www.garmin.com/xmlschemas/VideoExtensionv1.xsd" xmlns="http://www.topografix.com/GPX/1/1" xmlns:xsi="http://www.w3.org/2001/XMLSchema-instance" xmlns:wptx1="http://www.garmin.com/xmlschemas/WaypointExtension/v1" xmlns:gpxtrx="http://www.garmin.com/xmlschemas/GpxExtensions/v3" xmlns:gpxtpx="http://www.garmin.com/xmlschemas/TrackPointExtension/v1" xmlns:gpxx="http://www.garmin.com/xmlschemas/GpxExtensions/v3" xmlns:trp="http://www.garmin.com/xmlschemas/TripExtensions/v1" xmlns:adv="http://www.garmin.com/xmlschemas/AdventuresExtensions/v1" xmlns:prs="http://www.garmin.com/xmlschemas/PressureExtension/v1" xmlns:tmd="http://www.garmin.com/xmlschemas/TripMetaDataExtensions/v1" xmlns:vptm="http://www.garmin.com/xmlschemas/ViaPointTransportationModeExtensions/v1" xmlns:ctx="http://www.garmin.com/xmlschemas/CreationTimeExtension/v1" xmlns:gpxacc="http://www.garmin.com/xmlschemas/AccelerationExtension/v1" xmlns:gpxpx="http://www.garmin.com/xmlschemas/PowerExtension/v1" xmlns:vidx1="http://www.garmin.com/xmlschemas/VideoExtension/v1">

  <metadata>
    <link href="http://www.garmin.com">
      <text>Garmin International</text>
    </link>
    <time>2026-07-09T18:41:30Z</time>
    <bounds maxlat="53.372009005397558" maxlon="-6.010433016344905" minlat="52.910800985991955" minlon="-6.635909993201494" />
  </metadata>

  <trk>
    <name>Track vom: 2026-07-09 08:38</name>
    <extensions>
      <gpxx:TrackExtension>
        <gpxx:DisplayColor>DarkGray</gpxx:DisplayColor>
      </gpxx:TrackExtension>
    </extensions>
    <trkseg>
      <trkpt lat="53.371267961338162" lon="-6.382014015689492">
        <ele>69.829999999999998</ele>
        <time>2026-07-09T07:38:26Z</time>
      </trkpt>
      <trkpt lat="53.371243989095092" lon="-6.382028013467789">
        <ele>75.599999999999994</ele>
        <time>2026-07-09T07:39:11Z</time>
      </trkpt>
      <trkpt lat="53.371230997145176" lon="-6.382006974890828">
        <ele>78</ele>
        <time>2026-07-09T07:40:06Z</time>
      </trkpt>
      <trkpt lat="53.371230997145176" lon="-6.382020972669125">
        <ele>78</ele>
        <time>2026-07-09T07:40:56Z</time>
      </trkpt>
      <trkpt lat="53.371233008801937" lon="-6.382029019296169">
        <ele>78</ele>
        <time>2026-07-09T07:41:56Z</time>
      </trkpt>
      <trkpt lat="53.371242983266711" lon="-6.382033964619041">
        <ele>77.519999999999996</ele>
        <time>2026-07-09T07:42:49Z</time>
      </trkpt>
      <trkpt lat="53.371244994923472" lon="-6.382033964619041">
        <ele>77.040000000000006</ele>
        <time>2026-07-09T07:43:46Z</time>
      </trkpt>
      <trkpt lat="53.371251029893756" lon="-6.382034970447421">
        <ele>76.560000000000002</ele>
        <time>2026-07-09T07:44:37Z</time>
      </trkpt>
      <trkpt lat="53.371249018236995" lon="-6.382039999589324">
        <ele>76.560000000000002</ele>
        <time>2026-07-09T07:45:20Z</time>
      </trkpt>
      <trkpt lat="53.371249018236995" lon="-6.382039999589324">
        <ele>76.560000000000002</ele>
        <time>2026-07-09T07:45:39Z</time>
      </trkpt>
      <trkpt lat="53.371445992961526" lon="-6.3820740301162">
        <ele>76.079999999999998</ele>
        <time>2026-07-09T07:45:44Z</time>
      </trkpt>
      <trkpt lat="53.371861986815929" lon="-6.381941009312868">
        <ele>76.560000000000002</ele>
        <time>2026-07-09T07:45:52Z</time>
      </trkpt>
      <trkpt lat="53.371861986815929" lon="-6.381941009312868">
        <ele>76.560000000000002</ele>
        <time>2026-07-09T07:46:08Z</time>
      </trkpt>
      <trkpt lat="53.371861986815929" lon="-6.381941009312868">
        <ele>76.079999999999998</ele>
        <time>2026-07-09T07:46:17Z</time>
      </trkpt>
      <trkpt lat="53.371863998472691" lon="-6.381941009312868">
        <ele>76.079999999999998</ele>
        <time>2026-07-09T07:46:18Z</time>
      </trkpt>
      <trkpt lat="53.37186299264431" lon="-6.381989037618041">
        <ele>76.079999999999998</ele>
        <time>2026-07-09T07:46:19Z</time>
      </trkpt>
      <trkpt lat="53.371860980987549" lon="-6.381917037069798">
        <ele>76.079999999999998</ele>
        <time>2026-07-09T07:46:20Z</time>
      </trkpt>
      <trkpt lat="53.371858969330788" lon="-6.381813017651439">
        <ele>76.079999999999998</ele>
        <time>2026-07-09T07:46:21Z</time>
      </trkpt>
      <trkpt lat="53.371857041493058" lon="-6.381699023768306">
        <ele>76.079999999999998</ele>
        <time>2026-07-09T07:46:22Z</time>
      </trkpt>
      <trkpt lat="53.371856035664678" lon="-6.380327995866537">
        <ele>73.680000000000007</ele>
        <time>2026-07-09T07:46:31Z</time>
      </trkpt>
      <trkpt lat="53.371861986815929" lon="-6.37977403588593">
        <ele>73.200000000000003</ele>
        <time>2026-07-09T07:46:34Z</time>
      </trkpt>
      <trkpt lat="53.371922001242638" lon="-6.378842974081636">
        <ele>70.790000000000006</ele>
        <time>2026-07-09T07:46:39Z</time>
      </trkpt>
      <trkpt lat="53.37199199013412" lon="-6.37792800553143">
        <ele>67.909999999999997</ele>
        <time>2026-07-09T07:46:44Z</time>
      </trkpt>
      <trkpt lat="53.371998025104403" lon="-6.377745028585196">
        <ele>67.909999999999997</ele>
        <time>2026-07-09T07:46:45Z</time>
      </trkpt>
      <trkpt lat="53.372002970427275" lon="-6.377579988911748">
        <ele>67.430000000000007</ele>
        <time>2026-07-09T07:46:46Z</time>
      </trkpt>
      <trkpt lat="53.372004982084036" lon="-6.377182016149163">
        <ele>66.469999999999999</ele>
        <time>2026-07-09T07:46:50Z</time>
      </trkpt>
      <trkpt lat="53.372003976255655" lon="-6.377146979793906">
        <ele>66.950000000000003</ele>
        <time>2026-07-09T07:47:06Z</time>
      </trkpt>
      <trkpt lat="53.372000958770514" lon="-6.377096017822623">
        <ele>66.469999999999999</ele>
        <time>2026-07-09T07:47:07Z</time>
      </trkpt>
      <trkpt lat="53.371997019276023" lon="-6.37702502310276">
        <ele>66.469999999999999</ele>
        <time>2026-07-09T07:47:08Z</time>
      </trkpt>
      <trkpt lat="53.371989978477359" lon="-6.376898037269712">
        <ele>66.469999999999999</ele>
        <time>2026-07-09T07:47:09Z</time>
      </trkpt>
      <trkpt lat="53.371915966272354" lon="-6.376903988420963">
        <ele>66.469999999999999</ele>
        <time>2026-07-09T07:47:10Z</time>
      </trkpt>
      <trkpt lat="53.371848994866014" lon="-6.376910023391247">
        <ele>65.989999999999995</ele>
        <time>2026-07-09T07:47:11Z</time>
      </trkpt>
      <trkpt lat="53.371771965175867" lon="-6.376915974542499">
        <ele>65.989999999999995</ele>
        <time>2026-07-09T07:47:12Z</time>
      </trkpt>
      <trkpt lat="53.371681021526456" lon="-6.376913040876389">
        <ele>65.989999999999995</ele>
        <time>2026-07-09T07:47:13Z</time>
      </trkpt>
      <trkpt lat="53.371583959087729" lon="-6.376900970935822">
        <ele>66.469999999999999</ele>
        <time>2026-07-09T07:47:14Z</time>
      </trkpt>
      <trkpt lat="53.371492009609938" lon="-6.376889990642667">
        <ele>66.469999999999999</ele>
        <time>2026-07-09T07:47:15Z</time>
      </trkpt>
      <trkpt lat="53.371403999626637" lon="-6.376879010349512">
        <ele>66.950000000000003</ele>
        <time>2026-07-09T07:47:16Z</time>
      </trkpt>
      <trkpt lat="53.371307021006942" lon="-6.376867024227977">
        <ele>66.950000000000003</ele>
        <time>2026-07-09T07:47:17Z</time>
      </trkpt>
      <trkpt lat="53.370415018871427" lon="-6.376613974571228">
        <ele>68.390000000000001</ele>
        <time>2026-07-09T07:47:25Z</time>
      </trkpt>
      <trkpt lat="53.370058033615351" lon="-6.376484977081418">
        <ele>70.790000000000006</ele>
        <time>2026-07-09T07:47:28Z</time>
      </trkpt>
      <trkpt lat="53.369075004011393" lon="-6.375872008502483">
        <ele>71.269999999999996</ele>
        <time>2026-07-09T07:47:37Z</time>
      </trkpt>
      <trkpt lat="53.368005976080894" lon="-6.374757969751954">
        <ele>69.349999999999994</ele>
        <time>2026-07-09T07:47:49Z</time>
      </trkpt>
      <trkpt lat="53.367488980293274" lon="-6.374253965914249">
        <ele>67.909999999999997</ele>
        <time>2026-07-09T07:47:55Z</time>
      </trkpt>
      <trkpt lat="53.367403987795115" lon="-6.374162016436458">
        <ele>67.430000000000007</ele>
        <time>2026-07-09T07:47:56Z</time>
      </trkpt>
      <trkpt lat="53.366938037797809" lon="-6.373130036517978">
        <ele>67.909999999999997</ele>
        <time>2026-07-09T07:48:03Z</time>
      </trkpt>
      <trkpt lat="53.366882968693972" lon="-6.372991986572743">
        <ele>67.909999999999997</ele>
        <time>2026-07-09T07:48:04Z</time>
      </trkpt>
      <trkpt lat="53.366863019764423" lon="-6.37283599935472">
        <ele>67.909999999999997</ele>
        <time>2026-07-09T07:48:05Z</time>
      </trkpt>
      <trkpt lat="53.366842987015843" lon="-6.37268302962184">
        <ele>67.909999999999997</ele>
        <time>2026-07-09T07:48:06Z</time>
      </trkpt>
      <trkpt lat="53.366823960095644" lon="-6.372538022696972">
        <ele>67.909999999999997</ele>
        <time>2026-07-09T07:48:07Z</time>
      </trkpt>
      <trkpt lat="53.366824965924025" lon="-6.372386980801821">
        <ele>67.430000000000007</ele>
        <time>2026-07-09T07:48:08Z</time>
      </trkpt>
      <trkpt lat="53.366839969530702" lon="-6.372100990265608">
        <ele>66.469999999999999</ele>
        <time>2026-07-09T07:48:10Z</time>
      </trkpt>
      <trkpt lat="53.366847010329366" lon="-6.371959000825882">
        <ele>66.469999999999999</ele>
        <time>2026-07-09T07:48:11Z</time>
      </trkpt>
      <trkpt lat="53.366854973137379" lon="-6.371819023042917">
        <ele>65.989999999999995</ele>
        <time>2026-07-09T07:48:12Z</time>
      </trkpt>
      <trkpt lat="53.366862013936043" lon="-6.371679967269301">
        <ele>65.989999999999995</ele>
        <time>2026-07-09T07:48:13Z</time>
      </trkpt>
      <trkpt lat="53.366849021986127" lon="-6.371532026678324">
        <ele>65.989999999999995</ele>
        <time>2026-07-09T07:48:14Z</time>
      </trkpt>
      <trkpt lat="53.366808034479618" lon="-6.371045960113406">
        <ele>65.989999999999995</ele>
        <time>2026-07-09T07:48:17Z</time>
      </trkpt>
      <trkpt lat="53.366793030872941" lon="-6.370864994823933">
        <ele>66.469999999999999</ele>
        <time>2026-07-09T07:48:18Z</time>
      </trkpt>
      <trkpt lat="53.366777021437883" lon="-6.370681012049317">
        <ele>65.989999999999995</ele>
        <time>2026-07-09T07:48:19Z</time>
      </trkpt>
      <trkpt lat="53.366761012002826" lon="-6.370488982647657">
        <ele>65.989999999999995</ele>
        <time>2026-07-09T07:48:20Z</time>
      </trkpt>
      <trkpt lat="53.366743996739388" lon="-6.370293013751507">
        <ele>65.989999999999995</ele>
        <time>2026-07-09T07:48:21Z</time>
      </trkpt>
      <trkpt lat="53.36672899313271" lon="-6.370090004056692">
        <ele>65.989999999999995</ele>
        <time>2026-07-09T07:48:22Z</time>
      </trkpt>
      <trkpt lat="53.366711977869272" lon="-6.36967602185905">
        <ele>65.989999999999995</ele>
        <time>2026-07-09T07:48:24Z</time>
      </trkpt>
      <trkpt lat="53.366711977869272" lon="-6.369263967499137">
        <ele>66.469999999999999</ele>
        <time>2026-07-09T07:48:26Z</time>
      </trkpt>
      <trkpt lat="53.366808034479618" lon="-6.368662985041738">
        <ele>66.469999999999999</ele>
        <time>2026-07-09T07:48:29Z</time>
      </trkpt>
      <trkpt lat="53.366975001990795" lon="-6.36763796210289">
        <ele>68.390000000000001</ele>
        <time>2026-07-09T07:48:36Z</time>
      </trkpt>
      <trkpt lat="53.36698698811233" lon="-6.367535032331944">
        <ele>68.390000000000001</ele>
        <time>2026-07-09T07:48:37Z</time>
      </trkpt>
      <trkpt lat="53.366996962577105" lon="-6.367445010691881">
        <ele>68.870000000000005</ele>
        <time>2026-07-09T07:48:38Z</time>
      </trkpt>
      <trkpt lat="53.367005009204149" lon="-6.367366975173354">
        <ele>68.870000000000005</ele>
        <time>2026-07-09T07:48:39Z</time>
      </trkpt>
      <trkpt lat="53.367011966183782" lon="-6.367305032908917">
        <ele>68.870000000000005</ele>
        <time>2026-07-09T07:48:40Z</time>
      </trkpt>
      <trkpt lat="53.367014983668923" lon="-6.367244012653828">
        <ele>69.349999999999994</ele>
        <time>2026-07-09T07:48:41Z</time>
      </trkpt>
      <trkpt lat="53.367018001154065" lon="-6.367187015712261">
        <ele>69.829999999999998</ele>
        <time>2026-07-09T07:48:42Z</time>
      </trkpt>
      <trkpt lat="53.367020012810826" lon="-6.367136975750327">
        <ele>69.829999999999998</ele>
        <time>2026-07-09T07:48:43Z</time>
      </trkpt>
      <trkpt lat="53.367023030295968" lon="-6.367092970758677">
        <ele>70.310000000000002</ele>
        <time>2026-07-09T07:48:44Z</time>
      </trkpt>
      <trkpt lat="53.367024958133698" lon="-6.367049971595407">
        <ele>70.310000000000002</ele>
        <time>2026-07-09T07:48:45Z</time>
      </trkpt>
      <trkpt lat="53.367026969790459" lon="-6.366995992138982">
        <ele>70.310000000000002</ele>
        <time>2026-07-09T07:48:46Z</time>
      </trkpt>
      <trkpt lat="53.367030993103981" lon="-6.366933966055512">
        <ele>70.310000000000002</ele>
        <time>2026-07-09T07:48:47Z</time>
      </trkpt>
      <trkpt lat="53.367033004760742" lon="-6.36688300408423">
        <ele>70.310000000000002</ele>
        <time>2026-07-09T07:48:48Z</time>
      </trkpt>
      <trkpt lat="53.367035016417503" lon="-6.366847967728972">
        <ele>70.790000000000006</ele>
        <time>2026-07-09T07:48:59Z</time>
      </trkpt>
      <trkpt lat="53.367038033902645" lon="-6.366778984665871">
        <ele>70.790000000000006</ele>
        <time>2026-07-09T07:49:22Z</time>
      </trkpt>
      <trkpt lat="53.367058988660574" lon="-6.366348993033171">
        <ele>72.239999999999995</ele>
        <time>2026-07-09T07:49:31Z</time>
      </trkpt>
      <trkpt lat="53.367064017802477" lon="-6.366257965564728">
        <ele>73.680000000000007</ele>
        <time>2026-07-09T07:49:44Z</time>
      </trkpt>
      <trkpt lat="53.367076003924012" lon="-6.366015980020165">
        <ele>74.640000000000001</ele>
        <time>2026-07-09T07:50:15Z</time>
      </trkpt>
      <trkpt lat="53.367077009752393" lon="-6.365748010575771">
        <ele>75.120000000000005</ele>
        <time>2026-07-09T07:50:17Z</time>
      </trkpt>
      <trkpt lat="53.367077009752393" lon="-6.365607026964426">
        <ele>75.599999999999994</ele>
        <time>2026-07-09T07:50:18Z</time>
      </trkpt>
      <trkpt lat="53.367077009752393" lon="-6.365192038938403">
        <ele>75.120000000000005</ele>
        <time>2026-07-09T07:50:21Z</time>
      </trkpt>
      <trkpt lat="53.367077009752393" lon="-6.364758023992181">
        <ele>76.079999999999998</ele>
        <time>2026-07-09T07:50:25Z</time>
      </trkpt>
      <trkpt lat="53.367077009752393" lon="-6.36467101983726">
        <ele>76.079999999999998</ele>
        <time>2026-07-09T07:50:26Z</time>
      </trkpt>
      <trkpt lat="53.366948012262583" lon="-6.364410007372499">
        <ele>76.560000000000002</ele>
        <time>2026-07-09T07:50:28Z</time>
      </trkpt>
      <trkpt lat="53.366924040019512" lon="-6.364401960745454">
        <ele>77.040000000000006</ele>
        <time>2026-07-09T07:50:29Z</time>
      </trkpt>
      <trkpt lat="53.366133961826563" lon="-6.364136002957821">
        <ele>78.480000000000004</ele>
        <time>2026-07-09T07:50:37Z</time>
      </trkpt>
      <trkpt lat="53.365279007703066" lon="-6.363846994936466">
        <ele>76.560000000000002</ele>
        <time>2026-07-09T07:50:44Z</time>
      </trkpt>
      <trkpt lat="53.364303018897772" lon="-6.363518005236983">
        <ele>71.760000000000005</ele>
        <time>2026-07-09T07:50:52Z</time>
      </trkpt>
      <trkpt lat="53.363444041460752" lon="-6.363227991387248">
        <ele>64.069999999999993</ele>
        <time>2026-07-09T07:50:59Z</time>
      </trkpt>
      <trkpt lat="53.363218987360597" lon="-6.363156996667385">
        <ele>62.140000000000001</ele>
        <time>2026-07-09T07:51:01Z</time>
      </trkpt>
      <trkpt lat="53.363108010962605" lon="-6.363121960312128">
        <ele>61.659999999999997</ele>
        <time>2026-07-09T07:51:02Z</time>
      </trkpt>
      <trkpt lat="53.362998040392995" lon="-6.363057000562549">
        <ele>60.700000000000003</ele>
        <time>2026-07-09T07:51:03Z</time>
      </trkpt>
      <trkpt lat="53.362697968259454" lon="-6.362757012248039">
        <ele>58.299999999999997</ele>
        <time>2026-07-09T07:51:06Z</time>
      </trkpt>
      <trkpt lat="53.362277029082179" lon="-6.362334983423352">
        <ele>54.93</ele>
        <time>2026-07-09T07:51:10Z</time>
      </trkpt>
      <trkpt lat="53.361622989177704" lon="-6.361660994589329">
        <ele>53.969999999999999</ele>
        <time>2026-07-09T07:51:16Z</time>
      </trkpt>
      <trkpt lat="53.360577011480927" lon="-6.360471015796065">
        <ele>53.009999999999998</ele>
        <time>2026-07-09T07:51:26Z</time>
      </trkpt>
      <trkpt lat="53.360362015664577" lon="-6.360064996406436">
        <ele>53.009999999999998</ele>
        <time>2026-07-09T07:51:29Z</time>
      </trkpt>
      <trkpt lat="53.360318010672927" lon="-6.359890988096595">
        <ele>52.530000000000001</ele>
        <time>2026-07-09T07:51:30Z</time>
      </trkpt>
      <trkpt lat="53.360231006518006" lon="-6.35955504141748">
        <ele>52.530000000000001</ele>
        <time>2026-07-09T07:51:32Z</time>
      </trkpt>
      <trkpt lat="53.360191024839878" lon="-6.359397964552045">
        <ele>52.049999999999997</ele>
        <time>2026-07-09T07:51:33Z</time>
      </trkpt>
      <trkpt lat="53.360124975442886" lon="-6.35925798676908">
        <ele>52.049999999999997</ele>
        <time>2026-07-09T07:51:34Z</time>
      </trkpt>
      <trkpt lat="53.359851976856589" lon="-6.358696985989809">
        <ele>50.609999999999999</ele>
        <time>2026-07-09T07:51:38Z</time>
      </trkpt>
      <trkpt lat="53.359561963006854" lon="-6.358332959935069">
        <ele>48.200000000000003</ele>
        <time>2026-07-09T07:51:41Z</time>
      </trkpt>
      <trkpt lat="53.358336025848985" lon="-6.357225961983204">
        <ele>43.399999999999999</ele>
        <time>2026-07-09T07:51:52Z</time>
      </trkpt>
      <trkpt lat="53.357399012893438" lon="-6.356103038415313">
        <ele>45.32</ele>
        <time>2026-07-09T07:52:00Z</time>
      </trkpt>
      <trkpt lat="53.356399973854423" lon="-6.354751959443092">
        <ele>46.280000000000001</ele>
        <time>2026-07-09T07:52:10Z</time>
      </trkpt>
      <trkpt lat="53.355651972815394" lon="-6.35401401668787">
        <ele>41.469999999999999</ele>
        <time>2026-07-09T07:52:18Z</time>
      </trkpt>
      <trkpt lat="53.355571003630757" lon="-6.353922989219427">
        <ele>40.509999999999998</ele>
        <time>2026-07-09T07:52:19Z</time>
      </trkpt>
      <trkpt lat="53.355483999475837" lon="-6.353825004771352">
        <ele>39.549999999999997</ele>
        <time>2026-07-09T07:52:20Z</time>
      </trkpt>
      <trkpt lat="53.355393977835774" lon="-6.353724002838135">
        <ele>38.590000000000003</ele>
        <time>2026-07-09T07:52:21Z</time>
      </trkpt>
      <trkpt lat="53.355314014479518" lon="-6.35362601839006">
        <ele>37.630000000000003</ele>
        <time>2026-07-09T07:52:22Z</time>
      </trkpt>
      <trkpt lat="53.355264980345964" lon="-6.353469025343657">
        <ele>36.189999999999998</ele>
        <time>2026-07-09T07:52:23Z</time>
      </trkpt>
      <trkpt lat="53.355217035859823" lon="-6.353316977620125">
        <ele>34.259999999999998</ele>
        <time>2026-07-09T07:52:24Z</time>
      </trkpt>
      <trkpt lat="53.35516900755465" lon="-6.353160990402103">
        <ele>32.340000000000003</ele>
        <time>2026-07-09T07:52:25Z</time>
      </trkpt>
      <trkpt lat="53.355117961764336" lon="-6.352999974042177">
        <ele>30.899999999999999</ele>
        <time>2026-07-09T07:52:26Z</time>
      </trkpt>
      <trkpt lat="53.355057025328279" lon="-6.352851027622819">
        <ele>28.98</ele>
        <time>2026-07-09T07:52:27Z</time>
      </trkpt>
      <trkpt lat="53.354629967361689" lon="-6.351967994123697">
        <ele>17.920000000000002</ele>
        <time>2026-07-09T07:52:34Z</time>
      </trkpt>
      <trkpt lat="53.354112971574068" lon="-6.351041961461306">
        <ele>12.630000000000001</ele>
        <time>2026-07-09T07:52:43Z</time>
      </trkpt>
      <trkpt lat="53.354062009602785" lon="-6.350931990891695">
        <ele>11.67</ele>
        <time>2026-07-09T07:52:44Z</time>
      </trkpt>
      <trkpt lat="53.353638974949718" lon="-6.35001702234149">
        <ele>9.27</ele>
        <time>2026-07-09T07:52:54Z</time>
      </trkpt>
      <trkpt lat="53.35327997803688" lon="-6.349413022398949">
        <ele>9.27</ele>
        <time>2026-07-09T07:53:03Z</time>
      </trkpt>
      <trkpt lat="53.352717971429229" lon="-6.348816985264421">
        <ele>11.19</ele>
        <time>2026-07-09T07:53:12Z</time>
      </trkpt>
      <trkpt lat="53.35218396037817" lon="-6.348293032497168">
        <ele>12.630000000000001</ele>
        <time>2026-07-09T07:53:22Z</time>
      </trkpt>
      <trkpt lat="53.351956978440285" lon="-6.348089016973972">
        <ele>12.630000000000001</ele>
        <time>2026-07-09T07:53:27Z</time>
      </trkpt>
      <trkpt lat="53.351725973188877" lon="-6.347858011722565">
        <ele>12.630000000000001</ele>
        <time>2026-07-09T07:53:31Z</time>
      </trkpt>
      <trkpt lat="53.351469989866018" lon="-6.347581995651126">
        <ele>12.15</ele>
        <time>2026-07-09T07:53:35Z</time>
      </trkpt>
      <trkpt lat="53.351408969610929" lon="-6.347515024244785">
        <ele>12.15</ele>
        <time>2026-07-09T07:53:36Z</time>
      </trkpt>
      <trkpt lat="53.350879987701774" lon="-6.346824020147324">
        <ele>13.119999999999999</ele>
        <time>2026-07-09T07:53:46Z</time>
      </trkpt>
      <trkpt lat="53.350657029077411" lon="-6.346415989100933">
        <ele>14.56</ele>
        <time>2026-07-09T07:53:51Z</time>
      </trkpt>
      <trkpt lat="53.350609000772238" lon="-6.346337031573057">
        <ele>14.56</ele>
        <time>2026-07-09T07:53:52Z</time>
      </trkpt>
      <trkpt lat="53.350567007437348" lon="-6.346268970519304">
        <ele>14.56</ele>
        <time>2026-07-09T07:53:53Z</time>
      </trkpt>
      <trkpt lat="53.350523002445698" lon="-6.346197975799441">
        <ele>14.56</ele>
        <time>2026-07-09T07:53:54Z</time>
      </trkpt>
      <trkpt lat="53.350476985797286" lon="-6.346125975251198">
        <ele>14.56</ele>
        <time>2026-07-09T07:53:55Z</time>
      </trkpt>
      <trkpt lat="53.350211028009653" lon="-6.34561400860548">
        <ele>13.6</ele>
        <time>2026-07-09T07:54:01Z</time>
      </trkpt>
      <trkpt lat="53.349959990009665" lon="-6.345127020031214">
        <ele>13.6</ele>
        <time>2026-07-09T07:54:07Z</time>
      </trkpt>
      <trkpt lat="53.349913973361254" lon="-6.345044961199164">
        <ele>14.08</ele>
        <time>2026-07-09T07:54:08Z</time>
      </trkpt>
      <trkpt lat="53.349565034732223" lon="-6.344580017030239">
        <ele>16.48</ele>
        <time>2026-07-09T07:54:14Z</time>
      </trkpt>
      <trkpt lat="53.349506026133895" lon="-6.344494018703699">
        <ele>16.960000000000001</ele>
        <time>2026-07-09T07:54:15Z</time>
      </trkpt>
      <trkpt lat="53.349278960376978" lon="-6.344157988205552">
        <ele>17.920000000000002</ele>
        <time>2026-07-09T07:54:20Z</time>
      </trkpt>
      <trkpt lat="53.349179970100522" lon="-6.343972999602556">
        <ele>18.399999999999999</ele>
        <time>2026-07-09T07:54:27Z</time>
      </trkpt>
      <trkpt lat="53.349154992029071" lon="-6.343925977125764">
        <ele>20.32</ele>
        <time>2026-07-09T07:55:02Z</time>
      </trkpt>
      <trkpt lat="53.348742015659809" lon="-6.343247964978218">
        <ele>21.289999999999999</ele>
        <time>2026-07-09T07:55:09Z</time>
      </trkpt>
      <trkpt lat="53.34867998957634" lon="-6.343155009672046">
        <ele>21.289999999999999</ele>
        <time>2026-07-09T07:55:10Z</time>
      </trkpt>
      <trkpt lat="53.348578987643123" lon="-6.343004973605275">
        <ele>20.809999999999999</ele>
        <time>2026-07-09T07:55:12Z</time>
      </trkpt>
      <trkpt lat="53.348539005964994" lon="-6.342944959178567">
        <ele>20.809999999999999</ele>
        <time>2026-07-09T07:55:13Z</time>
      </trkpt>
      <trkpt lat="53.348516039550304" lon="-6.342909000813961">
        <ele>20.809999999999999</ele>
        <time>2026-07-09T07:55:14Z</time>
      </trkpt>
      <trkpt lat="53.348492989316583" lon="-6.342877987772226">
        <ele>20.32</ele>
        <time>2026-07-09T07:55:25Z</time>
      </trkpt>
      <trkpt lat="53.34846499375999" lon="-6.342840017750859">
        <ele>20.809999999999999</ele>
        <time>2026-07-09T07:56:13Z</time>
      </trkpt>
      <trkpt lat="53.348436998203397" lon="-6.342801041901112">
        <ele>20.809999999999999</ele>
        <time>2026-07-09T07:56:14Z</time>
      </trkpt>
      <trkpt lat="53.348401039838791" lon="-6.342752007767558">
        <ele>20.809999999999999</ele>
        <time>2026-07-09T07:56:15Z</time>
      </trkpt>
      <trkpt lat="53.348372038453817" lon="-6.34271202608943">
        <ele>20.32</ele>
        <time>2026-07-09T07:56:16Z</time>
      </trkpt>
      <trkpt lat="53.348305989056826" lon="-6.342768017202616">
        <ele>19.84</ele>
        <time>2026-07-09T07:56:17Z</time>
      </trkpt>
      <trkpt lat="53.348300959914923" lon="-6.342781009152532">
        <ele>19.84</ele>
        <time>2026-07-09T07:56:18Z</time>
      </trkpt>
      <trkpt lat="53.348289979621768" lon="-6.342946970835328">
        <ele>19.359999999999999</ele>
        <time>2026-07-09T07:56:19Z</time>
      </trkpt>
      <trkpt lat="53.348282016813755" lon="-6.343063982203603">
        <ele>18.879999999999999</ele>
        <time>2026-07-09T07:56:20Z</time>
      </trkpt>
      <trkpt lat="53.348136004060507" lon="-6.344485972076654">
        <ele>16.960000000000001</ele>
        <time>2026-07-09T07:56:27Z</time>
      </trkpt>
      <trkpt lat="53.348017986863852" lon="-6.345177982002497">
        <ele>17.440000000000001</ele>
        <time>2026-07-09T07:56:32Z</time>
      </trkpt>
      <trkpt lat="53.347849007695913" lon="-6.34584903717041">
        <ele>18.399999999999999</ele>
        <time>2026-07-09T07:56:38Z</time>
      </trkpt>
      <trkpt lat="53.347849007695913" lon="-6.34584903717041">
        <ele>18.399999999999999</ele>
        <time>2026-07-09T07:56:59Z</time>
      </trkpt>
      <trkpt lat="53.347826041281223" lon="-6.34593696333468">
        <ele>19.359999999999999</ele>
        <time>2026-07-09T07:57:37Z</time>
      </trkpt>
      <trkpt lat="53.347805002704263" lon="-6.346016004681587">
        <ele>19.359999999999999</ele>
        <time>2026-07-09T07:57:38Z</time>
      </trkpt>
      <trkpt lat="53.347826041281223" lon="-6.346232006326318">
        <ele>18.879999999999999</ele>
        <time>2026-07-09T07:57:39Z</time>
      </trkpt>
      <trkpt lat="53.347826041281223" lon="-6.346232006326318">
        <ele>18.879999999999999</ele>
        <time>2026-07-09T07:57:40Z</time>
      </trkpt>
      <trkpt lat="53.347893012687564" lon="-6.346299983561039">
        <ele>18.399999999999999</ele>
        <time>2026-07-09T07:57:41Z</time>
      </trkpt>
      <trkpt lat="53.34795000962913" lon="-6.346363015472889">
        <ele>17.920000000000002</ele>
        <time>2026-07-09T07:57:42Z</time>
      </trkpt>
      <trkpt lat="53.348025027662516" lon="-6.346447002142668">
        <ele>17.920000000000002</ele>
        <time>2026-07-09T07:57:43Z</time>
      </trkpt>
      <trkpt lat="53.348994981497526" lon="-6.347646033391357">
        <ele>18.399999999999999</ele>
        <time>2026-07-09T07:57:54Z</time>
      </trkpt>
      <trkpt lat="53.349971976131201" lon="-6.349232979118824">
        <ele>22.25</ele>
        <time>2026-07-09T07:58:05Z</time>
      </trkpt>
      <trkpt lat="53.350512022152543" lon="-6.350699979811907">
        <ele>23.210000000000001</ele>
        <time>2026-07-09T07:58:14Z</time>
      </trkpt>
      <trkpt lat="53.350923992693424" lon="-6.352075031027198">
        <ele>24.649999999999999</ele>
        <time>2026-07-09T07:58:23Z</time>
      </trkpt>
      <trkpt lat="53.350984007120132" lon="-6.352356998249888">
        <ele>24.170000000000002</ele>
        <time>2026-07-09T07:58:28Z</time>
      </trkpt>
      <trkpt lat="53.350988030433655" lon="-6.352377030998468">
        <ele>23.690000000000001</ele>
        <time>2026-07-09T07:58:59Z</time>
      </trkpt>
      <trkpt lat="53.351018959656358" lon="-6.352523965761066">
        <ele>23.690000000000001</ele>
        <time>2026-07-09T07:59:01Z</time>
      </trkpt>
      <trkpt lat="53.351035974919796" lon="-6.352600995451212">
        <ele>23.210000000000001</ele>
        <time>2026-07-09T07:59:02Z</time>
      </trkpt>
      <trkpt lat="53.350960034877062" lon="-6.352792019024491">
        <ele>23.210000000000001</ele>
        <time>2026-07-09T07:59:03Z</time>
      </trkpt>
      <trkpt lat="53.350338013842702" lon="-6.352991005405784">
        <ele>24.170000000000002</ele>
        <time>2026-07-09T07:59:10Z</time>
      </trkpt>
      <trkpt lat="53.349221963435411" lon="-6.353130983188748">
        <ele>28.5</ele>
        <time>2026-07-09T07:59:20Z</time>
      </trkpt>
      <trkpt lat="53.34893899038434" lon="-6.353096030652523">
        <ele>29.460000000000001</ele>
        <time>2026-07-09T07:59:23Z</time>
      </trkpt>
      <trkpt lat="53.348869001492858" lon="-6.353086978197098">
        <ele>29.940000000000001</ele>
        <time>2026-07-09T07:59:24Z</time>
      </trkpt>
      <trkpt lat="53.348789038136601" lon="-6.3531110342592">
        <ele>29.940000000000001</ele>
        <time>2026-07-09T07:59:25Z</time>
      </trkpt>
      <trkpt lat="53.348755007609725" lon="-6.353150010108948">
        <ele>30.420000000000002</ele>
        <time>2026-07-09T07:59:26Z</time>
      </trkpt>
      <trkpt lat="53.348730029538274" lon="-6.353178005665541">
        <ele>30.420000000000002</ele>
        <time>2026-07-09T07:59:27Z</time>
      </trkpt>
      <trkpt lat="53.348712008446455" lon="-6.35319896042347">
        <ele>30.899999999999999</ele>
        <time>2026-07-09T07:59:39Z</time>
      </trkpt>
      <trkpt lat="53.348712008446455" lon="-6.35319896042347">
        <ele>30.899999999999999</ele>
        <time>2026-07-09T07:59:42Z</time>
      </trkpt>
      <trkpt lat="53.348704967647791" lon="-6.353207007050514">
        <ele>30.899999999999999</ele>
        <time>2026-07-09T07:59:43Z</time>
      </trkpt>
      <trkpt lat="53.348697004839778" lon="-6.353329969570041">
        <ele>31.379999999999999</ele>
        <time>2026-07-09T07:59:44Z</time>
      </trkpt>
      <trkpt lat="53.34872298873961" lon="-6.353395013138652">
        <ele>31.379999999999999</ele>
        <time>2026-07-09T07:59:45Z</time>
      </trkpt>
      <trkpt lat="53.348751990124583" lon="-6.353467013686895">
        <ele>30.899999999999999</ele>
        <time>2026-07-09T07:59:46Z</time>
      </trkpt>
      <trkpt lat="53.348841005936265" lon="-6.353537002578378">
        <ele>30.899999999999999</ele>
        <time>2026-07-09T07:59:47Z</time>
      </trkpt>
      <trkpt lat="53.348933039233088" lon="-6.353611014783382">
        <ele>30.420000000000002</ele>
        <time>2026-07-09T07:59:48Z</time>
      </trkpt>
      <trkpt lat="53.349436959251761" lon="-6.35403597727418">
        <ele>30.420000000000002</ele>
        <time>2026-07-09T07:59:52Z</time>
      </trkpt>
      <trkpt lat="53.349569980055094" lon="-6.354193976148963">
        <ele>30.899999999999999</ele>
        <time>2026-07-09T07:59:53Z</time>
      </trkpt>
      <trkpt lat="53.349996032193303" lon="-6.354823037981987">
        <ele>32.340000000000003</ele>
        <time>2026-07-09T07:59:57Z</time>
      </trkpt>
      <trkpt lat="53.350067026913166" lon="-6.354957986623049">
        <ele>33.299999999999997</ele>
        <time>2026-07-09T07:59:58Z</time>
      </trkpt>
      <trkpt lat="53.350236006081104" lon="-6.355279013514519">
        <ele>35.229999999999997</ele>
        <time>2026-07-09T08:00:02Z</time>
      </trkpt>
      <trkpt lat="53.350275987759233" lon="-6.355349002406001">
        <ele>36.189999999999998</ele>
        <time>2026-07-09T08:00:03Z</time>
      </trkpt>
      <trkpt lat="53.350687958300114" lon="-6.356394980102778">
        <ele>38.109999999999999</ele>
        <time>2026-07-09T08:00:09Z</time>
      </trkpt>
      <trkpt lat="53.350983001291752" lon="-6.356985988095403">
        <ele>38.590000000000003</ele>
        <time>2026-07-09T08:00:12Z</time>
      </trkpt>
      <trkpt lat="53.351095989346504" lon="-6.357141975313425">
        <ele>38.590000000000003</ele>
        <time>2026-07-09T08:00:13Z</time>
      </trkpt>
      <trkpt lat="53.352211033925414" lon="-6.358476961031556">
        <ele>38.109999999999999</ele>
        <time>2026-07-09T08:00:21Z</time>
      </trkpt>
      <trkpt lat="53.352347994223237" lon="-6.358659015968442">
        <ele>37.630000000000003</ele>
        <time>2026-07-09T08:00:22Z</time>
      </trkpt>
      <trkpt lat="53.353014020249248" lon="-6.360423993319273">
        <ele>37.149999999999999</ele>
        <time>2026-07-09T08:00:29Z</time>
      </trkpt>
      <trkpt lat="53.353155003860593" lon="-6.362258959561586">
        <ele>42.439999999999998</ele>
        <time>2026-07-09T08:00:38Z</time>
      </trkpt>
      <trkpt lat="53.353231027722359" lon="-6.363410968333483">
        <ele>46.759999999999998</ele>
        <time>2026-07-09T08:00:49Z</time>
      </trkpt>
      <trkpt lat="53.353587007150054" lon="-6.366431973874569">
        <ele>47.719999999999999</ele>
        <time>2026-07-09T08:00:59Z</time>
      </trkpt>
      <trkpt lat="53.353948015719652" lon="-6.368136014789343">
        <ele>48.68</ele>
        <time>2026-07-09T08:01:09Z</time>
      </trkpt>
      <trkpt lat="53.354044994339347" lon="-6.368526024743915">
        <ele>49.159999999999997</ele>
        <time>2026-07-09T08:01:12Z</time>
      </trkpt>
      <trkpt lat="53.354079024866223" lon="-6.368658961728215">
        <ele>49.159999999999997</ele>
        <time>2026-07-09T08:01:13Z</time>
      </trkpt>
      <trkpt lat="53.354296032339334" lon="-6.369555993005633">
        <ele>48.68</ele>
        <time>2026-07-09T08:01:20Z</time>
      </trkpt>
      <trkpt lat="53.354315981268883" lon="-6.369636040180922">
        <ele>48.200000000000003</ele>
        <time>2026-07-09T08:01:21Z</time>
      </trkpt>
      <trkpt lat="53.354393010959029" lon="-6.36995698325336">
        <ele>47.240000000000002</ele>
        <time>2026-07-09T08:01:29Z</time>
      </trkpt>
      <trkpt lat="53.3544169832021" lon="-6.370053039863706">
        <ele>47.240000000000002</ele>
        <time>2026-07-09T08:01:37Z</time>
      </trkpt>
      <trkpt lat="53.354427041485906" lon="-6.370096961036325">
        <ele>47.240000000000002</ele>
        <time>2026-07-09T08:01:38Z</time>
      </trkpt>
      <trkpt lat="53.354528965428472" lon="-6.37053701095283">
        <ele>46.759999999999998</ele>
        <time>2026-07-09T08:01:48Z</time>
      </trkpt>
      <trkpt lat="53.354616975411773" lon="-6.370886033400893">
        <ele>47.719999999999999</ele>
        <time>2026-07-09T08:01:53Z</time>
      </trkpt>
      <trkpt lat="53.354637008160353" lon="-6.370960967615247">
        <ele>47.719999999999999</ele>
        <time>2026-07-09T08:01:54Z</time>
      </trkpt>
      <trkpt lat="53.354684030637145" lon="-6.371140005066991">
        <ele>47.719999999999999</ele>
        <time>2026-07-09T08:01:56Z</time>
      </trkpt>
      <trkpt lat="53.354706997051835" lon="-6.371228015050292">
        <ele>47.719999999999999</ele>
        <time>2026-07-09T08:01:57Z</time>
      </trkpt>
      <trkpt lat="53.354729041457176" lon="-6.371312001720071">
        <ele>47.719999999999999</ele>
        <time>2026-07-09T08:01:58Z</time>
      </trkpt>
      <trkpt lat="53.354751002043486" lon="-6.371393976733089">
        <ele>47.719999999999999</ele>
        <time>2026-07-09T08:01:59Z</time>
      </trkpt>
      <trkpt lat="53.354772040620446" lon="-6.371486010029912">
        <ele>48.200000000000003</ele>
        <time>2026-07-09T08:02:00Z</time>
      </trkpt>
      <trkpt lat="53.354795007035136" lon="-6.371594974771142">
        <ele>48.200000000000003</ele>
        <time>2026-07-09T08:02:01Z</time>
      </trkpt>
      <trkpt lat="53.355102958157659" lon="-6.372906994074583">
        <ele>48.200000000000003</ele>
        <time>2026-07-09T08:02:09Z</time>
      </trkpt>
      <trkpt lat="53.355581983923912" lon="-6.374866012483835">
        <ele>47.719999999999999</ele>
        <time>2026-07-09T08:02:19Z</time>
      </trkpt>
      <trkpt lat="53.356151031330228" lon="-6.377200959250331">
        <ele>47.240000000000002</ele>
        <time>2026-07-09T08:02:29Z</time>
      </trkpt>
      <trkpt lat="53.356424029916525" lon="-6.378683969378471">
        <ele>49.649999999999999</ele>
        <time>2026-07-09T08:02:36Z</time>
      </trkpt>
      <trkpt lat="53.35658404044807" lon="-6.380681963637471">
        <ele>53.490000000000002</ele>
        <time>2026-07-09T08:02:45Z</time>
      </trkpt>
      <trkpt lat="53.356444984674454" lon="-6.381626017391682">
        <ele>54.93</ele>
        <time>2026-07-09T08:02:49Z</time>
      </trkpt>
      <trkpt lat="53.356394022703171" lon="-6.381834978237748">
        <ele>54.93</ele>
        <time>2026-07-09T08:02:50Z</time>
      </trkpt>
      <trkpt lat="53.35591902025044" lon="-6.383226960897446">
        <ele>59.740000000000002</ele>
        <time>2026-07-09T08:02:57Z</time>
      </trkpt>
      <trkpt lat="53.355744006112218" lon="-6.383567014709115">
        <ele>60.700000000000003</ele>
        <time>2026-07-09T08:02:58Z</time>
      </trkpt>
      <trkpt lat="53.355744006112218" lon="-6.383567014709115">
        <ele>61.659999999999997</ele>
        <time>2026-07-09T08:02:59Z</time>
      </trkpt>
      <trkpt lat="53.355507971718907" lon="-6.383796008303762">
        <ele>62.140000000000001</ele>
        <time>2026-07-09T08:03:00Z</time>
      </trkpt>
      <trkpt lat="53.355507971718907" lon="-6.383796008303762">
        <ele>62.140000000000001</ele>
        <time>2026-07-09T08:03:01Z</time>
      </trkpt>
      <trkpt lat="53.355241008102894" lon="-6.383954007178545">
        <ele>62.140000000000001</ele>
        <time>2026-07-09T08:03:02Z</time>
      </trkpt>
      <trkpt lat="53.3539869915694" lon="-6.384453987702727">
        <ele>62.140000000000001</ele>
        <time>2026-07-09T08:03:11Z</time>
      </trkpt>
      <trkpt lat="53.351883972063661" lon="-6.385174999013543">
        <ele>64.069999999999993</ele>
        <time>2026-07-09T08:03:23Z</time>
      </trkpt>
      <trkpt lat="53.350006006658077" lon="-6.385616976767778">
        <ele>65.030000000000001</ele>
        <time>2026-07-09T08:03:32Z</time>
      </trkpt>
      <trkpt lat="53.349352972581983" lon="-6.385770030319691">
        <ele>65.510000000000005</ele>
        <time>2026-07-09T08:03:36Z</time>
      </trkpt>
      <trkpt lat="53.347980016842484" lon="-6.386073036119342">
        <ele>64.069999999999993</ele>
        <time>2026-07-09T08:03:46Z</time>
      </trkpt>
      <trkpt lat="53.346542017534375" lon="-6.386382998898625">
        <ele>63.100000000000001</ele>
        <time>2026-07-09T08:03:54Z</time>
      </trkpt>
      <trkpt lat="53.343829968944192" lon="-6.387021029368043">
        <ele>62.140000000000001</ele>
        <time>2026-07-09T08:04:08Z</time>
      </trkpt>
      <trkpt lat="53.341673975810409" lon="-6.387416990473867">
        <ele>58.780000000000001</ele>
        <time>2026-07-09T08:04:18Z</time>
      </trkpt>
      <trkpt lat="53.339504990726709" lon="-6.387229990214109">
        <ele>57.340000000000003</ele>
        <time>2026-07-09T08:04:27Z</time>
      </trkpt>
      <trkpt lat="53.337380010634661" lon="-6.386357014998794">
        <ele>58.299999999999997</ele>
        <time>2026-07-09T08:04:37Z</time>
      </trkpt>
      <trkpt lat="53.335289983078837" lon="-6.384843997657299">
        <ele>62.619999999999997</ele>
        <time>2026-07-09T08:04:46Z</time>
      </trkpt>
      <trkpt lat="53.333064001053572" lon="-6.382533023133874">
        <ele>68.390000000000001</ele>
        <time>2026-07-09T08:04:58Z</time>
      </trkpt>
      <trkpt lat="53.330728970468044" lon="-6.380045022815466">
        <ele>67.909999999999997</ele>
        <time>2026-07-09T08:05:12Z</time>
      </trkpt>
      <trkpt lat="53.328581023961306" lon="-6.377757014706731">
        <ele>67.430000000000007</ele>
        <time>2026-07-09T08:05:23Z</time>
      </trkpt>
      <trkpt lat="53.326375996693969" lon="-6.375452997162938">
        <ele>61.18</ele>
        <time>2026-07-09T08:05:36Z</time>
      </trkpt>
      <trkpt lat="53.324328968301415" lon="-6.373305972665548">
        <ele>59.259999999999998</ele>
        <time>2026-07-09T08:05:47Z</time>
      </trkpt>
      <trkpt lat="53.322501964867115" lon="-6.371512999758124">
        <ele>62.140000000000001</ele>
        <time>2026-07-09T08:05:58Z</time>
      </trkpt>
      <trkpt lat="53.319462016224861" lon="-6.368959033861756">
        <ele>66.469999999999999</ele>
        <time>2026-07-09T08:06:12Z</time>
      </trkpt>
      <trkpt lat="53.318220991641283" lon="-6.367980027571321">
        <ele>68.870000000000005</ele>
        <time>2026-07-09T08:06:18Z</time>
      </trkpt>
      <trkpt lat="53.317081974819303" lon="-6.367050977423787">
        <ele>66.469999999999999</ele>
        <time>2026-07-09T08:06:24Z</time>
      </trkpt>
      <trkpt lat="53.314806036651134" lon="-6.364905964583159">
        <ele>66.469999999999999</ele>
        <time>2026-07-09T08:06:36Z</time>
      </trkpt>
      <trkpt lat="53.312779041007161" lon="-6.362872011959553">
        <ele>66.950000000000003</ele>
        <time>2026-07-09T08:06:48Z</time>
      </trkpt>
      <trkpt lat="53.310794038698077" lon="-6.361246006563306">
        <ele>68.390000000000001</ele>
        <time>2026-07-09T08:06:58Z</time>
      </trkpt>
      <trkpt lat="53.309443965554237" lon="-6.360058961436153">
        <ele>70.310000000000002</ele>
        <time>2026-07-09T08:07:04Z</time>
      </trkpt>
      <trkpt lat="53.308086013421416" lon="-6.358069013804197">
        <ele>74.640000000000001</ele>
        <time>2026-07-09T08:07:12Z</time>
      </trkpt>
      <trkpt lat="53.307226030156016" lon="-6.356097003445029">
        <ele>75.599999999999994</ele>
        <time>2026-07-09T08:07:18Z</time>
      </trkpt>
      <trkpt lat="53.305923985317349" lon="-6.352794030681253">
        <ele>75.120000000000005</ele>
        <time>2026-07-09T08:07:28Z</time>
      </trkpt>
      <trkpt lat="53.30444198101759" lon="-6.348978001624346">
        <ele>72.719999999999999</ele>
        <time>2026-07-09T08:07:40Z</time>
      </trkpt>
      <trkpt lat="53.303228029981256" lon="-6.345862029120326">
        <ele>71.269999999999996</ele>
        <time>2026-07-09T08:07:49Z</time>
      </trkpt>
      <trkpt lat="53.301593977957964" lon="-6.341796973720193">
        <ele>70.310000000000002</ele>
        <time>2026-07-09T08:08:01Z</time>
      </trkpt>
      <trkpt lat="53.300248011946678" lon="-6.338989036157727">
        <ele>73.200000000000003</ele>
        <time>2026-07-09T08:08:10Z</time>
      </trkpt>
      <trkpt lat="53.298848988488317" lon="-6.336852991953492">
        <ele>76.079999999999998</ele>
        <time>2026-07-09T08:08:18Z</time>
      </trkpt>
      <trkpt lat="53.29703195951879" lon="-6.334818033501506">
        <ele>79.930000000000007</ele>
        <time>2026-07-09T08:08:28Z</time>
      </trkpt>
      <trkpt lat="53.295004041865468" lon="-6.333272997289896">
        <ele>80.890000000000001</ele>
        <time>2026-07-09T08:08:38Z</time>
      </trkpt>
      <trkpt lat="53.292287969961762" lon="-6.331660989671946">
        <ele>77.519999999999996</ele>
        <time>2026-07-09T08:08:50Z</time>
      </trkpt>
      <trkpt lat="53.291843980550766" lon="-6.331374999135733">
        <ele>77.040000000000006</ele>
        <time>2026-07-09T08:08:52Z</time>
      </trkpt>
      <trkpt lat="53.29161498695612" lon="-6.331236027181149">
        <ele>77.519999999999996</ele>
        <time>2026-07-09T08:08:53Z</time>
      </trkpt>
      <trkpt lat="53.289761999621987" lon="-6.330237993970513">
        <ele>78</ele>
        <time>2026-07-09T08:09:02Z</time>
      </trkpt>
      <trkpt lat="53.287688987329602" lon="-6.329068969935179">
        <ele>77.040000000000006</ele>
        <time>2026-07-09T08:09:13Z</time>
      </trkpt>
      <trkpt lat="53.285977989435196" lon="-6.328103961423039">
        <ele>77.040000000000006</ele>
        <time>2026-07-09T08:09:22Z</time>
      </trkpt>
      <trkpt lat="53.284470001235604" lon="-6.327257975935936">
        <ele>82.329999999999998</ele>
        <time>2026-07-09T08:09:31Z</time>
      </trkpt>
      <trkpt lat="53.282894035801291" lon="-6.326359016820788">
        <ele>84.25</ele>
        <time>2026-07-09T08:09:40Z</time>
      </trkpt>
      <trkpt lat="53.280618013814092" lon="-6.325048003345728">
        <ele>86.659999999999997</ele>
        <time>2026-07-09T08:09:53Z</time>
      </trkpt>
      <trkpt lat="53.279498023912311" lon="-6.323845032602549">
        <ele>93.390000000000001</ele>
        <time>2026-07-09T08:10:01Z</time>
      </trkpt>
      <trkpt lat="53.278729990124702" lon="-6.322710961103439">
        <ele>98.189999999999998</ele>
        <time>2026-07-09T08:10:09Z</time>
      </trkpt>
      <trkpt lat="53.278440982103348" lon="-6.322127999737859">
        <ele>97.709999999999994</ele>
        <time>2026-07-09T08:10:16Z</time>
      </trkpt>
      <trkpt lat="53.278440982103348" lon="-6.322127999737859">
        <ele>97.709999999999994</ele>
        <time>2026-07-09T08:10:46Z</time>
      </trkpt>
      <trkpt lat="53.278408963233232" lon="-6.322059016674757">
        <ele>97.709999999999994</ele>
        <time>2026-07-09T08:10:52Z</time>
      </trkpt>
      <trkpt lat="53.278375016525388" lon="-6.321985004469752">
        <ele>97.230000000000004</ele>
        <time>2026-07-09T08:10:53Z</time>
      </trkpt>
      <trkpt lat="53.278327994048595" lon="-6.321880985051394">
        <ele>97.230000000000004</ele>
        <time>2026-07-09T08:10:54Z</time>
      </trkpt>
      <trkpt lat="53.278281977400184" lon="-6.321835974231362">
        <ele>96.75</ele>
        <time>2026-07-09T08:10:55Z</time>
      </trkpt>
      <trkpt lat="53.27814401127398" lon="-6.321903029456735">
        <ele>96.75</ele>
        <time>2026-07-09T08:10:56Z</time>
      </trkpt>
      <trkpt lat="53.278105035424232" lon="-6.322008976712823">
        <ele>96.75</ele>
        <time>2026-07-09T08:10:57Z</time>
      </trkpt>
      <trkpt lat="53.278056001290679" lon="-6.322138980031014">
        <ele>96.75</ele>
        <time>2026-07-09T08:10:58Z</time>
      </trkpt>
      <trkpt lat="53.278003027662635" lon="-6.322277029976249">
        <ele>96.75</ele>
        <time>2026-07-09T08:10:59Z</time>
      </trkpt>
      <trkpt lat="53.277953993529081" lon="-6.322406027466059">
        <ele>96.75</ele>
        <time>2026-07-09T08:11:00Z</time>
      </trkpt>
      <trkpt lat="53.277557026594877" lon="-6.323572034016252">
        <ele>97.230000000000004</ele>
        <time>2026-07-09T08:11:09Z</time>
      </trkpt>
      <trkpt lat="53.27724396251142" lon="-6.325403982773423">
        <ele>96.75</ele>
        <time>2026-07-09T08:11:18Z</time>
      </trkpt>
      <trkpt lat="53.276922013610601" lon="-6.328288028016686">
        <ele>93.870000000000005</ele>
        <time>2026-07-09T08:11:32Z</time>
      </trkpt>
      <trkpt lat="53.276698971167207" lon="-6.330715008080006">
        <ele>93.390000000000001</ele>
        <time>2026-07-09T08:11:45Z</time>
      </trkpt>
      <trkpt lat="53.276690002530813" lon="-6.330808969214559">
        <ele>93.870000000000005</ele>
        <time>2026-07-09T08:11:46Z</time>
      </trkpt>
      <trkpt lat="53.276605010032654" lon="-6.330839982256293">
        <ele>93.870000000000005</ele>
        <time>2026-07-09T08:11:47Z</time>
      </trkpt>
      <trkpt lat="53.276528986170888" lon="-6.330920029431582">
        <ele>93.870000000000005</ele>
        <time>2026-07-09T08:11:49Z</time>
      </trkpt>
      <trkpt lat="53.276481041684747" lon="-6.330970991402865">
        <ele>93.870000000000005</ele>
        <time>2026-07-09T08:11:50Z</time>
      </trkpt>
      <trkpt lat="53.276429995894432" lon="-6.331024970859289">
        <ele>93.870000000000005</ele>
        <time>2026-07-09T08:11:51Z</time>
      </trkpt>
      <trkpt lat="53.276385990902781" lon="-6.331071993336082">
        <ele>93.870000000000005</ele>
        <time>2026-07-09T08:11:52Z</time>
      </trkpt>
      <trkpt lat="53.276332011446357" lon="-6.331128990277648">
        <ele>93.870000000000005</ele>
        <time>2026-07-09T08:11:53Z</time>
      </trkpt>
      <trkpt lat="53.276308961212635" lon="-6.33113200776279">
        <ele>93.390000000000001</ele>
        <time>2026-07-09T08:11:54Z</time>
      </trkpt>
      <trkpt lat="53.276276020333171" lon="-6.331137036904693">
        <ele>93.390000000000001</ele>
        <time>2026-07-09T08:11:55Z</time>
      </trkpt>
      <trkpt lat="53.276236038655043" lon="-6.331142988055944">
        <ele>92.900000000000006</ele>
        <time>2026-07-09T08:11:56Z</time>
      </trkpt>
      <trkpt lat="53.276190022006631" lon="-6.331149023026228">
        <ele>92.900000000000006</ele>
        <time>2026-07-09T08:11:57Z</time>
      </trkpt>
      <trkpt lat="53.276135958731174" lon="-6.331156985834241">
        <ele>92.900000000000006</ele>
        <time>2026-07-09T08:11:58Z</time>
      </trkpt>
      <trkpt lat="53.276076028123498" lon="-6.331166038289666">
        <ele>92.900000000000006</ele>
        <time>2026-07-09T08:12:00Z</time>
      </trkpt>
      <trkpt lat="53.275384018197656" lon="-6.331214988604188">
        <ele>95.790000000000006</ele>
        <time>2026-07-09T08:12:11Z</time>
      </trkpt>
      <trkpt lat="53.275292990729213" lon="-6.331160003319383">
        <ele>95.790000000000006</ele>
        <time>2026-07-09T08:12:18Z</time>
      </trkpt>
      <trkpt lat="53.27528796158731" lon="-6.33115598000586">
        <ele>95.790000000000006</ele>
        <time>2026-07-09T08:12:19Z</time>
      </trkpt>
      <trkpt lat="53.275263989344239" lon="-6.331137958914042">
        <ele>96.269999999999996</ele>
        <time>2026-07-09T08:12:20Z</time>
      </trkpt>
      <trkpt lat="53.275227025151253" lon="-6.331109963357449">
        <ele>96.269999999999996</ele>
        <time>2026-07-09T08:12:21Z</time>
      </trkpt>
      <trkpt lat="53.275181008502841" lon="-6.331076016649604">
        <ele>96.269999999999996</ele>
        <time>2026-07-09T08:12:22Z</time>
      </trkpt>
      <trkpt lat="53.275123005732894" lon="-6.331033017486334">
        <ele>96.269999999999996</ele>
        <time>2026-07-09T08:12:23Z</time>
      </trkpt>
      <trkpt lat="53.27507296577096" lon="-6.330950036644936">
        <ele>96.269999999999996</ele>
        <time>2026-07-09T08:12:24Z</time>
      </trkpt>
      <trkpt lat="53.275011023506522" lon="-6.330893039703369">
        <ele>96.269999999999996</ele>
        <time>2026-07-09T08:12:25Z</time>
      </trkpt>
      <trkpt lat="53.274958971887827" lon="-6.330893039703369">
        <ele>96.75</ele>
        <time>2026-07-09T08:12:26Z</time>
      </trkpt>
      <trkpt lat="53.274890994653106" lon="-6.330979960039258">
        <ele>96.75</ele>
        <time>2026-07-09T08:12:27Z</time>
      </trkpt>
      <trkpt lat="53.27474900521338" lon="-6.331040980294347">
        <ele>97.230000000000004</ele>
        <time>2026-07-09T08:12:29Z</time>
      </trkpt>
      <trkpt lat="53.274659989401698" lon="-6.331042991951108">
        <ele>97.709999999999994</ele>
        <time>2026-07-09T08:12:30Z</time>
      </trkpt>
      <trkpt lat="53.274123966693878" lon="-6.330993035808206">
        <ele>98.189999999999998</ele>
        <time>2026-07-09T08:12:35Z</time>
      </trkpt>
      <trkpt lat="53.273999998345971" lon="-6.330967973917723">
        <ele>98.189999999999998</ele>
        <time>2026-07-09T08:12:36Z</time>
      </trkpt>
      <trkpt lat="53.273763963952661" lon="-6.330792037770152">
        <ele>98.189999999999998</ele>
        <time>2026-07-09T08:12:38Z</time>
      </trkpt>
      <trkpt lat="53.273646030575037" lon="-6.330696986988187">
        <ele>98.189999999999998</ele>
        <time>2026-07-09T08:12:39Z</time>
      </trkpt>
      <trkpt lat="53.272226974368095" lon="-6.329436013475061">
        <ele>103</ele>
        <time>2026-07-09T08:12:53Z</time>
      </trkpt>
      <trkpt lat="53.271084018051624" lon="-6.328189959749579">
        <ele>110.20999999999999</ele>
        <time>2026-07-09T08:13:05Z</time>
      </trkpt>
      <trkpt lat="53.270929958671331" lon="-6.328014023602009">
        <ele>111.17</ele>
        <time>2026-07-09T08:13:07Z</time>
      </trkpt>
      <trkpt lat="53.27086198143661" lon="-6.327941017225385">
        <ele>111.65000000000001</ele>
        <time>2026-07-09T08:13:08Z</time>
      </trkpt>
      <trkpt lat="53.270800039172173" lon="-6.327873039990664">
        <ele>112.13</ele>
        <time>2026-07-09T08:13:09Z</time>
      </trkpt>
      <trkpt lat="53.27077497728169" lon="-6.32784596644342">
        <ele>112.13</ele>
        <time>2026-07-09T08:13:10Z</time>
      </trkpt>
      <trkpt lat="53.27064597979188" lon="-6.327696014195681">
        <ele>112.13</ele>
        <time>2026-07-09T08:13:11Z</time>
      </trkpt>
      <trkpt lat="53.270607003942132" lon="-6.327645974233747">
        <ele>112.13</ele>
        <time>2026-07-09T08:13:12Z</time>
      </trkpt>
      <trkpt lat="53.270539026707411" lon="-6.327558970078826">
        <ele>112.61</ele>
        <time>2026-07-09T08:13:13Z</time>
      </trkpt>
      <trkpt lat="53.270463002845645" lon="-6.327454028651118">
        <ele>112.61</ele>
        <time>2026-07-09T08:13:14Z</time>
      </trkpt>
      <trkpt lat="53.270381027832627" lon="-6.327331988140941">
        <ele>112.61</ele>
        <time>2026-07-09T08:13:15Z</time>
      </trkpt>
      <trkpt lat="53.270082967355847" lon="-6.326980032026768">
        <ele>114.53</ele>
        <time>2026-07-09T08:13:18Z</time>
      </trkpt>
      <trkpt lat="53.269972996786237" lon="-6.326892022043467">
        <ele>115.01000000000001</ele>
        <time>2026-07-09T08:13:19Z</time>
      </trkpt>
      <trkpt lat="53.269860008731484" lon="-6.326811974868178">
        <ele>115.5</ele>
        <time>2026-07-09T08:13:20Z</time>
      </trkpt>
      <trkpt lat="53.26974299736321" lon="-6.326732011511922">
        <ele>115.98</ele>
        <time>2026-07-09T08:13:21Z</time>
      </trkpt>
      <trkpt lat="53.269616011530161" lon="-6.326644001528621">
        <ele>116.45999999999999</ele>
        <time>2026-07-09T08:13:22Z</time>
      </trkpt>
      <trkpt lat="53.269490031525493" lon="-6.326632015407085">
        <ele>116.45999999999999</ele>
        <time>2026-07-09T08:13:23Z</time>
      </trkpt>
      <trkpt lat="53.269358016550541" lon="-6.326635032892227">
        <ele>116.94</ele>
        <time>2026-07-09T08:13:24Z</time>
      </trkpt>
      <trkpt lat="53.26922801323235" lon="-6.326671997085214">
        <ele>117.90000000000001</ele>
        <time>2026-07-09T08:13:25Z</time>
      </trkpt>
      <trkpt lat="53.269101027399302" lon="-6.3267089612782">
        <ele>118.38</ele>
        <time>2026-07-09T08:13:26Z</time>
      </trkpt>
      <trkpt lat="53.268975969403982" lon="-6.326797977089882">
        <ele>118.86</ele>
        <time>2026-07-09T08:13:27Z</time>
      </trkpt>
      <trkpt lat="53.268126966431737" lon="-6.327426033094525">
        <ele>123.67</ele>
        <time>2026-07-09T08:13:34Z</time>
      </trkpt>
      <trkpt lat="53.26725197955966" lon="-6.327687967568636">
        <ele>127.51000000000001</ele>
        <time>2026-07-09T08:13:42Z</time>
      </trkpt>
      <trkpt lat="53.267175033688545" lon="-6.327712023630738">
        <ele>127.98999999999999</ele>
        <time>2026-07-09T08:13:43Z</time>
      </trkpt>
      <trkpt lat="53.267115019261837" lon="-6.327729038894177">
        <ele>128.47</ele>
        <time>2026-07-09T08:13:44Z</time>
      </trkpt>
      <trkpt lat="53.267084006220102" lon="-6.327739013358951">
        <ele>128.94999999999999</ele>
        <time>2026-07-09T08:13:45Z</time>
      </trkpt>
      <trkpt lat="53.267022985965014" lon="-6.327783018350601">
        <ele>129.43000000000001</ele>
        <time>2026-07-09T08:13:46Z</time>
      </trkpt>
      <trkpt lat="53.266938999295235" lon="-6.327848983928561">
        <ele>129.91999999999999</ele>
        <time>2026-07-09T08:13:50Z</time>
      </trkpt>
      <trkpt lat="53.266880996525288" lon="-6.327817970886827">
        <ele>130.88</ele>
        <time>2026-07-09T08:13:55Z</time>
      </trkpt>
      <trkpt lat="53.266819976270199" lon="-6.327785030007362">
        <ele>131.36000000000001</ele>
        <time>2026-07-09T08:13:56Z</time>
      </trkpt>
      <trkpt lat="53.266742024570704" lon="-6.327742030844092">
        <ele>131.36000000000001</ele>
        <time>2026-07-09T08:13:57Z</time>
      </trkpt>
      <trkpt lat="53.266652002930641" lon="-6.327667012810707">
        <ele>131.84</ele>
        <time>2026-07-09T08:13:58Z</time>
      </trkpt>
      <trkpt lat="53.266557035967708" lon="-6.327560981735587">
        <ele>131.84</ele>
        <time>2026-07-09T08:13:59Z</time>
      </trkpt>
      <trkpt lat="53.26645796187222" lon="-6.327421003952622">
        <ele>132.31999999999999</ele>
        <time>2026-07-09T08:14:00Z</time>
      </trkpt>
      <trkpt lat="53.265908025205135" lon="-6.326439986005426">
        <ele>135.19999999999999</ele>
        <time>2026-07-09T08:14:06Z</time>
      </trkpt>
      <trkpt lat="53.26553100720048" lon="-6.325771026313305">
        <ele>137.61000000000001</ele>
        <time>2026-07-09T08:14:09Z</time>
      </trkpt>
      <trkpt lat="53.265417013317347" lon="-6.325573967769742">
        <ele>138.56999999999999</ele>
        <time>2026-07-09T08:14:10Z</time>
      </trkpt>
      <trkpt lat="53.265068996697664" lon="-6.325122015550733">
        <ele>142.41</ele>
        <time>2026-07-09T08:14:13Z</time>
      </trkpt>
      <trkpt lat="53.264963971450925" lon="-6.325007015839219">
        <ele>143.37</ele>
        <time>2026-07-09T08:14:14Z</time>
      </trkpt>
      <trkpt lat="53.264848971739411" lon="-6.324920011684299">
        <ele>144.81999999999999</ele>
        <time>2026-07-09T08:14:15Z</time>
      </trkpt>
      <trkpt lat="53.264317978173494" lon="-6.324599990621209">
        <ele>150.09999999999999</ele>
        <time>2026-07-09T08:14:20Z</time>
      </trkpt>
      <trkpt lat="53.264218987897038" lon="-6.324526984244585">
        <ele>151.06</ele>
        <time>2026-07-09T08:14:21Z</time>
      </trkpt>
      <trkpt lat="53.264123015105724" lon="-6.324455989524722">
        <ele>151.53999999999999</ele>
        <time>2026-07-09T08:14:22Z</time>
      </trkpt>
      <trkpt lat="53.264060989022255" lon="-6.324319029226899">
        <ele>152.50999999999999</ele>
        <time>2026-07-09T08:14:23Z</time>
      </trkpt>
      <trkpt lat="53.26400600373745" lon="-6.324180979281664">
        <ele>152.99000000000001</ele>
        <time>2026-07-09T08:14:24Z</time>
      </trkpt>
      <trkpt lat="53.263968033716083" lon="-6.324013005942106">
        <ele>154.43000000000001</ele>
        <time>2026-07-09T08:14:25Z</time>
      </trkpt>
      <trkpt lat="53.263927968218923" lon="-6.323840003460646">
        <ele>155.87</ele>
        <time>2026-07-09T08:14:26Z</time>
      </trkpt>
      <trkpt lat="53.263823026791215" lon="-6.323534986004233">
        <ele>159.72</ele>
        <time>2026-07-09T08:14:28Z</time>
      </trkpt>
      <trkpt lat="53.26374800875783" lon="-6.323385033756495">
        <ele>161.63999999999999</ele>
        <time>2026-07-09T08:14:29Z</time>
      </trkpt>
      <trkpt lat="53.263657987117767" lon="-6.323250001296401">
        <ele>163.56</ele>
        <time>2026-07-09T08:14:30Z</time>
      </trkpt>
      <trkpt lat="53.263442991301417" lon="-6.322995023801923">
        <ele>166.93000000000001</ele>
        <time>2026-07-09T08:14:32Z</time>
      </trkpt>
      <trkpt lat="53.263335032388568" lon="-6.322866026312113">
        <ele>168.37</ele>
        <time>2026-07-09T08:14:33Z</time>
      </trkpt>
      <trkpt lat="53.263220032677054" lon="-6.322755971923471">
        <ele>169.81</ele>
        <time>2026-07-09T08:14:34Z</time>
      </trkpt>
      <trkpt lat="53.26310302130878" lon="-6.322685983031988">
        <ele>170.77000000000001</ele>
        <time>2026-07-09T08:14:35Z</time>
      </trkpt>
      <trkpt lat="53.262990033254027" lon="-6.322620017454028">
        <ele>172.21000000000001</ele>
        <time>2026-07-09T08:14:36Z</time>
      </trkpt>
      <trkpt lat="53.262887019664049" lon="-6.322557991370559">
        <ele>173.16999999999999</ele>
        <time>2026-07-09T08:14:37Z</time>
      </trkpt>
      <trkpt lat="53.26278199441731" lon="-6.322495965287089">
        <ele>174.13999999999999</ele>
        <time>2026-07-09T08:14:38Z</time>
      </trkpt>
      <trkpt lat="53.26267403550446" lon="-6.322432011365891">
        <ele>175.09999999999999</ele>
        <time>2026-07-09T08:14:39Z</time>
      </trkpt>
      <trkpt lat="53.262575967237353" lon="-6.322373002767563">
        <ele>176.06</ele>
        <time>2026-07-09T08:14:40Z</time>
      </trkpt>
      <trkpt lat="53.262488963082433" lon="-6.322275018319488">
        <ele>176.53999999999999</ele>
        <time>2026-07-09T08:14:41Z</time>
      </trkpt>
      <trkpt lat="53.262398019433022" lon="-6.322163958102465">
        <ele>177.97999999999999</ele>
        <time>2026-07-09T08:14:42Z</time>
      </trkpt>
      <trkpt lat="53.26232903636992" lon="-6.322000008076429">
        <ele>179.90000000000001</ele>
        <time>2026-07-09T08:14:43Z</time>
      </trkpt>
      <trkpt lat="53.262025024741888" lon="-6.321287965402007">
        <ele>187.59</ele>
        <time>2026-07-09T08:14:47Z</time>
      </trkpt>
      <trkpt lat="53.261940032243729" lon="-6.321099037304521">
        <ele>189.03999999999999</ele>
        <time>2026-07-09T08:14:48Z</time>
      </trkpt>
      <trkpt lat="53.261627973988652" lon="-6.320371991023421">
        <ele>194.31999999999999</ele>
        <time>2026-07-09T08:14:52Z</time>
      </trkpt>
      <trkpt lat="53.261570977047086" lon="-6.320236958563328">
        <ele>195.77000000000001</ele>
        <time>2026-07-09T08:14:53Z</time>
      </trkpt>
      <trkpt lat="53.261519009247422" lon="-6.320116007700563">
        <ele>196.72999999999999</ele>
        <time>2026-07-09T08:14:54Z</time>
      </trkpt>
      <trkpt lat="53.26147299259901" lon="-6.320007964968681">
        <ele>198.16999999999999</ele>
        <time>2026-07-09T08:14:55Z</time>
      </trkpt>
      <trkpt lat="53.261432005092502" lon="-6.319908974692226">
        <ele>199.61000000000001</ele>
        <time>2026-07-09T08:14:56Z</time>
      </trkpt>
      <trkpt lat="53.261392023414373" lon="-6.319815013557673">
        <ele>200.56999999999999</ele>
        <time>2026-07-09T08:14:57Z</time>
      </trkpt>
      <trkpt lat="53.261233018711209" lon="-6.319405976682901">
        <ele>206.34</ele>
        <time>2026-07-09T08:15:03Z</time>
      </trkpt>
      <trkpt lat="53.261183984577656" lon="-6.319277985021472">
        <ele>207.30000000000001</ele>
        <time>2026-07-09T08:15:16Z</time>
      </trkpt>
      <trkpt lat="53.261103015393019" lon="-6.319246971979737">
        <ele>207.78</ele>
        <time>2026-07-09T08:15:17Z</time>
      </trkpt>
      <trkpt lat="53.261037971824408" lon="-6.319276979193091">
        <ele>207.78</ele>
        <time>2026-07-09T08:15:18Z</time>
      </trkpt>
      <trkpt lat="53.260954990983009" lon="-6.31931503303349">
        <ele>207.30000000000001</ele>
        <time>2026-07-09T08:15:19Z</time>
      </trkpt>
      <trkpt lat="53.260861029848456" lon="-6.319374041631818">
        <ele>207.30000000000001</ele>
        <time>2026-07-09T08:15:20Z</time>
      </trkpt>
      <trkpt lat="53.260772014036775" lon="-6.319474959746003">
        <ele>207.30000000000001</ele>
        <time>2026-07-09T08:15:21Z</time>
      </trkpt>
      <trkpt lat="53.260672017931938" lon="-6.319588031619787">
        <ele>207.30000000000001</ele>
        <time>2026-07-09T08:15:22Z</time>
      </trkpt>
      <trkpt lat="53.260562969371676" lon="-6.319713005796075">
        <ele>207.30000000000001</ele>
        <time>2026-07-09T08:15:23Z</time>
      </trkpt>
      <trkpt lat="53.259926028549671" lon="-6.320420019328594">
        <ele>206.81999999999999</ele>
        <time>2026-07-09T08:15:28Z</time>
      </trkpt>
      <trkpt lat="53.259784961119294" lon="-6.320505011826754">
        <ele>207.78</ele>
        <time>2026-07-09T08:15:29Z</time>
      </trkpt>
      <trkpt lat="53.259644983336329" lon="-6.320539964362979">
        <ele>209.22</ele>
        <time>2026-07-09T08:15:30Z</time>
      </trkpt>
      <trkpt lat="53.258541002869606" lon="-6.320665022358298">
        <ele>223.16</ele>
        <time>2026-07-09T08:15:37Z</time>
      </trkpt>
      <trkpt lat="53.258400019258261" lon="-6.320681031793356">
        <ele>225.56999999999999</ele>
        <time>2026-07-09T08:15:38Z</time>
      </trkpt>
      <trkpt lat="53.258261969313025" lon="-6.320696035400033">
        <ele>227.49000000000001</ele>
        <time>2026-07-09T08:15:39Z</time>
      </trkpt>
      <trkpt lat="53.25713099911809" lon="-6.321252007037401">
        <ele>241.91</ele>
        <time>2026-07-09T08:15:47Z</time>
      </trkpt>
      <trkpt lat="53.256277972832322" lon="-6.321387039497495">
        <ele>253.44</ele>
        <time>2026-07-09T08:15:54Z</time>
      </trkpt>
      <trkpt lat="53.255838006734848" lon="-6.321387039497495">
        <ele>257.29000000000002</ele>
        <time>2026-07-09T08:15:57Z</time>
      </trkpt>
      <trkpt lat="53.255689982324839" lon="-6.321387039497495">
        <ele>258.25</ele>
        <time>2026-07-09T08:15:58Z</time>
      </trkpt>
      <trkpt lat="53.255395023152232" lon="-6.321324007585645">
        <ele>260.17000000000002</ele>
        <time>2026-07-09T08:16:00Z</time>
      </trkpt>
      <trkpt lat="53.255250016227365" lon="-6.32129299454391">
        <ele>261.13999999999999</ele>
        <time>2026-07-09T08:16:01Z</time>
      </trkpt>
      <trkpt lat="53.255012976005673" lon="-6.321242032572627">
        <ele>261.62</ele>
        <time>2026-07-09T08:16:02Z</time>
      </trkpt>
      <trkpt lat="53.254767972975969" lon="-6.321191992610693">
        <ele>263.06</ele>
        <time>2026-07-09T08:16:05Z</time>
      </trkpt>
      <trkpt lat="53.254421968013048" lon="-6.321154022589326">
        <ele>266.42000000000002</ele>
        <time>2026-07-09T08:16:11Z</time>
      </trkpt>
      <trkpt lat="53.254012009128928" lon="-6.321109011769295">
        <ele>269.31</ele>
        <time>2026-07-09T08:16:14Z</time>
      </trkpt>
      <trkpt lat="53.252986986190081" lon="-6.320941960439086">
        <ele>274.11000000000001</ele>
        <time>2026-07-09T08:16:21Z</time>
      </trkpt>
      <trkpt lat="53.252351973205805" lon="-6.320789996534586">
        <ele>277</ele>
        <time>2026-07-09T08:16:25Z</time>
      </trkpt>
      <trkpt lat="53.252194980159402" lon="-6.3207530323416">
        <ele>277.95999999999998</ele>
        <time>2026-07-09T08:16:26Z</time>
      </trkpt>
      <trkpt lat="53.252037987112999" lon="-6.320714978501201">
        <ele>278.44</ele>
        <time>2026-07-09T08:16:27Z</time>
      </trkpt>
      <trkpt lat="53.251728024333715" lon="-6.320600984618068">
        <ele>279.88</ele>
        <time>2026-07-09T08:16:29Z</time>
      </trkpt>
      <trkpt lat="53.251575976610184" lon="-6.320539964362979">
        <ele>280.83999999999997</ele>
        <time>2026-07-09T08:16:30Z</time>
      </trkpt>
      <trkpt lat="53.251422001048923" lon="-6.320479027926922">
        <ele>281.31999999999999</ele>
        <time>2026-07-09T08:16:31Z</time>
      </trkpt>
      <trkpt lat="53.251098962500691" lon="-6.320395963266492">
        <ele>283.25</ele>
        <time>2026-07-09T08:16:33Z</time>
      </trkpt>
      <trkpt lat="53.25019396841526" lon="-6.320291021838784">
        <ele>286.13</ele>
        <time>2026-07-09T08:16:39Z</time>
      </trkpt>
      <trkpt lat="53.25006497092545" lon="-6.320322034880519">
        <ele>286.61000000000001</ele>
        <time>2026-07-09T08:16:40Z</time>
      </trkpt>
      <trkpt lat="53.249831032007933" lon="-6.320415996015072">
        <ele>287.56999999999999</ele>
        <time>2026-07-09T08:16:42Z</time>
      </trkpt>
      <trkpt lat="53.249703040346503" lon="-6.320503000169992">
        <ele>287.56999999999999</ele>
        <time>2026-07-09T08:16:43Z</time>
      </trkpt>
      <trkpt lat="53.249573959037662" lon="-6.320591010153294">
        <ele>288.05000000000001</ele>
        <time>2026-07-09T08:16:44Z</time>
      </trkpt>
      <trkpt lat="53.249337002635002" lon="-6.320782033726573">
        <ele>288.05000000000001</ele>
        <time>2026-07-09T08:16:46Z</time>
      </trkpt>
      <trkpt lat="53.249252010136843" lon="-6.320894015952945">
        <ele>288.05000000000001</ele>
        <time>2026-07-09T08:16:47Z</time>
      </trkpt>
      <trkpt lat="53.249200964346528" lon="-6.321042040362954">
        <ele>288.05000000000001</ele>
        <time>2026-07-09T08:16:48Z</time>
      </trkpt>
      <trkpt lat="53.249142039567232" lon="-6.321210013702512">
        <ele>288.52999999999997</ele>
        <time>2026-07-09T08:16:49Z</time>
      </trkpt>
      <trkpt lat="53.249084958806634" lon="-6.321373041719198">
        <ele>289.00999999999999</ele>
        <time>2026-07-09T08:16:50Z</time>
      </trkpt>
      <trkpt lat="53.249037014320493" lon="-6.321511007845402">
        <ele>289.97000000000003</ele>
        <time>2026-07-09T08:16:51Z</time>
      </trkpt>
      <trkpt lat="53.248993009328842" lon="-6.32163698785007">
        <ele>290.94</ele>
        <time>2026-07-09T08:16:52Z</time>
      </trkpt>
      <trkpt lat="53.248947998508811" lon="-6.321766991168261">
        <ele>292.38</ele>
        <time>2026-07-09T08:16:53Z</time>
      </trkpt>
      <trkpt lat="53.248899970203638" lon="-6.321887020021677">
        <ele>293.33999999999997</ele>
        <time>2026-07-09T08:16:54Z</time>
      </trkpt>
      <trkpt lat="53.248840039595962" lon="-6.322010988369584">
        <ele>294.30000000000001</ele>
        <time>2026-07-09T08:16:55Z</time>
      </trkpt>
      <trkpt lat="53.248737026005983" lon="-6.322031021118164">
        <ele>295.25999999999999</ele>
        <time>2026-07-09T08:16:56Z</time>
      </trkpt>
      <trkpt lat="53.248696960508823" lon="-6.322004031389952">
        <ele>296.69999999999999</ele>
        <time>2026-07-09T08:16:57Z</time>
      </trkpt>
      <trkpt lat="53.248609034344554" lon="-6.321945022791624">
        <ele>298.14999999999998</ele>
        <time>2026-07-09T08:16:58Z</time>
      </trkpt>
      <trkpt lat="53.248546002432704" lon="-6.321831028908491">
        <ele>299.58999999999997</ele>
        <time>2026-07-09T08:16:59Z</time>
      </trkpt>
      <trkpt lat="53.24847299605608" lon="-6.321699013933539">
        <ele>301.02999999999997</ele>
        <time>2026-07-09T08:17:00Z</time>
      </trkpt>
      <trkpt lat="53.248396972194314" lon="-6.321562975645065">
        <ele>302.94999999999999</ele>
        <time>2026-07-09T08:17:01Z</time>
      </trkpt>
      <trkpt lat="53.248313991352916" lon="-6.321412017568946">
        <ele>304.38999999999999</ele>
        <time>2026-07-09T08:17:02Z</time>
      </trkpt>
      <trkpt lat="53.248028000816703" lon="-6.320972973480821">
        <ele>309.19999999999999</ele>
        <time>2026-07-09T08:17:05Z</time>
      </trkpt>
      <trkpt lat="53.247561967000365" lon="-6.32060500793159">
        <ele>315.44999999999999</ele>
        <time>2026-07-09T08:17:10Z</time>
      </trkpt>
      <trkpt lat="53.247436992824078" lon="-6.32051800377667">
        <ele>316.41000000000003</ele>
        <time>2026-07-09T08:17:11Z</time>
      </trkpt>
      <trkpt lat="53.247210010886192" lon="-6.320358999073505">
        <ele>317.37</ele>
        <time>2026-07-09T08:17:12Z</time>
      </trkpt>
      <trkpt lat="53.247085036709905" lon="-6.320271994918585">
        <ele>318.81</ele>
        <time>2026-07-09T08:17:13Z</time>
      </trkpt>
      <trkpt lat="53.246975988149643" lon="-6.320294961333275">
        <ele>320.25999999999999</ele>
        <time>2026-07-09T08:17:14Z</time>
      </trkpt>
      <trkpt lat="53.246845984831452" lon="-6.320323962718248">
        <ele>321.69999999999999</ele>
        <time>2026-07-09T08:17:15Z</time>
      </trkpt>
      <trkpt lat="53.246711036190391" lon="-6.320352964103222">
        <ele>323.13999999999999</ele>
        <time>2026-07-09T08:17:16Z</time>
      </trkpt>
      <trkpt lat="53.246591007336974" lon="-6.320379031822085">
        <ele>325.06</ele>
        <time>2026-07-09T08:17:17Z</time>
      </trkpt>
      <trkpt lat="53.246457986533642" lon="-6.320358999073505">
        <ele>326.5</ele>
        <time>2026-07-09T08:17:18Z</time>
      </trkpt>
      <trkpt lat="53.246318008750677" lon="-6.320338966324925">
        <ele>328.43000000000001</ele>
        <time>2026-07-09T08:17:19Z</time>
      </trkpt>
      <trkpt lat="53.246171995997429" lon="-6.320317005738616">
        <ele>330.35000000000002</ele>
        <time>2026-07-09T08:17:20Z</time>
      </trkpt>
      <trkpt lat="53.246031012386084" lon="-6.320296972990036">
        <ele>331.79000000000002</ele>
        <time>2026-07-09T08:17:21Z</time>
      </trkpt>
      <trkpt lat="53.245460959151387" lon="-6.320212986320257">
        <ele>337.07999999999998</ele>
        <time>2026-07-09T08:17:25Z</time>
      </trkpt>
      <trkpt lat="53.245320981368423" lon="-6.320192031562328">
        <ele>338.51999999999998</ele>
        <time>2026-07-09T08:17:26Z</time>
      </trkpt>
      <trkpt lat="53.245183015242219" lon="-6.320171998813748">
        <ele>339.95999999999998</ele>
        <time>2026-07-09T08:17:27Z</time>
      </trkpt>
      <trkpt lat="53.245023004710674" lon="-6.320125982165337">
        <ele>341.41000000000003</ele>
        <time>2026-07-09T08:17:28Z</time>
      </trkpt>
      <trkpt lat="53.244865005835891" lon="-6.32006898522377">
        <ele>342.85000000000002</ele>
        <time>2026-07-09T08:17:29Z</time>
      </trkpt>
      <trkpt lat="53.244715975597501" lon="-6.320016011595726">
        <ele>344.29000000000002</ele>
        <time>2026-07-09T08:17:30Z</time>
      </trkpt>
      <trkpt lat="53.244394026696682" lon="-6.319901011884213">
        <ele>346.69</ele>
        <time>2026-07-09T08:17:32Z</time>
      </trkpt>
      <trkpt lat="53.244224041700363" lon="-6.319840997457504">
        <ele>347.64999999999998</ele>
        <time>2026-07-09T08:17:33Z</time>
      </trkpt>
      <trkpt lat="53.243593974038959" lon="-6.31974502466619">
        <ele>351.5</ele>
        <time>2026-07-09T08:17:37Z</time>
      </trkpt>
      <trkpt lat="53.243149984627962" lon="-6.319794980809093">
        <ele>354.38</ele>
        <time>2026-07-09T08:17:40Z</time>
      </trkpt>
      <trkpt lat="53.243003971874714" lon="-6.319811996072531">
        <ele>355.33999999999997</ele>
        <time>2026-07-09T08:17:41Z</time>
      </trkpt>
      <trkpt lat="53.242853013798594" lon="-6.319802021607757">
        <ele>356.31</ele>
        <time>2026-07-09T08:17:42Z</time>
      </trkpt>
      <trkpt lat="53.242700966075063" lon="-6.319760028272867">
        <ele>357.75</ele>
        <time>2026-07-09T08:17:43Z</time>
      </trkpt>
      <trkpt lat="53.242551013827324" lon="-6.319719040766358">
        <ele>359.19</ele>
        <time>2026-07-09T08:17:44Z</time>
      </trkpt>
      <trkpt lat="53.242406006902456" lon="-6.319678975269198">
        <ele>360.63</ele>
        <time>2026-07-09T08:17:45Z</time>
      </trkpt>
      <trkpt lat="53.242256976664066" lon="-6.319670006632805">
        <ele>362.06999999999999</ele>
        <time>2026-07-09T08:17:46Z</time>
      </trkpt>
      <trkpt lat="53.242122028023005" lon="-6.319732032716274">
        <ele>363.04000000000002</ele>
        <time>2026-07-09T08:17:47Z</time>
      </trkpt>
      <trkpt lat="53.241978026926517" lon="-6.319799004122615">
        <ele>364.48000000000002</ele>
        <time>2026-07-09T08:17:48Z</time>
      </trkpt>
      <trkpt lat="53.241854980587959" lon="-6.319897994399071">
        <ele>365.92000000000002</ele>
        <time>2026-07-09T08:17:49Z</time>
      </trkpt>
      <trkpt lat="53.24172799475491" lon="-6.320027997717261">
        <ele>367.36000000000001</ele>
        <time>2026-07-09T08:17:50Z</time>
      </trkpt>
      <trkpt lat="53.241623975336552" lon="-6.320193037390709">
        <ele>368.80000000000001</ele>
        <time>2026-07-09T08:17:51Z</time>
      </trkpt>
      <trkpt lat="53.241520039737225" lon="-6.320358999073505">
        <ele>370.73000000000002</ele>
        <time>2026-07-09T08:17:52Z</time>
      </trkpt>
      <trkpt lat="53.241424988955259" lon="-6.320510962978005">
        <ele>372.17000000000002</ele>
        <time>2026-07-09T08:17:53Z</time>
      </trkpt>
      <trkpt lat="53.241424988955259" lon="-6.320510962978005">
        <ele>373.61000000000001</ele>
        <time>2026-07-09T08:17:54Z</time>
      </trkpt>
      <trkpt lat="53.241343013942242" lon="-6.320640966296196">
        <ele>375.05000000000001</ele>
        <time>2026-07-09T08:17:55Z</time>
      </trkpt>
      <trkpt lat="53.241208987310529" lon="-6.320855040103197">
        <ele>376.97000000000003</ele>
        <time>2026-07-09T08:17:56Z</time>
      </trkpt>
      <trkpt lat="53.24114603921771" lon="-6.320886975154281">
        <ele>377.94</ele>
        <time>2026-07-09T08:17:57Z</time>
      </trkpt>
      <trkpt lat="53.241066997870803" lon="-6.320872977375984">
        <ele>378.89999999999998</ele>
        <time>2026-07-09T08:17:58Z</time>
      </trkpt>
      <trkpt lat="53.241066997870803" lon="-6.320872977375984">
        <ele>380.33999999999997</ele>
        <time>2026-07-09T08:17:59Z</time>
      </trkpt>
      <trkpt lat="53.240550002083182" lon="-6.320782033726573">
        <ele>383.22000000000003</ele>
        <time>2026-07-09T08:18:04Z</time>
      </trkpt>
      <trkpt lat="53.240208020433784" lon="-6.320586986839771">
        <ele>384.18000000000001</ele>
        <time>2026-07-09T08:18:06Z</time>
      </trkpt>
      <trkpt lat="53.240011967718601" lon="-6.320446003228426">
        <ele>385.63</ele>
        <time>2026-07-09T08:18:08Z</time>
      </trkpt>
      <trkpt lat="53.239905014634132" lon="-6.320377020165324">
        <ele>386.11000000000001</ele>
        <time>2026-07-09T08:18:09Z</time>
      </trkpt>
      <trkpt lat="53.239783979952335" lon="-6.320355981588364">
        <ele>388.02999999999997</ele>
        <time>2026-07-09T08:18:11Z</time>
      </trkpt>
      <trkpt lat="53.239576024934649" lon="-6.320322034880519">
        <ele>388.99000000000001</ele>
        <time>2026-07-09T08:18:12Z</time>
      </trkpt>
      <trkpt lat="53.239500001072884" lon="-6.320341983810067">
        <ele>389.94999999999999</ele>
        <time>2026-07-09T08:18:13Z</time>
      </trkpt>
      <trkpt lat="53.239500001072884" lon="-6.320341983810067">
        <ele>390.91000000000003</ele>
        <time>2026-07-09T08:18:14Z</time>
      </trkpt>
      <trkpt lat="53.239439986646175" lon="-6.320393029600382">
        <ele>391.38999999999999</ele>
        <time>2026-07-09T08:18:15Z</time>
      </trkpt>
      <trkpt lat="53.239381983876228" lon="-6.320545999333262">
        <ele>391.87</ele>
        <time>2026-07-09T08:18:16Z</time>
      </trkpt>
      <trkpt lat="53.239381983876228" lon="-6.320683965459466">
        <ele>392.83999999999997</ele>
        <time>2026-07-09T08:18:17Z</time>
      </trkpt>
      <trkpt lat="53.239381983876228" lon="-6.32084297016263">
        <ele>393.31999999999999</ele>
        <time>2026-07-09T08:18:18Z</time>
      </trkpt>
      <trkpt lat="53.239338984712958" lon="-6.321817031130195">
        <ele>395.72000000000003</ele>
        <time>2026-07-09T08:18:23Z</time>
      </trkpt>
      <trkpt lat="53.239266984164715" lon="-6.322003025561571">
        <ele>396.19999999999999</ele>
        <time>2026-07-09T08:18:24Z</time>
      </trkpt>
      <trkpt lat="53.239199006929994" lon="-6.322180973365903">
        <ele>396.68000000000001</ele>
        <time>2026-07-09T08:18:25Z</time>
      </trkpt>
      <trkpt lat="53.239123988896608" lon="-6.322374008595944">
        <ele>397.16000000000003</ele>
        <time>2026-07-09T08:18:26Z</time>
      </trkpt>
      <trkpt lat="53.23902097530663" lon="-6.322498982772231">
        <ele>397.63999999999999</ele>
        <time>2026-07-09T08:18:27Z</time>
      </trkpt>
      <trkpt lat="53.238679999485612" lon="-6.322894021868706">
        <ele>399.56999999999999</ele>
        <time>2026-07-09T08:18:30Z</time>
      </trkpt>
      <trkpt lat="53.238541027531028" lon="-6.322939032688737">
        <ele>400.05000000000001</ele>
        <time>2026-07-09T08:18:31Z</time>
      </trkpt>
      <trkpt lat="53.238402977585793" lon="-6.322983037680388">
        <ele>400.52999999999997</ele>
        <time>2026-07-09T08:18:32Z</time>
      </trkpt>
      <trkpt lat="53.23826702311635" lon="-6.323026036843658">
        <ele>401.00999999999999</ele>
        <time>2026-07-09T08:18:33Z</time>
      </trkpt>
      <trkpt lat="53.238136013969779" lon="-6.323063001036644">
        <ele>401.49000000000001</ele>
        <time>2026-07-09T08:18:34Z</time>
      </trkpt>
      <trkpt lat="53.237867960706353" lon="-6.323082027956843">
        <ele>402.44999999999999</ele>
        <time>2026-07-09T08:18:36Z</time>
      </trkpt>
      <trkpt lat="53.237741980701685" lon="-6.323030982166529">
        <ele>402.93000000000001</ele>
        <time>2026-07-09T08:18:37Z</time>
      </trkpt>
      <trkpt lat="53.237617006525397" lon="-6.322956969961524">
        <ele>402.93000000000001</ele>
        <time>2026-07-09T08:18:38Z</time>
      </trkpt>
      <trkpt lat="53.236410012468696" lon="-6.321975030004978">
        <ele>407.74000000000001</ele>
        <time>2026-07-09T08:18:47Z</time>
      </trkpt>
      <trkpt lat="53.236260982230306" lon="-6.321976035833359">
        <ele>409.18000000000001</ele>
        <time>2026-07-09T08:18:48Z</time>
      </trkpt>
      <trkpt lat="53.236112035810947" lon="-6.321986010298133">
        <ele>410.13999999999999</ele>
        <time>2026-07-09T08:18:49Z</time>
      </trkpt>
      <trkpt lat="53.234574962407351" lon="-6.322137974202633">
        <ele>421.68000000000001</ele>
        <time>2026-07-09T08:18:59Z</time>
      </trkpt>
      <trkpt lat="53.23422996327281" lon="-6.322224978357554">
        <ele>422.63999999999999</ele>
        <time>2026-07-09T08:19:00Z</time>
      </trkpt>
      <trkpt lat="53.233728976920247" lon="-6.322414996102452">
        <ele>425.51999999999998</ele>
        <time>2026-07-09T08:19:03Z</time>
      </trkpt>
      <trkpt lat="53.23356200940907" lon="-6.322478028014302">
        <ele>426</ele>
        <time>2026-07-09T08:19:04Z</time>
      </trkpt>
      <trkpt lat="53.232330037280917" lon="-6.322635021060705">
        <ele>433.69</ele>
        <time>2026-07-09T08:19:13Z</time>
      </trkpt>
      <trkpt lat="53.231352958828211" lon="-6.322553968057036">
        <ele>438.98000000000002</ele>
        <time>2026-07-09T08:19:20Z</time>
      </trkpt>
      <trkpt lat="53.231034027412534" lon="-6.322513986378908">
        <ele>440.42000000000002</ele>
        <time>2026-07-09T08:19:22Z</time>
      </trkpt>
      <trkpt lat="53.23087502270937" lon="-6.322457995265722">
        <ele>441.38</ele>
        <time>2026-07-09T08:19:23Z</time>
      </trkpt>
      <trkpt lat="53.230719035491347" lon="-6.322363028302789">
        <ele>441.86000000000001</ele>
        <time>2026-07-09T08:19:24Z</time>
      </trkpt>
      <trkpt lat="53.230561958625913" lon="-6.322266971692443">
        <ele>442.81999999999999</ele>
        <time>2026-07-09T08:19:25Z</time>
      </trkpt>
      <trkpt lat="53.230416029691696" lon="-6.322131017223001">
        <ele>444.26999999999998</ele>
        <time>2026-07-09T08:19:26Z</time>
      </trkpt>
      <trkpt lat="53.229898028075695" lon="-6.32161402143538">
        <ele>448.58999999999997</ele>
        <time>2026-07-09T08:19:30Z</time>
      </trkpt>
      <trkpt lat="53.229804988950491" lon="-6.321455016732216">
        <ele>449.55000000000001</ele>
        <time>2026-07-09T08:19:31Z</time>
      </trkpt>
      <trkpt lat="53.229702981188893" lon="-6.321280002593994">
        <ele>450.51999999999998</ele>
        <time>2026-07-09T08:19:32Z</time>
      </trkpt>
      <trkpt lat="53.22892396710813" lon="-6.319900006055832">
        <ele>456.75999999999999</ele>
        <time>2026-07-09T08:19:38Z</time>
      </trkpt>
      <trkpt lat="53.228529011830688" lon="-6.319361971691251">
        <ele>459.64999999999998</ele>
        <time>2026-07-09T08:19:41Z</time>
      </trkpt>
      <trkpt lat="53.228392973542213" lon="-6.319219982251525">
        <ele>460.61000000000001</ele>
        <time>2026-07-09T08:19:42Z</time>
      </trkpt>
      <trkpt lat="53.228245032951236" lon="-6.319129038602114">
        <ele>461.08999999999997</ele>
        <time>2026-07-09T08:19:43Z</time>
      </trkpt>
      <trkpt lat="53.228094996884465" lon="-6.319060977548361">
        <ele>462.05000000000001</ele>
        <time>2026-07-09T08:19:44Z</time>
      </trkpt>
      <trkpt lat="53.22795401327312" lon="-6.318998029455543">
        <ele>462.52999999999997</ele>
        <time>2026-07-09T08:19:45Z</time>
      </trkpt>
      <trkpt lat="53.227132000029087" lon="-6.318856040015817">
        <ele>466.86000000000001</ele>
        <time>2026-07-09T08:19:52Z</time>
      </trkpt>
      <trkpt lat="53.226317027583718" lon="-6.318623023107648">
        <ele>471.18000000000001</ele>
        <time>2026-07-09T08:19:59Z</time>
      </trkpt>
      <trkpt lat="53.225458972156048" lon="-6.318372990936041">
        <ele>476.94999999999999</ele>
        <time>2026-07-09T08:20:05Z</time>
      </trkpt>
      <trkpt lat="53.225302984938025" lon="-6.318286992609501">
        <ele>477.43000000000001</ele>
        <time>2026-07-09T08:20:06Z</time>
      </trkpt>
      <trkpt lat="53.224712982773781" lon="-6.317791035398841">
        <ele>480.31999999999999</ele>
        <time>2026-07-09T08:20:09Z</time>
      </trkpt>
      <trkpt lat="53.224712982773781" lon="-6.317791035398841">
        <ele>481.27999999999997</ele>
        <time>2026-07-09T08:20:10Z</time>
      </trkpt>
      <trkpt lat="53.224616004154086" lon="-6.317624989897013">
        <ele>481.75999999999999</ele>
        <time>2026-07-09T08:20:11Z</time>
      </trkpt>
      <trkpt lat="53.224205039441586" lon="-6.316897021606565">
        <ele>484.16000000000003</ele>
        <time>2026-07-09T08:20:14Z</time>
      </trkpt>
      <trkpt lat="53.224077969789505" lon="-6.31673701107502">
        <ele>484.63999999999999</ele>
        <time>2026-07-09T08:20:15Z</time>
      </trkpt>
      <trkpt lat="53.223932040855289" lon="-6.316612958908081">
        <ele>485.12</ele>
        <time>2026-07-09T08:20:16Z</time>
      </trkpt>
      <trkpt lat="53.223783010616899" lon="-6.316486978903413">
        <ele>486.07999999999998</ele>
        <time>2026-07-09T08:20:17Z</time>
      </trkpt>
      <trkpt lat="53.223638003692031" lon="-6.316364016383886">
        <ele>486.56</ele>
        <time>2026-07-09T08:20:18Z</time>
      </trkpt>
      <trkpt lat="53.22337799705565" lon="-6.316118007525802">
        <ele>488.00999999999999</ele>
        <time>2026-07-09T08:20:20Z</time>
      </trkpt>
      <trkpt lat="53.223252017050982" lon="-6.315959002822638">
        <ele>488.49000000000001</ele>
        <time>2026-07-09T08:20:21Z</time>
      </trkpt>
      <trkpt lat="53.222409971058369" lon="-6.314476998522878">
        <ele>493.29000000000002</ele>
        <time>2026-07-09T08:20:28Z</time>
      </trkpt>
      <trkpt lat="53.222311986610293" lon="-6.314260996878147">
        <ele>494.25999999999999</ele>
        <time>2026-07-09T08:20:29Z</time>
      </trkpt>
      <trkpt lat="53.222227999940515" lon="-6.314077014103532">
        <ele>494.74000000000001</ele>
        <time>2026-07-09T08:20:30Z</time>
      </trkpt>
      <trkpt lat="53.222105037420988" lon="-6.313993027433753">
        <ele>495.22000000000003</ele>
        <time>2026-07-09T08:20:31Z</time>
      </trkpt>
      <trkpt lat="53.221958018839359" lon="-6.313920021057129">
        <ele>495.22000000000003</ele>
        <time>2026-07-09T08:20:32Z</time>
      </trkpt>
      <trkpt lat="53.221824998036027" lon="-6.31390099413693">
        <ele>495.69999999999999</ele>
        <time>2026-07-09T08:20:33Z</time>
      </trkpt>
      <trkpt lat="53.221666999161243" lon="-6.31387903355062">
        <ele>495.22000000000003</ele>
        <time>2026-07-09T08:20:34Z</time>
      </trkpt>
      <trkpt lat="53.22150900028646" lon="-6.313855983316898">
        <ele>495.22000000000003</ele>
        <time>2026-07-09T08:20:35Z</time>
      </trkpt>
      <trkpt lat="53.221347983926535" lon="-6.313825976103544">
        <ele>495.22000000000003</ele>
        <time>2026-07-09T08:20:36Z</time>
      </trkpt>
      <trkpt lat="53.221200965344906" lon="-6.313697984442115">
        <ele>495.22000000000003</ele>
        <time>2026-07-09T08:20:37Z</time>
      </trkpt>
      <trkpt lat="53.221057970076799" lon="-6.313573010265827">
        <ele>495.22000000000003</ele>
        <time>2026-07-09T08:20:38Z</time>
      </trkpt>
      <trkpt lat="53.220923021435738" lon="-6.313453987240791">
        <ele>495.69999999999999</ele>
        <time>2026-07-09T08:20:39Z</time>
      </trkpt>
      <trkpt lat="53.220806010067463" lon="-6.313314009457827">
        <ele>495.22000000000003</ele>
        <time>2026-07-09T08:20:40Z</time>
      </trkpt>
      <trkpt lat="53.220707019791007" lon="-6.313121980056167">
        <ele>495.69999999999999</ele>
        <time>2026-07-09T08:20:41Z</time>
      </trkpt>
      <trkpt lat="53.220600988715887" lon="-6.312916958704591">
        <ele>496.18000000000001</ele>
        <time>2026-07-09T08:20:42Z</time>
      </trkpt>
      <trkpt lat="53.220320027321577" lon="-6.312277000397444">
        <ele>497.13999999999999</ele>
        <time>2026-07-09T08:20:45Z</time>
      </trkpt>
      <trkpt lat="53.220260012894869" lon="-6.312084970995784">
        <ele>497.62</ele>
        <time>2026-07-09T08:20:46Z</time>
      </trkpt>
      <trkpt lat="53.220248026773334" lon="-6.311893025413156">
        <ele>497.62</ele>
        <time>2026-07-09T08:20:47Z</time>
      </trkpt>
      <trkpt lat="53.220236040651798" lon="-6.311694039031863">
        <ele>498.10000000000002</ele>
        <time>2026-07-09T08:20:48Z</time>
      </trkpt>
      <trkpt lat="53.220223970711231" lon="-6.311483988538384">
        <ele>498.57999999999998</ele>
        <time>2026-07-09T08:20:49Z</time>
      </trkpt>
      <trkpt lat="53.220210978761315" lon="-6.311272010207176">
        <ele>499.06</ele>
        <time>2026-07-09T08:20:50Z</time>
      </trkpt>
      <trkpt lat="53.220195975154638" lon="-6.311059026047587">
        <ele>499.06</ele>
        <time>2026-07-09T08:20:51Z</time>
      </trkpt>
      <trkpt lat="53.220123974606395" lon="-6.310873031616211">
        <ele>499.06</ele>
        <time>2026-07-09T08:20:52Z</time>
      </trkpt>
      <trkpt lat="53.220040993764997" lon="-6.310670021921396">
        <ele>499.06</ele>
        <time>2026-07-09T08:20:53Z</time>
      </trkpt>
      <trkpt lat="53.219919037073851" lon="-6.310501964762807">
        <ele>499.06</ele>
        <time>2026-07-09T08:20:54Z</time>
      </trkpt>
      <trkpt lat="53.21978903375566" lon="-6.310323011130095">
        <ele>499.06</ele>
        <time>2026-07-09T08:20:55Z</time>
      </trkpt>
      <trkpt lat="53.219514023512602" lon="-6.309954961761832">
        <ele>498.57999999999998</ele>
        <time>2026-07-09T08:20:57Z</time>
      </trkpt>
      <trkpt lat="53.219514023512602" lon="-6.309954961761832">
        <ele>498.57999999999998</ele>
        <time>2026-07-09T08:20:58Z</time>
      </trkpt>
      <trkpt lat="53.219200037419796" lon="-6.309703001752496">
        <ele>498.57999999999998</ele>
        <time>2026-07-09T08:20:59Z</time>
      </trkpt>
      <trkpt lat="53.219042960554361" lon="-6.309651033952832">
        <ele>498.10000000000002</ele>
        <time>2026-07-09T08:21:00Z</time>
      </trkpt>
      <trkpt lat="53.218894014135003" lon="-6.309656985104084">
        <ele>498.10000000000002</ele>
        <time>2026-07-09T08:21:01Z</time>
      </trkpt>
      <trkpt lat="53.2187370210886" lon="-6.309710964560509">
        <ele>497.62</ele>
        <time>2026-07-09T08:21:02Z</time>
      </trkpt>
      <trkpt lat="53.218261012807488" lon="-6.309842979535461">
        <ele>495.69999999999999</ele>
        <time>2026-07-09T08:21:05Z</time>
      </trkpt>
      <trkpt lat="53.218089016154408" lon="-6.309842979535461">
        <ele>494.74000000000001</ele>
        <time>2026-07-09T08:21:06Z</time>
      </trkpt>
      <trkpt lat="53.217915007844567" lon="-6.309815989807248">
        <ele>494.25999999999999</ele>
        <time>2026-07-09T08:21:07Z</time>
      </trkpt>
      <trkpt lat="53.217736976221204" lon="-6.309749018400908">
        <ele>493.76999999999998</ele>
        <time>2026-07-09T08:21:08Z</time>
      </trkpt>
      <trkpt lat="53.217561040073633" lon="-6.309682969003916">
        <ele>493.29000000000002</ele>
        <time>2026-07-09T08:21:09Z</time>
      </trkpt>
      <trkpt lat="53.216990986838937" lon="-6.309307962656021">
        <ele>491.85000000000002</ele>
        <time>2026-07-09T08:21:14Z</time>
      </trkpt>
      <trkpt lat="53.216499974951148" lon="-6.308837989345193">
        <ele>491.37</ele>
        <time>2026-07-09T08:21:22Z</time>
      </trkpt>
      <trkpt lat="53.215489033609629" lon="-6.307667959481478">
        <ele>492.32999999999998</ele>
        <time>2026-07-09T08:21:30Z</time>
      </trkpt>
      <trkpt lat="53.215350983664393" lon="-6.307507026940584">
        <ele>492.32999999999998</ele>
        <time>2026-07-09T08:21:31Z</time>
      </trkpt>
      <trkpt lat="53.215211005881429" lon="-6.30734701640904">
        <ele>491.85000000000002</ele>
        <time>2026-07-09T08:21:32Z</time>
      </trkpt>
      <trkpt lat="53.215047977864742" lon="-6.307234028354287">
        <ele>491.37</ele>
        <time>2026-07-09T08:21:33Z</time>
      </trkpt>
      <trkpt lat="53.213755991309881" lon="-6.306137004867196">
        <ele>488.00999999999999</ele>
        <time>2026-07-09T08:21:41Z</time>
      </trkpt>
      <trkpt lat="53.212801963090897" lon="-6.30468500778079">
        <ele>482.72000000000003</ele>
        <time>2026-07-09T08:21:48Z</time>
      </trkpt>
      <trkpt lat="53.211785992607474" lon="-6.302657006308436">
        <ele>476.47000000000003</ele>
        <time>2026-07-09T08:21:58Z</time>
      </trkpt>
      <trkpt lat="53.210600959137082" lon="-6.300292974337935">
        <ele>471.18000000000001</ele>
        <time>2026-07-09T08:22:10Z</time>
      </trkpt>
      <trkpt lat="53.209289023652673" lon="-6.297675976529717">
        <ele>465.42000000000002</ele>
        <time>2026-07-09T08:22:21Z</time>
      </trkpt>
      <trkpt lat="53.208182025700808" lon="-6.295573962852359">
        <ele>458.69</ele>
        <time>2026-07-09T08:22:32Z</time>
      </trkpt>
      <trkpt lat="53.208063002675772" lon="-6.295443959534168">
        <ele>457.72000000000003</ele>
        <time>2026-07-09T08:22:33Z</time>
      </trkpt>
      <trkpt lat="53.207689002156258" lon="-6.29503701813519">
        <ele>454.36000000000001</ele>
        <time>2026-07-09T08:22:36Z</time>
      </trkpt>
      <trkpt lat="53.207595041021705" lon="-6.294839959591627">
        <ele>453.39999999999998</ele>
        <time>2026-07-09T08:22:37Z</time>
      </trkpt>
      <trkpt lat="53.207508036866784" lon="-6.294654970988631">
        <ele>452.44</ele>
        <time>2026-07-09T08:22:38Z</time>
      </trkpt>
      <trkpt lat="53.207248030230403" lon="-6.294104028493166">
        <ele>449.06999999999999</ele>
        <time>2026-07-09T08:22:41Z</time>
      </trkpt>
      <trkpt lat="53.207248030230403" lon="-6.294104028493166">
        <ele>448.11000000000001</ele>
        <time>2026-07-09T08:22:42Z</time>
      </trkpt>
      <trkpt lat="53.20702800527215" lon="-6.293758023530245">
        <ele>446.67000000000002</ele>
        <time>2026-07-09T08:22:43Z</time>
      </trkpt>
      <trkpt lat="53.206889033317566" lon="-6.293625002726913">
        <ele>445.70999999999998</ele>
        <time>2026-07-09T08:22:44Z</time>
      </trkpt>
      <trkpt lat="53.206752995029092" lon="-6.293494999408722">
        <ele>444.26999999999998</ele>
        <time>2026-07-09T08:22:45Z</time>
      </trkpt>
      <trkpt lat="53.206622991710901" lon="-6.293370025232434">
        <ele>442.81999999999999</ele>
        <time>2026-07-09T08:22:46Z</time>
      </trkpt>
      <trkpt lat="53.206513021141291" lon="-6.293212026357651">
        <ele>441.38</ele>
        <time>2026-07-09T08:22:47Z</time>
      </trkpt>
      <trkpt lat="53.206406990066171" lon="-6.293057966977358">
        <ele>440.42000000000002</ele>
        <time>2026-07-09T08:22:48Z</time>
      </trkpt>
      <trkpt lat="53.206131979823112" lon="-6.292655970901251">
        <ele>436.57999999999998</ele>
        <time>2026-07-09T08:22:51Z</time>
      </trkpt>
      <trkpt lat="53.206054028123617" lon="-6.292540971189737">
        <ele>435.13</ele>
        <time>2026-07-09T08:22:52Z</time>
      </trkpt>
      <trkpt lat="53.20595595985651" lon="-6.292452039197087">
        <ele>434.17000000000002</ele>
        <time>2026-07-09T08:22:53Z</time>
      </trkpt>
      <trkpt lat="53.205858981236815" lon="-6.292398981750011">
        <ele>433.20999999999998</ele>
        <time>2026-07-09T08:22:54Z</time>
      </trkpt>
      <trkpt lat="53.205779017880559" lon="-6.292354976758361">
        <ele>432.73000000000002</ele>
        <time>2026-07-09T08:22:55Z</time>
      </trkpt>
      <trkpt lat="53.205666029825807" lon="-6.292336033657193">
        <ele>431.76999999999998</ele>
        <time>2026-07-09T08:22:56Z</time>
      </trkpt>
      <trkpt lat="53.205573996528983" lon="-6.292321030050516">
        <ele>431.29000000000002</ele>
        <time>2026-07-09T08:22:57Z</time>
      </trkpt>
      <trkpt lat="53.205492021515965" lon="-6.29233100451529">
        <ele>430.32999999999998</ele>
        <time>2026-07-09T08:22:58Z</time>
      </trkpt>
      <trkpt lat="53.205422032624483" lon="-6.292375009506941">
        <ele>429.85000000000002</ele>
        <time>2026-07-09T08:22:59Z</time>
      </trkpt>
      <trkpt lat="53.205422032624483" lon="-6.292375009506941">
        <ele>428.88999999999999</ele>
        <time>2026-07-09T08:23:00Z</time>
      </trkpt>
      <trkpt lat="53.205364029854536" lon="-6.292410967871547">
        <ele>428.39999999999998</ele>
        <time>2026-07-09T08:23:01Z</time>
      </trkpt>
      <trkpt lat="53.20517803542316" lon="-6.292526973411441">
        <ele>425.51999999999998</ele>
        <time>2026-07-09T08:23:10Z</time>
      </trkpt>
      <trkpt lat="53.20517803542316" lon="-6.292526973411441">
        <ele>425.04000000000002</ele>
        <time>2026-07-09T08:23:50Z</time>
      </trkpt>
      <trkpt lat="53.205154985189438" lon="-6.292556980624795">
        <ele>425.04000000000002</ele>
        <time>2026-07-09T08:24:02Z</time>
      </trkpt>
      <trkpt lat="53.205123972147703" lon="-6.292595034465194">
        <ele>425.51999999999998</ele>
        <time>2026-07-09T08:24:03Z</time>
      </trkpt>
      <trkpt lat="53.204722981899977" lon="-6.29331897944212">
        <ele>425.04000000000002</ele>
        <time>2026-07-09T08:24:10Z</time>
      </trkpt>
      <trkpt lat="53.204174973070621" lon="-6.294390019029379">
        <ele>421.68000000000001</ele>
        <time>2026-07-09T08:24:16Z</time>
      </trkpt>
      <trkpt lat="53.204057039692998" lon="-6.294553969055414">
        <ele>420.70999999999998</ele>
        <time>2026-07-09T08:24:17Z</time>
      </trkpt>
      <trkpt lat="53.202921962365508" lon="-6.295577986165881">
        <ele>414.47000000000003</ele>
        <time>2026-07-09T08:24:26Z</time>
      </trkpt>
      <trkpt lat="53.20232299156487" lon="-6.295806979760528">
        <ele>412.06</ele>
        <time>2026-07-09T08:24:32Z</time>
      </trkpt>
      <trkpt lat="53.20223799906671" lon="-6.295837992802262">
        <ele>411.57999999999998</ele>
        <time>2026-07-09T08:24:33Z</time>
      </trkpt>
      <trkpt lat="53.202159041538835" lon="-6.295903958380222">
        <ele>411.57999999999998</ele>
        <time>2026-07-09T08:24:34Z</time>
      </trkpt>
      <trkpt lat="53.202090980485082" lon="-6.295995991677046">
        <ele>411.10000000000002</ele>
        <time>2026-07-09T08:24:35Z</time>
      </trkpt>
      <trkpt lat="53.202024009078741" lon="-6.29608903080225">
        <ele>411.10000000000002</ele>
        <time>2026-07-09T08:24:36Z</time>
      </trkpt>
      <trkpt lat="53.201977992430329" lon="-6.296222973614931">
        <ele>411.10000000000002</ele>
        <time>2026-07-09T08:24:37Z</time>
      </trkpt>
      <trkpt lat="53.201846983283758" lon="-6.296604014933109">
        <ele>411.57999999999998</ele>
        <time>2026-07-09T08:24:40Z</time>
      </trkpt>
      <trkpt lat="53.201808007434011" lon="-6.296718008816242">
        <ele>411.57999999999998</ele>
        <time>2026-07-09T08:24:41Z</time>
      </trkpt>
      <trkpt lat="53.201747993007302" lon="-6.296809958294034">
        <ele>411.57999999999998</ele>
        <time>2026-07-09T08:24:42Z</time>
      </trkpt>
      <trkpt lat="53.201682027429342" lon="-6.296866033226252">
        <ele>411.10000000000002</ele>
        <time>2026-07-09T08:24:43Z</time>
      </trkpt>
      <trkpt lat="53.201638022437692" lon="-6.296904003247619">
        <ele>411.10000000000002</ele>
        <time>2026-07-09T08:24:44Z</time>
      </trkpt>
      <trkpt lat="53.201557975262403" lon="-6.296873996034265">
        <ele>410.62</ele>
        <time>2026-07-09T08:24:45Z</time>
      </trkpt>
      <trkpt lat="53.201466025784612" lon="-6.296839965507388">
        <ele>410.13999999999999</ele>
        <time>2026-07-09T08:24:46Z</time>
      </trkpt>
      <trkpt lat="53.201430989429355" lon="-6.296772994101048">
        <ele>409.66000000000003</ele>
        <time>2026-07-09T08:24:47Z</time>
      </trkpt>
      <trkpt lat="53.201369969174266" lon="-6.296660006046295">
        <ele>408.69999999999999</ele>
        <time>2026-07-09T08:24:48Z</time>
      </trkpt>
      <trkpt lat="53.20122797973454" lon="-6.296393964439631">
        <ele>406.76999999999998</ele>
        <time>2026-07-09T08:24:50Z</time>
      </trkpt>
      <trkpt lat="53.201143993064761" lon="-6.296238983049989">
        <ele>406.29000000000002</ele>
        <time>2026-07-09T08:24:51Z</time>
      </trkpt>
      <trkpt lat="53.201052965596318" lon="-6.296131024137139">
        <ele>405.32999999999998</ele>
        <time>2026-07-09T08:24:52Z</time>
      </trkpt>
      <trkpt lat="53.19991797208786" lon="-6.295170038938522">
        <ele>395.72000000000003</ele>
        <time>2026-07-09T08:25:03Z</time>
      </trkpt>
      <trkpt lat="53.198738973587751" lon="-6.294301003217697">
        <ele>383.69999999999999</ele>
        <time>2026-07-09T08:25:15Z</time>
      </trkpt>
      <trkpt lat="53.198393974453211" lon="-6.294150967150927">
        <ele>379.38</ele>
        <time>2026-07-09T08:25:20Z</time>
      </trkpt>
      <trkpt lat="53.198311999440193" lon="-6.294115008786321">
        <ele>378.89999999999998</ele>
        <time>2026-07-09T08:25:21Z</time>
      </trkpt>
      <trkpt lat="53.198245028033853" lon="-6.29413403570652">
        <ele>378.42000000000002</ele>
        <time>2026-07-09T08:25:22Z</time>
      </trkpt>
      <trkpt lat="53.197158984839916" lon="-6.294443998485804">
        <ele>375.05000000000001</ele>
        <time>2026-07-09T08:25:33Z</time>
      </trkpt>
      <trkpt lat="53.196449959650636" lon="-6.294570984318852">
        <ele>372.64999999999998</ele>
        <time>2026-07-09T08:25:42Z</time>
      </trkpt>
      <trkpt lat="53.195917960256338" lon="-6.294755972921848">
        <ele>371.69</ele>
        <time>2026-07-09T08:25:49Z</time>
      </trkpt>
      <trkpt lat="53.195601040497422" lon="-6.294876001775265">
        <ele>371.20999999999998</ele>
        <time>2026-07-09T08:25:55Z</time>
      </trkpt>
      <trkpt lat="53.194915987551212" lon="-6.295124022290111">
        <ele>370.73000000000002</ele>
        <time>2026-07-09T08:26:01Z</time>
      </trkpt>
      <trkpt lat="53.193915020674467" lon="-6.295004999265075">
        <ele>369.75999999999999</ele>
        <time>2026-07-09T08:26:10Z</time>
      </trkpt>
      <trkpt lat="53.193631041795015" lon="-6.294921012595296">
        <ele>369.27999999999997</ele>
        <time>2026-07-09T08:26:13Z</time>
      </trkpt>
      <trkpt lat="53.193542025983334" lon="-6.294869966804981">
        <ele>369.27999999999997</ele>
        <time>2026-07-09T08:26:14Z</time>
      </trkpt>
      <trkpt lat="53.193457033485174" lon="-6.294805007055402">
        <ele>368.80000000000001</ele>
        <time>2026-07-09T08:26:15Z</time>
      </trkpt>
      <trkpt lat="53.192665027454495" lon="-6.294193966314197">
        <ele>367.36000000000001</ele>
        <time>2026-07-09T08:26:22Z</time>
      </trkpt>
      <trkpt lat="53.191911997273564" lon="-6.293651992455125">
        <ele>366.39999999999998</ele>
        <time>2026-07-09T08:26:28Z</time>
      </trkpt>
      <trkpt lat="53.19177302531898" lon="-6.293601030483842">
        <ele>365.92000000000002</ele>
        <time>2026-07-09T08:26:29Z</time>
      </trkpt>
      <trkpt lat="53.191502960398793" lon="-6.293502040207386">
        <ele>365.92000000000002</ele>
        <time>2026-07-09T08:26:31Z</time>
      </trkpt>
      <trkpt lat="53.191376980394125" lon="-6.293456023558974">
        <ele>365.92000000000002</ele>
        <time>2026-07-09T08:26:32Z</time>
      </trkpt>
      <trkpt lat="53.190178032964468" lon="-6.292536025866866">
        <ele>365.92000000000002</ele>
        <time>2026-07-09T08:26:41Z</time>
      </trkpt>
      <trkpt lat="53.189584007486701" lon="-6.292055994272232">
        <ele>365.92000000000002</ele>
        <time>2026-07-09T08:26:46Z</time>
      </trkpt>
      <trkpt lat="53.18947303108871" lon="-6.29196597263217">
        <ele>365.44</ele>
        <time>2026-07-09T08:26:47Z</time>
      </trkpt>
      <trkpt lat="53.189353002235293" lon="-6.291930014267564">
        <ele>365.44</ele>
        <time>2026-07-09T08:26:48Z</time>
      </trkpt>
      <trkpt lat="53.188066966831684" lon="-6.291700014844537">
        <ele>365.92000000000002</ele>
        <time>2026-07-09T08:26:58Z</time>
      </trkpt>
      <trkpt lat="53.187950039282441" lon="-6.291702026501298">
        <ele>365.92000000000002</ele>
        <time>2026-07-09T08:26:59Z</time>
      </trkpt>
      <trkpt lat="53.187839984893799" lon="-6.291723987087607">
        <ele>365.92000000000002</ele>
        <time>2026-07-09T08:27:00Z</time>
      </trkpt>
      <trkpt lat="53.187745017930865" lon="-6.291792970150709">
        <ele>365.92000000000002</ele>
        <time>2026-07-09T08:27:01Z</time>
      </trkpt>
      <trkpt lat="53.187662959098816" lon="-6.291887015104294">
        <ele>365.92000000000002</ele>
        <time>2026-07-09T08:27:02Z</time>
      </trkpt>
      <trkpt lat="53.187590958550572" lon="-6.292006960138679">
        <ele>365.92000000000002</ele>
        <time>2026-07-09T08:27:03Z</time>
      </trkpt>
      <trkpt lat="53.18752096965909" lon="-6.29213503561914">
        <ele>366.39999999999998</ele>
        <time>2026-07-09T08:27:04Z</time>
      </trkpt>
      <trkpt lat="53.187449974939227" lon="-6.29226403310895">
        <ele>366.88</ele>
        <time>2026-07-09T08:27:05Z</time>
      </trkpt>
      <trkpt lat="53.187217963859439" lon="-6.292671980336309">
        <ele>368.31999999999999</ele>
        <time>2026-07-09T08:27:10Z</time>
      </trkpt>
      <trkpt lat="53.187217963859439" lon="-6.292671980336309">
        <ele>368.31999999999999</ele>
        <time>2026-07-09T08:27:29Z</time>
      </trkpt>
      <trkpt lat="53.187117967754602" lon="-6.292830985039473">
        <ele>368.31999999999999</ele>
        <time>2026-07-09T08:27:58Z</time>
      </trkpt>
      <trkpt lat="53.18691797554493" lon="-6.293148994445801">
        <ele>369.27999999999997</ele>
        <time>2026-07-09T08:28:01Z</time>
      </trkpt>
      <trkpt lat="53.186816973611712" lon="-6.293225018307567">
        <ele>369.75999999999999</ele>
        <time>2026-07-09T08:28:02Z</time>
      </trkpt>
      <trkpt lat="53.186722006648779" lon="-6.293281009420753">
        <ele>369.75999999999999</ele>
        <time>2026-07-09T08:28:03Z</time>
      </trkpt>
      <trkpt lat="53.186626033857465" lon="-6.293292995542288">
        <ele>370.24000000000001</ele>
        <time>2026-07-09T08:28:04Z</time>
      </trkpt>
      <trkpt lat="53.186538023874164" lon="-6.293274974450469">
        <ele>370.24000000000001</ele>
        <time>2026-07-09T08:28:05Z</time>
      </trkpt>
      <trkpt lat="53.186450013890862" lon="-6.293216971680522">
        <ele>370.73000000000002</ele>
        <time>2026-07-09T08:28:06Z</time>
      </trkpt>
      <trkpt lat="53.186356974765658" lon="-6.293154023587704">
        <ele>370.73000000000002</ele>
        <time>2026-07-09T08:28:07Z</time>
      </trkpt>
      <trkpt lat="53.186017004773021" lon="-6.292927041649818">
        <ele>371.69</ele>
        <time>2026-07-09T08:28:10Z</time>
      </trkpt>
      <trkpt lat="53.186017004773021" lon="-6.292927041649818">
        <ele>371.69</ele>
        <time>2026-07-09T08:28:11Z</time>
      </trkpt>
      <trkpt lat="53.185960007831454" lon="-6.292857974767685">
        <ele>371.69</ele>
        <time>2026-07-09T08:28:12Z</time>
      </trkpt>
      <trkpt lat="53.185903010889888" lon="-6.292768958956003">
        <ele>371.69</ele>
        <time>2026-07-09T08:28:13Z</time>
      </trkpt>
      <trkpt lat="53.185840984806418" lon="-6.29267399199307">
        <ele>371.69</ele>
        <time>2026-07-09T08:28:14Z</time>
      </trkpt>
      <trkpt lat="53.185759009793401" lon="-6.292421026155353">
        <ele>371.69</ele>
        <time>2026-07-09T08:28:16Z</time>
      </trkpt>
      <trkpt lat="53.185727996751666" lon="-6.292281970381737">
        <ele>371.69</ele>
        <time>2026-07-09T08:28:17Z</time>
      </trkpt>
      <trkpt lat="53.185695977881551" lon="-6.292140986770392">
        <ele>371.69</ele>
        <time>2026-07-09T08:28:18Z</time>
      </trkpt>
      <trkpt lat="53.1856519728899" lon="-6.291947029531002">
        <ele>372.17000000000002</ele>
        <time>2026-07-09T08:28:19Z</time>
      </trkpt>
      <trkpt lat="53.185647027567029" lon="-6.291845021769404">
        <ele>372.17000000000002</ele>
        <time>2026-07-09T08:28:20Z</time>
      </trkpt>
      <trkpt lat="53.185593970119953" lon="-6.290835002437234">
        <ele>373.61000000000001</ele>
        <time>2026-07-09T08:28:26Z</time>
      </trkpt>
      <trkpt lat="53.185579972341657" lon="-6.290667029097676">
        <ele>373.61000000000001</ele>
        <time>2026-07-09T08:28:27Z</time>
      </trkpt>
      <trkpt lat="53.18556597456336" lon="-6.290510036051273">
        <ele>373.61000000000001</ele>
        <time>2026-07-09T08:28:28Z</time>
      </trkpt>
      <trkpt lat="53.185507971793413" lon="-6.290372991934419">
        <ele>373.61000000000001</ele>
        <time>2026-07-09T08:28:29Z</time>
      </trkpt>
      <trkpt lat="53.185450974851847" lon="-6.290241982787848">
        <ele>373.61000000000001</ele>
        <time>2026-07-09T08:28:30Z</time>
      </trkpt>
      <trkpt lat="53.185367994010448" lon="-6.290153972804546">
        <ele>373.61000000000001</ele>
        <time>2026-07-09T08:28:31Z</time>
      </trkpt>
      <trkpt lat="53.185270009562373" lon="-6.290105022490025">
        <ele>374.08999999999997</ele>
        <time>2026-07-09T08:28:32Z</time>
      </trkpt>
      <trkpt lat="53.185166995972395" lon="-6.290073003619909">
        <ele>374.56999999999999</ele>
        <time>2026-07-09T08:28:33Z</time>
      </trkpt>
      <trkpt lat="53.185059959068894" lon="-6.290040984749794">
        <ele>374.56999999999999</ele>
        <time>2026-07-09T08:28:34Z</time>
      </trkpt>
      <trkpt lat="53.184950994327664" lon="-6.290065040811896">
        <ele>375.05000000000001</ele>
        <time>2026-07-09T08:28:35Z</time>
      </trkpt>
      <trkpt lat="53.184835994616151" lon="-6.290095970034599">
        <ele>375.52999999999997</ele>
        <time>2026-07-09T08:28:36Z</time>
      </trkpt>
      <trkpt lat="53.184717977419496" lon="-6.290128994733095">
        <ele>376.49000000000001</ele>
        <time>2026-07-09T08:28:37Z</time>
      </trkpt>
      <trkpt lat="53.184579005464911" lon="-6.290165958926082">
        <ele>376.97000000000003</ele>
        <time>2026-07-09T08:28:38Z</time>
      </trkpt>
      <trkpt lat="53.183377962559462" lon="-6.290861992165446">
        <ele>388.02999999999997</ele>
        <time>2026-07-09T08:28:49Z</time>
      </trkpt>
      <trkpt lat="53.182990970090032" lon="-6.291174972429872">
        <ele>391.38999999999999</ele>
        <time>2026-07-09T08:28:53Z</time>
      </trkpt>
      <trkpt lat="53.182867001742125" lon="-6.291221994906664">
        <ele>392.36000000000001</ele>
        <time>2026-07-09T08:28:54Z</time>
      </trkpt>
      <trkpt lat="53.182761976495385" lon="-6.291210008785129">
        <ele>392.83999999999997</ele>
        <time>2026-07-09T08:28:55Z</time>
      </trkpt>
      <trkpt lat="53.182662986218929" lon="-6.291160974651575">
        <ele>393.80000000000001</ele>
        <time>2026-07-09T08:28:56Z</time>
      </trkpt>
      <trkpt lat="53.182561984285712" lon="-6.291111018508673">
        <ele>394.27999999999997</ele>
        <time>2026-07-09T08:28:57Z</time>
      </trkpt>
      <trkpt lat="53.18246902897954" lon="-6.291001969948411">
        <ele>395.24000000000001</ele>
        <time>2026-07-09T08:28:58Z</time>
      </trkpt>
      <trkpt lat="53.181951027363539" lon="-6.290424959734082">
        <ele>398.12</ele>
        <time>2026-07-09T08:29:03Z</time>
      </trkpt>
      <trkpt lat="53.181835021823645" lon="-6.290319012477994">
        <ele>399.07999999999998</ele>
        <time>2026-07-09T08:29:04Z</time>
      </trkpt>
      <trkpt lat="53.181705018505454" lon="-6.290252963081002">
        <ele>400.05000000000001</ele>
        <time>2026-07-09T08:29:05Z</time>
      </trkpt>
      <trkpt lat="53.180945031344891" lon="-6.290085995569825">
        <ele>406.29000000000002</ele>
        <time>2026-07-09T08:29:11Z</time>
      </trkpt>
      <trkpt lat="53.180822990834713" lon="-6.290063029155135">
        <ele>407.74000000000001</ele>
        <time>2026-07-09T08:29:12Z</time>
      </trkpt>
      <trkpt lat="53.180703967809677" lon="-6.290114996954799">
        <ele>409.18000000000001</ele>
        <time>2026-07-09T08:29:13Z</time>
      </trkpt>
      <trkpt lat="53.180230977013707" lon="-6.290383972227573">
        <ele>413.98000000000002</ele>
        <time>2026-07-09T08:29:17Z</time>
      </trkpt>
      <trkpt lat="53.180114971473813" lon="-6.290449015796185">
        <ele>415.43000000000001</ele>
        <time>2026-07-09T08:29:18Z</time>
      </trkpt>
      <trkpt lat="53.180009024217725" lon="-6.290510036051273">
        <ele>416.38999999999999</ele>
        <time>2026-07-09T08:29:19Z</time>
      </trkpt>
      <trkpt lat="53.179878015071154" lon="-6.290510036051273">
        <ele>417.35000000000002</ele>
        <time>2026-07-09T08:29:20Z</time>
      </trkpt>
      <trkpt lat="53.179750023409724" lon="-6.290510036051273">
        <ele>418.79000000000002</ele>
        <time>2026-07-09T08:29:21Z</time>
      </trkpt>
      <trkpt lat="53.179615996778011" lon="-6.290510036051273">
        <ele>419.75</ele>
        <time>2026-07-09T08:29:22Z</time>
      </trkpt>
      <trkpt lat="53.17948498763144" lon="-6.29054800607264">
        <ele>421.19</ele>
        <time>2026-07-09T08:29:23Z</time>
      </trkpt>
      <trkpt lat="53.1789689976722" lon="-6.290754033252597">
        <ele>426.95999999999998</ele>
        <time>2026-07-09T08:29:27Z</time>
      </trkpt>
      <trkpt lat="53.178853997960687" lon="-6.29084900021553">
        <ele>428.39999999999998</ele>
        <time>2026-07-09T08:29:28Z</time>
      </trkpt>
      <trkpt lat="53.178746039047837" lon="-6.29095695912838">
        <ele>429.85000000000002</ele>
        <time>2026-07-09T08:29:29Z</time>
      </trkpt>
      <trkpt lat="53.178352005779743" lon="-6.291350992396474">
        <ele>434.17000000000002</ele>
        <time>2026-07-09T08:29:33Z</time>
      </trkpt>
      <trkpt lat="53.178266007453203" lon="-6.291436990723014">
        <ele>435.13</ele>
        <time>2026-07-09T08:29:34Z</time>
      </trkpt>
      <trkpt lat="53.17817397415638" lon="-6.291436990723014">
        <ele>435.61000000000001</ele>
        <time>2026-07-09T08:29:35Z</time>
      </trkpt>
      <trkpt lat="53.178081018850207" lon="-6.291415030136704">
        <ele>436.57999999999998</ele>
        <time>2026-07-09T08:29:36Z</time>
      </trkpt>
      <trkpt lat="53.177969958633184" lon="-6.291389968246222">
        <ele>437.54000000000002</ele>
        <time>2026-07-09T08:29:37Z</time>
      </trkpt>
      <trkpt lat="53.177910028025508" lon="-6.291327020153403">
        <ele>438.01999999999998</ele>
        <time>2026-07-09T08:29:38Z</time>
      </trkpt>
      <trkpt lat="53.177648009732366" lon="-6.291053015738726">
        <ele>440.42000000000002</ele>
        <time>2026-07-09T08:29:41Z</time>
      </trkpt>
      <trkpt lat="53.177552036941051" lon="-6.290952013805509">
        <ele>441.38</ele>
        <time>2026-07-09T08:29:42Z</time>
      </trkpt>
      <trkpt lat="53.177439970895648" lon="-6.290874984115362">
        <ele>442.33999999999997</ele>
        <time>2026-07-09T08:29:43Z</time>
      </trkpt>
      <trkpt lat="53.177318014204502" lon="-6.290830979123712">
        <ele>443.31</ele>
        <time>2026-07-09T08:29:44Z</time>
      </trkpt>
      <trkpt lat="53.17718599922955" lon="-6.290815975517035">
        <ele>444.75</ele>
        <time>2026-07-09T08:29:45Z</time>
      </trkpt>
      <trkpt lat="53.176139015704393" lon="-6.290798960253596">
        <ele>455.31999999999999</ele>
        <time>2026-07-09T08:29:53Z</time>
      </trkpt>
      <trkpt lat="53.176039019599557" lon="-6.290788985788822">
        <ele>456.75999999999999</ele>
        <time>2026-07-09T08:29:54Z</time>
      </trkpt>
      <trkpt lat="53.175908010452986" lon="-6.290876995772123">
        <ele>457.72000000000003</ele>
        <time>2026-07-09T08:29:55Z</time>
      </trkpt>
      <trkpt lat="53.175148023292422" lon="-6.291393991559744">
        <ele>467.81999999999999</ele>
        <time>2026-07-09T08:30:02Z</time>
      </trkpt>
      <trkpt lat="53.175063030794263" lon="-6.291461968794465">
        <ele>469.25999999999999</ele>
        <time>2026-07-09T08:30:03Z</time>
      </trkpt>
      <trkpt lat="53.174981977790594" lon="-6.291527012363076">
        <ele>470.22000000000003</ele>
        <time>2026-07-09T08:30:04Z</time>
      </trkpt>
      <trkpt lat="53.174918023869395" lon="-6.29162298515439">
        <ele>471.66000000000003</ele>
        <time>2026-07-09T08:30:05Z</time>
      </trkpt>
      <trkpt lat="53.174855997785926" lon="-6.29172901622951">
        <ele>472.63</ele>
        <time>2026-07-09T08:30:06Z</time>
      </trkpt>
      <trkpt lat="53.174725994467735" lon="-6.291952980682254">
        <ele>474.06999999999999</ele>
        <time>2026-07-09T08:30:08Z</time>
      </trkpt>
      <trkpt lat="53.174660028889775" lon="-6.292065968737006">
        <ele>475.02999999999997</ele>
        <time>2026-07-09T08:30:09Z</time>
      </trkpt>
      <trkpt lat="53.174595991149545" lon="-6.29217803478241">
        <ele>475.99000000000001</ele>
        <time>2026-07-09T08:30:10Z</time>
      </trkpt>
      <trkpt lat="53.174503035843372" lon="-6.292227990925312">
        <ele>476.94999999999999</ele>
        <time>2026-07-09T08:30:11Z</time>
      </trkpt>
      <trkpt lat="53.174422988668084" lon="-6.292251963168383">
        <ele>478.38999999999999</ele>
        <time>2026-07-09T08:30:12Z</time>
      </trkpt>
      <trkpt lat="53.174364985898137" lon="-6.292268978431821">
        <ele>479.35000000000002</ele>
        <time>2026-07-09T08:30:13Z</time>
      </trkpt>
      <trkpt lat="53.174277981743217" lon="-6.292231008410454">
        <ele>480.31999999999999</ele>
        <time>2026-07-09T08:30:14Z</time>
      </trkpt>
      <trkpt lat="53.174201035872102" lon="-6.292197983711958">
        <ele>481.75999999999999</ele>
        <time>2026-07-09T08:30:15Z</time>
      </trkpt>
      <trkpt lat="53.174120988696814" lon="-6.292163031175733">
        <ele>482.72000000000003</ele>
        <time>2026-07-09T08:30:16Z</time>
      </trkpt>
      <trkpt lat="53.174021998420358" lon="-6.292119026184082">
        <ele>483.68000000000001</ele>
        <time>2026-07-09T08:30:17Z</time>
      </trkpt>
      <trkpt lat="53.173967013135552" lon="-6.292045013979077">
        <ele>484.63999999999999</ele>
        <time>2026-07-09T08:30:18Z</time>
      </trkpt>
      <trkpt lat="53.173511037603021" lon="-6.291423998773098">
        <ele>490.41000000000003</ele>
        <time>2026-07-09T08:30:24Z</time>
      </trkpt>
      <trkpt lat="53.173448005691171" lon="-6.291314028203487">
        <ele>490.88999999999999</ele>
        <time>2026-07-09T08:30:25Z</time>
      </trkpt>
      <trkpt lat="53.173385979607701" lon="-6.291204979643226">
        <ele>491.85000000000002</ele>
        <time>2026-07-09T08:30:26Z</time>
      </trkpt>
      <trkpt lat="53.17333996295929" lon="-6.291085034608841">
        <ele>492.32999999999998</ele>
        <time>2026-07-09T08:30:27Z</time>
      </trkpt>
      <trkpt lat="53.173310039564967" lon="-6.29095796495676">
        <ele>493.29000000000002</ele>
        <time>2026-07-09T08:30:28Z</time>
      </trkpt>
      <trkpt lat="53.173280032351613" lon="-6.290833996608853">
        <ele>493.76999999999998</ele>
        <time>2026-07-09T08:30:29Z</time>
      </trkpt>
      <trkpt lat="53.17325103096664" lon="-6.290713967755437">
        <ele>494.74000000000001</ele>
        <time>2026-07-09T08:30:30Z</time>
      </trkpt>
      <trkpt lat="53.17320803180337" lon="-6.29059100523591">
        <ele>495.22000000000003</ele>
        <time>2026-07-09T08:30:31Z</time>
      </trkpt>
      <trkpt lat="53.173140976577997" lon="-6.290500983595848">
        <ele>495.69999999999999</ele>
        <time>2026-07-09T08:30:32Z</time>
      </trkpt>
      <trkpt lat="53.17305900156498" lon="-6.290429988875985">
        <ele>496.66000000000003</ele>
        <time>2026-07-09T08:30:33Z</time>
      </trkpt>
      <trkpt lat="53.172966968268156" lon="-6.290395958349109">
        <ele>497.13999999999999</ele>
        <time>2026-07-09T08:30:34Z</time>
      </trkpt>
      <trkpt lat="53.172870995476842" lon="-6.290359999984503">
        <ele>498.10000000000002</ele>
        <time>2026-07-09T08:30:35Z</time>
      </trkpt>
      <trkpt lat="53.172562038525939" lon="-6.290243994444609">
        <ele>499.54000000000002</ele>
        <time>2026-07-09T08:30:38Z</time>
      </trkpt>
      <trkpt lat="53.172455001622438" lon="-6.29020401276648">
        <ele>500.01999999999998</ele>
        <time>2026-07-09T08:30:39Z</time>
      </trkpt>
      <trkpt lat="53.172355005517602" lon="-6.290127988904715">
        <ele>500.5</ele>
        <time>2026-07-09T08:30:40Z</time>
      </trkpt>
      <trkpt lat="53.171495022252202" lon="-6.289456011727452">
        <ele>505.31</ele>
        <time>2026-07-09T08:30:48Z</time>
      </trkpt>
      <trkpt lat="53.17138496786356" lon="-6.289422987028956">
        <ele>505.79000000000002</ele>
        <time>2026-07-09T08:30:49Z</time>
      </trkpt>
      <trkpt lat="53.171273991465569" lon="-6.289435978978872">
        <ele>506.75</ele>
        <time>2026-07-09T08:30:50Z</time>
      </trkpt>
      <trkpt lat="53.171165026724339" lon="-6.289461040869355">
        <ele>507.23000000000002</ele>
        <time>2026-07-09T08:30:51Z</time>
      </trkpt>
      <trkpt lat="53.171056983992457" lon="-6.289499010890722">
        <ele>507.70999999999998</ele>
        <time>2026-07-09T08:30:52Z</time>
      </trkpt>
      <trkpt lat="53.170956987887621" lon="-6.289576040580869">
        <ele>508.19</ele>
        <time>2026-07-09T08:30:53Z</time>
      </trkpt>
      <trkpt lat="53.169883014634252" lon="-6.290808012709022">
        <ele>515.39999999999998</ele>
        <time>2026-07-09T08:31:03Z</time>
      </trkpt>
      <trkpt lat="53.168755983933806" lon="-6.292276019230485">
        <ele>521.64999999999998</ele>
        <time>2026-07-09T08:31:13Z</time>
      </trkpt>
      <trkpt lat="53.168641990050673" lon="-6.292400993406773">
        <ele>521.64999999999998</ele>
        <time>2026-07-09T08:31:14Z</time>
      </trkpt>
      <trkpt lat="53.168516010046005" lon="-6.292484980076551">
        <ele>522.13</ele>
        <time>2026-07-09T08:31:15Z</time>
      </trkpt>
      <trkpt lat="53.166778022423387" lon="-6.293074982240796">
        <ele>524.53999999999996</ele>
        <time>2026-07-09T08:31:27Z</time>
      </trkpt>
      <trkpt lat="53.166639972478151" lon="-6.293131979182363">
        <ele>524.53999999999996</ele>
        <time>2026-07-09T08:31:28Z</time>
      </trkpt>
      <trkpt lat="53.166516004130244" lon="-6.293241027742624">
        <ele>525.01999999999998</ele>
        <time>2026-07-09T08:31:29Z</time>
      </trkpt>
      <trkpt lat="53.166403016075492" lon="-6.293369019404054">
        <ele>525.01999999999998</ele>
        <time>2026-07-09T08:31:30Z</time>
      </trkpt>
      <trkpt lat="53.166292039677501" lon="-6.293494999408722">
        <ele>525.5</ele>
        <time>2026-07-09T08:31:31Z</time>
      </trkpt>
      <trkpt lat="53.166208975017071" lon="-6.293675964698196">
        <ele>525.98000000000002</ele>
        <time>2026-07-09T08:31:32Z</time>
      </trkpt>
      <trkpt lat="53.166132029145956" lon="-6.293862964957953">
        <ele>526.46000000000004</ele>
        <time>2026-07-09T08:31:33Z</time>
      </trkpt>
      <trkpt lat="53.165981993079185" lon="-6.294226991012693">
        <ele>526.94000000000005</ele>
        <time>2026-07-09T08:31:35Z</time>
      </trkpt>
      <trkpt lat="53.165890965610743" lon="-6.294375015422702">
        <ele>526.94000000000005</ele>
        <time>2026-07-09T08:31:36Z</time>
      </trkpt>
      <trkpt lat="53.165805973112583" lon="-6.294507030397654">
        <ele>527.41999999999996</ele>
        <time>2026-07-09T08:31:37Z</time>
      </trkpt>
      <trkpt lat="53.165713017806411" lon="-6.294584982097149">
        <ele>527.41999999999996</ele>
        <time>2026-07-09T08:31:38Z</time>
      </trkpt>
      <trkpt lat="53.165615033358335" lon="-6.294643990695477">
        <ele>527.41999999999996</ele>
        <time>2026-07-09T08:31:39Z</time>
      </trkpt>
      <trkpt lat="53.165509002283216" lon="-6.294681960716844">
        <ele>527.41999999999996</ele>
        <time>2026-07-09T08:31:40Z</time>
      </trkpt>
      <trkpt lat="53.164247022941709" lon="-6.294884970411658">
        <ele>527.89999999999998</ele>
        <time>2026-07-09T08:31:50Z</time>
      </trkpt>
      <trkpt lat="53.164135962724686" lon="-6.294943979009986">
        <ele>527.41999999999996</ele>
        <time>2026-07-09T08:31:51Z</time>
      </trkpt>
      <trkpt lat="53.164021968841553" lon="-6.295008016750217">
        <ele>527.41999999999996</ele>
        <time>2026-07-09T08:31:52Z</time>
      </trkpt>
      <trkpt lat="53.163893977180123" lon="-6.29508001729846">
        <ele>527.41999999999996</ele>
        <time>2026-07-09T08:31:53Z</time>
      </trkpt>
      <trkpt lat="53.163818037137389" lon="-6.295213960111141">
        <ele>527.41999999999996</ele>
        <time>2026-07-09T08:31:54Z</time>
      </trkpt>
      <trkpt lat="53.163731032982469" lon="-6.295369025319815">
        <ele>526.94000000000005</ele>
        <time>2026-07-09T08:31:55Z</time>
      </trkpt>
      <trkpt lat="53.163638999685645" lon="-6.295531969517469">
        <ele>526.94000000000005</ele>
        <time>2026-07-09T08:31:56Z</time>
      </trkpt>
      <trkpt lat="53.163560964167118" lon="-6.29572500474751">
        <ele>526.46000000000004</ele>
        <time>2026-07-09T08:31:57Z</time>
      </trkpt>
      <trkpt lat="53.162112990394235" lon="-6.299758041277528">
        <ele>522.61000000000001</ele>
        <time>2026-07-09T08:32:16Z</time>
      </trkpt>
      <trkpt lat="53.160971961915493" lon="-6.302936961874366">
        <ele>527.41999999999996</ele>
        <time>2026-07-09T08:32:31Z</time>
      </trkpt>
      <trkpt lat="53.160572983324528" lon="-6.304047983139753">
        <ele>525.5</ele>
        <time>2026-07-09T08:32:36Z</time>
      </trkpt>
      <trkpt lat="53.160505006089807" lon="-6.304239006713033">
        <ele>525.5</ele>
        <time>2026-07-09T08:32:37Z</time>
      </trkpt>
      <trkpt lat="53.160486984997988" lon="-6.304458025842905">
        <ele>525.5</ele>
        <time>2026-07-09T08:32:38Z</time>
      </trkpt>
      <trkpt lat="53.16046996973455" lon="-6.304675033316016">
        <ele>525.5</ele>
        <time>2026-07-09T08:32:39Z</time>
      </trkpt>
      <trkpt lat="53.160453038290143" lon="-6.30490000359714">
        <ele>525.5</ele>
        <time>2026-07-09T08:32:40Z</time>
      </trkpt>
      <trkpt lat="53.160440968349576" lon="-6.305127991363406">
        <ele>525.5</ele>
        <time>2026-07-09T08:32:41Z</time>
      </trkpt>
      <trkpt lat="53.160545993596315" lon="-6.307904999703169">
        <ele>526.46000000000004</ele>
        <time>2026-07-09T08:32:52Z</time>
      </trkpt>
      <trkpt lat="53.160545993596315" lon="-6.308113038539887">
        <ele>525.98000000000002</ele>
        <time>2026-07-09T08:32:53Z</time>
      </trkpt>
      <trkpt lat="53.160511963069439" lon="-6.308302972465754">
        <ele>526.46000000000004</ele>
        <time>2026-07-09T08:32:54Z</time>
      </trkpt>
      <trkpt lat="53.160472987219691" lon="-6.308482009917498">
        <ele>526.46000000000004</ele>
        <time>2026-07-09T08:32:55Z</time>
      </trkpt>
      <trkpt lat="53.159869993105531" lon="-6.310247993096709">
        <ele>524.53999999999996</ele>
        <time>2026-07-09T08:33:04Z</time>
      </trkpt>
      <trkpt lat="53.159598000347614" lon="-6.310702040791512">
        <ele>524.05999999999995</ele>
        <time>2026-07-09T08:33:07Z</time>
      </trkpt>
      <trkpt lat="53.159514013677835" lon="-6.310842018574476">
        <ele>524.05999999999995</ele>
        <time>2026-07-09T08:33:08Z</time>
      </trkpt>
      <trkpt lat="53.159404965117574" lon="-6.310932040214539">
        <ele>524.05999999999995</ele>
        <time>2026-07-09T08:33:09Z</time>
      </trkpt>
      <trkpt lat="53.158788979053497" lon="-6.311330012977123">
        <ele>524.05999999999995</ele>
        <time>2026-07-09T08:33:14Z</time>
      </trkpt>
      <trkpt lat="53.158657969906926" lon="-6.311361026018858">
        <ele>524.05999999999995</ele>
        <time>2026-07-09T08:33:15Z</time>
      </trkpt>
      <trkpt lat="53.158526960760355" lon="-6.311378963291645">
        <ele>523.58000000000004</ele>
        <time>2026-07-09T08:33:16Z</time>
      </trkpt>
      <trkpt lat="53.158395029604435" lon="-6.311369994655252">
        <ele>523.58000000000004</ele>
        <time>2026-07-09T08:33:17Z</time>
      </trkpt>
      <trkpt lat="53.158262008801103" lon="-6.311334036290646">
        <ele>523.58000000000004</ele>
        <time>2026-07-09T08:33:18Z</time>
      </trkpt>
      <trkpt lat="53.158125970512629" lon="-6.311290031298995">
        <ele>523.58000000000004</ele>
        <time>2026-07-09T08:33:19Z</time>
      </trkpt>
      <trkpt lat="53.157997978851199" lon="-6.311196992173791">
        <ele>523.09000000000003</ele>
        <time>2026-07-09T08:33:20Z</time>
      </trkpt>
      <trkpt lat="53.157480983063579" lon="-6.310845036059618">
        <ele>522.13</ele>
        <time>2026-07-09T08:33:24Z</time>
      </trkpt>
      <trkpt lat="53.157365983352065" lon="-6.310775969177485">
        <ele>522.13</ele>
        <time>2026-07-09T08:33:25Z</time>
      </trkpt>
      <trkpt lat="53.157260036095977" lon="-6.310713021084666">
        <ele>521.64999999999998</ele>
        <time>2026-07-09T08:33:26Z</time>
      </trkpt>
      <trkpt lat="53.15713900141418" lon="-6.310717966407538">
        <ele>521.16999999999996</ele>
        <time>2026-07-09T08:33:27Z</time>
      </trkpt>
      <trkpt lat="53.157016038894653" lon="-6.310736993327737">
        <ele>520.21000000000004</ele>
        <time>2026-07-09T08:33:28Z</time>
      </trkpt>
      <trkpt lat="53.156887963414192" lon="-6.310758031904697">
        <ele>519.73000000000002</ele>
        <time>2026-07-09T08:33:29Z</time>
      </trkpt>
      <trkpt lat="53.156756032258272" lon="-6.310778986662626">
        <ele>519.25</ele>
        <time>2026-07-09T08:33:30Z</time>
      </trkpt>
      <trkpt lat="53.156628040596843" lon="-6.310799019411206">
        <ele>518.76999999999998</ele>
        <time>2026-07-09T08:33:31Z</time>
      </trkpt>
      <trkpt lat="53.155659008771181" lon="-6.310714026913047">
        <ele>517.33000000000004</ele>
        <time>2026-07-09T08:33:40Z</time>
      </trkpt>
      <trkpt lat="53.154695006087422" lon="-6.310641020536423">
        <ele>514.91999999999996</ele>
        <time>2026-07-09T08:33:49Z</time>
      </trkpt>
      <trkpt lat="53.153196992352605" lon="-6.310619981959462">
        <ele>512.03999999999996</ele>
        <time>2026-07-09T08:34:01Z</time>
      </trkpt>
      <trkpt lat="53.152576982975006" lon="-6.31042099557817">
        <ele>511.56</ele>
        <time>2026-07-09T08:34:06Z</time>
      </trkpt>
      <trkpt lat="53.15245502628386" lon="-6.310396017506719">
        <ele>512.03999999999996</ele>
        <time>2026-07-09T08:34:07Z</time>
      </trkpt>
      <trkpt lat="53.152332985773683" lon="-6.310386965051293">
        <ele>512.03999999999996</ele>
        <time>2026-07-09T08:34:08Z</time>
      </trkpt>
      <trkpt lat="53.152215974405408" lon="-6.310396017506719">
        <ele>512.51999999999998</ele>
        <time>2026-07-09T08:34:09Z</time>
      </trkpt>
      <trkpt lat="53.152102986350656" lon="-6.310467012226582">
        <ele>512.51999999999998</ele>
        <time>2026-07-09T08:34:10Z</time>
      </trkpt>
      <trkpt lat="53.15198396332562" lon="-6.310541024431586">
        <ele>512.51999999999998</ele>
        <time>2026-07-09T08:34:11Z</time>
      </trkpt>
      <trkpt lat="53.15127401612699" lon="-6.310985013842583">
        <ele>511.56</ele>
        <time>2026-07-09T08:34:17Z</time>
      </trkpt>
      <trkpt lat="53.151157004758716" lon="-6.311032036319375">
        <ele>511.07999999999998</ele>
        <time>2026-07-09T08:34:18Z</time>
      </trkpt>
      <trkpt lat="53.151035970076919" lon="-6.311050979420543">
        <ele>510.60000000000002</ele>
        <time>2026-07-09T08:34:19Z</time>
      </trkpt>
      <trkpt lat="53.149772984907031" lon="-6.311142006888986">
        <ele>508.19</ele>
        <time>2026-07-09T08:34:29Z</time>
      </trkpt>
      <trkpt lat="53.149357996881008" lon="-6.311246026307344">
        <ele>506.26999999999998</ele>
        <time>2026-07-09T08:34:32Z</time>
      </trkpt>
      <trkpt lat="53.14923201687634" lon="-6.311300005763769">
        <ele>505.79000000000002</ele>
        <time>2026-07-09T08:34:33Z</time>
      </trkpt>
      <trkpt lat="53.149119028821588" lon="-6.31136697717011">
        <ele>505.31</ele>
        <time>2026-07-09T08:34:34Z</time>
      </trkpt>
      <trkpt lat="53.149009980261326" lon="-6.31145398132503">
        <ele>504.82999999999998</ele>
        <time>2026-07-09T08:34:35Z</time>
      </trkpt>
      <trkpt lat="53.148913001641631" lon="-6.311578033491969">
        <ele>504.82999999999998</ele>
        <time>2026-07-09T08:34:36Z</time>
      </trkpt>
      <trkpt lat="53.148810993880033" lon="-6.311707030981779">
        <ele>504.35000000000002</ele>
        <time>2026-07-09T08:34:37Z</time>
      </trkpt>
      <trkpt lat="53.148705968633294" lon="-6.311832005158067">
        <ele>503.87</ele>
        <time>2026-07-09T08:34:38Z</time>
      </trkpt>
      <trkpt lat="53.14858702942729" lon="-6.311932001262903">
        <ele>503.38999999999999</ele>
        <time>2026-07-09T08:34:39Z</time>
      </trkpt>
      <trkpt lat="53.147466033697128" lon="-6.312691988423467">
        <ele>501.45999999999998</ele>
        <time>2026-07-09T08:34:48Z</time>
      </trkpt>
      <trkpt lat="53.146877959370613" lon="-6.31286901421845">
        <ele>501.45999999999998</ele>
        <time>2026-07-09T08:34:53Z</time>
      </trkpt>
      <trkpt lat="53.14673999324441" lon="-6.312836995348334">
        <ele>501.45999999999998</ele>
        <time>2026-07-09T08:34:54Z</time>
      </trkpt>
      <trkpt lat="53.1462880410254" lon="-6.312730964273214">
        <ele>501.45999999999998</ele>
        <time>2026-07-09T08:34:58Z</time>
      </trkpt>
      <trkpt lat="53.146167006343603" lon="-6.312723001465201">
        <ele>501.45999999999998</ele>
        <time>2026-07-09T08:34:59Z</time>
      </trkpt>
      <trkpt lat="53.144533038139343" lon="-6.312844036146998">
        <ele>499.06</ele>
        <time>2026-07-09T08:35:12Z</time>
      </trkpt>
      <trkpt lat="53.142904015257955" lon="-6.313292970880866">
        <ele>497.13999999999999</ele>
        <time>2026-07-09T08:35:24Z</time>
      </trkpt>
      <trkpt lat="53.141836998984218" lon="-6.313478965312243">
        <ele>496.18000000000001</ele>
        <time>2026-07-09T08:35:32Z</time>
      </trkpt>
      <trkpt lat="53.141700960695744" lon="-6.313485000282526">
        <ele>496.18000000000001</ele>
        <time>2026-07-09T08:35:33Z</time>
      </trkpt>
      <trkpt lat="53.141567017883062" lon="-6.313474019989371">
        <ele>496.66000000000003</ele>
        <time>2026-07-09T08:35:34Z</time>
      </trkpt>
      <trkpt lat="53.140490027144551" lon="-6.31297797895968">
        <ele>499.06</ele>
        <time>2026-07-09T08:35:43Z</time>
      </trkpt>
      <trkpt lat="53.140364969149232" lon="-6.312946965917945">
        <ele>499.06</ele>
        <time>2026-07-09T08:35:44Z</time>
      </trkpt>
      <trkpt lat="53.140112003311515" lon="-6.312921987846494">
        <ele>498.57999999999998</ele>
        <time>2026-07-09T08:35:46Z</time>
      </trkpt>
      <trkpt lat="53.139980994164944" lon="-6.312908995896578">
        <ele>498.10000000000002</ele>
        <time>2026-07-09T08:35:47Z</time>
      </trkpt>
      <trkpt lat="53.139712018892169" lon="-6.31284898146987">
        <ele>497.62</ele>
        <time>2026-07-09T08:35:49Z</time>
      </trkpt>
      <trkpt lat="53.138267984613776" lon="-6.312153032049537">
        <ele>500.01999999999998</ele>
        <time>2026-07-09T08:36:00Z</time>
      </trkpt>
      <trkpt lat="53.137860959395766" lon="-6.311998972669244">
        <ele>500.5</ele>
        <time>2026-07-09T08:36:07Z</time>
      </trkpt>
      <trkpt lat="53.137835981324315" lon="-6.311996961012483">
        <ele>500.98000000000002</ele>
        <time>2026-07-09T08:36:26Z</time>
      </trkpt>
      <trkpt lat="53.13775802962482" lon="-6.31198899820447">
        <ele>501.45999999999998</ele>
        <time>2026-07-09T08:36:27Z</time>
      </trkpt>
      <trkpt lat="53.137743026018143" lon="-6.311938958242536">
        <ele>500.5</ele>
        <time>2026-07-09T08:36:40Z</time>
      </trkpt>
      <trkpt lat="53.137743026018143" lon="-6.311938958242536">
        <ele>500.5</ele>
        <time>2026-07-09T08:37:37Z</time>
      </trkpt>
      <trkpt lat="53.137743026018143" lon="-6.311938958242536">
        <ele>500.5</ele>
        <time>2026-07-09T08:37:58Z</time>
      </trkpt>
      <trkpt lat="53.137743026018143" lon="-6.311938958242536">
        <ele>500.5</ele>
        <time>2026-07-09T08:38:14Z</time>
      </trkpt>
      <trkpt lat="53.13775802962482" lon="-6.31198899820447">
        <ele>500.01999999999998</ele>
        <time>2026-07-09T08:38:20Z</time>
      </trkpt>
      <trkpt lat="53.137745959684253" lon="-6.311991009861231">
        <ele>500.01999999999998</ele>
        <time>2026-07-09T08:38:21Z</time>
      </trkpt>
      <trkpt lat="53.137601036578417" lon="-6.312014982104302">
        <ele>499.06</ele>
        <time>2026-07-09T08:38:24Z</time>
      </trkpt>
      <trkpt lat="53.13752400688827" lon="-6.312027974054217">
        <ele>499.06</ele>
        <time>2026-07-09T08:38:25Z</time>
      </trkpt>
      <trkpt lat="53.137448988854885" lon="-6.312017999589443">
        <ele>499.54000000000002</ele>
        <time>2026-07-09T08:38:26Z</time>
      </trkpt>
      <trkpt lat="53.137361984699965" lon="-6.311994027346373">
        <ele>499.54000000000002</ele>
        <time>2026-07-09T08:38:27Z</time>
      </trkpt>
      <trkpt lat="53.13726500608027" lon="-6.31196703761816">
        <ele>500.01999999999998</ele>
        <time>2026-07-09T08:38:28Z</time>
      </trkpt>
      <trkpt lat="53.137199962511659" lon="-6.311886990442872">
        <ele>500.01999999999998</ele>
        <time>2026-07-09T08:38:29Z</time>
      </trkpt>
      <trkpt lat="53.137121004983783" lon="-6.311788000166416">
        <ele>500.5</ele>
        <time>2026-07-09T08:38:30Z</time>
      </trkpt>
      <trkpt lat="53.136584982275963" lon="-6.311104036867619">
        <ele>500.5</ele>
        <time>2026-07-09T08:38:36Z</time>
      </trkpt>
      <trkpt lat="53.136494038626552" lon="-6.310961963608861">
        <ele>500.5</ele>
        <time>2026-07-09T08:38:37Z</time>
      </trkpt>
      <trkpt lat="53.136334028095007" lon="-6.310711009427905">
        <ele>500.5</ele>
        <time>2026-07-09T08:38:39Z</time>
      </trkpt>
      <trkpt lat="53.136263033375144" lon="-6.310598021373153">
        <ele>500.5</ele>
        <time>2026-07-09T08:38:40Z</time>
      </trkpt>
      <trkpt lat="53.136184997856617" lon="-6.310483021661639">
        <ele>500.5</ele>
        <time>2026-07-09T08:38:41Z</time>
      </trkpt>
      <trkpt lat="53.136085001751781" lon="-6.310430970042944">
        <ele>500.5</ele>
        <time>2026-07-09T08:38:42Z</time>
      </trkpt>
      <trkpt lat="53.13597796484828" lon="-6.310375984758139">
        <ele>500.5</ele>
        <time>2026-07-09T08:38:43Z</time>
      </trkpt>
      <trkpt lat="53.135866988450289" lon="-6.310317981988192">
        <ele>500.01999999999998</ele>
        <time>2026-07-09T08:38:44Z</time>
      </trkpt>
      <trkpt lat="53.135758023709059" lon="-6.310260985046625">
        <ele>500.01999999999998</ele>
        <time>2026-07-09T08:38:45Z</time>
      </trkpt>
      <trkpt lat="53.135671019554138" lon="-6.310198958963156">
        <ele>500.01999999999998</ele>
        <time>2026-07-09T08:38:46Z</time>
      </trkpt>
      <trkpt lat="53.13550497405231" lon="-6.31001397036016">
        <ele>500.01999999999998</ele>
        <time>2026-07-09T08:38:48Z</time>
      </trkpt>
      <trkpt lat="53.135425010696054" lon="-6.30992503836751">
        <ele>500.01999999999998</ele>
        <time>2026-07-09T08:38:49Z</time>
      </trkpt>
      <trkpt lat="53.13535301014781" lon="-6.309844991192222">
        <ele>500.5</ele>
        <time>2026-07-09T08:38:50Z</time>
      </trkpt>
      <trkpt lat="53.135168021544814" lon="-6.309793023392558">
        <ele>501.45999999999998</ele>
        <time>2026-07-09T08:38:52Z</time>
      </trkpt>
      <trkpt lat="53.135065007954836" lon="-6.309787994250655">
        <ele>501.94999999999999</ele>
        <time>2026-07-09T08:38:53Z</time>
      </trkpt>
      <trkpt lat="53.134843977168202" lon="-6.309738038107753">
        <ele>501.94999999999999</ele>
        <time>2026-07-09T08:38:54Z</time>
      </trkpt>
      <trkpt lat="53.134749010205269" lon="-6.309638964012265">
        <ele>501.94999999999999</ele>
        <time>2026-07-09T08:38:55Z</time>
      </trkpt>
      <trkpt lat="53.134650019928813" lon="-6.309536034241319">
        <ele>501.94999999999999</ele>
        <time>2026-07-09T08:38:56Z</time>
      </trkpt>
      <trkpt lat="53.134543988853693" lon="-6.309424974024296">
        <ele>501.94999999999999</ele>
        <time>2026-07-09T08:38:57Z</time>
      </trkpt>
      <trkpt lat="53.134543988853693" lon="-6.309424974024296">
        <ele>501.45999999999998</ele>
        <time>2026-07-09T08:38:58Z</time>
      </trkpt>
      <trkpt lat="53.134436029940844" lon="-6.309311985969544">
        <ele>500.98000000000002</ele>
        <time>2026-07-09T08:38:59Z</time>
      </trkpt>
      <trkpt lat="53.134309966117144" lon="-6.3092399854213">
        <ele>500.98000000000002</ele>
        <time>2026-07-09T08:39:00Z</time>
      </trkpt>
      <trkpt lat="53.134176023304462" lon="-6.309198997914791">
        <ele>500.98000000000002</ele>
        <time>2026-07-09T08:39:01Z</time>
      </trkpt>
      <trkpt lat="53.133773021399975" lon="-6.309076035395265">
        <ele>500.5</ele>
        <time>2026-07-09T08:39:04Z</time>
      </trkpt>
      <trkpt lat="53.133647041395307" lon="-6.309036975726485">
        <ele>500.5</ele>
        <time>2026-07-09T08:39:05Z</time>
      </trkpt>
      <trkpt lat="53.133530030027032" lon="-6.308941002935171">
        <ele>500.01999999999998</ele>
        <time>2026-07-09T08:39:06Z</time>
      </trkpt>
      <trkpt lat="53.133413018658757" lon="-6.308823991566896">
        <ele>500.01999999999998</ele>
        <time>2026-07-09T08:39:07Z</time>
      </trkpt>
      <trkpt lat="53.13329198397696" lon="-6.30870102904737">
        <ele>499.54000000000002</ele>
        <time>2026-07-09T08:39:08Z</time>
      </trkpt>
      <trkpt lat="53.133072964847088" lon="-6.308366004377604">
        <ele>498.10000000000002</ele>
        <time>2026-07-09T08:39:10Z</time>
      </trkpt>
      <trkpt lat="53.132960982620716" lon="-6.308195013552904">
        <ele>497.62</ele>
        <time>2026-07-09T08:39:11Z</time>
      </trkpt>
      <trkpt lat="53.132773982360959" lon="-6.307824030518532">
        <ele>496.66000000000003</ele>
        <time>2026-07-09T08:39:13Z</time>
      </trkpt>
      <trkpt lat="53.132683960720897" lon="-6.307639963924885">
        <ele>496.18000000000001</ele>
        <time>2026-07-09T08:39:14Z</time>
      </trkpt>
      <trkpt lat="53.132594022899866" lon="-6.307454975321889">
        <ele>495.69999999999999</ele>
        <time>2026-07-09T08:39:15Z</time>
      </trkpt>
      <trkpt lat="53.132478017359972" lon="-6.307324972003698">
        <ele>495.69999999999999</ele>
        <time>2026-07-09T08:39:16Z</time>
      </trkpt>
      <trkpt lat="53.132360000163317" lon="-6.307199997827411">
        <ele>495.22000000000003</ele>
        <time>2026-07-09T08:39:17Z</time>
      </trkpt>
      <trkpt lat="53.132245000451803" lon="-6.307078041136265">
        <ele>495.22000000000003</ele>
        <time>2026-07-09T08:39:18Z</time>
      </trkpt>
      <trkpt lat="53.132116002961993" lon="-6.307019032537937">
        <ele>494.74000000000001</ele>
        <time>2026-07-09T08:39:19Z</time>
      </trkpt>
      <trkpt lat="53.131989017128944" lon="-6.306998999789357">
        <ele>494.74000000000001</ele>
        <time>2026-07-09T08:39:20Z</time>
      </trkpt>
      <trkpt lat="53.13187200576067" lon="-6.306979972869158">
        <ele>494.74000000000001</ele>
        <time>2026-07-09T08:39:21Z</time>
      </trkpt>
      <trkpt lat="53.131776032969356" lon="-6.306977039203048">
        <ele>494.74000000000001</ele>
        <time>2026-07-09T08:39:22Z</time>
      </trkpt>
      <trkpt lat="53.131689028814435" lon="-6.307035963982344">
        <ele>495.22000000000003</ele>
        <time>2026-07-09T08:39:23Z</time>
      </trkpt>
      <trkpt lat="53.13161501660943" lon="-6.307140989229083">
        <ele>495.22000000000003</ele>
        <time>2026-07-09T08:39:24Z</time>
      </trkpt>
      <trkpt lat="53.131534969434142" lon="-6.307252971455455">
        <ele>495.69999999999999</ele>
        <time>2026-07-09T08:39:25Z</time>
      </trkpt>
      <trkpt lat="53.131264988332987" lon="-6.307634012773633">
        <ele>495.69999999999999</ele>
        <time>2026-07-09T08:39:28Z</time>
      </trkpt>
      <trkpt lat="53.131156023591757" lon="-6.307755969464779">
        <ele>496.18000000000001</ele>
        <time>2026-07-09T08:39:29Z</time>
      </trkpt>
      <trkpt lat="53.131042029708624" lon="-6.307869041338563">
        <ele>496.18000000000001</ele>
        <time>2026-07-09T08:39:30Z</time>
      </trkpt>
      <trkpt lat="53.130489997565746" lon="-6.308115972205997">
        <ele>497.13999999999999</ele>
        <time>2026-07-09T08:39:34Z</time>
      </trkpt>
      <trkpt lat="53.130355970934033" lon="-6.308188978582621">
        <ele>498.10000000000002</ele>
        <time>2026-07-09T08:39:35Z</time>
      </trkpt>
      <trkpt lat="53.130228985100985" lon="-6.308270031586289">
        <ele>498.10000000000002</ele>
        <time>2026-07-09T08:39:36Z</time>
      </trkpt>
      <trkpt lat="53.130109962075949" lon="-6.308345971629024">
        <ele>498.57999999999998</ele>
        <time>2026-07-09T08:39:37Z</time>
      </trkpt>
      <trkpt lat="53.129991022869945" lon="-6.30842300131917">
        <ele>499.06</ele>
        <time>2026-07-09T08:39:38Z</time>
      </trkpt>
      <trkpt lat="53.129873005673289" lon="-6.308493996039033">
        <ele>499.06</ele>
        <time>2026-07-09T08:39:39Z</time>
      </trkpt>
      <trkpt lat="53.129762029275298" lon="-6.308521991595626">
        <ele>499.54000000000002</ele>
        <time>2026-07-09T08:39:40Z</time>
      </trkpt>
      <trkpt lat="53.129662033170462" lon="-6.308516040444374">
        <ele>499.54000000000002</ele>
        <time>2026-07-09T08:39:41Z</time>
      </trkpt>
      <trkpt lat="53.129566982388496" lon="-6.308479998260737">
        <ele>499.54000000000002</ele>
        <time>2026-07-09T08:39:42Z</time>
      </trkpt>
      <trkpt lat="53.129502022638917" lon="-6.308392994105816">
        <ele>499.54000000000002</ele>
        <time>2026-07-09T08:39:43Z</time>
      </trkpt>
      <trkpt lat="53.129439996555448" lon="-6.30827103741467">
        <ele>499.06</ele>
        <time>2026-07-09T08:39:44Z</time>
      </trkpt>
      <trkpt lat="53.129375958815217" lon="-6.30814203992486">
        <ele>499.06</ele>
        <time>2026-07-09T08:39:45Z</time>
      </trkpt>
      <trkpt lat="53.129347963258624" lon="-6.30799300968647">
        <ele>498.57999999999998</ele>
        <time>2026-07-09T08:39:46Z</time>
      </trkpt>
      <trkpt lat="53.129327008500695" lon="-6.307841967791319">
        <ele>498.57999999999998</ele>
        <time>2026-07-09T08:39:47Z</time>
      </trkpt>
      <trkpt lat="53.129357015714049" lon="-6.307711964473128">
        <ele>498.10000000000002</ele>
        <time>2026-07-09T08:39:48Z</time>
      </trkpt>
      <trkpt lat="53.129387022927403" lon="-6.307581039145589">
        <ele>498.10000000000002</ele>
        <time>2026-07-09T08:39:49Z</time>
      </trkpt>
      <trkpt lat="53.129419041797519" lon="-6.307440977543593">
        <ele>497.62</ele>
        <time>2026-07-09T08:39:50Z</time>
      </trkpt>
      <trkpt lat="53.129450976848602" lon="-6.307303011417389">
        <ele>497.62</ele>
        <time>2026-07-09T08:39:51Z</time>
      </trkpt>
      <trkpt lat="53.129376964643598" lon="-6.307009980082512">
        <ele>496.66000000000003</ele>
        <time>2026-07-09T08:39:53Z</time>
      </trkpt>
      <trkpt lat="53.129318039864302" lon="-6.30687503144145">
        <ele>496.18000000000001</ele>
        <time>2026-07-09T08:39:54Z</time>
      </trkpt>
      <trkpt lat="53.129121987149119" lon="-6.306677972897887">
        <ele>495.69999999999999</ele>
        <time>2026-07-09T08:39:56Z</time>
      </trkpt>
      <trkpt lat="53.129018973559141" lon="-6.306571019813418">
        <ele>495.69999999999999</ele>
        <time>2026-07-09T08:39:57Z</time>
      </trkpt>
      <trkpt lat="53.128933981060982" lon="-6.30642500706017">
        <ele>495.69999999999999</ele>
        <time>2026-07-09T08:39:58Z</time>
      </trkpt>
      <trkpt lat="53.128847982734442" lon="-6.306277988478541">
        <ele>495.69999999999999</ele>
        <time>2026-07-09T08:39:59Z</time>
      </trkpt>
      <trkpt lat="53.128759972751141" lon="-6.306127030402422">
        <ele>495.22000000000003</ele>
        <time>2026-07-09T08:40:00Z</time>
      </trkpt>
      <trkpt lat="53.128645978868008" lon="-6.305996021255851">
        <ele>495.22000000000003</ele>
        <time>2026-07-09T08:40:01Z</time>
      </trkpt>
      <trkpt lat="53.12768298201263" lon="-6.305132014676929">
        <ele>494.25999999999999</ele>
        <time>2026-07-09T08:40:08Z</time>
      </trkpt>
      <trkpt lat="53.127555996179581" lon="-6.304951971396804">
        <ele>494.25999999999999</ele>
        <time>2026-07-09T08:40:09Z</time>
      </trkpt>
      <trkpt lat="53.127311998978257" lon="-6.304592974483967">
        <ele>493.29000000000002</ele>
        <time>2026-07-09T08:40:11Z</time>
      </trkpt>
      <trkpt lat="53.127200016751885" lon="-6.304430030286312">
        <ele>493.29000000000002</ele>
        <time>2026-07-09T08:40:12Z</time>
      </trkpt>
      <trkpt lat="53.127107983455062" lon="-6.304293991997838">
        <ele>492.81</ele>
        <time>2026-07-09T08:40:13Z</time>
      </trkpt>
      <trkpt lat="53.127006981521845" lon="-6.304230038076639">
        <ele>492.81</ele>
        <time>2026-07-09T08:40:14Z</time>
      </trkpt>
      <trkpt lat="53.12688896432519" lon="-6.304205982014537">
        <ele>492.81</ele>
        <time>2026-07-09T08:40:15Z</time>
      </trkpt>
      <trkpt lat="53.126750998198986" lon="-6.304177986457944">
        <ele>493.29000000000002</ele>
        <time>2026-07-09T08:40:16Z</time>
      </trkpt>
      <trkpt lat="53.126627029851079" lon="-6.304197013378143">
        <ele>493.29000000000002</ele>
        <time>2026-07-09T08:40:17Z</time>
      </trkpt>
      <trkpt lat="53.126485962420702" lon="-6.304218973964453">
        <ele>493.29000000000002</ele>
        <time>2026-07-09T08:40:18Z</time>
      </trkpt>
      <trkpt lat="53.126349002122879" lon="-6.304291980341077">
        <ele>493.29000000000002</ele>
        <time>2026-07-09T08:40:19Z</time>
      </trkpt>
      <trkpt lat="53.126212041825056" lon="-6.304373033344746">
        <ele>493.29000000000002</ele>
        <time>2026-07-09T08:40:20Z</time>
      </trkpt>
      <trkpt lat="53.125664032995701" lon="-6.304681990295649">
        <ele>493.76999999999998</ele>
        <time>2026-07-09T08:40:24Z</time>
      </trkpt>
      <trkpt lat="53.125537969172001" lon="-6.304718032479286">
        <ele>493.76999999999998</ele>
        <time>2026-07-09T08:40:25Z</time>
      </trkpt>
      <trkpt lat="53.125422969460487" lon="-6.30475097335875">
        <ele>494.25999999999999</ele>
        <time>2026-07-09T08:40:26Z</time>
      </trkpt>
      <trkpt lat="53.125307969748974" lon="-6.304740998893976">
        <ele>494.25999999999999</ele>
        <time>2026-07-09T08:40:27Z</time>
      </trkpt>
      <trkpt lat="53.125162962824106" lon="-6.304715014994144">
        <ele>494.25999999999999</ele>
        <time>2026-07-09T08:40:28Z</time>
      </trkpt>
      <trkpt lat="53.125047041103244" lon="-6.304656006395817">
        <ele>494.25999999999999</ele>
        <time>2026-07-09T08:40:29Z</time>
      </trkpt>
      <trkpt lat="53.123661009594798" lon="-6.304070027545095">
        <ele>496.66000000000003</ele>
        <time>2026-07-09T08:40:38Z</time>
      </trkpt>
      <trkpt lat="53.123503010720015" lon="-6.304014036431909">
        <ele>497.13999999999999</ele>
        <time>2026-07-09T08:40:39Z</time>
      </trkpt>
      <trkpt lat="53.122089989483356" lon="-6.303316997364163">
        <ele>498.10000000000002</ele>
        <time>2026-07-09T08:40:48Z</time>
      </trkpt>
      <trkpt lat="53.121955962851644" lon="-6.303251031786203">
        <ele>498.10000000000002</ele>
        <time>2026-07-09T08:40:49Z</time>
      </trkpt>
      <trkpt lat="53.12183802947402" lon="-6.303141983225942">
        <ele>498.10000000000002</ele>
        <time>2026-07-09T08:40:50Z</time>
      </trkpt>
      <trkpt lat="53.120619971305132" lon="-6.301895007491112">
        <ele>498.57999999999998</ele>
        <time>2026-07-09T08:40:59Z</time>
      </trkpt>
      <trkpt lat="53.119212985038757" lon="-6.300864033401012">
        <ele>499.54000000000002</ele>
        <time>2026-07-09T08:41:09Z</time>
      </trkpt>
      <trkpt lat="53.119077030569315" lon="-6.300798989832401">
        <ele>499.54000000000002</ele>
        <time>2026-07-09T08:41:10Z</time>
      </trkpt>
      <trkpt lat="53.118935963138938" lon="-6.300745010375977">
        <ele>499.54000000000002</ele>
        <time>2026-07-09T08:41:11Z</time>
      </trkpt>
      <trkpt lat="53.118790034204721" lon="-6.300745010375977">
        <ele>499.54000000000002</ele>
        <time>2026-07-09T08:41:12Z</time>
      </trkpt>
      <trkpt lat="53.118645027279854" lon="-6.300745010375977">
        <ele>499.06</ele>
        <time>2026-07-09T08:41:13Z</time>
      </trkpt>
      <trkpt lat="53.118503959849477" lon="-6.300785997882485">
        <ele>499.06</ele>
        <time>2026-07-09T08:41:14Z</time>
      </trkpt>
      <trkpt lat="53.118373034521937" lon="-6.300856992602348">
        <ele>498.57999999999998</ele>
        <time>2026-07-09T08:41:15Z</time>
      </trkpt>
      <trkpt lat="53.118254011496902" lon="-6.300959000363946">
        <ele>498.57999999999998</ele>
        <time>2026-07-09T08:41:16Z</time>
      </trkpt>
      <trkpt lat="53.118138005957007" lon="-6.301057990640402">
        <ele>498.57999999999998</ele>
        <time>2026-07-09T08:41:17Z</time>
      </trkpt>
      <trkpt lat="53.118017977103591" lon="-6.30116100423038">
        <ele>498.10000000000002</ele>
        <time>2026-07-09T08:41:18Z</time>
      </trkpt>
      <trkpt lat="53.117393022403121" lon="-6.301695015281439">
        <ele>496.66000000000003</ele>
        <time>2026-07-09T08:41:24Z</time>
      </trkpt>
      <trkpt lat="53.117269976064563" lon="-6.301799034699798">
        <ele>496.66000000000003</ele>
        <time>2026-07-09T08:41:30Z</time>
      </trkpt>
      <trkpt lat="53.117223037406802" lon="-6.301839016377926">
        <ele>495.69999999999999</ele>
        <time>2026-07-09T08:42:10Z</time>
      </trkpt>
      <trkpt lat="53.116771001368761" lon="-6.302417032420635">
        <ele>493.76999999999998</ele>
        <time>2026-07-09T08:42:17Z</time>
      </trkpt>
      <trkpt lat="53.116517029702663" lon="-6.302866972982884">
        <ele>492.32999999999998</ele>
        <time>2026-07-09T08:42:24Z</time>
      </trkpt>
      <trkpt lat="53.116517029702663" lon="-6.302866972982884">
        <ele>492.32999999999998</ele>
        <time>2026-07-09T08:42:43Z</time>
      </trkpt>
      <trkpt lat="53.116517029702663" lon="-6.302866972982884">
        <ele>492.32999999999998</ele>
        <time>2026-07-09T08:43:34Z</time>
      </trkpt>
      <trkpt lat="53.116517029702663" lon="-6.302866972982884">
        <ele>492.32999999999998</ele>
        <time>2026-07-09T08:44:27Z</time>
      </trkpt>
      <trkpt lat="53.116473024711013" lon="-6.302984990179539">
        <ele>492.32999999999998</ele>
        <time>2026-07-09T08:44:58Z</time>
      </trkpt>
      <trkpt lat="53.116441005840898" lon="-6.303075011819601">
        <ele>492.32999999999998</ele>
        <time>2026-07-09T08:44:59Z</time>
      </trkpt>
      <trkpt lat="53.116416027769446" lon="-6.303193029016256">
        <ele>491.85000000000002</ele>
        <time>2026-07-09T08:45:00Z</time>
      </trkpt>
      <trkpt lat="53.116394989192486" lon="-6.303337030112743">
        <ele>491.85000000000002</ele>
        <time>2026-07-09T08:45:01Z</time>
      </trkpt>
      <trkpt lat="53.116372022777796" lon="-6.303486982360482">
        <ele>491.37</ele>
        <time>2026-07-09T08:45:02Z</time>
      </trkpt>
      <trkpt lat="53.116380991414189" lon="-6.303635006770492">
        <ele>491.37</ele>
        <time>2026-07-09T08:45:03Z</time>
      </trkpt>
      <trkpt lat="53.116405969485641" lon="-6.303793005645275">
        <ele>490.88999999999999</ele>
        <time>2026-07-09T08:45:04Z</time>
      </trkpt>
      <trkpt lat="53.116432959213853" lon="-6.303960978984833">
        <ele>490.88999999999999</ele>
        <time>2026-07-09T08:45:05Z</time>
      </trkpt>
      <trkpt lat="53.116717021912336" lon="-6.305269980803132">
        <ele>487.52999999999997</ele>
        <time>2026-07-09T08:45:12Z</time>
      </trkpt>
      <trkpt lat="53.116773013025522" lon="-6.305486988276243">
        <ele>487.05000000000001</ele>
        <time>2026-07-09T08:45:13Z</time>
      </trkpt>
      <trkpt lat="53.116795979440212" lon="-6.305684968829155">
        <ele>486.56</ele>
        <time>2026-07-09T08:45:14Z</time>
      </trkpt>
      <trkpt lat="53.117126980796456" lon="-6.307751024141908">
        <ele>480.80000000000001</ele>
        <time>2026-07-09T08:45:23Z</time>
      </trkpt>
      <trkpt lat="53.117180038243532" lon="-6.308233989402652">
        <ele>479.35000000000002</ele>
        <time>2026-07-09T08:45:25Z</time>
      </trkpt>
      <trkpt lat="53.117233011871576" lon="-6.308453008532524">
        <ele>478.87</ele>
        <time>2026-07-09T08:45:26Z</time>
      </trkpt>
      <trkpt lat="53.117283973842859" lon="-6.308664986863732">
        <ele>478.38999999999999</ele>
        <time>2026-07-09T08:45:27Z</time>
      </trkpt>
      <trkpt lat="53.117342982441187" lon="-6.308851987123489">
        <ele>478.38999999999999</ele>
        <time>2026-07-09T08:45:28Z</time>
      </trkpt>
      <trkpt lat="53.117409031838179" lon="-6.309015015140176">
        <ele>477.91000000000003</ele>
        <time>2026-07-09T08:45:29Z</time>
      </trkpt>
      <trkpt lat="53.117474997416139" lon="-6.309177037328482">
        <ele>477.91000000000003</ele>
        <time>2026-07-09T08:45:30Z</time>
      </trkpt>
      <trkpt lat="53.117539035156369" lon="-6.309334030374885">
        <ele>477.91000000000003</ele>
        <time>2026-07-09T08:45:31Z</time>
      </trkpt>
      <trkpt lat="53.117554960772395" lon="-6.309517007321119">
        <ele>477.91000000000003</ele>
        <time>2026-07-09T08:45:32Z</time>
      </trkpt>
      <trkpt lat="53.117566024884582" lon="-6.309704007580876">
        <ele>476.94999999999999</ele>
        <time>2026-07-09T08:45:33Z</time>
      </trkpt>
      <trkpt lat="53.117577005177736" lon="-6.309896958991885">
        <ele>476.47000000000003</ele>
        <time>2026-07-09T08:45:34Z</time>
      </trkpt>
      <trkpt lat="53.117584967985749" lon="-6.310092005878687">
        <ele>475.99000000000001</ele>
        <time>2026-07-09T08:45:35Z</time>
      </trkpt>
      <trkpt lat="53.117541968822479" lon="-6.310253022238612">
        <ele>475.99000000000001</ele>
        <time>2026-07-09T08:45:36Z</time>
      </trkpt>
      <trkpt lat="53.117497963830829" lon="-6.310412026941776">
        <ele>476.47000000000003</ele>
        <time>2026-07-09T08:45:37Z</time>
      </trkpt>
      <trkpt lat="53.11743501573801" lon="-6.310563990846276">
        <ele>476.47000000000003</ele>
        <time>2026-07-09T08:45:38Z</time>
      </trkpt>
      <trkpt lat="53.117296965792775" lon="-6.31089499220252">
        <ele>476.47000000000003</ele>
        <time>2026-07-09T08:45:40Z</time>
      </trkpt>
      <trkpt lat="53.117244997993112" lon="-6.311095990240574">
        <ele>476.94999999999999</ele>
        <time>2026-07-09T08:45:41Z</time>
      </trkpt>
      <trkpt lat="53.117148019373417" lon="-6.311499997973442">
        <ele>477.43000000000001</ele>
        <time>2026-07-09T08:45:43Z</time>
      </trkpt>
      <trkpt lat="53.117102002725005" lon="-6.311690015718341">
        <ele>476.94999999999999</ele>
        <time>2026-07-09T08:45:44Z</time>
      </trkpt>
      <trkpt lat="53.117057997733355" lon="-6.311873998492956">
        <ele>477.43000000000001</ele>
        <time>2026-07-09T08:45:45Z</time>
      </trkpt>
      <trkpt lat="53.116993959993124" lon="-6.312025040388107">
        <ele>476.94999999999999</ele>
        <time>2026-07-09T08:45:46Z</time>
      </trkpt>
      <trkpt lat="53.116901004686952" lon="-6.31211900152266">
        <ele>476.94999999999999</ele>
        <time>2026-07-09T08:45:47Z</time>
      </trkpt>
      <trkpt lat="53.116801008582115" lon="-6.312206005677581">
        <ele>476.94999999999999</ele>
        <time>2026-07-09T08:45:48Z</time>
      </trkpt>
      <trkpt lat="53.116691960021853" lon="-6.312279012054205">
        <ele>476.47000000000003</ele>
        <time>2026-07-09T08:45:49Z</time>
      </trkpt>
      <trkpt lat="53.116580983623862" lon="-6.31235302425921">
        <ele>475.99000000000001</ele>
        <time>2026-07-09T08:45:50Z</time>
      </trkpt>
      <trkpt lat="53.11648802831769" lon="-6.312479004263878">
        <ele>475.50999999999999</ele>
        <time>2026-07-09T08:45:51Z</time>
      </trkpt>
      <trkpt lat="53.116407981142402" lon="-6.312589980661869">
        <ele>475.02999999999997</ele>
        <time>2026-07-09T08:45:52Z</time>
      </trkpt>
      <trkpt lat="53.116352995857596" lon="-6.312799025326967">
        <ele>474.55000000000001</ele>
        <time>2026-07-09T08:45:53Z</time>
      </trkpt>
      <trkpt lat="53.116300022229552" lon="-6.313003962859511">
        <ele>474.06999999999999</ele>
        <time>2026-07-09T08:45:54Z</time>
      </trkpt>
      <trkpt lat="53.116244031116366" lon="-6.31321401335299">
        <ele>473.58999999999997</ele>
        <time>2026-07-09T08:45:55Z</time>
      </trkpt>
      <trkpt lat="53.11618996784091" lon="-6.313421968370676">
        <ele>473.58999999999997</ele>
        <time>2026-07-09T08:45:56Z</time>
      </trkpt>
      <trkpt lat="53.116107992827892" lon="-6.313592959195375">
        <ele>473.11000000000001</ele>
        <time>2026-07-09T08:45:57Z</time>
      </trkpt>
      <trkpt lat="53.115742960944772" lon="-6.314178016036749">
        <ele>471.66000000000003</ele>
        <time>2026-07-09T08:46:01Z</time>
      </trkpt>
      <trkpt lat="53.115661991760135" lon="-6.314402986317873">
        <ele>471.66000000000003</ele>
        <time>2026-07-09T08:46:02Z</time>
      </trkpt>
      <trkpt lat="53.115596026182175" lon="-6.314587974920869">
        <ele>470.69999999999999</ele>
        <time>2026-07-09T08:46:03Z</time>
      </trkpt>
      <trkpt lat="53.115527965128422" lon="-6.314777992665768">
        <ele>470.69999999999999</ele>
        <time>2026-07-09T08:46:04Z</time>
      </trkpt>
      <trkpt lat="53.115514973178506" lon="-6.314987959340215">
        <ele>470.69999999999999</ele>
        <time>2026-07-09T08:46:05Z</time>
      </trkpt>
      <trkpt lat="53.115472979843616" lon="-6.315615009516478">
        <ele>470.69999999999999</ele>
        <time>2026-07-09T08:46:08Z</time>
      </trkpt>
      <trkpt lat="53.115460993722081" lon="-6.315802009776235">
        <ele>471.18000000000001</ele>
        <time>2026-07-09T08:46:09Z</time>
      </trkpt>
      <trkpt lat="53.115449007600546" lon="-6.315981969237328">
        <ele>471.18000000000001</ele>
        <time>2026-07-09T08:46:10Z</time>
      </trkpt>
      <trkpt lat="53.115593008697033" lon="-6.317867981269956">
        <ele>469.74000000000001</ele>
        <time>2026-07-09T08:46:19Z</time>
      </trkpt>
      <trkpt lat="53.115639025345445" lon="-6.318079959601164">
        <ele>469.74000000000001</ele>
        <time>2026-07-09T08:46:20Z</time>
      </trkpt>
      <trkpt lat="53.115817978978157" lon="-6.318889986723661">
        <ele>470.22000000000003</ele>
        <time>2026-07-09T08:46:24Z</time>
      </trkpt>
      <trkpt lat="53.115862989798188" lon="-6.319097019731998">
        <ele>470.22000000000003</ele>
        <time>2026-07-09T08:46:25Z</time>
      </trkpt>
      <trkpt lat="53.115871958434582" lon="-6.319313021376729">
        <ele>469.74000000000001</ele>
        <time>2026-07-09T08:46:26Z</time>
      </trkpt>
      <trkpt lat="53.115871036425233" lon="-6.319522988051176">
        <ele>469.74000000000001</ele>
        <time>2026-07-09T08:46:27Z</time>
      </trkpt>
      <trkpt lat="53.115844968706369" lon="-6.319733038544655">
        <ele>469.25999999999999</ele>
        <time>2026-07-09T08:46:28Z</time>
      </trkpt>
      <trkpt lat="53.115798030048609" lon="-6.319933030754328">
        <ele>468.77999999999997</ele>
        <time>2026-07-09T08:46:29Z</time>
      </trkpt>
      <trkpt lat="53.115724017843604" lon="-6.320098992437124">
        <ele>468.77999999999997</ele>
        <time>2026-07-09T08:46:30Z</time>
      </trkpt>
      <trkpt lat="53.115656962618232" lon="-6.320250034332275">
        <ele>468.30000000000001</ele>
        <time>2026-07-09T08:46:31Z</time>
      </trkpt>
      <trkpt lat="53.115566018968821" lon="-6.320340977981687">
        <ele>467.33999999999997</ele>
        <time>2026-07-09T08:46:32Z</time>
      </trkpt>
      <trkpt lat="53.115466022863984" lon="-6.320440974086523">
        <ele>466.38</ele>
        <time>2026-07-09T08:46:33Z</time>
      </trkpt>
      <trkpt lat="53.115357980132103" lon="-6.320549016818404">
        <ele>465.42000000000002</ele>
        <time>2026-07-09T08:46:34Z</time>
      </trkpt>
      <trkpt lat="53.115239962935448" lon="-6.32066703401506">
        <ele>464.44999999999999</ele>
        <time>2026-07-09T08:46:35Z</time>
      </trkpt>
      <trkpt lat="53.115115994587541" lon="-6.320791002362967">
        <ele>463.49000000000001</ele>
        <time>2026-07-09T08:46:36Z</time>
      </trkpt>
      <trkpt lat="53.115014992654324" lon="-6.320985965430737">
        <ele>462.52999999999997</ele>
        <time>2026-07-09T08:46:37Z</time>
      </trkpt>
      <trkpt lat="53.114934023469687" lon="-6.321188975125551">
        <ele>461.56999999999999</ele>
        <time>2026-07-09T08:46:38Z</time>
      </trkpt>
      <trkpt lat="53.11485699377954" lon="-6.321381004527211">
        <ele>461.08999999999997</ele>
        <time>2026-07-09T08:46:39Z</time>
      </trkpt>
      <trkpt lat="53.114783987402916" lon="-6.321562975645065">
        <ele>460.61000000000001</ele>
        <time>2026-07-09T08:46:40Z</time>
      </trkpt>
      <trkpt lat="53.114712992683053" lon="-6.321741007268429">
        <ele>460.13</ele>
        <time>2026-07-09T08:46:41Z</time>
      </trkpt>
      <trkpt lat="53.114618025720119" lon="-6.321876961737871">
        <ele>459.17000000000002</ele>
        <time>2026-07-09T08:46:42Z</time>
      </trkpt>
      <trkpt lat="53.114506965503097" lon="-6.32200101390481">
        <ele>458.69</ele>
        <time>2026-07-09T08:46:43Z</time>
      </trkpt>
      <trkpt lat="53.114391965791583" lon="-6.322129005566239">
        <ele>458.20999999999998</ele>
        <time>2026-07-09T08:46:44Z</time>
      </trkpt>
      <trkpt lat="53.114288030192256" lon="-6.322276024147868">
        <ele>457.72000000000003</ele>
        <time>2026-07-09T08:46:45Z</time>
      </trkpt>
      <trkpt lat="53.114202031865716" lon="-6.322438968345523">
        <ele>457.24000000000001</ele>
        <time>2026-07-09T08:46:46Z</time>
      </trkpt>
      <trkpt lat="53.114123996347189" lon="-6.322587998583913">
        <ele>456.75999999999999</ele>
        <time>2026-07-09T08:46:47Z</time>
      </trkpt>
      <trkpt lat="53.114101029932499" lon="-6.322770975530148">
        <ele>456.75999999999999</ele>
        <time>2026-07-09T08:46:48Z</time>
      </trkpt>
      <trkpt lat="53.114090971648693" lon="-6.322911037132144">
        <ele>456.75999999999999</ele>
        <time>2026-07-09T08:46:49Z</time>
      </trkpt>
      <trkpt lat="53.114133970811963" lon="-6.323067024350166">
        <ele>456.75999999999999</ele>
        <time>2026-07-09T08:46:50Z</time>
      </trkpt>
      <trkpt lat="53.114179987460375" lon="-6.323233991861343">
        <ele>456.75999999999999</ele>
        <time>2026-07-09T08:46:51Z</time>
      </trkpt>
      <trkpt lat="53.114232961088419" lon="-6.323424009606242">
        <ele>456.75999999999999</ele>
        <time>2026-07-09T08:46:52Z</time>
      </trkpt>
      <trkpt lat="53.114290041849017" lon="-6.323628025129437">
        <ele>457.24000000000001</ele>
        <time>2026-07-09T08:46:53Z</time>
      </trkpt>
      <trkpt lat="53.114324994385242" lon="-6.323858024552465">
        <ele>457.24000000000001</ele>
        <time>2026-07-09T08:46:54Z</time>
      </trkpt>
      <trkpt lat="53.114372016862035" lon="-6.324290027841926">
        <ele>457.24000000000001</ele>
        <time>2026-07-09T08:46:56Z</time>
      </trkpt>
      <trkpt lat="53.114394983276725" lon="-6.32449203170836">
        <ele>456.75999999999999</ele>
        <time>2026-07-09T08:46:57Z</time>
      </trkpt>
      <trkpt lat="53.114424990490079" lon="-6.324680037796497">
        <ele>457.24000000000001</ele>
        <time>2026-07-09T08:46:58Z</time>
      </trkpt>
      <trkpt lat="53.114630011841655" lon="-6.325174989178777">
        <ele>457.72000000000003</ele>
        <time>2026-07-09T08:47:01Z</time>
      </trkpt>
      <trkpt lat="53.114675022661686" lon="-6.325350003316999">
        <ele>457.72000000000003</ele>
        <time>2026-07-09T08:47:02Z</time>
      </trkpt>
      <trkpt lat="53.11468499712646" lon="-6.32552501745522">
        <ele>457.72000000000003</ele>
        <time>2026-07-09T08:47:03Z</time>
      </trkpt>
      <trkpt lat="53.114678962156177" lon="-6.325700031593442">
        <ele>457.72000000000003</ele>
        <time>2026-07-09T08:47:04Z</time>
      </trkpt>
      <trkpt lat="53.114644009619951" lon="-6.325873034074903">
        <ele>458.20999999999998</ele>
        <time>2026-07-09T08:47:05Z</time>
      </trkpt>
      <trkpt lat="53.114606039598584" lon="-6.326064979657531">
        <ele>458.20999999999998</ele>
        <time>2026-07-09T08:47:06Z</time>
      </trkpt>
      <trkpt lat="53.114456003531814" lon="-6.326420037075877">
        <ele>457.72000000000003</ele>
        <time>2026-07-09T08:47:08Z</time>
      </trkpt>
      <trkpt lat="53.114355001598597" lon="-6.326578035950661">
        <ele>457.72000000000003</ele>
        <time>2026-07-09T08:47:09Z</time>
      </trkpt>
      <trkpt lat="53.114242013543844" lon="-6.326726982370019">
        <ele>457.24000000000001</ele>
        <time>2026-07-09T08:47:10Z</time>
      </trkpt>
      <trkpt lat="53.11388997361064" lon="-6.327193016186357">
        <ele>456.75999999999999</ele>
        <time>2026-07-09T08:47:13Z</time>
      </trkpt>
      <trkpt lat="53.11378201469779" lon="-6.327335005626082">
        <ele>456.75999999999999</ele>
        <time>2026-07-09T08:47:14Z</time>
      </trkpt>
      <trkpt lat="53.113655028864741" lon="-6.327392002567649">
        <ele>456.75999999999999</ele>
        <time>2026-07-09T08:47:15Z</time>
      </trkpt>
      <trkpt lat="53.112632017582655" lon="-6.327744964510202">
        <ele>457.24000000000001</ele>
        <time>2026-07-09T08:47:22Z</time>
      </trkpt>
      <trkpt lat="53.112465972080827" lon="-6.327756028622389">
        <ele>457.24000000000001</ele>
        <time>2026-07-09T08:47:23Z</time>
      </trkpt>
      <trkpt lat="53.112123990431428" lon="-6.327743036672473">
        <ele>457.24000000000001</ele>
        <time>2026-07-09T08:47:25Z</time>
      </trkpt>
      <trkpt lat="53.111960040405393" lon="-6.327766003087163">
        <ele>457.24000000000001</ele>
        <time>2026-07-09T08:47:26Z</time>
      </trkpt>
      <trkpt lat="53.111813021823764" lon="-6.327825011685491">
        <ele>457.24000000000001</ele>
        <time>2026-07-09T08:47:27Z</time>
      </trkpt>
      <trkpt lat="53.111382024362683" lon="-6.327993990853429">
        <ele>456.75999999999999</ele>
        <time>2026-07-09T08:47:30Z</time>
      </trkpt>
      <trkpt lat="53.110952032729983" lon="-6.328048976138234">
        <ele>457.24000000000001</ele>
        <time>2026-07-09T08:47:35Z</time>
      </trkpt>
      <trkpt lat="53.110544001683593" lon="-6.32808200083673">
        <ele>457.72000000000003</ele>
        <time>2026-07-09T08:47:41Z</time>
      </trkpt>
      <trkpt lat="53.109478997066617" lon="-6.328123994171619">
        <ele>456.27999999999997</ele>
        <time>2026-07-09T08:47:48Z</time>
      </trkpt>
      <trkpt lat="53.107904959470034" lon="-6.327614039182663">
        <ele>456.75999999999999</ele>
        <time>2026-07-09T08:47:57Z</time>
      </trkpt>
      <trkpt lat="53.107742015272379" lon="-6.327626025304198">
        <ele>456.75999999999999</ele>
        <time>2026-07-09T08:47:58Z</time>
      </trkpt>
      <trkpt lat="53.107242034748197" lon="-6.327665001153946">
        <ele>456.75999999999999</ele>
        <time>2026-07-09T08:48:01Z</time>
      </trkpt>
      <trkpt lat="53.107085041701794" lon="-6.327662989497185">
        <ele>456.75999999999999</ele>
        <time>2026-07-09T08:48:02Z</time>
      </trkpt>
      <trkpt lat="53.106107041239738" lon="-6.327336011454463">
        <ele>456.27999999999997</ele>
        <time>2026-07-09T08:48:08Z</time>
      </trkpt>
      <trkpt lat="53.105955999344587" lon="-6.327354032546282">
        <ele>456.27999999999997</ele>
        <time>2026-07-09T08:48:09Z</time>
      </trkpt>
      <trkpt lat="53.105822978541255" lon="-6.327369958162308">
        <ele>456.27999999999997</ele>
        <time>2026-07-09T08:48:10Z</time>
      </trkpt>
      <trkpt lat="53.105713007971644" lon="-6.327440030872822">
        <ele>456.27999999999997</ele>
        <time>2026-07-09T08:48:11Z</time>
      </trkpt>
      <trkpt lat="53.105612006038427" lon="-6.327530974522233">
        <ele>456.75999999999999</ele>
        <time>2026-07-09T08:48:12Z</time>
      </trkpt>
      <trkpt lat="53.105527013540268" lon="-6.327680004760623">
        <ele>457.24000000000001</ele>
        <time>2026-07-09T08:48:13Z</time>
      </trkpt>
      <trkpt lat="53.105454007163644" lon="-6.327860970050097">
        <ele>457.24000000000001</ele>
        <time>2026-07-09T08:48:14Z</time>
      </trkpt>
      <trkpt lat="53.105375971645117" lon="-6.328057022765279">
        <ele>457.24000000000001</ele>
        <time>2026-07-09T08:48:15Z</time>
      </trkpt>
      <trkpt lat="53.104529986158013" lon="-6.33059598505497">
        <ele>459.17000000000002</ele>
        <time>2026-07-09T08:48:26Z</time>
      </trkpt>
      <trkpt lat="53.103905031457543" lon="-6.332428017631173">
        <ele>454.83999999999997</ele>
        <time>2026-07-09T08:48:34Z</time>
      </trkpt>
      <trkpt lat="53.103687018156052" lon="-6.333909016102552">
        <ele>452.44</ele>
        <time>2026-07-09T08:48:40Z</time>
      </trkpt>
      <trkpt lat="53.10368400067091" lon="-6.334131974726915">
        <ele>451.95999999999998</ele>
        <time>2026-07-09T08:48:41Z</time>
      </trkpt>
      <trkpt lat="53.1037069670856" lon="-6.334321992471814">
        <ele>451.48000000000002</ele>
        <time>2026-07-09T08:48:42Z</time>
      </trkpt>
      <trkpt lat="53.103737980127335" lon="-6.334480997174978">
        <ele>451</ele>
        <time>2026-07-09T08:48:43Z</time>
      </trkpt>
      <trkpt lat="53.103764969855547" lon="-6.334627009928227">
        <ele>450.51999999999998</ele>
        <time>2026-07-09T08:48:44Z</time>
      </trkpt>
      <trkpt lat="53.103978037834167" lon="-6.335354978218675">
        <ele>449.06999999999999</ele>
        <time>2026-07-09T08:48:49Z</time>
      </trkpt>
      <trkpt lat="53.104023970663548" lon="-6.335509037598968">
        <ele>448.11000000000001</ele>
        <time>2026-07-09T08:48:50Z</time>
      </trkpt>
      <trkpt lat="53.104079039767385" lon="-6.335664018988609">
        <ele>448.11000000000001</ele>
        <time>2026-07-09T08:48:51Z</time>
      </trkpt>
      <trkpt lat="53.104731990024447" lon="-6.337180975824595">
        <ele>445.23000000000002</ele>
        <time>2026-07-09T08:48:59Z</time>
      </trkpt>
      <trkpt lat="53.104817988350987" lon="-6.337381973862648">
        <ele>444.75</ele>
        <time>2026-07-09T08:49:00Z</time>
      </trkpt>
      <trkpt lat="53.105028038844466" lon="-6.33775002323091">
        <ele>444.26999999999998</ele>
        <time>2026-07-09T08:49:02Z</time>
      </trkpt>
      <trkpt lat="53.105356022715569" lon="-6.338186971843243">
        <ele>443.31</ele>
        <time>2026-07-09T08:49:05Z</time>
      </trkpt>
      <trkpt lat="53.10544403269887" lon="-6.338329967111349">
        <ele>443.31</ele>
        <time>2026-07-09T08:49:06Z</time>
      </trkpt>
      <trkpt lat="53.105507986620069" lon="-6.338488971814513">
        <ele>443.31</ele>
        <time>2026-07-09T08:49:07Z</time>
      </trkpt>
      <trkpt lat="53.105550985783339" lon="-6.338649988174439">
        <ele>443.31</ele>
        <time>2026-07-09T08:49:08Z</time>
      </trkpt>
      <trkpt lat="53.105572024360299" lon="-6.338854003697634">
        <ele>442.81999999999999</ele>
        <time>2026-07-09T08:49:09Z</time>
      </trkpt>
      <trkpt lat="53.105572024360299" lon="-6.339053995907307">
        <ele>442.81999999999999</ele>
        <time>2026-07-09T08:49:10Z</time>
      </trkpt>
      <trkpt lat="53.105572024360299" lon="-6.339245019480586">
        <ele>442.33999999999997</ele>
        <time>2026-07-09T08:49:11Z</time>
      </trkpt>
      <trkpt lat="53.105572024360299" lon="-6.339417016133666">
        <ele>442.33999999999997</ele>
        <time>2026-07-09T08:49:12Z</time>
      </trkpt>
      <trkpt lat="53.105542017146945" lon="-6.339565040543675">
        <ele>442.33999999999997</ele>
        <time>2026-07-09T08:49:13Z</time>
      </trkpt>
      <trkpt lat="53.105507986620069" lon="-6.339668976143003">
        <ele>442.81999999999999</ele>
        <time>2026-07-09T08:49:14Z</time>
      </trkpt>
      <trkpt lat="53.105427017435431" lon="-6.339700995013118">
        <ele>443.31</ele>
        <time>2026-07-09T08:49:15Z</time>
      </trkpt>
      <trkpt lat="53.105359962210059" lon="-6.339692026376724">
        <ele>443.31</ele>
        <time>2026-07-09T08:49:16Z</time>
      </trkpt>
      <trkpt lat="53.105273963883519" lon="-6.339649027213454">
        <ele>442.81999999999999</ele>
        <time>2026-07-09T08:49:17Z</time>
      </trkpt>
      <trkpt lat="53.105178996920586" lon="-6.339602004736662">
        <ele>442.81999999999999</ele>
        <time>2026-07-09T08:49:18Z</time>
      </trkpt>
      <trkpt lat="53.105074977502227" lon="-6.339564034715295">
        <ele>442.33999999999997</ele>
        <time>2026-07-09T08:49:19Z</time>
      </trkpt>
      <trkpt lat="53.104968024417758" lon="-6.33957501500845">
        <ele>442.33999999999997</ele>
        <time>2026-07-09T08:49:20Z</time>
      </trkpt>
      <trkpt lat="53.104851013049483" lon="-6.33959798142314">
        <ele>441.86000000000001</ele>
        <time>2026-07-09T08:49:21Z</time>
      </trkpt>
      <trkpt lat="53.104461003094912" lon="-6.33974801748991">
        <ele>440.89999999999998</ele>
        <time>2026-07-09T08:49:24Z</time>
      </trkpt>
      <trkpt lat="53.104176018387079" lon="-6.339798979461193">
        <ele>440.42000000000002</ele>
        <time>2026-07-09T08:49:26Z</time>
      </trkpt>
      <trkpt lat="53.104041991755366" lon="-6.339823035523295">
        <ele>439.45999999999998</ele>
        <time>2026-07-09T08:49:27Z</time>
      </trkpt>
      <trkpt lat="53.103917017579079" lon="-6.339864023029804">
        <ele>438.98000000000002</ele>
        <time>2026-07-09T08:49:28Z</time>
      </trkpt>
      <trkpt lat="53.103815009817481" lon="-6.339958989992738">
        <ele>438.5</ele>
        <time>2026-07-09T08:49:29Z</time>
      </trkpt>
      <trkpt lat="53.103709984570742" lon="-6.340056974440813">
        <ele>438.01999999999998</ele>
        <time>2026-07-09T08:49:30Z</time>
      </trkpt>
      <trkpt lat="53.103601019829512" lon="-6.340182032436132">
        <ele>437.54000000000002</ele>
        <time>2026-07-09T08:49:31Z</time>
      </trkpt>
      <trkpt lat="53.103518960997462" lon="-6.340356962755323">
        <ele>437.06</ele>
        <time>2026-07-09T08:49:32Z</time>
      </trkpt>
      <trkpt lat="53.103433968499303" lon="-6.34054102934897">
        <ele>437.06</ele>
        <time>2026-07-09T08:49:33Z</time>
      </trkpt>
      <trkpt lat="53.103269012644887" lon="-6.340896002948284">
        <ele>436.57999999999998</ele>
        <time>2026-07-09T08:49:35Z</time>
      </trkpt>
      <trkpt lat="53.103191982954741" lon="-6.341042015701532">
        <ele>436.10000000000002</ele>
        <time>2026-07-09T08:49:36Z</time>
      </trkpt>
      <trkpt lat="53.102997019886971" lon="-6.341246031224728">
        <ele>435.61000000000001</ele>
        <time>2026-07-09T08:49:38Z</time>
      </trkpt>
      <trkpt lat="53.102888977155089" lon="-6.341360025107861">
        <ele>435.61000000000001</ele>
        <time>2026-07-09T08:49:39Z</time>
      </trkpt>
      <trkpt lat="53.102770037949085" lon="-6.341483993455768">
        <ele>435.13</ele>
        <time>2026-07-09T08:49:40Z</time>
      </trkpt>
      <trkpt lat="53.102439036592841" lon="-6.342016998678446">
        <ele>433.69</ele>
        <time>2026-07-09T08:49:43Z</time>
      </trkpt>
      <trkpt lat="53.102356977760792" lon="-6.342230988666415">
        <ele>433.20999999999998</ele>
        <time>2026-07-09T08:49:44Z</time>
      </trkpt>
      <trkpt lat="53.102121027186513" lon="-6.342925010249019">
        <ele>431.76999999999998</ele>
        <time>2026-07-09T08:49:47Z</time>
      </trkpt>
      <trkpt lat="53.102043997496367" lon="-6.343150986358523">
        <ele>431.29000000000002</ele>
        <time>2026-07-09T08:49:48Z</time>
      </trkpt>
      <trkpt lat="53.101346958428621" lon="-6.344642965123057">
        <ele>429.37</ele>
        <time>2026-07-09T08:49:56Z</time>
      </trkpt>
      <trkpt lat="53.101251991465688" lon="-6.344780009239912">
        <ele>429.37</ele>
        <time>2026-07-09T08:49:57Z</time>
      </trkpt>
      <trkpt lat="53.101159036159515" lon="-6.344915041700006">
        <ele>428.88999999999999</ele>
        <time>2026-07-09T08:49:58Z</time>
      </trkpt>
      <trkpt lat="53.101043030619621" lon="-6.344973966479302">
        <ele>428.39999999999998</ele>
        <time>2026-07-09T08:49:59Z</time>
      </trkpt>
      <trkpt lat="53.100915960967541" lon="-6.345030041411519">
        <ele>427.44</ele>
        <time>2026-07-09T08:50:00Z</time>
      </trkpt>
      <trkpt lat="53.10078302398324" lon="-6.345087960362434">
        <ele>426.95999999999998</ele>
        <time>2026-07-09T08:50:01Z</time>
      </trkpt>
      <trkpt lat="53.100497033447027" lon="-6.345161972567439">
        <ele>425.51999999999998</ele>
        <time>2026-07-09T08:50:03Z</time>
      </trkpt>
      <trkpt lat="53.09938701801002" lon="-6.344938008114696">
        <ele>421.19</ele>
        <time>2026-07-09T08:50:10Z</time>
      </trkpt>
      <trkpt lat="53.099246034398675" lon="-6.344885034486651">
        <ele>420.70999999999998</ele>
        <time>2026-07-09T08:50:11Z</time>
      </trkpt>
      <trkpt lat="53.099112007766962" lon="-6.344834994524717">
        <ele>420.23000000000002</ele>
        <time>2026-07-09T08:50:12Z</time>
      </trkpt>
      <trkpt lat="53.098988961428404" lon="-6.344845974817872">
        <ele>419.75</ele>
        <time>2026-07-09T08:50:13Z</time>
      </trkpt>
      <trkpt lat="53.098863987252116" lon="-6.344887968152762">
        <ele>419.26999999999998</ele>
        <time>2026-07-09T08:50:14Z</time>
      </trkpt>
      <trkpt lat="53.098740018904209" lon="-6.344985030591488">
        <ele>419.26999999999998</ele>
        <time>2026-07-09T08:50:15Z</time>
      </trkpt>
      <trkpt lat="53.098619990050793" lon="-6.345116961747408">
        <ele>418.79000000000002</ele>
        <time>2026-07-09T08:50:16Z</time>
      </trkpt>
      <trkpt lat="53.098503984510899" lon="-6.345256017521024">
        <ele>418.31</ele>
        <time>2026-07-09T08:50:17Z</time>
      </trkpt>
      <trkpt lat="53.098404994234443" lon="-6.345376968383789">
        <ele>417.82999999999998</ele>
        <time>2026-07-09T08:50:18Z</time>
      </trkpt>
      <trkpt lat="53.098318995907903" lon="-6.345587018877268">
        <ele>417.35000000000002</ele>
        <time>2026-07-09T08:50:19Z</time>
      </trkpt>
      <trkpt lat="53.09824800118804" lon="-6.345778964459896">
        <ele>417.35000000000002</ele>
        <time>2026-07-09T08:50:20Z</time>
      </trkpt>
      <trkpt lat="53.09820600785315" lon="-6.346008041873574">
        <ele>416.87</ele>
        <time>2026-07-09T08:50:21Z</time>
      </trkpt>
      <trkpt lat="53.09807600453496" lon="-6.346716983243823">
        <ele>415.91000000000003</ele>
        <time>2026-07-09T08:50:24Z</time>
      </trkpt>
      <trkpt lat="53.098016995936632" lon="-6.346919992938638">
        <ele>415.91000000000003</ele>
        <time>2026-07-09T08:50:25Z</time>
      </trkpt>
      <trkpt lat="53.097951030358672" lon="-6.347107999026775">
        <ele>415.43000000000001</ele>
        <time>2026-07-09T08:50:26Z</time>
      </trkpt>
      <trkpt lat="53.09786100871861" lon="-6.347269015386701">
        <ele>415.43000000000001</ele>
        <time>2026-07-09T08:50:27Z</time>
      </trkpt>
      <trkpt lat="53.097764030098915" lon="-6.34741997346282">
        <ele>414.94999999999999</ele>
        <time>2026-07-09T08:50:28Z</time>
      </trkpt>
      <trkpt lat="53.097660010680556" lon="-6.347565986216068">
        <ele>414.47000000000003</ele>
        <time>2026-07-09T08:50:29Z</time>
      </trkpt>
      <trkpt lat="53.097323980182409" lon="-6.347961025312543">
        <ele>412.54000000000002</ele>
        <time>2026-07-09T08:50:32Z</time>
      </trkpt>
      <trkpt lat="53.09721996076405" lon="-6.348082982003689">
        <ele>411.57999999999998</ele>
        <time>2026-07-09T08:50:33Z</time>
      </trkpt>
      <trkpt lat="53.097159024327993" lon="-6.348245004191995">
        <ele>411.10000000000002</ele>
        <time>2026-07-09T08:50:34Z</time>
      </trkpt>
      <trkpt lat="53.097106972709298" lon="-6.348415995016694">
        <ele>410.13999999999999</ele>
        <time>2026-07-09T08:50:35Z</time>
      </trkpt>
      <trkpt lat="53.097051987424493" lon="-6.348594026640058">
        <ele>409.18000000000001</ele>
        <time>2026-07-09T08:50:36Z</time>
      </trkpt>
      <trkpt lat="53.096969006583095" lon="-6.348732998594642">
        <ele>408.69999999999999</ele>
        <time>2026-07-09T08:50:37Z</time>
      </trkpt>
      <trkpt lat="53.096874039620161" lon="-6.348817991092801">
        <ele>407.74000000000001</ele>
        <time>2026-07-09T08:50:38Z</time>
      </trkpt>
      <trkpt lat="53.096762979403138" lon="-6.348846992477775">
        <ele>407.25999999999999</ele>
        <time>2026-07-09T08:50:39Z</time>
      </trkpt>
      <trkpt lat="53.096639011055231" lon="-6.348880017176271">
        <ele>406.29000000000002</ele>
        <time>2026-07-09T08:50:40Z</time>
      </trkpt>
      <trkpt lat="53.096505990251899" lon="-6.348889991641045">
        <ele>404.85000000000002</ele>
        <time>2026-07-09T08:50:41Z</time>
      </trkpt>
      <trkpt lat="53.096368024125695" lon="-6.348876999691129">
        <ele>403.88999999999999</ele>
        <time>2026-07-09T08:50:42Z</time>
      </trkpt>
      <trkpt lat="53.095965022221208" lon="-6.348841963335872">
        <ele>400.05000000000001</ele>
        <time>2026-07-09T08:50:45Z</time>
      </trkpt>
      <trkpt lat="53.095844993367791" lon="-6.348835006356239">
        <ele>399.07999999999998</ele>
        <time>2026-07-09T08:50:46Z</time>
      </trkpt>
      <trkpt lat="53.095729993656278" lon="-6.348893009126186">
        <ele>398.12</ele>
        <time>2026-07-09T08:50:47Z</time>
      </trkpt>
      <trkpt lat="53.095620023086667" lon="-6.348989987745881">
        <ele>398.12</ele>
        <time>2026-07-09T08:50:48Z</time>
      </trkpt>
      <trkpt lat="53.095512986183167" lon="-6.349120996892452">
        <ele>397.63999999999999</ele>
        <time>2026-07-09T08:50:49Z</time>
      </trkpt>
      <trkpt lat="53.095403015613556" lon="-6.349256029352546">
        <ele>397.63999999999999</ele>
        <time>2026-07-09T08:50:50Z</time>
      </trkpt>
      <trkpt lat="53.095280975103378" lon="-6.34939500130713">
        <ele>397.16000000000003</ele>
        <time>2026-07-09T08:50:51Z</time>
      </trkpt>
      <trkpt lat="53.095142003148794" lon="-6.34946096688509">
        <ele>397.16000000000003</ele>
        <time>2026-07-09T08:50:52Z</time>
      </trkpt>
      <trkpt lat="53.09500495903194" lon="-6.349526010453701">
        <ele>396.68000000000001</ele>
        <time>2026-07-09T08:50:53Z</time>
      </trkpt>
      <trkpt lat="53.094886019825935" lon="-6.349583007395268">
        <ele>396.19999999999999</ele>
        <time>2026-07-09T08:50:54Z</time>
      </trkpt>
      <trkpt lat="53.094776971265674" lon="-6.349556017667055">
        <ele>395.72000000000003</ele>
        <time>2026-07-09T08:50:55Z</time>
      </trkpt>
      <trkpt lat="53.094676975160837" lon="-6.34950103238225">
        <ele>395.72000000000003</ele>
        <time>2026-07-09T08:50:56Z</time>
      </trkpt>
      <trkpt lat="53.094577984884381" lon="-6.349399024620652">
        <ele>395.72000000000003</ele>
        <time>2026-07-09T08:50:57Z</time>
      </trkpt>
      <trkpt lat="53.093675002455711" lon="-6.348625039681792">
        <ele>395.72000000000003</ele>
        <time>2026-07-09T08:51:04Z</time>
      </trkpt>
      <trkpt lat="53.093547010794282" lon="-6.348534012213349">
        <ele>395.72000000000003</ele>
        <time>2026-07-09T08:51:05Z</time>
      </trkpt>
      <trkpt lat="53.093422958627343" lon="-6.348446002230048">
        <ele>395.72000000000003</ele>
        <time>2026-07-09T08:51:06Z</time>
      </trkpt>
      <trkpt lat="53.092122003436089" lon="-6.348118018358946">
        <ele>395.24000000000001</ele>
        <time>2026-07-09T08:51:15Z</time>
      </trkpt>
      <trkpt lat="53.091495959088206" lon="-6.347973011434078">
        <ele>394.75999999999999</ele>
        <time>2026-07-09T08:51:19Z</time>
      </trkpt>
      <trkpt lat="53.091340977698565" lon="-6.347981980070472">
        <ele>394.27999999999997</ele>
        <time>2026-07-09T08:51:20Z</time>
      </trkpt>
      <trkpt lat="53.091193037107587" lon="-6.347990026697516">
        <ele>394.27999999999997</ele>
        <time>2026-07-09T08:51:21Z</time>
      </trkpt>
      <trkpt lat="53.09105297550559" lon="-6.348032020032406">
        <ele>393.80000000000001</ele>
        <time>2026-07-09T08:51:22Z</time>
      </trkpt>
      <trkpt lat="53.090781988576055" lon="-6.348209967836738">
        <ele>393.80000000000001</ele>
        <time>2026-07-09T08:51:23Z</time>
      </trkpt>
      <trkpt lat="53.090641004964709" lon="-6.348303006961942">
        <ele>393.80000000000001</ele>
        <time>2026-07-09T08:51:24Z</time>
      </trkpt>
      <trkpt lat="53.089971961453557" lon="-6.348898960277438">
        <ele>394.75999999999999</ele>
        <time>2026-07-09T08:51:29Z</time>
      </trkpt>
      <trkpt lat="53.089854028075933" lon="-6.349048996344209">
        <ele>394.75999999999999</ele>
        <time>2026-07-09T08:51:30Z</time>
      </trkpt>
      <trkpt lat="53.089755959808826" lon="-6.349242031574249">
        <ele>395.24000000000001</ele>
        <time>2026-07-09T08:51:31Z</time>
      </trkpt>
      <trkpt lat="53.089136034250259" lon="-6.350930985063314">
        <ele>400.52999999999997</ele>
        <time>2026-07-09T08:51:39Z</time>
      </trkpt>
      <trkpt lat="53.089093035086989" lon="-6.351153021678329">
        <ele>401.00999999999999</ele>
        <time>2026-07-09T08:51:40Z</time>
      </trkpt>
      <trkpt lat="53.089062022045255" lon="-6.351382015272975">
        <ele>401.49000000000001</ele>
        <time>2026-07-09T08:51:41Z</time>
      </trkpt>
      <trkpt lat="53.089001001790166" lon="-6.351830027997494">
        <ele>402.44999999999999</ele>
        <time>2026-07-09T08:51:43Z</time>
      </trkpt>
      <trkpt lat="53.088950961828232" lon="-6.352035971358419">
        <ele>402.93000000000001</ele>
        <time>2026-07-09T08:51:44Z</time>
      </trkpt>
      <trkpt lat="53.088880972936749" lon="-6.352222971618176">
        <ele>403.88999999999999</ele>
        <time>2026-07-09T08:51:45Z</time>
      </trkpt>
      <trkpt lat="53.088811989873648" lon="-6.352411983534694">
        <ele>404.85000000000002</ele>
        <time>2026-07-09T08:51:47Z</time>
      </trkpt>
      <trkpt lat="53.088617026805878" lon="-6.35270300321281">
        <ele>405.81</ele>
        <time>2026-07-09T08:51:48Z</time>
      </trkpt>
      <trkpt lat="53.088507978245616" lon="-6.352823032066226">
        <ele>406.29000000000002</ele>
        <time>2026-07-09T08:51:49Z</time>
      </trkpt>
      <trkpt lat="53.088507978245616" lon="-6.352823032066226">
        <ele>406.76999999999998</ele>
        <time>2026-07-09T08:51:50Z</time>
      </trkpt>
      <trkpt lat="53.088260041549802" lon="-6.353030987083912">
        <ele>407.25999999999999</ele>
        <time>2026-07-09T08:51:51Z</time>
      </trkpt>
      <trkpt lat="53.087734999135137" lon="-6.353471037000418">
        <ele>410.62</ele>
        <time>2026-07-09T08:51:55Z</time>
      </trkpt>
      <trkpt lat="53.087734999135137" lon="-6.353471037000418">
        <ele>411.10000000000002</ele>
        <time>2026-07-09T08:51:56Z</time>
      </trkpt>
      <trkpt lat="53.087487984448671" lon="-6.353745963424444">
        <ele>411.57999999999998</ele>
        <time>2026-07-09T08:51:57Z</time>
      </trkpt>
      <trkpt lat="53.086805026978254" lon="-6.354723041877151">
        <ele>413.98000000000002</ele>
        <time>2026-07-09T08:52:03Z</time>
      </trkpt>
      <trkpt lat="53.086634036153555" lon="-6.355101987719536">
        <ele>415.43000000000001</ele>
        <time>2026-07-09T08:52:05Z</time>
      </trkpt>
      <trkpt lat="53.086266992613673" lon="-6.355810007080436">
        <ele>417.35000000000002</ele>
        <time>2026-07-09T08:52:09Z</time>
      </trkpt>
      <trkpt lat="53.086169008165598" lon="-6.355971023440361">
        <ele>418.31</ele>
        <time>2026-07-09T08:52:10Z</time>
      </trkpt>
      <trkpt lat="53.086048979312181" lon="-6.356103038415313">
        <ele>418.79000000000002</ele>
        <time>2026-07-09T08:52:11Z</time>
      </trkpt>
      <trkpt lat="53.085821997374296" lon="-6.356330020353198">
        <ele>420.23000000000002</ele>
        <time>2026-07-09T08:52:13Z</time>
      </trkpt>
      <trkpt lat="53.085731975734234" lon="-6.356434961780906">
        <ele>420.70999999999998</ele>
        <time>2026-07-09T08:52:14Z</time>
      </trkpt>
      <trkpt lat="53.085669027641416" lon="-6.356573011726141">
        <ele>420.70999999999998</ele>
        <time>2026-07-09T08:52:15Z</time>
      </trkpt>
      <trkpt lat="53.085604989901185" lon="-6.356710977852345">
        <ele>421.19</ele>
        <time>2026-07-09T08:52:16Z</time>
      </trkpt>
      <trkpt lat="53.085543969646096" lon="-6.356843998655677">
        <ele>421.68000000000001</ele>
        <time>2026-07-09T08:52:17Z</time>
      </trkpt>
      <trkpt lat="53.085478004068136" lon="-6.356954975053668">
        <ele>422.16000000000003</ele>
        <time>2026-07-09T08:52:18Z</time>
      </trkpt>
      <trkpt lat="53.085403991863132" lon="-6.357036028057337">
        <ele>422.16000000000003</ele>
        <time>2026-07-09T08:52:19Z</time>
      </trkpt>
      <trkpt lat="53.085403991863132" lon="-6.357036028057337">
        <ele>422.63999999999999</ele>
        <time>2026-07-09T08:52:20Z</time>
      </trkpt>
      <trkpt lat="53.085233001038432" lon="-6.35719302110374">
        <ele>423.12</ele>
        <time>2026-07-09T08:52:21Z</time>
      </trkpt>
      <trkpt lat="53.085124958306551" lon="-6.357230991125107">
        <ele>423.60000000000002</ele>
        <time>2026-07-09T08:52:22Z</time>
      </trkpt>
      <trkpt lat="53.085124958306551" lon="-6.357230991125107">
        <ele>423.60000000000002</ele>
        <time>2026-07-09T08:52:23Z</time>
      </trkpt>
      <trkpt lat="53.084882972761989" lon="-6.357309026643634">
        <ele>423.60000000000002</ele>
        <time>2026-07-09T08:52:24Z</time>
      </trkpt>
      <trkpt lat="53.084882972761989" lon="-6.357309026643634">
        <ele>424.07999999999998</ele>
        <time>2026-07-09T08:52:25Z</time>
      </trkpt>
      <trkpt lat="53.083857027813792" lon="-6.357371974736452">
        <ele>423.60000000000002</ele>
        <time>2026-07-09T08:52:31Z</time>
      </trkpt>
      <trkpt lat="53.083735993131995" lon="-6.357325036078692">
        <ele>423.60000000000002</ele>
        <time>2026-07-09T08:52:32Z</time>
      </trkpt>
      <trkpt lat="53.083597021177411" lon="-6.357271978631616">
        <ele>423.60000000000002</ele>
        <time>2026-07-09T08:52:33Z</time>
      </trkpt>
      <trkpt lat="53.083469029515982" lon="-6.357169970870018">
        <ele>423.60000000000002</ele>
        <time>2026-07-09T08:52:34Z</time>
      </trkpt>
      <trkpt lat="53.083342965692282" lon="-6.357061006128788">
        <ele>423.60000000000002</ele>
        <time>2026-07-09T08:52:35Z</time>
      </trkpt>
      <trkpt lat="53.083216985687613" lon="-6.356951035559177">
        <ele>424.07999999999998</ele>
        <time>2026-07-09T08:52:36Z</time>
      </trkpt>
      <trkpt lat="53.083093017339706" lon="-6.356842992827296">
        <ele>424.07999999999998</ele>
        <time>2026-07-09T08:52:37Z</time>
      </trkpt>
      <trkpt lat="53.082953961566091" lon="-6.356796976178885">
        <ele>424.56</ele>
        <time>2026-07-09T08:52:38Z</time>
      </trkpt>
      <trkpt lat="53.081572037190199" lon="-6.356304958462715">
        <ele>430.32999999999998</ele>
        <time>2026-07-09T08:52:48Z</time>
      </trkpt>
      <trkpt lat="53.081256961449981" lon="-6.356129022315145">
        <ele>431.76999999999998</ele>
        <time>2026-07-09T08:52:50Z</time>
      </trkpt>
      <trkpt lat="53.08005097322166" lon="-6.354757994413376">
        <ele>435.13</ele>
        <time>2026-07-09T08:52:59Z</time>
      </trkpt>
      <trkpt lat="53.079936979338527" lon="-6.354651963338256">
        <ele>435.13</ele>
        <time>2026-07-09T08:53:00Z</time>
      </trkpt>
      <trkpt lat="53.079816028475761" lon="-6.354579040780664">
        <ele>435.61000000000001</ele>
        <time>2026-07-09T08:53:01Z</time>
      </trkpt>
      <trkpt lat="53.079686025157571" lon="-6.354561019688845">
        <ele>436.10000000000002</ele>
        <time>2026-07-09T08:53:02Z</time>
      </trkpt>
      <trkpt lat="53.079554010182619" lon="-6.354544004425407">
        <ele>436.57999999999998</ele>
        <time>2026-07-09T08:53:03Z</time>
      </trkpt>
      <trkpt lat="53.07942702434957" lon="-6.3545529730618">
        <ele>436.57999999999998</ele>
        <time>2026-07-09T08:53:04Z</time>
      </trkpt>
      <trkpt lat="53.077920963987708" lon="-6.354714995250106">
        <ele>434.64999999999998</ele>
        <time>2026-07-09T08:53:14Z</time>
      </trkpt>
      <trkpt lat="53.077766988426447" lon="-6.354704014956951">
        <ele>434.17000000000002</ele>
        <time>2026-07-09T08:53:15Z</time>
      </trkpt>
      <trkpt lat="53.077618964016438" lon="-6.354693034663796">
        <ele>433.20999999999998</ele>
        <time>2026-07-09T08:53:16Z</time>
      </trkpt>
      <trkpt lat="53.077484015375376" lon="-6.354634026065469">
        <ele>432.25</ele>
        <time>2026-07-09T08:53:17Z</time>
      </trkpt>
      <trkpt lat="53.07734596543014" lon="-6.354542998597026">
        <ele>431.76999999999998</ele>
        <time>2026-07-09T08:53:18Z</time>
      </trkpt>
      <trkpt lat="53.077204981818795" lon="-6.354450965300202">
        <ele>430.81</ele>
        <time>2026-07-09T08:53:19Z</time>
      </trkpt>
      <trkpt lat="53.077062992379069" lon="-6.354357004165649">
        <ele>430.32999999999998</ele>
        <time>2026-07-09T08:53:20Z</time>
      </trkpt>
      <trkpt lat="53.076924020424485" lon="-6.354265976697207">
        <ele>429.85000000000002</ele>
        <time>2026-07-09T08:53:21Z</time>
      </trkpt>
      <trkpt lat="53.076471984386444" lon="-6.354102026671171">
        <ele>427.92000000000002</ele>
        <time>2026-07-09T08:53:24Z</time>
      </trkpt>
      <trkpt lat="53.076322032138705" lon="-6.354015022516251">
        <ele>426.95999999999998</ele>
        <time>2026-07-09T08:53:25Z</time>
      </trkpt>
      <trkpt lat="53.076175013557076" lon="-6.353917038068175">
        <ele>426.48000000000002</ele>
        <time>2026-07-09T08:53:26Z</time>
      </trkpt>
      <trkpt lat="53.076027994975448" lon="-6.353819975629449">
        <ele>426</ele>
        <time>2026-07-09T08:53:27Z</time>
      </trkpt>
      <trkpt lat="53.075877958908677" lon="-6.353730959817767">
        <ele>425.04000000000002</ele>
        <time>2026-07-09T08:53:28Z</time>
      </trkpt>
      <trkpt lat="53.075564978644252" lon="-6.353614032268524">
        <ele>423.60000000000002</ele>
        <time>2026-07-09T08:53:30Z</time>
      </trkpt>
      <trkpt lat="53.075402034446597" lon="-6.353552006185055">
        <ele>423.12</ele>
        <time>2026-07-09T08:53:31Z</time>
      </trkpt>
      <trkpt lat="53.075264990329742" lon="-6.353448992595077">
        <ele>422.16000000000003</ele>
        <time>2026-07-09T08:53:32Z</time>
      </trkpt>
      <trkpt lat="53.075116965919733" lon="-6.353339022025466">
        <ele>421.68000000000001</ele>
        <time>2026-07-09T08:53:33Z</time>
      </trkpt>
      <trkpt lat="53.074968019500375" lon="-6.353227961808443">
        <ele>420.70999999999998</ele>
        <time>2026-07-09T08:53:34Z</time>
      </trkpt>
      <trkpt lat="53.0737129971385" lon="-6.352512985467911">
        <ele>413.98000000000002</ele>
        <time>2026-07-09T08:53:42Z</time>
      </trkpt>
      <trkpt lat="53.07356396690011" lon="-6.352436039596796">
        <ele>413.5</ele>
        <time>2026-07-09T08:53:43Z</time>
      </trkpt>
      <trkpt lat="53.073146967217326" lon="-6.35225297883153">
        <ele>411.57999999999998</ele>
        <time>2026-07-09T08:53:46Z</time>
      </trkpt>
      <trkpt lat="53.073015036061406" lon="-6.352195981889963">
        <ele>410.62</ele>
        <time>2026-07-09T08:53:47Z</time>
      </trkpt>
      <trkpt lat="53.07289601303637" lon="-6.352092968299985">
        <ele>409.66000000000003</ele>
        <time>2026-07-09T08:53:48Z</time>
      </trkpt>
      <trkpt lat="53.072777995839715" lon="-6.351968999952078">
        <ele>408.69999999999999</ele>
        <time>2026-07-09T08:53:49Z</time>
      </trkpt>
      <trkpt lat="53.072652015835047" lon="-6.351835979148746">
        <ele>408.22000000000003</ele>
        <time>2026-07-09T08:53:50Z</time>
      </trkpt>
      <trkpt lat="53.071934022009373" lon="-6.350524965673685">
        <ele>402.93000000000001</ele>
        <time>2026-07-09T08:53:57Z</time>
      </trkpt>
      <trkpt lat="53.071202030405402" lon="-6.348999040201306">
        <ele>396.68000000000001</ele>
        <time>2026-07-09T08:54:05Z</time>
      </trkpt>
      <trkpt lat="53.070433996617794" lon="-6.347583001479507">
        <ele>390.91000000000003</ele>
        <time>2026-07-09T08:54:15Z</time>
      </trkpt>
      <trkpt lat="53.070195028558373" lon="-6.347043961286545">
        <ele>388.99000000000001</ele>
        <time>2026-07-09T08:54:18Z</time>
      </trkpt>
      <trkpt lat="53.070093020796776" lon="-6.346908006817102">
        <ele>388.50999999999999</ele>
        <time>2026-07-09T08:54:19Z</time>
      </trkpt>
      <trkpt lat="53.069901997223496" lon="-6.34666501544416">
        <ele>387.55000000000001</ele>
        <time>2026-07-09T08:54:21Z</time>
      </trkpt>
      <trkpt lat="53.069811975583434" lon="-6.346551021561027">
        <ele>387.06999999999999</ele>
        <time>2026-07-09T08:54:22Z</time>
      </trkpt>
      <trkpt lat="53.06971600279212" lon="-6.346427975222468">
        <ele>386.58999999999997</ele>
        <time>2026-07-09T08:54:23Z</time>
      </trkpt>
      <trkpt lat="53.069647019729018" lon="-6.346248015761375">
        <ele>386.11000000000001</ele>
        <time>2026-07-09T08:54:24Z</time>
      </trkpt>
      <trkpt lat="53.069572001695633" lon="-6.346052968874574">
        <ele>385.63</ele>
        <time>2026-07-09T08:54:25Z</time>
      </trkpt>
      <trkpt lat="53.069492960348725" lon="-6.345846019685268">
        <ele>385.14999999999998</ele>
        <time>2026-07-09T08:54:26Z</time>
      </trkpt>
      <trkpt lat="53.069417020305991" lon="-6.345647033303976">
        <ele>384.66000000000003</ele>
        <time>2026-07-09T08:54:27Z</time>
      </trkpt>
      <trkpt lat="53.069348037242889" lon="-6.345465984195471">
        <ele>384.18000000000001</ele>
        <time>2026-07-09T08:54:28Z</time>
      </trkpt>
      <trkpt lat="53.069254998117685" lon="-6.345121990889311">
        <ele>383.69999999999999</ele>
        <time>2026-07-09T08:54:30Z</time>
      </trkpt>
      <trkpt lat="53.06922297924757" lon="-6.34499098174274">
        <ele>383.22000000000003</ele>
        <time>2026-07-09T08:54:31Z</time>
      </trkpt>
      <trkpt lat="53.06915701366961" lon="-6.344875982031226">
        <ele>383.22000000000003</ele>
        <time>2026-07-09T08:54:32Z</time>
      </trkpt>
      <trkpt lat="53.069051988422871" lon="-6.344695016741753">
        <ele>382.25999999999999</ele>
        <time>2026-07-09T08:54:34Z</time>
      </trkpt>
      <trkpt lat="53.068930031731725" lon="-6.344483038410544">
        <ele>381.30000000000001</ele>
        <time>2026-07-09T08:54:37Z</time>
      </trkpt>
      <trkpt lat="53.068543961271644" lon="-6.343590030446649">
        <ele>380.33999999999997</ele>
        <time>2026-07-09T08:54:44Z</time>
      </trkpt>
      <trkpt lat="53.068123022094369" lon="-6.342816967517138">
        <ele>376.97000000000003</ele>
        <time>2026-07-09T08:54:49Z</time>
      </trkpt>
      <trkpt lat="53.06803802959621" lon="-6.342660980299115">
        <ele>376.49000000000001</ele>
        <time>2026-07-09T08:54:50Z</time>
      </trkpt>
      <trkpt lat="53.067461019381881" lon="-6.341196997091174">
        <ele>372.17000000000002</ele>
        <time>2026-07-09T08:54:59Z</time>
      </trkpt>
      <trkpt lat="53.067140998318791" lon="-6.340269958600402">
        <ele>369.27999999999997</ele>
        <time>2026-07-09T08:55:05Z</time>
      </trkpt>
      <trkpt lat="53.067062040790915" lon="-6.340119000524283">
        <ele>368.80000000000001</ele>
        <time>2026-07-09T08:55:06Z</time>
      </trkpt>
      <trkpt lat="53.066588966175914" lon="-6.339088026434183">
        <ele>363.51999999999998</ele>
        <time>2026-07-09T08:55:14Z</time>
      </trkpt>
      <trkpt lat="53.066525012254715" lon="-6.338947964832187">
        <ele>363.04000000000002</ele>
        <time>2026-07-09T08:55:15Z</time>
      </trkpt>
      <trkpt lat="53.066458040848374" lon="-6.338806981220841">
        <ele>362.55000000000001</ele>
        <time>2026-07-09T08:55:16Z</time>
      </trkpt>
      <trkpt lat="53.066388973966241" lon="-6.338662980124354">
        <ele>362.06999999999999</ele>
        <time>2026-07-09T08:55:17Z</time>
      </trkpt>
      <trkpt lat="53.066306998953223" lon="-6.338534988462925">
        <ele>360.63</ele>
        <time>2026-07-09T08:55:18Z</time>
      </trkpt>
      <trkpt lat="53.066218988969922" lon="-6.338445972651243">
        <ele>359.67000000000002</ele>
        <time>2026-07-09T08:55:19Z</time>
      </trkpt>
      <trkpt lat="53.065950013697147" lon="-6.338190995156765">
        <ele>357.75</ele>
        <time>2026-07-09T08:55:22Z</time>
      </trkpt>
      <trkpt lat="53.065350959077477" lon="-6.337747005745769">
        <ele>354.86000000000001</ele>
        <time>2026-07-09T08:55:29Z</time>
      </trkpt>
      <trkpt lat="53.06524601764977" lon="-6.337667964398861">
        <ele>354.38</ele>
        <time>2026-07-09T08:55:33Z</time>
      </trkpt>
      <trkpt lat="53.06522699072957" lon="-6.337653966620565">
        <ele>354.38</ele>
        <time>2026-07-09T08:55:34Z</time>
      </trkpt>
      <trkpt lat="53.065207041800022" lon="-6.337638963013887">
        <ele>354.38</ele>
        <time>2026-07-09T08:55:35Z</time>
      </trkpt>
      <trkpt lat="53.065192960202694" lon="-6.337628988549113">
        <ele>355.33999999999997</ele>
        <time>2026-07-09T08:55:51Z</time>
      </trkpt>
      <trkpt lat="53.065166976302862" lon="-6.337609039619565">
        <ele>355.82999999999998</ele>
        <time>2026-07-09T08:56:22Z</time>
      </trkpt>
      <trkpt lat="53.065149961039424" lon="-6.337564028799534">
        <ele>355.82999999999998</ele>
        <time>2026-07-09T08:56:23Z</time>
      </trkpt>
      <trkpt lat="53.065112996846437" lon="-6.337464032694697">
        <ele>355.33999999999997</ele>
        <time>2026-07-09T08:56:24Z</time>
      </trkpt>
      <trkpt lat="53.065067986026406" lon="-6.337340986356139">
        <ele>354.86000000000001</ele>
        <time>2026-07-09T08:56:25Z</time>
      </trkpt>
      <trkpt lat="53.065016018226743" lon="-6.337202014401555">
        <ele>354.38</ele>
        <time>2026-07-09T08:56:26Z</time>
      </trkpt>
      <trkpt lat="53.064952986314893" lon="-6.337030017748475">
        <ele>353.89999999999998</ele>
        <time>2026-07-09T08:56:27Z</time>
      </trkpt>
      <trkpt lat="53.06494502350688" lon="-6.336853997781873">
        <ele>352.94</ele>
        <time>2026-07-09T08:56:28Z</time>
      </trkpt>
      <trkpt lat="53.064936976879835" lon="-6.336664985865355">
        <ele>352.94</ele>
        <time>2026-07-09T08:56:29Z</time>
      </trkpt>
      <trkpt lat="53.064931025728583" lon="-6.336248992010951">
        <ele>351.5</ele>
        <time>2026-07-09T08:56:31Z</time>
      </trkpt>
      <trkpt lat="53.064931025728583" lon="-6.336025027558208">
        <ele>351.01999999999998</ele>
        <time>2026-07-09T08:56:32Z</time>
      </trkpt>
      <trkpt lat="53.064931025728583" lon="-6.335378028452396">
        <ele>349.10000000000002</ele>
        <time>2026-07-09T08:56:35Z</time>
      </trkpt>
      <trkpt lat="53.064874028787017" lon="-6.335132019594312">
        <ele>348.13</ele>
        <time>2026-07-09T08:56:36Z</time>
      </trkpt>
      <trkpt lat="53.064821977168322" lon="-6.334910988807678">
        <ele>346.69</ele>
        <time>2026-07-09T08:56:37Z</time>
      </trkpt>
      <trkpt lat="53.064762968569994" lon="-6.334698004648089">
        <ele>345.73000000000002</ele>
        <time>2026-07-09T08:56:38Z</time>
      </trkpt>
      <trkpt lat="53.064662972465158" lon="-6.334504969418049">
        <ele>344.76999999999998</ele>
        <time>2026-07-09T08:56:39Z</time>
      </trkpt>
      <trkpt lat="53.06434697471559" lon="-6.333912033587694">
        <ele>341.41000000000003</ele>
        <time>2026-07-09T08:56:42Z</time>
      </trkpt>
      <trkpt lat="53.064231975004077" lon="-6.333739031106234">
        <ele>340.44</ele>
        <time>2026-07-09T08:56:43Z</time>
      </trkpt>
      <trkpt lat="53.063051970675588" lon="-6.332737980410457">
        <ele>329.38999999999999</ele>
        <time>2026-07-09T08:56:51Z</time>
      </trkpt>
      <trkpt lat="53.062916016206145" lon="-6.332643013447523">
        <ele>327.94999999999999</ele>
        <time>2026-07-09T08:56:52Z</time>
      </trkpt>
      <trkpt lat="53.062785007059574" lon="-6.332562966272235">
        <ele>326.5</ele>
        <time>2026-07-09T08:56:53Z</time>
      </trkpt>
      <trkpt lat="53.062295001000166" lon="-6.332475962117314">
        <ele>322.18000000000001</ele>
        <time>2026-07-09T08:56:58Z</time>
      </trkpt>
      <trkpt lat="53.061656970530748" lon="-6.332361968234181">
        <ele>316.41000000000003</ele>
        <time>2026-07-09T08:57:06Z</time>
      </trkpt>
      <trkpt lat="53.060381999239326" lon="-6.332023004069924">
        <ele>305.83999999999997</ele>
        <time>2026-07-09T08:57:17Z</time>
      </trkpt>
      <trkpt lat="53.058601012453437" lon="-6.331653026863933">
        <ele>290.94</ele>
        <time>2026-07-09T08:57:30Z</time>
      </trkpt>
      <trkpt lat="53.057234007865191" lon="-6.331275003030896">
        <ele>277</ele>
        <time>2026-07-09T08:57:40Z</time>
      </trkpt>
      <trkpt lat="53.056172020733356" lon="-6.331024970859289">
        <ele>268.82999999999998</ele>
        <time>2026-07-09T08:57:48Z</time>
      </trkpt>
      <trkpt lat="53.056050986051559" lon="-6.331034023314714">
        <ele>267.86000000000001</ele>
        <time>2026-07-09T08:57:49Z</time>
      </trkpt>
      <trkpt lat="53.05594302713871" lon="-6.331040980294347">
        <ele>266.42000000000002</ele>
        <time>2026-07-09T08:57:50Z</time>
      </trkpt>
      <trkpt lat="53.055826015770435" lon="-6.331050032749772">
        <ele>264.98000000000002</ele>
        <time>2026-07-09T08:57:51Z</time>
      </trkpt>
      <trkpt lat="53.05570799857378" lon="-6.331057995557785">
        <ele>263.54000000000002</ele>
        <time>2026-07-09T08:57:52Z</time>
      </trkpt>
      <trkpt lat="53.055592998862267" lon="-6.331059001386166">
        <ele>262.10000000000002</ele>
        <time>2026-07-09T08:57:53Z</time>
      </trkpt>
      <trkpt lat="53.055477999150753" lon="-6.331030000001192">
        <ele>261.13999999999999</ele>
        <time>2026-07-09T08:57:54Z</time>
      </trkpt>
      <trkpt lat="53.054443001747131" lon="-6.330791031941772">
        <ele>254.41</ele>
        <time>2026-07-09T08:58:02Z</time>
      </trkpt>
      <trkpt lat="53.05433202534914" lon="-6.330786002799869">
        <ele>253.93000000000001</ele>
        <time>2026-07-09T08:58:03Z</time>
      </trkpt>
      <trkpt lat="53.054230017587543" lon="-6.330735962837935">
        <ele>253.44</ele>
        <time>2026-07-09T08:58:04Z</time>
      </trkpt>
      <trkpt lat="53.05390496738255" lon="-6.330545023083687">
        <ele>252</ele>
        <time>2026-07-09T08:58:07Z</time>
      </trkpt>
      <trkpt lat="53.053399035707116" lon="-6.33033899590373">
        <ele>251.03999999999999</ele>
        <time>2026-07-09T08:58:11Z</time>
      </trkpt>
      <trkpt lat="53.05329903960228" lon="-6.330305971205235">
        <ele>250.56</ele>
        <time>2026-07-09T08:58:12Z</time>
      </trkpt>
      <trkpt lat="53.053209017962217" lon="-6.330314017832279">
        <ele>250.56</ele>
        <time>2026-07-09T08:58:13Z</time>
      </trkpt>
      <trkpt lat="53.05313098244369" lon="-6.330348970368505">
        <ele>250.08000000000001</ele>
        <time>2026-07-09T08:58:14Z</time>
      </trkpt>
      <trkpt lat="53.053053030744195" lon="-6.330394987016916">
        <ele>250.08000000000001</ele>
        <time>2026-07-09T08:58:15Z</time>
      </trkpt>
      <trkpt lat="53.052912969142199" lon="-6.330575030297041">
        <ele>250.56</ele>
        <time>2026-07-09T08:58:17Z</time>
      </trkpt>
      <trkpt lat="53.052758993580937" lon="-6.330747026950121">
        <ele>250.56</ele>
        <time>2026-07-09T08:58:19Z</time>
      </trkpt>
      <trkpt lat="53.052666960284114" lon="-6.330763958394527">
        <ele>250.56</ele>
        <time>2026-07-09T08:58:20Z</time>
      </trkpt>
      <trkpt lat="53.052578028291464" lon="-6.330763958394527">
        <ele>250.08000000000001</ele>
        <time>2026-07-09T08:58:21Z</time>
      </trkpt>
      <trkpt lat="53.052480965852737" lon="-6.330763958394527">
        <ele>250.08000000000001</ele>
        <time>2026-07-09T08:58:22Z</time>
      </trkpt>
      <trkpt lat="53.05237895809114" lon="-6.330728000029922">
        <ele>249.59999999999999</ele>
        <time>2026-07-09T08:58:23Z</time>
      </trkpt>
      <trkpt lat="53.0516919773072" lon="-6.330334972590208">
        <ele>248.16</ele>
        <time>2026-07-09T08:58:30Z</time>
      </trkpt>
      <trkpt lat="53.051255028694868" lon="-6.330228019505739">
        <ele>246.22999999999999</ele>
        <time>2026-07-09T08:58:34Z</time>
      </trkpt>
      <trkpt lat="53.050289014354348" lon="-6.329954015091062">
        <ele>241.43000000000001</ele>
        <time>2026-07-09T08:58:43Z</time>
      </trkpt>
      <trkpt lat="53.050187006592751" lon="-6.329896012321115">
        <ele>240.47</ele>
        <time>2026-07-09T08:58:44Z</time>
      </trkpt>
      <trkpt lat="53.049878971651196" lon="-6.329722004011273">
        <ele>238.53999999999999</ele>
        <time>2026-07-09T08:58:47Z</time>
      </trkpt>
      <trkpt lat="53.04870399646461" lon="-6.328916000202298">
        <ele>237.58000000000001</ele>
        <time>2026-07-09T08:58:59Z</time>
      </trkpt>
      <trkpt lat="53.048353968188167" lon="-6.328658005222678">
        <ele>238.06</ele>
        <time>2026-07-09T08:59:02Z</time>
      </trkpt>
      <trkpt lat="53.048082981258631" lon="-6.328536970540881">
        <ele>237.58000000000001</ele>
        <time>2026-07-09T08:59:04Z</time>
      </trkpt>
      <trkpt lat="53.047321988269687" lon="-6.328430017456412">
        <ele>236.62</ele>
        <time>2026-07-09T08:59:09Z</time>
      </trkpt>
      <trkpt lat="53.047168012708426" lon="-6.328377965837717">
        <ele>236.62</ele>
        <time>2026-07-09T08:59:10Z</time>
      </trkpt>
      <trkpt lat="53.046306017786264" lon="-6.32788896560669">
        <ele>235.18000000000001</ele>
        <time>2026-07-09T08:59:16Z</time>
      </trkpt>
      <trkpt lat="53.046065038070083" lon="-6.327678998932242">
        <ele>234.22</ele>
        <time>2026-07-09T08:59:18Z</time>
      </trkpt>
      <trkpt lat="53.045940985903144" lon="-6.327570034191012">
        <ele>234.22</ele>
        <time>2026-07-09T08:59:19Z</time>
      </trkpt>
      <trkpt lat="53.045791033655405" lon="-6.327438019216061">
        <ele>233.74000000000001</ele>
        <time>2026-07-09T08:59:20Z</time>
      </trkpt>
      <trkpt lat="53.045413009822369" lon="-6.327268034219742">
        <ele>233.74000000000001</ele>
        <time>2026-07-09T08:59:23Z</time>
      </trkpt>
      <trkpt lat="53.045282000675797" lon="-6.327209025621414">
        <ele>233.25999999999999</ele>
        <time>2026-07-09T08:59:24Z</time>
      </trkpt>
      <trkpt lat="53.045126013457775" lon="-6.327138030901551">
        <ele>233.25999999999999</ele>
        <time>2026-07-09T08:59:25Z</time>
      </trkpt>
      <trkpt lat="53.044629972428083" lon="-6.326661016792059">
        <ele>233.74000000000001</ele>
        <time>2026-07-09T08:59:29Z</time>
      </trkpt>
      <trkpt lat="53.044504998251796" lon="-6.326565966010094">
        <ele>233.74000000000001</ele>
        <time>2026-07-09T08:59:30Z</time>
      </trkpt>
      <trkpt lat="53.044376000761986" lon="-6.326521961018443">
        <ele>233.74000000000001</ele>
        <time>2026-07-09T08:59:31Z</time>
      </trkpt>
      <trkpt lat="53.043209994211793" lon="-6.326138991862536">
        <ele>233.74000000000001</ele>
        <time>2026-07-09T08:59:39Z</time>
      </trkpt>
      <trkpt lat="53.042929032817483" lon="-6.326101021841168">
        <ele>233.25999999999999</ele>
        <time>2026-07-09T08:59:41Z</time>
      </trkpt>
      <trkpt lat="53.042029989883304" lon="-6.325979987159371">
        <ele>231.33000000000001</ele>
        <time>2026-07-09T08:59:47Z</time>
      </trkpt>
      <trkpt lat="53.0418920237571" lon="-6.325961966067553">
        <ele>231.33000000000001</ele>
        <time>2026-07-09T08:59:48Z</time>
      </trkpt>
      <trkpt lat="53.041760008782148" lon="-6.325901029631496">
        <ele>231.33000000000001</ele>
        <time>2026-07-09T08:59:49Z</time>
      </trkpt>
      <trkpt lat="53.041625982150435" lon="-6.325828023254871">
        <ele>231.33000000000001</ele>
        <time>2026-07-09T08:59:50Z</time>
      </trkpt>
      <trkpt lat="53.041490027680993" lon="-6.325754011049867">
        <ele>231.33000000000001</ele>
        <time>2026-07-09T08:59:51Z</time>
      </trkpt>
      <trkpt lat="53.040779996663332" lon="-6.325538009405136">
        <ele>231.33000000000001</ele>
        <time>2026-07-09T08:59:56Z</time>
      </trkpt>
      <trkpt lat="53.040379006415606" lon="-6.325431978330016">
        <ele>230.37</ele>
        <time>2026-07-09T08:59:59Z</time>
      </trkpt>
      <trkpt lat="53.040266018360853" lon="-6.325354026630521">
        <ele>230.37</ele>
        <time>2026-07-09T09:00:00Z</time>
      </trkpt>
      <trkpt lat="53.040164010599256" lon="-6.325261993333697">
        <ele>230.37</ele>
        <time>2026-07-09T09:00:01Z</time>
      </trkpt>
      <trkpt lat="53.039608960971236" lon="-6.324715996161103">
        <ele>230.84999999999999</ele>
        <time>2026-07-09T09:00:06Z</time>
      </trkpt>
      <trkpt lat="53.03948700428009" lon="-6.324605019763112">
        <ele>230.84999999999999</ele>
        <time>2026-07-09T09:00:07Z</time>
      </trkpt>
      <trkpt lat="53.038192000240088" lon="-6.323555018752813">
        <ele>224.61000000000001</ele>
        <time>2026-07-09T09:00:18Z</time>
      </trkpt>
      <trkpt lat="53.037507031112909" lon="-6.322867032140493">
        <ele>221.72</ele>
        <time>2026-07-09T09:00:24Z</time>
      </trkpt>
      <trkpt lat="53.036088980734348" lon="-6.32137899287045">
        <ele>216.43000000000001</ele>
        <time>2026-07-09T09:00:36Z</time>
      </trkpt>
      <trkpt lat="53.03581296466291" lon="-6.320852022618055">
        <ele>214.99000000000001</ele>
        <time>2026-07-09T09:00:39Z</time>
      </trkpt>
      <trkpt lat="53.035552036017179" lon="-6.320249028503895">
        <ele>213.06999999999999</ele>
        <time>2026-07-09T09:00:42Z</time>
      </trkpt>
      <trkpt lat="53.03546997718513" lon="-6.320056999102235">
        <ele>212.59</ele>
        <time>2026-07-09T09:00:43Z</time>
      </trkpt>
      <trkpt lat="53.035052977502346" lon="-6.319437995553017">
        <ele>212.11000000000001</ele>
        <time>2026-07-09T09:00:47Z</time>
      </trkpt>
      <trkpt lat="53.033947991207242" lon="-6.317390967160463">
        <ele>211.63</ele>
        <time>2026-07-09T09:00:58Z</time>
      </trkpt>
      <trkpt lat="53.033752022311091" lon="-6.317011015489698">
        <ele>211.15000000000001</ele>
        <time>2026-07-09T09:01:00Z</time>
      </trkpt>
      <trkpt lat="53.033613972365856" lon="-6.316614970564842">
        <ele>210.66999999999999</ele>
        <time>2026-07-09T09:01:02Z</time>
      </trkpt>
      <trkpt lat="53.033542977645993" lon="-6.316412966698408">
        <ele>210.66999999999999</ele>
        <time>2026-07-09T09:01:03Z</time>
      </trkpt>
      <trkpt lat="53.033027993515134" lon="-6.315227011218667">
        <ele>209.69999999999999</ele>
        <time>2026-07-09T09:01:09Z</time>
      </trkpt>
      <trkpt lat="53.032715013250709" lon="-6.314145997166634">
        <ele>208.25999999999999</ele>
        <time>2026-07-09T09:01:14Z</time>
      </trkpt>
      <trkpt lat="53.032656004652381" lon="-6.313935024663806">
        <ele>207.78</ele>
        <time>2026-07-09T09:01:15Z</time>
      </trkpt>
      <trkpt lat="53.032572017982602" lon="-6.313739977777004">
        <ele>207.78</ele>
        <time>2026-07-09T09:01:16Z</time>
      </trkpt>
      <trkpt lat="53.032477973029017" lon="-6.313564041629434">
        <ele>207.78</ele>
        <time>2026-07-09T09:01:17Z</time>
      </trkpt>
      <trkpt lat="53.032370014116168" lon="-6.31340503692627">
        <ele>207.78</ele>
        <time>2026-07-09T09:01:18Z</time>
      </trkpt>
      <trkpt lat="53.032262977212667" lon="-6.313246032223105">
        <ele>208.25999999999999</ele>
        <time>2026-07-09T09:01:19Z</time>
      </trkpt>
      <trkpt lat="53.032155018299818" lon="-6.313087027519941">
        <ele>208.25999999999999</ele>
        <time>2026-07-09T09:01:20Z</time>
      </trkpt>
      <trkpt lat="53.031582031399012" lon="-6.312345983460546">
        <ele>208.25999999999999</ele>
        <time>2026-07-09T09:01:25Z</time>
      </trkpt>
      <trkpt lat="53.031464014202356" lon="-6.312198964878917">
        <ele>208.25999999999999</ele>
        <time>2026-07-09T09:01:26Z</time>
      </trkpt>
      <trkpt lat="53.031232003122568" lon="-6.311910962685943">
        <ele>207.78</ele>
        <time>2026-07-09T09:01:28Z</time>
      </trkpt>
      <trkpt lat="53.030262971296906" lon="-6.31052803248167">
        <ele>207.30000000000001</ele>
        <time>2026-07-09T09:01:37Z</time>
      </trkpt>
      <trkpt lat="53.029360994696617" lon="-6.308984002098441">
        <ele>206.81999999999999</ele>
        <time>2026-07-09T09:01:46Z</time>
      </trkpt>
      <trkpt lat="53.029011972248554" lon="-6.308284029364586">
        <ele>207.30000000000001</ele>
        <time>2026-07-09T09:01:50Z</time>
      </trkpt>
      <trkpt lat="53.028927985578775" lon="-6.308127958327532">
        <ele>207.30000000000001</ele>
        <time>2026-07-09T09:01:51Z</time>
      </trkpt>
      <trkpt lat="53.028825977817178" lon="-6.30801497027278">
        <ele>207.78</ele>
        <time>2026-07-09T09:01:52Z</time>
      </trkpt>
      <trkpt lat="53.028732016682625" lon="-6.307912040501833">
        <ele>207.78</ele>
        <time>2026-07-09T09:01:53Z</time>
      </trkpt>
      <trkpt lat="53.028600001707673" lon="-6.307855965569615">
        <ele>207.78</ele>
        <time>2026-07-09T09:01:54Z</time>
      </trkpt>
      <trkpt lat="53.028483996167779" lon="-6.307806009426713">
        <ele>208.74000000000001</ele>
        <time>2026-07-09T09:01:55Z</time>
      </trkpt>
      <trkpt lat="53.028374025598168" lon="-6.307758986949921">
        <ele>209.22</ele>
        <time>2026-07-09T09:01:56Z</time>
      </trkpt>
      <trkpt lat="53.027902040630579" lon="-6.307608028873801">
        <ele>211.15000000000001</ele>
        <time>2026-07-09T09:02:00Z</time>
      </trkpt>
      <trkpt lat="53.027787040919065" lon="-6.307575004175305">
        <ele>211.15000000000001</ele>
        <time>2026-07-09T09:02:01Z</time>
      </trkpt>
      <trkpt lat="53.027687966823578" lon="-6.307592019438744">
        <ele>212.11000000000001</ele>
        <time>2026-07-09T09:02:02Z</time>
      </trkpt>
      <trkpt lat="53.02758201956749" lon="-6.307623032480478">
        <ele>212.59</ele>
        <time>2026-07-09T09:02:03Z</time>
      </trkpt>
      <trkpt lat="53.02678800188005" lon="-6.307846996933222">
        <ele>217.40000000000001</ele>
        <time>2026-07-09T09:02:10Z</time>
      </trkpt>
      <trkpt lat="53.025707993656397" lon="-6.307828975841403">
        <ele>217.40000000000001</ele>
        <time>2026-07-09T09:02:19Z</time>
      </trkpt>
      <trkpt lat="53.025471959263086" lon="-6.307874992489815">
        <ele>216.91</ele>
        <time>2026-07-09T09:02:21Z</time>
      </trkpt>
      <trkpt lat="53.025249000638723" lon="-6.307990998029709">
        <ele>217.40000000000001</ele>
        <time>2026-07-09T09:02:23Z</time>
      </trkpt>
      <trkpt lat="53.024929985404015" lon="-6.308225020766258">
        <ele>218.36000000000001</ele>
        <time>2026-07-09T09:02:26Z</time>
      </trkpt>
      <trkpt lat="53.024825965985656" lon="-6.308300038799644">
        <ele>218.84</ele>
        <time>2026-07-09T09:02:27Z</time>
      </trkpt>
      <trkpt lat="53.024714989587665" lon="-6.308362986892462">
        <ele>218.84</ele>
        <time>2026-07-09T09:02:28Z</time>
      </trkpt>
      <trkpt lat="53.02421098574996" lon="-6.308362986892462">
        <ele>217.40000000000001</ele>
        <time>2026-07-09T09:02:32Z</time>
      </trkpt>
      <trkpt lat="53.024078970775008" lon="-6.308362986892462">
        <ele>215.94999999999999</ele>
        <time>2026-07-09T09:02:33Z</time>
      </trkpt>
      <trkpt lat="53.023945027962327" lon="-6.308354018256068">
        <ele>214.99000000000001</ele>
        <time>2026-07-09T09:02:34Z</time>
      </trkpt>
      <trkpt lat="53.023814018815756" lon="-6.308306995779276">
        <ele>214.03</ele>
        <time>2026-07-09T09:02:35Z</time>
      </trkpt>
      <trkpt lat="53.023675968870521" lon="-6.308257961645722">
        <ele>213.55000000000001</ele>
        <time>2026-07-09T09:02:36Z</time>
      </trkpt>
      <trkpt lat="53.023400958627462" lon="-6.308148996904492">
        <ele>212.11000000000001</ele>
        <time>2026-07-09T09:02:38Z</time>
      </trkpt>
      <trkpt lat="53.023280007764697" lon="-6.308065010234714">
        <ele>212.11000000000001</ele>
        <time>2026-07-09T09:02:39Z</time>
      </trkpt>
      <trkpt lat="53.023166013881564" lon="-6.307986974716187">
        <ele>211.15000000000001</ele>
        <time>2026-07-09T09:02:40Z</time>
      </trkpt>
      <trkpt lat="53.023049002513289" lon="-6.307871975004673">
        <ele>210.66999999999999</ele>
        <time>2026-07-09T09:02:41Z</time>
      </trkpt>
      <trkpt lat="53.022956969216466" lon="-6.307730991393328">
        <ele>210.19</ele>
        <time>2026-07-09T09:02:42Z</time>
      </trkpt>
      <trkpt lat="53.022862002253532" lon="-6.307583972811699">
        <ele>209.22</ele>
        <time>2026-07-09T09:02:43Z</time>
      </trkpt>
      <trkpt lat="53.022763011977077" lon="-6.307429997250438">
        <ele>208.25999999999999</ele>
        <time>2026-07-09T09:02:44Z</time>
      </trkpt>
      <trkpt lat="53.022661004215479" lon="-6.307273004204035">
        <ele>207.30000000000001</ele>
        <time>2026-07-09T09:02:45Z</time>
      </trkpt>
      <trkpt lat="53.022561008110642" lon="-6.307117016986013">
        <ele>206.34</ele>
        <time>2026-07-09T09:02:46Z</time>
      </trkpt>
      <trkpt lat="53.022250039502978" lon="-6.306708985939622">
        <ele>204.90000000000001</ele>
        <time>2026-07-09T09:02:49Z</time>
      </trkpt>
      <trkpt lat="53.022136967629194" lon="-6.306594992056489">
        <ele>204.41999999999999</ele>
        <time>2026-07-09T09:02:50Z</time>
      </trkpt>
      <trkpt lat="53.021191991865635" lon="-6.305755963549018">
        <ele>203.46000000000001</ele>
        <time>2026-07-09T09:02:58Z</time>
      </trkpt>
      <trkpt lat="53.021090989932418" lon="-6.305621014907956">
        <ele>202.97999999999999</ele>
        <time>2026-07-09T09:02:59Z</time>
      </trkpt>
      <trkpt lat="53.02098797634244" lon="-6.305482964962721">
        <ele>202.00999999999999</ele>
        <time>2026-07-09T09:03:00Z</time>
      </trkpt>
      <trkpt lat="53.020676001906395" lon="-6.305066971108317">
        <ele>201.53</ele>
        <time>2026-07-09T09:03:03Z</time>
      </trkpt>
      <trkpt lat="53.020568965002894" lon="-6.304924981668592">
        <ele>201.05000000000001</ele>
        <time>2026-07-09T09:03:04Z</time>
      </trkpt>
      <trkpt lat="53.020460000261664" lon="-6.304779974743724">
        <ele>200.09</ele>
        <time>2026-07-09T09:03:05Z</time>
      </trkpt>
      <trkpt lat="53.020333014428616" lon="-6.304666986688972">
        <ele>199.61000000000001</ele>
        <time>2026-07-09T09:03:06Z</time>
      </trkpt>
      <trkpt lat="53.020205022767186" lon="-6.304573025554419">
        <ele>199.13</ele>
        <time>2026-07-09T09:03:07Z</time>
      </trkpt>
      <trkpt lat="53.020073007792234" lon="-6.304475963115692">
        <ele>199.13</ele>
        <time>2026-07-09T09:03:08Z</time>
      </trkpt>
      <trkpt lat="53.01907598040998" lon="-6.303469967097044">
        <ele>198.65000000000001</ele>
        <time>2026-07-09T09:03:16Z</time>
      </trkpt>
      <trkpt lat="53.018928039819002" lon="-6.303347004577518">
        <ele>198.65000000000001</ele>
        <time>2026-07-09T09:03:17Z</time>
      </trkpt>
      <trkpt lat="53.018789989873767" lon="-6.303232004866004">
        <ele>198.65000000000001</ele>
        <time>2026-07-09T09:03:18Z</time>
      </trkpt>
      <trkpt lat="53.01819403655827" lon="-6.302851969376206">
        <ele>198.16999999999999</ele>
        <time>2026-07-09T09:03:22Z</time>
      </trkpt>
      <trkpt lat="53.017557011917233" lon="-6.302640996873379">
        <ele>197.21000000000001</ele>
        <time>2026-07-09T09:03:26Z</time>
      </trkpt>
      <trkpt lat="53.017121991142631" lon="-6.302413009107113">
        <ele>196.25</ele>
        <time>2026-07-09T09:03:29Z</time>
      </trkpt>
      <trkpt lat="53.016995005309582" lon="-6.302311001345515">
        <ele>195.28</ele>
        <time>2026-07-09T09:03:30Z</time>
      </trkpt>
      <trkpt lat="53.016877993941307" lon="-6.302168006077409">
        <ele>194.80000000000001</ele>
        <time>2026-07-09T09:03:31Z</time>
      </trkpt>
      <trkpt lat="53.016761988401413" lon="-6.302022999152541">
        <ele>194.31999999999999</ele>
        <time>2026-07-09T09:03:32Z</time>
      </trkpt>
      <trkpt lat="53.01664799451828" lon="-6.301872963085771">
        <ele>193.84</ele>
        <time>2026-07-09T09:03:33Z</time>
      </trkpt>
      <trkpt lat="53.01641296595335" lon="-6.301564006134868">
        <ele>192.88</ele>
        <time>2026-07-09T09:03:35Z</time>
      </trkpt>
      <trkpt lat="53.016183972358704" lon="-6.301252031698823">
        <ele>191.91999999999999</ele>
        <time>2026-07-09T09:03:37Z</time>
      </trkpt>
      <trkpt lat="53.01606897264719" lon="-6.30109403282404">
        <ele>191.44</ele>
        <time>2026-07-09T09:03:38Z</time>
      </trkpt>
      <trkpt lat="53.015076974406838" lon="-6.299830041825771">
        <ele>186.15000000000001</ele>
        <time>2026-07-09T09:03:46Z</time>
      </trkpt>
      <trkpt lat="53.013837961480021" lon="-6.298510981723666">
        <ele>180.87</ele>
        <time>2026-07-09T09:03:55Z</time>
      </trkpt>
      <trkpt lat="53.012675978243351" lon="-6.297081029042602">
        <ele>174.62</ele>
        <time>2026-07-09T09:04:04Z</time>
      </trkpt>
      <trkpt lat="53.012556033208966" lon="-6.296926969662309">
        <ele>174.13999999999999</ele>
        <time>2026-07-09T09:04:05Z</time>
      </trkpt>
      <trkpt lat="53.012428963556886" lon="-6.296804007142782">
        <ele>173.66</ele>
        <time>2026-07-09T09:04:06Z</time>
      </trkpt>
      <trkpt lat="53.010889040306211" lon="-6.295807985588908">
        <ele>164.52000000000001</ele>
        <time>2026-07-09T09:04:17Z</time>
      </trkpt>
      <trkpt lat="53.010532977059484" lon="-6.295612016692758">
        <ele>161.16</ele>
        <time>2026-07-09T09:04:20Z</time>
      </trkpt>
      <trkpt lat="53.010400962084532" lon="-6.295593995600939">
        <ele>160.19999999999999</ele>
        <time>2026-07-09T09:04:21Z</time>
      </trkpt>
      <trkpt lat="53.009373005479574" lon="-6.295577986165881">
        <ele>150.09999999999999</ele>
        <time>2026-07-09T09:04:30Z</time>
      </trkpt>
      <trkpt lat="53.009221963584423" lon="-6.295574968680739">
        <ele>145.30000000000001</ele>
        <time>2026-07-09T09:04:35Z</time>
      </trkpt>
      <trkpt lat="53.009189022704959" lon="-6.295574968680739">
        <ele>143.84999999999999</ele>
        <time>2026-07-09T09:04:37Z</time>
      </trkpt>
      <trkpt lat="53.009155998006463" lon="-6.295574968680739">
        <ele>142.88999999999999</ele>
        <time>2026-07-09T09:04:38Z</time>
      </trkpt>
      <trkpt lat="53.009058013558388" lon="-6.295487964525819">
        <ele>140.00999999999999</ele>
        <time>2026-07-09T09:04:48Z</time>
      </trkpt>
      <trkpt lat="53.009058013558388" lon="-6.295487964525819">
        <ele>140.00999999999999</ele>
        <time>2026-07-09T09:05:13Z</time>
      </trkpt>
      <trkpt lat="53.009058013558388" lon="-6.295487964525819">
        <ele>140.49000000000001</ele>
        <time>2026-07-09T09:05:26Z</time>
      </trkpt>
      <trkpt lat="53.009058013558388" lon="-6.295487964525819">
        <ele>140.49000000000001</ele>
        <time>2026-07-09T09:05:50Z</time>
      </trkpt>
      <trkpt lat="53.009058013558388" lon="-6.295487964525819">
        <ele>141.44999999999999</ele>
        <time>2026-07-09T09:06:42Z</time>
      </trkpt>
      <trkpt lat="53.008992969989777" lon="-6.295271040871739">
        <ele>161.16</ele>
        <time>2026-07-09T09:42:44Z</time>
      </trkpt>
      <trkpt lat="53.009002022445202" lon="-6.295440020039678">
        <ele>151.53999999999999</ele>
        <time>2026-07-09T09:43:18Z</time>
      </trkpt>
      <trkpt lat="53.008982995525002" lon="-6.295452006161213">
        <ele>152.50999999999999</ele>
        <time>2026-07-09T09:43:57Z</time>
      </trkpt>
      <trkpt lat="53.008986013010144" lon="-6.295386040583253">
        <ele>152.03</ele>
        <time>2026-07-09T09:44:00Z</time>
      </trkpt>
      <trkpt lat="53.008965980261564" lon="-6.295358967036009">
        <ele>152.03</ele>
        <time>2026-07-09T09:44:01Z</time>
      </trkpt>
      <trkpt lat="53.008942008018494" lon="-6.295325020328164">
        <ele>152.03</ele>
        <time>2026-07-09T09:44:02Z</time>
      </trkpt>
      <trkpt lat="53.008918035775423" lon="-6.295291995629668">
        <ele>152.03</ele>
        <time>2026-07-09T09:44:03Z</time>
      </trkpt>
      <trkpt lat="53.008759031072259" lon="-6.295189987868071">
        <ele>151.53999999999999</ele>
        <time>2026-07-09T09:44:11Z</time>
      </trkpt>
      <trkpt lat="53.008727012202144" lon="-6.295113964006305">
        <ele>151.53999999999999</ele>
        <time>2026-07-09T09:44:21Z</time>
      </trkpt>
      <trkpt lat="53.008692981675267" lon="-6.295034000650048">
        <ele>151.53999999999999</ele>
        <time>2026-07-09T09:44:22Z</time>
      </trkpt>
      <trkpt lat="53.008520985022187" lon="-6.29462999291718">
        <ele>152.50999999999999</ele>
        <time>2026-07-09T09:44:26Z</time>
      </trkpt>
      <trkpt lat="53.008473040536046" lon="-6.294517004862428">
        <ele>152.99000000000001</ele>
        <time>2026-07-09T09:44:28Z</time>
      </trkpt>
      <trkpt lat="53.00846298225224" lon="-6.294493032619357">
        <ele>152.99000000000001</ele>
        <time>2026-07-09T09:44:29Z</time>
      </trkpt>
      <trkpt lat="53.008412020280957" lon="-6.29437199793756">
        <ele>153.47</ele>
        <time>2026-07-09T09:44:33Z</time>
      </trkpt>
      <trkpt lat="53.00841897726059" lon="-6.294359005987644">
        <ele>153.94999999999999</ele>
        <time>2026-07-09T09:44:34Z</time>
      </trkpt>
      <trkpt lat="53.00841897726059" lon="-6.294359005987644">
        <ele>156.34999999999999</ele>
        <time>2026-07-09T09:44:44Z</time>
      </trkpt>
      <trkpt lat="53.008412020280957" lon="-6.29437199793756">
        <ele>156.34999999999999</ele>
        <time>2026-07-09T09:44:46Z</time>
      </trkpt>
      <trkpt lat="53.008412020280957" lon="-6.29437199793756">
        <ele>156.34999999999999</ele>
        <time>2026-07-09T09:44:47Z</time>
      </trkpt>
      <trkpt lat="53.008412020280957" lon="-6.29437199793756">
        <ele>156.34999999999999</ele>
        <time>2026-07-09T09:44:48Z</time>
      </trkpt>
      <trkpt lat="53.00844001583755" lon="-6.29443796351552">
        <ele>155.87</ele>
        <time>2026-07-09T09:44:49Z</time>
      </trkpt>
      <trkpt lat="53.00846197642386" lon="-6.294491020962596">
        <ele>155.87</ele>
        <time>2026-07-09T09:44:50Z</time>
      </trkpt>
      <trkpt lat="53.008493995293975" lon="-6.294566038995981">
        <ele>155.38999999999999</ele>
        <time>2026-07-09T09:44:51Z</time>
      </trkpt>
      <trkpt lat="53.008534982800484" lon="-6.294663017615676">
        <ele>155.38999999999999</ele>
        <time>2026-07-09T09:44:52Z</time>
      </trkpt>
      <trkpt lat="53.008580999448895" lon="-6.294770976528525">
        <ele>155.38999999999999</ele>
        <time>2026-07-09T09:44:53Z</time>
      </trkpt>
      <trkpt lat="53.00867797806859" lon="-6.294998964294791">
        <ele>154.91</ele>
        <time>2026-07-09T09:44:55Z</time>
      </trkpt>
      <trkpt lat="53.008730029687285" lon="-6.295122010633349">
        <ele>154.43000000000001</ele>
        <time>2026-07-09T09:44:56Z</time>
      </trkpt>
      <trkpt lat="53.008778980001807" lon="-6.295279003679752">
        <ele>153.94999999999999</ele>
        <time>2026-07-09T09:44:57Z</time>
      </trkpt>
      <trkpt lat="53.008789960294962" lon="-6.295447982847691">
        <ele>153.47</ele>
        <time>2026-07-09T09:44:58Z</time>
      </trkpt>
      <trkpt lat="53.008789038285613" lon="-6.295636994764209">
        <ele>152.50999999999999</ele>
        <time>2026-07-09T09:44:59Z</time>
      </trkpt>
      <trkpt lat="53.00876397639513" lon="-6.295819971710444">
        <ele>151.53999999999999</ele>
        <time>2026-07-09T09:45:00Z</time>
      </trkpt>
      <trkpt lat="53.008736986666918" lon="-6.296018036082387">
        <ele>151.06</ele>
        <time>2026-07-09T09:45:01Z</time>
      </trkpt>
      <trkpt lat="53.008703961968422" lon="-6.296224985271692">
        <ele>150.09999999999999</ele>
        <time>2026-07-09T09:45:02Z</time>
      </trkpt>
      <trkpt lat="53.008657023310661" lon="-6.296406034380198">
        <ele>149.62</ele>
        <time>2026-07-09T09:45:03Z</time>
      </trkpt>
      <trkpt lat="53.008380001410842" lon="-6.297490987926722">
        <ele>147.69999999999999</ele>
        <time>2026-07-09T09:45:11Z</time>
      </trkpt>
      <trkpt lat="53.008325016126037" lon="-6.297504985705018">
        <ele>147.69999999999999</ele>
        <time>2026-07-09T09:45:12Z</time>
      </trkpt>
      <trkpt lat="53.008262990042567" lon="-6.297520995140076">
        <ele>147.69999999999999</ele>
        <time>2026-07-09T09:45:13Z</time>
      </trkpt>
      <trkpt lat="53.008056962862611" lon="-6.29757204093039">
        <ele>147.69999999999999</ele>
        <time>2026-07-09T09:45:16Z</time>
      </trkpt>
      <trkpt lat="53.007433013990521" lon="-6.298022987321019">
        <ele>146.74000000000001</ele>
        <time>2026-07-09T09:45:23Z</time>
      </trkpt>
      <trkpt lat="53.006609994918108" lon="-6.298659006133676">
        <ele>140.00999999999999</ele>
        <time>2026-07-09T09:45:30Z</time>
      </trkpt>
      <trkpt lat="53.006490971893072" lon="-6.298730000853539">
        <ele>139.05000000000001</ele>
        <time>2026-07-09T09:45:31Z</time>
      </trkpt>
      <trkpt lat="53.005656972527504" lon="-6.299176001921296">
        <ele>128.94999999999999</ele>
        <time>2026-07-09T09:45:38Z</time>
      </trkpt>
      <trkpt lat="53.005279032513499" lon="-6.299280021339655">
        <ele>125.59</ele>
        <time>2026-07-09T09:45:41Z</time>
      </trkpt>
      <trkpt lat="53.00515397451818" lon="-6.299306005239487">
        <ele>125.11</ele>
        <time>2026-07-09T09:45:42Z</time>
      </trkpt>
      <trkpt lat="53.005026988685131" lon="-6.299324026331306">
        <ele>125.11</ele>
        <time>2026-07-09T09:45:43Z</time>
      </trkpt>
      <trkpt lat="53.004911988973618" lon="-6.299283960834146">
        <ele>124.63</ele>
        <time>2026-07-09T09:45:44Z</time>
      </trkpt>
      <trkpt lat="53.004799000918865" lon="-6.299244984984398">
        <ele>124.63</ele>
        <time>2026-07-09T09:45:45Z</time>
      </trkpt>
      <trkpt lat="53.004119982942939" lon="-6.299088997766376">
        <ele>125.11</ele>
        <time>2026-07-09T09:45:51Z</time>
      </trkpt>
      <trkpt lat="53.003998026251793" lon="-6.299086986109614">
        <ele>125.11</ele>
        <time>2026-07-09T09:45:52Z</time>
      </trkpt>
      <trkpt lat="53.002718025818467" lon="-6.298966035246849">
        <ele>125.59</ele>
        <time>2026-07-09T09:46:02Z</time>
      </trkpt>
      <trkpt lat="53.002062980085611" lon="-6.298836031928659">
        <ele>126.06999999999999</ele>
        <time>2026-07-09T09:46:07Z</time>
      </trkpt>
      <trkpt lat="53.00195099785924" lon="-6.298895962536335">
        <ele>126.06999999999999</ele>
        <time>2026-07-09T09:46:08Z</time>
      </trkpt>
      <trkpt lat="53.001867011189461" lon="-6.298942985013127">
        <ele>126.06999999999999</ele>
        <time>2026-07-09T09:46:09Z</time>
      </trkpt>
      <trkpt lat="53.001788975670934" lon="-6.299069970846176">
        <ele>126.06999999999999</ele>
        <time>2026-07-09T09:46:10Z</time>
      </trkpt>
      <trkpt lat="53.001712029799819" lon="-6.299195028841496">
        <ele>126.06999999999999</ele>
        <time>2026-07-09T09:46:11Z</time>
      </trkpt>
      <trkpt lat="53.001627959311008" lon="-6.299315979704261">
        <ele>126.55</ele>
        <time>2026-07-09T09:46:12Z</time>
      </trkpt>
      <trkpt lat="53.001452023163438" lon="-6.299546984955668">
        <ele>126.06999999999999</ele>
        <time>2026-07-09T09:46:14Z</time>
      </trkpt>
      <trkpt lat="53.001345992088318" lon="-6.299641029909253">
        <ele>125.59</ele>
        <time>2026-07-09T09:46:15Z</time>
      </trkpt>
      <trkpt lat="53.001233004033566" lon="-6.299711018800736">
        <ele>124.63</ele>
        <time>2026-07-09T09:46:16Z</time>
      </trkpt>
      <trkpt lat="53.001110963523388" lon="-6.299749994650483">
        <ele>124.15000000000001</ele>
        <time>2026-07-09T09:46:17Z</time>
      </trkpt>
      <trkpt lat="53.000980960205197" lon="-6.299791987985373">
        <ele>123.19</ele>
        <time>2026-07-09T09:46:18Z</time>
      </trkpt>
      <trkpt lat="53.000843999907374" lon="-6.299835992977023">
        <ele>122.22</ele>
        <time>2026-07-09T09:46:19Z</time>
      </trkpt>
      <trkpt lat="53.000414008274674" lon="-6.299965996295214">
        <ele>118.86</ele>
        <time>2026-07-09T09:46:22Z</time>
      </trkpt>
      <trkpt lat="52.999977981671691" lon="-6.300091976299882">
        <ele>115.5</ele>
        <time>2026-07-09T09:46:25Z</time>
      </trkpt>
      <trkpt lat="52.999844960868359" lon="-6.300141010433435">
        <ele>114.53</ele>
        <time>2026-07-09T09:46:26Z</time>
      </trkpt>
      <trkpt lat="52.9997150413692" lon="-6.300229020416737">
        <ele>113.56999999999999</ele>
        <time>2026-07-09T09:46:27Z</time>
      </trkpt>
      <trkpt lat="52.999582020565867" lon="-6.300319964066148">
        <ele>112.61</ele>
        <time>2026-07-09T09:46:28Z</time>
      </trkpt>
      <trkpt lat="52.999448999762535" lon="-6.30040998570621">
        <ele>112.13</ele>
        <time>2026-07-09T09:46:29Z</time>
      </trkpt>
      <trkpt lat="52.999317990615964" lon="-6.300500007346273">
        <ele>111.65000000000001</ele>
        <time>2026-07-09T09:46:30Z</time>
      </trkpt>
      <trkpt lat="52.998236976563931" lon="-6.301319003105164">
        <ele>113.56999999999999</ele>
        <time>2026-07-09T09:46:38Z</time>
      </trkpt>
      <trkpt lat="52.997463997453451" lon="-6.301937000826001">
        <ele>116.94</ele>
        <time>2026-07-09T09:46:44Z</time>
      </trkpt>
      <trkpt lat="52.997241960838437" lon="-6.302096005529165">
        <ele>118.86</ele>
        <time>2026-07-09T09:46:46Z</time>
      </trkpt>
      <trkpt lat="52.997159985825419" lon="-6.302142022177577">
        <ele>119.81999999999999</ele>
        <time>2026-07-09T09:46:47Z</time>
      </trkpt>
      <trkpt lat="52.997096031904221" lon="-6.302176974713802">
        <ele>120.3</ele>
        <time>2026-07-09T09:46:48Z</time>
      </trkpt>
      <trkpt lat="52.996997041627765" lon="-6.302231959998608">
        <ele>121.73999999999999</ele>
        <time>2026-07-09T09:46:50Z</time>
      </trkpt>
      <trkpt lat="52.996931998059154" lon="-6.302269008010626">
        <ele>122.22</ele>
        <time>2026-07-09T09:46:51Z</time>
      </trkpt>
      <trkpt lat="52.996925041079521" lon="-6.302332039922476">
        <ele>123.19</ele>
        <time>2026-07-09T09:46:52Z</time>
      </trkpt>
      <trkpt lat="52.996901990845799" lon="-6.302498001605272">
        <ele>123.67</ele>
        <time>2026-07-09T09:46:53Z</time>
      </trkpt>
      <trkpt lat="52.996834013611078" lon="-6.302617024630308">
        <ele>124.63</ele>
        <time>2026-07-09T09:46:54Z</time>
      </trkpt>
      <trkpt lat="52.996752960607409" lon="-6.302720960229635">
        <ele>126.55</ele>
        <time>2026-07-09T09:46:55Z</time>
      </trkpt>
      <trkpt lat="52.996668973937631" lon="-6.302823973819614">
        <ele>127.98999999999999</ele>
        <time>2026-07-09T09:46:56Z</time>
      </trkpt>
      <trkpt lat="52.996590016409755" lon="-6.302909972146154">
        <ele>129.91999999999999</ele>
        <time>2026-07-09T09:46:57Z</time>
      </trkpt>
      <trkpt lat="52.996480967849493" lon="-6.303020026534796">
        <ele>131.84</ele>
        <time>2026-07-09T09:46:58Z</time>
      </trkpt>
      <trkpt lat="52.996418019756675" lon="-6.303031006827951">
        <ele>133.28</ele>
        <time>2026-07-09T09:46:59Z</time>
      </trkpt>
      <trkpt lat="52.995736990123987" lon="-6.303160004317761">
        <ele>138.09</ele>
        <time>2026-07-09T09:47:05Z</time>
      </trkpt>
      <trkpt lat="52.9953339882195" lon="-6.303236028179526">
        <ele>140.00999999999999</ele>
        <time>2026-07-09T09:47:08Z</time>
      </trkpt>
      <trkpt lat="52.994923023506999" lon="-6.303312974050641">
        <ele>141.93000000000001</ele>
        <time>2026-07-09T09:47:11Z</time>
      </trkpt>
      <trkpt lat="52.994215004146099" lon="-6.303553031757474">
        <ele>145.30000000000001</ele>
        <time>2026-07-09T09:47:16Z</time>
      </trkpt>
      <trkpt lat="52.993194004520774" lon="-6.303881015628576">
        <ele>150.58000000000001</ele>
        <time>2026-07-09T09:47:23Z</time>
      </trkpt>
      <trkpt lat="52.992573995143175" lon="-6.304072039201856">
        <ele>154.91</ele>
        <time>2026-07-09T09:47:27Z</time>
      </trkpt>
      <trkpt lat="52.992436029016972" lon="-6.304141022264957">
        <ele>155.87</ele>
        <time>2026-07-09T09:47:28Z</time>
      </trkpt>
      <trkpt lat="52.992275012657046" lon="-6.304220985621214">
        <ele>156.83000000000001</ele>
        <time>2026-07-09T09:47:29Z</time>
      </trkpt>
      <trkpt lat="52.992162024602294" lon="-6.304321987554431">
        <ele>157.78999999999999</ele>
        <time>2026-07-09T09:47:30Z</time>
      </trkpt>
      <trkpt lat="52.992038978263736" lon="-6.30451301112771">
        <ele>159.24000000000001</ele>
        <time>2026-07-09T09:47:31Z</time>
      </trkpt>
      <trkpt lat="52.991967983543873" lon="-6.304713003337383">
        <ele>159.72</ele>
        <time>2026-07-09T09:47:32Z</time>
      </trkpt>
      <trkpt lat="52.991892965510488" lon="-6.30492196418345">
        <ele>160.68000000000001</ele>
        <time>2026-07-09T09:47:33Z</time>
      </trkpt>
      <trkpt lat="52.991804033517838" lon="-6.305146012455225">
        <ele>161.63999999999999</ele>
        <time>2026-07-09T09:47:34Z</time>
      </trkpt>
      <trkpt lat="52.991707976907492" lon="-6.305376011878252">
        <ele>162.12</ele>
        <time>2026-07-09T09:47:35Z</time>
      </trkpt>
      <trkpt lat="52.991612004116178" lon="-6.305602993816137">
        <ele>162.59999999999999</ele>
        <time>2026-07-09T09:47:36Z</time>
      </trkpt>
      <trkpt lat="52.991523994132876" lon="-6.305815977975726">
        <ele>163.08000000000001</ele>
        <time>2026-07-09T09:47:37Z</time>
      </trkpt>
      <trkpt lat="52.991458028554916" lon="-6.30603801459074">
        <ele>163.08000000000001</ele>
        <time>2026-07-09T09:47:38Z</time>
      </trkpt>
      <trkpt lat="52.991283014416695" lon="-6.306943008676171">
        <ele>165</ele>
        <time>2026-07-09T09:47:42Z</time>
      </trkpt>
      <trkpt lat="52.991246972233057" lon="-6.307127997279167">
        <ele>165</ele>
        <time>2026-07-09T09:47:43Z</time>
      </trkpt>
      <trkpt lat="52.991242026910186" lon="-6.307437960058451">
        <ele>165.47999999999999</ele>
        <time>2026-07-09T09:47:45Z</time>
      </trkpt>
      <trkpt lat="52.991258958354592" lon="-6.307615991681814">
        <ele>166.44999999999999</ele>
        <time>2026-07-09T09:47:46Z</time>
      </trkpt>
      <trkpt lat="52.991293994709849" lon="-6.307980017736554">
        <ele>168.37</ele>
        <time>2026-07-09T09:47:48Z</time>
      </trkpt>
      <trkpt lat="52.991310004144907" lon="-6.308142961934209">
        <ele>169.33000000000001</ele>
        <time>2026-07-09T09:47:49Z</time>
      </trkpt>
      <trkpt lat="52.991330958902836" lon="-6.308362986892462">
        <ele>170.77000000000001</ele>
        <time>2026-07-09T09:47:50Z</time>
      </trkpt>
      <trkpt lat="52.991319978609681" lon="-6.308470023795962">
        <ele>172.21000000000001</ele>
        <time>2026-07-09T09:47:51Z</time>
      </trkpt>
      <trkpt lat="52.991304975003004" lon="-6.308623999357224">
        <ele>173.66</ele>
        <time>2026-07-09T09:47:52Z</time>
      </trkpt>
      <trkpt lat="52.991287959739566" lon="-6.308784009888768">
        <ele>175.09999999999999</ele>
        <time>2026-07-09T09:47:53Z</time>
      </trkpt>
      <trkpt lat="52.991271028295159" lon="-6.308949971571565">
        <ele>177.02000000000001</ele>
        <time>2026-07-09T09:47:54Z</time>
      </trkpt>
      <trkpt lat="52.991254013031721" lon="-6.309115011245012">
        <ele>178.94</ele>
        <time>2026-07-09T09:47:55Z</time>
      </trkpt>
      <trkpt lat="52.991224005818367" lon="-6.309413993731141">
        <ele>181.34999999999999</ele>
        <time>2026-07-09T09:47:56Z</time>
      </trkpt>
      <trkpt lat="52.991230040788651" lon="-6.309478031471372">
        <ele>182.78999999999999</ele>
        <time>2026-07-09T09:47:57Z</time>
      </trkpt>
      <trkpt lat="52.991248983889818" lon="-6.309680035337806">
        <ele>184.71000000000001</ele>
        <time>2026-07-09T09:47:58Z</time>
      </trkpt>
      <trkpt lat="52.991268010810018" lon="-6.309883967041969">
        <ele>186.63</ele>
        <time>2026-07-09T09:47:59Z</time>
      </trkpt>
      <trkpt lat="52.991330036893487" lon="-6.310552004724741">
        <ele>191.91999999999999</ele>
        <time>2026-07-09T09:48:02Z</time>
      </trkpt>
      <trkpt lat="52.991350991651416" lon="-6.310778986662626">
        <ele>194.31999999999999</ele>
        <time>2026-07-09T09:48:03Z</time>
      </trkpt>
      <trkpt lat="52.991373036056757" lon="-6.311007980257273">
        <ele>196.72999999999999</ele>
        <time>2026-07-09T09:48:04Z</time>
      </trkpt>
      <trkpt lat="52.991344034671783" lon="-6.311219958588481">
        <ele>199.13</ele>
        <time>2026-07-09T09:48:05Z</time>
      </trkpt>
      <trkpt lat="52.99131503328681" lon="-6.311418022960424">
        <ele>201.53</ele>
        <time>2026-07-09T09:48:06Z</time>
      </trkpt>
      <trkpt lat="52.991286031901836" lon="-6.311609968543053">
        <ele>202.97999999999999</ele>
        <time>2026-07-09T09:48:07Z</time>
      </trkpt>
      <trkpt lat="52.991257030516863" lon="-6.311801997944713">
        <ele>203.46000000000001</ele>
        <time>2026-07-09T09:48:08Z</time>
      </trkpt>
      <trkpt lat="52.991228029131889" lon="-6.311992015689611">
        <ele>202.49000000000001</ele>
        <time>2026-07-09T09:48:09Z</time>
      </trkpt>
      <trkpt lat="52.991030970588326" lon="-6.313660014420748">
        <ele>200.09</ele>
        <time>2026-07-09T09:48:17Z</time>
      </trkpt>
      <trkpt lat="52.990990988910198" lon="-6.31379496306181">
        <ele>200.09</ele>
        <time>2026-07-09T09:48:18Z</time>
      </trkpt>
      <trkpt lat="52.990966010838747" lon="-6.313877021893859">
        <ele>200.56999999999999</ele>
        <time>2026-07-09T09:48:19Z</time>
      </trkpt>
      <trkpt lat="52.990899039432406" lon="-6.313910968601704">
        <ele>201.53</ele>
        <time>2026-07-09T09:48:20Z</time>
      </trkpt>
      <trkpt lat="52.990862997248769" lon="-6.313920021057129">
        <ele>203.46000000000001</ele>
        <time>2026-07-09T09:48:21Z</time>
      </trkpt>
      <trkpt lat="52.990752020850778" lon="-6.313920021057129">
        <ele>205.38</ele>
        <time>2026-07-09T09:48:22Z</time>
      </trkpt>
      <trkpt lat="52.990722013637424" lon="-6.313870986923575">
        <ele>207.30000000000001</ele>
        <time>2026-07-09T09:48:23Z</time>
      </trkpt>
      <trkpt lat="52.990654958412051" lon="-6.313760010525584">
        <ele>209.22</ele>
        <time>2026-07-09T09:48:24Z</time>
      </trkpt>
      <trkpt lat="52.990572983399034" lon="-6.313625983893871">
        <ele>209.69999999999999</ele>
        <time>2026-07-09T09:48:25Z</time>
      </trkpt>
      <trkpt lat="52.990451026707888" lon="-6.313426997512579">
        <ele>210.66999999999999</ele>
        <time>2026-07-09T09:48:26Z</time>
      </trkpt>
      <trkpt lat="52.989434972405434" lon="-6.312187984585762">
        <ele>222.68000000000001</ele>
        <time>2026-07-09T09:48:35Z</time>
      </trkpt>
      <trkpt lat="52.989205978810787" lon="-6.311830999329686">
        <ele>224.61000000000001</ele>
        <time>2026-07-09T09:48:37Z</time>
      </trkpt>
      <trkpt lat="52.988208029419184" lon="-6.310237012803555">
        <ele>232.78</ele>
        <time>2026-07-09T09:48:46Z</time>
      </trkpt>
      <trkpt lat="52.987431026995182" lon="-6.308479998260737">
        <ele>239.50999999999999</ele>
        <time>2026-07-09T09:48:55Z</time>
      </trkpt>
      <trkpt lat="52.98652402125299" lon="-6.306109009310603">
        <ele>250.08000000000001</ele>
        <time>2026-07-09T09:49:06Z</time>
      </trkpt>
      <trkpt lat="52.986368034034967" lon="-6.305796029046178">
        <ele>252</ele>
        <time>2026-07-09T09:49:08Z</time>
      </trkpt>
      <trkpt lat="52.986278012394905" lon="-6.305646998807788">
        <ele>252.96000000000001</ele>
        <time>2026-07-09T09:49:09Z</time>
      </trkpt>
      <trkpt lat="52.985813990235329" lon="-6.305165039375424">
        <ele>256.32999999999998</ele>
        <time>2026-07-09T09:49:13Z</time>
      </trkpt>
      <trkpt lat="52.985670994967222" lon="-6.305079041048884">
        <ele>257.29000000000002</ele>
        <time>2026-07-09T09:49:14Z</time>
      </trkpt>
      <trkpt lat="52.985534034669399" lon="-6.305040987208486">
        <ele>257.76999999999998</ele>
        <time>2026-07-09T09:49:15Z</time>
      </trkpt>
      <trkpt lat="52.984330980107188" lon="-6.304906038567424">
        <ele>264.5</ele>
        <time>2026-07-09T09:49:24Z</time>
      </trkpt>
      <trkpt lat="52.983671994879842" lon="-6.304969992488623">
        <ele>268.82999999999998</ele>
        <time>2026-07-09T09:49:29Z</time>
      </trkpt>
      <trkpt lat="52.983540985733271" lon="-6.305031012743712">
        <ele>269.31</ele>
        <time>2026-07-09T09:49:30Z</time>
      </trkpt>
      <trkpt lat="52.983413999900222" lon="-6.30509102717042">
        <ele>270.26999999999998</ele>
        <time>2026-07-09T09:49:31Z</time>
      </trkpt>
      <trkpt lat="52.983293971046805" lon="-6.305227987468243">
        <ele>270.75</ele>
        <time>2026-07-09T09:49:32Z</time>
      </trkpt>
      <trkpt lat="52.983188023790717" lon="-6.305365031585097">
        <ele>271.23000000000002</ele>
        <time>2026-07-09T09:49:33Z</time>
      </trkpt>
      <trkpt lat="52.983079981058836" lon="-6.305505009368062">
        <ele>271.70999999999998</ele>
        <time>2026-07-09T09:49:34Z</time>
      </trkpt>
      <trkpt lat="52.982242964208126" lon="-6.306564984843135">
        <ele>277</ele>
        <time>2026-07-09T09:49:43Z</time>
      </trkpt>
      <trkpt lat="52.982136011123657" lon="-6.306658023968339">
        <ele>277.48000000000002</ele>
        <time>2026-07-09T09:49:44Z</time>
      </trkpt>
      <trkpt lat="52.981835016980767" lon="-6.30691995844245">
        <ele>278.92000000000002</ele>
        <time>2026-07-09T09:49:47Z</time>
      </trkpt>
      <trkpt lat="52.981735020875931" lon="-6.30700696259737">
        <ele>279.39999999999998</ele>
        <time>2026-07-09T09:49:48Z</time>
      </trkpt>
      <trkpt lat="52.981625972315669" lon="-6.307107964530587">
        <ele>279.88</ele>
        <time>2026-07-09T09:49:49Z</time>
      </trkpt>
      <trkpt lat="52.981211990118027" lon="-6.308008013293147">
        <ele>282.76999999999998</ele>
        <time>2026-07-09T09:49:54Z</time>
      </trkpt>
      <trkpt lat="52.981151975691319" lon="-6.308226026594639">
        <ele>283.73000000000002</ele>
        <time>2026-07-09T09:49:55Z</time>
      </trkpt>
      <trkpt lat="52.980840001255274" lon="-6.309281978756189">
        <ele>286.61000000000001</ele>
        <time>2026-07-09T09:50:01Z</time>
      </trkpt>
      <trkpt lat="52.980785015970469" lon="-6.309392033144832">
        <ele>287.08999999999997</ele>
        <time>2026-07-09T09:50:02Z</time>
      </trkpt>
      <trkpt lat="52.980742016807199" lon="-6.309535028412938">
        <ele>287.08999999999997</ele>
        <time>2026-07-09T09:50:03Z</time>
      </trkpt>
      <trkpt lat="52.980721984058619" lon="-6.309680035337806">
        <ele>287.56999999999999</ele>
        <time>2026-07-09T09:50:04Z</time>
      </trkpt>
      <trkpt lat="52.980699017643929" lon="-6.309840967878699">
        <ele>288.05000000000001</ele>
        <time>2026-07-09T09:50:05Z</time>
      </trkpt>
      <trkpt lat="52.980462983250618" lon="-6.311546014621854">
        <ele>294.30000000000001</ele>
        <time>2026-07-09T09:50:14Z</time>
      </trkpt>
      <trkpt lat="52.98044697381556" lon="-6.31175103597343">
        <ele>295.25999999999999</ele>
        <time>2026-07-09T09:50:15Z</time>
      </trkpt>
      <trkpt lat="52.980375979095697" lon="-6.314049018546939">
        <ele>305.83999999999997</ele>
        <time>2026-07-09T09:50:26Z</time>
      </trkpt>
      <trkpt lat="52.980385031551123" lon="-6.314250016584992">
        <ele>306.80000000000001</ele>
        <time>2026-07-09T09:50:27Z</time>
      </trkpt>
      <trkpt lat="52.980401962995529" lon="-6.314602978527546">
        <ele>308.24000000000001</ele>
        <time>2026-07-09T09:50:29Z</time>
      </trkpt>
      <trkpt lat="52.980409003794193" lon="-6.314757037907839">
        <ele>308.72000000000003</ele>
        <time>2026-07-09T09:50:30Z</time>
      </trkpt>
      <trkpt lat="52.980372039601207" lon="-6.314884023740888">
        <ele>309.68000000000001</ele>
        <time>2026-07-09T09:50:31Z</time>
      </trkpt>
      <trkpt lat="52.980330968275666" lon="-6.315021989867091">
        <ele>310.16000000000003</ele>
        <time>2026-07-09T09:50:32Z</time>
      </trkpt>
      <trkpt lat="52.980286041274667" lon="-6.315172025933862">
        <ele>310.63999999999999</ele>
        <time>2026-07-09T09:50:33Z</time>
      </trkpt>
      <trkpt lat="52.980238012969494" lon="-6.315333964303136">
        <ele>310.63999999999999</ele>
        <time>2026-07-09T09:50:34Z</time>
      </trkpt>
      <trkpt lat="52.980029974132776" lon="-6.316036032512784">
        <ele>311.60000000000002</ele>
        <time>2026-07-09T09:50:38Z</time>
      </trkpt>
      <trkpt lat="52.980001978576183" lon="-6.316224038600922">
        <ele>312.08999999999997</ele>
        <time>2026-07-09T09:50:39Z</time>
      </trkpt>
      <trkpt lat="52.980001978576183" lon="-6.316424030810595">
        <ele>312.56999999999999</ele>
        <time>2026-07-09T09:50:40Z</time>
      </trkpt>
      <trkpt lat="52.979979012161493" lon="-6.317031970247626">
        <ele>314.49000000000001</ele>
        <time>2026-07-09T09:50:43Z</time>
      </trkpt>
      <trkpt lat="52.979932995513082" lon="-6.317389039322734">
        <ele>315.44999999999999</ele>
        <time>2026-07-09T09:50:45Z</time>
      </trkpt>
      <trkpt lat="52.979904999956489" lon="-6.317543014883995">
        <ele>315.93000000000001</ele>
        <time>2026-07-09T09:50:46Z</time>
      </trkpt>
      <trkpt lat="52.979840962216258" lon="-6.317649967968464">
        <ele>316.41000000000003</ele>
        <time>2026-07-09T09:50:47Z</time>
      </trkpt>
      <trkpt lat="52.979768039658666" lon="-6.317755999043584">
        <ele>316.88999999999999</ele>
        <time>2026-07-09T09:50:48Z</time>
      </trkpt>
      <trkpt lat="52.979673994705081" lon="-6.317843003198504">
        <ele>317.85000000000002</ele>
        <time>2026-07-09T09:50:49Z</time>
      </trkpt>
      <trkpt lat="52.979572992771864" lon="-6.317934030666947">
        <ele>318.81</ele>
        <time>2026-07-09T09:50:50Z</time>
      </trkpt>
      <trkpt lat="52.97887796536088" lon="-6.318339966237545">
        <ele>322.18000000000001</ele>
        <time>2026-07-09T09:50:56Z</time>
      </trkpt>
      <trkpt lat="52.97877000644803" lon="-6.318339966237545">
        <ele>322.66000000000003</ele>
        <time>2026-07-09T09:50:57Z</time>
      </trkpt>
      <trkpt lat="52.978665987029672" lon="-6.318337032571435">
        <ele>323.13999999999999</ele>
        <time>2026-07-09T09:50:58Z</time>
      </trkpt>
      <trkpt lat="52.978573031723499" lon="-6.318271989002824">
        <ele>323.13999999999999</ele>
        <time>2026-07-09T09:50:59Z</time>
      </trkpt>
      <trkpt lat="52.978476975113153" lon="-6.318204011768103">
        <ele>323.62</ele>
        <time>2026-07-09T09:51:00Z</time>
      </trkpt>
      <trkpt lat="52.978372033685446" lon="-6.318131005391479">
        <ele>323.62</ele>
        <time>2026-07-09T09:51:01Z</time>
      </trkpt>
      <trkpt lat="52.978261979296803" lon="-6.318053975701332">
        <ele>324.10000000000002</ele>
        <time>2026-07-09T09:51:02Z</time>
      </trkpt>
      <trkpt lat="52.978144967928529" lon="-6.31800401955843">
        <ele>324.10000000000002</ele>
        <time>2026-07-09T09:51:03Z</time>
      </trkpt>
      <trkpt lat="52.977110976353288" lon="-6.31764099933207">
        <ele>326.5</ele>
        <time>2026-07-09T09:51:11Z</time>
      </trkpt>
      <trkpt lat="52.976974016055465" lon="-6.317647034302354">
        <ele>327.47000000000003</ele>
        <time>2026-07-09T09:51:12Z</time>
      </trkpt>
      <trkpt lat="52.975774984806776" lon="-6.317594982683659">
        <ele>333.70999999999998</ele>
        <time>2026-07-09T09:51:21Z</time>
      </trkpt>
      <trkpt lat="52.975111976265907" lon="-6.317328019067645">
        <ele>336.12</ele>
        <time>2026-07-09T09:51:26Z</time>
      </trkpt>
      <trkpt lat="52.975020026788116" lon="-6.317203966900706">
        <ele>336.60000000000002</ele>
        <time>2026-07-09T09:51:27Z</time>
      </trkpt>
      <trkpt lat="52.974926987662911" lon="-6.317077986896038">
        <ele>337.56</ele>
        <time>2026-07-09T09:51:28Z</time>
      </trkpt>
      <trkpt lat="52.974830009043217" lon="-6.316946977749467">
        <ele>338.04000000000002</ele>
        <time>2026-07-09T09:51:29Z</time>
      </trkpt>
      <trkpt lat="52.97472900711" lon="-6.316810017451644">
        <ele>338.51999999999998</ele>
        <time>2026-07-09T09:51:30Z</time>
      </trkpt>
      <trkpt lat="52.973822001367807" lon="-6.315675023943186">
        <ele>340.92000000000002</ele>
        <time>2026-07-09T09:51:38Z</time>
      </trkpt>
      <trkpt lat="52.972705028951168" lon="-6.314769024029374">
        <ele>346.20999999999998</ele>
        <time>2026-07-09T09:51:47Z</time>
      </trkpt>
      <trkpt lat="52.972577959299088" lon="-6.314708003774285">
        <ele>347.17000000000002</ele>
        <time>2026-07-09T09:51:48Z</time>
      </trkpt>
      <trkpt lat="52.972447033971548" lon="-6.314688976854086">
        <ele>348.13</ele>
        <time>2026-07-09T09:51:49Z</time>
      </trkpt>
      <trkpt lat="52.971101989969611" lon="-6.314693000167608">
        <ele>356.31</ele>
        <time>2026-07-09T09:51:59Z</time>
      </trkpt>
      <trkpt lat="52.97099101357162" lon="-6.314773969352245">
        <ele>356.79000000000002</ele>
        <time>2026-07-09T09:52:00Z</time>
      </trkpt>
      <trkpt lat="52.970875008031726" lon="-6.314858961850405">
        <ele>357.26999999999998</ele>
        <time>2026-07-09T09:52:01Z</time>
      </trkpt>
      <trkpt lat="52.969940006732941" lon="-6.316176010295749">
        <ele>367.83999999999997</ele>
        <time>2026-07-09T09:52:10Z</time>
      </trkpt>
      <trkpt lat="52.969689974561334" lon="-6.31667498499155">
        <ele>372.64999999999998</ele>
        <time>2026-07-09T09:52:13Z</time>
      </trkpt>
      <trkpt lat="52.969615962356329" lon="-6.316859973594546">
        <ele>374.08999999999997</ele>
        <time>2026-07-09T09:52:14Z</time>
      </trkpt>
      <trkpt lat="52.969583021476865" lon="-6.316981008276343">
        <ele>375.05000000000001</ele>
        <time>2026-07-09T09:52:15Z</time>
      </trkpt>
      <trkpt lat="52.96955200843513" lon="-6.317092990502715">
        <ele>376.00999999999999</ele>
        <time>2026-07-09T09:52:16Z</time>
      </trkpt>
      <trkpt lat="52.96952803619206" lon="-6.317181000486016">
        <ele>376.97000000000003</ele>
        <time>2026-07-09T09:52:17Z</time>
      </trkpt>
      <trkpt lat="52.96950900927186" lon="-6.31725400686264">
        <ele>377.44999999999999</ele>
        <time>2026-07-09T09:52:18Z</time>
      </trkpt>
      <trkpt lat="52.969491994008422" lon="-6.317314021289349">
        <ele>377.94</ele>
        <time>2026-07-09T09:52:19Z</time>
      </trkpt>
      <trkpt lat="52.96939903870225" lon="-6.317656002938747">
        <ele>382.74000000000001</ele>
        <time>2026-07-09T09:52:29Z</time>
      </trkpt>
      <trkpt lat="52.96939903870225" lon="-6.317656002938747">
        <ele>383.22000000000003</ele>
        <time>2026-07-09T09:52:50Z</time>
      </trkpt>
      <trkpt lat="52.96939903870225" lon="-6.317656002938747">
        <ele>383.69999999999999</ele>
        <time>2026-07-09T09:53:48Z</time>
      </trkpt>
      <trkpt lat="52.96939903870225" lon="-6.317656002938747">
        <ele>383.69999999999999</ele>
        <time>2026-07-09T09:54:46Z</time>
      </trkpt>
      <trkpt lat="52.96929401345551" lon="-6.318039977923036">
        <ele>382.25999999999999</ele>
        <time>2026-07-09T09:55:02Z</time>
      </trkpt>
      <trkpt lat="52.96903501264751" lon="-6.31860600784421">
        <ele>378.89999999999998</ele>
        <time>2026-07-09T09:55:07Z</time>
      </trkpt>
      <trkpt lat="52.968216016888618" lon="-6.320060016587377">
        <ele>370.73000000000002</ele>
        <time>2026-07-09T09:55:17Z</time>
      </trkpt>
      <trkpt lat="52.967221001163125" lon="-6.322174016386271">
        <ele>355.33999999999997</ele>
        <time>2026-07-09T09:55:29Z</time>
      </trkpt>
      <trkpt lat="52.966820010915399" lon="-6.324028009548783">
        <ele>343.81</ele>
        <time>2026-07-09T09:55:38Z</time>
      </trkpt>
      <trkpt lat="52.96639496460557" lon="-6.326507041230798">
        <ele>328.43000000000001</ele>
        <time>2026-07-09T09:55:49Z</time>
      </trkpt>
      <trkpt lat="52.966207964345813" lon="-6.328950030729175">
        <ele>314.00999999999999</ele>
        <time>2026-07-09T09:56:00Z</time>
      </trkpt>
      <trkpt lat="52.965971007943153" lon="-6.330747026950121">
        <ele>302.94999999999999</ele>
        <time>2026-07-09T09:56:10Z</time>
      </trkpt>
      <trkpt lat="52.965802028775215" lon="-6.332547962665558">
        <ele>292.86000000000001</ele>
        <time>2026-07-09T09:56:18Z</time>
      </trkpt>
      <trkpt lat="52.965689040720463" lon="-6.335111986845732">
        <ele>277.95999999999998</ele>
        <time>2026-07-09T09:56:29Z</time>
      </trkpt>
      <trkpt lat="52.965741008520126" lon="-6.335540972650051">
        <ele>275.06999999999999</ele>
        <time>2026-07-09T09:56:31Z</time>
      </trkpt>
      <trkpt lat="52.965776966884732" lon="-6.335741970688105">
        <ele>273.63</ele>
        <time>2026-07-09T09:56:32Z</time>
      </trkpt>
      <trkpt lat="52.965934965759516" lon="-6.337424973025918">
        <ele>262.57999999999998</ele>
        <time>2026-07-09T09:56:40Z</time>
      </trkpt>
      <trkpt lat="52.965716030448675" lon="-6.340153031051159">
        <ele>247.19999999999999</ele>
        <time>2026-07-09T09:56:52Z</time>
      </trkpt>
      <trkpt lat="52.965363990515471" lon="-6.341372011229396">
        <ele>238.53999999999999</ele>
        <time>2026-07-09T09:56:58Z</time>
      </trkpt>
      <trkpt lat="52.965285032987595" lon="-6.341566974297166">
        <ele>237.58000000000001</ele>
        <time>2026-07-09T09:56:59Z</time>
      </trkpt>
      <trkpt lat="52.965046986937523" lon="-6.34215597063303">
        <ele>234.22</ele>
        <time>2026-07-09T09:57:02Z</time>
      </trkpt>
      <trkpt lat="52.964251963421702" lon="-6.344125969335437">
        <ele>225.56999999999999</ele>
        <time>2026-07-09T09:57:12Z</time>
      </trkpt>
      <trkpt lat="52.963310005143285" lon="-6.346587985754013">
        <ele>213.06999999999999</ele>
        <time>2026-07-09T09:57:25Z</time>
      </trkpt>
      <trkpt lat="52.962974980473518" lon="-6.347263986244798">
        <ele>209.69999999999999</ele>
        <time>2026-07-09T09:57:29Z</time>
      </trkpt>
      <trkpt lat="52.962587988004088" lon="-6.34789296425879">
        <ele>207.30000000000001</ele>
        <time>2026-07-09T09:57:33Z</time>
      </trkpt>
      <trkpt lat="52.96241900883615" lon="-6.348241986706853">
        <ele>205.38</ele>
        <time>2026-07-09T09:57:35Z</time>
      </trkpt>
      <trkpt lat="52.962356982752681" lon="-6.348437033593655">
        <ele>203.94</ele>
        <time>2026-07-09T09:57:36Z</time>
      </trkpt>
      <trkpt lat="52.962177023291588" lon="-6.348999962210655">
        <ele>200.56999999999999</ele>
        <time>2026-07-09T09:57:39Z</time>
      </trkpt>
      <trkpt lat="52.96209798194468" lon="-6.349175982177258">
        <ele>199.61000000000001</ele>
        <time>2026-07-09T09:57:40Z</time>
      </trkpt>
      <trkpt lat="52.962007038295269" lon="-6.349330963566899">
        <ele>198.65000000000001</ele>
        <time>2026-07-09T09:57:41Z</time>
      </trkpt>
      <trkpt lat="52.96117203310132" lon="-6.35049101896584">
        <ele>187.11000000000001</ele>
        <time>2026-07-09T09:57:49Z</time>
      </trkpt>
      <trkpt lat="52.961054015904665" lon="-6.350626973435283">
        <ele>185.66999999999999</ele>
        <time>2026-07-09T09:57:50Z</time>
      </trkpt>
      <trkpt lat="52.960939016193151" lon="-6.350759994238615">
        <ele>184.71000000000001</ele>
        <time>2026-07-09T09:57:51Z</time>
      </trkpt>
      <trkpt lat="52.960598040372133" lon="-6.351197026669979">
        <ele>180.38</ele>
        <time>2026-07-09T09:57:54Z</time>
      </trkpt>
      <trkpt lat="52.96039997600019" lon="-6.351487962529063">
        <ele>177.5</ele>
        <time>2026-07-09T09:57:56Z</time>
      </trkpt>
      <trkpt lat="52.96018498018384" lon="-6.351697007194161">
        <ele>174.62</ele>
        <time>2026-07-09T09:57:58Z</time>
      </trkpt>
      <trkpt lat="52.95960302464664" lon="-6.352156000211835">
        <ele>165.47999999999999</ele>
        <time>2026-07-09T09:58:03Z</time>
      </trkpt>
      <trkpt lat="52.959457011893392" lon="-6.352246021851897">
        <ele>163.08000000000001</ele>
        <time>2026-07-09T09:58:04Z</time>
      </trkpt>
      <trkpt lat="52.959314016625285" lon="-6.352334031835198">
        <ele>160.68000000000001</ele>
        <time>2026-07-09T09:58:05Z</time>
      </trkpt>
      <trkpt lat="52.958907997235656" lon="-6.352668972685933">
        <ele>153.47</ele>
        <time>2026-07-09T09:58:08Z</time>
      </trkpt>
      <trkpt lat="52.958786962553859" lon="-6.352772992104292">
        <ele>151.06</ele>
        <time>2026-07-09T09:58:09Z</time>
      </trkpt>
      <trkpt lat="52.958071986213326" lon="-6.353424014523625">
        <ele>133.28</ele>
        <time>2026-07-09T09:58:16Z</time>
      </trkpt>
      <trkpt lat="52.958023035898805" lon="-6.353561980649829">
        <ele>131.36000000000001</ele>
        <time>2026-07-09T09:58:17Z</time>
      </trkpt>
      <trkpt lat="52.957980958744884" lon="-6.353685026988387">
        <ele>129.91999999999999</ele>
        <time>2026-07-09T09:58:18Z</time>
      </trkpt>
      <trkpt lat="52.957940977066755" lon="-6.35379801504314">
        <ele>127.98999999999999</ele>
        <time>2026-07-09T09:58:19Z</time>
      </trkpt>
      <trkpt lat="52.957903007045388" lon="-6.353904968127608">
        <ele>126.06999999999999</ele>
        <time>2026-07-09T09:58:20Z</time>
      </trkpt>
      <trkpt lat="52.957868976518512" lon="-6.354003958404064">
        <ele>124.63</ele>
        <time>2026-07-09T09:58:21Z</time>
      </trkpt>
      <trkpt lat="52.957823965698481" lon="-6.354133039712906">
        <ele>122.70999999999999</ele>
        <time>2026-07-09T09:58:23Z</time>
      </trkpt>
      <trkpt lat="52.957808962091804" lon="-6.354176038876176">
        <ele>121.73999999999999</ele>
        <time>2026-07-09T09:58:24Z</time>
      </trkpt>
      <trkpt lat="52.957798987627029" lon="-6.354202022776008">
        <ele>121.26000000000001</ele>
        <time>2026-07-09T09:58:25Z</time>
      </trkpt>
      <trkpt lat="52.957791024819016" lon="-6.354227000847459">
        <ele>120.78</ele>
        <time>2026-07-09T09:58:26Z</time>
      </trkpt>
      <trkpt lat="52.957791024819016" lon="-6.354227000847459">
        <ele>121.26000000000001</ele>
        <time>2026-07-09T09:58:27Z</time>
      </trkpt>
      <trkpt lat="52.957759005948901" lon="-6.354331020265818">
        <ele>123.67</ele>
        <time>2026-07-09T09:58:32Z</time>
      </trkpt>
      <trkpt lat="52.957738973200321" lon="-6.354412995278835">
        <ele>123.67</ele>
        <time>2026-07-09T09:58:33Z</time>
      </trkpt>
      <trkpt lat="52.957715000957251" lon="-6.354507962241769">
        <ele>123.19</ele>
        <time>2026-07-09T09:58:34Z</time>
      </trkpt>
      <trkpt lat="52.957656998187304" lon="-6.354740979149938">
        <ele>122.70999999999999</ele>
        <time>2026-07-09T09:58:36Z</time>
      </trkpt>
      <trkpt lat="52.957621039822698" lon="-6.354882968589664">
        <ele>122.22</ele>
        <time>2026-07-09T09:58:37Z</time>
      </trkpt>
      <trkpt lat="52.957560019567609" lon="-6.35502596385777">
        <ele>122.22</ele>
        <time>2026-07-09T09:58:38Z</time>
      </trkpt>
      <trkpt lat="52.957502016797662" lon="-6.355160996317864">
        <ele>122.22</ele>
        <time>2026-07-09T09:58:39Z</time>
      </trkpt>
      <trkpt lat="52.957442002370954" lon="-6.355299968272448">
        <ele>122.22</ele>
        <time>2026-07-09T09:58:40Z</time>
      </trkpt>
      <trkpt lat="52.957364972680807" lon="-6.355388984084129">
        <ele>121.73999999999999</ele>
        <time>2026-07-09T09:58:41Z</time>
      </trkpt>
      <trkpt lat="52.957273023203015" lon="-6.355469031259418">
        <ele>122.22</ele>
        <time>2026-07-09T09:58:42Z</time>
      </trkpt>
      <trkpt lat="52.957179984077811" lon="-6.355550000444055">
        <ele>122.22</ele>
        <time>2026-07-09T09:58:43Z</time>
      </trkpt>
      <trkpt lat="52.957085017114878" lon="-6.355633987113833">
        <ele>122.22</ele>
        <time>2026-07-09T09:58:44Z</time>
      </trkpt>
      <trkpt lat="52.956988960504532" lon="-6.355716967955232">
        <ele>122.22</ele>
        <time>2026-07-09T09:58:45Z</time>
      </trkpt>
      <trkpt lat="52.956913020461798" lon="-6.355784023180604">
        <ele>121.73999999999999</ele>
        <time>2026-07-09T09:58:46Z</time>
      </trkpt>
      <trkpt lat="52.956826016306877" lon="-6.355950990691781">
        <ele>121.26000000000001</ele>
        <time>2026-07-09T09:58:47Z</time>
      </trkpt>
      <trkpt lat="52.956756027415395" lon="-6.356087028980255">
        <ele>120.78</ele>
        <time>2026-07-09T09:58:48Z</time>
      </trkpt>
      <trkpt lat="52.956684026867151" lon="-6.356226000934839">
        <ele>120.78</ele>
        <time>2026-07-09T09:58:49Z</time>
      </trkpt>
      <trkpt lat="52.956613032147288" lon="-6.356362961232662">
        <ele>120.3</ele>
        <time>2026-07-09T09:58:50Z</time>
      </trkpt>
      <trkpt lat="52.956534996628761" lon="-6.356511991471052">
        <ele>120.3</ele>
        <time>2026-07-09T09:58:51Z</time>
      </trkpt>
      <trkpt lat="52.956456961110234" lon="-6.356662027537823">
        <ele>119.81999999999999</ele>
        <time>2026-07-09T09:58:52Z</time>
      </trkpt>
      <trkpt lat="52.955854972824454" lon="-6.357564004138112">
        <ele>118.86</ele>
        <time>2026-07-09T09:58:59Z</time>
      </trkpt>
      <trkpt lat="52.955751959234476" lon="-6.357658971101046">
        <ele>118.86</ele>
        <time>2026-07-09T09:59:00Z</time>
      </trkpt>
      <trkpt lat="52.95565196312964" lon="-6.357743041589856">
        <ele>118.86</ele>
        <time>2026-07-09T09:59:01Z</time>
      </trkpt>
      <trkpt lat="52.955427998676896" lon="-6.357831973582506">
        <ele>118.86</ele>
        <time>2026-07-09T09:59:03Z</time>
      </trkpt>
      <trkpt lat="52.954505989328027" lon="-6.358386017382145">
        <ele>120.78</ele>
        <time>2026-07-09T09:59:11Z</time>
      </trkpt>
      <trkpt lat="52.954192003235221" lon="-6.358642000705004">
        <ele>120.78</ele>
        <time>2026-07-09T09:59:14Z</time>
      </trkpt>
      <trkpt lat="52.954083038493991" lon="-6.358726993203163">
        <ele>120.78</ele>
        <time>2026-07-09T09:59:15Z</time>
      </trkpt>
      <trkpt lat="52.953715994954109" lon="-6.358831012621522">
        <ele>121.73999999999999</ele>
        <time>2026-07-09T09:59:19Z</time>
      </trkpt>
      <trkpt lat="52.953715994954109" lon="-6.358831012621522">
        <ele>121.26000000000001</ele>
        <time>2026-07-09T09:59:20Z</time>
      </trkpt>
      <trkpt lat="52.953548021614552" lon="-6.358663039281964">
        <ele>121.26000000000001</ele>
        <time>2026-07-09T09:59:21Z</time>
      </trkpt>
      <trkpt lat="52.953490018844604" lon="-6.358605036512017">
        <ele>121.26000000000001</ele>
        <time>2026-07-09T09:59:22Z</time>
      </trkpt>
      <trkpt lat="52.953479960560799" lon="-6.358594978228211">
        <ele>121.26000000000001</ele>
        <time>2026-07-09T09:59:23Z</time>
      </trkpt>
      <trkpt lat="52.95343603938818" lon="-6.358509985730052">
        <ele>121.73999999999999</ele>
        <time>2026-07-09T09:59:24Z</time>
      </trkpt>
      <trkpt lat="52.953388011083007" lon="-6.358415018767119">
        <ele>122.22</ele>
        <time>2026-07-09T09:59:25Z</time>
      </trkpt>
      <trkpt lat="52.953269993886352" lon="-6.358187031000853">
        <ele>124.15000000000001</ele>
        <time>2026-07-09T09:59:27Z</time>
      </trkpt>
      <trkpt lat="52.953206961974502" lon="-6.358063984662294">
        <ele>125.11</ele>
        <time>2026-07-09T09:59:28Z</time>
      </trkpt>
      <trkpt lat="52.953145019710064" lon="-6.357942027971149">
        <ele>125.59</ele>
        <time>2026-07-09T09:59:29Z</time>
      </trkpt>
      <trkpt lat="52.952939998358488" lon="-6.357543971389532">
        <ele>127.98999999999999</ele>
        <time>2026-07-09T09:59:32Z</time>
      </trkpt>
      <trkpt lat="52.952797003090382" lon="-6.357266027480364">
        <ele>129.43000000000001</ele>
        <time>2026-07-09T09:59:34Z</time>
      </trkpt>
      <trkpt lat="52.95260002836585" lon="-6.356881968677044">
        <ele>131.84</ele>
        <time>2026-07-09T09:59:37Z</time>
      </trkpt>
      <trkpt lat="52.952277995646" lon="-6.356256008148193">
        <ele>136.16</ele>
        <time>2026-07-09T09:59:42Z</time>
      </trkpt>
      <trkpt lat="52.952159978449345" lon="-6.356167998164892">
        <ele>136.63999999999999</ele>
        <time>2026-07-09T09:59:43Z</time>
      </trkpt>
      <trkpt lat="52.952070962637663" lon="-6.356102032586932">
        <ele>137.61000000000001</ele>
        <time>2026-07-09T09:59:44Z</time>
      </trkpt>
      <trkpt lat="52.951987981796265" lon="-6.356041012331843">
        <ele>138.09</ele>
        <time>2026-07-09T09:59:45Z</time>
      </trkpt>
      <trkpt lat="52.951900977641344" lon="-6.355975968763232">
        <ele>138.09</ele>
        <time>2026-07-09T09:59:46Z</time>
      </trkpt>
      <trkpt lat="52.95180500485003" lon="-6.355903968214989">
        <ele>138.09</ele>
        <time>2026-07-09T09:59:47Z</time>
      </trkpt>
      <trkpt lat="52.951695034280419" lon="-6.355822999030352">
        <ele>138.09</ele>
        <time>2026-07-09T09:59:48Z</time>
      </trkpt>
      <trkpt lat="52.95152697712183" lon="-6.355698024854064">
        <ele>138.56999999999999</ele>
        <time>2026-07-09T09:59:50Z</time>
      </trkpt>
      <trkpt lat="52.951435027644038" lon="-6.355646979063749">
        <ele>139.05000000000001</ele>
        <time>2026-07-09T09:59:51Z</time>
      </trkpt>
      <trkpt lat="52.951279040426016" lon="-6.355560980737209">
        <ele>139.05000000000001</ele>
        <time>2026-07-09T09:59:53Z</time>
      </trkpt>
      <trkpt lat="52.951178038492799" lon="-6.355504989624023">
        <ele>139.05000000000001</ele>
        <time>2026-07-09T09:59:54Z</time>
      </trkpt>
      <trkpt lat="52.95107401907444" lon="-6.355447992682457">
        <ele>139.05000000000001</ele>
        <time>2026-07-09T09:59:55Z</time>
      </trkpt>
      <trkpt lat="52.950976034626365" lon="-6.355394013226032">
        <ele>139.05000000000001</ele>
        <time>2026-07-09T09:59:56Z</time>
      </trkpt>
      <trkpt lat="52.950878972187638" lon="-6.355340033769608">
        <ele>139.53</ele>
        <time>2026-07-09T09:59:57Z</time>
      </trkpt>
      <trkpt lat="52.950776964426041" lon="-6.355283036828041">
        <ele>140.00999999999999</ele>
        <time>2026-07-09T09:59:58Z</time>
      </trkpt>
      <trkpt lat="52.950661964714527" lon="-6.355220004916191">
        <ele>140.00999999999999</ele>
        <time>2026-07-09T09:59:59Z</time>
      </trkpt>
      <trkpt lat="52.949651023373008" lon="-6.354326996952295">
        <ele>154.91</ele>
        <time>2026-07-09T10:00:09Z</time>
      </trkpt>
      <trkpt lat="52.949274005368352" lon="-6.353860963135958">
        <ele>164.03999999999999</ele>
        <time>2026-07-09T10:00:13Z</time>
      </trkpt>
      <trkpt lat="52.949179038405418" lon="-6.353745041415095">
        <ele>165.96000000000001</ele>
        <time>2026-07-09T10:00:14Z</time>
      </trkpt>
      <trkpt lat="52.949080970138311" lon="-6.353677986189723">
        <ele>167.88999999999999</ele>
        <time>2026-07-09T10:00:15Z</time>
      </trkpt>
      <trkpt lat="52.948320982977748" lon="-6.353388978168368">
        <ele>182.31</ele>
        <time>2026-07-09T10:00:22Z</time>
      </trkpt>
      <trkpt lat="52.948234984651208" lon="-6.353366011753678">
        <ele>183.75</ele>
        <time>2026-07-09T10:00:23Z</time>
      </trkpt>
      <trkpt lat="52.94815200380981" lon="-6.353423008695245">
        <ele>186.15000000000001</ele>
        <time>2026-07-09T10:00:24Z</time>
      </trkpt>
      <trkpt lat="52.948051001876593" lon="-6.353492997586727">
        <ele>188.08000000000001</ele>
        <time>2026-07-09T10:00:25Z</time>
      </trkpt>
      <trkpt lat="52.947942037135363" lon="-6.353575978428125">
        <ele>190.47999999999999</ele>
        <time>2026-07-09T10:00:26Z</time>
      </trkpt>
      <trkpt lat="52.947325967252254" lon="-6.354211997240782">
        <ele>201.05000000000001</ele>
        <time>2026-07-09T10:00:32Z</time>
      </trkpt>
      <trkpt lat="52.947236029431224" lon="-6.354334959760308">
        <ele>202.97999999999999</ele>
        <time>2026-07-09T10:00:33Z</time>
      </trkpt>
      <trkpt lat="52.947160005569458" lon="-6.354464963078499">
        <ele>204.41999999999999</ele>
        <time>2026-07-09T10:00:34Z</time>
      </trkpt>
      <trkpt lat="52.947082975879312" lon="-6.354598989710212">
        <ele>205.86000000000001</ele>
        <time>2026-07-09T10:00:35Z</time>
      </trkpt>
      <trkpt lat="52.947007035836577" lon="-6.354770986363292">
        <ele>207.30000000000001</ele>
        <time>2026-07-09T10:00:36Z</time>
      </trkpt>
      <trkpt lat="52.946355007588863" lon="-6.356646018102765">
        <ele>222.19999999999999</ele>
        <time>2026-07-09T10:00:46Z</time>
      </trkpt>
      <trkpt lat="52.946056025102735" lon="-6.357265021651983">
        <ele>226.53</ele>
        <time>2026-07-09T10:00:50Z</time>
      </trkpt>
      <trkpt lat="52.945960974320769" lon="-6.357394019141793">
        <ele>228.44999999999999</ele>
        <time>2026-07-09T10:00:51Z</time>
      </trkpt>
      <trkpt lat="52.945771040394902" lon="-6.357652014121413">
        <ele>231.33000000000001</ele>
        <time>2026-07-09T10:00:53Z</time>
      </trkpt>
      <trkpt lat="52.945678001269698" lon="-6.357778999954462">
        <ele>233.25999999999999</ele>
        <time>2026-07-09T10:00:54Z</time>
      </trkpt>
      <trkpt lat="52.945584040135145" lon="-6.357905985787511">
        <ele>234.69999999999999</ele>
        <time>2026-07-09T10:00:55Z</time>
      </trkpt>
      <trkpt lat="52.945491001009941" lon="-6.358080999925733">
        <ele>236.62</ele>
        <time>2026-07-09T10:00:56Z</time>
      </trkpt>
      <trkpt lat="52.945430986583233" lon="-6.358265988528729">
        <ele>238.06</ele>
        <time>2026-07-09T10:00:57Z</time>
      </trkpt>
      <trkpt lat="52.945368960499763" lon="-6.358457012102008">
        <ele>239.99000000000001</ele>
        <time>2026-07-09T10:00:58Z</time>
      </trkpt>
      <trkpt lat="52.944855988025665" lon="-6.35994203388691">
        <ele>254.41</ele>
        <time>2026-07-09T10:01:06Z</time>
      </trkpt>
      <trkpt lat="52.94478096999228" lon="-6.360106989741325">
        <ele>256.32999999999998</ele>
        <time>2026-07-09T10:01:07Z</time>
      </trkpt>
      <trkpt lat="52.944590030238032" lon="-6.360343024134636">
        <ele>259.20999999999998</ele>
        <time>2026-07-09T10:01:09Z</time>
      </trkpt>
      <trkpt lat="52.944489028304815" lon="-6.360457018017769">
        <ele>261.13999999999999</ele>
        <time>2026-07-09T10:01:10Z</time>
      </trkpt>
      <trkpt lat="52.944378973916173" lon="-6.360542010515928">
        <ele>262.10000000000002</ele>
        <time>2026-07-09T10:01:11Z</time>
      </trkpt>
      <trkpt lat="52.944050990045071" lon="-6.360797993838787">
        <ele>265.45999999999998</ele>
        <time>2026-07-09T10:01:14Z</time>
      </trkpt>
      <trkpt lat="52.943835994228721" lon="-6.360964961349964">
        <ele>266.89999999999998</ele>
        <time>2026-07-09T10:01:16Z</time>
      </trkpt>
      <trkpt lat="52.943727029487491" lon="-6.361056994646788">
        <ele>267.86000000000001</ele>
        <time>2026-07-09T10:01:17Z</time>
      </trkpt>
      <trkpt lat="52.942923037335277" lon="-6.362442020326853">
        <ele>276.51999999999998</ele>
        <time>2026-07-09T10:01:26Z</time>
      </trkpt>
      <trkpt lat="52.942582983523607" lon="-6.363110980018973">
        <ele>283.25</ele>
        <time>2026-07-09T10:01:30Z</time>
      </trkpt>
      <trkpt lat="52.94250100851059" lon="-6.363270990550518">
        <ele>284.69</ele>
        <time>2026-07-09T10:01:31Z</time>
      </trkpt>
      <trkpt lat="52.942334963008761" lon="-6.363596962764859">
        <ele>287.56999999999999</ele>
        <time>2026-07-09T10:01:33Z</time>
      </trkpt>
      <trkpt lat="52.942252987995744" lon="-6.363758984953165">
        <ele>289.00999999999999</ele>
        <time>2026-07-09T10:01:34Z</time>
      </trkpt>
      <trkpt lat="52.942170007154346" lon="-6.363922012969852">
        <ele>290.45999999999998</ele>
        <time>2026-07-09T10:01:35Z</time>
      </trkpt>
      <trkpt lat="52.941738003864884" lon="-6.365056000649929">
        <ele>297.67000000000002</ele>
        <time>2026-07-09T10:01:41Z</time>
      </trkpt>
      <trkpt lat="52.941680001094937" lon="-6.365265967324376">
        <ele>298.63</ele>
        <time>2026-07-09T10:01:42Z</time>
      </trkpt>
      <trkpt lat="52.941499035805464" lon="-6.366112036630511">
        <ele>301.99000000000001</ele>
        <time>2026-07-09T10:01:46Z</time>
      </trkpt>
      <trkpt lat="52.941438015550375" lon="-6.366299958899617">
        <ele>302.47000000000003</ele>
        <time>2026-07-09T10:01:47Z</time>
      </trkpt>
      <trkpt lat="52.941264007240534" lon="-6.367091964930296">
        <ele>304.88</ele>
        <time>2026-07-09T10:01:51Z</time>
      </trkpt>
      <trkpt lat="52.941227965056896" lon="-6.367306960746646">
        <ele>305.36000000000001</ele>
        <time>2026-07-09T10:01:52Z</time>
      </trkpt>
      <trkpt lat="52.941209021955729" lon="-6.367526985704899">
        <ele>305.83999999999997</ele>
        <time>2026-07-09T10:01:53Z</time>
      </trkpt>
      <trkpt lat="52.94119100086391" lon="-6.367749022319913">
        <ele>305.83999999999997</ele>
        <time>2026-07-09T10:01:54Z</time>
      </trkpt>
      <trkpt lat="52.94117197394371" lon="-6.367973992601037">
        <ele>306.31999999999999</ele>
        <time>2026-07-09T10:01:55Z</time>
      </trkpt>
      <trkpt lat="52.941153030842543" lon="-6.368201980367303">
        <ele>306.80000000000001</ele>
        <time>2026-07-09T10:01:56Z</time>
      </trkpt>
      <trkpt lat="52.94112796895206" lon="-6.368427034467459">
        <ele>307.27999999999997</ele>
        <time>2026-07-09T10:01:57Z</time>
      </trkpt>
      <trkpt lat="52.940789004787803" lon="-6.370690986514092">
        <ele>321.69999999999999</ele>
        <time>2026-07-09T10:02:07Z</time>
      </trkpt>
      <trkpt lat="52.940753968432546" lon="-6.370916962623596">
        <ele>323.13999999999999</ele>
        <time>2026-07-09T10:02:08Z</time>
      </trkpt>
      <trkpt lat="52.940132031217217" lon="-6.373383002355695">
        <ele>337.56</ele>
        <time>2026-07-09T10:02:19Z</time>
      </trkpt>
      <trkpt lat="52.939443038776517" lon="-6.375596998259425">
        <ele>349.57999999999998</ele>
        <time>2026-07-09T10:02:29Z</time>
      </trkpt>
      <trkpt lat="52.938529998064041" lon="-6.377597004175186">
        <ele>362.55000000000001</ele>
        <time>2026-07-09T10:02:39Z</time>
      </trkpt>
      <trkpt lat="52.9374960064888" lon="-6.378926960751414">
        <ele>373.13</ele>
        <time>2026-07-09T10:02:48Z</time>
      </trkpt>
      <trkpt lat="52.936836015433073" lon="-6.379464995115995">
        <ele>378.89999999999998</ele>
        <time>2026-07-09T10:02:53Z</time>
      </trkpt>
      <trkpt lat="52.936690002679825" lon="-6.379520986229181">
        <ele>379.86000000000001</ele>
        <time>2026-07-09T10:02:54Z</time>
      </trkpt>
      <trkpt lat="52.935591973364353" lon="-6.380040999501944">
        <ele>388.50999999999999</ele>
        <time>2026-07-09T10:03:02Z</time>
      </trkpt>
      <trkpt lat="52.93543397448957" lon="-6.380160022526979">
        <ele>389.47000000000003</ele>
        <time>2026-07-09T10:03:03Z</time>
      </trkpt>
      <trkpt lat="52.934285989031196" lon="-6.381605984643102">
        <ele>403.88999999999999</ele>
        <time>2026-07-09T10:03:14Z</time>
      </trkpt>
      <trkpt lat="52.933562966063619" lon="-6.382578033953905">
        <ele>415.43000000000001</ele>
        <time>2026-07-09T10:03:21Z</time>
      </trkpt>
      <trkpt lat="52.933472022414207" lon="-6.382694961503148">
        <ele>416.87</ele>
        <time>2026-07-09T10:03:22Z</time>
      </trkpt>
      <trkpt lat="52.933368002995849" lon="-6.382779031991959">
        <ele>418.31</ele>
        <time>2026-07-09T10:03:23Z</time>
      </trkpt>
      <trkpt lat="52.933235988020897" lon="-6.382850026711822">
        <ele>419.26999999999998</ele>
        <time>2026-07-09T10:03:24Z</time>
      </trkpt>
      <trkpt lat="52.933095004409552" lon="-6.38287098146975">
        <ele>420.70999999999998</ele>
        <time>2026-07-09T10:03:25Z</time>
      </trkpt>
      <trkpt lat="52.932583037763834" lon="-6.382947005331516">
        <ele>426</ele>
        <time>2026-07-09T10:03:29Z</time>
      </trkpt>
      <trkpt lat="52.932531991973519" lon="-6.382953962311149">
        <ele>426.95999999999998</ele>
        <time>2026-07-09T10:03:30Z</time>
      </trkpt>
      <trkpt lat="52.932506008073688" lon="-6.382957985624671">
        <ele>427.92000000000002</ele>
        <time>2026-07-09T10:03:31Z</time>
      </trkpt>
      <trkpt lat="52.932506008073688" lon="-6.382957985624671">
        <ele>429.85000000000002</ele>
        <time>2026-07-09T10:03:40Z</time>
      </trkpt>
      <trkpt lat="52.932343985885382" lon="-6.382982041686773">
        <ele>431.29000000000002</ele>
        <time>2026-07-09T10:04:02Z</time>
      </trkpt>
      <trkpt lat="52.931496994569898" lon="-6.383074996992946">
        <ele>436.57999999999998</ele>
        <time>2026-07-09T10:04:10Z</time>
      </trkpt>
      <trkpt lat="52.929497994482517" lon="-6.383040966466069">
        <ele>455.31999999999999</ele>
        <time>2026-07-09T10:04:25Z</time>
      </trkpt>
      <trkpt lat="52.929241005331278" lon="-6.383037026971579">
        <ele>457.72000000000003</ele>
        <time>2026-07-09T10:04:27Z</time>
      </trkpt>
      <trkpt lat="52.929120976477861" lon="-6.38304297812283">
        <ele>458.69</ele>
        <time>2026-07-09T10:04:28Z</time>
      </trkpt>
      <trkpt lat="52.929002037271857" lon="-6.383079020306468">
        <ele>459.64999999999998</ele>
        <time>2026-07-09T10:04:29Z</time>
      </trkpt>
      <trkpt lat="52.92887999676168" lon="-6.383144985884428">
        <ele>460.61000000000001</ele>
        <time>2026-07-09T10:04:30Z</time>
      </trkpt>
      <trkpt lat="52.928767008706927" lon="-6.383242970332503">
        <ele>461.08999999999997</ele>
        <time>2026-07-09T10:04:31Z</time>
      </trkpt>
      <trkpt lat="52.928652008995414" lon="-6.38334296643734">
        <ele>461.56999999999999</ele>
        <time>2026-07-09T10:04:32Z</time>
      </trkpt>
      <trkpt lat="52.92829804122448" lon="-6.38368402607739">
        <ele>460.13</ele>
        <time>2026-07-09T10:04:35Z</time>
      </trkpt>
      <trkpt lat="52.92819201014936" lon="-6.383829033002257">
        <ele>459.64999999999998</ele>
        <time>2026-07-09T10:04:36Z</time>
      </trkpt>
      <trkpt lat="52.928108023479581" lon="-6.383997006341815">
        <ele>458.69</ele>
        <time>2026-07-09T10:04:37Z</time>
      </trkpt>
      <trkpt lat="52.928025964647532" lon="-6.384161962196231">
        <ele>458.20999999999998</ele>
        <time>2026-07-09T10:04:38Z</time>
      </trkpt>
      <trkpt lat="52.927947007119656" lon="-6.384319961071014">
        <ele>457.24000000000001</ele>
        <time>2026-07-09T10:04:39Z</time>
      </trkpt>
      <trkpt lat="52.927867965772748" lon="-6.384477959945798">
        <ele>456.27999999999997</ele>
        <time>2026-07-09T10:04:40Z</time>
      </trkpt>
      <trkpt lat="52.927783979102969" lon="-6.384621039032936">
        <ele>455.31999999999999</ele>
        <time>2026-07-09T10:04:41Z</time>
      </trkpt>
      <trkpt lat="52.927684988826513" lon="-6.384741989895701">
        <ele>454.36000000000001</ele>
        <time>2026-07-09T10:04:42Z</time>
      </trkpt>
      <trkpt lat="52.926931958645582" lon="-6.385286981239915">
        <ele>446.67000000000002</ele>
        <time>2026-07-09T10:04:48Z</time>
      </trkpt>
      <trkpt lat="52.926793992519379" lon="-6.385323023423553">
        <ele>445.23000000000002</ele>
        <time>2026-07-09T10:04:49Z</time>
      </trkpt>
      <trkpt lat="52.925387006253004" lon="-6.385396029800177">
        <ele>433.20999999999998</ele>
        <time>2026-07-09T10:04:58Z</time>
      </trkpt>
      <trkpt lat="52.923857979476452" lon="-6.385015994310379">
        <ele>422.16000000000003</ele>
        <time>2026-07-09T10:05:08Z</time>
      </trkpt>
      <trkpt lat="52.922496004030108" lon="-6.385091012343764">
        <ele>410.62</ele>
        <time>2026-07-09T10:05:17Z</time>
      </trkpt>
      <trkpt lat="52.922361977398396" lon="-6.385167958214879">
        <ele>409.18000000000001</ele>
        <time>2026-07-09T10:05:18Z</time>
      </trkpt>
      <trkpt lat="52.922228034585714" lon="-6.385244987905026">
        <ele>408.22000000000003</ele>
        <time>2026-07-09T10:05:19Z</time>
      </trkpt>
      <trkpt lat="52.922098031267524" lon="-6.385348001495004">
        <ele>407.74000000000001</ele>
        <time>2026-07-09T10:05:20Z</time>
      </trkpt>
      <trkpt lat="52.921974984928966" lon="-6.385486973449588">
        <ele>406.76999999999998</ele>
        <time>2026-07-09T10:05:21Z</time>
      </trkpt>
      <trkpt lat="52.921847999095917" lon="-6.385629968717694">
        <ele>405.81</ele>
        <time>2026-07-09T10:05:22Z</time>
      </trkpt>
      <trkpt lat="52.92172696441412" lon="-6.385803977027535">
        <ele>405.32999999999998</ele>
        <time>2026-07-09T10:05:23Z</time>
      </trkpt>
      <trkpt lat="52.920447969809175" lon="-6.387945972383022">
        <ele>396.68000000000001</ele>
        <time>2026-07-09T10:05:34Z</time>
      </trkpt>
      <trkpt lat="52.919696029275656" lon="-6.390027031302452">
        <ele>386.58999999999997</ele>
        <time>2026-07-09T10:05:43Z</time>
      </trkpt>
      <trkpt lat="52.919308030977845" lon="-6.392406988888979">
        <ele>373.13</ele>
        <time>2026-07-09T10:05:52Z</time>
      </trkpt>
      <trkpt lat="52.919033020734787" lon="-6.395471999421716">
        <ele>359.19</ele>
        <time>2026-07-09T10:06:03Z</time>
      </trkpt>
      <trkpt lat="52.918809978291392" lon="-6.397722037509084">
        <ele>348.62</ele>
        <time>2026-07-09T10:06:12Z</time>
      </trkpt>
      <trkpt lat="52.918630018830299" lon="-6.399537976831198">
        <ele>338.04000000000002</ele>
        <time>2026-07-09T10:06:21Z</time>
      </trkpt>
      <trkpt lat="52.918646028265357" lon="-6.399717014282942">
        <ele>335.16000000000003</ele>
        <time>2026-07-09T10:06:27Z</time>
      </trkpt>
      <trkpt lat="52.918654996901751" lon="-6.399828996509314">
        <ele>333.70999999999998</ele>
        <time>2026-07-09T10:07:05Z</time>
      </trkpt>
      <trkpt lat="52.918728003278375" lon="-6.400670036673546">
        <ele>329.38999999999999</ele>
        <time>2026-07-09T10:07:10Z</time>
      </trkpt>
      <trkpt lat="52.919014999642968" lon="-6.402552025392652">
        <ele>318.32999999999998</ele>
        <time>2026-07-09T10:07:17Z</time>
      </trkpt>
      <trkpt lat="52.919593015685678" lon="-6.404515989124775">
        <ele>300.55000000000001</ele>
        <time>2026-07-09T10:07:25Z</time>
      </trkpt>
      <trkpt lat="52.919714972376823" lon="-6.404923014342785">
        <ele>295.74000000000001</ele>
        <time>2026-07-09T10:07:27Z</time>
      </trkpt>
      <trkpt lat="52.919767023995519" lon="-6.405099034309387">
        <ele>294.30000000000001</ele>
        <time>2026-07-09T10:07:28Z</time>
      </trkpt>
      <trkpt lat="52.919790996238589" lon="-6.405368009582162">
        <ele>292.86000000000001</ele>
        <time>2026-07-09T10:07:29Z</time>
      </trkpt>
      <trkpt lat="52.919790996238589" lon="-6.40557898208499">
        <ele>290.94</ele>
        <time>2026-07-09T10:07:30Z</time>
      </trkpt>
      <trkpt lat="52.919790996238589" lon="-6.405807975679636">
        <ele>289.49000000000001</ele>
        <time>2026-07-09T10:07:31Z</time>
      </trkpt>
      <trkpt lat="52.919572982937098" lon="-6.407713014632464">
        <ele>277</ele>
        <time>2026-07-09T10:07:39Z</time>
      </trkpt>
      <trkpt lat="52.918906034901738" lon="-6.409779991954565">
        <ele>261.13999999999999</ele>
        <time>2026-07-09T10:07:48Z</time>
      </trkpt>
      <trkpt lat="52.918216036632657" lon="-6.411549998447299">
        <ele>247.19999999999999</ele>
        <time>2026-07-09T10:07:56Z</time>
      </trkpt>
      <trkpt lat="52.918141018599272" lon="-6.411793995648623">
        <ele>245.75</ele>
        <time>2026-07-09T10:07:57Z</time>
      </trkpt>
      <trkpt lat="52.917339038103819" lon="-6.414112010970712">
        <ele>229.88999999999999</ele>
        <time>2026-07-09T10:08:07Z</time>
      </trkpt>
      <trkpt lat="52.916582990437746" lon="-6.415771041065455">
        <ele>217.88</ele>
        <time>2026-07-09T10:08:15Z</time>
      </trkpt>
      <trkpt lat="52.916250983253121" lon="-6.416422985494137">
        <ele>211.15000000000001</ele>
        <time>2026-07-09T10:08:19Z</time>
      </trkpt>
      <trkpt lat="52.915957029908895" lon="-6.417163023725152">
        <ele>204.41999999999999</ele>
        <time>2026-07-09T10:08:24Z</time>
      </trkpt>
      <trkpt lat="52.915921993553638" lon="-6.417283974587917">
        <ele>203.46000000000001</ele>
        <time>2026-07-09T10:08:25Z</time>
      </trkpt>
      <trkpt lat="52.915888968855143" lon="-6.417400985956192">
        <ele>202.49000000000001</ele>
        <time>2026-07-09T10:08:26Z</time>
      </trkpt>
      <trkpt lat="52.915901960805058" lon="-6.417521014809609">
        <ele>201.53</ele>
        <time>2026-07-09T10:08:27Z</time>
      </trkpt>
      <trkpt lat="52.915921993553638" lon="-6.417663004249334">
        <ele>200.56999999999999</ele>
        <time>2026-07-09T10:08:28Z</time>
      </trkpt>
      <trkpt lat="52.915970021858811" lon="-6.417794013395906">
        <ele>200.09</ele>
        <time>2026-07-09T10:08:29Z</time>
      </trkpt>
      <trkpt lat="52.916039004921913" lon="-6.417929967865348">
        <ele>199.61000000000001</ele>
        <time>2026-07-09T10:08:30Z</time>
      </trkpt>
      <trkpt lat="52.916391966864467" lon="-6.418678974732757">
        <ele>197.21000000000001</ele>
        <time>2026-07-09T10:08:35Z</time>
      </trkpt>
      <trkpt lat="52.916422979906201" lon="-6.418845020234585">
        <ele>196.72999999999999</ele>
        <time>2026-07-09T10:08:36Z</time>
      </trkpt>
      <trkpt lat="52.916452987119555" lon="-6.419010981917381">
        <ele>196.25</ele>
        <time>2026-07-09T10:08:37Z</time>
      </trkpt>
      <trkpt lat="52.916487017646432" lon="-6.419191025197506">
        <ele>196.25</ele>
        <time>2026-07-09T10:08:38Z</time>
      </trkpt>
      <trkpt lat="52.91648400016129" lon="-6.419333014637232">
        <ele>195.77000000000001</ele>
        <time>2026-07-09T10:08:39Z</time>
      </trkpt>
      <trkpt lat="52.916480982676148" lon="-6.419460000470281">
        <ele>195.28</ele>
        <time>2026-07-09T10:08:40Z</time>
      </trkpt>
      <trkpt lat="52.916457010433078" lon="-6.420579990372062">
        <ele>193.36000000000001</ele>
        <time>2026-07-09T10:08:48Z</time>
      </trkpt>
      <trkpt lat="52.916446030139923" lon="-6.421094974502921">
        <ele>192.88</ele>
        <time>2026-07-09T10:08:51Z</time>
      </trkpt>
      <trkpt lat="52.916403030976653" lon="-6.421256996691227">
        <ele>192.88</ele>
        <time>2026-07-09T10:08:52Z</time>
      </trkpt>
      <trkpt lat="52.916344022378325" lon="-6.42139102332294">
        <ele>192.88</ele>
        <time>2026-07-09T10:08:53Z</time>
      </trkpt>
      <trkpt lat="52.916281996294856" lon="-6.421531001105905">
        <ele>193.36000000000001</ele>
        <time>2026-07-09T10:08:54Z</time>
      </trkpt>
      <trkpt lat="52.916220976039767" lon="-6.421673996374011">
        <ele>193.36000000000001</ele>
        <time>2026-07-09T10:08:55Z</time>
      </trkpt>
      <trkpt lat="52.91577497497201" lon="-6.422880990430713">
        <ele>192.88</ele>
        <time>2026-07-09T10:09:03Z</time>
      </trkpt>
      <trkpt lat="52.915690988302231" lon="-6.422996995970607">
        <ele>192.88</ele>
        <time>2026-07-09T10:09:04Z</time>
      </trkpt>
      <trkpt lat="52.915601972490549" lon="-6.423119958490133">
        <ele>193.36000000000001</ele>
        <time>2026-07-09T10:09:05Z</time>
      </trkpt>
      <trkpt lat="52.915510023012757" lon="-6.423247028142214">
        <ele>193.36000000000001</ele>
        <time>2026-07-09T10:09:06Z</time>
      </trkpt>
      <trkpt lat="52.915329979732633" lon="-6.423493959009647">
        <ele>193.84</ele>
        <time>2026-07-09T10:09:08Z</time>
      </trkpt>
      <trkpt lat="52.915271976962686" lon="-6.423714989796281">
        <ele>194.31999999999999</ele>
        <time>2026-07-09T10:09:09Z</time>
      </trkpt>
      <trkpt lat="52.915238030254841" lon="-6.423897966742516">
        <ele>194.31999999999999</ele>
        <time>2026-07-09T10:09:10Z</time>
      </trkpt>
      <trkpt lat="52.915202993899584" lon="-6.424088990315795">
        <ele>194.80000000000001</ele>
        <time>2026-07-09T10:09:11Z</time>
      </trkpt>
      <trkpt lat="52.915166029706597" lon="-6.424289988353849">
        <ele>195.28</ele>
        <time>2026-07-09T10:09:12Z</time>
      </trkpt>
      <trkpt lat="52.915127975866199" lon="-6.424498027190566">
        <ele>195.77000000000001</ele>
        <time>2026-07-09T10:09:13Z</time>
      </trkpt>
      <trkpt lat="52.915006019175053" lon="-6.425157012417913">
        <ele>196.25</ele>
        <time>2026-07-09T10:09:16Z</time>
      </trkpt>
      <trkpt lat="52.914878027513623" lon="-6.425449037924409">
        <ele>196.72999999999999</ele>
        <time>2026-07-09T10:09:18Z</time>
      </trkpt>
      <trkpt lat="52.914794040843844" lon="-6.425579963251948">
        <ele>197.21000000000001</ele>
        <time>2026-07-09T10:09:19Z</time>
      </trkpt>
      <trkpt lat="52.914630006998777" lon="-6.425809040665627">
        <ele>197.69</ele>
        <time>2026-07-09T10:09:21Z</time>
      </trkpt>
      <trkpt lat="52.914579967036843" lon="-6.425938960164785">
        <ele>198.65000000000001</ele>
        <time>2026-07-09T10:09:22Z</time>
      </trkpt>
      <trkpt lat="52.914534034207463" lon="-6.426057983189821">
        <ele>199.13</ele>
        <time>2026-07-09T10:09:23Z</time>
      </trkpt>
      <trkpt lat="52.914534034207463" lon="-6.42618396319449">
        <ele>199.13</ele>
        <time>2026-07-09T10:09:24Z</time>
      </trkpt>
      <trkpt lat="52.914557000622153" lon="-6.426322013139725">
        <ele>199.61000000000001</ele>
        <time>2026-07-09T10:09:25Z</time>
      </trkpt>
      <trkpt lat="52.914602011442184" lon="-6.42646299675107">
        <ele>199.61000000000001</ele>
        <time>2026-07-09T10:09:26Z</time>
      </trkpt>
      <trkpt lat="52.914649033918977" lon="-6.42661202698946">
        <ele>199.61000000000001</ele>
        <time>2026-07-09T10:09:27Z</time>
      </trkpt>
      <trkpt lat="52.914812983945012" lon="-6.427122987806797">
        <ele>201.05000000000001</ele>
        <time>2026-07-09T10:09:30Z</time>
      </trkpt>
      <trkpt lat="52.914855983108282" lon="-6.427320968359709">
        <ele>201.53</ele>
        <time>2026-07-09T10:09:31Z</time>
      </trkpt>
      <trkpt lat="52.914855983108282" lon="-6.427521966397762">
        <ele>201.53</ele>
        <time>2026-07-09T10:09:32Z</time>
      </trkpt>
      <trkpt lat="52.914855983108282" lon="-6.427731011062861">
        <ele>202.00999999999999</ele>
        <time>2026-07-09T10:09:33Z</time>
      </trkpt>
      <trkpt lat="52.914855983108282" lon="-6.427935026586056">
        <ele>202.49000000000001</ele>
        <time>2026-07-09T10:09:34Z</time>
      </trkpt>
      <trkpt lat="52.914855983108282" lon="-6.428134012967348">
        <ele>202.97999999999999</ele>
        <time>2026-07-09T10:09:35Z</time>
      </trkpt>
      <trkpt lat="52.914891019463539" lon="-6.428507007658482">
        <ele>203.94</ele>
        <time>2026-07-09T10:09:37Z</time>
      </trkpt>
      <trkpt lat="52.914921026676893" lon="-6.428686967119575">
        <ele>204.41999999999999</ele>
        <time>2026-07-09T10:09:38Z</time>
      </trkpt>
      <trkpt lat="52.914950028061867" lon="-6.428871033713222">
        <ele>204.90000000000001</ele>
        <time>2026-07-09T10:09:39Z</time>
      </trkpt>
      <trkpt lat="52.914984980598092" lon="-6.42908301204443">
        <ele>204.90000000000001</ele>
        <time>2026-07-09T10:09:40Z</time>
      </trkpt>
      <trkpt lat="52.915039965882897" lon="-6.429231958463788">
        <ele>205.38</ele>
        <time>2026-07-09T10:09:41Z</time>
      </trkpt>
      <trkpt lat="52.915571965277195" lon="-6.430740030482411">
        <ele>206.34</ele>
        <time>2026-07-09T10:09:50Z</time>
      </trkpt>
      <trkpt lat="52.91575200855732" lon="-6.431686012074351">
        <ele>205.38</ele>
        <time>2026-07-09T10:09:55Z</time>
      </trkpt>
      <trkpt lat="52.915745973587036" lon="-6.431873012334108">
        <ele>204.90000000000001</ele>
        <time>2026-07-09T10:09:56Z</time>
      </trkpt>
      <trkpt lat="52.915741028264165" lon="-6.432040985673666">
        <ele>204.90000000000001</ele>
        <time>2026-07-09T10:09:57Z</time>
      </trkpt>
      <trkpt lat="52.915737004950643" lon="-6.432182975113392">
        <ele>204.90000000000001</ele>
        <time>2026-07-09T10:09:58Z</time>
      </trkpt>
      <trkpt lat="52.915691994130611" lon="-6.432294035330415">
        <ele>204.90000000000001</ele>
        <time>2026-07-09T10:09:59Z</time>
      </trkpt>
      <trkpt lat="52.91564698331058" lon="-6.432377016171813">
        <ele>204.90000000000001</ele>
        <time>2026-07-09T10:10:00Z</time>
      </trkpt>
      <trkpt lat="52.915598032996058" lon="-6.432416997849941">
        <ele>204.90000000000001</ele>
        <time>2026-07-09T10:10:01Z</time>
      </trkpt>
      <trkpt lat="52.915546987205744" lon="-6.432429989799857">
        <ele>204.41999999999999</ele>
        <time>2026-07-09T10:10:02Z</time>
      </trkpt>
      <trkpt lat="52.915492001920938" lon="-6.432395959272981">
        <ele>204.90000000000001</ele>
        <time>2026-07-09T10:10:03Z</time>
      </trkpt>
      <trkpt lat="52.915427964180708" lon="-6.432352038100362">
        <ele>204.90000000000001</ele>
        <time>2026-07-09T10:10:04Z</time>
      </trkpt>
      <trkpt lat="52.915360992774367" lon="-6.43230602145195">
        <ele>205.38</ele>
        <time>2026-07-09T10:10:05Z</time>
      </trkpt>
      <trkpt lat="52.915283041074872" lon="-6.432252964004874">
        <ele>205.38</ele>
        <time>2026-07-09T10:10:06Z</time>
      </trkpt>
      <trkpt lat="52.91519402526319" lon="-6.432192027568817">
        <ele>205.38</ele>
        <time>2026-07-09T10:10:07Z</time>
      </trkpt>
      <trkpt lat="52.915092017501593" lon="-6.432146010920405">
        <ele>205.38</ele>
        <time>2026-07-09T10:10:08Z</time>
      </trkpt>
      <trkpt lat="52.914301017299294" lon="-6.431822972372174">
        <ele>206.34</ele>
        <time>2026-07-09T10:10:15Z</time>
      </trkpt>
      <trkpt lat="52.914104964584112" lon="-6.431787014007568">
        <ele>206.34</ele>
        <time>2026-07-09T10:10:17Z</time>
      </trkpt>
      <trkpt lat="52.914026007056236" lon="-6.431825989857316">
        <ele>206.81999999999999</ele>
        <time>2026-07-09T10:10:18Z</time>
      </trkpt>
      <trkpt lat="52.9139260109514" lon="-6.431877035647631">
        <ele>207.30000000000001</ele>
        <time>2026-07-09T10:10:19Z</time>
      </trkpt>
      <trkpt lat="52.913804976269603" lon="-6.431936966255307">
        <ele>207.78</ele>
        <time>2026-07-09T10:10:20Z</time>
      </trkpt>
      <trkpt lat="52.913738004863262" lon="-6.43204802647233">
        <ele>208.25999999999999</ele>
        <time>2026-07-09T10:10:21Z</time>
      </trkpt>
      <trkpt lat="52.913658963516355" lon="-6.432179035618901">
        <ele>208.74000000000001</ele>
        <time>2026-07-09T10:10:22Z</time>
      </trkpt>
      <trkpt lat="52.913590986281633" lon="-6.432321025058627">
        <ele>209.22</ele>
        <time>2026-07-09T10:10:23Z</time>
      </trkpt>
      <trkpt lat="52.913533989340067" lon="-6.432487992569804">
        <ele>210.19</ele>
        <time>2026-07-09T10:10:24Z</time>
      </trkpt>
      <trkpt lat="52.913474980741739" lon="-6.432659989222884">
        <ele>210.66999999999999</ele>
        <time>2026-07-09T10:10:25Z</time>
      </trkpt>
      <trkpt lat="52.913414966315031" lon="-6.432837015017867">
        <ele>211.15000000000001</ele>
        <time>2026-07-09T10:10:26Z</time>
      </trkpt>
      <trkpt lat="52.913159988820553" lon="-6.433957004919648">
        <ele>212.11000000000001</ele>
        <time>2026-07-09T10:10:32Z</time>
      </trkpt>
      <trkpt lat="52.913158982992172" lon="-6.43415498547256">
        <ele>212.59</ele>
        <time>2026-07-09T10:10:33Z</time>
      </trkpt>
      <trkpt lat="52.913156971335411" lon="-6.434366963803768">
        <ele>213.06999999999999</ele>
        <time>2026-07-09T10:10:34Z</time>
      </trkpt>
      <trkpt lat="52.913143979385495" lon="-6.436373004689813">
        <ele>218.84</ele>
        <time>2026-07-09T10:10:43Z</time>
      </trkpt>
      <trkpt lat="52.913094023242593" lon="-6.437035007402301">
        <ele>224.12</ele>
        <time>2026-07-09T10:10:50Z</time>
      </trkpt>
      <trkpt lat="52.913139034062624" lon="-6.436980022117496">
        <ele>226.53</ele>
        <time>2026-07-09T10:10:57Z</time>
      </trkpt>
      <trkpt lat="52.91306896135211" lon="-6.437230976298451">
        <ele>227.00999999999999</ele>
        <time>2026-07-09T10:10:58Z</time>
      </trkpt>
      <trkpt lat="52.913101986050606" lon="-6.43804200924933">
        <ele>229.41</ele>
        <time>2026-07-09T10:11:04Z</time>
      </trkpt>
      <trkpt lat="52.913083964958787" lon="-6.438503013923764">
        <ele>229.88999999999999</ele>
        <time>2026-07-09T10:11:06Z</time>
      </trkpt>
      <trkpt lat="52.913073990494013" lon="-6.438757991418243">
        <ele>230.84999999999999</ele>
        <time>2026-07-09T10:11:07Z</time>
      </trkpt>
      <trkpt lat="52.91291800327599" lon="-6.441176002845168">
        <ele>236.13999999999999</ele>
        <time>2026-07-09T10:11:16Z</time>
      </trkpt>
      <trkpt lat="52.912306962534785" lon="-6.4440599642694">
        <ele>253.44</ele>
        <time>2026-07-09T10:11:27Z</time>
      </trkpt>
      <trkpt lat="52.911714026704431" lon="-6.446328023448587">
        <ele>266.42000000000002</ele>
        <time>2026-07-09T10:11:36Z</time>
      </trkpt>
      <trkpt lat="52.911443961784244" lon="-6.448138011619449">
        <ele>272.67000000000002</ele>
        <time>2026-07-09T10:11:43Z</time>
      </trkpt>
      <trkpt lat="52.910948004573584" lon="-6.450691977515817">
        <ele>281.31999999999999</ele>
        <time>2026-07-09T10:11:54Z</time>
      </trkpt>
      <trkpt lat="52.910800985991955" lon="-6.452826010063291">
        <ele>291.42000000000002</ele>
        <time>2026-07-09T10:12:03Z</time>
      </trkpt>
      <trkpt lat="52.910849014297128" lon="-6.454537007957697">
        <ele>299.11000000000001</ele>
        <time>2026-07-09T10:12:10Z</time>
      </trkpt>
      <trkpt lat="52.910880027338862" lon="-6.454763989895582">
        <ele>300.55000000000001</ele>
        <time>2026-07-09T10:12:11Z</time>
      </trkpt>
      <trkpt lat="52.911336002871394" lon="-6.457404037937522">
        <ele>309.68000000000001</ele>
        <time>2026-07-09T10:12:21Z</time>
      </trkpt>
      <trkpt lat="52.911685025319457" lon="-6.459732027724385">
        <ele>315.44999999999999</ele>
        <time>2026-07-09T10:12:30Z</time>
      </trkpt>
      <trkpt lat="52.911894991993904" lon="-6.46193697117269">
        <ele>308.24000000000001</ele>
        <time>2026-07-09T10:12:39Z</time>
      </trkpt>
      <trkpt lat="52.911894991993904" lon="-6.462145010009408">
        <ele>307.27999999999997</ele>
        <time>2026-07-09T10:12:40Z</time>
      </trkpt>
      <trkpt lat="52.91184201836586" lon="-6.462326981127262">
        <ele>306.31999999999999</ele>
        <time>2026-07-09T10:12:41Z</time>
      </trkpt>
      <trkpt lat="52.911777980625629" lon="-6.4624959602952">
        <ele>304.88</ele>
        <time>2026-07-09T10:12:42Z</time>
      </trkpt>
      <trkpt lat="52.911707991734147" lon="-6.462670974433422">
        <ele>303.43000000000001</ele>
        <time>2026-07-09T10:12:43Z</time>
      </trkpt>
      <trkpt lat="52.911634985357523" lon="-6.462854035198689">
        <ele>301.99000000000001</ele>
        <time>2026-07-09T10:12:44Z</time>
      </trkpt>
      <trkpt lat="52.911519985646009" lon="-6.463272962719202">
        <ele>299.58999999999997</ele>
        <time>2026-07-09T10:12:46Z</time>
      </trkpt>
      <trkpt lat="52.911466006189585" lon="-6.463479995727539">
        <ele>298.14999999999998</ele>
        <time>2026-07-09T10:12:47Z</time>
      </trkpt>
      <trkpt lat="52.911452008411288" lon="-6.463700020685792">
        <ele>297.18000000000001</ele>
        <time>2026-07-09T10:12:48Z</time>
      </trkpt>
      <trkpt lat="52.911438010632992" lon="-6.463924990966916">
        <ele>296.22000000000003</ele>
        <time>2026-07-09T10:12:49Z</time>
      </trkpt>
      <trkpt lat="52.911423007026315" lon="-6.464166976511478">
        <ele>295.25999999999999</ele>
        <time>2026-07-09T10:12:50Z</time>
      </trkpt>
      <trkpt lat="52.911458965390921" lon="-6.464393036440015">
        <ele>294.30000000000001</ele>
        <time>2026-07-09T10:12:51Z</time>
      </trkpt>
      <trkpt lat="52.911500036716461" lon="-6.464646002277732">
        <ele>293.81999999999999</ele>
        <time>2026-07-09T10:12:52Z</time>
      </trkpt>
      <trkpt lat="52.911543035879731" lon="-6.464911038056016">
        <ele>292.38</ele>
        <time>2026-07-09T10:12:53Z</time>
      </trkpt>
      <trkpt lat="52.911851992830634" lon="-6.467577992007136">
        <ele>279.88</ele>
        <time>2026-07-09T10:13:03Z</time>
      </trkpt>
      <trkpt lat="52.911931034177542" lon="-6.469396026805043">
        <ele>267.86000000000001</ele>
        <time>2026-07-09T10:13:10Z</time>
      </trkpt>
      <trkpt lat="52.911880994215608" lon="-6.470515010878444">
        <ele>259.69</ele>
        <time>2026-07-09T10:13:15Z</time>
      </trkpt>
      <trkpt lat="52.911874959245324" lon="-6.470697987824678">
        <ele>258.25</ele>
        <time>2026-07-09T10:13:16Z</time>
      </trkpt>
      <trkpt lat="52.911901026964188" lon="-6.47087199613452">
        <ele>256.81</ele>
        <time>2026-07-09T10:13:17Z</time>
      </trkpt>
      <trkpt lat="52.911947965621948" lon="-6.471027983352542">
        <ele>255.37</ele>
        <time>2026-07-09T10:13:18Z</time>
      </trkpt>
      <trkpt lat="52.912017032504082" lon="-6.471156980842352">
        <ele>254.41</ele>
        <time>2026-07-09T10:13:19Z</time>
      </trkpt>
      <trkpt lat="52.912066988646984" lon="-6.471248008310795">
        <ele>252.96000000000001</ele>
        <time>2026-07-09T10:13:20Z</time>
      </trkpt>
      <trkpt lat="52.912177965044975" lon="-6.471394021064043">
        <ele>252.47999999999999</ele>
        <time>2026-07-09T10:13:21Z</time>
      </trkpt>
      <trkpt lat="52.913318993523717" lon="-6.472944002598524">
        <ele>243.83000000000001</ele>
        <time>2026-07-09T10:13:33Z</time>
      </trkpt>
      <trkpt lat="52.913464000448585" lon="-6.473190011456609">
        <ele>242.87</ele>
        <time>2026-07-09T10:13:35Z</time>
      </trkpt>
      <trkpt lat="52.913494007661939" lon="-6.473324960097671">
        <ele>241.91</ele>
        <time>2026-07-09T10:13:36Z</time>
      </trkpt>
      <trkpt lat="52.913508005440235" lon="-6.47345001809299">
        <ele>241.91</ele>
        <time>2026-07-09T10:13:37Z</time>
      </trkpt>
      <trkpt lat="52.913526026532054" lon="-6.473608016967773">
        <ele>241.43000000000001</ele>
        <time>2026-07-09T10:13:38Z</time>
      </trkpt>
      <trkpt lat="52.9134960193187" lon="-6.473706001415849">
        <ele>241.43000000000001</ele>
        <time>2026-07-09T10:13:39Z</time>
      </trkpt>
      <trkpt lat="52.913460982963443" lon="-6.473818989470601">
        <ele>241.43000000000001</ele>
        <time>2026-07-09T10:13:40Z</time>
      </trkpt>
      <trkpt lat="52.913398034870625" lon="-6.473916973918676">
        <ele>240.94999999999999</ele>
        <time>2026-07-09T10:13:41Z</time>
      </trkpt>
      <trkpt lat="52.913323016837239" lon="-6.473971959203482">
        <ele>240.47</ele>
        <time>2026-07-09T10:13:42Z</time>
      </trkpt>
      <trkpt lat="52.91324196383357" lon="-6.474030967801809">
        <ele>239.50999999999999</ele>
        <time>2026-07-09T10:13:43Z</time>
      </trkpt>
      <trkpt lat="52.913159988820553" lon="-6.474089976400137">
        <ele>239.02000000000001</ele>
        <time>2026-07-09T10:13:44Z</time>
      </trkpt>
      <trkpt lat="52.913074996322393" lon="-6.474153008311987">
        <ele>238.53999999999999</ele>
        <time>2026-07-09T10:13:45Z</time>
      </trkpt>
      <trkpt lat="52.912883972749114" lon="-6.47433103993535">
        <ele>238.53999999999999</ele>
        <time>2026-07-09T10:13:47Z</time>
      </trkpt>
      <trkpt lat="52.912780959159136" lon="-6.474456014111638">
        <ele>238.06</ele>
        <time>2026-07-09T10:13:48Z</time>
      </trkpt>
      <trkpt lat="52.912349039688706" lon="-6.475122962146998">
        <ele>238.53999999999999</ele>
        <time>2026-07-09T10:13:52Z</time>
      </trkpt>
      <trkpt lat="52.912258012220263" lon="-6.475294958800077">
        <ele>239.02000000000001</ele>
        <time>2026-07-09T10:13:53Z</time>
      </trkpt>
      <trkpt lat="52.912173019722104" lon="-6.475463015958667">
        <ele>239.50999999999999</ele>
        <time>2026-07-09T10:13:54Z</time>
      </trkpt>
      <trkpt lat="52.912147035822272" lon="-6.475656973198056">
        <ele>239.99000000000001</ele>
        <time>2026-07-09T10:13:55Z</time>
      </trkpt>
      <trkpt lat="52.912121973931789" lon="-6.475849002599716">
        <ele>240.47</ele>
        <time>2026-07-09T10:13:56Z</time>
      </trkpt>
      <trkpt lat="52.912109987810254" lon="-6.476052012294531">
        <ele>240.47</ele>
        <time>2026-07-09T10:13:57Z</time>
      </trkpt>
      <trkpt lat="52.912109987810254" lon="-6.476277988404036">
        <ele>240.94999999999999</ele>
        <time>2026-07-09T10:13:58Z</time>
      </trkpt>
      <trkpt lat="52.912217024713755" lon="-6.478410009294748">
        <ele>241.91</ele>
        <time>2026-07-09T10:14:06Z</time>
      </trkpt>
      <trkpt lat="52.912436965852976" lon="-6.481153992936015">
        <ele>238.53999999999999</ele>
        <time>2026-07-09T10:14:16Z</time>
      </trkpt>
      <trkpt lat="52.91270200163126" lon="-6.48432101123035">
        <ele>235.66</ele>
        <time>2026-07-09T10:14:27Z</time>
      </trkpt>
      <trkpt lat="52.912949016317725" lon="-6.487280996516347">
        <ele>241.43000000000001</ele>
        <time>2026-07-09T10:14:38Z</time>
      </trkpt>
      <trkpt lat="52.913186978548765" lon="-6.490142997354269">
        <ele>230.37</ele>
        <time>2026-07-09T10:14:49Z</time>
      </trkpt>
      <trkpt lat="52.913228971883655" lon="-6.490700980648398">
        <ele>228.44999999999999</ele>
        <time>2026-07-09T10:14:51Z</time>
      </trkpt>
      <trkpt lat="52.913250010460615" lon="-6.490973979234695">
        <ele>227.49000000000001</ele>
        <time>2026-07-09T10:14:52Z</time>
      </trkpt>
      <trkpt lat="52.913459977135062" lon="-6.493716035038233">
        <ele>217.40000000000001</ele>
        <time>2026-07-09T10:15:02Z</time>
      </trkpt>
      <trkpt lat="52.91362602263689" lon="-6.495899017900229">
        <ele>210.66999999999999</ele>
        <time>2026-07-09T10:15:11Z</time>
      </trkpt>
      <trkpt lat="52.913779998198152" lon="-6.497916039079428">
        <ele>206.81999999999999</ele>
        <time>2026-07-09T10:15:21Z</time>
      </trkpt>
      <trkpt lat="52.913845963776112" lon="-6.498771999031305">
        <ele>205.38</ele>
        <time>2026-07-09T10:15:26Z</time>
      </trkpt>
      <trkpt lat="52.913854010403156" lon="-6.498884987086058">
        <ele>205.38</ele>
        <time>2026-07-09T10:15:27Z</time>
      </trkpt>
      <trkpt lat="52.913860967382789" lon="-6.498977020382881">
        <ele>205.38</ele>
        <time>2026-07-09T10:15:28Z</time>
      </trkpt>
      <trkpt lat="52.913867002353072" lon="-6.499052038416266">
        <ele>205.38</ele>
        <time>2026-07-09T10:15:29Z</time>
      </trkpt>
      <trkpt lat="52.913873037323356" lon="-6.499127978459001">
        <ele>204.90000000000001</ele>
        <time>2026-07-09T10:15:30Z</time>
      </trkpt>
      <trkpt lat="52.913878988474607" lon="-6.499208025634289">
        <ele>204.90000000000001</ele>
        <time>2026-07-09T10:15:31Z</time>
      </trkpt>
      <trkpt lat="52.913944032043219" lon="-6.499344985932112">
        <ele>204.41999999999999</ele>
        <time>2026-07-09T10:15:32Z</time>
      </trkpt>
      <trkpt lat="52.91399197652936" lon="-6.499334005638957">
        <ele>204.41999999999999</ele>
        <time>2026-07-09T10:15:33Z</time>
      </trkpt>
      <trkpt lat="52.914051990956068" lon="-6.499320007860661">
        <ele>204.41999999999999</ele>
        <time>2026-07-09T10:15:34Z</time>
      </trkpt>
      <trkpt lat="52.914117034524679" lon="-6.499305004253984">
        <ele>204.41999999999999</ele>
        <time>2026-07-09T10:15:35Z</time>
      </trkpt>
      <trkpt lat="52.914169002324343" lon="-6.499293018132448">
        <ele>203.94</ele>
        <time>2026-07-09T10:15:36Z</time>
      </trkpt>
      <trkpt lat="52.914863023906946" lon="-6.499309027567506">
        <ele>204.90000000000001</ele>
        <time>2026-07-09T10:15:43Z</time>
      </trkpt>
      <trkpt lat="52.914967965334654" lon="-6.499307015910745">
        <ele>204.90000000000001</ele>
        <time>2026-07-09T10:15:44Z</time>
      </trkpt>
      <trkpt lat="52.915077013894916" lon="-6.499305004253984">
        <ele>205.38</ele>
        <time>2026-07-09T10:15:45Z</time>
      </trkpt>
      <trkpt lat="52.916315020993352" lon="-6.49927600286901">
        <ele>206.81999999999999</ele>
        <time>2026-07-09T10:15:55Z</time>
      </trkpt>
      <trkpt lat="52.918056026101112" lon="-6.499237027019262">
        <ele>214.03</ele>
        <time>2026-07-09T10:16:08Z</time>
      </trkpt>
      <trkpt lat="52.919585974887013" lon="-6.499082967638969">
        <ele>210.66999999999999</ele>
        <time>2026-07-09T10:16:18Z</time>
      </trkpt>
      <trkpt lat="52.92136101052165" lon="-6.499118003994227">
        <ele>222.68000000000001</ele>
        <time>2026-07-09T10:16:30Z</time>
      </trkpt>
      <trkpt lat="52.922522993758321" lon="-6.499334005638957">
        <ele>225.56999999999999</ele>
        <time>2026-07-09T10:16:38Z</time>
      </trkpt>
      <trkpt lat="52.924345973879099" lon="-6.499971030279994">
        <ele>228.93000000000001</ele>
        <time>2026-07-09T10:16:50Z</time>
      </trkpt>
      <trkpt lat="52.925738040357828" lon="-6.500661028549075">
        <ele>228.44999999999999</ele>
        <time>2026-07-09T10:16:59Z</time>
      </trkpt>
      <trkpt lat="52.92677597142756" lon="-6.501516988500953">
        <ele>229.88999999999999</ele>
        <time>2026-07-09T10:17:06Z</time>
      </trkpt>
      <trkpt lat="52.927088029682636" lon="-6.501736007630825">
        <ele>230.84999999999999</ele>
        <time>2026-07-09T10:17:11Z</time>
      </trkpt>
      <trkpt lat="52.927496982738376" lon="-6.50198201648891">
        <ele>232.30000000000001</ele>
        <time>2026-07-09T10:17:19Z</time>
      </trkpt>
      <trkpt lat="52.927556997165084" lon="-6.502017974853516">
        <ele>232.78</ele>
        <time>2026-07-09T10:17:20Z</time>
      </trkpt>
      <trkpt lat="52.92827901430428" lon="-6.502452995628119">
        <ele>232.78</ele>
        <time>2026-07-09T10:17:27Z</time>
      </trkpt>
      <trkpt lat="52.929742997512221" lon="-6.503363018855453">
        <ele>229.41</ele>
        <time>2026-07-09T10:17:38Z</time>
      </trkpt>
      <trkpt lat="52.930565010756254" lon="-6.50395997799933">
        <ele>232.30000000000001</ele>
        <time>2026-07-09T10:17:46Z</time>
      </trkpt>
      <trkpt lat="52.930705994367599" lon="-6.504154019057751">
        <ele>233.25999999999999</ele>
        <time>2026-07-09T10:17:48Z</time>
      </trkpt>
      <trkpt lat="52.930784029886127" lon="-6.504259966313839">
        <ele>234.22</ele>
        <time>2026-07-09T10:17:49Z</time>
      </trkpt>
      <trkpt lat="52.931235982105136" lon="-6.504848962649703">
        <ele>236.62</ele>
        <time>2026-07-09T10:17:54Z</time>
      </trkpt>
      <trkpt lat="52.931340001523495" lon="-6.504950970411301">
        <ele>237.09999999999999</ele>
        <time>2026-07-09T10:17:55Z</time>
      </trkpt>
      <trkpt lat="52.931452989578247" lon="-6.505019031465054">
        <ele>237.58000000000001</ele>
        <time>2026-07-09T10:17:56Z</time>
      </trkpt>
      <trkpt lat="52.931564971804619" lon="-6.505087008699775">
        <ele>237.58000000000001</ele>
        <time>2026-07-09T10:17:57Z</time>
      </trkpt>
      <trkpt lat="52.931668991222978" lon="-6.505125984549522">
        <ele>238.53999999999999</ele>
        <time>2026-07-09T10:17:58Z</time>
      </trkpt>
      <trkpt lat="52.931783990934491" lon="-6.505112992599607">
        <ele>239.02000000000001</ele>
        <time>2026-07-09T10:17:59Z</time>
      </trkpt>
      <trkpt lat="52.931904019787908" lon="-6.505100000649691">
        <ele>239.50999999999999</ele>
        <time>2026-07-09T10:18:00Z</time>
      </trkpt>
      <trkpt lat="52.932025976479053" lon="-6.505086002871394">
        <ele>240.47</ele>
        <time>2026-07-09T10:18:01Z</time>
      </trkpt>
      <trkpt lat="52.932151034474373" lon="-6.505072005093098">
        <ele>240.94999999999999</ele>
        <time>2026-07-09T10:18:02Z</time>
      </trkpt>
      <trkpt lat="52.932406011968851" lon="-6.505044009536505">
        <ele>242.87</ele>
        <time>2026-07-09T10:18:04Z</time>
      </trkpt>
      <trkpt lat="52.932527968659997" lon="-6.505094971507788">
        <ele>243.83000000000001</ele>
        <time>2026-07-09T10:18:05Z</time>
      </trkpt>
      <trkpt lat="52.932643974199891" lon="-6.505144005641341">
        <ele>244.31</ele>
        <time>2026-07-09T10:18:06Z</time>
      </trkpt>
      <trkpt lat="52.932759979739785" lon="-6.505193961784244">
        <ele>245.27000000000001</ele>
        <time>2026-07-09T10:18:07Z</time>
      </trkpt>
      <trkpt lat="52.932885959744453" lon="-6.505265040323138">
        <ele>245.75</ele>
        <time>2026-07-09T10:18:08Z</time>
      </trkpt>
      <trkpt lat="52.933925986289978" lon="-6.506419982761145">
        <ele>250.56</ele>
        <time>2026-07-09T10:18:17Z</time>
      </trkpt>
      <trkpt lat="52.934021959081292" lon="-6.506579993292689">
        <ele>251.03999999999999</ele>
        <time>2026-07-09T10:18:18Z</time>
      </trkpt>
      <trkpt lat="52.93509098701179" lon="-6.508533982560039">
        <ele>255.37</ele>
        <time>2026-07-09T10:18:29Z</time>
      </trkpt>
      <trkpt lat="52.936491016298532" lon="-6.511869980022311">
        <ele>260.17000000000002</ele>
        <time>2026-07-09T10:18:44Z</time>
      </trkpt>
      <trkpt lat="52.937332978472114" lon="-6.513894964009523">
        <ele>256.81</ele>
        <time>2026-07-09T10:18:54Z</time>
      </trkpt>
      <trkpt lat="52.937767999246716" lon="-6.514761988073587">
        <ele>255.84999999999999</ele>
        <time>2026-07-09T10:18:59Z</time>
      </trkpt>
      <trkpt lat="52.937872018665075" lon="-6.514906994998455">
        <ele>256.32999999999998</ele>
        <time>2026-07-09T10:19:00Z</time>
      </trkpt>
      <trkpt lat="52.939032996073365" lon="-6.516069984063506">
        <ele>264.01999999999998</ele>
        <time>2026-07-09T10:19:09Z</time>
      </trkpt>
      <trkpt lat="52.940166983753443" lon="-6.517117973417044">
        <ele>271.23000000000002</ele>
        <time>2026-07-09T10:19:18Z</time>
      </trkpt>
      <trkpt lat="52.941656028851867" lon="-6.518492018803954">
        <ele>280.36000000000001</ele>
        <time>2026-07-09T10:19:30Z</time>
      </trkpt>
      <trkpt lat="52.943073995411396" lon="-6.519572027027607">
        <ele>282.27999999999997</ele>
        <time>2026-07-09T10:19:40Z</time>
      </trkpt>
      <trkpt lat="52.943215984851122" lon="-6.519675962626934">
        <ele>282.76999999999998</ele>
        <time>2026-07-09T10:19:41Z</time>
      </trkpt>
      <trkpt lat="52.943356968462467" lon="-6.519779982045293">
        <ele>282.76999999999998</ele>
        <time>2026-07-09T10:19:42Z</time>
      </trkpt>
      <trkpt lat="52.945415982976556" lon="-6.521288976073265">
        <ele>290.94</ele>
        <time>2026-07-09T10:19:57Z</time>
      </trkpt>
      <trkpt lat="52.946850964799523" lon="-6.522347023710609">
        <ele>298.63</ele>
        <time>2026-07-09T10:20:08Z</time>
      </trkpt>
      <trkpt lat="52.948561040684581" lon="-6.52364001609385">
        <ele>305.83999999999997</ele>
        <time>2026-07-09T10:20:21Z</time>
      </trkpt>
      <trkpt lat="52.949813967570662" lon="-6.524826977401972">
        <ele>308.24000000000001</ele>
        <time>2026-07-09T10:20:30Z</time>
      </trkpt>
      <trkpt lat="52.951592020690441" lon="-6.527092019096017">
        <ele>310.63999999999999</ele>
        <time>2026-07-09T10:20:43Z</time>
      </trkpt>
      <trkpt lat="52.952979980036616" lon="-6.529321018606424">
        <ele>315.93000000000001</ele>
        <time>2026-07-09T10:20:55Z</time>
      </trkpt>
      <trkpt lat="52.954069962725043" lon="-6.531701982021332">
        <ele>316.88999999999999</ele>
        <time>2026-07-09T10:21:07Z</time>
      </trkpt>
      <trkpt lat="52.954938998445868" lon="-6.533149033784866">
        <ele>310.63999999999999</ele>
        <time>2026-07-09T10:21:16Z</time>
      </trkpt>
      <trkpt lat="52.954999012872577" lon="-6.533316001296043">
        <ele>309.68000000000001</ele>
        <time>2026-07-09T10:21:17Z</time>
      </trkpt>
      <trkpt lat="52.955038994550705" lon="-6.533497972413898">
        <ele>308.72000000000003</ele>
        <time>2026-07-09T10:21:18Z</time>
      </trkpt>
      <trkpt lat="52.955062966793776" lon="-6.533692013472319">
        <ele>307.75999999999999</ele>
        <time>2026-07-09T10:21:19Z</time>
      </trkpt>
      <trkpt lat="52.955088028684258" lon="-6.533890999853611">
        <ele>307.27999999999997</ele>
        <time>2026-07-09T10:21:20Z</time>
      </trkpt>
      <trkpt lat="52.955116024240851" lon="-6.534109013155103">
        <ele>306.31999999999999</ele>
        <time>2026-07-09T10:21:21Z</time>
      </trkpt>
      <trkpt lat="52.955261031165719" lon="-6.536281015723944">
        <ele>298.63</ele>
        <time>2026-07-09T10:21:30Z</time>
      </trkpt>
      <trkpt lat="52.95509397983551" lon="-6.539186015725136">
        <ele>290.45999999999998</ele>
        <time>2026-07-09T10:21:41Z</time>
      </trkpt>
      <trkpt lat="52.954967999830842" lon="-6.541336979717016">
        <ele>285.17000000000002</ele>
        <time>2026-07-09T10:21:50Z</time>
      </trkpt>
      <trkpt lat="52.954970011487603" lon="-6.541568990796804">
        <ele>284.69</ele>
        <time>2026-07-09T10:21:51Z</time>
      </trkpt>
      <trkpt lat="52.955029020085931" lon="-6.542007029056549">
        <ele>284.20999999999998</ele>
        <time>2026-07-09T10:21:53Z</time>
      </trkpt>
      <trkpt lat="52.955059027299285" lon="-6.54222303070128">
        <ele>283.73000000000002</ele>
        <time>2026-07-09T10:21:54Z</time>
      </trkpt>
      <trkpt lat="52.955088028684258" lon="-6.542442971840501">
        <ele>283.73000000000002</ele>
        <time>2026-07-09T10:21:55Z</time>
      </trkpt>
      <trkpt lat="52.955119041725993" lon="-6.542666014283896">
        <ele>282.76999999999998</ele>
        <time>2026-07-09T10:21:56Z</time>
      </trkpt>
      <trkpt lat="52.955149970948696" lon="-6.542894002050161">
        <ele>282.27999999999997</ele>
        <time>2026-07-09T10:21:57Z</time>
      </trkpt>
      <trkpt lat="52.95535197481513" lon="-6.545173041522503">
        <ele>276.51999999999998</ele>
        <time>2026-07-09T10:22:07Z</time>
      </trkpt>
      <trkpt lat="52.955453982576728" lon="-6.545939985662699">
        <ele>273.63</ele>
        <time>2026-07-09T10:22:11Z</time>
      </trkpt>
      <trkpt lat="52.955453982576728" lon="-6.54611399397254">
        <ele>273.14999999999998</ele>
        <time>2026-07-09T10:22:12Z</time>
      </trkpt>
      <trkpt lat="52.955469992011786" lon="-6.546249026432633">
        <ele>272.67000000000002</ele>
        <time>2026-07-09T10:22:13Z</time>
      </trkpt>
      <trkpt lat="52.955487007275224" lon="-6.546386992558837">
        <ele>272.19</ele>
        <time>2026-07-09T10:22:14Z</time>
      </trkpt>
      <trkpt lat="52.955504022538662" lon="-6.546526970341802">
        <ele>271.70999999999998</ele>
        <time>2026-07-09T10:22:15Z</time>
      </trkpt>
      <trkpt lat="52.95554400421679" lon="-6.546687986701727">
        <ele>271.23000000000002</ele>
        <time>2026-07-09T10:22:16Z</time>
      </trkpt>
      <trkpt lat="52.955612987279892" lon="-6.546785971149802">
        <ele>270.75</ele>
        <time>2026-07-09T10:22:17Z</time>
      </trkpt>
      <trkpt lat="52.955685993656516" lon="-6.546893008053303">
        <ele>270.26999999999998</ele>
        <time>2026-07-09T10:22:18Z</time>
      </trkpt>
      <trkpt lat="52.955962009727955" lon="-6.54722903855145">
        <ele>268.35000000000002</ele>
        <time>2026-07-09T10:22:21Z</time>
      </trkpt>
      <trkpt lat="52.95605898834765" lon="-6.547344960272312">
        <ele>267.86000000000001</ele>
        <time>2026-07-09T10:22:22Z</time>
      </trkpt>
      <trkpt lat="52.956355037167668" lon="-6.547699011862278">
        <ele>267.38</ele>
        <time>2026-07-09T10:22:25Z</time>
      </trkpt>
      <trkpt lat="52.956453021615744" lon="-6.547816023230553">
        <ele>267.38</ele>
        <time>2026-07-09T10:22:26Z</time>
      </trkpt>
      <trkpt lat="52.956551006063819" lon="-6.547933034598827">
        <ele>267.38</ele>
        <time>2026-07-09T10:22:27Z</time>
      </trkpt>
      <trkpt lat="52.956643961369991" lon="-6.548045016825199">
        <ele>267.38</ele>
        <time>2026-07-09T10:22:28Z</time>
      </trkpt>
      <trkpt lat="52.956735994666815" lon="-6.548153981566429">
        <ele>268.35000000000002</ele>
        <time>2026-07-09T10:22:29Z</time>
      </trkpt>
      <trkpt lat="52.957715000957251" lon="-6.549546970054507">
        <ele>266.89999999999998</ele>
        <time>2026-07-09T10:22:39Z</time>
      </trkpt>
      <trkpt lat="52.957810973748565" lon="-6.549709998071194">
        <ele>266.42000000000002</ele>
        <time>2026-07-09T10:22:40Z</time>
      </trkpt>
      <trkpt lat="52.958781011402607" lon="-6.551518980413675">
        <ele>262.57999999999998</ele>
        <time>2026-07-09T10:22:50Z</time>
      </trkpt>
      <trkpt lat="52.958987038582563" lon="-6.551948972046375">
        <ele>260.64999999999998</ele>
        <time>2026-07-09T10:22:52Z</time>
      </trkpt>
      <trkpt lat="52.959091980010271" lon="-6.552157010883093">
        <ele>259.69</ele>
        <time>2026-07-09T10:22:53Z</time>
      </trkpt>
      <trkpt lat="52.95988499186933" lon="-6.553512029349804">
        <ele>253.93000000000001</ele>
        <time>2026-07-09T10:23:00Z</time>
      </trkpt>
      <trkpt lat="52.960997018963099" lon="-6.555412039160729">
        <ele>243.83000000000001</ele>
        <time>2026-07-09T10:23:10Z</time>
      </trkpt>
      <trkpt lat="52.961818026378751" lon="-6.556864036247134">
        <ele>233.74000000000001</ele>
        <time>2026-07-09T10:23:18Z</time>
      </trkpt>
      <trkpt lat="52.961962027475238" lon="-6.55717802233994">
        <ele>231.33000000000001</ele>
        <time>2026-07-09T10:23:20Z</time>
      </trkpt>
      <trkpt lat="52.96201198361814" lon="-6.557354964315891">
        <ele>230.37</ele>
        <time>2026-07-09T10:23:21Z</time>
      </trkpt>
      <trkpt lat="52.962555969133973" lon="-6.559172999113798">
        <ele>225.09</ele>
        <time>2026-07-09T10:23:30Z</time>
      </trkpt>
      <trkpt lat="52.963282009586692" lon="-6.561361011117697">
        <ele>222.68000000000001</ele>
        <time>2026-07-09T10:23:40Z</time>
      </trkpt>
      <trkpt lat="52.963413018733263" lon="-6.561766024678946">
        <ele>221.72</ele>
        <time>2026-07-09T10:23:42Z</time>
      </trkpt>
      <trkpt lat="52.963822977617383" lon="-6.563037978485227">
        <ele>215.94999999999999</ele>
        <time>2026-07-09T10:23:48Z</time>
      </trkpt>
      <trkpt lat="52.964707016944885" lon="-6.564820976927877">
        <ele>207.78</ele>
        <time>2026-07-09T10:23:57Z</time>
      </trkpt>
      <trkpt lat="52.965763974934816" lon="-6.566960960626602">
        <ele>205.86000000000001</ele>
        <time>2026-07-09T10:24:08Z</time>
      </trkpt>
      <trkpt lat="52.96682302840054" lon="-6.569106979295611">
        <ele>203.94</ele>
        <time>2026-07-09T10:24:19Z</time>
      </trkpt>
      <trkpt lat="52.967213038355112" lon="-6.570127978920937">
        <ele>201.05000000000001</ele>
        <time>2026-07-09T10:24:24Z</time>
      </trkpt>
      <trkpt lat="52.967416970059276" lon="-6.570680011063814">
        <ele>197.21000000000001</ele>
        <time>2026-07-09T10:24:27Z</time>
      </trkpt>
      <trkpt lat="52.967568011954427" lon="-6.57097103074193">
        <ele>194.80000000000001</ele>
        <time>2026-07-09T10:24:29Z</time>
      </trkpt>
      <trkpt lat="52.967642024159431" lon="-6.571112014353275">
        <ele>193.84</ele>
        <time>2026-07-09T10:24:30Z</time>
      </trkpt>
      <trkpt lat="52.967740008607507" lon="-6.571200024336577">
        <ele>192.88</ele>
        <time>2026-07-09T10:24:31Z</time>
      </trkpt>
      <trkpt lat="52.967818966135383" lon="-6.571271019056439">
        <ele>192.40000000000001</ele>
        <time>2026-07-09T10:24:32Z</time>
      </trkpt>
      <trkpt lat="52.967918962240219" lon="-6.571319969370961">
        <ele>191.44</ele>
        <time>2026-07-09T10:24:33Z</time>
      </trkpt>
      <trkpt lat="52.968030022457242" lon="-6.571347964927554">
        <ele>190.47999999999999</ele>
        <time>2026-07-09T10:24:34Z</time>
      </trkpt>
      <trkpt lat="52.968127001076937" lon="-6.571343019604683">
        <ele>189.52000000000001</ele>
        <time>2026-07-09T10:24:35Z</time>
      </trkpt>
      <trkpt lat="52.968243006616831" lon="-6.571336984634399">
        <ele>188.56</ele>
        <time>2026-07-09T10:24:36Z</time>
      </trkpt>
      <trkpt lat="52.968367980793118" lon="-6.571331033483148">
        <ele>188.08000000000001</ele>
        <time>2026-07-09T10:24:37Z</time>
      </trkpt>
      <trkpt lat="52.968854969367385" lon="-6.571345031261444">
        <ele>186.63</ele>
        <time>2026-07-09T10:24:41Z</time>
      </trkpt>
      <trkpt lat="52.968995030969381" lon="-6.571415020152926">
        <ele>186.15000000000001</ele>
        <time>2026-07-09T10:24:42Z</time>
      </trkpt>
      <trkpt lat="52.96912201680243" lon="-6.571513004601002">
        <ele>185.66999999999999</ele>
        <time>2026-07-09T10:24:43Z</time>
      </trkpt>
      <trkpt lat="52.970334040001035" lon="-6.572133013978601">
        <ele>180.87</ele>
        <time>2026-07-09T10:24:52Z</time>
      </trkpt>
      <trkpt lat="52.970449039712548" lon="-6.572163021191955">
        <ele>180.38</ele>
        <time>2026-07-09T10:24:53Z</time>
      </trkpt>
      <trkpt lat="52.970558004453778" lon="-6.572163021191955">
        <ele>179.90000000000001</ele>
        <time>2026-07-09T10:24:54Z</time>
      </trkpt>
      <trkpt lat="52.970656994730234" lon="-6.572163021191955">
        <ele>179.41999999999999</ele>
        <time>2026-07-09T10:24:55Z</time>
      </trkpt>
      <trkpt lat="52.970751039683819" lon="-6.572185987606645">
        <ele>179.41999999999999</ele>
        <time>2026-07-09T10:24:56Z</time>
      </trkpt>
      <trkpt lat="52.970850029960275" lon="-6.572241978719831">
        <ele>178.94</ele>
        <time>2026-07-09T10:24:57Z</time>
      </trkpt>
      <trkpt lat="52.97097098082304" lon="-6.572310039773583">
        <ele>178.94</ele>
        <time>2026-07-09T10:24:58Z</time>
      </trkpt>
      <trkpt lat="52.971091009676456" lon="-6.572378017008305">
        <ele>178.46000000000001</ele>
        <time>2026-07-09T10:24:59Z</time>
      </trkpt>
      <trkpt lat="52.972058029845357" lon="-6.573107996955514">
        <ele>174.62</ele>
        <time>2026-07-09T10:25:07Z</time>
      </trkpt>
      <trkpt lat="52.973311962559819" lon="-6.573962029069662">
        <ele>172.21000000000001</ele>
        <time>2026-07-09T10:25:17Z</time>
      </trkpt>
      <trkpt lat="52.974125007167459" lon="-6.57449796795845">
        <ele>171.72999999999999</ele>
        <time>2026-07-09T10:25:24Z</time>
      </trkpt>
      <trkpt lat="52.974226009100676" lon="-6.574564017355442">
        <ele>171.72999999999999</ele>
        <time>2026-07-09T10:25:25Z</time>
      </trkpt>
      <trkpt lat="52.97434201464057" lon="-6.574522024020553">
        <ele>171.72999999999999</ele>
        <time>2026-07-09T10:25:26Z</time>
      </trkpt>
      <trkpt lat="52.975238040089607" lon="-6.574146011844277">
        <ele>173.66</ele>
        <time>2026-07-09T10:25:34Z</time>
      </trkpt>
      <trkpt lat="52.97539503313601" lon="-6.574079040437937">
        <ele>175.58000000000001</ele>
        <time>2026-07-09T10:25:36Z</time>
      </trkpt>
      <trkpt lat="52.975410036742687" lon="-6.574073005467653">
        <ele>176.53999999999999</ele>
        <time>2026-07-09T10:25:37Z</time>
      </trkpt>
      <trkpt lat="52.975525036454201" lon="-6.574064958840609">
        <ele>177.02000000000001</ele>
        <time>2026-07-09T10:25:38Z</time>
      </trkpt>
      <trkpt lat="52.975570969283581" lon="-6.57415397465229">
        <ele>177.5</ele>
        <time>2026-07-09T10:25:39Z</time>
      </trkpt>
      <trkpt lat="52.975626960396767" lon="-6.574262017384172">
        <ele>177.97999999999999</ele>
        <time>2026-07-09T10:25:40Z</time>
      </trkpt>
      <trkpt lat="52.975693009793758" lon="-6.574390009045601">
        <ele>178.46000000000001</ele>
        <time>2026-07-09T10:25:41Z</time>
      </trkpt>
      <trkpt lat="52.9764489736408" lon="-6.575585016980767">
        <ele>181.34999999999999</ele>
        <time>2026-07-09T10:25:49Z</time>
      </trkpt>
      <trkpt lat="52.976883994415402" lon="-6.576035041362047">
        <ele>181.83000000000001</ele>
        <time>2026-07-09T10:25:53Z</time>
      </trkpt>
      <trkpt lat="52.977098990231752" lon="-6.576202008873224">
        <ele>182.31</ele>
        <time>2026-07-09T10:25:55Z</time>
      </trkpt>
      <trkpt lat="52.977214995771646" lon="-6.57623503357172">
        <ele>182.31</ele>
        <time>2026-07-09T10:25:56Z</time>
      </trkpt>
      <trkpt lat="52.977322032675147" lon="-6.576225981116295">
        <ele>182.78999999999999</ele>
        <time>2026-07-09T10:25:57Z</time>
      </trkpt>
      <trkpt lat="52.977425968274474" lon="-6.576217012479901">
        <ele>183.75</ele>
        <time>2026-07-09T10:25:58Z</time>
      </trkpt>
      <trkpt lat="52.977531999349594" lon="-6.576208965852857">
        <ele>184.22999999999999</ele>
        <time>2026-07-09T10:25:59Z</time>
      </trkpt>
      <trkpt lat="52.977842967957258" lon="-6.576182981953025">
        <ele>186.15000000000001</ele>
        <time>2026-07-09T10:26:02Z</time>
      </trkpt>
      <trkpt lat="52.978291986510158" lon="-6.576146017760038">
        <ele>188.56</ele>
        <time>2026-07-09T10:26:06Z</time>
      </trkpt>
      <trkpt lat="52.97915599308908" lon="-6.576076028868556">
        <ele>192.88</ele>
        <time>2026-07-09T10:26:13Z</time>
      </trkpt>
      <trkpt lat="52.979273004457355" lon="-6.57606597058475">
        <ele>193.36000000000001</ele>
        <time>2026-07-09T10:26:14Z</time>
      </trkpt>
      <trkpt lat="52.979386998340487" lon="-6.576055996119976">
        <ele>193.84</ele>
        <time>2026-07-09T10:26:15Z</time>
      </trkpt>
      <trkpt lat="52.980740005150437" lon="-6.575963040813804">
        <ele>201.05000000000001</ele>
        <time>2026-07-09T10:26:27Z</time>
      </trkpt>
      <trkpt lat="52.980841007083654" lon="-6.57597896642983">
        <ele>201.53</ele>
        <time>2026-07-09T10:26:28Z</time>
      </trkpt>
      <trkpt lat="52.980921976268291" lon="-6.57600000500679">
        <ele>202.00999999999999</ele>
        <time>2026-07-09T10:26:29Z</time>
      </trkpt>
      <trkpt lat="52.980986014008522" lon="-6.576017020270228">
        <ele>202.00999999999999</ele>
        <time>2026-07-09T10:26:30Z</time>
      </trkpt>
      <trkpt lat="52.981100007891655" lon="-6.576047027483583">
        <ele>202.49000000000001</ele>
        <time>2026-07-09T10:26:36Z</time>
      </trkpt>
      <trkpt lat="52.981137977913022" lon="-6.576057001948357">
        <ele>202.97999999999999</ele>
        <time>2026-07-09T10:26:39Z</time>
      </trkpt>
      <trkpt lat="52.981208972632885" lon="-6.576011991128326">
        <ele>203.46000000000001</ele>
        <time>2026-07-09T10:26:40Z</time>
      </trkpt>
      <trkpt lat="52.981257000938058" lon="-6.575909983366728">
        <ele>203.46000000000001</ele>
        <time>2026-07-09T10:26:41Z</time>
      </trkpt>
      <trkpt lat="52.981771985068917" lon="-6.574820000678301">
        <ele>205.86000000000001</ele>
        <time>2026-07-09T10:26:48Z</time>
      </trkpt>
      <trkpt lat="52.981868041679263" lon="-6.574680022895336">
        <ele>205.86000000000001</ele>
        <time>2026-07-09T10:26:49Z</time>
      </trkpt>
      <trkpt lat="52.981976000592113" lon="-6.574524035677314">
        <ele>206.34</ele>
        <time>2026-07-09T10:26:50Z</time>
      </trkpt>
      <trkpt lat="52.982658036053181" lon="-6.573664974421263">
        <ele>209.22</ele>
        <time>2026-07-09T10:26:57Z</time>
      </trkpt>
      <trkpt lat="52.982733976095915" lon="-6.573532037436962">
        <ele>209.22</ele>
        <time>2026-07-09T10:26:58Z</time>
      </trkpt>
      <trkpt lat="52.982775969430804" lon="-6.573370015248656">
        <ele>209.69999999999999</ele>
        <time>2026-07-09T10:26:59Z</time>
      </trkpt>
      <trkpt lat="52.982821986079216" lon="-6.573190977796912">
        <ele>209.69999999999999</ele>
        <time>2026-07-09T10:27:00Z</time>
      </trkpt>
      <trkpt lat="52.982873031869531" lon="-6.572997020557523">
        <ele>209.22</ele>
        <time>2026-07-09T10:27:01Z</time>
      </trkpt>
      <trkpt lat="52.982927011325955" lon="-6.572789987549186">
        <ele>208.74000000000001</ele>
        <time>2026-07-09T10:27:02Z</time>
      </trkpt>
      <trkpt lat="52.982984008267522" lon="-6.572572980076075">
        <ele>208.25999999999999</ele>
        <time>2026-07-09T10:27:03Z</time>
      </trkpt>
      <trkpt lat="52.983341999351978" lon="-6.571417031809688">
        <ele>209.69999999999999</ele>
        <time>2026-07-09T10:27:09Z</time>
      </trkpt>
      <trkpt lat="52.983364965766668" lon="-6.571217961609364">
        <ele>209.69999999999999</ele>
        <time>2026-07-09T10:27:10Z</time>
      </trkpt>
      <trkpt lat="52.983387010172009" lon="-6.571027021855116">
        <ele>210.19</ele>
        <time>2026-07-09T10:27:11Z</time>
      </trkpt>
      <trkpt lat="52.983376029878855" lon="-6.57084203325212">
        <ele>210.19</ele>
        <time>2026-07-09T10:27:12Z</time>
      </trkpt>
      <trkpt lat="52.983354991301894" lon="-6.570651009678841">
        <ele>209.69999999999999</ele>
        <time>2026-07-09T10:27:13Z</time>
      </trkpt>
      <trkpt lat="52.983333030715585" lon="-6.57045403495431">
        <ele>209.69999999999999</ele>
        <time>2026-07-09T10:27:14Z</time>
      </trkpt>
      <trkpt lat="52.983287014067173" lon="-6.57026301138103">
        <ele>209.69999999999999</ele>
        <time>2026-07-09T10:27:15Z</time>
      </trkpt>
      <trkpt lat="52.982841012999415" lon="-6.568711018189788">
        <ele>210.19</ele>
        <time>2026-07-09T10:27:23Z</time>
      </trkpt>
      <trkpt lat="52.982746968045831" lon="-6.568345986306667">
        <ele>207.30000000000001</ele>
        <time>2026-07-09T10:27:25Z</time>
      </trkpt>
      <trkpt lat="52.982740011066198" lon="-6.568162003532052">
        <ele>206.34</ele>
        <time>2026-07-09T10:27:26Z</time>
      </trkpt>
      <trkpt lat="52.982739005237818" lon="-6.566960038617253">
        <ele>204.90000000000001</ele>
        <time>2026-07-09T10:27:32Z</time>
      </trkpt>
      <trkpt lat="52.983046034350991" lon="-6.564587960019708">
        <ele>205.38</ele>
        <time>2026-07-09T10:27:43Z</time>
      </trkpt>
      <trkpt lat="52.983323978260159" lon="-6.562473038211465">
        <ele>204.90000000000001</ele>
        <time>2026-07-09T10:27:52Z</time>
      </trkpt>
      <trkpt lat="52.983347028493881" lon="-6.562231974676251">
        <ele>204.90000000000001</ele>
        <time>2026-07-09T10:27:53Z</time>
      </trkpt>
      <trkpt lat="52.983368989080191" lon="-6.561999041587114">
        <ele>204.41999999999999</ele>
        <time>2026-07-09T10:27:54Z</time>
      </trkpt>
      <trkpt lat="52.983392039313912" lon="-6.56175596639514">
        <ele>203.94</ele>
        <time>2026-07-09T10:27:55Z</time>
      </trkpt>
      <trkpt lat="52.983374018222094" lon="-6.56151900999248">
        <ele>203.46000000000001</ele>
        <time>2026-07-09T10:27:56Z</time>
      </trkpt>
      <trkpt lat="52.983354991301894" lon="-6.561270989477634">
        <ele>202.97999999999999</ele>
        <time>2026-07-09T10:27:57Z</time>
      </trkpt>
      <trkpt lat="52.983336970210075" lon="-6.561035960912705">
        <ele>202.49000000000001</ele>
        <time>2026-07-09T10:27:58Z</time>
      </trkpt>
      <trkpt lat="52.983203027397394" lon="-6.558916009962559">
        <ele>196.72999999999999</ele>
        <time>2026-07-09T10:28:07Z</time>
      </trkpt>
      <trkpt lat="52.983192969113588" lon="-6.558694979175925">
        <ele>196.25</ele>
        <time>2026-07-09T10:28:08Z</time>
      </trkpt>
      <trkpt lat="52.983135972172022" lon="-6.557331997901201">
        <ele>195.77000000000001</ele>
        <time>2026-07-09T10:28:14Z</time>
      </trkpt>
      <trkpt lat="52.983419029042125" lon="-6.555327968671918">
        <ele>193.84</ele>
        <time>2026-07-09T10:28:23Z</time>
      </trkpt>
      <trkpt lat="52.983475020155311" lon="-6.554905017837882">
        <ele>193.36000000000001</ele>
        <time>2026-07-09T10:28:25Z</time>
      </trkpt>
      <trkpt lat="52.983469991013408" lon="-6.5547089651227">
        <ele>193.36000000000001</ele>
        <time>2026-07-09T10:28:26Z</time>
      </trkpt>
      <trkpt lat="52.983464039862156" lon="-6.554517019540072">
        <ele>192.88</ele>
        <time>2026-07-09T10:28:27Z</time>
      </trkpt>
      <trkpt lat="52.983477031812072" lon="-6.553518986329436">
        <ele>194.80000000000001</ele>
        <time>2026-07-09T10:28:32Z</time>
      </trkpt>
      <trkpt lat="52.983509972691536" lon="-6.553207011893392">
        <ele>195.28</ele>
        <time>2026-07-09T10:28:34Z</time>
      </trkpt>
      <trkpt lat="52.983534028753638" lon="-6.553085977211595">
        <ele>195.28</ele>
        <time>2026-07-09T10:28:35Z</time>
      </trkpt>
      <trkpt lat="52.983587002381682" lon="-6.552993021905422">
        <ele>194.80000000000001</ele>
        <time>2026-07-09T10:28:36Z</time>
      </trkpt>
      <trkpt lat="52.983778025954962" lon="-6.552662020549178">
        <ele>193.36000000000001</ele>
        <time>2026-07-09T10:28:39Z</time>
      </trkpt>
      <trkpt lat="52.983848014846444" lon="-6.552539980039001">
        <ele>192.88</ele>
        <time>2026-07-09T10:28:40Z</time>
      </trkpt>
      <trkpt lat="52.983927978202701" lon="-6.552401008084416">
        <ele>192.40000000000001</ele>
        <time>2026-07-09T10:28:41Z</time>
      </trkpt>
      <trkpt lat="52.984610013663769" lon="-6.551286969333887">
        <ele>189.52000000000001</ele>
        <time>2026-07-09T10:28:49Z</time>
      </trkpt>
      <trkpt lat="52.984807994216681" lon="-6.550963008776307">
        <ele>189.03999999999999</ele>
        <time>2026-07-09T10:28:51Z</time>
      </trkpt>
      <trkpt lat="52.985376035794616" lon="-6.549500031396747">
        <ele>187.11000000000001</ele>
        <time>2026-07-09T10:28:59Z</time>
      </trkpt>
      <trkpt lat="52.985576028004289" lon="-6.548984963446856">
        <ele>186.63</ele>
        <time>2026-07-09T10:29:02Z</time>
      </trkpt>
      <trkpt lat="52.985641993582249" lon="-6.548815984278917">
        <ele>186.15000000000001</ele>
        <time>2026-07-09T10:29:03Z</time>
      </trkpt>
      <trkpt lat="52.986470963805914" lon="-6.546681029722095">
        <ele>180.38</ele>
        <time>2026-07-09T10:29:14Z</time>
      </trkpt>
      <trkpt lat="52.986877989023924" lon="-6.545647960156202">
        <ele>178.94</ele>
        <time>2026-07-09T10:29:21Z</time>
      </trkpt>
      <trkpt lat="52.986931968480349" lon="-6.545513011515141">
        <ele>178.94</ele>
        <time>2026-07-09T10:29:22Z</time>
      </trkpt>
      <trkpt lat="52.987003969028592" lon="-6.545442016795278">
        <ele>178.46000000000001</ele>
        <time>2026-07-09T10:29:23Z</time>
      </trkpt>
      <trkpt lat="52.987103965133429" lon="-6.545414021238685">
        <ele>178.46000000000001</ele>
        <time>2026-07-09T10:29:24Z</time>
      </trkpt>
      <trkpt lat="52.987183006480336" lon="-6.545425001531839">
        <ele>177.97999999999999</ele>
        <time>2026-07-09T10:29:25Z</time>
      </trkpt>
      <trkpt lat="52.987265987321734" lon="-6.545435981824994">
        <ele>177.97999999999999</ele>
        <time>2026-07-09T10:29:26Z</time>
      </trkpt>
      <trkpt lat="52.9873610381037" lon="-6.54544897377491">
        <ele>177.5</ele>
        <time>2026-07-09T10:29:27Z</time>
      </trkpt>
      <trkpt lat="52.98779496923089" lon="-6.545507982373238">
        <ele>175.09999999999999</ele>
        <time>2026-07-09T10:29:31Z</time>
      </trkpt>
      <trkpt lat="52.987891025841236" lon="-6.545521980151534">
        <ele>174.62</ele>
        <time>2026-07-09T10:29:32Z</time>
      </trkpt>
      <trkpt lat="52.987983981147408" lon="-6.545533966273069">
        <ele>174.13999999999999</ele>
        <time>2026-07-09T10:29:33Z</time>
      </trkpt>
      <trkpt lat="52.988058999180794" lon="-6.545473029837012">
        <ele>174.62</ele>
        <time>2026-07-09T10:29:34Z</time>
      </trkpt>
      <trkpt lat="52.988149020820856" lon="-6.545400023460388">
        <ele>174.62</ele>
        <time>2026-07-09T10:29:35Z</time>
      </trkpt>
      <trkpt lat="52.988245999440551" lon="-6.545321987941861">
        <ele>175.09999999999999</ele>
        <time>2026-07-09T10:29:36Z</time>
      </trkpt>
      <trkpt lat="52.988338032737374" lon="-6.545246969908476">
        <ele>176.06</ele>
        <time>2026-07-09T10:29:37Z</time>
      </trkpt>
      <trkpt lat="52.98918703570962" lon="-6.544465022161603">
        <ele>187.11000000000001</ele>
        <time>2026-07-09T10:29:45Z</time>
      </trkpt>
      <trkpt lat="52.990108039230108" lon="-6.543087959289551">
        <ele>200.56999999999999</ele>
        <time>2026-07-09T10:29:55Z</time>
      </trkpt>
      <trkpt lat="52.990904990583658" lon="-6.542551014572382">
        <ele>207.30000000000001</ele>
        <time>2026-07-09T10:30:02Z</time>
      </trkpt>
      <trkpt lat="52.991009010002017" lon="-6.542455041781068">
        <ele>208.25999999999999</ele>
        <time>2026-07-09T10:30:03Z</time>
      </trkpt>
      <trkpt lat="52.991665983572602" lon="-6.541652977466583">
        <ele>214.03</ele>
        <time>2026-07-09T10:30:10Z</time>
      </trkpt>
      <trkpt lat="52.991762962192297" lon="-6.541524985805154">
        <ele>214.50999999999999</ele>
        <time>2026-07-09T10:30:11Z</time>
      </trkpt>
      <trkpt lat="52.991859018802643" lon="-6.541427001357079">
        <ele>214.99000000000001</ele>
        <time>2026-07-09T10:30:12Z</time>
      </trkpt>
      <trkpt lat="52.991950968280435" lon="-6.541339997202158">
        <ele>215.47</ele>
        <time>2026-07-09T10:30:13Z</time>
      </trkpt>
      <trkpt lat="52.992033027112484" lon="-6.541261961683631">
        <ele>215.94999999999999</ele>
        <time>2026-07-09T10:30:14Z</time>
      </trkpt>
      <trkpt lat="52.99211299046874" lon="-6.541186021640897">
        <ele>216.43000000000001</ele>
        <time>2026-07-09T10:30:15Z</time>
      </trkpt>
      <trkpt lat="52.992294961586595" lon="-6.541083008050919">
        <ele>216.91</ele>
        <time>2026-07-09T10:30:17Z</time>
      </trkpt>
      <trkpt lat="52.993226023390889" lon="-6.540817972272635">
        <ele>216.91</ele>
        <time>2026-07-09T10:30:24Z</time>
      </trkpt>
      <trkpt lat="52.993350997567177" lon="-6.540729040279985">
        <ele>216.91</ele>
        <time>2026-07-09T10:30:25Z</time>
      </trkpt>
      <trkpt lat="52.994296979159117" lon="-6.539511987939477">
        <ele>215.94999999999999</ele>
        <time>2026-07-09T10:30:34Z</time>
      </trkpt>
      <trkpt lat="52.994394041597843" lon="-6.539375027641654">
        <ele>215.94999999999999</ele>
        <time>2026-07-09T10:30:35Z</time>
      </trkpt>
      <trkpt lat="52.994590010493994" lon="-6.539098005741835">
        <ele>216.43000000000001</ele>
        <time>2026-07-09T10:30:37Z</time>
      </trkpt>
      <trkpt lat="52.994681037962437" lon="-6.538968002423644">
        <ele>216.91</ele>
        <time>2026-07-09T10:30:38Z</time>
      </trkpt>
      <trkpt lat="52.995260981842875" lon="-6.538145989179611">
        <ele>220.28</ele>
        <time>2026-07-09T10:30:46Z</time>
      </trkpt>
      <trkpt lat="52.995504979044199" lon="-6.537763020023704">
        <ele>223.63999999999999</ele>
        <time>2026-07-09T10:30:52Z</time>
      </trkpt>
      <trkpt lat="52.995533980429173" lon="-6.537711974233389">
        <ele>224.12</ele>
        <time>2026-07-09T10:30:53Z</time>
      </trkpt>
      <trkpt lat="52.995557030662894" lon="-6.53767098672688">
        <ele>225.09</ele>
        <time>2026-07-09T10:30:54Z</time>
      </trkpt>
      <trkpt lat="52.995577985420823" lon="-6.537633016705513">
        <ele>225.56999999999999</ele>
        <time>2026-07-09T10:30:55Z</time>
      </trkpt>
      <trkpt lat="52.995585026219487" lon="-6.537489015609026">
        <ele>226.05000000000001</ele>
        <time>2026-07-09T10:30:56Z</time>
      </trkpt>
      <trkpt lat="52.995558036491275" lon="-6.537445010617375">
        <ele>226.53</ele>
        <time>2026-07-09T10:30:57Z</time>
      </trkpt>
      <trkpt lat="52.995530040934682" lon="-6.537396982312203">
        <ele>227.00999999999999</ele>
        <time>2026-07-09T10:30:58Z</time>
      </trkpt>
      <trkpt lat="52.995512019842863" lon="-6.537365969270468">
        <ele>227.49000000000001</ele>
        <time>2026-07-09T10:30:59Z</time>
      </trkpt>
      <trkpt lat="52.995512019842863" lon="-6.537365969270468">
        <ele>227.97</ele>
        <time>2026-07-09T10:31:11Z</time>
      </trkpt>
      <trkpt lat="52.995512019842863" lon="-6.537365969270468">
        <ele>228.93000000000001</ele>
        <time>2026-07-09T10:31:38Z</time>
      </trkpt>
      <trkpt lat="52.995512019842863" lon="-6.537365969270468">
        <ele>228.93000000000001</ele>
        <time>2026-07-09T10:32:01Z</time>
      </trkpt>
      <trkpt lat="52.995622996240854" lon="-6.537551963701844">
        <ele>230.37</ele>
        <time>2026-07-09T10:32:09Z</time>
      </trkpt>
      <trkpt lat="52.995622996240854" lon="-6.537551963701844">
        <ele>230.84999999999999</ele>
        <time>2026-07-09T10:32:10Z</time>
      </trkpt>
      <trkpt lat="52.995743025094271" lon="-6.537725972011685">
        <ele>230.84999999999999</ele>
        <time>2026-07-09T10:32:22Z</time>
      </trkpt>
      <trkpt lat="52.99593597650528" lon="-6.537508964538574">
        <ele>229.88999999999999</ele>
        <time>2026-07-09T10:32:35Z</time>
      </trkpt>
      <trkpt lat="52.995933964848518" lon="-6.537523968145251">
        <ele>229.88999999999999</ele>
        <time>2026-07-09T10:32:55Z</time>
      </trkpt>
      <trkpt lat="52.99593597650528" lon="-6.537523968145251">
        <ele>229.41</ele>
        <time>2026-07-09T10:33:17Z</time>
      </trkpt>
      <trkpt lat="52.99593597650528" lon="-6.537523968145251">
        <ele>229.41</ele>
        <time>2026-07-09T10:33:40Z</time>
      </trkpt>
      <trkpt lat="52.995945028960705" lon="-6.53751902282238">
        <ele>229.41</ele>
        <time>2026-07-09T10:34:18Z</time>
      </trkpt>
      <trkpt lat="52.995895994827151" lon="-6.537598986178637">
        <ele>243.83000000000001</ele>
        <time>2026-07-09T10:45:14Z</time>
      </trkpt>
      <trkpt lat="52.995930025354028" lon="-6.537552969530225">
        <ele>240.47</ele>
        <time>2026-07-09T10:45:41Z</time>
      </trkpt>
      <trkpt lat="52.995889037847519" lon="-6.537607032805681">
        <ele>237.58000000000001</ele>
        <time>2026-07-09T10:46:28Z</time>
      </trkpt>
      <trkpt lat="52.995904041454196" lon="-6.537536960095167">
        <ele>235.66</ele>
        <time>2026-07-09T10:47:14Z</time>
      </trkpt>
      <trkpt lat="52.995904041454196" lon="-6.537536960095167">
        <ele>236.13999999999999</ele>
        <time>2026-07-09T10:48:11Z</time>
      </trkpt>
      <trkpt lat="52.995903035625815" lon="-6.537544000893831">
        <ele>235.66</ele>
        <time>2026-07-09T10:49:03Z</time>
      </trkpt>
      <trkpt lat="52.995906975120306" lon="-6.53754198923707">
        <ele>236.13999999999999</ele>
        <time>2026-07-09T10:49:51Z</time>
      </trkpt>
      <trkpt lat="52.995903035625815" lon="-6.537554981186986">
        <ele>237.09999999999999</ele>
        <time>2026-07-09T10:50:24Z</time>
      </trkpt>
      <trkpt lat="52.995897000655532" lon="-6.53756202198565">
        <ele>238.06</ele>
        <time>2026-07-09T10:51:14Z</time>
      </trkpt>
      <trkpt lat="52.995740007609129" lon="-6.537721026688814">
        <ele>237.58000000000001</ele>
        <time>2026-07-09T10:51:17Z</time>
      </trkpt>
      <trkpt lat="52.995622996240854" lon="-6.537551963701844">
        <ele>236.62</ele>
        <time>2026-07-09T10:51:21Z</time>
      </trkpt>
      <trkpt lat="52.995622996240854" lon="-6.537551963701844">
        <ele>236.13999999999999</ele>
        <time>2026-07-09T10:51:22Z</time>
      </trkpt>
      <trkpt lat="52.995622996240854" lon="-6.537551963701844">
        <ele>235.66</ele>
        <time>2026-07-09T10:51:23Z</time>
      </trkpt>
      <trkpt lat="52.995618972927332" lon="-6.537559004500508">
        <ele>235.18000000000001</ele>
        <time>2026-07-09T10:51:24Z</time>
      </trkpt>
      <trkpt lat="52.99567798152566" lon="-6.537632010877132">
        <ele>234.69999999999999</ele>
        <time>2026-07-09T10:51:25Z</time>
      </trkpt>
      <trkpt lat="52.995702037587762" lon="-6.537666041404009">
        <ele>234.22</ele>
        <time>2026-07-09T10:51:26Z</time>
      </trkpt>
      <trkpt lat="52.995733972638845" lon="-6.537711974233389">
        <ele>233.74000000000001</ele>
        <time>2026-07-09T10:51:27Z</time>
      </trkpt>
      <trkpt lat="52.995772026479244" lon="-6.537767965346575">
        <ele>233.25999999999999</ele>
        <time>2026-07-09T10:51:28Z</time>
      </trkpt>
      <trkpt lat="52.995815025642514" lon="-6.537829991430044">
        <ele>233.25999999999999</ele>
        <time>2026-07-09T10:51:29Z</time>
      </trkpt>
      <trkpt lat="52.995864981785417" lon="-6.537902997806668">
        <ele>232.78</ele>
        <time>2026-07-09T10:51:30Z</time>
      </trkpt>
      <trkpt lat="52.996482979506254" lon="-6.538799023255706">
        <ele>232.78</ele>
        <time>2026-07-09T10:51:39Z</time>
      </trkpt>
      <trkpt lat="52.996910037472844" lon="-6.539419032633305">
        <ele>228.44999999999999</ele>
        <time>2026-07-09T10:51:46Z</time>
      </trkpt>
      <trkpt lat="52.996919006109238" lon="-6.539521962404251">
        <ele>227.49000000000001</ele>
        <time>2026-07-09T10:51:47Z</time>
      </trkpt>
      <trkpt lat="52.996927974745631" lon="-6.539628999307752">
        <ele>227.00999999999999</ele>
        <time>2026-07-09T10:51:48Z</time>
      </trkpt>
      <trkpt lat="52.996937027201056" lon="-6.539746010676026">
        <ele>225.56999999999999</ele>
        <time>2026-07-09T10:51:49Z</time>
      </trkpt>
      <trkpt lat="52.996953036636114" lon="-6.539934016764164">
        <ele>224.61000000000001</ele>
        <time>2026-07-09T10:51:50Z</time>
      </trkpt>
      <trkpt lat="52.996944990009069" lon="-6.540014985948801">
        <ele>223.16</ele>
        <time>2026-07-09T10:51:51Z</time>
      </trkpt>
      <trkpt lat="52.996915988624096" lon="-6.54031497426331">
        <ele>221.24000000000001</ele>
        <time>2026-07-09T10:51:53Z</time>
      </trkpt>
      <trkpt lat="52.996900985017419" lon="-6.540470961481333">
        <ele>220.28</ele>
        <time>2026-07-09T10:51:54Z</time>
      </trkpt>
      <trkpt lat="52.996803000569344" lon="-6.541476035490632">
        <ele>215.94999999999999</ele>
        <time>2026-07-09T10:52:00Z</time>
      </trkpt>
      <trkpt lat="52.996785985305905" lon="-6.541649037972093">
        <ele>214.99000000000001</ele>
        <time>2026-07-09T10:52:01Z</time>
      </trkpt>
      <trkpt lat="52.9967310000211" lon="-6.542211966589093">
        <ele>211.63</ele>
        <time>2026-07-09T10:52:04Z</time>
      </trkpt>
      <trkpt lat="52.99671096727252" lon="-6.542410030961037">
        <ele>210.19</ele>
        <time>2026-07-09T10:52:05Z</time>
      </trkpt>
      <trkpt lat="52.996635027229786" lon="-6.543193990364671">
        <ele>206.81999999999999</ele>
        <time>2026-07-09T10:52:09Z</time>
      </trkpt>
      <trkpt lat="52.996614994481206" lon="-6.543392976745963">
        <ele>205.86000000000001</ele>
        <time>2026-07-09T10:52:10Z</time>
      </trkpt>
      <trkpt lat="52.996595967561007" lon="-6.543589029461145">
        <ele>205.38</ele>
        <time>2026-07-09T10:52:11Z</time>
      </trkpt>
      <trkpt lat="52.996520027518272" lon="-6.544371983036399">
        <ele>202.00999999999999</ele>
        <time>2026-07-09T10:52:15Z</time>
      </trkpt>
      <trkpt lat="52.996499994769692" lon="-6.544571975246072">
        <ele>200.56999999999999</ele>
        <time>2026-07-09T10:52:16Z</time>
      </trkpt>
      <trkpt lat="52.996479962021112" lon="-6.544776996597648">
        <ele>199.61000000000001</ele>
        <time>2026-07-09T10:52:17Z</time>
      </trkpt>
      <trkpt lat="52.996419025585055" lon="-6.54540304094553">
        <ele>196.25</ele>
        <time>2026-07-09T10:52:20Z</time>
      </trkpt>
      <trkpt lat="52.996395975351334" lon="-6.545606972649694">
        <ele>194.80000000000001</ele>
        <time>2026-07-09T10:52:21Z</time>
      </trkpt>
      <trkpt lat="52.996079977601767" lon="-6.547950971871615">
        <ele>190.96000000000001</ele>
        <time>2026-07-09T10:52:33Z</time>
      </trkpt>
      <trkpt lat="52.995717963203788" lon="-6.549760960042477">
        <ele>196.25</ele>
        <time>2026-07-09T10:52:43Z</time>
      </trkpt>
      <trkpt lat="52.995525011792779" lon="-6.551095023751259">
        <ele>202.97999999999999</ele>
        <time>2026-07-09T10:52:49Z</time>
      </trkpt>
      <trkpt lat="52.995476983487606" lon="-6.551273977383971">
        <ele>203.46000000000001</ele>
        <time>2026-07-09T10:52:50Z</time>
      </trkpt>
      <trkpt lat="52.995342034846544" lon="-6.551779992878437">
        <ele>203.94</ele>
        <time>2026-07-09T10:52:53Z</time>
      </trkpt>
      <trkpt lat="52.995175989344716" lon="-6.552396984770894">
        <ele>202.97999999999999</ele>
        <time>2026-07-09T10:52:56Z</time>
      </trkpt>
      <trkpt lat="52.99511999823153" lon="-6.552605023607612">
        <ele>202.49000000000001</ele>
        <time>2026-07-09T10:52:57Z</time>
      </trkpt>
      <trkpt lat="52.994915982708335" lon="-6.553610013797879">
        <ele>202.00999999999999</ele>
        <time>2026-07-09T10:53:02Z</time>
      </trkpt>
      <trkpt lat="52.994939032942057" lon="-6.55380598269403">
        <ele>202.49000000000001</ele>
        <time>2026-07-09T10:53:03Z</time>
      </trkpt>
      <trkpt lat="52.994961999356747" lon="-6.553976973518729">
        <ele>202.49000000000001</ele>
        <time>2026-07-09T10:53:04Z</time>
      </trkpt>
      <trkpt lat="52.994984965771437" lon="-6.554144024848938">
        <ele>202.49000000000001</ele>
        <time>2026-07-09T10:53:05Z</time>
      </trkpt>
      <trkpt lat="52.995007010176778" lon="-6.554310992360115">
        <ele>202.97999999999999</ele>
        <time>2026-07-09T10:53:06Z</time>
      </trkpt>
      <trkpt lat="52.995065012946725" lon="-6.554482989013195">
        <ele>203.94</ele>
        <time>2026-07-09T10:53:07Z</time>
      </trkpt>
      <trkpt lat="52.9953339882195" lon="-6.555340038612485">
        <ele>207.30000000000001</ele>
        <time>2026-07-09T10:53:12Z</time>
      </trkpt>
      <trkpt lat="52.995347985997796" lon="-6.555518992245197">
        <ele>207.78</ele>
        <time>2026-07-09T10:53:13Z</time>
      </trkpt>
      <trkpt lat="52.995361983776093" lon="-6.555698029696941">
        <ele>208.25999999999999</ele>
        <time>2026-07-09T10:53:14Z</time>
      </trkpt>
      <trkpt lat="52.99537698738277" lon="-6.555882012471557">
        <ele>208.74000000000001</ele>
        <time>2026-07-09T10:53:15Z</time>
      </trkpt>
      <trkpt lat="52.99540095962584" lon="-6.556074041873217">
        <ele>209.22</ele>
        <time>2026-07-09T10:53:16Z</time>
      </trkpt>
      <trkpt lat="52.995835980400443" lon="-6.55814403668046">
        <ele>210.19</ele>
        <time>2026-07-09T10:53:27Z</time>
      </trkpt>
      <trkpt lat="52.996222972869873" lon="-6.559817986562848">
        <ele>213.55000000000001</ele>
        <time>2026-07-09T10:53:37Z</time>
      </trkpt>
      <trkpt lat="52.996419025585055" lon="-6.560642011463642">
        <ele>216.91</ele>
        <time>2026-07-09T10:53:42Z</time>
      </trkpt>
      <trkpt lat="52.996461018919945" lon="-6.560818031430244">
        <ele>217.88</ele>
        <time>2026-07-09T10:53:43Z</time>
      </trkpt>
      <trkpt lat="52.996850023046136" lon="-6.562950974330306">
        <ele>223.16</ele>
        <time>2026-07-09T10:53:55Z</time>
      </trkpt>
      <trkpt lat="52.997286971658468" lon="-6.564653003588319">
        <ele>225.56999999999999</ele>
        <time>2026-07-09T10:54:04Z</time>
      </trkpt>
      <trkpt lat="52.997457962483168" lon="-6.565321963280439">
        <ele>226.53</ele>
        <time>2026-07-09T10:54:08Z</time>
      </trkpt>
      <trkpt lat="52.998037990182638" lon="-6.566813020035625">
        <ele>228.93000000000001</ele>
        <time>2026-07-09T10:54:17Z</time>
      </trkpt>
      <trkpt lat="52.998105967417359" lon="-6.56697697006166">
        <ele>228.44999999999999</ele>
        <time>2026-07-09T10:54:18Z</time>
      </trkpt>
      <trkpt lat="52.998533025383949" lon="-6.567992018535733">
        <ele>226.53</ele>
        <time>2026-07-09T10:54:25Z</time>
      </trkpt>
      <trkpt lat="52.998626986518502" lon="-6.568214977160096">
        <ele>226.05000000000001</ele>
        <time>2026-07-09T10:54:28Z</time>
      </trkpt>
      <trkpt lat="52.9987099673599" lon="-6.568422010168433">
        <ele>226.05000000000001</ele>
        <time>2026-07-09T10:54:31Z</time>
      </trkpt>
      <trkpt lat="52.998748021200299" lon="-6.568516977131367">
        <ele>226.05000000000001</ele>
        <time>2026-07-09T10:54:32Z</time>
      </trkpt>
      <trkpt lat="52.998794037848711" lon="-6.568632982671261">
        <ele>226.53</ele>
        <time>2026-07-09T10:54:33Z</time>
      </trkpt>
      <trkpt lat="52.998955976217985" lon="-6.569036990404129">
        <ele>227.97</ele>
        <time>2026-07-09T10:54:36Z</time>
      </trkpt>
      <trkpt lat="52.999016996473074" lon="-6.56919096596539">
        <ele>228.44999999999999</ele>
        <time>2026-07-09T10:54:37Z</time>
      </trkpt>
      <trkpt lat="52.999082040041685" lon="-6.569352988153696">
        <ele>228.44999999999999</ele>
        <time>2026-07-09T10:54:38Z</time>
      </trkpt>
      <trkpt lat="52.999451011419296" lon="-6.570239961147308">
        <ele>227.00999999999999</ele>
        <time>2026-07-09T10:54:43Z</time>
      </trkpt>
      <trkpt lat="52.99954597838223" lon="-6.57041204161942">
        <ele>226.53</ele>
        <time>2026-07-09T10:54:44Z</time>
      </trkpt>
      <trkpt lat="52.999643040820956" lon="-6.57058697193861">
        <ele>226.05000000000001</ele>
        <time>2026-07-09T10:54:45Z</time>
      </trkpt>
      <trkpt lat="52.999849990010262" lon="-6.570961978286505">
        <ele>225.09</ele>
        <time>2026-07-09T10:54:47Z</time>
      </trkpt>
      <trkpt lat="53.000335972756147" lon="-6.571646025404334">
        <ele>222.68000000000001</ele>
        <time>2026-07-09T10:54:52Z</time>
      </trkpt>
      <trkpt lat="53.000436974689364" lon="-6.571787009015679">
        <ele>222.19999999999999</ele>
        <time>2026-07-09T10:54:53Z</time>
      </trkpt>
      <trkpt lat="53.00053596496582" lon="-6.571927992627025">
        <ele>222.19999999999999</ele>
        <time>2026-07-09T10:54:54Z</time>
      </trkpt>
      <trkpt lat="53.000638978555799" lon="-6.572071993723512">
        <ele>221.72</ele>
        <time>2026-07-09T10:54:55Z</time>
      </trkpt>
      <trkpt lat="53.000742997974157" lon="-6.57221800647676">
        <ele>221.24000000000001</ele>
        <time>2026-07-09T10:54:56Z</time>
      </trkpt>
      <trkpt lat="53.000848023220897" lon="-6.572366030886769">
        <ele>220.75999999999999</ele>
        <time>2026-07-09T10:54:57Z</time>
      </trkpt>
      <trkpt lat="53.001256976276636" lon="-6.573010012507439">
        <ele>217.88</ele>
        <time>2026-07-09T10:55:01Z</time>
      </trkpt>
      <trkpt lat="53.001354038715363" lon="-6.573173962533474">
        <ele>216.91</ele>
        <time>2026-07-09T10:55:02Z</time>
      </trkpt>
      <trkpt lat="53.002260960638523" lon="-6.574702989310026">
        <ele>206.34</ele>
        <time>2026-07-09T10:55:11Z</time>
      </trkpt>
      <trkpt lat="53.002618029713631" lon="-6.575345965102315">
        <ele>200.09</ele>
        <time>2026-07-09T10:55:15Z</time>
      </trkpt>
      <trkpt lat="53.002672009170055" lon="-6.575489966198802">
        <ele>199.13</ele>
        <time>2026-07-09T10:55:16Z</time>
      </trkpt>
      <trkpt lat="53.002708973363042" lon="-6.57563203945756">
        <ele>198.16999999999999</ele>
        <time>2026-07-09T10:55:17Z</time>
      </trkpt>
      <trkpt lat="53.002723976969719" lon="-6.575781991705298">
        <ele>198.16999999999999</ele>
        <time>2026-07-09T10:55:18Z</time>
      </trkpt>
      <trkpt lat="53.002738980576396" lon="-6.575943008065224">
        <ele>197.69</ele>
        <time>2026-07-09T10:55:19Z</time>
      </trkpt>
      <trkpt lat="53.002812992781401" lon="-6.576704001054168">
        <ele>195.28</ele>
        <time>2026-07-09T10:55:23Z</time>
      </trkpt>
      <trkpt lat="53.002836965024471" lon="-6.57692201435566">
        <ele>194.80000000000001</ele>
        <time>2026-07-09T10:55:24Z</time>
      </trkpt>
      <trkpt lat="53.002889016643167" lon="-6.577132986858487">
        <ele>193.84</ele>
        <time>2026-07-09T10:55:25Z</time>
      </trkpt>
      <trkpt lat="53.003217000514269" lon="-6.578457998111844">
        <ele>191.44</ele>
        <time>2026-07-09T10:55:31Z</time>
      </trkpt>
      <trkpt lat="53.003272991627455" lon="-6.578684980049729">
        <ele>190.96000000000001</ele>
        <time>2026-07-09T10:55:32Z</time>
      </trkpt>
      <trkpt lat="53.003476001322269" lon="-6.579223014414311">
        <ele>189.52000000000001</ele>
        <time>2026-07-09T10:55:35Z</time>
      </trkpt>
      <trkpt lat="53.00362603738904" lon="-6.579372966662049">
        <ele>189.52000000000001</ele>
        <time>2026-07-09T10:55:36Z</time>
      </trkpt>
      <trkpt lat="53.003722010180354" lon="-6.579483021050692">
        <ele>189.52000000000001</ele>
        <time>2026-07-09T10:55:37Z</time>
      </trkpt>
      <trkpt lat="53.00425099208951" lon="-6.580094983801246">
        <ele>192.40000000000001</ele>
        <time>2026-07-09T10:55:42Z</time>
      </trkpt>
      <trkpt lat="53.004564978182316" lon="-6.580456998199225">
        <ele>192.88</ele>
        <time>2026-07-09T10:55:45Z</time>
      </trkpt>
      <trkpt lat="53.005493022501469" lon="-6.58136903308332">
        <ele>193.84</ele>
        <time>2026-07-09T10:55:53Z</time>
      </trkpt>
      <trkpt lat="53.005764009431005" lon="-6.5815220028162">
        <ele>192.88</ele>
        <time>2026-07-09T10:55:55Z</time>
      </trkpt>
      <trkpt lat="53.006890034303069" lon="-6.582323983311653">
        <ele>198.65000000000001</ele>
        <time>2026-07-09T10:56:04Z</time>
      </trkpt>
      <trkpt lat="53.007979011163116" lon="-6.58323802985251">
        <ele>208.74000000000001</ele>
        <time>2026-07-09T10:56:13Z</time>
      </trkpt>
      <trkpt lat="53.008510004729033" lon="-6.58364899456501">
        <ele>214.50999999999999</ele>
        <time>2026-07-09T10:56:18Z</time>
      </trkpt>
      <trkpt lat="53.008628021925688" lon="-6.583708003163338">
        <ele>215.47</ele>
        <time>2026-07-09T10:56:19Z</time>
      </trkpt>
      <trkpt lat="53.008758025243878" lon="-6.583756031468511">
        <ele>215.94999999999999</ele>
        <time>2026-07-09T10:56:20Z</time>
      </trkpt>
      <trkpt lat="53.009216012433171" lon="-6.583807999268174">
        <ele>215.94999999999999</ele>
        <time>2026-07-09T10:56:23Z</time>
      </trkpt>
      <trkpt lat="53.009361019358039" lon="-6.583825014531612">
        <ele>215.94999999999999</ele>
        <time>2026-07-09T10:56:24Z</time>
      </trkpt>
      <trkpt lat="53.009980022907257" lon="-6.583896009251475">
        <ele>217.88</ele>
        <time>2026-07-09T10:56:29Z</time>
      </trkpt>
      <trkpt lat="53.010048000141978" lon="-6.583941020071507">
        <ele>217.88</ele>
        <time>2026-07-09T10:56:30Z</time>
      </trkpt>
      <trkpt lat="53.010098962113261" lon="-6.584017965942621">
        <ele>217.88</ele>
        <time>2026-07-09T10:56:31Z</time>
      </trkpt>
      <trkpt lat="53.010150007903576" lon="-6.584093989804387">
        <ele>217.88</ele>
        <time>2026-07-09T10:56:32Z</time>
      </trkpt>
      <trkpt lat="53.010160988196731" lon="-6.584227010607719">
        <ele>217.88</ele>
        <time>2026-07-09T10:56:33Z</time>
      </trkpt>
      <trkpt lat="53.010173980146646" lon="-6.584387021139264">
        <ele>217.88</ele>
        <time>2026-07-09T10:56:34Z</time>
      </trkpt>
      <trkpt lat="53.010193007066846" lon="-6.584608973935247">
        <ele>217.88</ele>
        <time>2026-07-09T10:56:35Z</time>
      </trkpt>
      <trkpt lat="53.010211028158665" lon="-6.585916969925165">
        <ele>222.19999999999999</ele>
        <time>2026-07-09T10:56:41Z</time>
      </trkpt>
      <trkpt lat="53.010256960988045" lon="-6.586104976013303">
        <ele>223.63999999999999</ele>
        <time>2026-07-09T10:56:42Z</time>
      </trkpt>
      <trkpt lat="53.010328039526939" lon="-6.586236990988255">
        <ele>224.61000000000001</ele>
        <time>2026-07-09T10:56:43Z</time>
      </trkpt>
      <trkpt lat="53.010409008711576" lon="-6.586387027055025">
        <ele>225.56999999999999</ele>
        <time>2026-07-09T10:56:44Z</time>
      </trkpt>
      <trkpt lat="53.010497018694878" lon="-6.58655097708106">
        <ele>226.53</ele>
        <time>2026-07-09T10:56:45Z</time>
      </trkpt>
      <trkpt lat="53.011468984186649" lon="-6.588183017447591">
        <ele>233.25999999999999</ele>
        <time>2026-07-09T10:56:55Z</time>
      </trkpt>
      <trkpt lat="53.011573003605008" lon="-6.588326012715697">
        <ele>234.22</ele>
        <time>2026-07-09T10:56:56Z</time>
      </trkpt>
      <trkpt lat="53.011901993304491" lon="-6.588694984093308">
        <ele>235.18000000000001</ele>
        <time>2026-07-09T10:56:59Z</time>
      </trkpt>
      <trkpt lat="53.012022022157907" lon="-6.588811995461583">
        <ele>235.18000000000001</ele>
        <time>2026-07-09T10:57:00Z</time>
      </trkpt>
      <trkpt lat="53.013178976252675" lon="-6.590079003944993">
        <ele>240.94999999999999</ele>
        <time>2026-07-09T10:57:10Z</time>
      </trkpt>
      <trkpt lat="53.013280984014273" lon="-6.590240020304918">
        <ele>241.91</ele>
        <time>2026-07-09T10:57:11Z</time>
      </trkpt>
      <trkpt lat="53.014178015291691" lon="-6.591659998521209">
        <ele>252</ele>
        <time>2026-07-09T10:57:19Z</time>
      </trkpt>
      <trkpt lat="53.01557301543653" lon="-6.593735022470355">
        <ele>262.57999999999998</ele>
        <time>2026-07-09T10:57:31Z</time>
      </trkpt>
      <trkpt lat="53.016980001702905" lon="-6.596111040562391">
        <ele>269.31</ele>
        <time>2026-07-09T10:57:43Z</time>
      </trkpt>
      <trkpt lat="53.018127987161279" lon="-6.598090007901192">
        <ele>271.70999999999998</ele>
        <time>2026-07-09T10:57:53Z</time>
      </trkpt>
      <trkpt lat="53.019110010936856" lon="-6.59989102743566">
        <ele>264.98000000000002</ele>
        <time>2026-07-09T10:58:03Z</time>
      </trkpt>
      <trkpt lat="53.01918301731348" lon="-6.600037040188909">
        <ele>263.54000000000002</ele>
        <time>2026-07-09T10:58:04Z</time>
      </trkpt>
      <trkpt lat="53.019298017024994" lon="-6.600107029080391">
        <ele>262.57999999999998</ele>
        <time>2026-07-09T10:58:05Z</time>
      </trkpt>
      <trkpt lat="53.019406981766224" lon="-6.600172994658351">
        <ele>261.62</ele>
        <time>2026-07-09T10:58:06Z</time>
      </trkpt>
      <trkpt lat="53.019515024498105" lon="-6.600238960236311">
        <ele>260.64999999999998</ele>
        <time>2026-07-09T10:58:07Z</time>
      </trkpt>
      <trkpt lat="53.019623989239335" lon="-6.600305009633303">
        <ele>259.20999999999998</ele>
        <time>2026-07-09T10:58:08Z</time>
      </trkpt>
      <trkpt lat="53.019727002829313" lon="-6.600411040708423">
        <ele>258.25</ele>
        <time>2026-07-09T10:58:09Z</time>
      </trkpt>
      <trkpt lat="53.019818030297756" lon="-6.600544983521104">
        <ele>257.29000000000002</ele>
        <time>2026-07-09T10:58:10Z</time>
      </trkpt>
      <trkpt lat="53.019906040281057" lon="-6.600673981010914">
        <ele>255.84999999999999</ele>
        <time>2026-07-09T10:58:11Z</time>
      </trkpt>
      <trkpt lat="53.019989021122456" lon="-6.600796021521092">
        <ele>254.88999999999999</ele>
        <time>2026-07-09T10:58:12Z</time>
      </trkpt>
      <trkpt lat="53.02006303332746" lon="-6.60094597376883">
        <ele>253.93000000000001</ele>
        <time>2026-07-09T10:58:13Z</time>
      </trkpt>
      <trkpt lat="53.020119024440646" lon="-6.601130962371826">
        <ele>252.96000000000001</ele>
        <time>2026-07-09T10:58:14Z</time>
      </trkpt>
      <trkpt lat="53.020511968061328" lon="-6.602626964449883">
        <ele>242.38999999999999</ele>
        <time>2026-07-09T10:58:21Z</time>
      </trkpt>
      <trkpt lat="53.020613975822926" lon="-6.603032983839512">
        <ele>239.02000000000001</ele>
        <time>2026-07-09T10:58:23Z</time>
      </trkpt>
      <trkpt lat="53.020641971379519" lon="-6.6032649949193">
        <ele>237.09999999999999</ele>
        <time>2026-07-09T10:58:24Z</time>
      </trkpt>
      <trkpt lat="53.02064398303628" lon="-6.603501029312611">
        <ele>235.66</ele>
        <time>2026-07-09T10:58:25Z</time>
      </trkpt>
      <trkpt lat="53.020703997462988" lon="-6.605172967538238">
        <ele>225.09</ele>
        <time>2026-07-09T10:58:32Z</time>
      </trkpt>
      <trkpt lat="53.020689999684691" lon="-6.605417970567942">
        <ele>223.63999999999999</ele>
        <time>2026-07-09T10:58:33Z</time>
      </trkpt>
      <trkpt lat="53.02066502161324" lon="-6.605656016618013">
        <ele>222.19999999999999</ele>
        <time>2026-07-09T10:58:34Z</time>
      </trkpt>
      <trkpt lat="53.020590003579855" lon="-6.606383984908462">
        <ele>217.40000000000001</ele>
        <time>2026-07-09T10:58:37Z</time>
      </trkpt>
      <trkpt lat="53.020571982488036" lon="-6.606604009866715">
        <ele>215.47</ele>
        <time>2026-07-09T10:58:38Z</time>
      </trkpt>
      <trkpt lat="53.020561002194881" lon="-6.606820011511445">
        <ele>213.55000000000001</ele>
        <time>2026-07-09T10:58:39Z</time>
      </trkpt>
      <trkpt lat="53.0205790232867" lon="-6.607031989842653">
        <ele>212.11000000000001</ele>
        <time>2026-07-09T10:58:40Z</time>
      </trkpt>
      <trkpt lat="53.020613975822926" lon="-6.607230976223946">
        <ele>210.19</ele>
        <time>2026-07-09T10:58:41Z</time>
      </trkpt>
      <trkpt lat="53.020656974986196" lon="-6.607425017282367">
        <ele>208.25999999999999</ele>
        <time>2026-07-09T10:58:42Z</time>
      </trkpt>
      <trkpt lat="53.020740961655974" lon="-6.607612017542124">
        <ele>206.81999999999999</ele>
        <time>2026-07-09T10:58:43Z</time>
      </trkpt>
      <trkpt lat="53.020835006609559" lon="-6.607723999768496">
        <ele>205.38</ele>
        <time>2026-07-09T10:58:44Z</time>
      </trkpt>
      <trkpt lat="53.020921004936099" lon="-6.607826007530093">
        <ele>203.94</ele>
        <time>2026-07-09T10:58:45Z</time>
      </trkpt>
      <trkpt lat="53.021032987162471" lon="-6.607887027785182">
        <ele>202.97999999999999</ele>
        <time>2026-07-09T10:58:46Z</time>
      </trkpt>
      <trkpt lat="53.02113700658083" lon="-6.607945030555129">
        <ele>202.00999999999999</ele>
        <time>2026-07-09T10:58:47Z</time>
      </trkpt>
      <trkpt lat="53.0214390065521" lon="-6.608110992237926">
        <ele>199.13</ele>
        <time>2026-07-09T10:58:50Z</time>
      </trkpt>
      <trkpt lat="53.021560963243246" lon="-6.60820797085762">
        <ele>198.16999999999999</ele>
        <time>2026-07-09T10:58:51Z</time>
      </trkpt>
      <trkpt lat="53.021615026518703" lon="-6.608325988054276">
        <ele>197.21000000000001</ele>
        <time>2026-07-09T10:58:52Z</time>
      </trkpt>
      <trkpt lat="53.021665988489985" lon="-6.608488010242581">
        <ele>196.72999999999999</ele>
        <time>2026-07-09T10:58:53Z</time>
      </trkpt>
      <trkpt lat="53.021693984046578" lon="-6.608640979975462">
        <ele>196.25</ele>
        <time>2026-07-09T10:58:54Z</time>
      </trkpt>
      <trkpt lat="53.021749975159764" lon="-6.609016992151737">
        <ele>194.80000000000001</ele>
        <time>2026-07-09T10:58:56Z</time>
      </trkpt>
      <trkpt lat="53.021904034540057" lon="-6.610621958971024">
        <ele>188.56</ele>
        <time>2026-07-09T10:59:04Z</time>
      </trkpt>
      <trkpt lat="53.021921971812844" lon="-6.610783981159329">
        <ele>187.59</ele>
        <time>2026-07-09T10:59:05Z</time>
      </trkpt>
      <trkpt lat="53.021939992904663" lon="-6.610938962548971">
        <ele>187.11000000000001</ele>
        <time>2026-07-09T10:59:06Z</time>
      </trkpt>
      <trkpt lat="53.022051975131035" lon="-6.611367026343942">
        <ele>185.66999999999999</ele>
        <time>2026-07-09T10:59:09Z</time>
      </trkpt>
      <trkpt lat="53.022311981767416" lon="-6.612230027094483">
        <ele>183.75</ele>
        <time>2026-07-09T10:59:16Z</time>
      </trkpt>
      <trkpt lat="53.022416001185775" lon="-6.61278298124671">
        <ele>182.78999999999999</ele>
        <time>2026-07-09T10:59:22Z</time>
      </trkpt>
      <trkpt lat="53.022388005629182" lon="-6.61284601315856">
        <ele>182.31</ele>
        <time>2026-07-09T10:59:23Z</time>
      </trkpt>
      <trkpt lat="53.022363027557731" lon="-6.612903010100126">
        <ele>182.78999999999999</ele>
        <time>2026-07-09T10:59:24Z</time>
      </trkpt>
      <trkpt lat="53.022359004244208" lon="-6.612910972908139">
        <ele>182.78999999999999</ele>
        <time>2026-07-09T10:59:25Z</time>
      </trkpt>
      <trkpt lat="53.022376019507647" lon="-6.612995965406299">
        <ele>182.31</ele>
        <time>2026-07-09T10:59:26Z</time>
      </trkpt>
      <trkpt lat="53.022386999800801" lon="-6.613051034510136">
        <ele>182.31</ele>
        <time>2026-07-09T10:59:27Z</time>
      </trkpt>
      <trkpt lat="53.022402003407478" lon="-6.613125968724489">
        <ele>182.31</ele>
        <time>2026-07-09T10:59:28Z</time>
      </trkpt>
      <trkpt lat="53.022429998964071" lon="-6.613184977322817">
        <ele>182.31</ele>
        <time>2026-07-09T10:59:29Z</time>
      </trkpt>
      <trkpt lat="53.022853033617139" lon="-6.614079996943474">
        <ele>184.22999999999999</ele>
        <time>2026-07-09T10:59:37Z</time>
      </trkpt>
      <trkpt lat="53.022916987538338" lon="-6.614214023575187">
        <ele>183.75</ele>
        <time>2026-07-09T10:59:38Z</time>
      </trkpt>
      <trkpt lat="53.023280007764697" lon="-6.614959007129073">
        <ele>183.75</ele>
        <time>2026-07-09T10:59:44Z</time>
      </trkpt>
      <trkpt lat="53.023342033848166" lon="-6.615085992962122">
        <ele>183.27000000000001</ele>
        <time>2026-07-09T10:59:45Z</time>
      </trkpt>
      <trkpt lat="53.023410011082888" lon="-6.615224964916706">
        <ele>183.27000000000001</ele>
        <time>2026-07-09T10:59:46Z</time>
      </trkpt>
      <trkpt lat="53.02347999997437" lon="-6.61538103595376">
        <ele>182.78999999999999</ele>
        <time>2026-07-09T10:59:47Z</time>
      </trkpt>
      <trkpt lat="53.02352299913764" lon="-6.615556972101331">
        <ele>182.31</ele>
        <time>2026-07-09T10:59:48Z</time>
      </trkpt>
      <trkpt lat="53.023563986644149" lon="-6.615727040916681">
        <ele>182.31</ele>
        <time>2026-07-09T10:59:49Z</time>
      </trkpt>
      <trkpt lat="53.023602040484548" lon="-6.615885961800814">
        <ele>181.83000000000001</ele>
        <time>2026-07-09T10:59:50Z</time>
      </trkpt>
      <trkpt lat="53.023704970255494" lon="-6.616825992241502">
        <ele>180.38</ele>
        <time>2026-07-09T10:59:57Z</time>
      </trkpt>
      <trkpt lat="53.023965982720256" lon="-6.618470018729568">
        <ele>176.53999999999999</ele>
        <time>2026-07-09T11:00:06Z</time>
      </trkpt>
      <trkpt lat="53.024378037080169" lon="-6.62038897164166">
        <ele>181.83000000000001</ele>
        <time>2026-07-09T11:00:15Z</time>
      </trkpt>
      <trkpt lat="53.024753965437412" lon="-6.621674001216888">
        <ele>190.47999999999999</ele>
        <time>2026-07-09T11:00:21Z</time>
      </trkpt>
      <trkpt lat="53.025160990655422" lon="-6.622696006670594">
        <ele>194.31999999999999</ele>
        <time>2026-07-09T11:00:26Z</time>
      </trkpt>
      <trkpt lat="53.025327958166599" lon="-6.623096996918321">
        <ele>195.28</ele>
        <time>2026-07-09T11:00:28Z</time>
      </trkpt>
      <trkpt lat="53.025409011170268" lon="-6.623291959986091">
        <ele>195.77000000000001</ele>
        <time>2026-07-09T11:00:29Z</time>
      </trkpt>
      <trkpt lat="53.025573967024684" lon="-6.623685993254185">
        <ele>196.72999999999999</ele>
        <time>2026-07-09T11:00:31Z</time>
      </trkpt>
      <trkpt lat="53.025652002543211" lon="-6.623886991292238">
        <ele>197.21000000000001</ele>
        <time>2026-07-09T11:00:32Z</time>
      </trkpt>
      <trkpt lat="53.02588501945138" lon="-6.624498032033444">
        <ele>201.05000000000001</ele>
        <time>2026-07-09T11:00:35Z</time>
      </trkpt>
      <trkpt lat="53.026114013046026" lon="-6.625099014490843">
        <ele>204.90000000000001</ele>
        <time>2026-07-09T11:00:38Z</time>
      </trkpt>
      <trkpt lat="53.026197999715805" lon="-6.625193981453776">
        <ele>205.86000000000001</ele>
        <time>2026-07-09T11:00:39Z</time>
      </trkpt>
      <trkpt lat="53.027292005717754" lon="-6.626266026869416">
        <ele>215.94999999999999</ele>
        <time>2026-07-09T11:00:47Z</time>
      </trkpt>
      <trkpt lat="53.028776021674275" lon="-6.627646023407579">
        <ele>214.50999999999999</ele>
        <time>2026-07-09T11:00:58Z</time>
      </trkpt>
      <trkpt lat="53.029997013509274" lon="-6.628182968124747">
        <ele>214.03</ele>
        <time>2026-07-09T11:01:06Z</time>
      </trkpt>
      <trkpt lat="53.031703988090158" lon="-6.628899034112692">
        <ele>207.78</ele>
        <time>2026-07-09T11:01:17Z</time>
      </trkpt>
      <trkpt lat="53.033291017636657" lon="-6.629622979089618">
        <ele>201.53</ele>
        <time>2026-07-09T11:01:28Z</time>
      </trkpt>
      <trkpt lat="53.033398976549506" lon="-6.62973496131599">
        <ele>200.56999999999999</ele>
        <time>2026-07-09T11:01:29Z</time>
      </trkpt>
      <trkpt lat="53.03351397626102" lon="-6.629867982119322">
        <ele>199.61000000000001</ele>
        <time>2026-07-09T11:01:30Z</time>
      </trkpt>
      <trkpt lat="53.033638028427958" lon="-6.630009971559048">
        <ele>198.65000000000001</ele>
        <time>2026-07-09T11:01:31Z</time>
      </trkpt>
      <trkpt lat="53.033766020089388" lon="-6.630157995969057">
        <ele>197.69</ele>
        <time>2026-07-09T11:01:32Z</time>
      </trkpt>
      <trkpt lat="53.035207036882639" lon="-6.631743013858795">
        <ele>183.75</ele>
        <time>2026-07-09T11:01:43Z</time>
      </trkpt>
      <trkpt lat="53.035799972712994" lon="-6.63237601518631">
        <ele>176.06</ele>
        <time>2026-07-09T11:01:48Z</time>
      </trkpt>
      <trkpt lat="53.035923019051552" lon="-6.632409961894155">
        <ele>175.09999999999999</ele>
        <time>2026-07-09T11:01:49Z</time>
      </trkpt>
      <trkpt lat="53.036055034026504" lon="-6.632447009906173">
        <ele>174.13999999999999</ele>
        <time>2026-07-09T11:01:50Z</time>
      </trkpt>
      <trkpt lat="53.036452000960708" lon="-6.632558992132545">
        <ele>170.77000000000001</ele>
        <time>2026-07-09T11:01:53Z</time>
      </trkpt>
      <trkpt lat="53.036527018994093" lon="-6.632670974358916">
        <ele>169.81</ele>
        <time>2026-07-09T11:01:54Z</time>
      </trkpt>
      <trkpt lat="53.036589967086911" lon="-6.632802989333868">
        <ele>168.84999999999999</ele>
        <time>2026-07-09T11:01:55Z</time>
      </trkpt>
      <trkpt lat="53.03667102009058" lon="-6.632973980158567">
        <ele>167.88999999999999</ele>
        <time>2026-07-09T11:01:56Z</time>
      </trkpt>
      <trkpt lat="53.036687029525638" lon="-6.63308696821332">
        <ele>167.41</ele>
        <time>2026-07-09T11:01:57Z</time>
      </trkpt>
      <trkpt lat="53.036713013425469" lon="-6.633266005665064">
        <ele>166.93000000000001</ele>
        <time>2026-07-09T11:01:58Z</time>
      </trkpt>
      <trkpt lat="53.036944018676877" lon="-6.634883964434266">
        <ele>167.41</ele>
        <time>2026-07-09T11:02:07Z</time>
      </trkpt>
      <trkpt lat="53.036968996748328" lon="-6.635026959702373">
        <ele>167.88999999999999</ele>
        <time>2026-07-09T11:02:08Z</time>
      </trkpt>
      <trkpt lat="53.036990035325289" lon="-6.635141959413886">
        <ele>167.88999999999999</ele>
        <time>2026-07-09T11:02:09Z</time>
      </trkpt>
      <trkpt lat="53.037005038931966" lon="-6.635226029902697">
        <ele>167.88999999999999</ele>
        <time>2026-07-09T11:02:10Z</time>
      </trkpt>
      <trkpt lat="53.03701501339674" lon="-6.635279003530741">
        <ele>168.37</ele>
        <time>2026-07-09T11:02:11Z</time>
      </trkpt>
      <trkpt lat="53.037082990631461" lon="-6.635399032384157">
        <ele>168.37</ele>
        <time>2026-07-09T11:02:12Z</time>
      </trkpt>
      <trkpt lat="53.037026999518275" lon="-6.635348992422223">
        <ele>168.84999999999999</ele>
        <time>2026-07-09T11:02:13Z</time>
      </trkpt>
      <trkpt lat="53.037133030593395" lon="-6.635399032384157">
        <ele>169.33000000000001</ele>
        <time>2026-07-09T11:02:18Z</time>
      </trkpt>
      <trkpt lat="53.037188015878201" lon="-6.635399032384157">
        <ele>169.81</ele>
        <time>2026-07-09T11:02:19Z</time>
      </trkpt>
      <trkpt lat="53.037278037518263" lon="-6.635399032384157">
        <ele>170.28999999999999</ele>
        <time>2026-07-09T11:02:20Z</time>
      </trkpt>
      <trkpt lat="53.037387002259493" lon="-6.635399032384157">
        <ele>170.28999999999999</ele>
        <time>2026-07-09T11:02:21Z</time>
      </trkpt>
      <trkpt lat="53.037513988092542" lon="-6.63540699519217">
        <ele>170.77000000000001</ele>
        <time>2026-07-09T11:02:22Z</time>
      </trkpt>
      <trkpt lat="53.037656983360648" lon="-6.635415041819215">
        <ele>170.77000000000001</ele>
        <time>2026-07-09T11:02:23Z</time>
      </trkpt>
      <trkpt lat="53.03877797909081" lon="-6.635482013225555">
        <ele>171.25</ele>
        <time>2026-07-09T11:02:29Z</time>
      </trkpt>
      <trkpt lat="53.040730962529778" lon="-6.635909993201494">
        <ele>170.28999999999999</ele>
        <time>2026-07-09T11:02:38Z</time>
      </trkpt>
      <trkpt lat="53.042514966800809" lon="-6.635870011523366">
        <ele>168.84999999999999</ele>
        <time>2026-07-09T11:02:46Z</time>
      </trkpt>
      <trkpt lat="53.044491000473499" lon="-6.634957976639271">
        <ele>170.28999999999999</ele>
        <time>2026-07-09T11:02:55Z</time>
      </trkpt>
      <trkpt lat="53.046868024393916" lon="-6.633695997297764">
        <ele>173.16999999999999</ele>
        <time>2026-07-09T11:03:06Z</time>
      </trkpt>
      <trkpt lat="53.048796029761434" lon="-6.631961027160287">
        <ele>177.5</ele>
        <time>2026-07-09T11:03:16Z</time>
      </trkpt>
      <trkpt lat="53.050328996032476" lon="-6.630110973492265">
        <ele>175.58000000000001</ele>
        <time>2026-07-09T11:03:25Z</time>
      </trkpt>
      <trkpt lat="53.05067902430892" lon="-6.629785001277924">
        <ele>175.09999999999999</ele>
        <time>2026-07-09T11:03:27Z</time>
      </trkpt>
      <trkpt lat="53.051243964582682" lon="-6.629376970231533">
        <ele>175.09999999999999</ele>
        <time>2026-07-09T11:03:30Z</time>
      </trkpt>
      <trkpt lat="53.051456026732922" lon="-6.62926197052002">
        <ele>175.09999999999999</ele>
        <time>2026-07-09T11:03:31Z</time>
      </trkpt>
      <trkpt lat="53.05325897410512" lon="-6.628441968932748">
        <ele>174.13999999999999</ele>
        <time>2026-07-09T11:03:40Z</time>
      </trkpt>
      <trkpt lat="53.0548279825598" lon="-6.627315022051334">
        <ele>173.66</ele>
        <time>2026-07-09T11:03:48Z</time>
      </trkpt>
      <trkpt lat="53.057053964585066" lon="-6.626235013827682">
        <ele>175.58000000000001</ele>
        <time>2026-07-09T11:03:59Z</time>
      </trkpt>
      <trkpt lat="53.059263015165925" lon="-6.625017039477825">
        <ele>176.53999999999999</ele>
        <time>2026-07-09T11:04:10Z</time>
      </trkpt>
      <trkpt lat="53.060705037787557" lon="-6.624223021790385">
        <ele>177.5</ele>
        <time>2026-07-09T11:04:17Z</time>
      </trkpt>
      <trkpt lat="53.062091991305351" lon="-6.623647017404437">
        <ele>180.87</ele>
        <time>2026-07-09T11:04:24Z</time>
      </trkpt>
      <trkpt lat="53.062275974079967" lon="-6.623558001592755">
        <ele>181.34999999999999</ele>
        <time>2026-07-09T11:04:25Z</time>
      </trkpt>
      <trkpt lat="53.062457023188472" lon="-6.623469991609454">
        <ele>182.31</ele>
        <time>2026-07-09T11:04:26Z</time>
      </trkpt>
      <trkpt lat="53.062622984871268" lon="-6.623371001332998">
        <ele>182.78999999999999</ele>
        <time>2026-07-09T11:04:27Z</time>
      </trkpt>
      <trkpt lat="53.06277796626091" lon="-6.623207973316312">
        <ele>183.27000000000001</ele>
        <time>2026-07-09T11:04:28Z</time>
      </trkpt>
      <trkpt lat="53.062936970964074" lon="-6.623042011633515">
        <ele>183.75</ele>
        <time>2026-07-09T11:04:29Z</time>
      </trkpt>
      <trkpt lat="53.063086001202464" lon="-6.6228580288589">
        <ele>183.75</ele>
        <time>2026-07-09T11:04:30Z</time>
      </trkpt>
      <trkpt lat="53.063236959278584" lon="-6.622653007507324">
        <ele>183.75</ele>
        <time>2026-07-09T11:04:31Z</time>
      </trkpt>
      <trkpt lat="53.063360005617142" lon="-6.622404986992478">
        <ele>184.22999999999999</ele>
        <time>2026-07-09T11:04:32Z</time>
      </trkpt>
      <trkpt lat="53.064272962510586" lon="-6.62032401189208">
        <ele>183.27000000000001</ele>
        <time>2026-07-09T11:04:40Z</time>
      </trkpt>
      <trkpt lat="53.06440900079906" lon="-6.620140029117465">
        <ele>182.78999999999999</ele>
        <time>2026-07-09T11:04:41Z</time>
      </trkpt>
      <trkpt lat="53.064554007723927" lon="-6.619966020807624">
        <ele>182.31</ele>
        <time>2026-07-09T11:04:42Z</time>
      </trkpt>
      <trkpt lat="53.064714018255472" lon="-6.619819002225995">
        <ele>181.83000000000001</ele>
        <time>2026-07-09T11:04:43Z</time>
      </trkpt>
      <trkpt lat="53.064886014908552" lon="-6.619706014171243">
        <ele>181.34999999999999</ele>
        <time>2026-07-09T11:04:44Z</time>
      </trkpt>
      <trkpt lat="53.065066980198026" lon="-6.619604006409645">
        <ele>181.34999999999999</ele>
        <time>2026-07-09T11:04:45Z</time>
      </trkpt>
      <trkpt lat="53.065250962972641" lon="-6.619499986991286">
        <ele>180.87</ele>
        <time>2026-07-09T11:04:46Z</time>
      </trkpt>
      <trkpt lat="53.067667968571186" lon="-6.618374967947602">
        <ele>182.31</ele>
        <time>2026-07-09T11:04:58Z</time>
      </trkpt>
      <trkpt lat="53.069675015285611" lon="-6.617363020777702">
        <ele>183.27000000000001</ele>
        <time>2026-07-09T11:05:08Z</time>
      </trkpt>
      <trkpt lat="53.072693003341556" lon="-6.615750007331371">
        <ele>180.38</ele>
        <time>2026-07-09T11:05:23Z</time>
      </trkpt>
      <trkpt lat="53.07444297708571" lon="-6.614864962175489">
        <ele>182.78999999999999</ele>
        <time>2026-07-09T11:05:32Z</time>
      </trkpt>
      <trkpt lat="53.076209966093302" lon="-6.613987041637301">
        <ele>184.71000000000001</ele>
        <time>2026-07-09T11:05:41Z</time>
      </trkpt>
      <trkpt lat="53.078029006719589" lon="-6.613095961511135">
        <ele>185.19</ele>
        <time>2026-07-09T11:05:50Z</time>
      </trkpt>
      <trkpt lat="53.078231010586023" lon="-6.61299898289144">
        <ele>185.66999999999999</ele>
        <time>2026-07-09T11:05:51Z</time>
      </trkpt>
      <trkpt lat="53.079995987936854" lon="-6.612050989642739">
        <ele>187.59</ele>
        <time>2026-07-09T11:06:00Z</time>
      </trkpt>
      <trkpt lat="53.081664992496371" lon="-6.610301015898585">
        <ele>187.59</ele>
        <time>2026-07-09T11:06:09Z</time>
      </trkpt>
      <trkpt lat="53.084253994747996" lon="-6.60775400698185">
        <ele>187.11000000000001</ele>
        <time>2026-07-09T11:06:23Z</time>
      </trkpt>
      <trkpt lat="53.086018972098827" lon="-6.60663602873683">
        <ele>188.56</ele>
        <time>2026-07-09T11:06:32Z</time>
      </trkpt>
      <trkpt lat="53.087712032720447" lon="-6.606442993506789">
        <ele>187.59</ele>
        <time>2026-07-09T11:06:40Z</time>
      </trkpt>
      <trkpt lat="53.089768029749393" lon="-6.60657400265336">
        <ele>183.75</ele>
        <time>2026-07-09T11:06:51Z</time>
      </trkpt>
      <trkpt lat="53.090799003839493" lon="-6.606666035950184">
        <ele>182.31</ele>
        <time>2026-07-09T11:06:59Z</time>
      </trkpt>
      <trkpt lat="53.091163029894233" lon="-6.606698976829648">
        <ele>182.31</ele>
        <time>2026-07-09T11:07:04Z</time>
      </trkpt>
      <trkpt lat="53.091247016564012" lon="-6.606590012088418">
        <ele>182.31</ele>
        <time>2026-07-09T11:07:05Z</time>
      </trkpt>
      <trkpt lat="53.091231007128954" lon="-6.606534020975232">
        <ele>182.31</ele>
        <time>2026-07-09T11:07:06Z</time>
      </trkpt>
      <trkpt lat="53.091206029057503" lon="-6.606448022648692">
        <ele>182.31</ele>
        <time>2026-07-09T11:07:07Z</time>
      </trkpt>
      <trkpt lat="53.091189013794065" lon="-6.606332017108798">
        <ele>182.31</ele>
        <time>2026-07-09T11:07:08Z</time>
      </trkpt>
      <trkpt lat="53.09117803350091" lon="-6.606202013790608">
        <ele>182.31</ele>
        <time>2026-07-09T11:07:09Z</time>
      </trkpt>
      <trkpt lat="53.091194964945316" lon="-6.60607997328043">
        <ele>182.31</ele>
        <time>2026-07-09T11:07:10Z</time>
      </trkpt>
      <trkpt lat="53.091234024614096" lon="-6.605949969962239">
        <ele>182.78999999999999</ele>
        <time>2026-07-09T11:07:11Z</time>
      </trkpt>
      <trkpt lat="53.091274006292224" lon="-6.605814015492797">
        <ele>182.31</ele>
        <time>2026-07-09T11:07:12Z</time>
      </trkpt>
      <trkpt lat="53.091317005455494" lon="-6.605669008567929">
        <ele>181.83000000000001</ele>
        <time>2026-07-09T11:07:13Z</time>
      </trkpt>
      <trkpt lat="53.091363022103906" lon="-6.605516960844398">
        <ele>181.83000000000001</ele>
        <time>2026-07-09T11:07:14Z</time>
      </trkpt>
      <trkpt lat="53.091875994578004" lon="-6.603975025936961">
        <ele>182.78999999999999</ele>
        <time>2026-07-09T11:07:22Z</time>
      </trkpt>
      <trkpt lat="53.092309003695846" lon="-6.603153012692928">
        <ele>183.27000000000001</ele>
        <time>2026-07-09T11:07:27Z</time>
      </trkpt>
      <trkpt lat="53.092462979257107" lon="-6.602936005219817">
        <ele>183.27000000000001</ele>
        <time>2026-07-09T11:07:29Z</time>
      </trkpt>
      <trkpt lat="53.092529028654099" lon="-6.602828968316317">
        <ele>183.27000000000001</ele>
        <time>2026-07-09T11:07:30Z</time>
      </trkpt>
      <trkpt lat="53.092551995068789" lon="-6.602715980261564">
        <ele>183.27000000000001</ele>
        <time>2026-07-09T11:07:31Z</time>
      </trkpt>
      <trkpt lat="53.092557024210691" lon="-6.602585976943374">
        <ele>183.27000000000001</ele>
        <time>2026-07-09T11:07:32Z</time>
      </trkpt>
      <trkpt lat="53.09253104031086" lon="-6.602482041344047">
        <ele>183.27000000000001</ele>
        <time>2026-07-09T11:07:33Z</time>
      </trkpt>
      <trkpt lat="53.092503966763616" lon="-6.602373998612166">
        <ele>183.27000000000001</ele>
        <time>2026-07-09T11:07:34Z</time>
      </trkpt>
      <trkpt lat="53.092483012005687" lon="-6.602268973365426">
        <ele>183.75</ele>
        <time>2026-07-09T11:07:35Z</time>
      </trkpt>
      <trkpt lat="53.092343034222722" lon="-6.601645024493337">
        <ele>182.78999999999999</ele>
        <time>2026-07-09T11:07:41Z</time>
      </trkpt>
      <trkpt lat="53.092316966503859" lon="-6.601531030610204">
        <ele>182.78999999999999</ele>
        <time>2026-07-09T11:07:42Z</time>
      </trkpt>
      <trkpt lat="53.092289976775646" lon="-6.601414019241929">
        <ele>182.78999999999999</ele>
        <time>2026-07-09T11:07:43Z</time>
      </trkpt>
      <trkpt lat="53.092261981219053" lon="-6.601291978731751">
        <ele>183.27000000000001</ele>
        <time>2026-07-09T11:07:44Z</time>
      </trkpt>
      <trkpt lat="53.092231974005699" lon="-6.601163987070322">
        <ele>183.27000000000001</ele>
        <time>2026-07-09T11:07:45Z</time>
      </trkpt>
      <trkpt lat="53.092202972620726" lon="-6.601037001237273">
        <ele>183.27000000000001</ele>
        <time>2026-07-09T11:07:46Z</time>
      </trkpt>
      <trkpt lat="53.092174977064133" lon="-6.600914038717747">
        <ele>182.78999999999999</ele>
        <time>2026-07-09T11:07:47Z</time>
      </trkpt>
      <trkpt lat="53.091958975419402" lon="-6.599988006055355">
        <ele>184.22999999999999</ele>
        <time>2026-07-09T11:07:55Z</time>
      </trkpt>
      <trkpt lat="53.091817991808057" lon="-6.599263977259398">
        <ele>186.63</ele>
        <time>2026-07-09T11:08:01Z</time>
      </trkpt>
      <trkpt lat="53.091839030385017" lon="-6.598985027521849">
        <ele>187.59</ele>
        <time>2026-07-09T11:08:03Z</time>
      </trkpt>
      <trkpt lat="53.09184598736465" lon="-6.598868016153574">
        <ele>188.56</ele>
        <time>2026-07-09T11:08:04Z</time>
      </trkpt>
      <trkpt lat="53.091923017054796" lon="-6.597698992118239">
        <ele>189.03999999999999</ele>
        <time>2026-07-09T11:08:12Z</time>
      </trkpt>
      <trkpt lat="53.091943971812725" lon="-6.596887959167361">
        <ele>191.91999999999999</ele>
        <time>2026-07-09T11:08:16Z</time>
      </trkpt>
      <trkpt lat="53.091925028711557" lon="-6.596714034676552">
        <ele>192.88</ele>
        <time>2026-07-09T11:08:17Z</time>
      </trkpt>
      <trkpt lat="53.091851016506553" lon="-6.596600040793419">
        <ele>194.31999999999999</ele>
        <time>2026-07-09T11:08:18Z</time>
      </trkpt>
      <trkpt lat="53.091771975159645" lon="-6.596510019153357">
        <ele>195.28</ele>
        <time>2026-07-09T11:08:19Z</time>
      </trkpt>
      <trkpt lat="53.091677008196712" lon="-6.596480011940002">
        <ele>196.25</ele>
        <time>2026-07-09T11:08:20Z</time>
      </trkpt>
      <trkpt lat="53.091579023748636" lon="-6.596448998898268">
        <ele>197.21000000000001</ele>
        <time>2026-07-09T11:08:21Z</time>
      </trkpt>
      <trkpt lat="53.091475004330277" lon="-6.596415974199772">
        <ele>197.69</ele>
        <time>2026-07-09T11:08:22Z</time>
      </trkpt>
      <trkpt lat="53.091024979948997" lon="-6.596273984760046">
        <ele>199.13</ele>
        <time>2026-07-09T11:08:26Z</time>
      </trkpt>
      <trkpt lat="53.09094300493598" lon="-6.59619796089828">
        <ele>199.61000000000001</ele>
        <time>2026-07-09T11:08:27Z</time>
      </trkpt>
      <trkpt lat="53.090874021872878" lon="-6.596086984500289">
        <ele>200.09</ele>
        <time>2026-07-09T11:08:28Z</time>
      </trkpt>
      <trkpt lat="53.090808978304267" lon="-6.595981037244201">
        <ele>200.09</ele>
        <time>2026-07-09T11:08:29Z</time>
      </trkpt>
      <trkpt lat="53.090764973312616" lon="-6.595798982307315">
        <ele>200.56999999999999</ele>
        <time>2026-07-09T11:08:30Z</time>
      </trkpt>
      <trkpt lat="53.090721974149346" lon="-6.595625979825854">
        <ele>200.56999999999999</ele>
        <time>2026-07-09T11:08:31Z</time>
      </trkpt>
      <trkpt lat="53.090677969157696" lon="-6.595444008708">
        <ele>200.56999999999999</ele>
        <time>2026-07-09T11:08:32Z</time>
      </trkpt>
      <trkpt lat="53.090498009696603" lon="-6.594525016844273">
        <ele>201.53</ele>
        <time>2026-07-09T11:08:37Z</time>
      </trkpt>
      <trkpt lat="53.090472025796771" lon="-6.59436802379787">
        <ele>202.00999999999999</ele>
        <time>2026-07-09T11:08:38Z</time>
      </trkpt>
      <trkpt lat="53.090491974726319" lon="-6.59419996663928">
        <ele>202.97999999999999</ele>
        <time>2026-07-09T11:08:39Z</time>
      </trkpt>
      <trkpt lat="53.090521981939673" lon="-6.59404800273478">
        <ele>203.94</ele>
        <time>2026-07-09T11:08:40Z</time>
      </trkpt>
      <trkpt lat="53.090572021901608" lon="-6.593906013295054">
        <ele>205.38</ele>
        <time>2026-07-09T11:08:41Z</time>
      </trkpt>
      <trkpt lat="53.090636981651187" lon="-6.593750026077032">
        <ele>206.34</ele>
        <time>2026-07-09T11:08:42Z</time>
      </trkpt>
      <trkpt lat="53.090698001906276" lon="-6.593619016930461">
        <ele>207.78</ele>
        <time>2026-07-09T11:08:43Z</time>
      </trkpt>
      <trkpt lat="53.090835968032479" lon="-6.593320034444332">
        <ele>210.19</ele>
        <time>2026-07-09T11:08:45Z</time>
      </trkpt>
      <trkpt lat="53.091277023777366" lon="-6.592174982652068">
        <ele>218.84</ele>
        <time>2026-07-09T11:08:52Z</time>
      </trkpt>
      <trkpt lat="53.0913529638201" lon="-6.592051014304161">
        <ele>220.75999999999999</ele>
        <time>2026-07-09T11:08:53Z</time>
      </trkpt>
      <trkpt lat="53.091429993510246" lon="-6.591930985450745">
        <ele>222.19999999999999</ele>
        <time>2026-07-09T11:08:54Z</time>
      </trkpt>
      <trkpt lat="53.091677008196712" lon="-6.591552961617708">
        <ele>227.00999999999999</ele>
        <time>2026-07-09T11:08:57Z</time>
      </trkpt>
      <trkpt lat="53.091856967657804" lon="-6.591278035193682">
        <ele>230.37</ele>
        <time>2026-07-09T11:08:59Z</time>
      </trkpt>
      <trkpt lat="53.092278996482491" lon="-6.590487034991384">
        <ele>239.02000000000001</ele>
        <time>2026-07-09T11:09:04Z</time>
      </trkpt>
      <trkpt lat="53.092342028394341" lon="-6.590301040560007">
        <ele>240.94999999999999</ele>
        <time>2026-07-09T11:09:05Z</time>
      </trkpt>
      <trkpt lat="53.092401036992669" lon="-6.59011697396636">
        <ele>242.38999999999999</ele>
        <time>2026-07-09T11:09:06Z</time>
      </trkpt>
      <trkpt lat="53.092444036155939" lon="-6.589917987585068">
        <ele>244.31</ele>
        <time>2026-07-09T11:09:07Z</time>
      </trkpt>
      <trkpt lat="53.092456022277474" lon="-6.589711038395762">
        <ele>245.27000000000001</ele>
        <time>2026-07-09T11:09:08Z</time>
      </trkpt>
      <trkpt lat="53.092440012842417" lon="-6.589501993730664">
        <ele>246.72</ele>
        <time>2026-07-09T11:09:09Z</time>
      </trkpt>
      <trkpt lat="53.092406988143921" lon="-6.589303007349372">
        <ele>248.16</ele>
        <time>2026-07-09T11:09:10Z</time>
      </trkpt>
      <trkpt lat="53.092373041436076" lon="-6.589098991826177">
        <ele>249.12</ele>
        <time>2026-07-09T11:09:11Z</time>
      </trkpt>
      <trkpt lat="53.092321995645761" lon="-6.588897993788123">
        <ele>250.08000000000001</ele>
        <time>2026-07-09T11:09:12Z</time>
      </trkpt>
      <trkpt lat="53.092252006754279" lon="-6.588708981871605">
        <ele>251.03999999999999</ele>
        <time>2026-07-09T11:09:13Z</time>
      </trkpt>
      <trkpt lat="53.09135396964848" lon="-6.586478976532817">
        <ele>265.45999999999998</ele>
        <time>2026-07-09T11:09:24Z</time>
      </trkpt>
      <trkpt lat="53.090142030268908" lon="-6.584445023909211">
        <ele>277.48000000000002</ele>
        <time>2026-07-09T11:09:35Z</time>
      </trkpt>
      <trkpt lat="53.088999995961785" lon="-6.583397034555674">
        <ele>287.08999999999997</ele>
        <time>2026-07-09T11:09:43Z</time>
      </trkpt>
      <trkpt lat="53.087665010243654" lon="-6.582765961065888">
        <ele>296.69999999999999</ele>
        <time>2026-07-09T11:09:51Z</time>
      </trkpt>
      <trkpt lat="53.087093029171228" lon="-6.582490028813481">
        <ele>299.58999999999997</ele>
        <time>2026-07-09T11:09:55Z</time>
      </trkpt>
      <trkpt lat="53.086979035288095" lon="-6.582394978031516">
        <ele>300.06999999999999</ele>
        <time>2026-07-09T11:09:56Z</time>
      </trkpt>
      <trkpt lat="53.086880967020988" lon="-6.582248965278268">
        <ele>300.55000000000001</ele>
        <time>2026-07-09T11:09:57Z</time>
      </trkpt>
      <trkpt lat="53.086779965087771" lon="-6.58210102468729">
        <ele>301.02999999999997</ele>
        <time>2026-07-09T11:09:58Z</time>
      </trkpt>
      <trkpt lat="53.086678041145205" lon="-6.581949982792139">
        <ele>301.50999999999999</ele>
        <time>2026-07-09T11:09:59Z</time>
      </trkpt>
      <trkpt lat="53.086573015898466" lon="-6.581793995574117">
        <ele>302.47000000000003</ele>
        <time>2026-07-09T11:10:00Z</time>
      </trkpt>
      <trkpt lat="53.086464973166585" lon="-6.581634990870953">
        <ele>303.43000000000001</ele>
        <time>2026-07-09T11:10:01Z</time>
      </trkpt>
      <trkpt lat="53.085459982976317" lon="-6.579899014905095">
        <ele>311.60000000000002</ele>
        <time>2026-07-09T11:10:10Z</time>
      </trkpt>
      <trkpt lat="53.085124958306551" lon="-6.579386964440346">
        <ele>313.05000000000001</ele>
        <time>2026-07-09T11:10:13Z</time>
      </trkpt>
      <trkpt lat="53.083889968693256" lon="-6.578043010085821">
        <ele>314.00999999999999</ele>
        <time>2026-07-09T11:10:22Z</time>
      </trkpt>
      <trkpt lat="53.082541991025209" lon="-6.576421028003097">
        <ele>306.31999999999999</ele>
        <time>2026-07-09T11:10:32Z</time>
      </trkpt>
      <trkpt lat="53.082447024062276" lon="-6.576205026358366">
        <ele>305.36000000000001</ele>
        <time>2026-07-09T11:10:33Z</time>
      </trkpt>
      <trkpt lat="53.081715032458305" lon="-6.574392020702362">
        <ele>293.33999999999997</ele>
        <time>2026-07-09T11:10:41Z</time>
      </trkpt>
      <trkpt lat="53.081659963354468" lon="-6.574157997965813">
        <ele>291.89999999999998</ele>
        <time>2026-07-09T11:10:42Z</time>
      </trkpt>
      <trkpt lat="53.081604978069663" lon="-6.573921963572502">
        <ele>290.94</ele>
        <time>2026-07-09T11:10:43Z</time>
      </trkpt>
      <trkpt lat="53.081546975299716" lon="-6.573675032705069">
        <ele>289.49000000000001</ele>
        <time>2026-07-09T11:10:44Z</time>
      </trkpt>
      <trkpt lat="53.081462988629937" lon="-6.573432963341475">
        <ele>288.52999999999997</ele>
        <time>2026-07-09T11:10:45Z</time>
      </trkpt>
      <trkpt lat="53.081376990303397" lon="-6.573195001110435">
        <ele>287.56999999999999</ele>
        <time>2026-07-09T11:10:46Z</time>
      </trkpt>
      <trkpt lat="53.081010030582547" lon="-6.572143994271755">
        <ele>282.76999999999998</ele>
        <time>2026-07-09T11:10:51Z</time>
      </trkpt>
      <trkpt lat="53.080950016155839" lon="-6.571948025375605">
        <ele>281.80000000000001</ele>
        <time>2026-07-09T11:10:52Z</time>
      </trkpt>
      <trkpt lat="53.080777013674378" lon="-6.570729967206717">
        <ele>277</ele>
        <time>2026-07-09T11:10:57Z</time>
      </trkpt>
      <trkpt lat="53.080743988975883" lon="-6.570466021075845">
        <ele>276.04000000000002</ele>
        <time>2026-07-09T11:10:58Z</time>
      </trkpt>
      <trkpt lat="53.080332018435001" lon="-6.567794037982822">
        <ele>267.86000000000001</ele>
        <time>2026-07-09T11:11:08Z</time>
      </trkpt>
      <trkpt lat="53.080251971259713" lon="-6.56755699776113">
        <ele>266.89999999999998</ele>
        <time>2026-07-09T11:11:09Z</time>
      </trkpt>
      <trkpt lat="53.080021971836686" lon="-6.566870016977191">
        <ele>264.98000000000002</ele>
        <time>2026-07-09T11:11:12Z</time>
      </trkpt>
      <trkpt lat="53.079587034881115" lon="-6.565206041559577">
        <ele>256.81</ele>
        <time>2026-07-09T11:11:19Z</time>
      </trkpt>
      <trkpt lat="53.07878103107214" lon="-6.563285999000073">
        <ele>248.16</ele>
        <time>2026-07-09T11:11:28Z</time>
      </trkpt>
      <trkpt lat="53.077785009518266" lon="-6.560748964548111">
        <ele>238.06</ele>
        <time>2026-07-09T11:11:39Z</time>
      </trkpt>
      <trkpt lat="53.076563011854887" lon="-6.557943960651755">
        <ele>227.00999999999999</ele>
        <time>2026-07-09T11:11:50Z</time>
      </trkpt>
      <trkpt lat="53.075454002246261" lon="-6.555617982521653">
        <ele>234.22</ele>
        <time>2026-07-09T11:12:00Z</time>
      </trkpt>
      <trkpt lat="53.074670964851975" lon="-6.553964987397194">
        <ele>235.66</ele>
        <time>2026-07-09T11:12:07Z</time>
      </trkpt>
      <trkpt lat="53.073805030435324" lon="-6.5518509875983">
        <ele>234.69999999999999</ele>
        <time>2026-07-09T11:12:16Z</time>
      </trkpt>
      <trkpt lat="53.07287497445941" lon="-6.54963699169457">
        <ele>235.18000000000001</ele>
        <time>2026-07-09T11:12:27Z</time>
      </trkpt>
      <trkpt lat="53.072845973074436" lon="-6.549456026405096">
        <ele>234.69999999999999</ele>
        <time>2026-07-09T11:12:28Z</time>
      </trkpt>
      <trkpt lat="53.072816971689463" lon="-6.54927003197372">
        <ele>234.22</ele>
        <time>2026-07-09T11:12:29Z</time>
      </trkpt>
      <trkpt lat="53.072814960032701" lon="-6.549065010622144">
        <ele>233.25999999999999</ele>
        <time>2026-07-09T11:12:30Z</time>
      </trkpt>
      <trkpt lat="53.072830969467759" lon="-6.548834005370736">
        <ele>232.78</ele>
        <time>2026-07-09T11:12:31Z</time>
      </trkpt>
      <trkpt lat="53.072847984731197" lon="-6.548589002341032">
        <ele>231.81</ele>
        <time>2026-07-09T11:12:32Z</time>
      </trkpt>
      <trkpt lat="53.073117965832353" lon="-6.546099996194243">
        <ele>227.00999999999999</ele>
        <time>2026-07-09T11:12:42Z</time>
      </trkpt>
      <trkpt lat="53.073141016066074" lon="-6.545698000118136">
        <ele>225.56999999999999</ele>
        <time>2026-07-09T11:12:44Z</time>
      </trkpt>
      <trkpt lat="53.073144033551216" lon="-6.545510999858379">
        <ele>224.61000000000001</ele>
        <time>2026-07-09T11:12:45Z</time>
      </trkpt>
      <trkpt lat="53.073121989145875" lon="-6.545330034568906">
        <ele>224.12</ele>
        <time>2026-07-09T11:12:46Z</time>
      </trkpt>
      <trkpt lat="53.072892995551229" lon="-6.543418038636446">
        <ele>216.91</ele>
        <time>2026-07-09T11:12:55Z</time>
      </trkpt>
      <trkpt lat="53.072795011103153" lon="-6.541226003319025">
        <ele>210.19</ele>
        <time>2026-07-09T11:13:05Z</time>
      </trkpt>
      <trkpt lat="53.072742959484458" lon="-6.540453024208546">
        <ele>209.22</ele>
        <time>2026-07-09T11:13:10Z</time>
      </trkpt>
      <trkpt lat="53.072754023596644" lon="-6.540346993133426">
        <ele>209.22</ele>
        <time>2026-07-09T11:13:11Z</time>
      </trkpt>
      <trkpt lat="53.072773972526193" lon="-6.540230987593532">
        <ele>208.74000000000001</ele>
        <time>2026-07-09T11:13:12Z</time>
      </trkpt>
      <trkpt lat="53.072913028299809" lon="-6.539911972358823">
        <ele>208.74000000000001</ele>
        <time>2026-07-09T11:13:15Z</time>
      </trkpt>
      <trkpt lat="53.072944963350892" lon="-6.539752967655659">
        <ele>208.74000000000001</ele>
        <time>2026-07-09T11:13:16Z</time>
      </trkpt>
      <trkpt lat="53.072977988049388" lon="-6.539590023458004">
        <ele>208.74000000000001</ele>
        <time>2026-07-09T11:13:17Z</time>
      </trkpt>
      <trkpt lat="53.072967007756233" lon="-6.53945398516953">
        <ele>208.74000000000001</ele>
        <time>2026-07-09T11:13:18Z</time>
      </trkpt>
      <trkpt lat="53.072942029684782" lon="-6.539273019880056">
        <ele>208.25999999999999</ele>
        <time>2026-07-09T11:13:19Z</time>
      </trkpt>
      <trkpt lat="53.072883021086454" lon="-6.539119966328144">
        <ele>208.25999999999999</ele>
        <time>2026-07-09T11:13:20Z</time>
      </trkpt>
      <trkpt lat="53.072822000831366" lon="-6.53895802795887">
        <ele>208.25999999999999</ele>
        <time>2026-07-09T11:13:21Z</time>
      </trkpt>
      <trkpt lat="53.072060002014041" lon="-6.537080984562635">
        <ele>212.11000000000001</ele>
        <time>2026-07-09T11:13:31Z</time>
      </trkpt>
      <trkpt lat="53.071250980719924" lon="-6.535485992208123">
        <ele>217.40000000000001</ele>
        <time>2026-07-09T11:13:40Z</time>
      </trkpt>
      <trkpt lat="53.070617979392409" lon="-6.534111024811864">
        <ele>223.63999999999999</ele>
        <time>2026-07-09T11:13:48Z</time>
      </trkpt>
      <trkpt lat="53.069952959194779" lon="-6.533196978271008">
        <ele>228.93000000000001</ele>
        <time>2026-07-09T11:13:56Z</time>
      </trkpt>
      <trkpt lat="53.069872995838523" lon="-6.533117014914751">
        <ele>229.41</ele>
        <time>2026-07-09T11:13:57Z</time>
      </trkpt>
      <trkpt lat="53.069791020825505" lon="-6.533035039901733">
        <ele>229.41</ele>
        <time>2026-07-09T11:13:58Z</time>
      </trkpt>
      <trkpt lat="53.069103034213185" lon="-6.532301958650351">
        <ele>229.88999999999999</ele>
        <time>2026-07-09T11:14:06Z</time>
      </trkpt>
      <trkpt lat="53.069030027836561" lon="-6.532209003344178">
        <ele>229.88999999999999</ele>
        <time>2026-07-09T11:14:07Z</time>
      </trkpt>
      <trkpt lat="53.068843027576804" lon="-6.531971041113138">
        <ele>231.81</ele>
        <time>2026-07-09T11:14:10Z</time>
      </trkpt>
      <trkpt lat="53.068803967908025" lon="-6.531921001151204">
        <ele>232.30000000000001</ele>
        <time>2026-07-09T11:14:11Z</time>
      </trkpt>
      <trkpt lat="53.068843027576804" lon="-6.53184799477458">
        <ele>233.25999999999999</ele>
        <time>2026-07-09T11:14:13Z</time>
      </trkpt>
      <trkpt lat="53.068885020911694" lon="-6.531875990331173">
        <ele>233.74000000000001</ele>
        <time>2026-07-09T11:14:14Z</time>
      </trkpt>
      <trkpt lat="53.068945035338402" lon="-6.53191396035254">
        <ele>234.22</ele>
        <time>2026-07-09T11:14:15Z</time>
      </trkpt>
      <trkpt lat="53.069022987037897" lon="-6.531961988657713">
        <ele>235.18000000000001</ele>
        <time>2026-07-09T11:14:16Z</time>
      </trkpt>
      <trkpt lat="53.069118037819862" lon="-6.53201999142766">
        <ele>235.66</ele>
        <time>2026-07-09T11:14:17Z</time>
      </trkpt>
      <trkpt lat="53.069229014217854" lon="-6.532087968662381">
        <ele>236.62</ele>
        <time>2026-07-09T11:14:18Z</time>
      </trkpt>
      <trkpt lat="53.069358011707664" lon="-6.532140020281076">
        <ele>237.09999999999999</ele>
        <time>2026-07-09T11:14:19Z</time>
      </trkpt>
      <trkpt lat="53.069495977833867" lon="-6.532172039151192">
        <ele>238.06</ele>
        <time>2026-07-09T11:14:20Z</time>
      </trkpt>
      <trkpt lat="53.069649031385779" lon="-6.532207997515798">
        <ele>238.53999999999999</ele>
        <time>2026-07-09T11:14:21Z</time>
      </trkpt>
      <trkpt lat="53.069976009428501" lon="-6.532162986695766">
        <ele>239.99000000000001</ele>
        <time>2026-07-09T11:14:23Z</time>
      </trkpt>
      <trkpt lat="53.07111301459372" lon="-6.53199995867908">
        <ele>247.19999999999999</ele>
        <time>2026-07-09T11:14:30Z</time>
      </trkpt>
      <trkpt lat="53.07126497849822" lon="-6.532043963670731">
        <ele>247.68000000000001</ele>
        <time>2026-07-09T11:14:31Z</time>
      </trkpt>
      <trkpt lat="53.07141400873661" lon="-6.532111018896103">
        <ele>247.68000000000001</ele>
        <time>2026-07-09T11:14:32Z</time>
      </trkpt>
      <trkpt lat="53.07229301892221" lon="-6.532461969181895">
        <ele>246.22999999999999</ele>
        <time>2026-07-09T11:14:38Z</time>
      </trkpt>
      <trkpt lat="53.07244498282671" lon="-6.532483007758856">
        <ele>246.22999999999999</ele>
        <time>2026-07-09T11:14:39Z</time>
      </trkpt>
      <trkpt lat="53.072590995579958" lon="-6.532439002767205">
        <ele>245.75</ele>
        <time>2026-07-09T11:14:40Z</time>
      </trkpt>
      <trkpt lat="53.072734996676445" lon="-6.532373037189245">
        <ele>245.75</ele>
        <time>2026-07-09T11:14:41Z</time>
      </trkpt>
      <trkpt lat="53.07287497445941" lon="-6.532308999449015">
        <ele>245.75</ele>
        <time>2026-07-09T11:14:42Z</time>
      </trkpt>
      <trkpt lat="53.072999026626348" lon="-6.532252002507448">
        <ele>245.75</ele>
        <time>2026-07-09T11:14:43Z</time>
      </trkpt>
      <trkpt lat="53.07311100885272" lon="-6.532131973654032">
        <ele>246.22999999999999</ele>
        <time>2026-07-09T11:14:44Z</time>
      </trkpt>
      <trkpt lat="53.073226008564234" lon="-6.532008005306125">
        <ele>246.72</ele>
        <time>2026-07-09T11:14:45Z</time>
      </trkpt>
      <trkpt lat="53.07362599298358" lon="-6.531596034765244">
        <ele>246.22999999999999</ele>
        <time>2026-07-09T11:14:48Z</time>
      </trkpt>
      <trkpt lat="53.073766976594925" lon="-6.531495032832027">
        <ele>246.22999999999999</ele>
        <time>2026-07-09T11:14:49Z</time>
      </trkpt>
      <trkpt lat="53.073899997398257" lon="-6.531411968171597">
        <ele>245.75</ele>
        <time>2026-07-09T11:14:50Z</time>
      </trkpt>
      <trkpt lat="53.074037963524461" lon="-6.531394030898809">
        <ele>244.78999999999999</ele>
        <time>2026-07-09T11:14:51Z</time>
      </trkpt>
      <trkpt lat="53.074200991541147" lon="-6.531371986493468">
        <ele>244.31</ele>
        <time>2026-07-09T11:14:52Z</time>
      </trkpt>
      <trkpt lat="53.074333006516099" lon="-6.531399982050061">
        <ele>243.83000000000001</ele>
        <time>2026-07-09T11:14:53Z</time>
      </trkpt>
      <trkpt lat="53.074491005390882" lon="-6.531433006748557">
        <ele>243.34999999999999</ele>
        <time>2026-07-09T11:14:54Z</time>
      </trkpt>
      <trkpt lat="53.075850969180465" lon="-6.531893005594611">
        <ele>241.91</ele>
        <time>2026-07-09T11:15:02Z</time>
      </trkpt>
      <trkpt lat="53.077356023713946" lon="-6.532043041661382">
        <ele>244.78999999999999</ele>
        <time>2026-07-09T11:15:11Z</time>
      </trkpt>
      <trkpt lat="53.079012958332896" lon="-6.532505974173546">
        <ele>242.87</ele>
        <time>2026-07-09T11:15:22Z</time>
      </trkpt>
      <trkpt lat="53.080598982051015" lon="-6.532960021868348">
        <ele>243.34999999999999</ele>
        <time>2026-07-09T11:15:32Z</time>
      </trkpt>
      <trkpt lat="53.080911040306091" lon="-6.532899001613259">
        <ele>242.38999999999999</ele>
        <time>2026-07-09T11:15:34Z</time>
      </trkpt>
      <trkpt lat="53.082706024870276" lon="-6.532151000574231">
        <ele>231.81</ele>
        <time>2026-07-09T11:15:45Z</time>
      </trkpt>
      <trkpt lat="53.083907989785075" lon="-6.531658982858062">
        <ele>225.09</ele>
        <time>2026-07-09T11:15:52Z</time>
      </trkpt>
      <trkpt lat="53.085086988285184" lon="-6.53103000484407">
        <ele>226.05000000000001</ele>
        <time>2026-07-09T11:15:59Z</time>
      </trkpt>
      <trkpt lat="53.08617596514523" lon="-6.530274963006377">
        <ele>226.53</ele>
        <time>2026-07-09T11:16:06Z</time>
      </trkpt>
      <trkpt lat="53.086342010647058" lon="-6.530239004641771">
        <ele>227.00999999999999</ele>
        <time>2026-07-09T11:16:07Z</time>
      </trkpt>
      <trkpt lat="53.086511995643377" lon="-6.530216038227081">
        <ele>227.49000000000001</ele>
        <time>2026-07-09T11:16:08Z</time>
      </trkpt>
      <trkpt lat="53.088611997663975" lon="-6.53013096190989">
        <ele>232.78</ele>
        <time>2026-07-09T11:16:20Z</time>
      </trkpt>
      <trkpt lat="53.090795986354351" lon="-6.529746986925602">
        <ele>239.50999999999999</ele>
        <time>2026-07-09T11:16:32Z</time>
      </trkpt>
      <trkpt lat="53.092527016997337" lon="-6.529359994456172">
        <ele>239.50999999999999</ele>
        <time>2026-07-09T11:16:42Z</time>
      </trkpt>
      <trkpt lat="53.09279004111886" lon="-6.529240971431136">
        <ele>239.50999999999999</ele>
        <time>2026-07-09T11:16:44Z</time>
      </trkpt>
      <trkpt lat="53.092893976718187" lon="-6.529137035831809">
        <ele>239.50999999999999</ele>
        <time>2026-07-09T11:16:45Z</time>
      </trkpt>
      <trkpt lat="53.092979975044727" lon="-6.529013989493251">
        <ele>239.02000000000001</ele>
        <time>2026-07-09T11:16:46Z</time>
      </trkpt>
      <trkpt lat="53.093030015006661" lon="-6.528889015316963">
        <ele>239.02000000000001</ele>
        <time>2026-07-09T11:16:47Z</time>
      </trkpt>
      <trkpt lat="53.093060022220016" lon="-6.528770998120308">
        <ele>238.53999999999999</ele>
        <time>2026-07-09T11:16:48Z</time>
      </trkpt>
      <trkpt lat="53.093079971149564" lon="-6.528675025328994">
        <ele>238.06</ele>
        <time>2026-07-09T11:16:49Z</time>
      </trkpt>
      <trkpt lat="53.093094974756241" lon="-6.528605036437511">
        <ele>236.62</ele>
        <time>2026-07-09T11:16:55Z</time>
      </trkpt>
      <trkpt lat="53.093094974756241" lon="-6.528605036437511">
        <ele>236.13999999999999</ele>
        <time>2026-07-09T11:17:44Z</time>
      </trkpt>
      <trkpt lat="53.093094974756241" lon="-6.528605036437511">
        <ele>235.66</ele>
        <time>2026-07-09T11:17:52Z</time>
      </trkpt>
      <trkpt lat="53.093111990019679" lon="-6.528524989262223">
        <ele>235.18000000000001</ele>
        <time>2026-07-09T11:17:53Z</time>
      </trkpt>
      <trkpt lat="53.093126993626356" lon="-6.528455000370741">
        <ele>234.69999999999999</ele>
        <time>2026-07-09T11:17:54Z</time>
      </trkpt>
      <trkpt lat="53.093311982229352" lon="-6.527583030983806">
        <ele>231.33000000000001</ele>
        <time>2026-07-09T11:18:00Z</time>
      </trkpt>
      <trkpt lat="53.093402003869414" lon="-6.527298968285322">
        <ele>230.37</ele>
        <time>2026-07-09T11:18:02Z</time>
      </trkpt>
      <trkpt lat="53.093450032174587" lon="-6.52718598023057">
        <ele>229.88999999999999</ele>
        <time>2026-07-09T11:18:03Z</time>
      </trkpt>
      <trkpt lat="53.093514991924167" lon="-6.527096964418888">
        <ele>229.88999999999999</ele>
        <time>2026-07-09T11:18:04Z</time>
      </trkpt>
      <trkpt lat="53.093583974987268" lon="-6.527004009112716">
        <ele>229.41</ele>
        <time>2026-07-09T11:18:05Z</time>
      </trkpt>
      <trkpt lat="53.093651030212641" lon="-6.526911975815892">
        <ele>229.41</ele>
        <time>2026-07-09T11:18:06Z</time>
      </trkpt>
      <trkpt lat="53.093718001618981" lon="-6.526821032166481">
        <ele>229.41</ele>
        <time>2026-07-09T11:18:07Z</time>
      </trkpt>
      <trkpt lat="53.093784973025322" lon="-6.526730004698038">
        <ele>229.41</ele>
        <time>2026-07-09T11:18:08Z</time>
      </trkpt>
      <trkpt lat="53.093853034079075" lon="-6.526637971401215">
        <ele>228.93000000000001</ele>
        <time>2026-07-09T11:18:09Z</time>
      </trkpt>
      <trkpt lat="53.094002986326814" lon="-6.526419958099723">
        <ele>227.97</ele>
        <time>2026-07-09T11:18:11Z</time>
      </trkpt>
      <trkpt lat="53.094736989587545" lon="-6.525026969611645">
        <ele>221.24000000000001</ele>
        <time>2026-07-09T11:18:21Z</time>
      </trkpt>
      <trkpt lat="53.094803960993886" lon="-6.524954969063401">
        <ele>220.75999999999999</ele>
        <time>2026-07-09T11:18:22Z</time>
      </trkpt>
      <trkpt lat="53.094873027876019" lon="-6.524952035397291">
        <ele>219.80000000000001</ele>
        <time>2026-07-09T11:18:23Z</time>
      </trkpt>
      <trkpt lat="53.095530001446605" lon="-6.524935020133853">
        <ele>214.50999999999999</ele>
        <time>2026-07-09T11:18:29Z</time>
      </trkpt>
      <trkpt lat="53.096876973286271" lon="-6.52495002374053">
        <ele>205.38</ele>
        <time>2026-07-09T11:18:40Z</time>
      </trkpt>
      <trkpt lat="53.098684027791023" lon="-6.524955974891782">
        <ele>198.16999999999999</ele>
        <time>2026-07-09T11:18:52Z</time>
      </trkpt>
      <trkpt lat="53.10022696852684" lon="-6.524964021518827">
        <ele>195.28</ele>
        <time>2026-07-09T11:19:02Z</time>
      </trkpt>
      <trkpt lat="53.101752977818251" lon="-6.524983970448375">
        <ele>196.25</ele>
        <time>2026-07-09T11:19:11Z</time>
      </trkpt>
      <trkpt lat="53.102703988552094" lon="-6.524997968226671">
        <ele>196.25</ele>
        <time>2026-07-09T11:19:17Z</time>
      </trkpt>
      <trkpt lat="53.102869028225541" lon="-6.524997968226671">
        <ele>196.25</ele>
        <time>2026-07-09T11:19:18Z</time>
      </trkpt>
      <trkpt lat="53.104041991755366" lon="-6.524980030953884">
        <ele>196.72999999999999</ele>
        <time>2026-07-09T11:19:26Z</time>
      </trkpt>
      <trkpt lat="53.104983028024435" lon="-6.524998974055052">
        <ele>198.16999999999999</ele>
        <time>2026-07-09T11:19:35Z</time>
      </trkpt>
      <trkpt lat="53.105121999979019" lon="-6.524998974055052">
        <ele>198.16999999999999</ele>
        <time>2026-07-09T11:19:37Z</time>
      </trkpt>
      <trkpt lat="53.105194000527263" lon="-6.524998974055052">
        <ele>198.16999999999999</ele>
        <time>2026-07-09T11:19:38Z</time>
      </trkpt>
      <trkpt lat="53.105996986851096" lon="-6.525000985711813">
        <ele>201.53</ele>
        <time>2026-07-09T11:19:47Z</time>
      </trkpt>
      <trkpt lat="53.106636023148894" lon="-6.525018000975251">
        <ele>202.97999999999999</ele>
        <time>2026-07-09T11:19:54Z</time>
      </trkpt>
      <trkpt lat="53.106889994814992" lon="-6.525096958503127">
        <ele>203.46000000000001</ele>
        <time>2026-07-09T11:19:57Z</time>
      </trkpt>
      <trkpt lat="53.107742015272379" lon="-6.525692995637655">
        <ele>204.90000000000001</ele>
        <time>2026-07-09T11:20:06Z</time>
      </trkpt>
      <trkpt lat="53.108244007453322" lon="-6.526035983115435">
        <ele>205.38</ele>
        <time>2026-07-09T11:20:12Z</time>
      </trkpt>
      <trkpt lat="53.108313996344805" lon="-6.526078982278705">
        <ele>205.38</ele>
        <time>2026-07-09T11:20:13Z</time>
      </trkpt>
      <trkpt lat="53.108551036566496" lon="-6.526222983375192">
        <ele>204.90000000000001</ele>
        <time>2026-07-09T11:20:16Z</time>
      </trkpt>
      <trkpt lat="53.108635023236275" lon="-6.526274029165506">
        <ele>203.94</ele>
        <time>2026-07-09T11:20:17Z</time>
      </trkpt>
      <trkpt lat="53.109025033190846" lon="-6.526524983346462">
        <ele>201.05000000000001</ele>
        <time>2026-07-09T11:20:22Z</time>
      </trkpt>
      <trkpt lat="53.109873030334711" lon="-6.527019012719393">
        <ele>199.61000000000001</ele>
        <time>2026-07-09T11:20:29Z</time>
      </trkpt>
      <trkpt lat="53.111220002174377" lon="-6.527700964361429">
        <ele>198.16999999999999</ele>
        <time>2026-07-09T11:20:38Z</time>
      </trkpt>
      <trkpt lat="53.113113977015018" lon="-6.52834402397275">
        <ele>198.16999999999999</ele>
        <time>2026-07-09T11:20:50Z</time>
      </trkpt>
      <trkpt lat="53.11356701888144" lon="-6.528465980663896">
        <ele>199.13</ele>
        <time>2026-07-09T11:20:53Z</time>
      </trkpt>
      <trkpt lat="53.113701967522502" lon="-6.528524989262223">
        <ele>199.13</ele>
        <time>2026-07-09T11:20:54Z</time>
      </trkpt>
      <trkpt lat="53.113832976669073" lon="-6.52858299203217">
        <ele>199.13</ele>
        <time>2026-07-09T11:20:55Z</time>
      </trkpt>
      <trkpt lat="53.113949988037348" lon="-6.528698997572064">
        <ele>199.13</ele>
        <time>2026-07-09T11:20:56Z</time>
      </trkpt>
      <trkpt lat="53.114059958606958" lon="-6.528847021982074">
        <ele>199.13</ele>
        <time>2026-07-09T11:20:57Z</time>
      </trkpt>
      <trkpt lat="53.114159032702446" lon="-6.529014995321631">
        <ele>199.13</ele>
        <time>2026-07-09T11:20:58Z</time>
      </trkpt>
      <trkpt lat="53.114260034635663" lon="-6.529185986146331">
        <ele>199.13</ele>
        <time>2026-07-09T11:20:59Z</time>
      </trkpt>
      <trkpt lat="53.114740988239646" lon="-6.530222995206714">
        <ele>197.21000000000001</ele>
        <time>2026-07-09T11:21:04Z</time>
      </trkpt>
      <trkpt lat="53.115282040089369" lon="-6.532293995842338">
        <ele>193.84</ele>
        <time>2026-07-09T11:21:11Z</time>
      </trkpt>
      <trkpt lat="53.115627961233258" lon="-6.534350998699665">
        <ele>195.28</ele>
        <time>2026-07-09T11:21:19Z</time>
      </trkpt>
      <trkpt lat="53.116155015304685" lon="-6.537206964567304">
        <ele>194.80000000000001</ele>
        <time>2026-07-09T11:21:30Z</time>
      </trkpt>
      <trkpt lat="53.1163389980793" lon="-6.537815993651748">
        <ele>194.31999999999999</ele>
        <time>2026-07-09T11:21:33Z</time>
      </trkpt>
      <trkpt lat="53.116784999147058" lon="-6.538644041866064">
        <ele>193.84</ele>
        <time>2026-07-09T11:21:38Z</time>
      </trkpt>
      <trkpt lat="53.116896981373429" lon="-6.5387889649719">
        <ele>193.84</ele>
        <time>2026-07-09T11:21:39Z</time>
      </trkpt>
      <trkpt lat="53.11702698469162" lon="-6.538897007703781">
        <ele>193.84</ele>
        <time>2026-07-09T11:21:40Z</time>
      </trkpt>
      <trkpt lat="53.117164028808475" lon="-6.538999015465379">
        <ele>193.84</ele>
        <time>2026-07-09T11:21:41Z</time>
      </trkpt>
      <trkpt lat="53.117314986884594" lon="-6.539050983265042">
        <ele>193.84</ele>
        <time>2026-07-09T11:21:42Z</time>
      </trkpt>
      <trkpt lat="53.117468040436506" lon="-6.539104962721467">
        <ele>194.31999999999999</ele>
        <time>2026-07-09T11:21:43Z</time>
      </trkpt>
      <trkpt lat="53.117624027654529" lon="-6.53913295827806">
        <ele>194.31999999999999</ele>
        <time>2026-07-09T11:21:44Z</time>
      </trkpt>
      <trkpt lat="53.117783032357693" lon="-6.539113009348512">
        <ele>194.31999999999999</ele>
        <time>2026-07-09T11:21:45Z</time>
      </trkpt>
      <trkpt lat="53.117934996262193" lon="-6.539085013791919">
        <ele>194.80000000000001</ele>
        <time>2026-07-09T11:21:46Z</time>
      </trkpt>
      <trkpt lat="53.118092995136976" lon="-6.539011001586914">
        <ele>195.28</ele>
        <time>2026-07-09T11:21:47Z</time>
      </trkpt>
      <trkpt lat="53.11840396374464" lon="-6.538832969963551">
        <ele>197.21000000000001</ele>
        <time>2026-07-09T11:21:49Z</time>
      </trkpt>
      <trkpt lat="53.119395039975643" lon="-6.537833008915186">
        <ele>199.13</ele>
        <time>2026-07-09T11:21:56Z</time>
      </trkpt>
      <trkpt lat="53.120911996811628" lon="-6.536089992150664">
        <ele>202.49000000000001</ele>
        <time>2026-07-09T11:22:07Z</time>
      </trkpt>
      <trkpt lat="53.122797003015876" lon="-6.533944979310036">
        <ele>204.90000000000001</ele>
        <time>2026-07-09T11:22:20Z</time>
      </trkpt>
      <trkpt lat="53.124560974538326" lon="-6.532102972269058">
        <ele>205.38</ele>
        <time>2026-07-09T11:22:31Z</time>
      </trkpt>
      <trkpt lat="53.125928984954953" lon="-6.531464019790292">
        <ele>203.46000000000001</ele>
        <time>2026-07-09T11:22:39Z</time>
      </trkpt>
      <trkpt lat="53.127667978405952" lon="-6.530791958793998">
        <ele>206.81999999999999</ele>
        <time>2026-07-09T11:22:50Z</time>
      </trkpt>
      <trkpt lat="53.127813991159201" lon="-6.530697997659445">
        <ele>207.30000000000001</ele>
        <time>2026-07-09T11:22:51Z</time>
      </trkpt>
      <trkpt lat="53.127942988649011" lon="-6.530561037361622">
        <ele>207.78</ele>
        <time>2026-07-09T11:22:52Z</time>
      </trkpt>
      <trkpt lat="53.128062011674047" lon="-6.530400021001697">
        <ele>208.25999999999999</ele>
        <time>2026-07-09T11:22:53Z</time>
      </trkpt>
      <trkpt lat="53.128184974193573" lon="-6.530233975499868">
        <ele>208.74000000000001</ele>
        <time>2026-07-09T11:22:54Z</time>
      </trkpt>
      <trkpt lat="53.128298968076706" lon="-6.530046975240111">
        <ele>209.22</ele>
        <time>2026-07-09T11:22:55Z</time>
      </trkpt>
      <trkpt lat="53.129435973241925" lon="-6.527976980432868">
        <ele>212.59</ele>
        <time>2026-07-09T11:23:05Z</time>
      </trkpt>
      <trkpt lat="53.130173999816179" lon="-6.526293978095055">
        <ele>215.47</ele>
        <time>2026-07-09T11:23:13Z</time>
      </trkpt>
      <trkpt lat="53.130278019234538" lon="-6.526123993098736">
        <ele>215.47</ele>
        <time>2026-07-09T11:23:14Z</time>
      </trkpt>
      <trkpt lat="53.130524028092623" lon="-6.525890976190567">
        <ele>215.47</ele>
        <time>2026-07-09T11:23:16Z</time>
      </trkpt>
      <trkpt lat="53.130663000047207" lon="-6.525801038369536">
        <ele>215.47</ele>
        <time>2026-07-09T11:23:17Z</time>
      </trkpt>
      <trkpt lat="53.130802977830172" lon="-6.525728031992912">
        <ele>214.99000000000001</ele>
        <time>2026-07-09T11:23:18Z</time>
      </trkpt>
      <trkpt lat="53.130946978926659" lon="-6.525675980374217">
        <ele>215.47</ele>
        <time>2026-07-09T11:23:19Z</time>
      </trkpt>
      <trkpt lat="53.131095003336668" lon="-6.525622000917792">
        <ele>215.47</ele>
        <time>2026-07-09T11:23:20Z</time>
      </trkpt>
      <trkpt lat="53.132678009569645" lon="-6.525052031502128">
        <ele>218.84</ele>
        <time>2026-07-09T11:23:30Z</time>
      </trkpt>
      <trkpt lat="53.135012034326792" lon="-6.524302018806338">
        <ele>223.16</ele>
        <time>2026-07-09T11:23:44Z</time>
      </trkpt>
      <trkpt lat="53.136870972812176" lon="-6.523842019960284">
        <ele>229.41</ele>
        <time>2026-07-09T11:23:55Z</time>
      </trkpt>
      <trkpt lat="53.138185003772378" lon="-6.524150976911187">
        <ele>232.30000000000001</ele>
        <time>2026-07-09T11:24:03Z</time>
      </trkpt>
      <trkpt lat="53.139474978670478" lon="-6.524506034329534">
        <ele>227.00999999999999</ele>
        <time>2026-07-09T11:24:11Z</time>
      </trkpt>
      <trkpt lat="53.13997202552855" lon="-6.524642994627357">
        <ele>224.61000000000001</ele>
        <time>2026-07-09T11:24:14Z</time>
      </trkpt>
      <trkpt lat="53.141494011506438" lon="-6.525298040360212">
        <ele>218.36000000000001</ele>
        <time>2026-07-09T11:24:23Z</time>
      </trkpt>
      <trkpt lat="53.142966041341424" lon="-6.525999018922448">
        <ele>214.50999999999999</ele>
        <time>2026-07-09T11:24:32Z</time>
      </trkpt>
      <trkpt lat="53.143269969150424" lon="-6.526161963120103">
        <ele>213.55000000000001</ele>
        <time>2026-07-09T11:24:34Z</time>
      </trkpt>
      <trkpt lat="53.144015958532691" lon="-6.526728998869658">
        <ele>211.63</ele>
        <time>2026-07-09T11:24:39Z</time>
      </trkpt>
      <trkpt lat="53.14536795951426" lon="-6.527683027088642">
        <ele>208.25999999999999</ele>
        <time>2026-07-09T11:24:48Z</time>
      </trkpt>
      <trkpt lat="53.145912028849125" lon="-6.528025008738041">
        <ele>205.86000000000001</ele>
        <time>2026-07-09T11:24:52Z</time>
      </trkpt>
      <trkpt lat="53.147113993763924" lon="-6.528877029195428">
        <ele>204.90000000000001</ele>
        <time>2026-07-09T11:25:01Z</time>
      </trkpt>
      <trkpt lat="53.147243997082114" lon="-6.528979036957026">
        <ele>204.90000000000001</ele>
        <time>2026-07-09T11:25:02Z</time>
      </trkpt>
      <trkpt lat="53.148363986983895" lon="-6.530430028215051">
        <ele>204.90000000000001</ele>
        <time>2026-07-09T11:25:11Z</time>
      </trkpt>
      <trkpt lat="53.148727007210255" lon="-6.530993962660432">
        <ele>203.46000000000001</ele>
        <time>2026-07-09T11:25:14Z</time>
      </trkpt>
      <trkpt lat="53.148832032456994" lon="-6.531211975961924">
        <ele>202.49000000000001</ele>
        <time>2026-07-09T11:25:15Z</time>
      </trkpt>
      <trkpt lat="53.14901702105999" lon="-6.531634004786611">
        <ele>200.09</ele>
        <time>2026-07-09T11:25:17Z</time>
      </trkpt>
      <trkpt lat="53.149245008826256" lon="-6.532332971692085">
        <ele>197.21000000000001</ele>
        <time>2026-07-09T11:25:20Z</time>
      </trkpt>
      <trkpt lat="53.149796035140753" lon="-6.534439008682966">
        <ele>196.25</ele>
        <time>2026-07-09T11:25:29Z</time>
      </trkpt>
      <trkpt lat="53.149807015433908" lon="-6.534677976742387">
        <ele>196.25</ele>
        <time>2026-07-09T11:25:30Z</time>
      </trkpt>
      <trkpt lat="53.149817995727062" lon="-6.534890960901976">
        <ele>196.25</ele>
        <time>2026-07-09T11:25:31Z</time>
      </trkpt>
      <trkpt lat="53.149782959371805" lon="-6.535105034708977">
        <ele>196.25</ele>
        <time>2026-07-09T11:25:32Z</time>
      </trkpt>
      <trkpt lat="53.149754041805863" lon="-6.535290023311973">
        <ele>196.72999999999999</ele>
        <time>2026-07-09T11:25:33Z</time>
      </trkpt>
      <trkpt lat="53.149711964651942" lon="-6.535461014136672">
        <ele>196.72999999999999</ele>
        <time>2026-07-09T11:25:34Z</time>
      </trkpt>
      <trkpt lat="53.149634012952447" lon="-6.535594034940004">
        <ele>197.21000000000001</ele>
        <time>2026-07-09T11:25:35Z</time>
      </trkpt>
      <trkpt lat="53.149551032111049" lon="-6.535733006894589">
        <ele>197.21000000000001</ele>
        <time>2026-07-09T11:25:36Z</time>
      </trkpt>
      <trkpt lat="53.149452963843942" lon="-6.535899974405766">
        <ele>197.21000000000001</ele>
        <time>2026-07-09T11:25:37Z</time>
      </trkpt>
      <trkpt lat="53.149349028244615" lon="-6.536002987995744">
        <ele>197.21000000000001</ele>
        <time>2026-07-09T11:25:38Z</time>
      </trkpt>
      <trkpt lat="53.149225981906056" lon="-6.536127040162683">
        <ele>196.72999999999999</ele>
        <time>2026-07-09T11:25:39Z</time>
      </trkpt>
      <trkpt lat="53.149102013558149" lon="-6.53625100851059">
        <ele>196.72999999999999</ele>
        <time>2026-07-09T11:25:40Z</time>
      </trkpt>
      <trkpt lat="53.148889029398561" lon="-6.53653297573328">
        <ele>195.77000000000001</ele>
        <time>2026-07-09T11:25:42Z</time>
      </trkpt>
      <trkpt lat="53.148791966959834" lon="-6.536664990708232">
        <ele>195.28</ele>
        <time>2026-07-09T11:25:43Z</time>
      </trkpt>
      <trkpt lat="53.148712003603578" lon="-6.536812009289861">
        <ele>194.80000000000001</ele>
        <time>2026-07-09T11:25:44Z</time>
      </trkpt>
      <trkpt lat="53.148671016097069" lon="-6.53700303286314">
        <ele>194.31999999999999</ele>
        <time>2026-07-09T11:25:45Z</time>
      </trkpt>
      <trkpt lat="53.148651989176869" lon="-6.537209982052445">
        <ele>194.31999999999999</ele>
        <time>2026-07-09T11:25:46Z</time>
      </trkpt>
      <trkpt lat="53.148642014712095" lon="-6.537422966212034">
        <ele>193.84</ele>
        <time>2026-07-09T11:25:47Z</time>
      </trkpt>
      <trkpt lat="53.148640003055334" lon="-6.537646008655429">
        <ele>193.84</ele>
        <time>2026-07-09T11:25:48Z</time>
      </trkpt>
      <trkpt lat="53.148645032197237" lon="-6.537867961451411">
        <ele>194.31999999999999</ele>
        <time>2026-07-09T11:25:49Z</time>
      </trkpt>
      <trkpt lat="53.148722983896732" lon="-6.541140004992485">
        <ele>196.25</ele>
        <time>2026-07-09T11:26:04Z</time>
      </trkpt>
      <trkpt lat="53.148733964189887" lon="-6.541400011628866">
        <ele>195.77000000000001</ele>
        <time>2026-07-09T11:26:05Z</time>
      </trkpt>
      <trkpt lat="53.149100001901388" lon="-6.543862028047442">
        <ele>193.36000000000001</ele>
        <time>2026-07-09T11:26:14Z</time>
      </trkpt>
      <trkpt lat="53.149872981011868" lon="-6.548282979056239">
        <ele>190.47999999999999</ele>
        <time>2026-07-09T11:26:30Z</time>
      </trkpt>
      <trkpt lat="53.150425013154745" lon="-6.551461983472109">
        <ele>188.08000000000001</ele>
        <time>2026-07-09T11:26:42Z</time>
      </trkpt>
      <trkpt lat="53.150838995352387" lon="-6.553846970200539">
        <ele>187.11000000000001</ele>
        <time>2026-07-09T11:26:52Z</time>
      </trkpt>
      <trkpt lat="53.150899009779096" lon="-6.55419004149735">
        <ele>186.63</ele>
        <time>2026-07-09T11:26:54Z</time>
      </trkpt>
      <trkpt lat="53.151040999218822" lon="-6.555042983964086">
        <ele>191.44</ele>
        <time>2026-07-09T11:27:02Z</time>
      </trkpt>
      <trkpt lat="53.151065977290273" lon="-6.55520299449563">
        <ele>193.36000000000001</ele>
        <time>2026-07-09T11:27:11Z</time>
      </trkpt>
      <trkpt lat="53.151076035574079" lon="-6.555271977558732">
        <ele>194.31999999999999</ele>
        <time>2026-07-09T11:27:20Z</time>
      </trkpt>
      <trkpt lat="53.151092967018485" lon="-6.555312965065241">
        <ele>194.80000000000001</ele>
        <time>2026-07-09T11:27:21Z</time>
      </trkpt>
      <trkpt lat="53.151147030293941" lon="-6.555280024185777">
        <ele>194.80000000000001</ele>
        <time>2026-07-09T11:27:22Z</time>
      </trkpt>
      <trkpt lat="53.151221964508295" lon="-6.555234007537365">
        <ele>195.28</ele>
        <time>2026-07-09T11:27:23Z</time>
      </trkpt>
      <trkpt lat="53.151309974491596" lon="-6.555181033909321">
        <ele>195.28</ele>
        <time>2026-07-09T11:27:24Z</time>
      </trkpt>
      <trkpt lat="53.151410976424813" lon="-6.555119007825851">
        <ele>195.77000000000001</ele>
        <time>2026-07-09T11:27:25Z</time>
      </trkpt>
      <trkpt lat="53.152357963845134" lon="-6.554538980126381">
        <ele>195.28</ele>
        <time>2026-07-09T11:27:32Z</time>
      </trkpt>
      <trkpt lat="53.154261996969581" lon="-6.553497025743127">
        <ele>194.31999999999999</ele>
        <time>2026-07-09T11:27:43Z</time>
      </trkpt>
      <trkpt lat="53.156380020081997" lon="-6.552486000582576">
        <ele>192.40000000000001</ele>
        <time>2026-07-09T11:27:54Z</time>
      </trkpt>
      <trkpt lat="53.158550010994077" lon="-6.551716038957238">
        <ele>197.21000000000001</ele>
        <time>2026-07-09T11:28:04Z</time>
      </trkpt>
      <trkpt lat="53.159360960125923" lon="-6.551347989588976">
        <ele>200.56999999999999</ele>
        <time>2026-07-09T11:28:08Z</time>
      </trkpt>
      <trkpt lat="53.159531028941274" lon="-6.551156966015697">
        <ele>201.53</ele>
        <time>2026-07-09T11:28:09Z</time>
      </trkpt>
      <trkpt lat="53.159700008109212" lon="-6.550936019048095">
        <ele>202.00999999999999</ele>
        <time>2026-07-09T11:28:10Z</time>
      </trkpt>
      <trkpt lat="53.159843003377318" lon="-6.550637958571315">
        <ele>202.00999999999999</ele>
        <time>2026-07-09T11:28:11Z</time>
      </trkpt>
      <trkpt lat="53.159977030009031" lon="-6.550310980528593">
        <ele>202.49000000000001</ele>
        <time>2026-07-09T11:28:12Z</time>
      </trkpt>
      <trkpt lat="53.160095969215035" lon="-6.549953995272517">
        <ele>202.97999999999999</ele>
        <time>2026-07-09T11:28:13Z</time>
      </trkpt>
      <trkpt lat="53.160975985229015" lon="-6.548138977959752">
        <ele>206.34</ele>
        <time>2026-07-09T11:28:19Z</time>
      </trkpt>
      <trkpt lat="53.161937976256013" lon="-6.546580027788878">
        <ele>212.59</ele>
        <time>2026-07-09T11:28:26Z</time>
      </trkpt>
      <trkpt lat="53.162800977006555" lon="-6.545175975188613">
        <ele>220.28</ele>
        <time>2026-07-09T11:28:33Z</time>
      </trkpt>
      <trkpt lat="53.163612009957433" lon="-6.543882982805371">
        <ele>222.68000000000001</ele>
        <time>2026-07-09T11:28:41Z</time>
      </trkpt>
      <trkpt lat="53.164643989875913" lon="-6.542499968782067">
        <ele>221.72</ele>
        <time>2026-07-09T11:28:51Z</time>
      </trkpt>
      <trkpt lat="53.164696963503957" lon="-6.542426040396094">
        <ele>221.24000000000001</ele>
        <time>2026-07-09T11:28:52Z</time>
      </trkpt>
      <trkpt lat="53.164795031771064" lon="-6.542426040396094">
        <ele>221.24000000000001</ele>
        <time>2026-07-09T11:28:53Z</time>
      </trkpt>
      <trkpt lat="53.164905002340674" lon="-6.542456969618797">
        <ele>221.24000000000001</ele>
        <time>2026-07-09T11:28:54Z</time>
      </trkpt>
      <trkpt lat="53.164967028424144" lon="-6.542380023747683">
        <ele>220.75999999999999</ele>
        <time>2026-07-09T11:28:55Z</time>
      </trkpt>
      <trkpt lat="53.165010027587414" lon="-6.542208027094603">
        <ele>220.75999999999999</ele>
        <time>2026-07-09T11:28:56Z</time>
      </trkpt>
      <trkpt lat="53.165010027587414" lon="-6.542208027094603">
        <ele>220.28</ele>
        <time>2026-07-09T11:28:57Z</time>
      </trkpt>
      <trkpt lat="53.165058977901936" lon="-6.541834026575089">
        <ele>219.80000000000001</ele>
        <time>2026-07-09T11:28:58Z</time>
      </trkpt>
      <trkpt lat="53.165140030905604" lon="-6.541735958307982">
        <ele>219.80000000000001</ele>
        <time>2026-07-09T11:28:59Z</time>
      </trkpt>
      <trkpt lat="53.165245978161693" lon="-6.541606960818172">
        <ele>219.80000000000001</ele>
        <time>2026-07-09T11:29:00Z</time>
      </trkpt>
      <trkpt lat="53.165318984538317" lon="-6.541478969156742">
        <ele>219.80000000000001</ele>
        <time>2026-07-09T11:29:01Z</time>
      </trkpt>
      <trkpt lat="53.166627986356616" lon="-6.539063975214958">
        <ele>219.31999999999999</ele>
        <time>2026-07-09T11:29:16Z</time>
      </trkpt>
      <trkpt lat="53.166714990511537" lon="-6.538903964683414">
        <ele>219.31999999999999</ele>
        <time>2026-07-09T11:29:17Z</time>
      </trkpt>
      <trkpt lat="53.167713023722172" lon="-6.536937989294529">
        <ele>220.28</ele>
        <time>2026-07-09T11:29:29Z</time>
      </trkpt>
      <trkpt lat="53.168626986443996" lon="-6.535272002220154">
        <ele>218.84</ele>
        <time>2026-07-09T11:29:40Z</time>
      </trkpt>
      <trkpt lat="53.169413041323423" lon="-6.534435991197825">
        <ele>218.84</ele>
        <time>2026-07-09T11:29:49Z</time>
      </trkpt>
      <trkpt lat="53.16992299631238" lon="-6.533811958506703">
        <ele>219.80000000000001</ele>
        <time>2026-07-09T11:29:59Z</time>
      </trkpt>
      <trkpt lat="53.170233964920044" lon="-6.533357994630933">
        <ele>219.31999999999999</ele>
        <time>2026-07-09T11:30:06Z</time>
      </trkpt>
      <trkpt lat="53.170261038467288" lon="-6.533320024609566">
        <ele>219.31999999999999</ele>
        <time>2026-07-09T11:30:07Z</time>
      </trkpt>
      <trkpt lat="53.170263972133398" lon="-6.533224973827601">
        <ele>218.84</ele>
        <time>2026-07-09T11:30:08Z</time>
      </trkpt>
      <trkpt lat="53.170241005718708" lon="-6.533169988542795">
        <ele>218.84</ele>
        <time>2026-07-09T11:30:09Z</time>
      </trkpt>
      <trkpt lat="53.170209992676973" lon="-6.533097987994552">
        <ele>218.36000000000001</ele>
        <time>2026-07-09T11:30:10Z</time>
      </trkpt>
      <trkpt lat="53.170175962150097" lon="-6.533017018809915">
        <ele>218.36000000000001</ele>
        <time>2026-07-09T11:30:11Z</time>
      </trkpt>
      <trkpt lat="53.170136986300349" lon="-6.532926997169852">
        <ele>218.36000000000001</ele>
        <time>2026-07-09T11:30:12Z</time>
      </trkpt>
      <trkpt lat="53.170093987137079" lon="-6.532824989408255">
        <ele>218.36000000000001</ele>
        <time>2026-07-09T11:30:13Z</time>
      </trkpt>
      <trkpt lat="53.170001031830907" lon="-6.532606976106763">
        <ele>218.36000000000001</ele>
        <time>2026-07-09T11:30:15Z</time>
      </trkpt>
      <trkpt lat="53.169950991868973" lon="-6.532488958910108">
        <ele>218.84</ele>
        <time>2026-07-09T11:30:16Z</time>
      </trkpt>
      <trkpt lat="53.169916961342096" lon="-6.53236398473382">
        <ele>218.84</ele>
        <time>2026-07-09T11:30:17Z</time>
      </trkpt>
      <trkpt lat="53.169902041554451" lon="-6.532216966152191">
        <ele>218.36000000000001</ele>
        <time>2026-07-09T11:30:18Z</time>
      </trkpt>
      <trkpt lat="53.169886032119393" lon="-6.532070031389594">
        <ele>217.88</ele>
        <time>2026-07-09T11:30:19Z</time>
      </trkpt>
      <trkpt lat="53.16983800381422" lon="-6.531498972326517">
        <ele>217.40000000000001</ele>
        <time>2026-07-09T11:30:23Z</time>
      </trkpt>
      <trkpt lat="53.169858958572149" lon="-6.531217005103827">
        <ele>216.43000000000001</ele>
        <time>2026-07-09T11:30:25Z</time>
      </trkpt>
      <trkpt lat="53.169899024069309" lon="-6.531090019270778">
        <ele>215.94999999999999</ele>
        <time>2026-07-09T11:30:26Z</time>
      </trkpt>
      <trkpt lat="53.169945040717721" lon="-6.530943000689149">
        <ele>215.47</ele>
        <time>2026-07-09T11:30:27Z</time>
      </trkpt>
      <trkpt lat="53.170017041265965" lon="-6.530851973220706">
        <ele>215.47</ele>
        <time>2026-07-09T11:30:28Z</time>
      </trkpt>
      <trkpt lat="53.17009499296546" lon="-6.53075197711587">
        <ele>214.99000000000001</ele>
        <time>2026-07-09T11:30:29Z</time>
      </trkpt>
      <trkpt lat="53.170553985983133" lon="-6.530141020193696">
        <ele>214.03</ele>
        <time>2026-07-09T11:30:35Z</time>
      </trkpt>
      <trkpt lat="53.17063202150166" lon="-6.52999903075397">
        <ele>214.03</ele>
        <time>2026-07-09T11:30:36Z</time>
      </trkpt>
      <trkpt lat="53.170667979866266" lon="-6.529858969151974">
        <ele>214.03</ele>
        <time>2026-07-09T11:30:37Z</time>
      </trkpt>
      <trkpt lat="53.170894039794803" lon="-6.529005020856857">
        <ele>214.03</ele>
        <time>2026-07-09T11:30:44Z</time>
      </trkpt>
      <trkpt lat="53.170908959582448" lon="-6.528949029743671">
        <ele>214.03</ele>
        <time>2026-07-09T11:30:45Z</time>
      </trkpt>
      <trkpt lat="53.170967968180776" lon="-6.528897983953357">
        <ele>214.03</ele>
        <time>2026-07-09T11:30:46Z</time>
      </trkpt>
      <trkpt lat="53.170993030071259" lon="-6.528922962024808">
        <ele>214.03</ele>
        <time>2026-07-09T11:30:47Z</time>
      </trkpt>
      <trkpt lat="53.171032005921006" lon="-6.528961015865207">
        <ele>214.03</ele>
        <time>2026-07-09T11:30:48Z</time>
      </trkpt>
      <trkpt lat="53.17108497954905" lon="-6.529014995321631">
        <ele>214.03</ele>
        <time>2026-07-09T11:30:49Z</time>
      </trkpt>
      <trkpt lat="53.17114700563252" lon="-6.52907601557672">
        <ele>214.03</ele>
        <time>2026-07-09T11:30:50Z</time>
      </trkpt>
      <trkpt lat="53.171197967603803" lon="-6.529167965054512">
        <ele>214.03</ele>
        <time>2026-07-09T11:30:51Z</time>
      </trkpt>
      <trkpt lat="53.171297963708639" lon="-6.529345996677876">
        <ele>214.50999999999999</ele>
        <time>2026-07-09T11:30:53Z</time>
      </trkpt>
      <trkpt lat="53.171485969796777" lon="-6.529602985829115">
        <ele>217.40000000000001</ele>
        <time>2026-07-09T11:31:01Z</time>
      </trkpt>
      <trkpt lat="53.171485969796777" lon="-6.529602985829115">
        <ele>217.88</ele>
        <time>2026-07-09T11:31:14Z</time>
      </trkpt>
      <trkpt lat="53.171485969796777" lon="-6.529602985829115">
        <ele>218.36000000000001</ele>
        <time>2026-07-09T11:32:05Z</time>
      </trkpt>
      <trkpt lat="53.171485969796777" lon="-6.529602985829115">
        <ele>217.88</ele>
        <time>2026-07-09T11:33:02Z</time>
      </trkpt>
      <trkpt lat="53.171485969796777" lon="-6.529602985829115">
        <ele>219.31999999999999</ele>
        <time>2026-07-09T11:33:58Z</time>
      </trkpt>
      <trkpt lat="53.171601975336671" lon="-6.529570966959">
        <ele>219.31999999999999</ele>
        <time>2026-07-09T11:42:44Z</time>
      </trkpt>
      <trkpt lat="53.171584038063884" lon="-6.52950600720942">
        <ele>219.31999999999999</ele>
        <time>2026-07-09T11:43:28Z</time>
      </trkpt>
      <trkpt lat="53.171589989215136" lon="-6.529574990272522">
        <ele>222.68000000000001</ele>
        <time>2026-07-09T11:44:01Z</time>
      </trkpt>
      <trkpt lat="53.1715970300138" lon="-6.529569961130619">
        <ele>222.68000000000001</ele>
        <time>2026-07-09T11:44:02Z</time>
      </trkpt>
      <trkpt lat="53.1715970300138" lon="-6.52946200221777">
        <ele>222.68000000000001</ele>
        <time>2026-07-09T11:44:03Z</time>
      </trkpt>
      <trkpt lat="53.1715970300138" lon="-6.529440963640809">
        <ele>222.68000000000001</ele>
        <time>2026-07-09T11:44:04Z</time>
      </trkpt>
      <trkpt lat="53.171564005315304" lon="-6.529396958649159">
        <ele>222.68000000000001</ele>
        <time>2026-07-09T11:44:05Z</time>
      </trkpt>
      <trkpt lat="53.171529974788427" lon="-6.529351025819778">
        <ele>222.68000000000001</ele>
        <time>2026-07-09T11:44:06Z</time>
      </trkpt>
      <trkpt lat="53.171499967575073" lon="-6.529311966150999">
        <ele>223.16</ele>
        <time>2026-07-09T11:44:07Z</time>
      </trkpt>
      <trkpt lat="53.17146803252399" lon="-6.529268966987729">
        <ele>223.16</ele>
        <time>2026-07-09T11:44:08Z</time>
      </trkpt>
      <trkpt lat="53.171455962583423" lon="-6.529283970594406">
        <ele>223.16</ele>
        <time>2026-07-09T11:44:09Z</time>
      </trkpt>
      <trkpt lat="53.171426961198449" lon="-6.529318001121283">
        <ele>223.63999999999999</ele>
        <time>2026-07-09T11:44:10Z</time>
      </trkpt>
      <trkpt lat="53.171400977298617" lon="-6.529348008334637">
        <ele>223.63999999999999</ele>
        <time>2026-07-09T11:44:11Z</time>
      </trkpt>
      <trkpt lat="53.171381028369069" lon="-6.529370974749327">
        <ele>224.12</ele>
        <time>2026-07-09T11:44:12Z</time>
      </trkpt>
      <trkpt lat="53.171329982578754" lon="-6.529402993619442">
        <ele>224.61000000000001</ele>
        <time>2026-07-09T11:44:13Z</time>
      </trkpt>
      <trkpt lat="53.171305004507303" lon="-6.52935697697103">
        <ele>224.61000000000001</ele>
        <time>2026-07-09T11:44:14Z</time>
      </trkpt>
      <trkpt lat="53.171264017000794" lon="-6.529285982251167">
        <ele>224.61000000000001</ele>
        <time>2026-07-09T11:44:15Z</time>
      </trkpt>
      <trkpt lat="53.171214982867241" lon="-6.529196966439486">
        <ele>224.61000000000001</ele>
        <time>2026-07-09T11:44:16Z</time>
      </trkpt>
      <trkpt lat="53.170963022857904" lon="-6.528893038630486">
        <ele>221.24000000000001</ele>
        <time>2026-07-09T11:44:24Z</time>
      </trkpt>
      <trkpt lat="53.170938966795802" lon="-6.528867976740003">
        <ele>219.80000000000001</ele>
        <time>2026-07-09T11:44:26Z</time>
      </trkpt>
      <trkpt lat="53.170948019251227" lon="-6.52873202227056">
        <ele>219.80000000000001</ele>
        <time>2026-07-09T11:44:27Z</time>
      </trkpt>
      <trkpt lat="53.170960005372763" lon="-6.528639988973737">
        <ele>219.31999999999999</ele>
        <time>2026-07-09T11:44:28Z</time>
      </trkpt>
      <trkpt lat="53.170974003151059" lon="-6.528524989262223">
        <ele>218.84</ele>
        <time>2026-07-09T11:44:29Z</time>
      </trkpt>
      <trkpt lat="53.170990012586117" lon="-6.528399009257555">
        <ele>218.36000000000001</ele>
        <time>2026-07-09T11:44:30Z</time>
      </trkpt>
      <trkpt lat="53.171181036159396" lon="-6.527239037677646">
        <ele>214.99000000000001</ele>
        <time>2026-07-09T11:44:37Z</time>
      </trkpt>
      <trkpt lat="53.171227974817157" lon="-6.527073998004198">
        <ele>214.03</ele>
        <time>2026-07-09T11:44:38Z</time>
      </trkpt>
      <trkpt lat="53.171308021992445" lon="-6.526983976364136">
        <ele>213.55000000000001</ele>
        <time>2026-07-09T11:44:39Z</time>
      </trkpt>
      <trkpt lat="53.171392008662224" lon="-6.526899989694357">
        <ele>213.06999999999999</ele>
        <time>2026-07-09T11:44:40Z</time>
      </trkpt>
      <trkpt lat="53.171469960361719" lon="-6.526822037994862">
        <ele>212.11000000000001</ele>
        <time>2026-07-09T11:44:41Z</time>
      </trkpt>
      <trkpt lat="53.17151103168726" lon="-6.526779960840941">
        <ele>211.63</ele>
        <time>2026-07-09T11:44:42Z</time>
      </trkpt>
      <trkpt lat="53.171602981165051" lon="-6.526643000543118">
        <ele>211.15000000000001</ele>
        <time>2026-07-09T11:44:43Z</time>
      </trkpt>
      <trkpt lat="53.171668024733663" lon="-6.526546021923423">
        <ele>210.66999999999999</ele>
        <time>2026-07-09T11:44:44Z</time>
      </trkpt>
      <trkpt lat="53.17176902666688" lon="-6.526393974199891">
        <ele>210.19</ele>
        <time>2026-07-09T11:44:45Z</time>
      </trkpt>
      <trkpt lat="53.171795010566711" lon="-6.526330020278692">
        <ele>209.69999999999999</ele>
        <time>2026-07-09T11:44:46Z</time>
      </trkpt>
      <trkpt lat="53.171840021386743" lon="-6.52621996589005">
        <ele>209.69999999999999</ele>
        <time>2026-07-09T11:44:47Z</time>
      </trkpt>
      <trkpt lat="53.171824011951685" lon="-6.525857029482722">
        <ele>209.69999999999999</ele>
        <time>2026-07-09T11:44:48Z</time>
      </trkpt>
      <trkpt lat="53.171757962554693" lon="-6.525734988972545">
        <ele>210.19</ele>
        <time>2026-07-09T11:44:49Z</time>
      </trkpt>
      <trkpt lat="53.171680010855198" lon="-6.525592999532819">
        <ele>210.19</ele>
        <time>2026-07-09T11:44:50Z</time>
      </trkpt>
      <trkpt lat="53.17129704169929" lon="-6.524426992982626">
        <ele>208.74000000000001</ele>
        <time>2026-07-09T11:44:56Z</time>
      </trkpt>
      <trkpt lat="53.171302992850542" lon="-6.524258013814688">
        <ele>208.25999999999999</ele>
        <time>2026-07-09T11:44:57Z</time>
      </trkpt>
      <trkpt lat="53.171330988407135" lon="-6.524106971919537">
        <ele>208.25999999999999</ele>
        <time>2026-07-09T11:44:58Z</time>
      </trkpt>
      <trkpt lat="53.171360995620489" lon="-6.523948973044753">
        <ele>207.78</ele>
        <time>2026-07-09T11:44:59Z</time>
      </trkpt>
      <trkpt lat="53.171392008662224" lon="-6.523782005533576">
        <ele>207.78</ele>
        <time>2026-07-09T11:45:00Z</time>
      </trkpt>
      <trkpt lat="53.171509020030499" lon="-6.523203989490867">
        <ele>206.81999999999999</ele>
        <time>2026-07-09T11:45:03Z</time>
      </trkpt>
      <trkpt lat="53.172062980011106" lon="-6.521588964387775">
        <ele>206.34</ele>
        <time>2026-07-09T11:45:11Z</time>
      </trkpt>
      <trkpt lat="53.172206981107593" lon="-6.521170036867261">
        <ele>204.41999999999999</ele>
        <time>2026-07-09T11:45:14Z</time>
      </trkpt>
      <trkpt lat="53.172238999977708" lon="-6.521076997742057">
        <ele>203.94</ele>
        <time>2026-07-09T11:45:15Z</time>
      </trkpt>
      <trkpt lat="53.172212010249496" lon="-6.520966021344066">
        <ele>203.46000000000001</ele>
        <time>2026-07-09T11:45:16Z</time>
      </trkpt>
      <trkpt lat="53.17215601913631" lon="-6.520918998867273">
        <ele>202.97999999999999</ele>
        <time>2026-07-09T11:45:17Z</time>
      </trkpt>
      <trkpt lat="53.172087036073208" lon="-6.520860996097326">
        <ele>202.49000000000001</ele>
        <time>2026-07-09T11:45:18Z</time>
      </trkpt>
      <trkpt lat="53.172009000554681" lon="-6.520794024690986">
        <ele>202.00999999999999</ele>
        <time>2026-07-09T11:45:19Z</time>
      </trkpt>
      <trkpt lat="53.171919984742999" lon="-6.520720012485981">
        <ele>202.00999999999999</ele>
        <time>2026-07-09T11:45:20Z</time>
      </trkpt>
      <trkpt lat="53.170875012874603" lon="-6.519866986200213">
        <ele>202.49000000000001</ele>
        <time>2026-07-09T11:45:29Z</time>
      </trkpt>
      <trkpt lat="53.169418992474675" lon="-6.518812961876392">
        <ele>204.90000000000001</ele>
        <time>2026-07-09T11:45:42Z</time>
      </trkpt>
      <trkpt lat="53.169143982231617" lon="-6.518617998808622">
        <ele>207.30000000000001</ele>
        <time>2026-07-09T11:45:49Z</time>
      </trkpt>
      <trkpt lat="53.169108023867011" lon="-6.518592014908791">
        <ele>208.74000000000001</ele>
        <time>2026-07-09T11:45:54Z</time>
      </trkpt>
      <trkpt lat="53.169062007218599" lon="-6.518582040444017">
        <ele>208.74000000000001</ele>
        <time>2026-07-09T11:45:55Z</time>
      </trkpt>
      <trkpt lat="53.169050021097064" lon="-6.518644988536835">
        <ele>208.74000000000001</ele>
        <time>2026-07-09T11:45:56Z</time>
      </trkpt>
      <trkpt lat="53.169032000005245" lon="-6.51874297298491">
        <ele>208.74000000000001</ele>
        <time>2026-07-09T11:45:57Z</time>
      </trkpt>
      <trkpt lat="53.169009033590555" lon="-6.518868030980229">
        <ele>208.74000000000001</ele>
        <time>2026-07-09T11:45:58Z</time>
      </trkpt>
      <trkpt lat="53.168753972277045" lon="-6.520175021141768">
        <ele>208.74000000000001</ele>
        <time>2026-07-09T11:46:05Z</time>
      </trkpt>
      <trkpt lat="53.168718013912439" lon="-6.520342994481325">
        <ele>208.74000000000001</ele>
        <time>2026-07-09T11:46:06Z</time>
      </trkpt>
      <trkpt lat="53.168648025020957" lon="-6.520563019439578">
        <ele>208.74000000000001</ele>
        <time>2026-07-09T11:46:08Z</time>
      </trkpt>
      <trkpt lat="53.168630003929138" lon="-6.520610963925719">
        <ele>208.25999999999999</ele>
        <time>2026-07-09T11:46:09Z</time>
      </trkpt>
      <trkpt lat="53.168630003929138" lon="-6.520610963925719">
        <ele>208.25999999999999</ele>
        <time>2026-07-09T11:46:18Z</time>
      </trkpt>
      <trkpt lat="53.168480973690748" lon="-6.52099602855742">
        <ele>207.30000000000001</ele>
        <time>2026-07-09T11:46:26Z</time>
      </trkpt>
      <trkpt lat="53.168412996456027" lon="-6.521172970533371">
        <ele>206.81999999999999</ele>
        <time>2026-07-09T11:46:27Z</time>
      </trkpt>
      <trkpt lat="53.168335966765881" lon="-6.521372962743044">
        <ele>206.81999999999999</ele>
        <time>2026-07-09T11:46:28Z</time>
      </trkpt>
      <trkpt lat="53.16822599619627" lon="-6.521526016294956">
        <ele>206.34</ele>
        <time>2026-07-09T11:46:29Z</time>
      </trkpt>
      <trkpt lat="53.168101022019982" lon="-6.521688960492611">
        <ele>205.86000000000001</ele>
        <time>2026-07-09T11:46:30Z</time>
      </trkpt>
      <trkpt lat="53.167940005660057" lon="-6.521816030144692">
        <ele>205.86000000000001</ele>
        <time>2026-07-09T11:46:31Z</time>
      </trkpt>
      <trkpt lat="53.167762979865074" lon="-6.521956007927656">
        <ele>205.86000000000001</ele>
        <time>2026-07-09T11:46:32Z</time>
      </trkpt>
      <trkpt lat="53.167572040110826" lon="-6.522105960175395">
        <ele>206.34</ele>
        <time>2026-07-09T11:46:33Z</time>
      </trkpt>
      <trkpt lat="53.167353020980954" lon="-6.522240992635489">
        <ele>206.34</ele>
        <time>2026-07-09T11:46:34Z</time>
      </trkpt>
      <trkpt lat="53.167134001851082" lon="-6.522278040647507">
        <ele>206.34</ele>
        <time>2026-07-09T11:46:35Z</time>
      </trkpt>
      <trkpt lat="53.16691498272121" lon="-6.522313999012113">
        <ele>206.81999999999999</ele>
        <time>2026-07-09T11:46:36Z</time>
      </trkpt>
      <trkpt lat="53.165665995329618" lon="-6.522549027577043">
        <ele>212.11000000000001</ele>
        <time>2026-07-09T11:46:42Z</time>
      </trkpt>
      <trkpt lat="53.164706015959382" lon="-6.522944988682866">
        <ele>218.36000000000001</ele>
        <time>2026-07-09T11:46:48Z</time>
      </trkpt>
      <trkpt lat="53.164563020691276" lon="-6.522968038916588">
        <ele>219.80000000000001</ele>
        <time>2026-07-09T11:46:49Z</time>
      </trkpt>
      <trkpt lat="53.16442497074604" lon="-6.522964015603066">
        <ele>221.24000000000001</ele>
        <time>2026-07-09T11:46:50Z</time>
      </trkpt>
      <trkpt lat="53.164285998791456" lon="-6.52291196398437">
        <ele>222.68000000000001</ele>
        <time>2026-07-09T11:46:51Z</time>
      </trkpt>
      <trkpt lat="53.164149038493633" lon="-6.522861002013087">
        <ele>223.63999999999999</ele>
        <time>2026-07-09T11:46:52Z</time>
      </trkpt>
      <trkpt lat="53.164007971063256" lon="-6.522808028385043">
        <ele>224.61000000000001</ele>
        <time>2026-07-09T11:46:53Z</time>
      </trkpt>
      <trkpt lat="53.16386497579515" lon="-6.522753965109587">
        <ele>225.09</ele>
        <time>2026-07-09T11:46:54Z</time>
      </trkpt>
      <trkpt lat="53.163731032982469" lon="-6.522669978439808">
        <ele>225.56999999999999</ele>
        <time>2026-07-09T11:46:55Z</time>
      </trkpt>
      <trkpt lat="53.163603041321039" lon="-6.522540980949998">
        <ele>225.56999999999999</ele>
        <time>2026-07-09T11:46:56Z</time>
      </trkpt>
      <trkpt lat="53.163464991375804" lon="-6.522403014823794">
        <ele>226.05000000000001</ele>
        <time>2026-07-09T11:46:57Z</time>
      </trkpt>
      <trkpt lat="53.163341023027897" lon="-6.522236969321966">
        <ele>226.53</ele>
        <time>2026-07-09T11:46:58Z</time>
      </trkpt>
      <trkpt lat="53.163082022219896" lon="-6.521892976015806">
        <ele>227.49000000000001</ele>
        <time>2026-07-09T11:47:00Z</time>
      </trkpt>
      <trkpt lat="53.162955036386847" lon="-6.521722991019487">
        <ele>227.97</ele>
        <time>2026-07-09T11:47:01Z</time>
      </trkpt>
      <trkpt lat="53.162812041118741" lon="-6.521528027951717">
        <ele>228.44999999999999</ele>
        <time>2026-07-09T11:47:02Z</time>
      </trkpt>
      <trkpt lat="53.162020035088062" lon="-6.519504971802235">
        <ele>231.81</ele>
        <time>2026-07-09T11:47:10Z</time>
      </trkpt>
      <trkpt lat="53.16195297986269" lon="-6.519215041771531">
        <ele>231.33000000000001</ele>
        <time>2026-07-09T11:47:11Z</time>
      </trkpt>
      <trkpt lat="53.161891959607601" lon="-6.518929973244667">
        <ele>231.33000000000001</ele>
        <time>2026-07-09T11:47:12Z</time>
      </trkpt>
      <trkpt lat="53.161727003753185" lon="-6.517789028584957">
        <ele>231.33000000000001</ele>
        <time>2026-07-09T11:47:16Z</time>
      </trkpt>
      <trkpt lat="53.161648968234658" lon="-6.517574032768607">
        <ele>231.81</ele>
        <time>2026-07-09T11:47:17Z</time>
      </trkpt>
      <trkpt lat="53.161563975736499" lon="-6.517335986718535">
        <ele>231.81</ele>
        <time>2026-07-09T11:47:18Z</time>
      </trkpt>
      <trkpt lat="53.160486984997988" lon="-6.5143399592489">
        <ele>235.66</ele>
        <time>2026-07-09T11:47:30Z</time>
      </trkpt>
      <trkpt lat="53.159995973110199" lon="-6.512835994362831">
        <ele>235.66</ele>
        <time>2026-07-09T11:47:37Z</time>
      </trkpt>
      <trkpt lat="53.15995397977531" lon="-6.512696016579866">
        <ele>235.66</ele>
        <time>2026-07-09T11:47:38Z</time>
      </trkpt>
      <trkpt lat="53.159866975620389" lon="-6.512598032131791">
        <ele>235.66</ele>
        <time>2026-07-09T11:47:39Z</time>
      </trkpt>
      <trkpt lat="53.159775026142597" lon="-6.512599959969521">
        <ele>235.18000000000001</ele>
        <time>2026-07-09T11:47:40Z</time>
      </trkpt>
      <trkpt lat="53.159671006724238" lon="-6.512602977454662">
        <ele>234.69999999999999</ele>
        <time>2026-07-09T11:47:41Z</time>
      </trkpt>
      <trkpt lat="53.159550977870822" lon="-6.512605994939804">
        <ele>234.69999999999999</ele>
        <time>2026-07-09T11:47:42Z</time>
      </trkpt>
      <trkpt lat="53.159420974552631" lon="-6.512609012424946">
        <ele>234.22</ele>
        <time>2026-07-09T11:47:43Z</time>
      </trkpt>
      <trkpt lat="53.158120019361377" lon="-6.512716971337795">
        <ele>231.33000000000001</ele>
        <time>2026-07-09T11:47:51Z</time>
      </trkpt>
      <trkpt lat="53.157615009695292" lon="-6.512986030429602">
        <ele>229.88999999999999</ele>
        <time>2026-07-09T11:47:54Z</time>
      </trkpt>
      <trkpt lat="53.157454999163747" lon="-6.513118967413902">
        <ele>229.41</ele>
        <time>2026-07-09T11:47:55Z</time>
      </trkpt>
      <trkpt lat="53.156336015090346" lon="-6.514051035046578">
        <ele>228.44999999999999</ele>
        <time>2026-07-09T11:48:01Z</time>
      </trkpt>
      <trkpt lat="53.154946966096759" lon="-6.515342015773058">
        <ele>237.58000000000001</ele>
        <time>2026-07-09T11:48:10Z</time>
      </trkpt>
      <trkpt lat="53.153892019763589" lon="-6.516508022323251">
        <ele>242.38999999999999</ele>
        <time>2026-07-09T11:48:17Z</time>
      </trkpt>
      <trkpt lat="53.15372496843338" lon="-6.516654035076499">
        <ele>242.87</ele>
        <time>2026-07-09T11:48:18Z</time>
      </trkpt>
      <trkpt lat="53.153563030064106" lon="-6.516797030344605">
        <ele>243.34999999999999</ele>
        <time>2026-07-09T11:48:19Z</time>
      </trkpt>
      <trkpt lat="53.153378963470459" lon="-6.516844974830747">
        <ele>243.34999999999999</ele>
        <time>2026-07-09T11:48:20Z</time>
      </trkpt>
      <trkpt lat="53.15316497348249" lon="-6.516844974830747">
        <ele>243.34999999999999</ele>
        <time>2026-07-09T11:48:21Z</time>
      </trkpt>
      <trkpt lat="53.152988031506538" lon="-6.516867019236088">
        <ele>242.87</ele>
        <time>2026-07-09T11:48:22Z</time>
      </trkpt>
      <trkpt lat="53.152793990448117" lon="-6.516889985650778">
        <ele>241.91</ele>
        <time>2026-07-09T11:48:23Z</time>
      </trkpt>
      <trkpt lat="53.152604978531599" lon="-6.5169130358845">
        <ele>241.43000000000001</ele>
        <time>2026-07-09T11:48:24Z</time>
      </trkpt>
      <trkpt lat="53.150935973972082" lon="-6.517059970647097">
        <ele>238.53999999999999</ele>
        <time>2026-07-09T11:48:33Z</time>
      </trkpt>
      <trkpt lat="53.150762971490622" lon="-6.517059970647097">
        <ele>238.53999999999999</ele>
        <time>2026-07-09T11:48:34Z</time>
      </trkpt>
      <trkpt lat="53.150434987619519" lon="-6.51700297370553">
        <ele>239.02000000000001</ele>
        <time>2026-07-09T11:48:36Z</time>
      </trkpt>
      <trkpt lat="53.1502650026232" lon="-6.516928961500526">
        <ele>239.02000000000001</ele>
        <time>2026-07-09T11:48:37Z</time>
      </trkpt>
      <trkpt lat="53.150109015405178" lon="-6.516818990930915">
        <ele>239.50999999999999</ele>
        <time>2026-07-09T11:48:38Z</time>
      </trkpt>
      <trkpt lat="53.149625966325402" lon="-6.516478015109897">
        <ele>241.91</ele>
        <time>2026-07-09T11:48:41Z</time>
      </trkpt>
      <trkpt lat="53.149457992985845" lon="-6.516327979043126">
        <ele>242.38999999999999</ele>
        <time>2026-07-09T11:48:42Z</time>
      </trkpt>
      <trkpt lat="53.149028001353145" lon="-6.51588398963213">
        <ele>243.34999999999999</ele>
        <time>2026-07-09T11:48:45Z</time>
      </trkpt>
      <trkpt lat="53.147765016183257" lon="-6.515023000538349">
        <ele>245.27000000000001</ele>
        <time>2026-07-09T11:48:54Z</time>
      </trkpt>
      <trkpt lat="53.147650016471744" lon="-6.514914035797119">
        <ele>244.78999999999999</ele>
        <time>2026-07-09T11:48:55Z</time>
      </trkpt>
      <trkpt lat="53.147562006488442" lon="-6.514763999730349">
        <ele>244.31</ele>
        <time>2026-07-09T11:48:56Z</time>
      </trkpt>
      <trkpt lat="53.147473996505141" lon="-6.514614969491959">
        <ele>243.83000000000001</ele>
        <time>2026-07-09T11:48:57Z</time>
      </trkpt>
      <trkpt lat="53.147395038977265" lon="-6.514431992545724">
        <ele>242.87</ele>
        <time>2026-07-09T11:48:58Z</time>
      </trkpt>
      <trkpt lat="53.14732002094388" lon="-6.514219008386135">
        <ele>241.91</ele>
        <time>2026-07-09T11:48:59Z</time>
      </trkpt>
      <trkpt lat="53.147164033725858" lon="-6.513772001489997">
        <ele>239.99000000000001</ele>
        <time>2026-07-09T11:49:01Z</time>
      </trkpt>
      <trkpt lat="53.146530026569963" lon="-6.511954972520471">
        <ele>233.25999999999999</ele>
        <time>2026-07-09T11:49:09Z</time>
      </trkpt>
      <trkpt lat="53.146131969988346" lon="-6.511275032535195">
        <ele>230.37</ele>
        <time>2026-07-09T11:49:13Z</time>
      </trkpt>
      <trkpt lat="53.146017976105213" lon="-6.511162966489792">
        <ele>229.88999999999999</ele>
        <time>2026-07-09T11:49:14Z</time>
      </trkpt>
      <trkpt lat="53.145887972787023" lon="-6.511037992313504">
        <ele>229.88999999999999</ele>
        <time>2026-07-09T11:49:15Z</time>
      </trkpt>
      <trkpt lat="53.145743971690536" lon="-6.510900026187301">
        <ele>229.41</ele>
        <time>2026-07-09T11:49:16Z</time>
      </trkpt>
      <trkpt lat="53.145598964765668" lon="-6.510761976242065">
        <ele>228.44999999999999</ele>
        <time>2026-07-09T11:49:17Z</time>
      </trkpt>
      <trkpt lat="53.145326972007751" lon="-6.510501969605684">
        <ele>227.49000000000001</ele>
        <time>2026-07-09T11:49:19Z</time>
      </trkpt>
      <trkpt lat="53.144990019500256" lon="-6.510065020993352">
        <ele>225.56999999999999</ele>
        <time>2026-07-09T11:49:22Z</time>
      </trkpt>
      <trkpt lat="53.144897986203432" lon="-6.50982697494328">
        <ele>225.56999999999999</ele>
        <time>2026-07-09T11:49:23Z</time>
      </trkpt>
      <trkpt lat="53.144815005362034" lon="-6.509613990783691">
        <ele>225.56999999999999</ele>
        <time>2026-07-09T11:49:24Z</time>
      </trkpt>
      <trkpt lat="53.144732024520636" lon="-6.509398994967341">
        <ele>225.56999999999999</ele>
        <time>2026-07-09T11:49:25Z</time>
      </trkpt>
      <trkpt lat="53.144681984558702" lon="-6.509173018857837">
        <ele>226.05000000000001</ele>
        <time>2026-07-09T11:49:26Z</time>
      </trkpt>
      <trkpt lat="53.144509987905622" lon="-6.508240029215813">
        <ele>229.41</ele>
        <time>2026-07-09T11:49:30Z</time>
      </trkpt>
      <trkpt lat="53.144359029829502" lon="-6.507295975461602">
        <ele>235.66</ele>
        <time>2026-07-09T11:49:34Z</time>
      </trkpt>
      <trkpt lat="53.144330028444529" lon="-6.507058013230562">
        <ele>236.62</ele>
        <time>2026-07-09T11:49:35Z</time>
      </trkpt>
      <trkpt lat="53.144302032887936" lon="-6.50683899410069">
        <ele>238.06</ele>
        <time>2026-07-09T11:49:36Z</time>
      </trkpt>
      <trkpt lat="53.144268002361059" lon="-6.506641013547778">
        <ele>238.53999999999999</ele>
        <time>2026-07-09T11:49:37Z</time>
      </trkpt>
      <trkpt lat="53.144200025126338" lon="-6.50647203437984">
        <ele>239.50999999999999</ele>
        <time>2026-07-09T11:49:38Z</time>
      </trkpt>
      <trkpt lat="53.144130036234856" lon="-6.506296014413238">
        <ele>240.47</ele>
        <time>2026-07-09T11:49:39Z</time>
      </trkpt>
      <trkpt lat="53.144059041514993" lon="-6.506117982789874">
        <ele>240.94999999999999</ele>
        <time>2026-07-09T11:49:40Z</time>
      </trkpt>
      <trkpt lat="53.143996009603143" lon="-6.505959983915091">
        <ele>241.43000000000001</ele>
        <time>2026-07-09T11:49:41Z</time>
      </trkpt>
      <trkpt lat="53.143944041803479" lon="-6.5058299805969">
        <ele>241.91</ele>
        <time>2026-07-09T11:49:42Z</time>
      </trkpt>
      <trkpt lat="53.143910011276603" lon="-6.505716992542148">
        <ele>241.91</ele>
        <time>2026-07-09T11:49:43Z</time>
      </trkpt>
      <trkpt lat="53.143597031012177" lon="-6.504358034580946">
        <ele>244.31</ele>
        <time>2026-07-09T11:49:52Z</time>
      </trkpt>
      <trkpt lat="53.143292013555765" lon="-6.502881981432438">
        <ele>247.19999999999999</ele>
        <time>2026-07-09T11:49:58Z</time>
      </trkpt>
      <trkpt lat="53.14323702827096" lon="-6.502664973959327">
        <ele>248.16</ele>
        <time>2026-07-09T11:49:59Z</time>
      </trkpt>
      <trkpt lat="53.143177013844252" lon="-6.50245601311326">
        <ele>248.63999999999999</ele>
        <time>2026-07-09T11:50:00Z</time>
      </trkpt>
      <trkpt lat="53.143100989982486" lon="-6.502189971506596">
        <ele>249.12</ele>
        <time>2026-07-09T11:50:01Z</time>
      </trkpt>
      <trkpt lat="53.1430449988693" lon="-6.502088969573379">
        <ele>249.59999999999999</ele>
        <time>2026-07-09T11:50:02Z</time>
      </trkpt>
      <trkpt lat="53.142290962859988" lon="-6.500349976122379">
        <ele>246.72</ele>
        <time>2026-07-09T11:50:13Z</time>
      </trkpt>
      <trkpt lat="53.141792993992567" lon="-6.498968973755837">
        <ele>246.22999999999999</ele>
        <time>2026-07-09T11:50:20Z</time>
      </trkpt>
      <trkpt lat="53.141745971515775" lon="-6.498748026788235">
        <ele>246.22999999999999</ele>
        <time>2026-07-09T11:50:21Z</time>
      </trkpt>
      <trkpt lat="53.141700038686395" lon="-6.498534958809614">
        <ele>246.22999999999999</ele>
        <time>2026-07-09T11:50:22Z</time>
      </trkpt>
      <trkpt lat="53.141359984874725" lon="-6.497279014438391">
        <ele>244.31</ele>
        <time>2026-07-09T11:50:28Z</time>
      </trkpt>
      <trkpt lat="53.141308017075062" lon="-6.49706301279366">
        <ele>244.31</ele>
        <time>2026-07-09T11:50:29Z</time>
      </trkpt>
      <trkpt lat="53.141254959627986" lon="-6.496837958693504">
        <ele>244.78999999999999</ele>
        <time>2026-07-09T11:50:30Z</time>
      </trkpt>
      <trkpt lat="53.141169967129827" lon="-6.4957519993186">
        <ele>248.16</ele>
        <time>2026-07-09T11:50:35Z</time>
      </trkpt>
      <trkpt lat="53.140808036550879" lon="-6.494135968387127">
        <ele>253.93000000000001</ele>
        <time>2026-07-09T11:50:44Z</time>
      </trkpt>
      <trkpt lat="53.140560016036034" lon="-6.493288977071643">
        <ele>255.84999999999999</ele>
        <time>2026-07-09T11:50:49Z</time>
      </trkpt>
      <trkpt lat="53.1405099760741" lon="-6.493116980418563">
        <ele>255.84999999999999</ele>
        <time>2026-07-09T11:50:50Z</time>
      </trkpt>
      <trkpt lat="53.140409979969263" lon="-6.492773992940784">
        <ele>256.32999999999998</ele>
        <time>2026-07-09T11:50:52Z</time>
      </trkpt>
      <trkpt lat="53.140329010784626" lon="-6.492422958835959">
        <ele>256.32999999999998</ele>
        <time>2026-07-09T11:50:54Z</time>
      </trkpt>
      <trkpt lat="53.140319958329201" lon="-6.492230007424951">
        <ele>255.84999999999999</ele>
        <time>2026-07-09T11:50:55Z</time>
      </trkpt>
      <trkpt lat="53.140277964994311" lon="-6.491066012531519">
        <ele>255.84999999999999</ele>
        <time>2026-07-09T11:51:01Z</time>
      </trkpt>
      <trkpt lat="53.140262961387634" lon="-6.49033603258431">
        <ele>255.37</ele>
        <time>2026-07-09T11:51:05Z</time>
      </trkpt>
      <trkpt lat="53.140260027721524" lon="-6.490199994295836">
        <ele>254.88999999999999</ele>
        <time>2026-07-09T11:51:06Z</time>
      </trkpt>
      <trkpt lat="53.140257010236382" lon="-6.49007803760469">
        <ele>254.88999999999999</ele>
        <time>2026-07-09T11:51:07Z</time>
      </trkpt>
      <trkpt lat="53.14025198109448" lon="-6.489363983273506">
        <ele>255.84999999999999</ele>
        <time>2026-07-09T11:51:13Z</time>
      </trkpt>
      <trkpt lat="53.140254998579621" lon="-6.489244038239121">
        <ele>256.32999999999998</ele>
        <time>2026-07-09T11:51:14Z</time>
      </trkpt>
      <trkpt lat="53.140257010236382" lon="-6.489129960536957">
        <ele>256.32999999999998</ele>
        <time>2026-07-09T11:51:15Z</time>
      </trkpt>
      <trkpt lat="53.140259021893144" lon="-6.489015966653824">
        <ele>256.32999999999998</ele>
        <time>2026-07-09T11:51:16Z</time>
      </trkpt>
      <trkpt lat="53.140261033549905" lon="-6.48889996111393">
        <ele>256.81</ele>
        <time>2026-07-09T11:51:17Z</time>
      </trkpt>
      <trkpt lat="53.140262961387634" lon="-6.488787978887558">
        <ele>256.81</ele>
        <time>2026-07-09T11:51:18Z</time>
      </trkpt>
      <trkpt lat="53.140264973044395" lon="-6.488047018647194">
        <ele>257.76999999999998</ele>
        <time>2026-07-09T11:51:23Z</time>
      </trkpt>
      <trkpt lat="53.140219962224364" lon="-6.487890025600791">
        <ele>257.76999999999998</ele>
        <time>2026-07-09T11:51:24Z</time>
      </trkpt>
      <trkpt lat="53.140176963061094" lon="-6.487737977877259">
        <ele>257.29000000000002</ele>
        <time>2026-07-09T11:51:25Z</time>
      </trkpt>
      <trkpt lat="53.140007983893156" lon="-6.487096007913351">
        <ele>255.37</ele>
        <time>2026-07-09T11:51:30Z</time>
      </trkpt>
      <trkpt lat="53.139984011650085" lon="-6.486958041787148">
        <ele>254.88999999999999</ele>
        <time>2026-07-09T11:51:31Z</time>
      </trkpt>
      <trkpt lat="53.139635995030403" lon="-6.48554896004498">
        <ele>250.56</ele>
        <time>2026-07-09T11:51:39Z</time>
      </trkpt>
      <trkpt lat="53.13913400284946" lon="-6.483850032091141">
        <ele>243.34999999999999</ele>
        <time>2026-07-09T11:51:49Z</time>
      </trkpt>
      <trkpt lat="53.139060996472836" lon="-6.48371902294457">
        <ele>242.87</ele>
        <time>2026-07-09T11:51:50Z</time>
      </trkpt>
      <trkpt lat="53.13898497261107" lon="-6.483587007969618">
        <ele>242.38999999999999</ele>
        <time>2026-07-09T11:51:51Z</time>
      </trkpt>
      <trkpt lat="53.138905009254813" lon="-6.483447030186653">
        <ele>241.43000000000001</ele>
        <time>2026-07-09T11:51:52Z</time>
      </trkpt>
      <trkpt lat="53.138821022585034" lon="-6.483300011605024">
        <ele>240.47</ele>
        <time>2026-07-09T11:51:53Z</time>
      </trkpt>
      <trkpt lat="53.138721026480198" lon="-6.483169002458453">
        <ele>239.50999999999999</ele>
        <time>2026-07-09T11:51:54Z</time>
      </trkpt>
      <trkpt lat="53.137726010754704" lon="-6.482086982578039">
        <ele>230.84999999999999</ele>
        <time>2026-07-09T11:52:03Z</time>
      </trkpt>
      <trkpt lat="53.137488970533013" lon="-6.481843991205096">
        <ele>228.93000000000001</ele>
        <time>2026-07-09T11:52:05Z</time>
      </trkpt>
      <trkpt lat="53.13735100440681" lon="-6.481719017028809">
        <ele>227.49000000000001</ele>
        <time>2026-07-09T11:52:06Z</time>
      </trkpt>
      <trkpt lat="53.137230975553393" lon="-6.481651961803436">
        <ele>226.53</ele>
        <time>2026-07-09T11:52:07Z</time>
      </trkpt>
      <trkpt lat="53.136221040040255" lon="-6.481085009872913">
        <ele>216.91</ele>
        <time>2026-07-09T11:52:15Z</time>
      </trkpt>
      <trkpt lat="53.136110985651612" lon="-6.481010997667909">
        <ele>215.47</ele>
        <time>2026-07-09T11:52:16Z</time>
      </trkpt>
      <trkpt lat="53.13601903617382" lon="-6.480891974642873">
        <ele>214.50999999999999</ele>
        <time>2026-07-09T11:52:17Z</time>
      </trkpt>
      <trkpt lat="53.135923985391855" lon="-6.480767000466585">
        <ele>213.55000000000001</ele>
        <time>2026-07-09T11:52:18Z</time>
      </trkpt>
      <trkpt lat="53.135820971801877" lon="-6.480633979663253">
        <ele>212.59</ele>
        <time>2026-07-09T11:52:19Z</time>
      </trkpt>
      <trkpt lat="53.135713012889028" lon="-6.480494001880288">
        <ele>212.11000000000001</ele>
        <time>2026-07-09T11:52:20Z</time>
      </trkpt>
      <trkpt lat="53.135592984035611" lon="-6.480360981076956">
        <ele>211.63</ele>
        <time>2026-07-09T11:52:21Z</time>
      </trkpt>
      <trkpt lat="53.135464992374182" lon="-6.480225026607513">
        <ele>211.15000000000001</ele>
        <time>2026-07-09T11:52:22Z</time>
      </trkpt>
      <trkpt lat="53.13423503190279" lon="-6.47890898399055">
        <ele>205.38</ele>
        <time>2026-07-09T11:52:32Z</time>
      </trkpt>
      <trkpt lat="53.133947029709816" lon="-6.478390982374549">
        <ele>203.94</ele>
        <time>2026-07-09T11:52:35Z</time>
      </trkpt>
      <trkpt lat="53.133478984236717" lon="-6.477842973545194">
        <ele>203.94</ele>
        <time>2026-07-09T11:52:39Z</time>
      </trkpt>
      <trkpt lat="53.133346969261765" lon="-6.47772504016757">
        <ele>203.94</ele>
        <time>2026-07-09T11:52:40Z</time>
      </trkpt>
      <trkpt lat="53.133065002039075" lon="-6.477548014372587">
        <ele>204.41999999999999</ele>
        <time>2026-07-09T11:52:42Z</time>
      </trkpt>
      <trkpt lat="53.132917983457446" lon="-6.477475007995963">
        <ele>204.90000000000001</ele>
        <time>2026-07-09T11:52:43Z</time>
      </trkpt>
      <trkpt lat="53.131695985794067" lon="-6.476648971438408">
        <ele>212.11000000000001</ele>
        <time>2026-07-09T11:52:52Z</time>
      </trkpt>
      <trkpt lat="53.131113024428487" lon="-6.476041032001376">
        <ele>216.43000000000001</ele>
        <time>2026-07-09T11:52:57Z</time>
      </trkpt>
      <trkpt lat="53.13034700229764" lon="-6.474888017401099">
        <ele>225.09</ele>
        <time>2026-07-09T11:53:04Z</time>
      </trkpt>
      <trkpt lat="53.129836963489652" lon="-6.474292986094952">
        <ele>230.37</ele>
        <time>2026-07-09T11:53:08Z</time>
      </trkpt>
      <trkpt lat="53.129697991535068" lon="-6.47422500886023">
        <ele>231.81</ele>
        <time>2026-07-09T11:53:09Z</time>
      </trkpt>
      <trkpt lat="53.129558013752103" lon="-6.474157031625509">
        <ele>233.25999999999999</ele>
        <time>2026-07-09T11:53:10Z</time>
      </trkpt>
      <trkpt lat="53.129415018483996" lon="-6.474086958914995">
        <ele>233.74000000000001</ele>
        <time>2026-07-09T11:53:11Z</time>
      </trkpt>
      <trkpt lat="53.129273029044271" lon="-6.474016970023513">
        <ele>234.69999999999999</ele>
        <time>2026-07-09T11:53:12Z</time>
      </trkpt>
      <trkpt lat="53.127469997853041" lon="-6.473413975909352">
        <ele>236.13999999999999</ele>
        <time>2026-07-09T11:53:24Z</time>
      </trkpt>
      <trkpt lat="53.126284964382648" lon="-6.473224963992834">
        <ele>238.53999999999999</ele>
        <time>2026-07-09T11:53:33Z</time>
      </trkpt>
      <trkpt lat="53.126150015741587" lon="-6.473242985084653">
        <ele>239.02000000000001</ele>
        <time>2026-07-09T11:53:34Z</time>
      </trkpt>
      <trkpt lat="53.126015989109874" lon="-6.473341975361109">
        <ele>239.02000000000001</ele>
        <time>2026-07-09T11:53:35Z</time>
      </trkpt>
      <trkpt lat="53.125883974134922" lon="-6.473439959809184">
        <ele>238.53999999999999</ele>
        <time>2026-07-09T11:53:36Z</time>
      </trkpt>
      <trkpt lat="53.12574801966548" lon="-6.473540961742401">
        <ele>238.06</ele>
        <time>2026-07-09T11:53:37Z</time>
      </trkpt>
      <trkpt lat="53.125609969720244" lon="-6.473642969503999">
        <ele>237.58000000000001</ele>
        <time>2026-07-09T11:53:38Z</time>
      </trkpt>
      <trkpt lat="53.12547099776566" lon="-6.473753023892641">
        <ele>236.13999999999999</ele>
        <time>2026-07-09T11:53:39Z</time>
      </trkpt>
      <trkpt lat="53.124887030571699" lon="-6.474121995270252">
        <ele>232.30000000000001</ele>
        <time>2026-07-09T11:53:43Z</time>
      </trkpt>
      <trkpt lat="53.124735988676548" lon="-6.474157031625509">
        <ele>231.33000000000001</ele>
        <time>2026-07-09T11:53:44Z</time>
      </trkpt>
      <trkpt lat="53.123260019347072" lon="-6.474551986902952">
        <ele>227.49000000000001</ele>
        <time>2026-07-09T11:53:54Z</time>
      </trkpt>
      <trkpt lat="53.121829982846975" lon="-6.474618036299944">
        <ele>221.24000000000001</ele>
        <time>2026-07-09T11:54:03Z</time>
      </trkpt>
      <trkpt lat="53.121721018105745" lon="-6.474633039906621">
        <ele>221.24000000000001</ele>
        <time>2026-07-09T11:54:04Z</time>
      </trkpt>
      <trkpt lat="53.121319022029638" lon="-6.474711997434497">
        <ele>218.84</ele>
        <time>2026-07-09T11:54:09Z</time>
      </trkpt>
      <trkpt lat="53.121106959879398" lon="-6.474809981882572">
        <ele>217.88</ele>
        <time>2026-07-09T11:54:11Z</time>
      </trkpt>
      <trkpt lat="53.121004030108452" lon="-6.474906038492918">
        <ele>217.40000000000001</ele>
        <time>2026-07-09T11:54:12Z</time>
      </trkpt>
      <trkpt lat="53.120449986308813" lon="-6.47544901818037">
        <ele>215.47</ele>
        <time>2026-07-09T11:54:17Z</time>
      </trkpt>
      <trkpt lat="53.120362982153893" lon="-6.475596036761999">
        <ele>214.99000000000001</ele>
        <time>2026-07-09T11:54:18Z</time>
      </trkpt>
      <trkpt lat="53.120275977998972" lon="-6.475742971524596">
        <ele>215.47</ele>
        <time>2026-07-09T11:54:19Z</time>
      </trkpt>
      <trkpt lat="53.1201830226928" lon="-6.47587900981307">
        <ele>215.47</ele>
        <time>2026-07-09T11:54:20Z</time>
      </trkpt>
      <trkpt lat="53.120071962475777" lon="-6.47596400231123">
        <ele>215.94999999999999</ele>
        <time>2026-07-09T11:54:21Z</time>
      </trkpt>
      <trkpt lat="53.119954029098153" lon="-6.476055029779673">
        <ele>216.91</ele>
        <time>2026-07-09T11:54:22Z</time>
      </trkpt>
      <trkpt lat="53.119130004197359" lon="-6.47639399394393">
        <ele>221.24000000000001</ele>
        <time>2026-07-09T11:54:28Z</time>
      </trkpt>
      <trkpt lat="53.119008969515562" lon="-6.476496001705527">
        <ele>222.19999999999999</ele>
        <time>2026-07-09T11:54:29Z</time>
      </trkpt>
      <trkpt lat="53.118893969804049" lon="-6.476594991981983">
        <ele>222.68000000000001</ele>
        <time>2026-07-09T11:54:30Z</time>
      </trkpt>
      <trkpt lat="53.118790034204721" lon="-6.476730024442077">
        <ele>224.12</ele>
        <time>2026-07-09T11:54:31Z</time>
      </trkpt>
      <trkpt lat="53.118686014786363" lon="-6.476865978911519">
        <ele>225.09</ele>
        <time>2026-07-09T11:54:32Z</time>
      </trkpt>
      <trkpt lat="53.117610029876232" lon="-6.478084037080407">
        <ele>235.18000000000001</ele>
        <time>2026-07-09T11:54:41Z</time>
      </trkpt>
      <trkpt lat="53.117251032963395" lon="-6.478383019566536">
        <ele>236.62</ele>
        <time>2026-07-09T11:54:44Z</time>
      </trkpt>
      <trkpt lat="53.115976983681321" lon="-6.478945026174188">
        <ele>237.58000000000001</ele>
        <time>2026-07-09T11:54:53Z</time>
      </trkpt>
      <trkpt lat="53.115560989826918" lon="-6.479110987856984">
        <ele>238.53999999999999</ele>
        <time>2026-07-09T11:54:56Z</time>
      </trkpt>
      <trkpt lat="53.115464011207223" lon="-6.479208972305059">
        <ele>238.53999999999999</ele>
        <time>2026-07-09T11:54:57Z</time>
      </trkpt>
      <trkpt lat="53.115388993173838" lon="-6.479364959523082">
        <ele>239.02000000000001</ele>
        <time>2026-07-09T11:54:58Z</time>
      </trkpt>
      <trkpt lat="53.115311963483691" lon="-6.479522958397865">
        <ele>239.02000000000001</ele>
        <time>2026-07-09T11:54:59Z</time>
      </trkpt>
      <trkpt lat="53.115230994299054" lon="-6.479693027213216">
        <ele>239.50999999999999</ele>
        <time>2026-07-09T11:55:00Z</time>
      </trkpt>
      <trkpt lat="53.115125969052315" lon="-6.479841973632574">
        <ele>239.99000000000001</ele>
        <time>2026-07-09T11:55:01Z</time>
      </trkpt>
      <trkpt lat="53.11500602401793" lon="-6.479952028021216">
        <ele>241.43000000000001</ele>
        <time>2026-07-09T11:55:02Z</time>
      </trkpt>
      <trkpt lat="53.114882977679372" lon="-6.480064010247588">
        <ele>242.87</ele>
        <time>2026-07-09T11:55:03Z</time>
      </trkpt>
      <trkpt lat="53.11380104161799" lon="-6.481161033734679">
        <ele>250.56</ele>
        <time>2026-07-09T11:55:12Z</time>
      </trkpt>
      <trkpt lat="53.113602977246046" lon="-6.481477031484246">
        <ele>251.52000000000001</ele>
        <time>2026-07-09T11:55:14Z</time>
      </trkpt>
      <trkpt lat="53.11352401971817" lon="-6.481662020087242">
        <ele>251.52000000000001</ele>
        <time>2026-07-09T11:55:15Z</time>
      </trkpt>
      <trkpt lat="53.113442966714501" lon="-6.48185103200376">
        <ele>252</ele>
        <time>2026-07-09T11:55:16Z</time>
      </trkpt>
      <trkpt lat="53.1133739836514" lon="-6.482068039476872">
        <ele>252</ele>
        <time>2026-07-09T11:55:17Z</time>
      </trkpt>
      <trkpt lat="53.11330801807344" lon="-6.482296027243137">
        <ele>252</ele>
        <time>2026-07-09T11:55:18Z</time>
      </trkpt>
      <trkpt lat="53.112880038097501" lon="-6.483769984915853">
        <ele>251.03999999999999</ele>
        <time>2026-07-09T11:55:25Z</time>
      </trkpt>
      <trkpt lat="53.11281499452889" lon="-6.483952039852738">
        <ele>250.56</ele>
        <time>2026-07-09T11:55:26Z</time>
      </trkpt>
      <trkpt lat="53.112735031172633" lon="-6.484119007363915">
        <ele>251.03999999999999</ele>
        <time>2026-07-09T11:55:27Z</time>
      </trkpt>
      <trkpt lat="53.112654983997345" lon="-6.484287986531854">
        <ele>251.52000000000001</ele>
        <time>2026-07-09T11:55:28Z</time>
      </trkpt>
      <trkpt lat="53.112545013427734" lon="-6.48443098179996">
        <ele>252</ele>
        <time>2026-07-09T11:55:29Z</time>
      </trkpt>
      <trkpt lat="53.112434037029743" lon="-6.484552016481757">
        <ele>252.96000000000001</ele>
        <time>2026-07-09T11:55:30Z</time>
      </trkpt>
      <trkpt lat="53.112329011783004" lon="-6.484667016193271">
        <ele>253.44</ele>
        <time>2026-07-09T11:55:31Z</time>
      </trkpt>
      <trkpt lat="53.112037992104888" lon="-6.484984019771218">
        <ele>255.37</ele>
        <time>2026-07-09T11:55:34Z</time>
      </trkpt>
      <trkpt lat="53.11103199608624" lon="-6.485908962786198">
        <ele>258.73000000000002</ele>
        <time>2026-07-09T11:55:42Z</time>
      </trkpt>
      <trkpt lat="53.110368987545371" lon="-6.486883023753762">
        <ele>256.32999999999998</ele>
        <time>2026-07-09T11:55:48Z</time>
      </trkpt>
      <trkpt lat="53.109127040952444" lon="-6.488250028342009">
        <ele>245.75</ele>
        <time>2026-07-09T11:55:58Z</time>
      </trkpt>
      <trkpt lat="53.107755007222295" lon="-6.490006037056446">
        <ele>238.53999999999999</ele>
        <time>2026-07-09T11:56:09Z</time>
      </trkpt>
      <trkpt lat="53.107348987832665" lon="-6.490617999807">
        <ele>235.18000000000001</ele>
        <time>2026-07-09T11:56:13Z</time>
      </trkpt>
      <trkpt lat="53.107315041124821" lon="-6.490791002288461">
        <ele>234.69999999999999</ele>
        <time>2026-07-09T11:56:14Z</time>
      </trkpt>
      <trkpt lat="53.107315041124821" lon="-6.490944977849722">
        <ele>234.22</ele>
        <time>2026-07-09T11:56:15Z</time>
      </trkpt>
      <trkpt lat="53.107419982552528" lon="-6.492620017379522">
        <ele>229.88999999999999</ele>
        <time>2026-07-09T11:56:23Z</time>
      </trkpt>
      <trkpt lat="53.107827007770538" lon="-6.494318023324013">
        <ele>229.88999999999999</ele>
        <time>2026-07-09T11:56:30Z</time>
      </trkpt>
      <trkpt lat="53.108430001884699" lon="-6.495679998770356">
        <ele>228.44999999999999</ele>
        <time>2026-07-09T11:56:38Z</time>
      </trkpt>
      <trkpt lat="53.108618007972836" lon="-6.496129017323256">
        <ele>227.00999999999999</ele>
        <time>2026-07-09T11:56:41Z</time>
      </trkpt>
      <trkpt lat="53.108660001307726" lon="-6.496292967349291">
        <ele>227.00999999999999</ele>
        <time>2026-07-09T11:56:42Z</time>
      </trkpt>
      <trkpt lat="53.108943980187178" lon="-6.497398037463427">
        <ele>222.19999999999999</ele>
        <time>2026-07-09T11:56:50Z</time>
      </trkpt>
      <trkpt lat="53.108932999894023" lon="-6.497519994154573">
        <ele>221.24000000000001</ele>
        <time>2026-07-09T11:56:51Z</time>
      </trkpt>
      <trkpt lat="53.108897963538766" lon="-6.4975790027529">
        <ele>220.75999999999999</ele>
        <time>2026-07-09T11:56:52Z</time>
      </trkpt>
      <trkpt lat="53.10886200517416" lon="-6.49764102883637">
        <ele>220.28</ele>
        <time>2026-07-09T11:56:53Z</time>
      </trkpt>
      <trkpt lat="53.108829986304045" lon="-6.497695008292794">
        <ele>219.80000000000001</ele>
        <time>2026-07-09T11:56:54Z</time>
      </trkpt>
      <trkpt lat="53.108795033767819" lon="-6.497755022719502">
        <ele>219.31999999999999</ele>
        <time>2026-07-09T11:56:55Z</time>
      </trkpt>
      <trkpt lat="53.108619013801217" lon="-6.498058028519154">
        <ele>219.80000000000001</ele>
        <time>2026-07-09T11:56:58Z</time>
      </trkpt>
      <trkpt lat="53.108547013252974" lon="-6.49818099103868">
        <ele>220.28</ele>
        <time>2026-07-09T11:56:59Z</time>
      </trkpt>
      <trkpt lat="53.108447017148137" lon="-6.498279981315136">
        <ele>221.24000000000001</ele>
        <time>2026-07-09T11:57:00Z</time>
      </trkpt>
      <trkpt lat="53.108339980244637" lon="-6.498344019055367">
        <ele>222.19999999999999</ele>
        <time>2026-07-09T11:57:01Z</time>
      </trkpt>
      <trkpt lat="53.108223974704742" lon="-6.498414007946849">
        <ele>223.16</ele>
        <time>2026-07-09T11:57:02Z</time>
      </trkpt>
      <trkpt lat="53.107516961172223" lon="-6.498820027336478">
        <ele>228.93000000000001</ele>
        <time>2026-07-09T11:57:08Z</time>
      </trkpt>
      <trkpt lat="53.107405984774232" lon="-6.498818015679717">
        <ele>230.37</ele>
        <time>2026-07-09T11:57:09Z</time>
      </trkpt>
      <trkpt lat="53.107295008376241" lon="-6.498814998194575">
        <ele>231.81</ele>
        <time>2026-07-09T11:57:10Z</time>
      </trkpt>
      <trkpt lat="53.106362018734217" lon="-6.498798988759518">
        <ele>240.94999999999999</ele>
        <time>2026-07-09T11:57:18Z</time>
      </trkpt>
      <trkpt lat="53.106267973780632" lon="-6.498798988759518">
        <ele>242.38999999999999</ele>
        <time>2026-07-09T11:57:19Z</time>
      </trkpt>
      <trkpt lat="53.10617501847446" lon="-6.498798988759518">
        <ele>243.34999999999999</ele>
        <time>2026-07-09T11:57:20Z</time>
      </trkpt>
      <trkpt lat="53.106078039854765" lon="-6.498798988759518">
        <ele>244.31</ele>
        <time>2026-07-09T11:57:21Z</time>
      </trkpt>
      <trkpt lat="53.105975026264787" lon="-6.498798988759518">
        <ele>245.27000000000001</ele>
        <time>2026-07-09T11:57:22Z</time>
      </trkpt>
      <trkpt lat="53.105868995189667" lon="-6.498798988759518">
        <ele>245.75</ele>
        <time>2026-07-09T11:57:23Z</time>
      </trkpt>
      <trkpt lat="53.105560960248113" lon="-6.498822961002588">
        <ele>247.68000000000001</ele>
        <time>2026-07-09T11:57:26Z</time>
      </trkpt>
      <trkpt lat="53.105370020493865" lon="-6.498961010947824">
        <ele>248.16</ele>
        <time>2026-07-09T11:57:28Z</time>
      </trkpt>
      <trkpt lat="53.10506097972393" lon="-6.499153040349484">
        <ele>247.68000000000001</ele>
        <time>2026-07-09T11:57:31Z</time>
      </trkpt>
      <trkpt lat="53.104944974184036" lon="-6.499171983450651">
        <ele>247.68000000000001</ele>
        <time>2026-07-09T11:57:32Z</time>
      </trkpt>
      <trkpt lat="53.103471016511321" lon="-6.499477000907064">
        <ele>243.83000000000001</ele>
        <time>2026-07-09T11:57:43Z</time>
      </trkpt>
      <trkpt lat="53.103202041238546" lon="-6.499584037810564">
        <ele>243.83000000000001</ele>
        <time>2026-07-09T11:57:45Z</time>
      </trkpt>
      <trkpt lat="53.102517994120717" lon="-6.500057028606534">
        <ele>243.83000000000001</ele>
        <time>2026-07-09T11:57:51Z</time>
      </trkpt>
      <trkpt lat="53.102414980530739" lon="-6.500131962820888">
        <ele>243.34999999999999</ele>
        <time>2026-07-09T11:57:52Z</time>
      </trkpt>
      <trkpt lat="53.10149397701025" lon="-6.501396959647536">
        <ele>239.99000000000001</ele>
        <time>2026-07-09T11:58:02Z</time>
      </trkpt>
      <trkpt lat="53.1008489895612" lon="-6.502834036946297">
        <ele>231.81</ele>
        <time>2026-07-09T11:58:09Z</time>
      </trkpt>
      <trkpt lat="53.100106017664075" lon="-6.504795989021659">
        <ele>221.24000000000001</ele>
        <time>2026-07-09T11:58:17Z</time>
      </trkpt>
      <trkpt lat="53.099706033244729" lon="-6.505601992830634">
        <ele>219.31999999999999</ele>
        <time>2026-07-09T11:58:21Z</time>
      </trkpt>
      <trkpt lat="53.099173028022051" lon="-6.507197991013527">
        <ele>222.68000000000001</ele>
        <time>2026-07-09T11:58:28Z</time>
      </trkpt>
      <trkpt lat="53.099095998331904" lon="-6.507387002930045">
        <ele>223.63999999999999</ele>
        <time>2026-07-09T11:58:29Z</time>
      </trkpt>
      <trkpt lat="53.098298041149974" lon="-6.508754007518292">
        <ele>232.30000000000001</ele>
        <time>2026-07-09T11:58:37Z</time>
      </trkpt>
      <trkpt lat="53.097074031829834" lon="-6.510157976299524">
        <ele>238.53999999999999</ele>
        <time>2026-07-09T11:58:47Z</time>
      </trkpt>
      <trkpt lat="53.09695802628994" lon="-6.51029895991087">
        <ele>238.53999999999999</ele>
        <time>2026-07-09T11:58:48Z</time>
      </trkpt>
      <trkpt lat="53.096861969679594" lon="-6.510500963777304">
        <ele>238.06</ele>
        <time>2026-07-09T11:58:49Z</time>
      </trkpt>
      <trkpt lat="53.09676599688828" lon="-6.510704979300499">
        <ele>237.58000000000001</ele>
        <time>2026-07-09T11:58:50Z</time>
      </trkpt>
      <trkpt lat="53.096669018268585" lon="-6.510907988995314">
        <ele>237.58000000000001</ele>
        <time>2026-07-09T11:58:51Z</time>
      </trkpt>
      <trkpt lat="53.096572961658239" lon="-6.511110998690128">
        <ele>237.09999999999999</ele>
        <time>2026-07-09T11:58:52Z</time>
      </trkpt>
      <trkpt lat="53.096215976402164" lon="-6.51214599609375">
        <ele>232.78</ele>
        <time>2026-07-09T11:58:57Z</time>
      </trkpt>
      <trkpt lat="53.09590601362288" lon="-6.513701006770134">
        <ele>224.12</ele>
        <time>2026-07-09T11:59:03Z</time>
      </trkpt>
      <trkpt lat="53.095959993079305" lon="-6.516222031787038">
        <ele>215.47</ele>
        <time>2026-07-09T11:59:13Z</time>
      </trkpt>
      <trkpt lat="53.095855973660946" lon="-6.519594993442297">
        <ele>202.00999999999999</ele>
        <time>2026-07-09T11:59:26Z</time>
      </trkpt>
      <trkpt lat="53.095769975334406" lon="-6.522074025124311">
        <ele>194.80000000000001</ele>
        <time>2026-07-09T11:59:35Z</time>
      </trkpt>
      <trkpt lat="53.095934009179473" lon="-6.524172015488148">
        <ele>201.05000000000001</ele>
        <time>2026-07-09T11:59:43Z</time>
      </trkpt>
      <trkpt lat="53.096024030819535" lon="-6.524760005995631">
        <ele>205.38</ele>
        <time>2026-07-09T11:59:48Z</time>
      </trkpt>
      <trkpt lat="53.095981031656265" lon="-6.524935020133853">
        <ele>209.22</ele>
        <time>2026-07-09T11:59:53Z</time>
      </trkpt>
      <trkpt lat="53.095939960330725" lon="-6.524935020133853">
        <ele>210.66999999999999</ele>
        <time>2026-07-09T11:59:54Z</time>
      </trkpt>
      <trkpt lat="53.095880029723048" lon="-6.524935020133853">
        <ele>211.15000000000001</ele>
        <time>2026-07-09T11:59:55Z</time>
      </trkpt>
      <trkpt lat="53.095123982056975" lon="-6.524940971285105">
        <ele>214.99000000000001</ele>
        <time>2026-07-09T12:00:02Z</time>
      </trkpt>
      <trkpt lat="53.094861963763833" lon="-6.524953041225672">
        <ele>216.91</ele>
        <time>2026-07-09T12:00:05Z</time>
      </trkpt>
      <trkpt lat="53.09476800262928" lon="-6.524973995983601">
        <ele>217.40000000000001</ele>
        <time>2026-07-09T12:00:06Z</time>
      </trkpt>
      <trkpt lat="53.094707988202572" lon="-6.525074997916818">
        <ele>217.88</ele>
        <time>2026-07-09T12:00:07Z</time>
      </trkpt>
      <trkpt lat="53.094640010967851" lon="-6.525189997628331">
        <ele>218.36000000000001</ele>
        <time>2026-07-09T12:00:08Z</time>
      </trkpt>
      <trkpt lat="53.094567004591227" lon="-6.525312038138509">
        <ele>218.84</ele>
        <time>2026-07-09T12:00:09Z</time>
      </trkpt>
      <trkpt lat="53.093916988000274" lon="-6.526550967246294">
        <ele>225.56999999999999</ele>
        <time>2026-07-09T12:00:17Z</time>
      </trkpt>
      <trkpt lat="53.093813974410295" lon="-6.52669002301991">
        <ele>226.05000000000001</ele>
        <time>2026-07-09T12:00:18Z</time>
      </trkpt>
      <trkpt lat="53.093442991375923" lon="-6.527199978008866">
        <ele>227.97</ele>
        <time>2026-07-09T12:00:22Z</time>
      </trkpt>
      <trkpt lat="53.093381971120834" lon="-6.527346996590495">
        <ele>228.44999999999999</ele>
        <time>2026-07-09T12:00:23Z</time>
      </trkpt>
      <trkpt lat="53.093321034684777" lon="-6.527539025992155">
        <ele>228.93000000000001</ele>
        <time>2026-07-09T12:00:24Z</time>
      </trkpt>
      <trkpt lat="53.092991039156914" lon="-6.528985993936658">
        <ele>236.62</ele>
        <time>2026-07-09T12:00:31Z</time>
      </trkpt>
      <trkpt lat="53.092922978103161" lon="-6.529108034446836">
        <ele>237.58000000000001</ele>
        <time>2026-07-09T12:00:32Z</time>
      </trkpt>
      <trkpt lat="53.092839997261763" lon="-6.529191015288234">
        <ele>238.06</ele>
        <time>2026-07-09T12:00:33Z</time>
      </trkpt>
      <trkpt lat="53.0927499756217" lon="-6.529273996129632">
        <ele>238.53999999999999</ele>
        <time>2026-07-09T12:00:34Z</time>
      </trkpt>
      <trkpt lat="53.092637993395329" lon="-6.529316995292902">
        <ele>239.02000000000001</ele>
        <time>2026-07-09T12:00:35Z</time>
      </trkpt>
      <trkpt lat="53.09251201339066" lon="-6.529365023598075">
        <ele>239.50999999999999</ele>
        <time>2026-07-09T12:00:36Z</time>
      </trkpt>
      <trkpt lat="53.092374969273806" lon="-6.529417997226119">
        <ele>239.50999999999999</ele>
        <time>2026-07-09T12:00:37Z</time>
      </trkpt>
      <trkpt lat="53.090918026864529" lon="-6.529724020510912">
        <ele>245.27000000000001</ele>
        <time>2026-07-09T12:00:46Z</time>
      </trkpt>
      <trkpt lat="53.088538991287351" lon="-6.530132973566651">
        <ele>240.47</ele>
        <time>2026-07-09T12:01:00Z</time>
      </trkpt>
      <trkpt lat="53.086649961769581" lon="-6.530197011306882">
        <ele>233.74000000000001</ele>
        <time>2026-07-09T12:01:11Z</time>
      </trkpt>
      <trkpt lat="53.085973961278796" lon="-6.530369007959962">
        <ele>232.30000000000001</ele>
        <time>2026-07-09T12:01:15Z</time>
      </trkpt>
      <trkpt lat="53.084460021927953" lon="-6.531401993706822">
        <ele>230.37</ele>
        <time>2026-07-09T12:01:25Z</time>
      </trkpt>
      <trkpt lat="53.082964019849896" lon="-6.532045975327492">
        <ele>227.97</ele>
        <time>2026-07-09T12:01:34Z</time>
      </trkpt>
      <trkpt lat="53.081242041662335" lon="-6.532760029658675">
        <ele>238.53999999999999</ele>
        <time>2026-07-09T12:01:44Z</time>
      </trkpt>
      <trkpt lat="53.080747006461024" lon="-6.532960021868348">
        <ele>241.91</ele>
        <time>2026-07-09T12:01:47Z</time>
      </trkpt>
      <trkpt lat="53.080450035631657" lon="-6.532944012433291">
        <ele>244.31</ele>
        <time>2026-07-09T12:01:49Z</time>
      </trkpt>
      <trkpt lat="53.080291030928493" lon="-6.532901013270021">
        <ele>245.27000000000001</ele>
        <time>2026-07-09T12:01:50Z</time>
      </trkpt>
      <trkpt lat="53.078278033062816" lon="-6.532291984185576">
        <ele>246.22999999999999</ele>
        <time>2026-07-09T12:02:01Z</time>
      </trkpt>
      <trkpt lat="53.07736599817872" lon="-6.532045975327492">
        <ele>246.22999999999999</ele>
        <time>2026-07-09T12:02:06Z</time>
      </trkpt>
      <trkpt lat="53.075422989204526" lon="-6.531770965084434">
        <ele>242.87</ele>
        <time>2026-07-09T12:02:17Z</time>
      </trkpt>
      <trkpt lat="53.074537022039294" lon="-6.531442981213331">
        <ele>240.94999999999999</ele>
        <time>2026-07-09T12:02:22Z</time>
      </trkpt>
      <trkpt lat="53.074027989059687" lon="-6.53139503672719">
        <ele>241.43000000000001</ele>
        <time>2026-07-09T12:02:25Z</time>
      </trkpt>
      <trkpt lat="53.073878958821297" lon="-6.531414985656738">
        <ele>242.38999999999999</ele>
        <time>2026-07-09T12:02:26Z</time>
      </trkpt>
      <trkpt lat="53.073741998523474" lon="-6.531512970104814">
        <ele>242.87</ele>
        <time>2026-07-09T12:02:27Z</time>
      </trkpt>
      <trkpt lat="53.073611995205283" lon="-6.531605003401637">
        <ele>243.83000000000001</ele>
        <time>2026-07-09T12:02:28Z</time>
      </trkpt>
      <trkpt lat="53.073489032685757" lon="-6.531725032255054">
        <ele>244.78999999999999</ele>
        <time>2026-07-09T12:02:29Z</time>
      </trkpt>
      <trkpt lat="53.073364980518818" lon="-6.531858975067735">
        <ele>245.75</ele>
        <time>2026-07-09T12:02:30Z</time>
      </trkpt>
      <trkpt lat="53.072999026626348" lon="-6.532252002507448">
        <ele>246.72</ele>
        <time>2026-07-09T12:02:33Z</time>
      </trkpt>
      <trkpt lat="53.072830969467759" lon="-6.532329032197595">
        <ele>246.22999999999999</ele>
        <time>2026-07-09T12:02:34Z</time>
      </trkpt>
      <trkpt lat="53.07268101722002" lon="-6.532398015260696">
        <ele>246.22999999999999</ele>
        <time>2026-07-09T12:02:35Z</time>
      </trkpt>
      <trkpt lat="53.072529975324869" lon="-6.532466998323798">
        <ele>245.75</ele>
        <time>2026-07-09T12:02:36Z</time>
      </trkpt>
      <trkpt lat="53.072373988106847" lon="-6.532473033294082">
        <ele>245.75</ele>
        <time>2026-07-09T12:02:37Z</time>
      </trkpt>
      <trkpt lat="53.072221018373966" lon="-6.532453000545502">
        <ele>245.75</ele>
        <time>2026-07-09T12:02:38Z</time>
      </trkpt>
      <trkpt lat="53.072066958993673" lon="-6.532402960583568">
        <ele>245.75</ele>
        <time>2026-07-09T12:02:39Z</time>
      </trkpt>
      <trkpt lat="53.071910971775651" lon="-6.532332971692085">
        <ele>245.75</ele>
        <time>2026-07-09T12:02:40Z</time>
      </trkpt>
      <trkpt lat="53.071752972900867" lon="-6.532261976972222">
        <ele>245.75</ele>
        <time>2026-07-09T12:02:41Z</time>
      </trkpt>
      <trkpt lat="53.071120977401733" lon="-6.531999036669731">
        <ele>247.19999999999999</ele>
        <time>2026-07-09T12:02:45Z</time>
      </trkpt>
      <trkpt lat="53.07096297852695" lon="-6.532022003084421">
        <ele>248.16</ele>
        <time>2026-07-09T12:02:46Z</time>
      </trkpt>
      <trkpt lat="53.069837959483266" lon="-6.532182013615966">
        <ele>246.22999999999999</ele>
        <time>2026-07-09T12:02:53Z</time>
      </trkpt>
      <trkpt lat="53.069691024720669" lon="-6.532202968373895">
        <ele>245.75</ele>
        <time>2026-07-09T12:02:54Z</time>
      </trkpt>
      <trkpt lat="53.069402016699314" lon="-6.532149994745851">
        <ele>244.78999999999999</ele>
        <time>2026-07-09T12:02:56Z</time>
      </trkpt>
      <trkpt lat="53.069262960925698" lon="-6.532109007239342">
        <ele>243.83000000000001</ele>
        <time>2026-07-09T12:02:57Z</time>
      </trkpt>
      <trkpt lat="53.069139998406172" lon="-6.532032983377576">
        <ele>243.34999999999999</ele>
        <time>2026-07-09T12:02:58Z</time>
      </trkpt>
      <trkpt lat="53.069027010351419" lon="-6.531964000314474">
        <ele>242.87</ele>
        <time>2026-07-09T12:02:59Z</time>
      </trkpt>
      <trkpt lat="53.068922990933061" lon="-6.531900968402624">
        <ele>242.38999999999999</ele>
        <time>2026-07-09T12:03:00Z</time>
      </trkpt>
      <trkpt lat="53.068828023970127" lon="-6.531839026138187">
        <ele>242.38999999999999</ele>
        <time>2026-07-09T12:03:01Z</time>
      </trkpt>
      <trkpt lat="53.068759040907025" lon="-6.531793009489775">
        <ele>242.38999999999999</ele>
        <time>2026-07-09T12:03:02Z</time>
      </trkpt>
      <trkpt lat="53.068713024258614" lon="-6.53176199644804">
        <ele>242.38999999999999</ele>
        <time>2026-07-09T12:03:03Z</time>
      </trkpt>
      <trkpt lat="53.068690979853272" lon="-6.531746992841363">
        <ele>242.38999999999999</ele>
        <time>2026-07-09T12:03:04Z</time>
      </trkpt>
      <trkpt lat="53.068643035367131" lon="-6.531714973971248">
        <ele>243.34999999999999</ele>
        <time>2026-07-09T12:03:10Z</time>
      </trkpt>
      <trkpt lat="53.068572040647268" lon="-6.531597040593624">
        <ele>243.34999999999999</ele>
        <time>2026-07-09T12:03:11Z</time>
      </trkpt>
      <trkpt lat="53.068506997078657" lon="-6.531488997861743">
        <ele>243.34999999999999</ele>
        <time>2026-07-09T12:03:12Z</time>
      </trkpt>
      <trkpt lat="53.067962005734444" lon="-6.530481996014714">
        <ele>243.83000000000001</ele>
        <time>2026-07-09T12:03:18Z</time>
      </trkpt>
      <trkpt lat="53.067291034385562" lon="-6.528795976191759">
        <ele>248.63999999999999</ele>
        <time>2026-07-09T12:03:26Z</time>
      </trkpt>
      <trkpt lat="53.066688040271401" lon="-6.526848021894693">
        <ele>255.37</ele>
        <time>2026-07-09T12:03:35Z</time>
      </trkpt>
      <trkpt lat="53.066587038338184" lon="-6.526659009978175">
        <ele>256.32999999999998</ele>
        <time>2026-07-09T12:03:36Z</time>
      </trkpt>
      <trkpt lat="53.065451961010695" lon="-6.524405032396317">
        <ele>258.73000000000002</ele>
        <time>2026-07-09T12:03:47Z</time>
      </trkpt>
      <trkpt lat="53.064761040732265" lon="-6.522249039262533">
        <ele>256.81</ele>
        <time>2026-07-09T12:03:55Z</time>
      </trkpt>
      <trkpt lat="53.064490975812078" lon="-6.521029975265265">
        <ele>255.37</ele>
        <time>2026-07-09T12:03:59Z</time>
      </trkpt>
      <trkpt lat="53.064454011619091" lon="-6.520707020536065">
        <ele>255.37</ele>
        <time>2026-07-09T12:04:00Z</time>
      </trkpt>
      <trkpt lat="53.063900973647833" lon="-6.517240013927221">
        <ele>255.84999999999999</ele>
        <time>2026-07-09T12:04:11Z</time>
      </trkpt>
      <trkpt lat="53.063239976763725" lon="-6.514120018109679">
        <ele>253.93000000000001</ele>
        <time>2026-07-09T12:04:22Z</time>
      </trkpt>
      <trkpt lat="53.062642011791468" lon="-6.512111965566874">
        <ele>250.56</ele>
        <time>2026-07-09T12:04:30Z</time>
      </trkpt>
      <trkpt lat="53.062186036258936" lon="-6.5099330060184">
        <ele>246.22999999999999</ele>
        <time>2026-07-09T12:04:38Z</time>
      </trkpt>
      <trkpt lat="53.061499977484345" lon="-6.50677596218884">
        <ele>241.91</ele>
        <time>2026-07-09T12:04:49Z</time>
      </trkpt>
      <trkpt lat="53.061189008876681" lon="-6.506073977798224">
        <ele>242.38999999999999</ele>
        <time>2026-07-09T12:04:52Z</time>
      </trkpt>
      <trkpt lat="53.061064034700394" lon="-6.505892006680369">
        <ele>242.87</ele>
        <time>2026-07-09T12:04:53Z</time>
      </trkpt>
      <trkpt lat="53.060704031959176" lon="-6.505365036427975">
        <ele>242.38999999999999</ele>
        <time>2026-07-09T12:04:56Z</time>
      </trkpt>
      <trkpt lat="53.060603030025959" lon="-6.505131013691425">
        <ele>241.91</ele>
        <time>2026-07-09T12:04:57Z</time>
      </trkpt>
      <trkpt lat="53.060510996729136" lon="-6.504916017875075">
        <ele>241.43000000000001</ele>
        <time>2026-07-09T12:04:58Z</time>
      </trkpt>
      <trkpt lat="53.060428015887737" lon="-6.504698004573584">
        <ele>241.91</ele>
        <time>2026-07-09T12:04:59Z</time>
      </trkpt>
      <trkpt lat="53.060361966490746" lon="-6.504459958523512">
        <ele>241.91</ele>
        <time>2026-07-09T12:05:00Z</time>
      </trkpt>
      <trkpt lat="53.060145964846015" lon="-6.503579020500183">
        <ele>243.34999999999999</ele>
        <time>2026-07-09T12:05:04Z</time>
      </trkpt>
      <trkpt lat="53.060119980946183" lon="-6.503360001370311">
        <ele>243.83000000000001</ele>
        <time>2026-07-09T12:05:05Z</time>
      </trkpt>
      <trkpt lat="53.060110006481409" lon="-6.503130001947284">
        <ele>243.83000000000001</ele>
        <time>2026-07-09T12:05:06Z</time>
      </trkpt>
      <trkpt lat="53.060290971770883" lon="-6.501009967178106">
        <ele>246.22999999999999</ele>
        <time>2026-07-09T12:05:14Z</time>
      </trkpt>
      <trkpt lat="53.060515020042658" lon="-6.497803973034024">
        <ele>248.63999999999999</ele>
        <time>2026-07-09T12:05:24Z</time>
      </trkpt>
      <trkpt lat="53.06052197702229" lon="-6.497466014698148">
        <ele>248.63999999999999</ele>
        <time>2026-07-09T12:05:25Z</time>
      </trkpt>
      <trkpt lat="53.060571011155844" lon="-6.494899978861213">
        <ele>251.03999999999999</ele>
        <time>2026-07-09T12:05:33Z</time>
      </trkpt>
      <trkpt lat="53.06064996868372" lon="-6.492189019918442">
        <ele>247.68000000000001</ele>
        <time>2026-07-09T12:05:42Z</time>
      </trkpt>
      <trkpt lat="53.060745019465685" lon="-6.491343034431338">
        <ele>245.75</ele>
        <time>2026-07-09T12:05:45Z</time>
      </trkpt>
      <trkpt lat="53.06124902330339" lon="-6.489180000498891">
        <ele>241.91</ele>
        <time>2026-07-09T12:05:53Z</time>
      </trkpt>
      <trkpt lat="53.061285987496376" lon="-6.488913958892226">
        <ele>241.43000000000001</ele>
        <time>2026-07-09T12:05:54Z</time>
      </trkpt>
      <trkpt lat="53.061300991103053" lon="-6.487725991755724">
        <ele>242.38999999999999</ele>
        <time>2026-07-09T12:05:58Z</time>
      </trkpt>
      <trkpt lat="53.061274001374841" lon="-6.48741502314806">
        <ele>242.87</ele>
        <time>2026-07-09T12:05:59Z</time>
      </trkpt>
      <trkpt lat="53.060685005038977" lon="-6.48408598266542">
        <ele>249.59999999999999</ele>
        <time>2026-07-09T12:06:10Z</time>
      </trkpt>
      <trkpt lat="53.059769030660391" lon="-6.480285963043571">
        <ele>256.81</ele>
        <time>2026-07-09T12:06:23Z</time>
      </trkpt>
      <trkpt lat="53.059802977368236" lon="-6.478064004331827">
        <ele>260.17000000000002</ele>
        <time>2026-07-09T12:06:30Z</time>
      </trkpt>
      <trkpt lat="53.059828961268067" lon="-6.477743983268738">
        <ele>260.64999999999998</ele>
        <time>2026-07-09T12:06:31Z</time>
      </trkpt>
      <trkpt lat="53.059999030083418" lon="-6.475529987365007">
        <ele>264.01999999999998</ele>
        <time>2026-07-09T12:06:38Z</time>
      </trkpt>
      <trkpt lat="53.060081005096436" lon="-6.473683035001159">
        <ele>265.94</ele>
        <time>2026-07-09T12:06:44Z</time>
      </trkpt>
      <trkpt lat="53.060142025351524" lon="-6.473400983959436">
        <ele>266.42000000000002</ele>
        <time>2026-07-09T12:06:45Z</time>
      </trkpt>
      <trkpt lat="53.060204973444343" lon="-6.473109964281321">
        <ele>266.42000000000002</ele>
        <time>2026-07-09T12:06:46Z</time>
      </trkpt>
      <trkpt lat="53.060848033055663" lon="-6.47080603055656">
        <ele>267.86000000000001</ele>
        <time>2026-07-09T12:06:54Z</time>
      </trkpt>
      <trkpt lat="53.060904024168849" lon="-6.470524985343218">
        <ele>268.35000000000002</ele>
        <time>2026-07-09T12:06:55Z</time>
      </trkpt>
      <trkpt lat="53.060918021947145" lon="-6.470226002857089">
        <ele>268.82999999999998</ele>
        <time>2026-07-09T12:06:56Z</time>
      </trkpt>
      <trkpt lat="53.061053976416588" lon="-6.467327959835529">
        <ele>271.70999999999998</ele>
        <time>2026-07-09T12:07:05Z</time>
      </trkpt>
      <trkpt lat="53.061301996931434" lon="-6.464578025043011">
        <ele>270.75</ele>
        <time>2026-07-09T12:07:13Z</time>
      </trkpt>
      <trkpt lat="53.061848999932408" lon="-6.460609026253223">
        <ele>269.31</ele>
        <time>2026-07-09T12:07:25Z</time>
      </trkpt>
      <trkpt lat="53.062407989054918" lon="-6.457489030435681">
        <ele>273.63</ele>
        <time>2026-07-09T12:07:35Z</time>
      </trkpt>
      <trkpt lat="53.062329031527042" lon="-6.45525299012661">
        <ele>274.11000000000001</ele>
        <time>2026-07-09T12:07:42Z</time>
      </trkpt>
      <trkpt lat="53.062268011271954" lon="-6.454991977661848">
        <ele>274.58999999999997</ele>
        <time>2026-07-09T12:07:43Z</time>
      </trkpt>
      <trkpt lat="53.062206991016865" lon="-6.454731971025467">
        <ele>275.06999999999999</ele>
        <time>2026-07-09T12:07:44Z</time>
      </trkpt>
      <trkpt lat="53.062097020447254" lon="-6.454516975209117">
        <ele>275.06999999999999</ele>
        <time>2026-07-09T12:07:45Z</time>
      </trkpt>
      <trkpt lat="53.061986966058612" lon="-6.454306002706289">
        <ele>275.06999999999999</ele>
        <time>2026-07-09T12:07:46Z</time>
      </trkpt>
      <trkpt lat="53.061859980225563" lon="-6.454128976911306">
        <ele>275.56</ele>
        <time>2026-07-09T12:07:47Z</time>
      </trkpt>
      <trkpt lat="53.061720002442598" lon="-6.453966032713652">
        <ele>276.04000000000002</ele>
        <time>2026-07-09T12:07:48Z</time>
      </trkpt>
      <trkpt lat="53.061576001346111" lon="-6.453796969726682">
        <ele>276.51999999999998</ele>
        <time>2026-07-09T12:07:49Z</time>
      </trkpt>
      <trkpt lat="53.060567993670702" lon="-6.452969005331397">
        <ele>281.31999999999999</ele>
        <time>2026-07-09T12:07:55Z</time>
      </trkpt>
      <trkpt lat="53.060432961210608" lon="-6.452779993414879">
        <ele>281.80000000000001</ele>
        <time>2026-07-09T12:07:56Z</time>
      </trkpt>
      <trkpt lat="53.060314022004604" lon="-6.452555023133755">
        <ele>282.76999999999998</ele>
        <time>2026-07-09T12:07:57Z</time>
      </trkpt>
      <trkpt lat="53.060204973444343" lon="-6.452302979305387">
        <ele>283.73000000000002</ele>
        <time>2026-07-09T12:07:58Z</time>
      </trkpt>
      <trkpt lat="53.060126015916467" lon="-6.452021012082696">
        <ele>284.69</ele>
        <time>2026-07-09T12:07:59Z</time>
      </trkpt>
      <trkpt lat="53.059670040383935" lon="-6.449815984815359">
        <ele>287.56999999999999</ele>
        <time>2026-07-09T12:08:06Z</time>
      </trkpt>
      <trkpt lat="53.058906029909849" lon="-6.445965003222227">
        <ele>294.77999999999997</ele>
        <time>2026-07-09T12:08:18Z</time>
      </trkpt>
      <trkpt lat="53.05837201885879" lon="-6.443388992920518">
        <ele>298.14999999999998</ele>
        <time>2026-07-09T12:08:26Z</time>
      </trkpt>
      <trkpt lat="53.057579006999731" lon="-6.439600959420204">
        <ele>304.88</ele>
        <time>2026-07-09T12:08:38Z</time>
      </trkpt>
      <trkpt lat="53.057214980944991" lon="-6.436759997159243">
        <ele>311.12</ele>
        <time>2026-07-09T12:08:47Z</time>
      </trkpt>
      <trkpt lat="53.056635037064552" lon="-6.433908976614475">
        <ele>319.30000000000001</ele>
        <time>2026-07-09T12:08:56Z</time>
      </trkpt>
      <trkpt lat="53.056518025696278" lon="-6.43172599375248">
        <ele>324.57999999999998</ele>
        <time>2026-07-09T12:09:03Z</time>
      </trkpt>
      <trkpt lat="53.056787000969052" lon="-6.428164020180702">
        <ele>339</ele>
        <time>2026-07-09T12:09:14Z</time>
      </trkpt>
      <trkpt lat="53.0569520406425" lon="-6.427255002781749">
        <ele>343.32999999999998</ele>
        <time>2026-07-09T12:09:17Z</time>
      </trkpt>
      <trkpt lat="53.057110961526632" lon="-6.426446987316012">
        <ele>347.17000000000002</ele>
        <time>2026-07-09T12:09:20Z</time>
      </trkpt>
      <trkpt lat="53.057130994275212" lon="-6.426176000386477">
        <ele>348.62</ele>
        <time>2026-07-09T12:09:21Z</time>
      </trkpt>
      <trkpt lat="53.057140968739986" lon="-6.425894033163786">
        <ele>350.06</ele>
        <time>2026-07-09T12:09:22Z</time>
      </trkpt>
      <trkpt lat="53.057134011760354" lon="-6.425605025142431">
        <ele>351.5</ele>
        <time>2026-07-09T12:09:23Z</time>
      </trkpt>
      <trkpt lat="53.057125965133309" lon="-6.425307970494032">
        <ele>352.94</ele>
        <time>2026-07-09T12:09:24Z</time>
      </trkpt>
      <trkpt lat="53.057184973731637" lon="-6.422482011839747">
        <ele>364.95999999999998</ele>
        <time>2026-07-09T12:09:33Z</time>
      </trkpt>
      <trkpt lat="53.057379014790058" lon="-6.418614014983177">
        <ele>377.44999999999999</ele>
        <time>2026-07-09T12:09:45Z</time>
      </trkpt>
      <trkpt lat="53.057353030890226" lon="-6.417188001796603">
        <ele>387.06999999999999</ele>
        <time>2026-07-09T12:09:51Z</time>
      </trkpt>
      <trkpt lat="53.057316988706589" lon="-6.416993960738182">
        <ele>388.02999999999997</ele>
        <time>2026-07-09T12:09:52Z</time>
      </trkpt>
      <trkpt lat="53.05727600120008" lon="-6.416768990457058">
        <ele>389.47000000000003</ele>
        <time>2026-07-09T12:09:53Z</time>
      </trkpt>
      <trkpt lat="53.056866964325309" lon="-6.415123036131263">
        <ele>397.16000000000003</ele>
        <time>2026-07-09T12:09:59Z</time>
      </trkpt>
      <trkpt lat="53.056026007980108" lon="-6.412482988089323">
        <ele>407.74000000000001</ele>
        <time>2026-07-09T12:10:09Z</time>
      </trkpt>
      <trkpt lat="53.054881962016225" lon="-6.410131026059389">
        <ele>408.69999999999999</ele>
        <time>2026-07-09T12:10:18Z</time>
      </trkpt>
      <trkpt lat="53.053746968507767" lon="-6.408417010679841">
        <ele>417.35000000000002</ele>
        <time>2026-07-09T12:10:26Z</time>
      </trkpt>
      <trkpt lat="53.053414961323142" lon="-6.408130014315248">
        <ele>419.75</ele>
        <time>2026-07-09T12:10:28Z</time>
      </trkpt>
      <trkpt lat="53.053230978548527" lon="-6.408025994896889">
        <ele>421.19</ele>
        <time>2026-07-09T12:10:29Z</time>
      </trkpt>
      <trkpt lat="53.053040038794279" lon="-6.407944019883871">
        <ele>422.63999999999999</ele>
        <time>2026-07-09T12:10:30Z</time>
      </trkpt>
      <trkpt lat="53.052839962765574" lon="-6.407889034599066">
        <ele>423.60000000000002</ele>
        <time>2026-07-09T12:10:31Z</time>
      </trkpt>
      <trkpt lat="53.052629996091127" lon="-6.407857015728951">
        <ele>425.04000000000002</ele>
        <time>2026-07-09T12:10:32Z</time>
      </trkpt>
      <trkpt lat="53.0524190235883" lon="-6.407848969101906">
        <ele>426</ele>
        <time>2026-07-09T12:10:33Z</time>
      </trkpt>
      <trkpt lat="53.050869964063168" lon="-6.408069999888539">
        <ele>433.69</ele>
        <time>2026-07-09T12:10:41Z</time>
      </trkpt>
      <trkpt lat="53.050485989078879" lon="-6.408053990453482">
        <ele>435.61000000000001</ele>
        <time>2026-07-09T12:10:43Z</time>
      </trkpt>
      <trkpt lat="53.048927038908005" lon="-6.407700022682548">
        <ele>443.31</ele>
        <time>2026-07-09T12:10:51Z</time>
      </trkpt>
      <trkpt lat="53.048766022548079" lon="-6.40759801492095">
        <ele>444.26999999999998</ele>
        <time>2026-07-09T12:10:52Z</time>
      </trkpt>
      <trkpt lat="53.048612968996167" lon="-6.407455019652844">
        <ele>445.23000000000002</ele>
        <time>2026-07-09T12:10:53Z</time>
      </trkpt>
      <trkpt lat="53.047319976612926" lon="-6.406043004244566">
        <ele>455.31999999999999</ele>
        <time>2026-07-09T12:11:01Z</time>
      </trkpt>
      <trkpt lat="53.045919025316834" lon="-6.404335023835301">
        <ele>469.25999999999999</ele>
        <time>2026-07-09T12:11:11Z</time>
      </trkpt>
      <trkpt lat="53.045112015679479" lon="-6.403458025306463">
        <ele>475.99000000000001</ele>
        <time>2026-07-09T12:11:18Z</time>
      </trkpt>
      <trkpt lat="53.044009963050485" lon="-6.402150029316545">
        <ele>480.80000000000001</ele>
        <time>2026-07-09T12:11:26Z</time>
      </trkpt>
      <trkpt lat="53.043334968388081" lon="-6.400391003116965">
        <ele>484.63999999999999</ele>
        <time>2026-07-09T12:11:33Z</time>
      </trkpt>
      <trkpt lat="53.0431819986552" lon="-6.399909965693951">
        <ele>486.07999999999998</ele>
        <time>2026-07-09T12:11:35Z</time>
      </trkpt>
      <trkpt lat="53.043094994500279" lon="-6.399716008454561">
        <ele>486.56</ele>
        <time>2026-07-09T12:11:36Z</time>
      </trkpt>
      <trkpt lat="53.042994998395443" lon="-6.399539988487959">
        <ele>486.56</ele>
        <time>2026-07-09T12:11:37Z</time>
      </trkpt>
      <trkpt lat="53.042893996462226" lon="-6.399364974349737">
        <ele>487.05000000000001</ele>
        <time>2026-07-09T12:11:38Z</time>
      </trkpt>
      <trkpt lat="53.042771033942699" lon="-6.399212004616857">
        <ele>487.05000000000001</ele>
        <time>2026-07-09T12:11:39Z</time>
      </trkpt>
      <trkpt lat="53.041881965473294" lon="-6.397981038317084">
        <ele>488.97000000000003</ele>
        <time>2026-07-09T12:11:48Z</time>
      </trkpt>
      <trkpt lat="53.041837038472295" lon="-6.397880958393216">
        <ele>488.97000000000003</ele>
        <time>2026-07-09T12:11:49Z</time>
      </trkpt>
      <trkpt lat="53.04180602543056" lon="-6.397811975330114">
        <ele>488.97000000000003</ele>
        <time>2026-07-09T12:11:50Z</time>
      </trkpt>
      <trkpt lat="53.041710974648595" lon="-6.397896967828274">
        <ele>489.44999999999999</ele>
        <time>2026-07-09T12:11:51Z</time>
      </trkpt>
      <trkpt lat="53.041668981313705" lon="-6.397943990305066">
        <ele>489.44999999999999</ele>
        <time>2026-07-09T12:11:52Z</time>
      </trkpt>
      <trkpt lat="53.041625982150435" lon="-6.397991012781858">
        <ele>488.97000000000003</ele>
        <time>2026-07-09T12:11:53Z</time>
      </trkpt>
      <trkpt lat="53.041583988815546" lon="-6.398038035258651">
        <ele>488.97000000000003</ele>
        <time>2026-07-09T12:11:54Z</time>
      </trkpt>
      <trkpt lat="53.041543001309037" lon="-6.398083968088031">
        <ele>488.97000000000003</ele>
        <time>2026-07-09T12:11:55Z</time>
      </trkpt>
      <trkpt lat="53.041506037116051" lon="-6.398125039413571">
        <ele>488.97000000000003</ele>
        <time>2026-07-09T12:11:56Z</time>
      </trkpt>
      <trkpt lat="53.041468989104033" lon="-6.39816602692008">
        <ele>488.97000000000003</ele>
        <time>2026-07-09T12:11:57Z</time>
      </trkpt>
      <trkpt lat="53.0411840043962" lon="-6.398484036326408">
        <ele>488.97000000000003</ele>
        <time>2026-07-09T12:12:07Z</time>
      </trkpt>
      <trkpt lat="53.041171012446284" lon="-6.398498034104705">
        <ele>489.44999999999999</ele>
        <time>2026-07-09T12:12:08Z</time>
      </trkpt>
      <trkpt lat="53.041202025488019" lon="-6.398385968059301">
        <ele>489.44999999999999</ele>
        <time>2026-07-09T12:12:13Z</time>
      </trkpt>
      <trkpt lat="53.041288023814559" lon="-6.398369036614895">
        <ele>487.52999999999997</ele>
        <time>2026-07-09T12:12:23Z</time>
      </trkpt>
      <trkpt lat="53.041304033249617" lon="-6.398350009694696">
        <ele>487.05000000000001</ele>
        <time>2026-07-09T12:12:24Z</time>
      </trkpt>
      <trkpt lat="53.041071016341448" lon="-6.397832008078694">
        <ele>486.56</ele>
        <time>2026-07-09T12:12:29Z</time>
      </trkpt>
      <trkpt lat="53.040994992479682" lon="-6.397776016965509">
        <ele>486.56</ele>
        <time>2026-07-09T12:12:31Z</time>
      </trkpt>
      <trkpt lat="53.040928021073341" lon="-6.397747015580535">
        <ele>486.56</ele>
        <time>2026-07-09T12:12:42Z</time>
      </trkpt>
      <trkpt lat="53.0409250035882" lon="-6.397747015580535">
        <ele>486.56</ele>
        <time>2026-07-09T12:13:32Z</time>
      </trkpt>
      <trkpt lat="53.040929026901722" lon="-6.397743998095393">
        <ele>481.27999999999997</ele>
        <time>2026-07-09T12:24:42Z</time>
      </trkpt>
      <trkpt lat="53.040940007194877" lon="-6.39773603528738">
        <ele>482.24000000000001</ele>
        <time>2026-07-09T12:25:26Z</time>
      </trkpt>
      <trkpt lat="53.040974037721753" lon="-6.397774005308747">
        <ele>486.56</ele>
        <time>2026-07-09T12:25:49Z</time>
      </trkpt>
      <trkpt lat="53.040963979437947" lon="-6.397786997258663">
        <ele>485.12</ele>
        <time>2026-07-09T12:26:13Z</time>
      </trkpt>
      <trkpt lat="53.040974959731102" lon="-6.39795002527535">
        <ele>485.12</ele>
        <time>2026-07-09T12:26:17Z</time>
      </trkpt>
      <trkpt lat="53.041202025488019" lon="-6.398464003577828">
        <ele>485.12</ele>
        <time>2026-07-09T12:26:23Z</time>
      </trkpt>
      <trkpt lat="53.04127000272274" lon="-6.398388985544443">
        <ele>485.12</ele>
        <time>2026-07-09T12:26:27Z</time>
      </trkpt>
      <trkpt lat="53.04131300188601" lon="-6.398340035229921">
        <ele>485.12</ele>
        <time>2026-07-09T12:26:28Z</time>
      </trkpt>
      <trkpt lat="53.04135600104928" lon="-6.398293012753129">
        <ele>484.63999999999999</ele>
        <time>2026-07-09T12:26:29Z</time>
      </trkpt>
      <trkpt lat="53.041455997154117" lon="-6.398181030526757">
        <ele>483.19999999999999</ele>
        <time>2026-07-09T12:26:32Z</time>
      </trkpt>
      <trkpt lat="53.041727989912033" lon="-6.397878024727106">
        <ele>480.80000000000001</ele>
        <time>2026-07-09T12:26:40Z</time>
      </trkpt>
      <trkpt lat="53.041793033480644" lon="-6.397751960903406">
        <ele>480.80000000000001</ele>
        <time>2026-07-09T12:26:41Z</time>
      </trkpt>
      <trkpt lat="53.041780041530728" lon="-6.397659005597234">
        <ele>480.80000000000001</ele>
        <time>2026-07-09T12:26:42Z</time>
      </trkpt>
      <trkpt lat="53.041756991297007" lon="-6.397497989237309">
        <ele>480.80000000000001</ele>
        <time>2026-07-09T12:26:43Z</time>
      </trkpt>
      <trkpt lat="53.041756991297007" lon="-6.39741400256753">
        <ele>480.31999999999999</ele>
        <time>2026-07-09T12:26:44Z</time>
      </trkpt>
      <trkpt lat="53.041825974360108" lon="-6.396155962720513">
        <ele>479.35000000000002</ele>
        <time>2026-07-09T12:26:52Z</time>
      </trkpt>
      <trkpt lat="53.041823962703347" lon="-6.395772993564606">
        <ele>478.87</ele>
        <time>2026-07-09T12:26:54Z</time>
      </trkpt>
      <trkpt lat="53.041798984631896" lon="-6.395557997748256">
        <ele>478.38999999999999</ele>
        <time>2026-07-09T12:26:55Z</time>
      </trkpt>
      <trkpt lat="53.041771994903684" lon="-6.39533000998199">
        <ele>477.43000000000001</ele>
        <time>2026-07-09T12:26:56Z</time>
      </trkpt>
      <trkpt lat="53.041718015447259" lon="-6.394583014771342">
        <ele>474.55000000000001</ele>
        <time>2026-07-09T12:26:59Z</time>
      </trkpt>
      <trkpt lat="53.04172296077013" lon="-6.394319990649819">
        <ele>473.58999999999997</ele>
        <time>2026-07-09T12:27:00Z</time>
      </trkpt>
      <trkpt lat="53.041747016832232" lon="-6.391532002016902">
        <ele>463.49000000000001</ele>
        <time>2026-07-09T12:27:09Z</time>
      </trkpt>
      <trkpt lat="53.041991014033556" lon="-6.388749964535236">
        <ele>453.39999999999998</ele>
        <time>2026-07-09T12:27:17Z</time>
      </trkpt>
      <trkpt lat="53.042339030653238" lon="-6.385681014508009">
        <ele>444.26999999999998</ele>
        <time>2026-07-09T12:27:26Z</time>
      </trkpt>
      <trkpt lat="53.042551008984447" lon="-6.383301978930831">
        <ele>439.45999999999998</ele>
        <time>2026-07-09T12:27:34Z</time>
      </trkpt>
      <trkpt lat="53.042637007310987" lon="-6.381040038540959">
        <ele>433.69</ele>
        <time>2026-07-09T12:27:42Z</time>
      </trkpt>
      <trkpt lat="53.04258001036942" lon="-6.380757987499237">
        <ele>432.73000000000002</ele>
        <time>2026-07-09T12:27:43Z</time>
      </trkpt>
      <trkpt lat="53.042526030912995" lon="-6.380489012226462">
        <ele>431.76999999999998</ele>
        <time>2026-07-09T12:27:44Z</time>
      </trkpt>
      <trkpt lat="53.042468028143048" lon="-6.38022598810494">
        <ele>430.81</ele>
        <time>2026-07-09T12:27:45Z</time>
      </trkpt>
      <trkpt lat="53.04150402545929" lon="-6.37694195844233">
        <ele>418.31</ele>
        <time>2026-07-09T12:27:57Z</time>
      </trkpt>
      <trkpt lat="53.040687963366508" lon="-6.374904988333583">
        <ele>412.06</ele>
        <time>2026-07-09T12:28:05Z</time>
      </trkpt>
      <trkpt lat="53.039020970463753" lon="-6.371884988620877">
        <ele>397.16000000000003</ele>
        <time>2026-07-09T12:28:17Z</time>
      </trkpt>
      <trkpt lat="53.037735018879175" lon="-6.370052034035325">
        <ele>385.14999999999998</ele>
        <time>2026-07-09T12:28:25Z</time>
      </trkpt>
      <trkpt lat="53.037551958113909" lon="-6.369937034323812">
        <ele>383.69999999999999</ele>
        <time>2026-07-09T12:28:26Z</time>
      </trkpt>
      <trkpt lat="53.037362024188042" lon="-6.369843995198607">
        <ele>381.77999999999997</ele>
        <time>2026-07-09T12:28:27Z</time>
      </trkpt>
      <trkpt lat="53.035670975223184" lon="-6.369155002757907">
        <ele>368.31999999999999</ele>
        <time>2026-07-09T12:28:35Z</time>
      </trkpt>
      <trkpt lat="53.033438036218286" lon="-6.368229975923896">
        <ele>348.62</ele>
        <time>2026-07-09T12:28:46Z</time>
      </trkpt>
      <trkpt lat="53.031976986676455" lon="-6.368043981492519">
        <ele>337.56</ele>
        <time>2026-07-09T12:28:53Z</time>
      </trkpt>
      <trkpt lat="53.030446032062173" lon="-6.367616001516581">
        <ele>329.38999999999999</ele>
        <time>2026-07-09T12:29:01Z</time>
      </trkpt>
      <trkpt lat="53.029892994090915" lon="-6.367361024022102">
        <ele>325.06</ele>
        <time>2026-07-09T12:29:04Z</time>
      </trkpt>
      <trkpt lat="53.029728038236499" lon="-6.367208976298571">
        <ele>324.10000000000002</ele>
        <time>2026-07-09T12:29:05Z</time>
      </trkpt>
      <trkpt lat="53.029557969421148" lon="-6.367053994908929">
        <ele>323.62</ele>
        <time>2026-07-09T12:29:06Z</time>
      </trkpt>
      <trkpt lat="53.028062973171473" lon="-6.365227997303009">
        <ele>318.32999999999998</ele>
        <time>2026-07-09T12:29:15Z</time>
      </trkpt>
      <trkpt lat="53.027889970690012" lon="-6.365109980106354">
        <ele>317.37</ele>
        <time>2026-07-09T12:29:16Z</time>
      </trkpt>
      <trkpt lat="53.027715962380171" lon="-6.365019036456943">
        <ele>316.88999999999999</ele>
        <time>2026-07-09T12:29:17Z</time>
      </trkpt>
      <trkpt lat="53.027541032060981" lon="-6.364953992888331">
        <ele>316.41000000000003</ele>
        <time>2026-07-09T12:29:18Z</time>
      </trkpt>
      <trkpt lat="53.026081994175911" lon="-6.364301964640617">
        <ele>309.68000000000001</ele>
        <time>2026-07-09T12:29:27Z</time>
      </trkpt>
      <trkpt lat="53.024545004591346" lon="-6.363066975027323">
        <ele>296.22000000000003</ele>
        <time>2026-07-09T12:29:37Z</time>
      </trkpt>
      <trkpt lat="53.023768002167344" lon="-6.362217972055078">
        <ele>286.61000000000001</ele>
        <time>2026-07-09T12:29:42Z</time>
      </trkpt>
      <trkpt lat="53.023644033819437" lon="-6.361985960975289">
        <ele>284.20999999999998</ele>
        <time>2026-07-09T12:29:43Z</time>
      </trkpt>
      <trkpt lat="53.023521993309259" lon="-6.361744981259108">
        <ele>282.27999999999997</ele>
        <time>2026-07-09T12:29:44Z</time>
      </trkpt>
      <trkpt lat="53.023420991376042" lon="-6.361471982672811">
        <ele>279.88</ele>
        <time>2026-07-09T12:29:45Z</time>
      </trkpt>
      <trkpt lat="53.023340022191405" lon="-6.36119001545012">
        <ele>277.95999999999998</ele>
        <time>2026-07-09T12:29:46Z</time>
      </trkpt>
      <trkpt lat="53.023270033299923" lon="-6.360906958580017">
        <ele>275.56</ele>
        <time>2026-07-09T12:29:47Z</time>
      </trkpt>
      <trkpt lat="53.023212030529976" lon="-6.360630020499229">
        <ele>273.63</ele>
        <time>2026-07-09T12:29:48Z</time>
      </trkpt>
      <trkpt lat="53.023185040801764" lon="-6.360315028578043">
        <ele>271.70999999999998</ele>
        <time>2026-07-09T12:29:49Z</time>
      </trkpt>
      <trkpt lat="53.023154027760029" lon="-6.359956031665206">
        <ele>269.31</ele>
        <time>2026-07-09T12:29:50Z</time>
      </trkpt>
      <trkpt lat="53.022840041667223" lon="-6.35792501270771">
        <ele>257.29000000000002</ele>
        <time>2026-07-09T12:29:55Z</time>
      </trkpt>
      <trkpt lat="53.022581962868571" lon="-6.355688972398639">
        <ele>244.31</ele>
        <time>2026-07-09T12:30:01Z</time>
      </trkpt>
      <trkpt lat="53.022422036156058" lon="-6.354567976668477">
        <ele>238.06</ele>
        <time>2026-07-09T12:30:04Z</time>
      </trkpt>
      <trkpt lat="53.022176027297974" lon="-6.353557035326958">
        <ele>232.30000000000001</ele>
        <time>2026-07-09T12:30:07Z</time>
      </trkpt>
      <trkpt lat="53.021554006263614" lon="-6.351386038586497">
        <ele>219.31999999999999</ele>
        <time>2026-07-09T12:30:14Z</time>
      </trkpt>
      <trkpt lat="53.020709026604891" lon="-6.349023012444377">
        <ele>207.30000000000001</ele>
        <time>2026-07-09T12:30:22Z</time>
      </trkpt>
      <trkpt lat="53.019516030326486" lon="-6.345974011346698">
        <ele>199.13</ele>
        <time>2026-07-09T12:30:32Z</time>
      </trkpt>
      <trkpt lat="53.018738022074103" lon="-6.343544013798237">
        <ele>192.88</ele>
        <time>2026-07-09T12:30:40Z</time>
      </trkpt>
      <trkpt lat="53.017831016331911" lon="-6.340442039072514">
        <ele>186.63</ele>
        <time>2026-07-09T12:30:50Z</time>
      </trkpt>
      <trkpt lat="53.017019983381033" lon="-6.338107008486986">
        <ele>179.90000000000001</ele>
        <time>2026-07-09T12:30:58Z</time>
      </trkpt>
      <trkpt lat="53.016192018985748" lon="-6.33566502481699">
        <ele>173.66</ele>
        <time>2026-07-09T12:31:06Z</time>
      </trkpt>
      <trkpt lat="53.015428008511662" lon="-6.333658983930945">
        <ele>166.93000000000001</ele>
        <time>2026-07-09T12:31:14Z</time>
      </trkpt>
      <trkpt lat="53.015331029891968" lon="-6.333426972851157">
        <ele>166.93000000000001</ele>
        <time>2026-07-09T12:31:15Z</time>
      </trkpt>
      <trkpt lat="53.015262968838215" lon="-6.333178030326963">
        <ele>166.93000000000001</ele>
        <time>2026-07-09T12:31:16Z</time>
      </trkpt>
      <trkpt lat="53.015074040740728" lon="-6.332502029836178">
        <ele>165.96000000000001</ele>
        <time>2026-07-09T12:31:19Z</time>
      </trkpt>
      <trkpt lat="53.014987036585808" lon="-6.332322992384434">
        <ele>165.96000000000001</ele>
        <time>2026-07-09T12:31:20Z</time>
      </trkpt>
      <trkpt lat="53.014752008020878" lon="-6.33184002712369">
        <ele>165.96000000000001</ele>
        <time>2026-07-09T12:31:23Z</time>
      </trkpt>
      <trkpt lat="53.014685958623886" lon="-6.331695020198822">
        <ele>165.96000000000001</ele>
        <time>2026-07-09T12:31:24Z</time>
      </trkpt>
      <trkpt lat="53.01411297172308" lon="-6.330094998702407">
        <ele>161.16</ele>
        <time>2026-07-09T12:31:34Z</time>
      </trkpt>
      <trkpt lat="53.014057986438274" lon="-6.329936999827623">
        <ele>160.19999999999999</ele>
        <time>2026-07-09T12:31:35Z</time>
      </trkpt>
      <trkpt lat="53.013997972011566" lon="-6.329766009002924">
        <ele>158.75</ele>
        <time>2026-07-09T12:31:36Z</time>
      </trkpt>
      <trkpt lat="53.013655990362167" lon="-6.328742997720838">
        <ele>152.99000000000001</ele>
        <time>2026-07-09T12:31:42Z</time>
      </trkpt>
      <trkpt lat="53.013333035632968" lon="-6.328099016100168">
        <ele>150.58000000000001</ele>
        <time>2026-07-09T12:31:46Z</time>
      </trkpt>
      <trkpt lat="53.013265980407596" lon="-6.327924001961947">
        <ele>150.09999999999999</ele>
        <time>2026-07-09T12:31:47Z</time>
      </trkpt>
      <trkpt lat="53.012721994891763" lon="-6.326359016820788">
        <ele>142.88999999999999</ele>
        <time>2026-07-09T12:31:55Z</time>
      </trkpt>
      <trkpt lat="53.012374984100461" lon="-6.325432984158397">
        <ele>140.97</ele>
        <time>2026-07-09T12:32:00Z</time>
      </trkpt>
      <trkpt lat="53.012309018522501" lon="-6.325257970020175">
        <ele>140.49000000000001</ele>
        <time>2026-07-09T12:32:01Z</time>
      </trkpt>
      <trkpt lat="53.011566968634725" lon="-6.32329199463129">
        <ele>131.36000000000001</ele>
        <time>2026-07-09T12:32:12Z</time>
      </trkpt>
      <trkpt lat="53.011332023888826" lon="-6.322618005797267">
        <ele>129.91999999999999</ele>
        <time>2026-07-09T12:32:16Z</time>
      </trkpt>
      <trkpt lat="53.011288018897176" lon="-6.322437040507793">
        <ele>129.43000000000001</ele>
        <time>2026-07-09T12:32:17Z</time>
      </trkpt>
      <trkpt lat="53.011245019733906" lon="-6.322260014712811">
        <ele>128.94999999999999</ele>
        <time>2026-07-09T12:32:18Z</time>
      </trkpt>
      <trkpt lat="53.011143011972308" lon="-6.321841003373265">
        <ele>128.47</ele>
        <time>2026-07-09T12:32:21Z</time>
      </trkpt>
      <trkpt lat="53.011136977002025" lon="-6.321817031130195">
        <ele>127.98999999999999</ele>
        <time>2026-07-09T12:32:22Z</time>
      </trkpt>
      <trkpt lat="53.011107975617051" lon="-6.321759028360248">
        <ele>127.98999999999999</ele>
        <time>2026-07-09T12:32:23Z</time>
      </trkpt>
      <trkpt lat="53.011095989495516" lon="-6.321735978126526">
        <ele>128.47</ele>
        <time>2026-07-09T12:32:24Z</time>
      </trkpt>
      <trkpt lat="53.011086015030742" lon="-6.321716029196978">
        <ele>128.47</ele>
        <time>2026-07-09T12:32:25Z</time>
      </trkpt>
      <trkpt lat="53.011010996997356" lon="-6.321620978415012">
        <ele>130.88</ele>
        <time>2026-07-09T12:32:31Z</time>
      </trkpt>
      <trkpt lat="53.010998005047441" lon="-6.321613015606999">
        <ele>131.84</ele>
        <time>2026-07-09T12:32:32Z</time>
      </trkpt>
      <trkpt lat="53.010961962863803" lon="-6.321688033640385">
        <ele>131.84</ele>
        <time>2026-07-09T12:32:33Z</time>
      </trkpt>
      <trkpt lat="53.010975960642099" lon="-6.32176598533988">
        <ele>131.84</ele>
        <time>2026-07-09T12:32:34Z</time>
      </trkpt>
      <trkpt lat="53.010994987562299" lon="-6.321876961737871">
        <ele>131.84</ele>
        <time>2026-07-09T12:32:35Z</time>
      </trkpt>
      <trkpt lat="53.01101703196764" lon="-6.322007970884442">
        <ele>131.36000000000001</ele>
        <time>2026-07-09T12:32:36Z</time>
      </trkpt>
      <trkpt lat="53.011041004210711" lon="-6.322147026658058">
        <ele>131.36000000000001</ele>
        <time>2026-07-09T12:32:37Z</time>
      </trkpt>
      <trkpt lat="53.011226998642087" lon="-6.32322502322495">
        <ele>127.98999999999999</ele>
        <time>2026-07-09T12:32:44Z</time>
      </trkpt>
      <trkpt lat="53.011238984763622" lon="-6.32329098880291">
        <ele>127.51000000000001</ele>
        <time>2026-07-09T12:32:45Z</time>
      </trkpt>
      <trkpt lat="53.011245019733906" lon="-6.323328958824277">
        <ele>126.55</ele>
        <time>2026-07-09T12:32:46Z</time>
      </trkpt>
      <trkpt lat="53.011253988370299" lon="-6.323383022099733">
        <ele>125.11</ele>
        <time>2026-07-09T12:32:55Z</time>
      </trkpt>
      <trkpt lat="53.011191040277481" lon="-6.323550995439291">
        <ele>124.63</ele>
        <time>2026-07-09T12:33:05Z</time>
      </trkpt>
      <trkpt lat="53.011050978675485" lon="-6.323747970163822">
        <ele>124.63</ele>
        <time>2026-07-09T12:33:09Z</time>
      </trkpt>
      <trkpt lat="53.011002028360963" lon="-6.32378401234746">
        <ele>124.63</ele>
        <time>2026-07-09T12:33:10Z</time>
      </trkpt>
      <trkpt lat="53.010878982022405" lon="-6.323875961825252">
        <ele>125.11</ele>
        <time>2026-07-09T12:33:11Z</time>
      </trkpt>
      <trkpt lat="53.010828020051122" lon="-6.323861964046955">
        <ele>124.63</ele>
        <time>2026-07-09T12:33:13Z</time>
      </trkpt>
      <trkpt lat="53.010729029774666" lon="-6.323832962661982">
        <ele>125.11</ele>
        <time>2026-07-09T12:33:14Z</time>
      </trkpt>
      <trkpt lat="53.010699022561312" lon="-6.323774037882686">
        <ele>125.11</ele>
        <time>2026-07-09T12:33:15Z</time>
      </trkpt>
      <trkpt lat="53.010668009519577" lon="-6.323712011799216">
        <ele>125.11</ele>
        <time>2026-07-09T12:33:16Z</time>
      </trkpt>
      <trkpt lat="53.010640013962984" lon="-6.32365501485765">
        <ele>125.59</ele>
        <time>2026-07-09T12:33:17Z</time>
      </trkpt>
      <trkpt lat="53.010621992871165" lon="-6.323340022936463">
        <ele>125.11</ele>
        <time>2026-07-09T12:33:20Z</time>
      </trkpt>
      <trkpt lat="53.010599026456475" lon="-6.323305992409587">
        <ele>125.11</ele>
        <time>2026-07-09T12:33:21Z</time>
      </trkpt>
      <trkpt lat="53.010568013414741" lon="-6.323259975761175">
        <ele>124.63</ele>
        <time>2026-07-09T12:33:22Z</time>
      </trkpt>
      <trkpt lat="53.010535994544625" lon="-6.323211025446653">
        <ele>124.15000000000001</ele>
        <time>2026-07-09T12:33:23Z</time>
      </trkpt>
      <trkpt lat="53.010502969846129" lon="-6.323179006576538">
        <ele>124.15000000000001</ele>
        <time>2026-07-09T12:33:24Z</time>
      </trkpt>
      <trkpt lat="53.010467011481524" lon="-6.323142964392901">
        <ele>124.15000000000001</ele>
        <time>2026-07-09T12:33:25Z</time>
      </trkpt>
      <trkpt lat="53.010426023975015" lon="-6.323125027120113">
        <ele>123.67</ele>
        <time>2026-07-09T12:33:26Z</time>
      </trkpt>
      <trkpt lat="53.010386964306235" lon="-6.323125027120113">
        <ele>124.15000000000001</ele>
        <time>2026-07-09T12:33:27Z</time>
      </trkpt>
      <trkpt lat="53.010345976799726" lon="-6.323125027120113">
        <ele>124.15000000000001</ele>
        <time>2026-07-09T12:33:28Z</time>
      </trkpt>
      <trkpt lat="53.010308006778359" lon="-6.323125027120113">
        <ele>124.63</ele>
        <time>2026-07-09T12:33:29Z</time>
      </trkpt>
      <trkpt lat="53.010262995958328" lon="-6.323175989091396">
        <ele>125.11</ele>
        <time>2026-07-09T12:33:30Z</time>
      </trkpt>
      <trkpt lat="53.010277999565005" lon="-6.323125027120113">
        <ele>125.59</ele>
        <time>2026-07-09T12:33:31Z</time>
      </trkpt>
      <trkpt lat="53.010277999565005" lon="-6.323125027120113">
        <ele>126.06999999999999</ele>
        <time>2026-07-09T12:33:42Z</time>
      </trkpt>
      <trkpt lat="53.010277999565005" lon="-6.323125027120113">
        <ele>126.06999999999999</ele>
        <time>2026-07-09T12:33:44Z</time>
      </trkpt>
      <trkpt lat="53.010205999016762" lon="-6.322901984676719">
        <ele>127.51000000000001</ele>
        <time>2026-07-09T12:33:52Z</time>
      </trkpt>
      <trkpt lat="53.010216979309916" lon="-6.322841970250011">
        <ele>127.98999999999999</ele>
        <time>2026-07-09T12:34:10Z</time>
      </trkpt>
      <trkpt lat="53.010046994313598" lon="-6.322708027437329">
        <ele>150.09999999999999</ele>
        <time>2026-07-09T13:03:35Z</time>
      </trkpt>
      <trkpt lat="53.010169034823775" lon="-6.322891004383564">
        <ele>119.34</ele>
        <time>2026-07-09T13:03:48Z</time>
      </trkpt>
      <trkpt lat="53.010201975703239" lon="-6.322787990793586">
        <ele>140.97</ele>
        <time>2026-07-09T13:04:25Z</time>
      </trkpt>
      <trkpt lat="53.010181020945311" lon="-6.322796959429979">
        <ele>142.41</ele>
        <time>2026-07-09T13:05:09Z</time>
      </trkpt>
      <trkpt lat="53.010158976539969" lon="-6.322825038805604">
        <ele>140.49000000000001</ele>
        <time>2026-07-09T13:05:55Z</time>
      </trkpt>
      <trkpt lat="53.010161994025111" lon="-6.322813974693418">
        <ele>140.49000000000001</ele>
        <time>2026-07-09T13:06:33Z</time>
      </trkpt>
      <trkpt lat="53.010164005681872" lon="-6.322807017713785">
        <ele>140.49000000000001</ele>
        <time>2026-07-09T13:07:11Z</time>
      </trkpt>
      <trkpt lat="53.010161994025111" lon="-6.322796959429979">
        <ele>140.97</ele>
        <time>2026-07-09T13:07:43Z</time>
      </trkpt>
      <trkpt lat="53.010161994025111" lon="-6.322796959429979">
        <ele>140.97</ele>
        <time>2026-07-09T13:07:49Z</time>
      </trkpt>
      <trkpt lat="53.010144978761673" lon="-6.322763012722135">
        <ele>140.00999999999999</ele>
        <time>2026-07-09T13:07:51Z</time>
      </trkpt>
      <trkpt lat="53.010172974318266" lon="-6.322955964133143">
        <ele>138.56999999999999</ele>
        <time>2026-07-09T13:07:57Z</time>
      </trkpt>
      <trkpt lat="53.010346982628107" lon="-6.323614027351141">
        <ele>137.13</ele>
        <time>2026-07-09T13:08:09Z</time>
      </trkpt>
      <trkpt lat="53.010514033958316" lon="-6.323704971000552">
        <ele>136.63999999999999</ele>
        <time>2026-07-09T13:08:14Z</time>
      </trkpt>
      <trkpt lat="53.010557033121586" lon="-6.323642022907734">
        <ele>136.63999999999999</ele>
        <time>2026-07-09T13:08:15Z</time>
      </trkpt>
      <trkpt lat="53.01058997400105" lon="-6.3235919829458">
        <ele>136.63999999999999</ele>
        <time>2026-07-09T13:08:16Z</time>
      </trkpt>
      <trkpt lat="53.010600032284856" lon="-6.323575973510742">
        <ele>136.63999999999999</ele>
        <time>2026-07-09T13:08:18Z</time>
      </trkpt>
      <trkpt lat="53.010607995092869" lon="-6.323486035689712">
        <ele>136.63999999999999</ele>
        <time>2026-07-09T13:08:19Z</time>
      </trkpt>
      <trkpt lat="53.010613024234772" lon="-6.323435995727778">
        <ele>137.13</ele>
        <time>2026-07-09T13:08:20Z</time>
      </trkpt>
      <trkpt lat="53.010616041719913" lon="-6.323399031534791">
        <ele>137.13</ele>
        <time>2026-07-09T13:08:21Z</time>
      </trkpt>
      <trkpt lat="53.010618975386024" lon="-6.323369024321437">
        <ele>137.13</ele>
        <time>2026-07-09T13:08:22Z</time>
      </trkpt>
      <trkpt lat="53.010621992871165" lon="-6.323340022936463">
        <ele>137.13</ele>
        <time>2026-07-09T13:08:23Z</time>
      </trkpt>
      <trkpt lat="53.010957017540932" lon="-6.322982031852007">
        <ele>135.68000000000001</ele>
        <time>2026-07-09T13:08:30Z</time>
      </trkpt>
      <trkpt lat="53.011176036670804" lon="-6.322926040738821">
        <ele>135.19999999999999</ele>
        <time>2026-07-09T13:08:34Z</time>
      </trkpt>
      <trkpt lat="53.011182993650436" lon="-6.32296996191144">
        <ele>134.72</ele>
        <time>2026-07-09T13:08:35Z</time>
      </trkpt>
      <trkpt lat="53.010621992871165" lon="-6.323340022936463">
        <ele>134.72</ele>
        <time>2026-07-09T13:08:43Z</time>
      </trkpt>
      <trkpt lat="53.010621992871165" lon="-6.323340022936463">
        <ele>134.24000000000001</ele>
        <time>2026-07-09T13:08:44Z</time>
      </trkpt>
      <trkpt lat="53.010621992871165" lon="-6.323340022936463">
        <ele>134.24000000000001</ele>
        <time>2026-07-09T13:08:45Z</time>
      </trkpt>
      <trkpt lat="53.010603971779346" lon="-6.323314039036632">
        <ele>134.24000000000001</ele>
        <time>2026-07-09T13:08:46Z</time>
      </trkpt>
      <trkpt lat="53.010574970394373" lon="-6.323271039873362">
        <ele>134.24000000000001</ele>
        <time>2026-07-09T13:08:47Z</time>
      </trkpt>
      <trkpt lat="53.010566001757979" lon="-6.322600990533829">
        <ele>134.24000000000001</ele>
        <time>2026-07-09T13:08:51Z</time>
      </trkpt>
      <trkpt lat="53.010560972616076" lon="-6.322311982512474">
        <ele>133.75999999999999</ele>
        <time>2026-07-09T13:08:55Z</time>
      </trkpt>
      <trkpt lat="53.010510010644794" lon="-6.32191501557827">
        <ele>133.28</ele>
        <time>2026-07-09T13:08:59Z</time>
      </trkpt>
      <trkpt lat="53.010439015924931" lon="-6.321613015606999">
        <ele>132.80000000000001</ele>
        <time>2026-07-09T13:09:03Z</time>
      </trkpt>
      <trkpt lat="53.010389981791377" lon="-6.321505978703499">
        <ele>133.28</ele>
        <time>2026-07-09T13:09:05Z</time>
      </trkpt>
      <trkpt lat="53.010172974318266" lon="-6.321596000343561">
        <ele>134.24000000000001</ele>
        <time>2026-07-09T13:09:12Z</time>
      </trkpt>
      <trkpt lat="53.010103991255164" lon="-6.321617960929871">
        <ele>134.72</ele>
        <time>2026-07-09T13:09:14Z</time>
      </trkpt>
      <trkpt lat="53.01003098487854" lon="-6.321879979223013">
        <ele>136.16</ele>
        <time>2026-07-09T13:09:19Z</time>
      </trkpt>
      <trkpt lat="53.010042971000075" lon="-6.322071002796292">
        <ele>136.63999999999999</ele>
        <time>2026-07-09T13:09:22Z</time>
      </trkpt>
      <trkpt lat="53.010048000141978" lon="-6.322309970855713">
        <ele>135.68000000000001</ele>
        <time>2026-07-09T13:09:26Z</time>
      </trkpt>
      <trkpt lat="53.010141961276531" lon="-6.322684977203608">
        <ele>134.72</ele>
        <time>2026-07-09T13:09:31Z</time>
      </trkpt>
      <trkpt lat="53.010182026773691" lon="-6.322841970250011">
        <ele>134.72</ele>
        <time>2026-07-09T13:09:33Z</time>
      </trkpt>
      <trkpt lat="53.010244974866509" lon="-6.323454016819596">
        <ele>134.24000000000001</ele>
        <time>2026-07-09T13:09:42Z</time>
      </trkpt>
      <trkpt lat="53.010510010644794" lon="-6.323702037334442">
        <ele>133.75999999999999</ele>
        <time>2026-07-09T13:09:51Z</time>
      </trkpt>
      <trkpt lat="53.010514033958316" lon="-6.323704971000552">
        <ele>133.75999999999999</ele>
        <time>2026-07-09T13:09:53Z</time>
      </trkpt>
      <trkpt lat="53.010556027293205" lon="-6.323750987648964">
        <ele>133.75999999999999</ele>
        <time>2026-07-09T13:09:54Z</time>
      </trkpt>
      <trkpt lat="53.010618975386024" lon="-6.323820976540446">
        <ele>133.75999999999999</ele>
        <time>2026-07-09T13:09:56Z</time>
      </trkpt>
      <trkpt lat="53.010707991197705" lon="-6.323918960988522">
        <ele>133.75999999999999</ele>
        <time>2026-07-09T13:09:57Z</time>
      </trkpt>
      <trkpt lat="53.010794995352626" lon="-6.323947962373495">
        <ele>133.75999999999999</ele>
        <time>2026-07-09T13:09:58Z</time>
      </trkpt>
      <trkpt lat="53.010860960930586" lon="-6.323970006778836">
        <ele>133.75999999999999</ele>
        <time>2026-07-09T13:10:00Z</time>
      </trkpt>
      <trkpt lat="53.010975960642099" lon="-6.323917033150792">
        <ele>133.75999999999999</ele>
        <time>2026-07-09T13:10:01Z</time>
      </trkpt>
      <trkpt lat="53.011085009202361" lon="-6.323819970712066">
        <ele>133.75999999999999</ele>
        <time>2026-07-09T13:10:03Z</time>
      </trkpt>
      <trkpt lat="53.011132031679153" lon="-6.323777977377176">
        <ele>134.24000000000001</ele>
        <time>2026-07-09T13:10:04Z</time>
      </trkpt>
      <trkpt lat="53.011172013357282" lon="-6.323743024840951">
        <ele>134.24000000000001</ele>
        <time>2026-07-09T13:10:05Z</time>
      </trkpt>
      <trkpt lat="53.011206965893507" lon="-6.323712011799216">
        <ele>134.24000000000001</ele>
        <time>2026-07-09T13:10:07Z</time>
      </trkpt>
      <trkpt lat="53.01127603277564" lon="-6.323545966297388">
        <ele>134.72</ele>
        <time>2026-07-09T13:10:15Z</time>
      </trkpt>
      <trkpt lat="53.011268991976976" lon="-6.323476983234286">
        <ele>135.19999999999999</ele>
        <time>2026-07-09T13:10:16Z</time>
      </trkpt>
      <trkpt lat="53.01125499419868" lon="-6.323384027928114">
        <ele>135.19999999999999</ele>
        <time>2026-07-09T13:10:17Z</time>
      </trkpt>
      <trkpt lat="53.011216018348932" lon="-6.323157967999578">
        <ele>135.68000000000001</ele>
        <time>2026-07-09T13:10:19Z</time>
      </trkpt>
      <trkpt lat="53.010920975357294" lon="-6.321439007297158">
        <ele>141.93000000000001</ele>
        <time>2026-07-09T13:10:31Z</time>
      </trkpt>
      <trkpt lat="53.010679995641112" lon="-6.319909980520606">
        <ele>143.84999999999999</ele>
        <time>2026-07-09T13:10:38Z</time>
      </trkpt>
      <trkpt lat="53.010151013731956" lon="-6.317079998552799">
        <ele>145.78</ele>
        <time>2026-07-09T13:10:49Z</time>
      </trkpt>
      <trkpt lat="53.009631000459194" lon="-6.314760977402329">
        <ele>144.81999999999999</ele>
        <time>2026-07-09T13:10:58Z</time>
      </trkpt>
      <trkpt lat="53.009560005739331" lon="-6.314283041283488">
        <ele>145.78</ele>
        <time>2026-07-09T13:11:00Z</time>
      </trkpt>
      <trkpt lat="53.009495967999101" lon="-6.31334200501442">
        <ele>147.69999999999999</ele>
        <time>2026-07-09T13:11:04Z</time>
      </trkpt>
      <trkpt lat="53.009483981877565" lon="-6.313108988106251">
        <ele>148.18000000000001</ele>
        <time>2026-07-09T13:11:05Z</time>
      </trkpt>
      <trkpt lat="53.009430002421141" lon="-6.312208017334342">
        <ele>150.58000000000001</ele>
        <time>2026-07-09T13:11:09Z</time>
      </trkpt>
      <trkpt lat="53.009346015751362" lon="-6.31175204180181">
        <ele>150.58000000000001</ele>
        <time>2026-07-09T13:11:10Z</time>
      </trkpt>
      <trkpt lat="53.009302010759711" lon="-6.311513995751739">
        <ele>152.03</ele>
        <time>2026-07-09T13:11:12Z</time>
      </trkpt>
      <trkpt lat="53.009260017424822" lon="-6.311289025470614">
        <ele>152.99000000000001</ele>
        <time>2026-07-09T13:11:13Z</time>
      </trkpt>
      <trkpt lat="53.009219029918313" lon="-6.311071012169123">
        <ele>153.47</ele>
        <time>2026-07-09T13:11:14Z</time>
      </trkpt>
      <trkpt lat="53.009178964421153" lon="-6.310855010524392">
        <ele>153.94999999999999</ele>
        <time>2026-07-09T13:11:15Z</time>
      </trkpt>
      <trkpt lat="53.00914702937007" lon="-6.310630040243268">
        <ele>154.43000000000001</ele>
        <time>2026-07-09T13:11:16Z</time>
      </trkpt>
      <trkpt lat="53.009067988023162" lon="-6.30990500561893">
        <ele>154.91</ele>
        <time>2026-07-09T13:11:20Z</time>
      </trkpt>
      <trkpt lat="53.009052984416485" lon="-6.309734014794231">
        <ele>154.91</ele>
        <time>2026-07-09T13:11:21Z</time>
      </trkpt>
      <trkpt lat="53.009039992466569" lon="-6.309568975120783">
        <ele>155.87</ele>
        <time>2026-07-09T13:11:22Z</time>
      </trkpt>
      <trkpt lat="53.008992969989777" lon="-6.307723028585315">
        <ele>156.83000000000001</ele>
        <time>2026-07-09T13:11:32Z</time>
      </trkpt>
      <trkpt lat="53.008990958333015" lon="-6.306764977052808">
        <ele>155.87</ele>
        <time>2026-07-09T13:11:36Z</time>
      </trkpt>
      <trkpt lat="53.009001016616821" lon="-6.304988013580442">
        <ele>153.47</ele>
        <time>2026-07-09T13:11:44Z</time>
      </trkpt>
      <trkpt lat="53.009007973596454" lon="-6.30462197586894">
        <ele>151.53999999999999</ele>
        <time>2026-07-09T13:11:50Z</time>
      </trkpt>
      <trkpt lat="53.009007973596454" lon="-6.30457897670567">
        <ele>151.53999999999999</ele>
        <time>2026-07-09T13:12:10Z</time>
      </trkpt>
      <trkpt lat="53.009008979424834" lon="-6.304557016119361">
        <ele>151.53999999999999</ele>
        <time>2026-07-09T13:12:16Z</time>
      </trkpt>
      <trkpt lat="53.009009985253215" lon="-6.304486021399498">
        <ele>151.53999999999999</ele>
        <time>2026-07-09T13:12:17Z</time>
      </trkpt>
      <trkpt lat="53.009011996909976" lon="-6.304112020879984">
        <ele>152.03</ele>
        <time>2026-07-09T13:12:20Z</time>
      </trkpt>
      <trkpt lat="53.009011996909976" lon="-6.303942035883665">
        <ele>152.03</ele>
        <time>2026-07-09T13:12:21Z</time>
      </trkpt>
      <trkpt lat="53.009023983031511" lon="-6.303289001807571">
        <ele>152.50999999999999</ele>
        <time>2026-07-09T13:12:25Z</time>
      </trkpt>
      <trkpt lat="53.00901903770864" lon="-6.302070021629334">
        <ele>151.53999999999999</ele>
        <time>2026-07-09T13:12:32Z</time>
      </trkpt>
      <trkpt lat="53.008863972499967" lon="-6.299732979387045">
        <ele>146.74000000000001</ele>
        <time>2026-07-09T13:12:44Z</time>
      </trkpt>
      <trkpt lat="53.008596003055573" lon="-6.298263967037201">
        <ele>147.22</ele>
        <time>2026-07-09T13:12:53Z</time>
      </trkpt>
      <trkpt lat="53.008474968373775" lon="-6.297764992341399">
        <ele>146.25999999999999</ele>
        <time>2026-07-09T13:13:00Z</time>
      </trkpt>
      <trkpt lat="53.008473962545395" lon="-6.297759041190147">
        <ele>146.25999999999999</ele>
        <time>2026-07-09T13:13:05Z</time>
      </trkpt>
      <trkpt lat="53.008441021665931" lon="-6.29761504009366">
        <ele>145.78</ele>
        <time>2026-07-09T13:13:15Z</time>
      </trkpt>
      <trkpt lat="53.008432975038886" lon="-6.297576986253262">
        <ele>145.30000000000001</ele>
        <time>2026-07-09T13:13:19Z</time>
      </trkpt>
      <trkpt lat="53.008421994745731" lon="-6.29752803593874">
        <ele>145.30000000000001</ele>
        <time>2026-07-09T13:13:20Z</time>
      </trkpt>
      <trkpt lat="53.008367009460926" lon="-6.297495011240244">
        <ele>144.81999999999999</ele>
        <time>2026-07-09T13:13:21Z</time>
      </trkpt>
      <trkpt lat="53.008308000862598" lon="-6.29750900901854">
        <ele>144.81999999999999</ele>
        <time>2026-07-09T13:13:22Z</time>
      </trkpt>
      <trkpt lat="53.008240023627877" lon="-6.297526024281979">
        <ele>144.34</ele>
        <time>2026-07-09T13:13:23Z</time>
      </trkpt>
      <trkpt lat="53.008167017251253" lon="-6.297544967383146">
        <ele>144.34</ele>
        <time>2026-07-09T13:13:24Z</time>
      </trkpt>
      <trkpt lat="53.008094010874629" lon="-6.297562988474965">
        <ele>143.84999999999999</ele>
        <time>2026-07-09T13:13:25Z</time>
      </trkpt>
      <trkpt lat="53.00781698897481" lon="-6.297720987349749">
        <ele>143.37</ele>
        <time>2026-07-09T13:13:29Z</time>
      </trkpt>
      <trkpt lat="53.007738031446934" lon="-6.297783013433218">
        <ele>142.88999999999999</ele>
        <time>2026-07-09T13:13:30Z</time>
      </trkpt>
      <trkpt lat="53.006737986579537" lon="-6.298569990321994">
        <ele>138.56999999999999</ele>
        <time>2026-07-09T13:13:41Z</time>
      </trkpt>
      <trkpt lat="53.006579987704754" lon="-6.298677027225494">
        <ele>138.09</ele>
        <time>2026-07-09T13:13:42Z</time>
      </trkpt>
      <trkpt lat="53.00650698132813" lon="-6.298720026388764">
        <ele>137.13</ele>
        <time>2026-07-09T13:13:43Z</time>
      </trkpt>
      <trkpt lat="53.006448978558183" lon="-6.29875497892499">
        <ele>136.63999999999999</ele>
        <time>2026-07-09T13:13:44Z</time>
      </trkpt>
      <trkpt lat="53.006412014365196" lon="-6.298778029158711">
        <ele>136.63999999999999</ele>
        <time>2026-07-09T13:13:45Z</time>
      </trkpt>
      <trkpt lat="53.006384018808603" lon="-6.298794960603118">
        <ele>136.16</ele>
        <time>2026-07-09T13:13:46Z</time>
      </trkpt>
      <trkpt lat="53.006361974403262" lon="-6.298808036372066">
        <ele>136.16</ele>
        <time>2026-07-09T13:13:47Z</time>
      </trkpt>
      <trkpt lat="53.006341019645333" lon="-6.298820022493601">
        <ele>135.68000000000001</ele>
        <time>2026-07-09T13:13:48Z</time>
      </trkpt>
      <trkpt lat="53.006322998553514" lon="-6.298831002786756">
        <ele>135.19999999999999</ele>
        <time>2026-07-09T13:13:49Z</time>
      </trkpt>
      <trkpt lat="53.006303971633315" lon="-6.29884198307991">
        <ele>134.72</ele>
        <time>2026-07-09T13:13:50Z</time>
      </trkpt>
      <trkpt lat="53.006278993561864" lon="-6.298857992514968">
        <ele>134.24000000000001</ele>
        <time>2026-07-09T13:13:51Z</time>
      </trkpt>
      <trkpt lat="53.0061199888587" lon="-6.298952959477902">
        <ele>130.40000000000001</ele>
        <time>2026-07-09T13:13:57Z</time>
      </trkpt>
      <trkpt lat="53.00609702244401" lon="-6.298966035246849">
        <ele>130.40000000000001</ele>
        <time>2026-07-09T13:13:58Z</time>
      </trkpt>
      <trkpt lat="53.00607698969543" lon="-6.298979027196765">
        <ele>129.43000000000001</ele>
        <time>2026-07-09T13:13:59Z</time>
      </trkpt>
      <trkpt lat="53.006029967218637" lon="-6.299007022753358">
        <ele>128.94999999999999</ele>
        <time>2026-07-09T13:14:00Z</time>
      </trkpt>
      <trkpt lat="53.006029967218637" lon="-6.299007022753358">
        <ele>128.47</ele>
        <time>2026-07-09T13:14:01Z</time>
      </trkpt>
      <trkpt lat="53.006005994975567" lon="-6.299018003046513">
        <ele>128.47</ele>
        <time>2026-07-09T13:14:02Z</time>
      </trkpt>
      <trkpt lat="53.005868028849363" lon="-6.299081034958363">
        <ele>126.06999999999999</ele>
        <time>2026-07-09T13:14:06Z</time>
      </trkpt>
      <trkpt lat="53.005823018029332" lon="-6.299100983887911">
        <ele>125.59</ele>
        <time>2026-07-09T13:14:07Z</time>
      </trkpt>
      <trkpt lat="53.005558988079429" lon="-6.299221012741327">
        <ele>121.73999999999999</ele>
        <time>2026-07-09T13:14:13Z</time>
      </trkpt>
      <trkpt lat="53.005381962284446" lon="-6.299257976934314">
        <ele>119.81999999999999</ele>
        <time>2026-07-09T13:14:17Z</time>
      </trkpt>
      <trkpt lat="53.005314990878105" lon="-6.29927197471261">
        <ele>119.81999999999999</ele>
        <time>2026-07-09T13:14:18Z</time>
      </trkpt>
      <trkpt lat="53.005250031128526" lon="-6.299285972490907">
        <ele>119.81999999999999</ele>
        <time>2026-07-09T13:14:19Z</time>
      </trkpt>
      <trkpt lat="53.005122961476445" lon="-6.29931204020977">
        <ele>120.3</ele>
        <time>2026-07-09T13:14:21Z</time>
      </trkpt>
      <trkpt lat="53.004817022010684" lon="-6.299252025783062">
        <ele>120.78</ele>
        <time>2026-07-09T13:14:25Z</time>
      </trkpt>
      <trkpt lat="53.004674026742578" lon="-6.299201985821128">
        <ele>121.26000000000001</ele>
        <time>2026-07-09T13:14:27Z</time>
      </trkpt>
      <trkpt lat="53.004342019557953" lon="-6.299093021079898">
        <ele>121.73999999999999</ele>
        <time>2026-07-09T13:14:33Z</time>
      </trkpt>
      <trkpt lat="53.004296002909541" lon="-6.299092015251517">
        <ele>122.22</ele>
        <time>2026-07-09T13:14:34Z</time>
      </trkpt>
      <trkpt lat="53.003770038485527" lon="-6.299082040786743">
        <ele>122.22</ele>
        <time>2026-07-09T13:14:41Z</time>
      </trkpt>
      <trkpt lat="53.002933021634817" lon="-6.299018003046513">
        <ele>121.26000000000001</ele>
        <time>2026-07-09T13:14:49Z</time>
      </trkpt>
      <trkpt lat="53.002833025529981" lon="-6.298994030803442">
        <ele>121.73999999999999</ele>
        <time>2026-07-09T13:14:50Z</time>
      </trkpt>
      <trkpt lat="53.002271018922329" lon="-6.298852041363716">
        <ele>122.22</ele>
        <time>2026-07-09T13:14:55Z</time>
      </trkpt>
      <trkpt lat="53.002094998955727" lon="-6.298837959766388">
        <ele>122.22</ele>
        <time>2026-07-09T13:14:57Z</time>
      </trkpt>
      <trkpt lat="53.0020169634372" lon="-6.298858998343349">
        <ele>122.22</ele>
        <time>2026-07-09T13:14:58Z</time>
      </trkpt>
      <trkpt lat="53.001941023394465" lon="-6.298900991678238">
        <ele>122.70999999999999</ele>
        <time>2026-07-09T13:14:59Z</time>
      </trkpt>
      <trkpt lat="53.001867011189461" lon="-6.298942985013127">
        <ele>122.70999999999999</ele>
        <time>2026-07-09T13:15:00Z</time>
      </trkpt>
      <trkpt lat="53.00180297344923" lon="-6.299045998603106">
        <ele>122.70999999999999</ele>
        <time>2026-07-09T13:15:01Z</time>
      </trkpt>
      <trkpt lat="53.001744970679283" lon="-6.299140965566039">
        <ele>123.19</ele>
        <time>2026-07-09T13:15:02Z</time>
      </trkpt>
      <trkpt lat="53.001682022586465" lon="-6.299240039661527">
        <ele>123.19</ele>
        <time>2026-07-09T13:15:03Z</time>
      </trkpt>
      <trkpt lat="53.001615973189473" lon="-6.299332994967699">
        <ele>123.19</ele>
        <time>2026-07-09T13:15:04Z</time>
      </trkpt>
      <trkpt lat="53.00154397264123" lon="-6.299433996900916">
        <ele>122.70999999999999</ele>
        <time>2026-07-09T13:15:05Z</time>
      </trkpt>
      <trkpt lat="53.001463003456593" lon="-6.299538016319275">
        <ele>122.70999999999999</ele>
        <time>2026-07-09T13:15:06Z</time>
      </trkpt>
      <trkpt lat="53.001367030665278" lon="-6.299623008817434">
        <ele>122.70999999999999</ele>
        <time>2026-07-09T13:15:07Z</time>
      </trkpt>
      <trkpt lat="53.001260999590158" lon="-6.29970196634531">
        <ele>123.19</ele>
        <time>2026-07-09T13:15:08Z</time>
      </trkpt>
      <trkpt lat="53.000874007120728" lon="-6.29982702434063">
        <ele>123.19</ele>
        <time>2026-07-09T13:15:11Z</time>
      </trkpt>
      <trkpt lat="52.999948980286717" lon="-6.300100022926927">
        <ele>123.67</ele>
        <time>2026-07-09T13:15:16Z</time>
      </trkpt>
      <trkpt lat="52.998776016756892" lon="-6.30090300925076">
        <ele>125.59</ele>
        <time>2026-07-09T13:15:24Z</time>
      </trkpt>
      <trkpt lat="52.998236976563931" lon="-6.301319003105164">
        <ele>127.51000000000001</ele>
        <time>2026-07-09T13:15:29Z</time>
      </trkpt>
      <trkpt lat="52.997880997136235" lon="-6.301603987812996">
        <ele>130.88</ele>
        <time>2026-07-09T13:15:33Z</time>
      </trkpt>
      <trkpt lat="52.997788041830063" lon="-6.301678000018001">
        <ele>131.84</ele>
        <time>2026-07-09T13:15:34Z</time>
      </trkpt>
      <trkpt lat="52.997169960290194" lon="-6.302135987207294">
        <ele>140.00999999999999</ele>
        <time>2026-07-09T13:15:41Z</time>
      </trkpt>
      <trkpt lat="52.997088991105556" lon="-6.302180998027325">
        <ele>140.97</ele>
        <time>2026-07-09T13:15:42Z</time>
      </trkpt>
      <trkpt lat="52.996939038857818" lon="-6.302263978868723">
        <ele>143.37</ele>
        <time>2026-07-09T13:15:44Z</time>
      </trkpt>
      <trkpt lat="52.996851028874516" lon="-6.302234977483749">
        <ele>143.84999999999999</ele>
        <time>2026-07-09T13:15:45Z</time>
      </trkpt>
      <trkpt lat="52.996361022815108" lon="-6.302030961960554">
        <ele>147.22</ele>
        <time>2026-07-09T13:15:50Z</time>
      </trkpt>
      <trkpt lat="52.996260020881891" lon="-6.301988968625665">
        <ele>147.69999999999999</ele>
        <time>2026-07-09T13:15:51Z</time>
      </trkpt>
      <trkpt lat="52.996153989806771" lon="-6.301944963634014">
        <ele>148.18000000000001</ele>
        <time>2026-07-09T13:15:52Z</time>
      </trkpt>
      <trkpt lat="52.996036978438497" lon="-6.301896013319492">
        <ele>148.18000000000001</ele>
        <time>2026-07-09T13:15:53Z</time>
      </trkpt>
      <trkpt lat="52.995906975120306" lon="-6.301842033863068">
        <ele>148.18000000000001</ele>
        <time>2026-07-09T13:15:54Z</time>
      </trkpt>
      <trkpt lat="52.995760962367058" lon="-6.301781013607979">
        <ele>148.18000000000001</ele>
        <time>2026-07-09T13:15:55Z</time>
      </trkpt>
      <trkpt lat="52.995605980977416" lon="-6.301715970039368">
        <ele>148.18000000000001</ele>
        <time>2026-07-09T13:15:56Z</time>
      </trkpt>
      <trkpt lat="52.995330970734358" lon="-6.301617985591292">
        <ele>147.69999999999999</ele>
        <time>2026-07-09T13:15:58Z</time>
      </trkpt>
      <trkpt lat="52.995178001001477" lon="-6.301599964499474">
        <ele>147.69999999999999</ele>
        <time>2026-07-09T13:15:59Z</time>
      </trkpt>
      <trkpt lat="52.995026037096977" lon="-6.301582027226687">
        <ele>147.22</ele>
        <time>2026-07-09T13:16:00Z</time>
      </trkpt>
      <trkpt lat="52.994850017130375" lon="-6.301559982821345">
        <ele>147.22</ele>
        <time>2026-07-09T13:16:01Z</time>
      </trkpt>
      <trkpt lat="52.99475597217679" lon="-6.301575992256403">
        <ele>147.22</ele>
        <time>2026-07-09T13:16:02Z</time>
      </trkpt>
      <trkpt lat="52.9946259688586" lon="-6.301598958671093">
        <ele>147.22</ele>
        <time>2026-07-09T13:16:03Z</time>
      </trkpt>
      <trkpt lat="52.994500994682312" lon="-6.301619997248054">
        <ele>146.74000000000001</ele>
        <time>2026-07-09T13:16:04Z</time>
      </trkpt>
      <trkpt lat="52.994381971657276" lon="-6.301641035825014">
        <ele>146.74000000000001</ele>
        <time>2026-07-09T13:16:05Z</time>
      </trkpt>
      <trkpt lat="52.994149038568139" lon="-6.301681017503142">
        <ele>145.78</ele>
        <time>2026-07-09T13:16:07Z</time>
      </trkpt>
      <trkpt lat="52.994031021371484" lon="-6.301675988361239">
        <ele>145.78</ele>
        <time>2026-07-09T13:16:08Z</time>
      </trkpt>
      <trkpt lat="52.993555013090372" lon="-6.301581021398306">
        <ele>143.37</ele>
        <time>2026-07-09T13:16:12Z</time>
      </trkpt>
      <trkpt lat="52.993433978408575" lon="-6.301545985043049">
        <ele>142.41</ele>
        <time>2026-07-09T13:16:13Z</time>
      </trkpt>
      <trkpt lat="52.993334988132119" lon="-6.301480019465089">
        <ele>142.41</ele>
        <time>2026-07-09T13:16:14Z</time>
      </trkpt>
      <trkpt lat="52.992653036490083" lon="-6.300831008702517">
        <ele>141.93000000000001</ele>
        <time>2026-07-09T13:16:19Z</time>
      </trkpt>
      <trkpt lat="52.991948034614325" lon="-6.300061969086528">
        <ele>141.44999999999999</ele>
        <time>2026-07-09T13:16:23Z</time>
      </trkpt>
      <trkpt lat="52.990833995863795" lon="-6.29890501499176">
        <ele>142.41</ele>
        <time>2026-07-09T13:16:29Z</time>
      </trkpt>
      <trkpt lat="52.990363016724586" lon="-6.298406962305307">
        <ele>141.93000000000001</ele>
        <time>2026-07-09T13:16:32Z</time>
      </trkpt>
      <trkpt lat="52.9886510130018" lon="-6.296606026589871">
        <ele>130.88</ele>
        <time>2026-07-09T13:16:42Z</time>
      </trkpt>
      <trkpt lat="52.986663999035954" lon="-6.29464901983738">
        <ele>127.51000000000001</ele>
        <time>2026-07-09T13:16:53Z</time>
      </trkpt>
      <trkpt lat="52.985847014933825" lon="-6.293880986049771">
        <ele>125.59</ele>
        <time>2026-07-09T13:16:58Z</time>
      </trkpt>
      <trkpt lat="52.985696978867054" lon="-6.293715024366975">
        <ele>123.67</ele>
        <time>2026-07-09T13:17:00Z</time>
      </trkpt>
      <trkpt lat="52.985410988330841" lon="-6.293397014960647">
        <ele>122.22</ele>
        <time>2026-07-09T13:17:01Z</time>
      </trkpt>
      <trkpt lat="52.985261036083102" lon="-6.293229963630438">
        <ele>121.73999999999999</ele>
        <time>2026-07-09T13:17:02Z</time>
      </trkpt>
      <trkpt lat="52.984529966488481" lon="-6.29241599701345">
        <ele>117.90000000000001</ele>
        <time>2026-07-09T13:17:08Z</time>
      </trkpt>
      <trkpt lat="52.983891014009714" lon="-6.291647041216493">
        <ele>112.61</ele>
        <time>2026-07-09T13:17:14Z</time>
      </trkpt>
      <trkpt lat="52.982845036312938" lon="-6.290389001369476">
        <ele>107.31999999999999</ele>
        <time>2026-07-09T13:17:22Z</time>
      </trkpt>
      <trkpt lat="52.981831999495625" lon="-6.289170021191239">
        <ele>104.92</ele>
        <time>2026-07-09T13:17:29Z</time>
      </trkpt>
      <trkpt lat="52.980985008180141" lon="-6.288099987432361">
        <ele>104.44</ele>
        <time>2026-07-09T13:17:35Z</time>
      </trkpt>
      <trkpt lat="52.98025201074779" lon="-6.286870026960969">
        <ele>103.95999999999999</ele>
        <time>2026-07-09T13:17:41Z</time>
      </trkpt>
      <trkpt lat="52.980156037956476" lon="-6.286676991730928">
        <ele>103.95999999999999</ele>
        <time>2026-07-09T13:17:42Z</time>
      </trkpt>
      <trkpt lat="52.979842973873019" lon="-6.285827988758683">
        <ele>101.08</ele>
        <time>2026-07-09T13:17:46Z</time>
      </trkpt>
      <trkpt lat="52.979766028001904" lon="-6.285598995164037">
        <ele>100.59999999999999</ele>
        <time>2026-07-09T13:17:47Z</time>
      </trkpt>
      <trkpt lat="52.979680029675364" lon="-6.285337982699275">
        <ele>99.629999999999995</ele>
        <time>2026-07-09T13:17:48Z</time>
      </trkpt>
      <trkpt lat="52.978928005322814" lon="-6.283985981717706">
        <ele>97.230000000000004</ele>
        <time>2026-07-09T13:17:54Z</time>
      </trkpt>
      <trkpt lat="52.977686980739236" lon="-6.281633013859391">
        <ele>96.75</ele>
        <time>2026-07-09T13:18:04Z</time>
      </trkpt>
      <trkpt lat="52.976715015247464" lon="-6.279777009040117">
        <ele>94.349999999999994</ele>
        <time>2026-07-09T13:18:11Z</time>
      </trkpt>
      <trkpt lat="52.976477975025773" lon="-6.279385993257165">
        <ele>93.390000000000001</ele>
        <time>2026-07-09T13:18:14Z</time>
      </trkpt>
      <trkpt lat="52.976345960050821" lon="-6.279166974127293">
        <ele>92.420000000000002</ele>
        <time>2026-07-09T13:18:15Z</time>
      </trkpt>
      <trkpt lat="52.976203970611095" lon="-6.278968993574381">
        <ele>91.939999999999998</ele>
        <time>2026-07-09T13:18:16Z</time>
      </trkpt>
      <trkpt lat="52.976056030020118" lon="-6.278790039941669">
        <ele>91.459999999999994</ele>
        <time>2026-07-09T13:18:17Z</time>
      </trkpt>
      <trkpt lat="52.975882021710277" lon="-6.278578983619809">
        <ele>90.980000000000004</ele>
        <time>2026-07-09T13:18:18Z</time>
      </trkpt>
      <trkpt lat="52.974316030740738" lon="-6.277264030650258">
        <ele>95.790000000000006</ele>
        <time>2026-07-09T13:18:28Z</time>
      </trkpt>
      <trkpt lat="52.973858965560794" lon="-6.276878966018558">
        <ele>97.230000000000004</ele>
        <time>2026-07-09T13:18:30Z</time>
      </trkpt>
      <trkpt lat="52.97356903553009" lon="-6.276634968817234">
        <ele>100.59999999999999</ele>
        <time>2026-07-09T13:18:33Z</time>
      </trkpt>
      <trkpt lat="52.973308023065329" lon="-6.276449980214238">
        <ele>102.04000000000001</ele>
        <time>2026-07-09T13:18:34Z</time>
      </trkpt>
      <trkpt lat="52.973163016140461" lon="-6.276368005201221">
        <ele>103.48</ele>
        <time>2026-07-09T13:18:35Z</time>
      </trkpt>
      <trkpt lat="52.973019015043974" lon="-6.276357024908066">
        <ele>104.92</ele>
        <time>2026-07-09T13:18:36Z</time>
      </trkpt>
      <trkpt lat="52.972721038386226" lon="-6.276332968845964">
        <ele>106.84</ele>
        <time>2026-07-09T13:18:38Z</time>
      </trkpt>
      <trkpt lat="52.972580976784229" lon="-6.276294998824596">
        <ele>108.29000000000001</ele>
        <time>2026-07-09T13:18:39Z</time>
      </trkpt>
      <trkpt lat="52.972440999001265" lon="-6.276219980791211">
        <ele>109.73</ele>
        <time>2026-07-09T13:18:40Z</time>
      </trkpt>
      <trkpt lat="52.972141010686755" lon="-6.276031974703074">
        <ele>112.61</ele>
        <time>2026-07-09T13:18:43Z</time>
      </trkpt>
      <trkpt lat="52.971540028229356" lon="-6.275581028312445">
        <ele>112.61</ele>
        <time>2026-07-09T13:18:46Z</time>
      </trkpt>
      <trkpt lat="52.971399966627359" lon="-6.275467034429312">
        <ele>112.61</ele>
        <time>2026-07-09T13:18:47Z</time>
      </trkpt>
      <trkpt lat="52.971268035471439" lon="-6.275306018069387">
        <ele>113.09</ele>
        <time>2026-07-09T13:18:48Z</time>
      </trkpt>
      <trkpt lat="52.971128979697824" lon="-6.275137038901448">
        <ele>114.05</ele>
        <time>2026-07-09T13:18:50Z</time>
      </trkpt>
      <trkpt lat="52.97099101357162" lon="-6.274968981742859">
        <ele>115.01000000000001</ele>
        <time>2026-07-09T13:18:51Z</time>
      </trkpt>
      <trkpt lat="52.969989962875843" lon="-6.273751007393003">
        <ele>122.70999999999999</ele>
        <time>2026-07-09T13:18:57Z</time>
      </trkpt>
      <trkpt lat="52.969701960682869" lon="-6.273456970229745">
        <ele>124.63</ele>
        <time>2026-07-09T13:18:59Z</time>
      </trkpt>
      <trkpt lat="52.968939039856195" lon="-6.272644009441137">
        <ele>130.40000000000001</ele>
        <time>2026-07-09T13:19:05Z</time>
      </trkpt>
      <trkpt lat="52.968834014609456" lon="-6.272452985867858">
        <ele>131.36000000000001</ele>
        <time>2026-07-09T13:19:07Z</time>
      </trkpt>
      <trkpt lat="52.968107974156737" lon="-6.270610978826881">
        <ele>129.91999999999999</ele>
        <time>2026-07-09T13:19:14Z</time>
      </trkpt>
      <trkpt lat="52.967988029122353" lon="-6.270102029666305">
        <ele>128.94999999999999</ele>
        <time>2026-07-09T13:19:16Z</time>
      </trkpt>
      <trkpt lat="52.967521995306015" lon="-6.268128007650375">
        <ele>125.59</ele>
        <time>2026-07-09T13:19:24Z</time>
      </trkpt>
      <trkpt lat="52.966927969828248" lon="-6.265912000089884">
        <ele>124.63</ele>
        <time>2026-07-09T13:19:33Z</time>
      </trkpt>
      <trkpt lat="52.966181980445981" lon="-6.263790037482977">
        <ele>123.67</ele>
        <time>2026-07-09T13:19:41Z</time>
      </trkpt>
      <trkpt lat="52.966019036248326" lon="-6.263183020055294">
        <ele>122.70999999999999</ele>
        <time>2026-07-09T13:19:44Z</time>
      </trkpt>
      <trkpt lat="52.966010989621282" lon="-6.262975987046957">
        <ele>123.19</ele>
        <time>2026-07-09T13:19:46Z</time>
      </trkpt>
      <trkpt lat="52.966075027361512" lon="-6.262707011774182">
        <ele>123.67</ele>
        <time>2026-07-09T13:19:47Z</time>
      </trkpt>
      <trkpt lat="52.966107968240976" lon="-6.262564016506076">
        <ele>123.67</ele>
        <time>2026-07-09T13:19:48Z</time>
      </trkpt>
      <trkpt lat="52.966147027909756" lon="-6.262403000146151">
        <ele>124.15000000000001</ele>
        <time>2026-07-09T13:19:49Z</time>
      </trkpt>
      <trkpt lat="52.966182986274362" lon="-6.262240977957845">
        <ele>124.15000000000001</ele>
        <time>2026-07-09T13:19:50Z</time>
      </trkpt>
      <trkpt lat="52.966182986274362" lon="-6.262024976313114">
        <ele>124.15000000000001</ele>
        <time>2026-07-09T13:19:51Z</time>
      </trkpt>
      <trkpt lat="52.966182986274362" lon="-6.261777961626649">
        <ele>124.63</ele>
        <time>2026-07-09T13:19:53Z</time>
      </trkpt>
      <trkpt lat="52.966118026524782" lon="-6.261225007474423">
        <ele>124.63</ele>
        <time>2026-07-09T13:19:56Z</time>
      </trkpt>
      <trkpt lat="52.966100005432963" lon="-6.261076983064413">
        <ele>125.11</ele>
        <time>2026-07-09T13:19:57Z</time>
      </trkpt>
      <trkpt lat="52.96607200987637" lon="-6.260834997519851">
        <ele>124.63</ele>
        <time>2026-07-09T13:19:58Z</time>
      </trkpt>
      <trkpt lat="52.966058012098074" lon="-6.260716980323196">
        <ele>124.63</ele>
        <time>2026-07-09T13:19:59Z</time>
      </trkpt>
      <trkpt lat="52.966042002663016" lon="-6.260581025853753">
        <ele>125.59</ele>
        <time>2026-07-09T13:20:01Z</time>
      </trkpt>
      <trkpt lat="52.965843016281724" lon="-6.259119976311922">
        <ele>126.55</ele>
        <time>2026-07-09T13:20:08Z</time>
      </trkpt>
      <trkpt lat="52.965723993256688" lon="-6.258264016360045">
        <ele>128.47</ele>
        <time>2026-07-09T13:20:14Z</time>
      </trkpt>
      <trkpt lat="52.965716030448675" lon="-6.258207019418478">
        <ele>128.94999999999999</ele>
        <time>2026-07-09T13:20:15Z</time>
      </trkpt>
      <trkpt lat="52.965711001306772" lon="-6.258172988891602">
        <ele>129.43000000000001</ele>
        <time>2026-07-09T13:20:16Z</time>
      </trkpt>
      <trkpt lat="52.965711001306772" lon="-6.258172988891602">
        <ele>129.43000000000001</ele>
        <time>2026-07-09T13:20:25Z</time>
      </trkpt>
      <trkpt lat="52.965711001306772" lon="-6.258172988891602">
        <ele>128.94999999999999</ele>
        <time>2026-07-09T13:20:36Z</time>
      </trkpt>
      <trkpt lat="52.965702032670379" lon="-6.258077016100287">
        <ele>127.98999999999999</ele>
        <time>2026-07-09T13:20:38Z</time>
      </trkpt>
      <trkpt lat="52.965711001306772" lon="-6.258172988891602">
        <ele>127.98999999999999</ele>
        <time>2026-07-09T13:20:40Z</time>
      </trkpt>
      <trkpt lat="52.965716030448675" lon="-6.25821003690362">
        <ele>127.98999999999999</ele>
        <time>2026-07-09T13:20:41Z</time>
      </trkpt>
      <trkpt lat="52.965870006009936" lon="-6.259313011541963">
        <ele>127.51000000000001</ele>
        <time>2026-07-09T13:20:46Z</time>
      </trkpt>
      <trkpt lat="52.96609497629106" lon="-6.261031972244382">
        <ele>127.03</ele>
        <time>2026-07-09T13:20:52Z</time>
      </trkpt>
      <trkpt lat="52.966182986274362" lon="-6.261777961626649">
        <ele>126.06999999999999</ele>
        <time>2026-07-09T13:20:55Z</time>
      </trkpt>
      <trkpt lat="52.966182986274362" lon="-6.261998992413282">
        <ele>125.59</ele>
        <time>2026-07-09T13:20:56Z</time>
      </trkpt>
      <trkpt lat="52.966182986274362" lon="-6.262200996279717">
        <ele>125.59</ele>
        <time>2026-07-09T13:20:57Z</time>
      </trkpt>
      <trkpt lat="52.96615800820291" lon="-6.262352960184217">
        <ele>125.59</ele>
        <time>2026-07-09T13:20:58Z</time>
      </trkpt>
      <trkpt lat="52.966129006817937" lon="-6.262478018179536">
        <ele>125.11</ele>
        <time>2026-07-09T13:20:59Z</time>
      </trkpt>
      <trkpt lat="52.966066980734468" lon="-6.262740036472678">
        <ele>124.63</ele>
        <time>2026-07-09T13:21:00Z</time>
      </trkpt>
      <trkpt lat="52.966032028198242" lon="-6.262888982892036">
        <ele>124.63</ele>
        <time>2026-07-09T13:21:01Z</time>
      </trkpt>
      <trkpt lat="52.965990034863353" lon="-6.263065002858639">
        <ele>124.63</ele>
        <time>2026-07-09T13:21:02Z</time>
      </trkpt>
      <trkpt lat="52.966019036248326" lon="-6.263184025883675">
        <ele>124.15000000000001</ele>
        <time>2026-07-09T13:21:03Z</time>
      </trkpt>
      <trkpt lat="52.96605197712779" lon="-6.263316040858626">
        <ele>124.15000000000001</ele>
        <time>2026-07-09T13:21:05Z</time>
      </trkpt>
      <trkpt lat="52.966081984341145" lon="-6.263432968407869">
        <ele>123.67</ele>
        <time>2026-07-09T13:21:06Z</time>
      </trkpt>
      <trkpt lat="52.966105034574866" lon="-6.263526007533073">
        <ele>123.67</ele>
        <time>2026-07-09T13:21:07Z</time>
      </trkpt>
      <trkpt lat="52.966121966019273" lon="-6.263593984767795">
        <ele>123.67</ele>
        <time>2026-07-09T13:21:08Z</time>
      </trkpt>
      <trkpt lat="52.96615700237453" lon="-6.263619968667626">
        <ele>123.19</ele>
        <time>2026-07-09T13:21:09Z</time>
      </trkpt>
      <trkpt lat="52.966167982667685" lon="-6.263591973111033">
        <ele>123.19</ele>
        <time>2026-07-09T13:21:10Z</time>
      </trkpt>
      <trkpt lat="52.966183992102742" lon="-6.263548973947763">
        <ele>122.70999999999999</ele>
        <time>2026-07-09T13:21:11Z</time>
      </trkpt>
      <trkpt lat="52.966205030679703" lon="-6.263494994491339">
        <ele>122.70999999999999</ele>
        <time>2026-07-09T13:21:12Z</time>
      </trkpt>
      <trkpt lat="52.966233026236296" lon="-6.263420982286334">
        <ele>122.22</ele>
        <time>2026-07-09T13:21:13Z</time>
      </trkpt>
      <trkpt lat="52.966273007914424" lon="-6.263315035030246">
        <ele>120.78</ele>
        <time>2026-07-09T13:21:14Z</time>
      </trkpt>
      <trkpt lat="52.966387001797557" lon="-6.263022003695369">
        <ele>116.94</ele>
        <time>2026-07-09T13:21:16Z</time>
      </trkpt>
      <trkpt lat="52.966525973752141" lon="-6.262743975967169">
        <ele>113.56999999999999</ele>
        <time>2026-07-09T13:21:18Z</time>
      </trkpt>
      <trkpt lat="52.96686896122992" lon="-6.262270985171199">
        <ele>105.40000000000001</ele>
        <time>2026-07-09T13:21:22Z</time>
      </trkpt>
      <trkpt lat="52.966936016455293" lon="-6.262125978246331">
        <ele>103.95999999999999</ele>
        <time>2026-07-09T13:21:23Z</time>
      </trkpt>
      <trkpt lat="52.966988990083337" lon="-6.262010978534818">
        <ele>103</ele>
        <time>2026-07-09T13:21:24Z</time>
      </trkpt>
      <trkpt lat="52.967036012560129" lon="-6.26190796494484">
        <ele>102.04000000000001</ele>
        <time>2026-07-09T13:21:25Z</time>
      </trkpt>
      <trkpt lat="52.967106001451612" lon="-6.26175600104034">
        <ele>100.59999999999999</ele>
        <time>2026-07-09T13:21:26Z</time>
      </trkpt>
      <trkpt lat="52.967106001451612" lon="-6.261646030470729">
        <ele>99.150000000000006</ele>
        <time>2026-07-09T13:21:27Z</time>
      </trkpt>
      <trkpt lat="52.96706099063158" lon="-6.261404966935515">
        <ele>96.75</ele>
        <time>2026-07-09T13:21:29Z</time>
      </trkpt>
      <trkpt lat="52.966981027275324" lon="-6.26100598834455">
        <ele>93.870000000000005</ele>
        <time>2026-07-09T13:21:33Z</time>
      </trkpt>
      <trkpt lat="52.966983960941434" lon="-6.260927030816674">
        <ele>92.900000000000006</ele>
        <time>2026-07-09T13:21:34Z</time>
      </trkpt>
      <trkpt lat="52.96699401922524" lon="-6.260848995298147">
        <ele>92.420000000000002</ele>
        <time>2026-07-09T13:21:35Z</time>
      </trkpt>
      <trkpt lat="52.967009022831917" lon="-6.260801972821355">
        <ele>91.939999999999998</ele>
        <time>2026-07-09T13:21:36Z</time>
      </trkpt>
      <trkpt lat="52.96703802421689" lon="-6.260772971436381">
        <ele>91.939999999999998</ele>
        <time>2026-07-09T13:21:37Z</time>
      </trkpt>
      <trkpt lat="52.967079011723399" lon="-6.260757967829704">
        <ele>92.420000000000002</ele>
        <time>2026-07-09T13:21:38Z</time>
      </trkpt>
      <trkpt lat="52.967372965067625" lon="-6.260675992816687">
        <ele>92.420000000000002</ele>
        <time>2026-07-09T13:21:42Z</time>
      </trkpt>
      <trkpt lat="52.967412024736404" lon="-6.260666018351913">
        <ele>91.459999999999994</ele>
        <time>2026-07-09T13:21:44Z</time>
      </trkpt>
      <trkpt lat="52.967432979494333" lon="-6.260657971724868">
        <ele>90.5</ele>
        <time>2026-07-09T13:21:45Z</time>
      </trkpt>
      <trkpt lat="52.967456029728055" lon="-6.260642968118191">
        <ele>90.019999999999996</ele>
        <time>2026-07-09T13:21:46Z</time>
      </trkpt>
      <trkpt lat="52.967482013627887" lon="-6.260626036673784">
        <ele>89.060000000000002</ele>
        <time>2026-07-09T13:21:47Z</time>
      </trkpt>
      <trkpt lat="52.967492993921041" lon="-6.260613966733217">
        <ele>88.579999999999998</ele>
        <time>2026-07-09T13:21:48Z</time>
      </trkpt>
      <trkpt lat="52.967506991699338" lon="-6.260557975620031">
        <ele>88.099999999999994</ele>
        <time>2026-07-09T13:21:49Z</time>
      </trkpt>
      <trkpt lat="52.967526018619537" lon="-6.260483041405678">
        <ele>87.620000000000005</ele>
        <time>2026-07-09T13:21:50Z</time>
      </trkpt>
      <trkpt lat="52.967548985034227" lon="-6.260392013937235">
        <ele>86.659999999999997</ele>
        <time>2026-07-09T13:21:51Z</time>
      </trkpt>
      <trkpt lat="52.967572035267949" lon="-6.26029696315527">
        <ele>86.180000000000007</ele>
        <time>2026-07-09T13:21:52Z</time>
      </trkpt>
      <trkpt lat="52.967593995854259" lon="-6.260209036991">
        <ele>85.689999999999998</ele>
        <time>2026-07-09T13:21:53Z</time>
      </trkpt>
      <trkpt lat="52.967610005289316" lon="-6.26014499925077">
        <ele>85.209999999999994</ele>
        <time>2026-07-09T13:21:54Z</time>
      </trkpt>
      <trkpt lat="52.967620985582471" lon="-6.26010300591588">
        <ele>84.730000000000004</ele>
        <time>2026-07-09T13:21:55Z</time>
      </trkpt>
      <trkpt lat="52.967631965875626" lon="-6.260057995095849">
        <ele>84.25</ele>
        <time>2026-07-09T13:21:56Z</time>
      </trkpt>
      <trkpt lat="52.967648981139064" lon="-6.259991023689508">
        <ele>83.769999999999996</ele>
        <time>2026-07-09T13:21:57Z</time>
      </trkpt>
      <trkpt lat="52.967673037201166" lon="-6.259893039241433">
        <ele>83.290000000000006</ele>
        <time>2026-07-09T13:21:58Z</time>
      </trkpt>
      <trkpt lat="52.967697009444237" lon="-6.259798994287849">
        <ele>83.290000000000006</ele>
        <time>2026-07-09T13:21:59Z</time>
      </trkpt>
      <trkpt lat="52.96770597808063" lon="-6.259761024266481">
        <ele>83.769999999999996</ele>
        <time>2026-07-09T13:22:00Z</time>
      </trkpt>
      <trkpt lat="52.96770597808063" lon="-6.259761024266481">
        <ele>84.25</ele>
        <time>2026-07-09T13:22:01Z</time>
      </trkpt>
      <trkpt lat="52.96770597808063" lon="-6.259600007906556">
        <ele>85.209999999999994</ele>
        <time>2026-07-09T13:22:02Z</time>
      </trkpt>
      <trkpt lat="52.96770597808063" lon="-6.259498000144959">
        <ele>85.689999999999998</ele>
        <time>2026-07-09T13:22:03Z</time>
      </trkpt>
      <trkpt lat="52.96770597808063" lon="-6.259388029575348">
        <ele>86.659999999999997</ele>
        <time>2026-07-09T13:22:04Z</time>
      </trkpt>
      <trkpt lat="52.96770597808063" lon="-6.259290967136622">
        <ele>87.620000000000005</ele>
        <time>2026-07-09T13:22:05Z</time>
      </trkpt>
      <trkpt lat="52.96770597808063" lon="-6.259220978245139">
        <ele>88.099999999999994</ele>
        <time>2026-07-09T13:22:06Z</time>
      </trkpt>
      <trkpt lat="52.96770597808063" lon="-6.259155012667179">
        <ele>88.579999999999998</ele>
        <time>2026-07-09T13:22:07Z</time>
      </trkpt>
      <trkpt lat="52.96770597808063" lon="-6.25911695882678">
        <ele>89.540000000000006</ele>
        <time>2026-07-09T13:22:08Z</time>
      </trkpt>
      <trkpt lat="52.96772500500083" lon="-6.259021991863847">
        <ele>90.019999999999996</ele>
        <time>2026-07-09T13:22:09Z</time>
      </trkpt>
      <trkpt lat="52.967734979465604" lon="-6.258972035720944">
        <ele>90.980000000000004</ele>
        <time>2026-07-09T13:22:10Z</time>
      </trkpt>
      <trkpt lat="52.967772027477622" lon="-6.258795009925962">
        <ele>91.459999999999994</ele>
        <time>2026-07-09T13:22:11Z</time>
      </trkpt>
      <trkpt lat="52.967807985842228" lon="-6.258779000490904">
        <ele>91.939999999999998</ele>
        <time>2026-07-09T13:22:12Z</time>
      </trkpt>
      <trkpt lat="52.967850985005498" lon="-6.258760979399085">
        <ele>92.420000000000002</ele>
        <time>2026-07-09T13:22:13Z</time>
      </trkpt>
      <trkpt lat="52.967901024967432" lon="-6.258740024641156">
        <ele>93.390000000000001</ele>
        <time>2026-07-09T13:22:14Z</time>
      </trkpt>
      <trkpt lat="52.96798400580883" lon="-6.258751004934311">
        <ele>93.870000000000005</ele>
        <time>2026-07-09T13:22:15Z</time>
      </trkpt>
      <trkpt lat="52.968114009127021" lon="-6.2587929982692">
        <ele>95.310000000000002</ele>
        <time>2026-07-09T13:22:17Z</time>
      </trkpt>
      <trkpt lat="52.968440987169743" lon="-6.25889802351594">
        <ele>99.629999999999995</ele>
        <time>2026-07-09T13:22:22Z</time>
      </trkpt>
      <trkpt lat="52.968574007973075" lon="-6.258917972445488">
        <ele>101.56</ele>
        <time>2026-07-09T13:22:24Z</time>
      </trkpt>
      <trkpt lat="52.968637961894274" lon="-6.258910009637475">
        <ele>102.52</ele>
        <time>2026-07-09T13:22:25Z</time>
      </trkpt>
      <trkpt lat="52.968781962990761" lon="-6.258872961625457">
        <ele>103.48</ele>
        <time>2026-07-09T13:22:26Z</time>
      </trkpt>
      <trkpt lat="52.968867039307952" lon="-6.25881303101778">
        <ele>104.92</ele>
        <time>2026-07-09T13:22:27Z</time>
      </trkpt>
      <trkpt lat="52.968979021534324" lon="-6.258695013821125">
        <ele>106.84</ele>
        <time>2026-07-09T13:22:29Z</time>
      </trkpt>
      <trkpt lat="52.96903501264751" lon="-6.258634999394417">
        <ele>107.81</ele>
        <time>2026-07-09T13:22:30Z</time>
      </trkpt>
      <trkpt lat="52.969264006242156" lon="-6.258268961682916">
        <ele>111.17</ele>
        <time>2026-07-09T13:22:34Z</time>
      </trkpt>
      <trkpt lat="52.969310022890568" lon="-6.258054971694946">
        <ele>113.56999999999999</ele>
        <time>2026-07-09T13:22:37Z</time>
      </trkpt>
      <trkpt lat="52.969331983476877" lon="-6.257952963933349">
        <ele>114.53</ele>
        <time>2026-07-09T13:22:38Z</time>
      </trkpt>
      <trkpt lat="52.969374982640147" lon="-6.257678037509322">
        <ele>116.94</ele>
        <time>2026-07-09T13:22:40Z</time>
      </trkpt>
      <trkpt lat="52.969388980418444" lon="-6.257544010877609">
        <ele>117.90000000000001</ele>
        <time>2026-07-09T13:22:41Z</time>
      </trkpt>
      <trkpt lat="52.969403984025121" lon="-6.257404033094645">
        <ele>118.38</ele>
        <time>2026-07-09T13:22:42Z</time>
      </trkpt>
      <trkpt lat="52.969417981803417" lon="-6.257275035604835">
        <ele>120.78</ele>
        <time>2026-07-09T13:22:44Z</time>
      </trkpt>
      <trkpt lat="52.96944203786552" lon="-6.257044030353427">
        <ele>121.73999999999999</ele>
        <time>2026-07-09T13:22:45Z</time>
      </trkpt>
      <trkpt lat="52.969451006501913" lon="-6.256957026198506">
        <ele>122.70999999999999</ele>
        <time>2026-07-09T13:22:46Z</time>
      </trkpt>
      <trkpt lat="52.96946601010859" lon="-6.256820987910032">
        <ele>123.67</ele>
        <time>2026-07-09T13:22:47Z</time>
      </trkpt>
      <trkpt lat="52.969428962096572" lon="-6.256641028448939">
        <ele>126.06999999999999</ele>
        <time>2026-07-09T13:22:50Z</time>
      </trkpt>
      <trkpt lat="52.96938001178205" lon="-6.256413962692022">
        <ele>127.03</ele>
        <time>2026-07-09T13:22:51Z</time>
      </trkpt>
      <trkpt lat="52.969376994296908" lon="-6.256304997950792">
        <ele>127.98999999999999</ele>
        <time>2026-07-09T13:22:52Z</time>
      </trkpt>
      <trkpt lat="52.969308011233807" lon="-6.255446020513773">
        <ele>129.91999999999999</ele>
        <time>2026-07-09T13:22:59Z</time>
      </trkpt>
      <trkpt lat="52.969282027333975" lon="-6.255299001932144">
        <ele>129.43000000000001</ele>
        <time>2026-07-09T13:23:01Z</time>
      </trkpt>
      <trkpt lat="52.969206003472209" lon="-6.254876973107457">
        <ele>128.94999999999999</ele>
        <time>2026-07-09T13:23:04Z</time>
      </trkpt>
      <trkpt lat="52.969126962125301" lon="-6.254434995353222">
        <ele>127.98999999999999</ele>
        <time>2026-07-09T13:23:06Z</time>
      </trkpt>
      <trkpt lat="52.96910097822547" lon="-6.254288982599974">
        <ele>127.51000000000001</ele>
        <time>2026-07-09T13:23:07Z</time>
      </trkpt>
      <trkpt lat="52.969097038730979" lon="-6.254188986495137">
        <ele>126.55</ele>
        <time>2026-07-09T13:23:08Z</time>
      </trkpt>
      <trkpt lat="52.969091003760695" lon="-6.254055965691805">
        <ele>126.06999999999999</ele>
        <time>2026-07-09T13:23:09Z</time>
      </trkpt>
      <trkpt lat="52.969085974618793" lon="-6.25393602065742">
        <ele>125.11</ele>
        <time>2026-07-09T13:23:10Z</time>
      </trkpt>
      <trkpt lat="52.969080023467541" lon="-6.253773998469114">
        <ele>124.63</ele>
        <time>2026-07-09T13:23:11Z</time>
      </trkpt>
      <trkpt lat="52.969080023467541" lon="-6.253773998469114">
        <ele>125.11</ele>
        <time>2026-07-09T13:23:12Z</time>
      </trkpt>
      <trkpt lat="52.969110030680895" lon="-6.253519020974636">
        <ele>126.06999999999999</ele>
        <time>2026-07-09T13:23:13Z</time>
      </trkpt>
      <trkpt lat="52.969126962125301" lon="-6.253375019878149">
        <ele>128.47</ele>
        <time>2026-07-09T13:23:15Z</time>
      </trkpt>
      <trkpt lat="52.969161998480558" lon="-6.253080982714891">
        <ele>129.91999999999999</ele>
        <time>2026-07-09T13:23:16Z</time>
      </trkpt>
      <trkpt lat="52.969177002087235" lon="-6.252958020195365">
        <ele>131.36000000000001</ele>
        <time>2026-07-09T13:23:17Z</time>
      </trkpt>
      <trkpt lat="52.969194017350674" lon="-6.252851989120245">
        <ele>133.28</ele>
        <time>2026-07-09T13:23:18Z</time>
      </trkpt>
      <trkpt lat="52.969241039827466" lon="-6.252716034650803">
        <ele>134.72</ele>
        <time>2026-07-09T13:23:19Z</time>
      </trkpt>
      <trkpt lat="52.969292001798749" lon="-6.252563986927271">
        <ele>136.16</ele>
        <time>2026-07-09T13:23:20Z</time>
      </trkpt>
      <trkpt lat="52.969344975426793" lon="-6.252409005537629">
        <ele>137.61000000000001</ele>
        <time>2026-07-09T13:23:21Z</time>
      </trkpt>
      <trkpt lat="52.969398032873869" lon="-6.252253018319607">
        <ele>138.56999999999999</ele>
        <time>2026-07-09T13:23:22Z</time>
      </trkpt>
      <trkpt lat="52.969505991786718" lon="-6.25193702057004">
        <ele>141.44999999999999</ele>
        <time>2026-07-09T13:23:25Z</time>
      </trkpt>
      <trkpt lat="52.969566006213427" lon="-6.251640971750021">
        <ele>142.88999999999999</ele>
        <time>2026-07-09T13:23:26Z</time>
      </trkpt>
      <trkpt lat="52.969589978456497" lon="-6.251493031159043">
        <ele>143.84999999999999</ele>
        <time>2026-07-09T13:23:27Z</time>
      </trkpt>
      <trkpt lat="52.969615962356329" lon="-6.251327991485596">
        <ele>144.34</ele>
        <time>2026-07-09T13:23:28Z</time>
      </trkpt>
      <trkpt lat="52.969591990113258" lon="-6.251193964853883">
        <ele>144.81999999999999</ele>
        <time>2026-07-09T13:23:29Z</time>
      </trkpt>
      <trkpt lat="52.969540022313595" lon="-6.251028003171086">
        <ele>145.30000000000001</ele>
        <time>2026-07-09T13:23:30Z</time>
      </trkpt>
      <trkpt lat="52.969462992623448" lon="-6.250876039266586">
        <ele>145.78</ele>
        <time>2026-07-09T13:23:31Z</time>
      </trkpt>
      <trkpt lat="52.969376994296908" lon="-6.250707982107997">
        <ele>145.78</ele>
        <time>2026-07-09T13:23:32Z</time>
      </trkpt>
      <trkpt lat="52.969295019283891" lon="-6.250546965748072">
        <ele>146.25999999999999</ele>
        <time>2026-07-09T13:23:33Z</time>
      </trkpt>
      <trkpt lat="52.969216983765364" lon="-6.250395001843572">
        <ele>146.25999999999999</ele>
        <time>2026-07-09T13:23:34Z</time>
      </trkpt>
      <trkpt lat="52.96907901763916" lon="-6.250125020742416">
        <ele>145.78</ele>
        <time>2026-07-09T13:23:37Z</time>
      </trkpt>
      <trkpt lat="52.968935016542673" lon="-6.248744018375874">
        <ele>150.58000000000001</ele>
        <time>2026-07-09T13:23:43Z</time>
      </trkpt>
      <trkpt lat="52.968924958258867" lon="-6.248262980952859">
        <ele>154.43000000000001</ele>
        <time>2026-07-09T13:23:46Z</time>
      </trkpt>
      <trkpt lat="52.968921018764377" lon="-6.248071035370231">
        <ele>155.87</ele>
        <time>2026-07-09T13:23:47Z</time>
      </trkpt>
      <trkpt lat="52.968887994065881" lon="-6.246377974748612">
        <ele>165</ele>
        <time>2026-07-09T13:23:54Z</time>
      </trkpt>
      <trkpt lat="52.968846000730991" lon="-6.246038004755974">
        <ele>166.93000000000001</ele>
        <time>2026-07-09T13:23:56Z</time>
      </trkpt>
      <trkpt lat="52.968739969655871" lon="-6.245280029252172">
        <ele>171.72999999999999</ele>
        <time>2026-07-09T13:24:01Z</time>
      </trkpt>
      <trkpt lat="52.968208976089954" lon="-6.243459982797504">
        <ele>184.71000000000001</ele>
        <time>2026-07-09T13:24:10Z</time>
      </trkpt>
      <trkpt lat="52.967912005260587" lon="-6.242348039522767">
        <ele>193.36000000000001</ele>
        <time>2026-07-09T13:24:16Z</time>
      </trkpt>
      <trkpt lat="52.967871017754078" lon="-6.242171013727784">
        <ele>194.80000000000001</ele>
        <time>2026-07-09T13:24:17Z</time>
      </trkpt>
      <trkpt lat="52.967728022485971" lon="-6.240123985335231">
        <ele>208.25999999999999</ele>
        <time>2026-07-09T13:24:27Z</time>
      </trkpt>
      <trkpt lat="52.967754006385803" lon="-6.239679995924234">
        <ele>210.66999999999999</ele>
        <time>2026-07-09T13:24:29Z</time>
      </trkpt>
      <trkpt lat="52.967992974445224" lon="-6.238628989085555">
        <ele>218.36000000000001</ele>
        <time>2026-07-09T13:24:35Z</time>
      </trkpt>
      <trkpt lat="52.96839103102684" lon="-6.237361980602145">
        <ele>221.72</ele>
        <time>2026-07-09T13:24:40Z</time>
      </trkpt>
      <trkpt lat="52.968618012964725" lon="-6.236455980688334">
        <ele>224.12</ele>
        <time>2026-07-09T13:24:44Z</time>
      </trkpt>
      <trkpt lat="52.968629999086261" lon="-6.236193040385842">
        <ele>224.12</ele>
        <time>2026-07-09T13:24:45Z</time>
      </trkpt>
      <trkpt lat="52.96871499158442" lon="-6.234612967818975">
        <ele>222.19999999999999</ele>
        <time>2026-07-09T13:24:51Z</time>
      </trkpt>
      <trkpt lat="52.968752961605787" lon="-6.23431901447475">
        <ele>221.72</ele>
        <time>2026-07-09T13:24:52Z</time>
      </trkpt>
      <trkpt lat="52.968881037086248" lon="-6.233317041769624">
        <ele>215.94999999999999</ele>
        <time>2026-07-09T13:24:57Z</time>
      </trkpt>
      <trkpt lat="52.969045992940664" lon="-6.232637017965317">
        <ele>213.55000000000001</ele>
        <time>2026-07-09T13:24:59Z</time>
      </trkpt>
      <trkpt lat="52.969116987660527" lon="-6.23242998495698">
        <ele>211.15000000000001</ele>
        <time>2026-07-09T13:25:01Z</time>
      </trkpt>
      <trkpt lat="52.96968000009656" lon="-6.230785958468914">
        <ele>203.46000000000001</ele>
        <time>2026-07-09T13:25:08Z</time>
      </trkpt>
      <trkpt lat="52.969830958172679" lon="-6.230439031496644">
        <ele>202.00999999999999</ele>
        <time>2026-07-09T13:25:10Z</time>
      </trkpt>
      <trkpt lat="52.970013013109565" lon="-6.230220012366772">
        <ele>201.05000000000001</ele>
        <time>2026-07-09T13:25:12Z</time>
      </trkpt>
      <trkpt lat="52.970198001712561" lon="-6.230078022927046">
        <ele>201.05000000000001</ele>
        <time>2026-07-09T13:25:14Z</time>
      </trkpt>
      <trkpt lat="52.970291040837765" lon="-6.230000993236899">
        <ele>201.53</ele>
        <time>2026-07-09T13:25:15Z</time>
      </trkpt>
      <trkpt lat="52.971340036019683" lon="-6.229390036314726">
        <ele>204.41999999999999</ele>
        <time>2026-07-09T13:25:24Z</time>
      </trkpt>
      <trkpt lat="52.971472973003983" lon="-6.229354999959469">
        <ele>204.41999999999999</ele>
        <time>2026-07-09T13:25:25Z</time>
      </trkpt>
      <trkpt lat="52.971594007685781" lon="-6.229354999959469">
        <ele>204.90000000000001</ele>
        <time>2026-07-09T13:25:26Z</time>
      </trkpt>
      <trkpt lat="52.972487015649676" lon="-6.229180991649628">
        <ele>204.90000000000001</ele>
        <time>2026-07-09T13:25:33Z</time>
      </trkpt>
      <trkpt lat="52.972617018967867" lon="-6.229114020243287">
        <ele>204.41999999999999</ele>
        <time>2026-07-09T13:25:34Z</time>
      </trkpt>
      <trkpt lat="52.972739981487393" lon="-6.229050988331437">
        <ele>203.94</ele>
        <time>2026-07-09T13:25:35Z</time>
      </trkpt>
      <trkpt lat="52.97286101616919" lon="-6.228984016925097">
        <ele>202.49000000000001</ele>
        <time>2026-07-09T13:25:36Z</time>
      </trkpt>
      <trkpt lat="52.972941985353827" lon="-6.228861976414919">
        <ele>201.53</ele>
        <time>2026-07-09T13:25:37Z</time>
      </trkpt>
      <trkpt lat="52.972991019487381" lon="-6.228673970326781">
        <ele>200.56999999999999</ele>
        <time>2026-07-09T13:25:38Z</time>
      </trkpt>
      <trkpt lat="52.973037958145142" lon="-6.22849602252245">
        <ele>199.13</ele>
        <time>2026-07-09T13:25:39Z</time>
      </trkpt>
      <trkpt lat="52.973307017236948" lon="-6.227225996553898">
        <ele>192.40000000000001</ele>
        <time>2026-07-09T13:25:45Z</time>
      </trkpt>
      <trkpt lat="52.973345993086696" lon="-6.22701401822269">
        <ele>191.44</ele>
        <time>2026-07-09T13:25:46Z</time>
      </trkpt>
      <trkpt lat="52.973384968936443" lon="-6.22680002823472">
        <ele>190.47999999999999</ele>
        <time>2026-07-09T13:25:47Z</time>
      </trkpt>
      <trkpt lat="52.97331104055047" lon="-6.225197995081544">
        <ele>184.22999999999999</ele>
        <time>2026-07-09T13:25:54Z</time>
      </trkpt>
      <trkpt lat="52.973292013630271" lon="-6.225002026185393">
        <ele>183.75</ele>
        <time>2026-07-09T13:25:55Z</time>
      </trkpt>
      <trkpt lat="52.973296036943793" lon="-6.224817959591746">
        <ele>183.27000000000001</ele>
        <time>2026-07-09T13:25:56Z</time>
      </trkpt>
      <trkpt lat="52.973319003358483" lon="-6.224645040929318">
        <ele>182.78999999999999</ele>
        <time>2026-07-09T13:25:57Z</time>
      </trkpt>
      <trkpt lat="52.973357979208231" lon="-6.224470026791096">
        <ele>182.31</ele>
        <time>2026-07-09T13:25:58Z</time>
      </trkpt>
      <trkpt lat="52.973582027480006" lon="-6.223465958610177">
        <ele>181.34999999999999</ele>
        <time>2026-07-09T13:26:03Z</time>
      </trkpt>
      <trkpt lat="52.973629971966147" lon="-6.223250962793827">
        <ele>181.34999999999999</ele>
        <time>2026-07-09T13:26:04Z</time>
      </trkpt>
      <trkpt lat="52.973679006099701" lon="-6.223033033311367">
        <ele>181.34999999999999</ele>
        <time>2026-07-09T13:26:05Z</time>
      </trkpt>
      <trkpt lat="52.974158031865954" lon="-6.220983993262053">
        <ele>177.5</ele>
        <time>2026-07-09T13:26:14Z</time>
      </trkpt>
      <trkpt lat="52.974212011322379" lon="-6.220760028809309">
        <ele>177.02000000000001</ele>
        <time>2026-07-09T13:26:15Z</time>
      </trkpt>
      <trkpt lat="52.974261967465281" lon="-6.22054997831583">
        <ele>176.53999999999999</ele>
        <time>2026-07-09T13:26:16Z</time>
      </trkpt>
      <trkpt lat="52.974311001598835" lon="-6.220347974449396">
        <ele>176.06</ele>
        <time>2026-07-09T13:26:17Z</time>
      </trkpt>
      <trkpt lat="52.974356012418866" lon="-6.220158962532878">
        <ele>176.06</ele>
        <time>2026-07-09T13:26:18Z</time>
      </trkpt>
      <trkpt lat="52.974441004917026" lon="-6.21999098919332">
        <ele>175.58000000000001</ele>
        <time>2026-07-09T13:26:19Z</time>
      </trkpt>
      <trkpt lat="52.974611995741725" lon="-6.219664011150599">
        <ele>175.58000000000001</ele>
        <time>2026-07-09T13:26:20Z</time>
      </trkpt>
      <trkpt lat="52.97470897436142" lon="-6.219498971477151">
        <ele>175.09999999999999</ele>
        <time>2026-07-09T13:26:22Z</time>
      </trkpt>
      <trkpt lat="52.975472984835505" lon="-6.218048986047506">
        <ele>166.44999999999999</ele>
        <time>2026-07-09T13:26:31Z</time>
      </trkpt>
      <trkpt lat="52.975511038675904" lon="-6.217780010774732">
        <ele>164.52000000000001</ele>
        <time>2026-07-09T13:26:32Z</time>
      </trkpt>
      <trkpt lat="52.975501986220479" lon="-6.217596028000116">
        <ele>162.59999999999999</ele>
        <time>2026-07-09T13:26:33Z</time>
      </trkpt>
      <trkpt lat="52.975492011755705" lon="-6.217397963628173">
        <ele>159.72</ele>
        <time>2026-07-09T13:26:35Z</time>
      </trkpt>
      <trkpt lat="52.975482037290931" lon="-6.217204006388784">
        <ele>158.27000000000001</ele>
        <time>2026-07-09T13:26:36Z</time>
      </trkpt>
      <trkpt lat="52.975473990663886" lon="-6.217038966715336">
        <ele>156.34999999999999</ele>
        <time>2026-07-09T13:26:37Z</time>
      </trkpt>
      <trkpt lat="52.975511960685253" lon="-6.216855989769101">
        <ele>154.43000000000001</ele>
        <time>2026-07-09T13:26:38Z</time>
      </trkpt>
      <trkpt lat="52.975624026730657" lon="-6.215893998742104">
        <ele>147.69999999999999</ele>
        <time>2026-07-09T13:26:43Z</time>
      </trkpt>
      <trkpt lat="52.97561002895236" lon="-6.215730970725417">
        <ele>147.22</ele>
        <time>2026-07-09T13:26:44Z</time>
      </trkpt>
      <trkpt lat="52.975338036194444" lon="-6.214550966396928">
        <ele>144.81999999999999</ele>
        <time>2026-07-09T13:26:50Z</time>
      </trkpt>
      <trkpt lat="52.975294031202793" lon="-6.214358014985919">
        <ele>144.34</ele>
        <time>2026-07-09T13:26:51Z</time>
      </trkpt>
      <trkpt lat="52.975252959877253" lon="-6.214177971705794">
        <ele>144.34</ele>
        <time>2026-07-09T13:26:52Z</time>
      </trkpt>
      <trkpt lat="52.975129997357726" lon="-6.213635997846723">
        <ele>142.88999999999999</ele>
        <time>2026-07-09T13:26:55Z</time>
      </trkpt>
      <trkpt lat="52.97509403899312" lon="-6.213472969830036">
        <ele>142.41</ele>
        <time>2026-07-09T13:26:56Z</time>
      </trkpt>
      <trkpt lat="52.975065959617496" lon="-6.213347995653749">
        <ele>142.41</ele>
        <time>2026-07-09T13:26:57Z</time>
      </trkpt>
      <trkpt lat="52.97500996850431" lon="-6.213267026469111">
        <ele>141.93000000000001</ele>
        <time>2026-07-09T13:26:58Z</time>
      </trkpt>
      <trkpt lat="52.974955989047885" lon="-6.213188990950584">
        <ele>141.93000000000001</ele>
        <time>2026-07-09T13:26:59Z</time>
      </trkpt>
      <trkpt lat="52.974894968792796" lon="-6.213100980967283">
        <ele>141.44999999999999</ele>
        <time>2026-07-09T13:27:00Z</time>
      </trkpt>
      <trkpt lat="52.974873008206487" lon="-6.212968965992332">
        <ele>141.44999999999999</ele>
        <time>2026-07-09T13:27:01Z</time>
      </trkpt>
      <trkpt lat="52.974873008206487" lon="-6.212833011522889">
        <ele>140.97</ele>
        <time>2026-07-09T13:27:02Z</time>
      </trkpt>
      <trkpt lat="52.974893962964416" lon="-6.212719017639756">
        <ele>139.53</ele>
        <time>2026-07-09T13:27:03Z</time>
      </trkpt>
      <trkpt lat="52.974921958521008" lon="-6.21255699545145">
        <ele>139.05000000000001</ele>
        <time>2026-07-09T13:27:04Z</time>
      </trkpt>
      <trkpt lat="52.974954983219504" lon="-6.212378041818738">
        <ele>138.09</ele>
        <time>2026-07-09T13:27:05Z</time>
      </trkpt>
      <trkpt lat="52.974979961290956" lon="-6.21223202906549">
        <ele>136.63999999999999</ele>
        <time>2026-07-09T13:27:06Z</time>
      </trkpt>
      <trkpt lat="52.975047016516328" lon="-6.212056009098887">
        <ele>135.68000000000001</ele>
        <time>2026-07-09T13:27:07Z</time>
      </trkpt>
      <trkpt lat="52.975108958780766" lon="-6.21188904158771">
        <ele>134.72</ele>
        <time>2026-07-09T13:27:08Z</time>
      </trkpt>
      <trkpt lat="52.975196968764067" lon="-6.211753003299236">
        <ele>133.75999999999999</ele>
        <time>2026-07-09T13:27:09Z</time>
      </trkpt>
      <trkpt lat="52.975295959040523" lon="-6.211600033566356">
        <ele>132.80000000000001</ele>
        <time>2026-07-09T13:27:10Z</time>
      </trkpt>
      <trkpt lat="52.975391009822488" lon="-6.211452009156346">
        <ele>131.84</ele>
        <time>2026-07-09T13:27:11Z</time>
      </trkpt>
      <trkpt lat="52.975479019805789" lon="-6.211315970867872">
        <ele>130.88</ele>
        <time>2026-07-09T13:27:12Z</time>
      </trkpt>
      <trkpt lat="52.975575998425484" lon="-6.211140034720302">
        <ele>129.43000000000001</ele>
        <time>2026-07-09T13:27:13Z</time>
      </trkpt>
      <trkpt lat="52.975647998973727" lon="-6.210978012531996">
        <ele>128.47</ele>
        <time>2026-07-09T13:27:14Z</time>
      </trkpt>
      <trkpt lat="52.975728968158364" lon="-6.210777014493942">
        <ele>127.51000000000001</ele>
        <time>2026-07-09T13:27:15Z</time>
      </trkpt>
      <trkpt lat="52.97623498365283" lon="-6.209141034632921">
        <ele>120.3</ele>
        <time>2026-07-09T13:27:23Z</time>
      </trkpt>
      <trkpt lat="52.976302038878202" lon="-6.208925032988191">
        <ele>119.81999999999999</ele>
        <time>2026-07-09T13:27:24Z</time>
      </trkpt>
      <trkpt lat="52.97636398114264" lon="-6.208725962787867">
        <ele>119.34</ele>
        <time>2026-07-09T13:27:25Z</time>
      </trkpt>
      <trkpt lat="52.976681990548968" lon="-6.207483010366559">
        <ele>118.86</ele>
        <time>2026-07-09T13:27:32Z</time>
      </trkpt>
      <trkpt lat="52.976709986105561" lon="-6.207363987341523">
        <ele>121.26000000000001</ele>
        <time>2026-07-09T13:27:33Z</time>
      </trkpt>
      <trkpt lat="52.976729013025761" lon="-6.207282012328506">
        <ele>122.22</ele>
        <time>2026-07-09T13:27:34Z</time>
      </trkpt>
      <trkpt lat="52.976761031895876" lon="-6.207146979868412">
        <ele>139.53</ele>
        <time>2026-07-09T13:27:43Z</time>
      </trkpt>
      <trkpt lat="52.976761031895876" lon="-6.207146979868412">
        <ele>141.93000000000001</ele>
        <time>2026-07-09T13:27:44Z</time>
      </trkpt>
      <trkpt lat="52.97666396945715" lon="-6.207146979868412">
        <ele>144.34</ele>
        <time>2026-07-09T13:27:45Z</time>
      </trkpt>
      <trkpt lat="52.97666497528553" lon="-6.207146979868412">
        <ele>145.78</ele>
        <time>2026-07-09T13:27:46Z</time>
      </trkpt>
      <trkpt lat="52.976602027192712" lon="-6.207146979868412">
        <ele>147.69999999999999</ele>
        <time>2026-07-09T13:27:47Z</time>
      </trkpt>
      <trkpt lat="52.976545030251145" lon="-6.207146979868412">
        <ele>148.66</ele>
        <time>2026-07-09T13:27:48Z</time>
      </trkpt>
      <trkpt lat="52.976430030539632" lon="-6.207111021503806">
        <ele>150.09999999999999</ele>
        <time>2026-07-09T13:27:49Z</time>
      </trkpt>
      <trkpt lat="52.976401029154658" lon="-6.20701395906508">
        <ele>151.06</ele>
        <time>2026-07-09T13:27:50Z</time>
      </trkpt>
      <trkpt lat="52.97636297531426" lon="-6.206888984888792">
        <ele>152.03</ele>
        <time>2026-07-09T13:27:51Z</time>
      </trkpt>
      <trkpt lat="52.975939018651843" lon="-6.205283012241125">
        <ele>157.78999999999999</ele>
        <time>2026-07-09T13:27:59Z</time>
      </trkpt>
      <trkpt lat="52.975204009562731" lon="-6.202166033908725">
        <ele>167.41</ele>
        <time>2026-07-09T13:28:10Z</time>
      </trkpt>
      <trkpt lat="52.974634040147066" lon="-6.199751039966941">
        <ele>170.28999999999999</ele>
        <time>2026-07-09T13:28:20Z</time>
      </trkpt>
      <trkpt lat="52.974061975255609" lon="-6.197324981912971">
        <ele>170.77000000000001</ele>
        <time>2026-07-09T13:28:29Z</time>
      </trkpt>
      <trkpt lat="52.973594013601542" lon="-6.195337967947125">
        <ele>172.21000000000001</ele>
        <time>2026-07-09T13:28:37Z</time>
      </trkpt>
      <trkpt lat="52.973371976986527" lon="-6.19440003298223">
        <ele>173.66</ele>
        <time>2026-07-09T13:28:41Z</time>
      </trkpt>
      <trkpt lat="52.973307017236948" lon="-6.19412200525403">
        <ele>174.13999999999999</ele>
        <time>2026-07-09T13:28:42Z</time>
      </trkpt>
      <trkpt lat="52.973238034173846" lon="-6.193945985287428">
        <ele>174.13999999999999</ele>
        <time>2026-07-09T13:28:43Z</time>
      </trkpt>
      <trkpt lat="52.972337985411286" lon="-6.192287961021066">
        <ele>176.06</ele>
        <time>2026-07-09T13:28:52Z</time>
      </trkpt>
      <trkpt lat="52.972251987084746" lon="-6.192137002944946">
        <ele>176.53999999999999</ele>
        <time>2026-07-09T13:28:53Z</time>
      </trkpt>
      <trkpt lat="52.972233965992928" lon="-6.192104984074831">
        <ele>177.02000000000001</ele>
        <time>2026-07-09T13:28:54Z</time>
      </trkpt>
      <trkpt lat="52.972051994875073" lon="-6.191913960501552">
        <ele>177.02000000000001</ele>
        <time>2026-07-09T13:28:55Z</time>
      </trkpt>
      <trkpt lat="52.971947975456715" lon="-6.191899040713906">
        <ele>177.02000000000001</ele>
        <time>2026-07-09T13:28:56Z</time>
      </trkpt>
      <trkpt lat="52.97183096408844" lon="-6.191902980208397">
        <ele>177.02000000000001</ele>
        <time>2026-07-09T13:28:57Z</time>
      </trkpt>
      <trkpt lat="52.971697021275759" lon="-6.191932987421751">
        <ele>177.02000000000001</ele>
        <time>2026-07-09T13:28:58Z</time>
      </trkpt>
      <trkpt lat="52.971153035759926" lon="-6.192234987393022">
        <ele>177.5</ele>
        <time>2026-07-09T13:29:02Z</time>
      </trkpt>
      <trkpt lat="52.971020014956594" lon="-6.192269017919898">
        <ele>177.5</ele>
        <time>2026-07-09T13:29:03Z</time>
      </trkpt>
      <trkpt lat="52.970890011638403" lon="-6.192287961021066">
        <ele>177.02000000000001</ele>
        <time>2026-07-09T13:29:04Z</time>
      </trkpt>
      <trkpt lat="52.970766965299845" lon="-6.192304976284504">
        <ele>177.02000000000001</ele>
        <time>2026-07-09T13:29:05Z</time>
      </trkpt>
      <trkpt lat="52.970650037750602" lon="-6.192312017083168">
        <ele>177.02000000000001</ele>
        <time>2026-07-09T13:29:06Z</time>
      </trkpt>
      <trkpt lat="52.969946041703224" lon="-6.192030971869826">
        <ele>178.46000000000001</ele>
        <time>2026-07-09T13:29:11Z</time>
      </trkpt>
      <trkpt lat="52.969800028949976" lon="-6.191972969099879">
        <ele>178.46000000000001</ele>
        <time>2026-07-09T13:29:12Z</time>
      </trkpt>
      <trkpt lat="52.969365008175373" lon="-6.191988978534937">
        <ele>177.5</ele>
        <time>2026-07-09T13:29:15Z</time>
      </trkpt>
      <trkpt lat="52.969131991267204" lon="-6.192028038203716">
        <ele>175.58000000000001</ele>
        <time>2026-07-09T13:29:17Z</time>
      </trkpt>
      <trkpt lat="52.968145022168756" lon="-6.191799966618419">
        <ele>169.33000000000001</ele>
        <time>2026-07-09T13:29:23Z</time>
      </trkpt>
      <trkpt lat="52.968001021072268" lon="-6.191757973283529">
        <ele>167.88999999999999</ele>
        <time>2026-07-09T13:29:25Z</time>
      </trkpt>
      <trkpt lat="52.967716958373785" lon="-6.191654959693551">
        <ele>165.47999999999999</ele>
        <time>2026-07-09T13:29:27Z</time>
      </trkpt>
      <trkpt lat="52.967591984197497" lon="-6.191585976630449">
        <ele>164.03999999999999</ele>
        <time>2026-07-09T13:29:28Z</time>
      </trkpt>
      <trkpt lat="52.967482013627887" lon="-6.191525040194392">
        <ele>162.59999999999999</ele>
        <time>2026-07-09T13:29:29Z</time>
      </trkpt>
      <trkpt lat="52.967405989766121" lon="-6.191482963040471">
        <ele>161.63999999999999</ele>
        <time>2026-07-09T13:29:30Z</time>
      </trkpt>
      <trkpt lat="52.967337006703019" lon="-6.191399982199073">
        <ele>160.19999999999999</ele>
        <time>2026-07-09T13:29:31Z</time>
      </trkpt>
      <trkpt lat="52.967299036681652" lon="-6.191353965550661">
        <ele>158.75</ele>
        <time>2026-07-09T13:29:32Z</time>
      </trkpt>
      <trkpt lat="52.967262994498014" lon="-6.191219016909599">
        <ele>157.78999999999999</ele>
        <time>2026-07-09T13:29:33Z</time>
      </trkpt>
      <trkpt lat="52.967228963971138" lon="-6.191094964742661">
        <ele>156.83000000000001</ele>
        <time>2026-07-09T13:29:34Z</time>
      </trkpt>
      <trkpt lat="52.967159980908036" lon="-6.190965967252851">
        <ele>155.87</ele>
        <time>2026-07-09T13:29:35Z</time>
      </trkpt>
      <trkpt lat="52.967127040028572" lon="-6.190924979746342">
        <ele>154.91</ele>
        <time>2026-07-09T13:29:36Z</time>
      </trkpt>
      <trkpt lat="52.967032995074987" lon="-6.190908970311284">
        <ele>153.94999999999999</ele>
        <time>2026-07-09T13:29:37Z</time>
      </trkpt>
      <trkpt lat="52.966959988698363" lon="-6.190975019708276">
        <ele>152.50999999999999</ele>
        <time>2026-07-09T13:29:38Z</time>
      </trkpt>
      <trkpt lat="52.966881031170487" lon="-6.191124971956015">
        <ele>152.03</ele>
        <time>2026-07-09T13:29:39Z</time>
      </trkpt>
      <trkpt lat="52.966881031170487" lon="-6.191124971956015">
        <ele>151.06</ele>
        <time>2026-07-09T13:29:40Z</time>
      </trkpt>
      <trkpt lat="52.96684498898685" lon="-6.191193033009768">
        <ele>150.09999999999999</ele>
        <time>2026-07-09T13:29:41Z</time>
      </trkpt>
      <trkpt lat="52.966796038672328" lon="-6.191267967224121">
        <ele>149.62</ele>
        <time>2026-07-09T13:29:42Z</time>
      </trkpt>
      <trkpt lat="52.966708028689027" lon="-6.191243994981051">
        <ele>148.66</ele>
        <time>2026-07-09T13:29:43Z</time>
      </trkpt>
      <trkpt lat="52.966621024534106" lon="-6.191179035231471">
        <ele>147.22</ele>
        <time>2026-07-09T13:29:44Z</time>
      </trkpt>
      <trkpt lat="52.966512981802225" lon="-6.191098988056183">
        <ele>146.74000000000001</ele>
        <time>2026-07-09T13:29:45Z</time>
      </trkpt>
      <trkpt lat="52.966396976262331" lon="-6.191012989729643">
        <ele>146.25999999999999</ele>
        <time>2026-07-09T13:29:46Z</time>
      </trkpt>
      <trkpt lat="52.966282982379198" lon="-6.190929003059864">
        <ele>145.78</ele>
        <time>2026-07-09T13:29:47Z</time>
      </trkpt>
      <trkpt lat="52.966161025688052" lon="-6.190838981419802">
        <ele>145.30000000000001</ele>
        <time>2026-07-09T13:29:48Z</time>
      </trkpt>
      <trkpt lat="52.966086007654667" lon="-6.190804028883576">
        <ele>144.34</ele>
        <time>2026-07-09T13:29:49Z</time>
      </trkpt>
      <trkpt lat="52.965946029871702" lon="-6.190739991143346">
        <ele>142.41</ele>
        <time>2026-07-09T13:29:51Z</time>
      </trkpt>
      <trkpt lat="52.965881992131472" lon="-6.190709983929992">
        <ele>141.93000000000001</ele>
        <time>2026-07-09T13:29:52Z</time>
      </trkpt>
      <trkpt lat="52.965781996026635" lon="-6.190443020313978">
        <ele>140.97</ele>
        <time>2026-07-09T13:29:53Z</time>
      </trkpt>
      <trkpt lat="52.965734973549843" lon="-6.19031997397542">
        <ele>139.05000000000001</ele>
        <time>2026-07-09T13:29:55Z</time>
      </trkpt>
      <trkpt lat="52.965543027967215" lon="-6.189812030643225">
        <ele>136.63999999999999</ele>
        <time>2026-07-09T13:29:58Z</time>
      </trkpt>
      <trkpt lat="52.965487036854029" lon="-6.18956602178514">
        <ele>135.68000000000001</ele>
        <time>2026-07-09T13:29:59Z</time>
      </trkpt>
      <trkpt lat="52.965329037979245" lon="-6.188629008829594">
        <ele>131.84</ele>
        <time>2026-07-09T13:30:03Z</time>
      </trkpt>
      <trkpt lat="52.965289978310466" lon="-6.188394986093044">
        <ele>130.88</ele>
        <time>2026-07-09T13:30:04Z</time>
      </trkpt>
      <trkpt lat="52.96525502577424" lon="-6.188190970569849">
        <ele>129.91999999999999</ele>
        <time>2026-07-09T13:30:05Z</time>
      </trkpt>
      <trkpt lat="52.965200962498784" lon="-6.18804001249373">
        <ele>128.94999999999999</ele>
        <time>2026-07-09T13:30:06Z</time>
      </trkpt>
      <trkpt lat="52.965114964172244" lon="-6.187919983640313">
        <ele>128.47</ele>
        <time>2026-07-09T13:30:07Z</time>
      </trkpt>
      <trkpt lat="52.964938022196293" lon="-6.187673974782229">
        <ele>127.03</ele>
        <time>2026-07-09T13:30:09Z</time>
      </trkpt>
      <trkpt lat="52.964852023869753" lon="-6.187556041404605">
        <ele>126.55</ele>
        <time>2026-07-09T13:30:10Z</time>
      </trkpt>
      <trkpt lat="52.964798966422677" lon="-6.187365017831326">
        <ele>126.06999999999999</ele>
        <time>2026-07-09T13:30:11Z</time>
      </trkpt>
      <trkpt lat="52.964753033593297" lon="-6.187200983986259">
        <ele>125.59</ele>
        <time>2026-07-09T13:30:12Z</time>
      </trkpt>
      <trkpt lat="52.964701987802982" lon="-6.187023036181927">
        <ele>124.63</ele>
        <time>2026-07-09T13:30:13Z</time>
      </trkpt>
      <trkpt lat="52.964648008346558" lon="-6.186830000951886">
        <ele>124.15000000000001</ele>
        <time>2026-07-09T13:30:14Z</time>
      </trkpt>
      <trkpt lat="52.964534014463425" lon="-6.186423981562257">
        <ele>122.22</ele>
        <time>2026-07-09T13:30:16Z</time>
      </trkpt>
      <trkpt lat="52.964474000036716" lon="-6.186212003231049">
        <ele>121.26000000000001</ele>
        <time>2026-07-09T13:30:17Z</time>
      </trkpt>
      <trkpt lat="52.964423038065434" lon="-6.186031959950924">
        <ele>120.3</ele>
        <time>2026-07-09T13:30:18Z</time>
      </trkpt>
      <trkpt lat="52.963702026754618" lon="-6.184761011973023">
        <ele>115.01000000000001</ele>
        <time>2026-07-09T13:30:25Z</time>
      </trkpt>
      <trkpt lat="52.963066007941961" lon="-6.183080021291971">
        <ele>109.25</ele>
        <time>2026-07-09T13:30:32Z</time>
      </trkpt>
      <trkpt lat="52.963003981858492" lon="-6.18290601298213">
        <ele>108.29000000000001</ele>
        <time>2026-07-09T13:30:33Z</time>
      </trkpt>
      <trkpt lat="52.962514981627464" lon="-6.181716034188867">
        <ele>104.92</ele>
        <time>2026-07-09T13:30:40Z</time>
      </trkpt>
      <trkpt lat="52.962009971961379" lon="-6.180846998468041">
        <ele>103</ele>
        <time>2026-07-09T13:30:45Z</time>
      </trkpt>
      <trkpt lat="52.961904024705291" lon="-6.180668966844678">
        <ele>102.52</ele>
        <time>2026-07-09T13:30:46Z</time>
      </trkpt>
      <trkpt lat="52.96168701723218" lon="-6.180307036265731">
        <ele>101.56</ele>
        <time>2026-07-09T13:30:48Z</time>
      </trkpt>
      <trkpt lat="52.960989978164434" lon="-6.178892003372312">
        <ele>100.11</ele>
        <time>2026-07-09T13:30:55Z</time>
      </trkpt>
      <trkpt lat="52.960239965468645" lon="-6.177576966583729">
        <ele>99.150000000000006</ele>
        <time>2026-07-09T13:31:02Z</time>
      </trkpt>
      <trkpt lat="52.959913993254304" lon="-6.177003979682922">
        <ele>96.269999999999996</ele>
        <time>2026-07-09T13:31:05Z</time>
      </trkpt>
      <trkpt lat="52.959757000207901" lon="-6.176838018000126">
        <ele>95.790000000000006</ele>
        <time>2026-07-09T13:31:06Z</time>
      </trkpt>
      <trkpt lat="52.959618028253317" lon="-6.176723018288612">
        <ele>94.829999999999998</ele>
        <time>2026-07-09T13:31:07Z</time>
      </trkpt>
      <trkpt lat="52.959165992215276" lon="-6.176436021924019">
        <ele>92.420000000000002</ele>
        <time>2026-07-09T13:31:10Z</time>
      </trkpt>
      <trkpt lat="52.958867009729147" lon="-6.176263019442558">
        <ele>91.939999999999998</ele>
        <time>2026-07-09T13:31:12Z</time>
      </trkpt>
      <trkpt lat="52.958732983097434" lon="-6.176185989752412">
        <ele>92.420000000000002</ele>
        <time>2026-07-09T13:31:13Z</time>
      </trkpt>
      <trkpt lat="52.958480017259717" lon="-6.176018016412854">
        <ele>92.900000000000006</ele>
        <time>2026-07-09T13:31:15Z</time>
      </trkpt>
      <trkpt lat="52.95835898257792" lon="-6.175908967852593">
        <ele>93.870000000000005</ele>
        <time>2026-07-09T13:31:16Z</time>
      </trkpt>
      <trkpt lat="52.957976013422012" lon="-6.175563968718052">
        <ele>93.870000000000005</ele>
        <time>2026-07-09T13:31:19Z</time>
      </trkpt>
      <trkpt lat="52.957847015932202" lon="-6.175447963178158">
        <ele>94.349999999999994</ele>
        <time>2026-07-09T13:31:20Z</time>
      </trkpt>
      <trkpt lat="52.957719024270773" lon="-6.175332041457295">
        <ele>93.870000000000005</ele>
        <time>2026-07-09T13:31:21Z</time>
      </trkpt>
      <trkpt lat="52.956662988290191" lon="-6.174382036551833">
        <ele>88.099999999999994</ele>
        <time>2026-07-09T13:31:30Z</time>
      </trkpt>
      <trkpt lat="52.956555029377341" lon="-6.174284974113107">
        <ele>87.620000000000005</ele>
        <time>2026-07-09T13:31:31Z</time>
      </trkpt>
      <trkpt lat="52.95569303445518" lon="-6.173509983345866">
        <ele>83.769999999999996</ele>
        <time>2026-07-09T13:31:40Z</time>
      </trkpt>
      <trkpt lat="52.955057015642524" lon="-6.17285099811852">
        <ele>85.209999999999994</ele>
        <time>2026-07-09T13:31:47Z</time>
      </trkpt>
      <trkpt lat="52.9548130184412" lon="-6.172640025615692">
        <ele>85.689999999999998</ele>
        <time>2026-07-09T13:31:50Z</time>
      </trkpt>
      <trkpt lat="52.954697012901306" lon="-6.172467023134232">
        <ele>85.209999999999994</ele>
        <time>2026-07-09T13:31:52Z</time>
      </trkpt>
      <trkpt lat="52.954644039273262" lon="-6.172367027029395">
        <ele>84.730000000000004</ele>
        <time>2026-07-09T13:31:53Z</time>
      </trkpt>
      <trkpt lat="52.954573966562748" lon="-6.172235012054443">
        <ele>84.25</ele>
        <time>2026-07-09T13:31:54Z</time>
      </trkpt>
      <trkpt lat="52.954510012641549" lon="-6.171816000714898">
        <ele>80.409999999999997</ele>
        <time>2026-07-09T13:31:59Z</time>
      </trkpt>
      <trkpt lat="52.954510012641549" lon="-6.171747017651796">
        <ele>78.480000000000004</ele>
        <time>2026-07-09T13:32:05Z</time>
      </trkpt>
      <trkpt lat="52.954454021528363" lon="-6.171655990183353">
        <ele>78</ele>
        <time>2026-07-09T13:32:06Z</time>
      </trkpt>
      <trkpt lat="52.954415967687964" lon="-6.171655990183353">
        <ele>78</ele>
        <time>2026-07-09T13:32:07Z</time>
      </trkpt>
      <trkpt lat="52.954092007130384" lon="-6.171630006283522">
        <ele>77.519999999999996</ele>
        <time>2026-07-09T13:32:11Z</time>
      </trkpt>
      <trkpt lat="52.953968960791826" lon="-6.171611985191703">
        <ele>77.519999999999996</ele>
        <time>2026-07-09T13:32:12Z</time>
      </trkpt>
      <trkpt lat="52.953838035464287" lon="-6.171593964099884">
        <ele>77.519999999999996</ele>
        <time>2026-07-09T13:32:13Z</time>
      </trkpt>
      <trkpt lat="52.953724041581154" lon="-6.171687003225088">
        <ele>78</ele>
        <time>2026-07-09T13:32:14Z</time>
      </trkpt>
      <trkpt lat="52.953599989414215" lon="-6.171806026250124">
        <ele>78.480000000000004</ele>
        <time>2026-07-09T13:32:15Z</time>
      </trkpt>
      <trkpt lat="52.952583013102412" lon="-6.172683024778962">
        <ele>81.370000000000005</ele>
        <time>2026-07-09T13:32:21Z</time>
      </trkpt>
      <trkpt lat="52.951551033183932" lon="-6.173639986664057">
        <ele>79.930000000000007</ele>
        <time>2026-07-09T13:32:27Z</time>
      </trkpt>
      <trkpt lat="52.950478987768292" lon="-6.174856033176184">
        <ele>78.969999999999999</ele>
        <time>2026-07-09T13:32:36Z</time>
      </trkpt>
      <trkpt lat="52.95038896612823" lon="-6.174958040937781">
        <ele>78.480000000000004</ele>
        <time>2026-07-09T13:32:37Z</time>
      </trkpt>
      <trkpt lat="52.950320988893509" lon="-6.175035992637277">
        <ele>78.480000000000004</ele>
        <time>2026-07-09T13:32:38Z</time>
      </trkpt>
      <trkpt lat="52.950274972245097" lon="-6.175088966265321">
        <ele>78.480000000000004</ele>
        <time>2026-07-09T13:32:39Z</time>
      </trkpt>
      <trkpt lat="52.950183022767305" lon="-6.175062982365489">
        <ele>78</ele>
        <time>2026-07-09T13:32:40Z</time>
      </trkpt>
      <trkpt lat="52.950155027210712" lon="-6.174990981817246">
        <ele>77.519999999999996</ele>
        <time>2026-07-09T13:32:41Z</time>
      </trkpt>
      <trkpt lat="52.950114039704204" lon="-6.174886040389538">
        <ele>77.519999999999996</ele>
        <time>2026-07-09T13:32:42Z</time>
      </trkpt>
      <trkpt lat="52.949701985344291" lon="-6.173722967505455">
        <ele>74.640000000000001</ele>
        <time>2026-07-09T13:32:48Z</time>
      </trkpt>
      <trkpt lat="52.949060015380383" lon="-6.171768978238106">
        <ele>75.120000000000005</ele>
        <time>2026-07-09T13:32:56Z</time>
      </trkpt>
      <trkpt lat="52.949000000953674" lon="-6.171588012948632">
        <ele>74.640000000000001</ele>
        <time>2026-07-09T13:32:57Z</time>
      </trkpt>
      <trkpt lat="52.948695989325643" lon="-6.169809037819505">
        <ele>73.200000000000003</ele>
        <time>2026-07-09T13:33:05Z</time>
      </trkpt>
      <trkpt lat="52.948310002684593" lon="-6.166227031499147">
        <ele>74.159999999999997</ele>
        <time>2026-07-09T13:33:16Z</time>
      </trkpt>
      <trkpt lat="52.947890991345048" lon="-6.163498973473907">
        <ele>74.640000000000001</ele>
        <time>2026-07-09T13:33:26Z</time>
      </trkpt>
      <trkpt lat="52.947448007762432" lon="-6.161019019782543">
        <ele>77.040000000000006</ele>
        <time>2026-07-09T13:33:35Z</time>
      </trkpt>
      <trkpt lat="52.947368966415524" lon="-6.160793965682387">
        <ele>77.040000000000006</ele>
        <time>2026-07-09T13:33:36Z</time>
      </trkpt>
      <trkpt lat="52.947290008887649" lon="-6.160570001229644">
        <ele>77.040000000000006</ele>
        <time>2026-07-09T13:33:37Z</time>
      </trkpt>
      <trkpt lat="52.9468659684062" lon="-6.159277008846402">
        <ele>77.040000000000006</ele>
        <time>2026-07-09T13:33:43Z</time>
      </trkpt>
      <trkpt lat="52.946816012263298" lon="-6.159095037728548">
        <ele>77.519999999999996</ele>
        <time>2026-07-09T13:33:44Z</time>
      </trkpt>
      <trkpt lat="52.94682196341455" lon="-6.158921029418707">
        <ele>77.519999999999996</ele>
        <time>2026-07-09T13:33:45Z</time>
      </trkpt>
      <trkpt lat="52.946839984506369" lon="-6.158763030543923">
        <ele>77.519999999999996</ele>
        <time>2026-07-09T13:33:46Z</time>
      </trkpt>
      <trkpt lat="52.946855993941426" lon="-6.158610982820392">
        <ele>77.519999999999996</ele>
        <time>2026-07-09T13:33:47Z</time>
      </trkpt>
      <trkpt lat="52.946882983669639" lon="-6.158457007259131">
        <ele>77.519999999999996</ele>
        <time>2026-07-09T13:33:48Z</time>
      </trkpt>
      <trkpt lat="52.946940986439586" lon="-6.158342007547617">
        <ele>77.519999999999996</ele>
        <time>2026-07-09T13:33:49Z</time>
      </trkpt>
      <trkpt lat="52.946998989209533" lon="-6.158224996179342">
        <ele>77.519999999999996</ele>
        <time>2026-07-09T13:33:50Z</time>
      </trkpt>
      <trkpt lat="52.947062021121383" lon="-6.158099016174674">
        <ele>77.519999999999996</ele>
        <time>2026-07-09T13:33:51Z</time>
      </trkpt>
      <trkpt lat="52.947127986699343" lon="-6.157967001199722">
        <ele>77.040000000000006</ele>
        <time>2026-07-09T13:33:52Z</time>
      </trkpt>
      <trkpt lat="52.947213985025883" lon="-6.157793998718262">
        <ele>77.040000000000006</ele>
        <time>2026-07-09T13:33:53Z</time>
      </trkpt>
      <trkpt lat="52.947242986410856" lon="-6.157665001228452">
        <ele>76.560000000000002</ele>
        <time>2026-07-09T13:33:54Z</time>
      </trkpt>
      <trkpt lat="52.947282968088984" lon="-6.157484035938978">
        <ele>76.079999999999998</ele>
        <time>2026-07-09T13:33:55Z</time>
      </trkpt>
      <trkpt lat="52.947299983352423" lon="-6.157285971567035">
        <ele>75.599999999999994</ele>
        <time>2026-07-09T13:33:56Z</time>
      </trkpt>
      <trkpt lat="52.947299983352423" lon="-6.157083967700601">
        <ele>75.120000000000005</ele>
        <time>2026-07-09T13:33:57Z</time>
      </trkpt>
      <trkpt lat="52.947285985574126" lon="-6.156880035996437">
        <ele>74.640000000000001</ele>
        <time>2026-07-09T13:33:58Z</time>
      </trkpt>
      <trkpt lat="52.94725002720952" lon="-6.156684989109635">
        <ele>74.159999999999997</ele>
        <time>2026-07-09T13:33:59Z</time>
      </trkpt>
      <trkpt lat="52.94708096422255" lon="-6.156147960573435">
        <ele>72.719999999999999</ele>
        <time>2026-07-09T13:34:02Z</time>
      </trkpt>
      <trkpt lat="52.947010975331068" lon="-6.156003037467599">
        <ele>72.719999999999999</ele>
        <time>2026-07-09T13:34:03Z</time>
      </trkpt>
      <trkpt lat="52.946938974782825" lon="-6.15585501305759">
        <ele>72.239999999999995</ele>
        <time>2026-07-09T13:34:04Z</time>
      </trkpt>
      <trkpt lat="52.946849036961794" lon="-6.155670024454594">
        <ele>72.239999999999995</ele>
        <time>2026-07-09T13:34:05Z</time>
      </trkpt>
      <trkpt lat="52.946765972301364" lon="-6.155581008642912">
        <ele>72.239999999999995</ele>
        <time>2026-07-09T13:34:06Z</time>
      </trkpt>
      <trkpt lat="52.946087960153818" lon="-6.154857985675335">
        <ele>70.790000000000006</ele>
        <time>2026-07-09T13:34:13Z</time>
      </trkpt>
      <trkpt lat="52.945774979889393" lon="-6.154522961005569">
        <ele>69.349999999999994</ele>
        <time>2026-07-09T13:34:19Z</time>
      </trkpt>
      <trkpt lat="52.945616981014609" lon="-6.154354987666011">
        <ele>68.870000000000005</ele>
        <time>2026-07-09T13:34:24Z</time>
      </trkpt>
      <trkpt lat="52.945557972416282" lon="-6.154289022088051">
        <ele>68.870000000000005</ele>
        <time>2026-07-09T13:34:25Z</time>
      </trkpt>
      <trkpt lat="52.945500975474715" lon="-6.154178967699409">
        <ele>68.870000000000005</ele>
        <time>2026-07-09T13:34:26Z</time>
      </trkpt>
      <trkpt lat="52.945437021553516" lon="-6.154057011008263">
        <ele>68.870000000000005</ele>
        <time>2026-07-09T13:34:27Z</time>
      </trkpt>
      <trkpt lat="52.945247003808618" lon="-6.153590977191925">
        <ele>68.870000000000005</ele>
        <time>2026-07-09T13:34:30Z</time>
      </trkpt>
      <trkpt lat="52.944609979167581" lon="-6.151549983769655">
        <ele>64.549999999999997</ele>
        <time>2026-07-09T13:34:39Z</time>
      </trkpt>
      <trkpt lat="52.944012014195323" lon="-6.149739995598793">
        <ele>63.579999999999998</ele>
        <time>2026-07-09T13:34:46Z</time>
      </trkpt>
      <trkpt lat="52.94321003369987" lon="-6.14820702932775">
        <ele>65.510000000000005</ele>
        <time>2026-07-09T13:34:52Z</time>
      </trkpt>
      <trkpt lat="52.942080991342664" lon="-6.146062016487122">
        <ele>62.619999999999997</ele>
        <time>2026-07-09T13:35:01Z</time>
      </trkpt>
      <trkpt lat="52.94112604111433" lon="-6.144182039424777">
        <ele>58.780000000000001</ele>
        <time>2026-07-09T13:35:10Z</time>
      </trkpt>
      <trkpt lat="52.941046999767423" lon="-6.143964026123285">
        <ele>58.780000000000001</ele>
        <time>2026-07-09T13:35:11Z</time>
      </trkpt>
      <trkpt lat="52.940799985080957" lon="-6.143208984285593">
        <ele>58.780000000000001</ele>
        <time>2026-07-09T13:35:14Z</time>
      </trkpt>
      <trkpt lat="52.940729996189475" lon="-6.142896004021168">
        <ele>58.780000000000001</ele>
        <time>2026-07-09T13:35:15Z</time>
      </trkpt>
      <trkpt lat="52.940663024783134" lon="-6.142592998221517">
        <ele>58.299999999999997</ele>
        <time>2026-07-09T13:35:16Z</time>
      </trkpt>
      <trkpt lat="52.940291035920382" lon="-6.140917958691716">
        <ele>57.340000000000003</ele>
        <time>2026-07-09T13:35:23Z</time>
      </trkpt>
      <trkpt lat="52.940125996246934" lon="-6.140175992622972">
        <ele>56.859999999999999</ele>
        <time>2026-07-09T13:35:28Z</time>
      </trkpt>
      <trkpt lat="52.940061958506703" lon="-6.139848008751869">
        <ele>56.859999999999999</ele>
        <time>2026-07-09T13:35:31Z</time>
      </trkpt>
      <trkpt lat="52.940146028995514" lon="-6.139679029583931">
        <ele>56.369999999999997</ele>
        <time>2026-07-09T13:35:38Z</time>
      </trkpt>
      <trkpt lat="52.940328000113368" lon="-6.139087015762925">
        <ele>57.340000000000003</ele>
        <time>2026-07-09T13:35:42Z</time>
      </trkpt>
      <trkpt lat="52.940574008971453" lon="-6.137610040605068">
        <ele>58.780000000000001</ele>
        <time>2026-07-09T13:35:48Z</time>
      </trkpt>
      <trkpt lat="52.941009029746056" lon="-6.13628301769495">
        <ele>59.259999999999998</ele>
        <time>2026-07-09T13:35:53Z</time>
      </trkpt>
      <trkpt lat="52.941360985860229" lon="-6.134470012038946">
        <ele>58.299999999999997</ele>
        <time>2026-07-09T13:36:00Z</time>
      </trkpt>
      <trkpt lat="52.941781003028154" lon="-6.132299015298486">
        <ele>58.780000000000001</ele>
        <time>2026-07-09T13:36:11Z</time>
      </trkpt>
      <trkpt lat="52.942122984677553" lon="-6.130650965496898">
        <ele>59.740000000000002</ele>
        <time>2026-07-09T13:36:18Z</time>
      </trkpt>
      <trkpt lat="52.942176964133978" lon="-6.130435969680548">
        <ele>59.740000000000002</ele>
        <time>2026-07-09T13:36:19Z</time>
      </trkpt>
      <trkpt lat="52.942933011800051" lon="-6.129297036677599">
        <ele>60.219999999999999</ele>
        <time>2026-07-09T13:36:26Z</time>
      </trkpt>
      <trkpt lat="52.944063981994987" lon="-6.127659967169166">
        <ele>61.659999999999997</ele>
        <time>2026-07-09T13:36:34Z</time>
      </trkpt>
      <trkpt lat="52.945024967193604" lon="-6.125717964023352">
        <ele>64.069999999999993</ele>
        <time>2026-07-09T13:36:43Z</time>
      </trkpt>
      <trkpt lat="52.945860978215933" lon="-6.124431006610394">
        <ele>70.310000000000002</ele>
        <time>2026-07-09T13:36:51Z</time>
      </trkpt>
      <trkpt lat="52.946831015869975" lon="-6.122915977612138">
        <ele>70.790000000000006</ele>
        <time>2026-07-09T13:37:00Z</time>
      </trkpt>
      <trkpt lat="52.947396039962769" lon="-6.121984999626875">
        <ele>69.829999999999998</ele>
        <time>2026-07-09T13:37:04Z</time>
      </trkpt>
      <trkpt lat="52.947793006896973" lon="-6.12122300080955">
        <ele>69.349999999999994</ele>
        <time>2026-07-09T13:37:09Z</time>
      </trkpt>
      <trkpt lat="52.947887973859906" lon="-6.121038012206554">
        <ele>69.349999999999994</ele>
        <time>2026-07-09T13:37:10Z</time>
      </trkpt>
      <trkpt lat="52.948286030441523" lon="-6.12019001506269">
        <ele>70.790000000000006</ele>
        <time>2026-07-09T13:37:15Z</time>
      </trkpt>
      <trkpt lat="52.94836800545454" lon="-6.120010977610946">
        <ele>71.269999999999996</ele>
        <time>2026-07-09T13:37:16Z</time>
      </trkpt>
      <trkpt lat="52.948694983497262" lon="-6.119299018755555">
        <ele>72.239999999999995</ele>
        <time>2026-07-09T13:37:20Z</time>
      </trkpt>
      <trkpt lat="52.949207033962011" lon="-6.117836041375995">
        <ele>72.239999999999995</ele>
        <time>2026-07-09T13:37:27Z</time>
      </trkpt>
      <trkpt lat="52.949267970398068" lon="-6.117661027237773">
        <ele>71.760000000000005</ele>
        <time>2026-07-09T13:37:28Z</time>
      </trkpt>
      <trkpt lat="52.949831988662481" lon="-6.116098975762725">
        <ele>70.790000000000006</ele>
        <time>2026-07-09T13:37:36Z</time>
      </trkpt>
      <trkpt lat="52.950617037713528" lon="-6.113992016762495">
        <ele>69.349999999999994</ele>
        <time>2026-07-09T13:37:46Z</time>
      </trkpt>
      <trkpt lat="52.95068996027112" lon="-6.113812979310751">
        <ele>69.829999999999998</ele>
        <time>2026-07-09T13:37:47Z</time>
      </trkpt>
      <trkpt lat="52.951370989903808" lon="-6.112141963094473">
        <ele>70.790000000000006</ele>
        <time>2026-07-09T13:37:56Z</time>
      </trkpt>
      <trkpt lat="52.952080015093088" lon="-6.110424008220434">
        <ele>69.829999999999998</ele>
        <time>2026-07-09T13:38:04Z</time>
      </trkpt>
      <trkpt lat="52.952791973948479" lon="-6.108632041141391">
        <ele>69.349999999999994</ele>
        <time>2026-07-09T13:38:13Z</time>
      </trkpt>
      <trkpt lat="52.953450959175825" lon="-6.106813000515103">
        <ele>69.829999999999998</ele>
        <time>2026-07-09T13:38:22Z</time>
      </trkpt>
      <trkpt lat="52.953562019392848" lon="-6.106314025819302">
        <ele>69.829999999999998</ele>
        <time>2026-07-09T13:38:23Z</time>
      </trkpt>
      <trkpt lat="52.95361096970737" lon="-6.106043960899115">
        <ele>69.349999999999994</ele>
        <time>2026-07-09T13:38:24Z</time>
      </trkpt>
      <trkpt lat="52.953622033819556" lon="-6.105758976191282">
        <ele>69.349999999999994</ele>
        <time>2026-07-09T13:38:25Z</time>
      </trkpt>
      <trkpt lat="52.953620022162795" lon="-6.105457982048392">
        <ele>68.870000000000005</ele>
        <time>2026-07-09T13:38:26Z</time>
      </trkpt>
      <trkpt lat="52.953592026606202" lon="-6.105160005390644">
        <ele>67.909999999999997</ele>
        <time>2026-07-09T13:38:28Z</time>
      </trkpt>
      <trkpt lat="52.953253984451294" lon="-6.102368999272585">
        <ele>64.549999999999997</ele>
        <time>2026-07-09T13:38:37Z</time>
      </trkpt>
      <trkpt lat="52.953235963359475" lon="-6.101815039291978">
        <ele>64.549999999999997</ele>
        <time>2026-07-09T13:38:40Z</time>
      </trkpt>
      <trkpt lat="52.953259013593197" lon="-6.101527037099004">
        <ele>64.549999999999997</ele>
        <time>2026-07-09T13:38:41Z</time>
      </trkpt>
      <trkpt lat="52.953282985836267" lon="-6.10123903490603">
        <ele>65.030000000000001</ele>
        <time>2026-07-09T13:38:42Z</time>
      </trkpt>
      <trkpt lat="52.953327996656299" lon="-6.100960001349449">
        <ele>65.030000000000001</ele>
        <time>2026-07-09T13:38:43Z</time>
      </trkpt>
      <trkpt lat="52.953612981364131" lon="-6.099558966234326">
        <ele>65.989999999999995</ele>
        <time>2026-07-09T13:38:50Z</time>
      </trkpt>
      <trkpt lat="52.953650029376149" lon="-6.099416976794601">
        <ele>65.510000000000005</ele>
        <time>2026-07-09T13:38:51Z</time>
      </trkpt>
      <trkpt lat="52.953684981912374" lon="-6.099282028153539">
        <ele>65.510000000000005</ele>
        <time>2026-07-09T13:38:52Z</time>
      </trkpt>
      <trkpt lat="52.953746002167463" lon="-6.099045993760228">
        <ele>65.989999999999995</ele>
        <time>2026-07-09T13:38:53Z</time>
      </trkpt>
      <trkpt lat="52.95386603102088" lon="-6.098979022353888">
        <ele>65.989999999999995</ele>
        <time>2026-07-09T13:38:55Z</time>
      </trkpt>
      <trkpt lat="52.953982958570123" lon="-6.09885698184371">
        <ele>65.989999999999995</ele>
        <time>2026-07-09T13:38:56Z</time>
      </trkpt>
      <trkpt lat="52.954025035724044" lon="-6.098753968253732">
        <ele>65.989999999999995</ele>
        <time>2026-07-09T13:38:57Z</time>
      </trkpt>
      <trkpt lat="52.954009026288986" lon="-6.098627988249064">
        <ele>65.989999999999995</ele>
        <time>2026-07-09T13:38:58Z</time>
      </trkpt>
      <trkpt lat="52.954009026288986" lon="-6.098626982420683">
        <ele>65.989999999999995</ele>
        <time>2026-07-09T13:38:59Z</time>
      </trkpt>
      <trkpt lat="52.95395202934742" lon="-6.098441993817687">
        <ele>65.989999999999995</ele>
        <time>2026-07-09T13:39:00Z</time>
      </trkpt>
      <trkpt lat="52.953785983845592" lon="-6.098077967762947">
        <ele>64.069999999999993</ele>
        <time>2026-07-09T13:39:03Z</time>
      </trkpt>
      <trkpt lat="52.953751031309366" lon="-6.097886022180319">
        <ele>63.579999999999998</ele>
        <time>2026-07-09T13:39:04Z</time>
      </trkpt>
      <trkpt lat="52.953420029953122" lon="-6.096235038712621">
        <ele>61.18</ele>
        <time>2026-07-09T13:39:11Z</time>
      </trkpt>
      <trkpt lat="52.953382981941104" lon="-6.096073016524315">
        <ele>60.700000000000003</ele>
        <time>2026-07-09T13:39:12Z</time>
      </trkpt>
      <trkpt lat="52.953457999974489" lon="-6.09576003625989">
        <ele>60.700000000000003</ele>
        <time>2026-07-09T13:39:13Z</time>
      </trkpt>
      <trkpt lat="52.953453976660967" lon="-6.095699016004801">
        <ele>60.700000000000003</ele>
        <time>2026-07-09T13:39:14Z</time>
      </trkpt>
      <trkpt lat="52.953441990539432" lon="-6.095544034615159">
        <ele>60.219999999999999</ele>
        <time>2026-07-09T13:39:15Z</time>
      </trkpt>
      <trkpt lat="52.953384993597865" lon="-6.095407996326685">
        <ele>60.219999999999999</ele>
        <time>2026-07-09T13:39:16Z</time>
      </trkpt>
      <trkpt lat="52.95333000831306" lon="-6.095330966636539">
        <ele>60.219999999999999</ele>
        <time>2026-07-09T13:39:17Z</time>
      </trkpt>
      <trkpt lat="52.95333000831306" lon="-6.095330966636539">
        <ele>60.219999999999999</ele>
        <time>2026-07-09T13:39:18Z</time>
      </trkpt>
      <trkpt lat="52.953133033588529" lon="-6.095156958326697">
        <ele>60.219999999999999</ele>
        <time>2026-07-09T13:39:19Z</time>
      </trkpt>
      <trkpt lat="52.95309497974813" lon="-6.094996025785804">
        <ele>60.219999999999999</ele>
        <time>2026-07-09T13:39:20Z</time>
      </trkpt>
      <trkpt lat="52.95305198058486" lon="-6.094812965020537">
        <ele>60.219999999999999</ele>
        <time>2026-07-09T13:39:21Z</time>
      </trkpt>
      <trkpt lat="52.953004036098719" lon="-6.094611966982484">
        <ele>60.219999999999999</ele>
        <time>2026-07-09T13:39:22Z</time>
      </trkpt>
      <trkpt lat="52.952963970601559" lon="-6.094380039721727">
        <ele>59.740000000000002</ele>
        <time>2026-07-09T13:39:23Z</time>
      </trkpt>
      <trkpt lat="52.952847965061665" lon="-6.092386990785599">
        <ele>57.82</ele>
        <time>2026-07-09T13:39:30Z</time>
      </trkpt>
      <trkpt lat="52.952970005571842" lon="-6.089453995227814">
        <ele>58.780000000000001</ele>
        <time>2026-07-09T13:39:39Z</time>
      </trkpt>
      <trkpt lat="52.952891970053315" lon="-6.086369035765529">
        <ele>59.259999999999998</ele>
        <time>2026-07-09T13:39:49Z</time>
      </trkpt>
      <trkpt lat="52.952655013650656" lon="-6.082880990579724">
        <ele>63.100000000000001</ele>
        <time>2026-07-09T13:40:01Z</time>
      </trkpt>
      <trkpt lat="52.952484022825956" lon="-6.079289009794593">
        <ele>68.870000000000005</ele>
        <time>2026-07-09T13:40:14Z</time>
      </trkpt>
      <trkpt lat="52.952486034482718" lon="-6.078040022403002">
        <ele>70.790000000000006</ele>
        <time>2026-07-09T13:40:17Z</time>
      </trkpt>
      <trkpt lat="52.952538002282381" lon="-6.077764006331563">
        <ele>71.269999999999996</ele>
        <time>2026-07-09T13:40:18Z</time>
      </trkpt>
      <trkpt lat="52.952538002282381" lon="-6.077764006331563">
        <ele>71.760000000000005</ele>
        <time>2026-07-09T13:40:19Z</time>
      </trkpt>
      <trkpt lat="52.952699018642306" lon="-6.07724298723042">
        <ele>72.239999999999995</ele>
        <time>2026-07-09T13:40:20Z</time>
      </trkpt>
      <trkpt lat="52.952786022797227" lon="-6.076974011957645">
        <ele>72.719999999999999</ele>
        <time>2026-07-09T13:40:21Z</time>
      </trkpt>
      <trkpt lat="52.953455988317728" lon="-6.075440039858222">
        <ele>73.200000000000003</ele>
        <time>2026-07-09T13:40:27Z</time>
      </trkpt>
      <trkpt lat="52.95356897637248" lon="-6.075181039050221">
        <ele>72.719999999999999</ele>
        <time>2026-07-09T13:40:28Z</time>
      </trkpt>
      <trkpt lat="52.95403903350234" lon="-6.074219970032573">
        <ele>71.269999999999996</ele>
        <time>2026-07-09T13:40:32Z</time>
      </trkpt>
      <trkpt lat="52.95403903350234" lon="-6.074219970032573">
        <ele>70.790000000000006</ele>
        <time>2026-07-09T13:40:33Z</time>
      </trkpt>
      <trkpt lat="52.954457039013505" lon="-6.073671961203218">
        <ele>70.310000000000002</ele>
        <time>2026-07-09T13:40:35Z</time>
      </trkpt>
      <trkpt lat="52.955791018903255" lon="-6.072569992393255">
        <ele>65.989999999999995</ele>
        <time>2026-07-09T13:40:43Z</time>
      </trkpt>
      <trkpt lat="52.955939965322614" lon="-6.072421967983246">
        <ele>65.989999999999995</ele>
        <time>2026-07-09T13:40:44Z</time>
      </trkpt>
      <trkpt lat="52.956085978075862" lon="-6.072275033220649">
        <ele>65.510000000000005</ele>
        <time>2026-07-09T13:40:45Z</time>
      </trkpt>
      <trkpt lat="52.956225033849478" lon="-6.072114016860724">
        <ele>65.510000000000005</ele>
        <time>2026-07-09T13:40:46Z</time>
      </trkpt>
      <trkpt lat="52.956344978883862" lon="-6.071927016600967">
        <ele>65.510000000000005</ele>
        <time>2026-07-09T13:40:47Z</time>
      </trkpt>
      <trkpt lat="52.956452015787363" lon="-6.071715960279107">
        <ele>65.989999999999995</ele>
        <time>2026-07-09T13:40:48Z</time>
      </trkpt>
      <trkpt lat="52.956555029377341" lon="-6.071494007483125">
        <ele>65.989999999999995</ele>
        <time>2026-07-09T13:40:49Z</time>
      </trkpt>
      <trkpt lat="52.956887036561966" lon="-6.07049698010087">
        <ele>65.989999999999995</ele>
        <time>2026-07-09T13:40:53Z</time>
      </trkpt>
      <trkpt lat="52.956989966332912" lon="-6.070287013426423">
        <ele>65.989999999999995</ele>
        <time>2026-07-09T13:40:54Z</time>
      </trkpt>
      <trkpt lat="52.957095997408032" lon="-6.070074029266834">
        <ele>65.989999999999995</ele>
        <time>2026-07-09T13:40:55Z</time>
      </trkpt>
      <trkpt lat="52.957228012382984" lon="-6.069875964894891">
        <ele>66.469999999999999</ele>
        <time>2026-07-09T13:40:56Z</time>
      </trkpt>
      <trkpt lat="52.957366984337568" lon="-6.069673961028457">
        <ele>66.469999999999999</ele>
        <time>2026-07-09T13:40:57Z</time>
      </trkpt>
      <trkpt lat="52.958842031657696" lon="-6.067414032295346">
        <ele>69.829999999999998</ele>
        <time>2026-07-09T13:41:08Z</time>
      </trkpt>
      <trkpt lat="52.959513003006577" lon="-6.066266968846321">
        <ele>71.760000000000005</ele>
        <time>2026-07-09T13:41:14Z</time>
      </trkpt>
      <trkpt lat="52.959611993283033" lon="-6.066095978021622">
        <ele>71.760000000000005</ele>
        <time>2026-07-09T13:41:15Z</time>
      </trkpt>
      <trkpt lat="52.959710983559489" lon="-6.065926998853684">
        <ele>71.760000000000005</ele>
        <time>2026-07-09T13:41:16Z</time>
      </trkpt>
      <trkpt lat="52.960128989070654" lon="-6.065212022513151">
        <ele>70.790000000000006</ele>
        <time>2026-07-09T13:41:20Z</time>
      </trkpt>
      <trkpt lat="52.960244994610548" lon="-6.065039020031691">
        <ele>70.790000000000006</ele>
        <time>2026-07-09T13:41:21Z</time>
      </trkpt>
      <trkpt lat="52.961573023349047" lon="-6.063639996573329">
        <ele>74.640000000000001</ele>
        <time>2026-07-09T13:41:30Z</time>
      </trkpt>
      <trkpt lat="52.962536020204425" lon="-6.062730979174376">
        <ele>77.519999999999996</ele>
        <time>2026-07-09T13:41:37Z</time>
      </trkpt>
      <trkpt lat="52.962669041007757" lon="-6.062636012211442">
        <ele>77.519999999999996</ele>
        <time>2026-07-09T13:41:38Z</time>
      </trkpt>
      <trkpt lat="52.962812958285213" lon="-6.062592007219791">
        <ele>78</ele>
        <time>2026-07-09T13:41:39Z</time>
      </trkpt>
      <trkpt lat="52.96295503154397" lon="-6.062548002228141">
        <ele>78.480000000000004</ele>
        <time>2026-07-09T13:41:40Z</time>
      </trkpt>
      <trkpt lat="52.963094003498554" lon="-6.062505003064871">
        <ele>78.969999999999999</ele>
        <time>2026-07-09T13:41:41Z</time>
      </trkpt>
      <trkpt lat="52.963231969624758" lon="-6.062477007508278">
        <ele>78.969999999999999</ele>
        <time>2026-07-09T13:41:42Z</time>
      </trkpt>
      <trkpt lat="52.963623991236091" lon="-6.062463009729981">
        <ele>80.890000000000001</ele>
        <time>2026-07-09T13:41:46Z</time>
      </trkpt>
      <trkpt lat="52.963758017867804" lon="-6.062457980588079">
        <ele>81.849999999999994</ele>
        <time>2026-07-09T13:41:48Z</time>
      </trkpt>
      <trkpt lat="52.963779978454113" lon="-6.062456974759698">
        <ele>82.329999999999998</ele>
        <time>2026-07-09T13:41:49Z</time>
      </trkpt>
      <trkpt lat="52.963750977069139" lon="-6.062411963939667">
        <ele>82.810000000000002</ele>
        <time>2026-07-09T13:41:50Z</time>
      </trkpt>
      <trkpt lat="52.963743014261127" lon="-6.062367958948016">
        <ele>82.810000000000002</ele>
        <time>2026-07-09T13:41:51Z</time>
      </trkpt>
      <trkpt lat="52.963736979290843" lon="-6.062328983098269">
        <ele>83.290000000000006</ele>
        <time>2026-07-09T13:41:52Z</time>
      </trkpt>
      <trkpt lat="52.963736979290843" lon="-6.062328983098269">
        <ele>84.25</ele>
        <time>2026-07-09T13:41:53Z</time>
      </trkpt>
      <trkpt lat="52.96370898373425" lon="-6.06231196783483">
        <ele>84.730000000000004</ele>
        <time>2026-07-09T13:41:54Z</time>
      </trkpt>
      <trkpt lat="52.963658021762967" lon="-6.062280032783747">
        <ele>85.209999999999994</ele>
        <time>2026-07-09T13:41:55Z</time>
      </trkpt>
      <trkpt lat="52.963090986013412" lon="-6.061954982578754">
        <ele>87.140000000000001</ele>
        <time>2026-07-09T13:42:01Z</time>
      </trkpt>
      <trkpt lat="52.96190201304853" lon="-6.061286022886634">
        <ele>94.829999999999998</ele>
        <time>2026-07-09T13:42:09Z</time>
      </trkpt>
      <trkpt lat="52.960513969883323" lon="-6.060320008546114">
        <ele>103.95999999999999</ele>
        <time>2026-07-09T13:42:18Z</time>
      </trkpt>
      <trkpt lat="52.95924000442028" lon="-6.059410991147161">
        <ele>104.92</ele>
        <time>2026-07-09T13:42:27Z</time>
      </trkpt>
      <trkpt lat="52.95908804051578" lon="-6.059313006699085">
        <ele>103.95999999999999</ele>
        <time>2026-07-09T13:42:28Z</time>
      </trkpt>
      <trkpt lat="52.958940016105771" lon="-6.059217033907771">
        <ele>103.48</ele>
        <time>2026-07-09T13:42:29Z</time>
      </trkpt>
      <trkpt lat="52.958262003958225" lon="-6.058372976258397">
        <ele>98.189999999999998</ele>
        <time>2026-07-09T13:42:34Z</time>
      </trkpt>
      <trkpt lat="52.958119008690119" lon="-6.058189999312162">
        <ele>97.709999999999994</ele>
        <time>2026-07-09T13:42:35Z</time>
      </trkpt>
      <trkpt lat="52.957810973748565" lon="-6.05786201544106">
        <ele>95.790000000000006</ele>
        <time>2026-07-09T13:42:37Z</time>
      </trkpt>
      <trkpt lat="52.957204040139914" lon="-6.057201018556953">
        <ele>92.420000000000002</ele>
        <time>2026-07-09T13:42:41Z</time>
      </trkpt>
      <trkpt lat="52.957095997408032" lon="-6.057015024125576">
        <ele>91.459999999999994</ele>
        <time>2026-07-09T13:42:42Z</time>
      </trkpt>
      <trkpt lat="52.956729037687182" lon="-6.056566005572677">
        <ele>90.019999999999996</ele>
        <time>2026-07-09T13:42:45Z</time>
      </trkpt>
      <trkpt lat="52.956599034368992" lon="-6.056417981162667">
        <ele>89.540000000000006</ele>
        <time>2026-07-09T13:42:46Z</time>
      </trkpt>
      <trkpt lat="52.955410983413458" lon="-6.055566966533661">
        <ele>85.689999999999998</ele>
        <time>2026-07-09T13:42:53Z</time>
      </trkpt>
      <trkpt lat="52.953781960532069" lon="-6.054450999945402">
        <ele>78</ele>
        <time>2026-07-09T13:43:02Z</time>
      </trkpt>
      <trkpt lat="52.952352007851005" lon="-6.053330004215241">
        <ele>74.640000000000001</ele>
        <time>2026-07-09T13:43:11Z</time>
      </trkpt>
      <trkpt lat="52.952090995386243" lon="-6.053078966215253">
        <ele>74.159999999999997</ele>
        <time>2026-07-09T13:43:13Z</time>
      </trkpt>
      <trkpt lat="52.951978007331491" lon="-6.052909987047315">
        <ele>73.680000000000007</ele>
        <time>2026-07-09T13:43:14Z</time>
      </trkpt>
      <trkpt lat="52.950691971927881" lon="-6.050952980294824">
        <ele>71.269999999999996</ele>
        <time>2026-07-09T13:43:25Z</time>
      </trkpt>
      <trkpt lat="52.949943970888853" lon="-6.050166003406048">
        <ele>69.829999999999998</ele>
        <time>2026-07-09T13:43:31Z</time>
      </trkpt>
      <trkpt lat="52.949804998934269" lon="-6.050072964280844">
        <ele>69.349999999999994</ele>
        <time>2026-07-09T13:43:32Z</time>
      </trkpt>
      <trkpt lat="52.948572020977736" lon="-6.049263020977378">
        <ele>67.430000000000007</ele>
        <time>2026-07-09T13:43:40Z</time>
      </trkpt>
      <trkpt lat="52.947032013908029" lon="-6.04825702495873">
        <ele>72.239999999999995</ele>
        <time>2026-07-09T13:43:50Z</time>
      </trkpt>
      <trkpt lat="52.945998022332788" lon="-6.047540036961436">
        <ele>75.599999999999994</ele>
        <time>2026-07-09T13:43:58Z</time>
      </trkpt>
      <trkpt lat="52.944962019100785" lon="-6.046781977638602">
        <ele>75.120000000000005</ele>
        <time>2026-07-09T13:44:06Z</time>
      </trkpt>
      <trkpt lat="52.943540029227734" lon="-6.045687971636653">
        <ele>79.450000000000003</ele>
        <time>2026-07-09T13:44:16Z</time>
      </trkpt>
      <trkpt lat="52.943241968750954" lon="-6.045527961105108">
        <ele>79.930000000000007</ele>
        <time>2026-07-09T13:44:18Z</time>
      </trkpt>
      <trkpt lat="52.943081958219409" lon="-6.045483034104109">
        <ele>79.930000000000007</ele>
        <time>2026-07-09T13:44:19Z</time>
      </trkpt>
      <trkpt lat="52.942921025678515" lon="-6.045437017455697">
        <ele>79.450000000000003</ele>
        <time>2026-07-09T13:44:20Z</time>
      </trkpt>
      <trkpt lat="52.942623971030116" lon="-6.045312965288758">
        <ele>79.450000000000003</ele>
        <time>2026-07-09T13:44:22Z</time>
      </trkpt>
      <trkpt lat="52.942493967711926" lon="-6.045214980840683">
        <ele>78.969999999999999</ele>
        <time>2026-07-09T13:44:23Z</time>
      </trkpt>
      <trkpt lat="52.942376034334302" lon="-6.045124037191272">
        <ele>78.480000000000004</ele>
        <time>2026-07-09T13:44:24Z</time>
      </trkpt>
      <trkpt lat="52.942258017137647" lon="-6.045034015551209">
        <ele>78.480000000000004</ele>
        <time>2026-07-09T13:44:25Z</time>
      </trkpt>
      <trkpt lat="52.942144023254514" lon="-6.044914992526174">
        <ele>78.480000000000004</ele>
        <time>2026-07-09T13:44:26Z</time>
      </trkpt>
      <trkpt lat="52.941523008048534" lon="-6.044264975935221">
        <ele>80.409999999999997</ele>
        <time>2026-07-09T13:44:31Z</time>
      </trkpt>
      <trkpt lat="52.940077967941761" lon="-6.042881039902568">
        <ele>77.040000000000006</ele>
        <time>2026-07-09T13:44:41Z</time>
      </trkpt>
      <trkpt lat="52.939971014857292" lon="-6.042721029371023">
        <ele>75.599999999999994</ele>
        <time>2026-07-09T13:44:42Z</time>
      </trkpt>
      <trkpt lat="52.939875964075327" lon="-6.04252397082746">
        <ele>74.640000000000001</ele>
        <time>2026-07-09T13:44:43Z</time>
      </trkpt>
      <trkpt lat="52.939109019935131" lon="-6.040735021233559">
        <ele>68.870000000000005</ele>
        <time>2026-07-09T13:44:52Z</time>
      </trkpt>
      <trkpt lat="52.939061997458339" lon="-6.040624966844916">
        <ele>68.390000000000001</ele>
        <time>2026-07-09T13:44:53Z</time>
      </trkpt>
      <trkpt lat="52.939034001901746" lon="-6.040559001266956">
        <ele>68.390000000000001</ele>
        <time>2026-07-09T13:44:54Z</time>
      </trkpt>
      <trkpt lat="52.939034001901746" lon="-6.040559001266956">
        <ele>68.390000000000001</ele>
        <time>2026-07-09T13:44:55Z</time>
      </trkpt>
      <trkpt lat="52.938993014395237" lon="-6.040464034304023">
        <ele>67.430000000000007</ele>
        <time>2026-07-09T13:45:00Z</time>
      </trkpt>
      <trkpt lat="52.938951021060348" lon="-6.040422040969133">
        <ele>66.950000000000003</ele>
        <time>2026-07-09T13:45:01Z</time>
      </trkpt>
      <trkpt lat="52.938883965834975" lon="-6.040427992120385">
        <ele>66.469999999999999</ele>
        <time>2026-07-09T13:45:02Z</time>
      </trkpt>
      <trkpt lat="52.938159015029669" lon="-6.040485994890332">
        <ele>61.659999999999997</ele>
        <time>2026-07-09T13:45:08Z</time>
      </trkpt>
      <trkpt lat="52.936942968517542" lon="-6.040768967941403">
        <ele>54.450000000000003</ele>
        <time>2026-07-09T13:45:15Z</time>
      </trkpt>
      <trkpt lat="52.935591973364353" lon="-6.041155038401485">
        <ele>48.200000000000003</ele>
        <time>2026-07-09T13:45:23Z</time>
      </trkpt>
      <trkpt lat="52.93416797183454" lon="-6.041289987042546">
        <ele>40.990000000000002</ele>
        <time>2026-07-09T13:45:32Z</time>
      </trkpt>
      <trkpt lat="52.933690035715699" lon="-6.041381014510989">
        <ele>40.990000000000002</ele>
        <time>2026-07-09T13:45:35Z</time>
      </trkpt>
      <trkpt lat="52.933530025184155" lon="-6.041411021724343">
        <ele>40.990000000000002</ele>
        <time>2026-07-09T13:45:36Z</time>
      </trkpt>
      <trkpt lat="52.932243989780545" lon="-6.041354024782777">
        <ele>40.030000000000001</ele>
        <time>2026-07-09T13:45:44Z</time>
      </trkpt>
      <trkpt lat="52.930610021576285" lon="-6.041411021724343">
        <ele>36.189999999999998</ele>
        <time>2026-07-09T13:45:54Z</time>
      </trkpt>
      <trkpt lat="52.930292012169957" lon="-6.041435999795795">
        <ele>35.710000000000001</ele>
        <time>2026-07-09T13:45:56Z</time>
      </trkpt>
      <trkpt lat="52.930142981931567" lon="-6.04144899174571">
        <ele>35.229999999999997</ele>
        <time>2026-07-09T13:45:57Z</time>
      </trkpt>
      <trkpt lat="52.930012978613377" lon="-6.041458966210485">
        <ele>35.229999999999997</ele>
        <time>2026-07-09T13:45:58Z</time>
      </trkpt>
      <trkpt lat="52.929896973073483" lon="-6.04146902449429">
        <ele>34.740000000000002</ele>
        <time>2026-07-09T13:45:59Z</time>
      </trkpt>
      <trkpt lat="52.929793959483504" lon="-6.041458966210485">
        <ele>34.740000000000002</ele>
        <time>2026-07-09T13:46:00Z</time>
      </trkpt>
      <trkpt lat="52.929711984470487" lon="-6.041442034766078">
        <ele>34.740000000000002</ele>
        <time>2026-07-09T13:46:01Z</time>
      </trkpt>
      <trkpt lat="52.929656999185681" lon="-6.041429964825511">
        <ele>34.259999999999998</ele>
        <time>2026-07-09T13:46:02Z</time>
      </trkpt>
      <trkpt lat="52.929567983374" lon="-6.041259979829192">
        <ele>34.259999999999998</ele>
        <time>2026-07-09T13:46:03Z</time>
      </trkpt>
      <trkpt lat="52.929577035829425" lon="-6.04117096401751">
        <ele>33.780000000000001</ele>
        <time>2026-07-09T13:46:04Z</time>
      </trkpt>
      <trkpt lat="52.929586004465818" lon="-6.041064010933042">
        <ele>33.780000000000001</ele>
        <time>2026-07-09T13:46:05Z</time>
      </trkpt>
      <trkpt lat="52.929596984758973" lon="-6.040946999564767">
        <ele>33.299999999999997</ele>
        <time>2026-07-09T13:46:06Z</time>
      </trkpt>
      <trkpt lat="52.929609976708889" lon="-6.040808027610183">
        <ele>32.82</ele>
        <time>2026-07-09T13:46:07Z</time>
      </trkpt>
      <trkpt lat="52.929662028327584" lon="-6.040249038487673">
        <ele>31.859999999999999</ele>
        <time>2026-07-09T13:46:09Z</time>
      </trkpt>
      <trkpt lat="52.929659010842443" lon="-6.040277034044266">
        <ele>31.379999999999999</ele>
        <time>2026-07-09T13:46:10Z</time>
      </trkpt>
      <trkpt lat="52.929704021662474" lon="-6.040046028792858">
        <ele>30.899999999999999</ele>
        <time>2026-07-09T13:46:11Z</time>
      </trkpt>
      <trkpt lat="52.930473983287811" lon="-6.037220992147923">
        <ele>30.420000000000002</ele>
        <time>2026-07-09T13:46:20Z</time>
      </trkpt>
      <trkpt lat="52.931294990703464" lon="-6.034294031560421">
        <ele>28.5</ele>
        <time>2026-07-09T13:46:31Z</time>
      </trkpt>
      <trkpt lat="52.93178197927773" lon="-6.032654028385878">
        <ele>28.02</ele>
        <time>2026-07-09T13:46:38Z</time>
      </trkpt>
      <trkpt lat="52.931841993704438" lon="-6.032465016469359">
        <ele>28.02</ele>
        <time>2026-07-09T13:46:39Z</time>
      </trkpt>
      <trkpt lat="52.932032011449337" lon="-6.032166033983231">
        <ele>28.5</ele>
        <time>2026-07-09T13:46:41Z</time>
      </trkpt>
      <trkpt lat="52.932759979739785" lon="-6.031323987990618">
        <ele>29.460000000000001</ele>
        <time>2026-07-09T13:46:48Z</time>
      </trkpt>
      <trkpt lat="52.933777961879969" lon="-6.030186982825398">
        <ele>27.530000000000001</ele>
        <time>2026-07-09T13:46:58Z</time>
      </trkpt>
      <trkpt lat="52.934985039755702" lon="-6.028837999328971">
        <ele>26.57</ele>
        <time>2026-07-09T13:47:07Z</time>
      </trkpt>
      <trkpt lat="52.936715986579657" lon="-6.02690395899117">
        <ele>27.530000000000001</ele>
        <time>2026-07-09T13:47:18Z</time>
      </trkpt>
      <trkpt lat="52.938900981098413" lon="-6.024461975321174">
        <ele>27.530000000000001</ele>
        <time>2026-07-09T13:47:31Z</time>
      </trkpt>
      <trkpt lat="52.94067501090467" lon="-6.022490970790386">
        <ele>25.609999999999999</ele>
        <time>2026-07-09T13:47:41Z</time>
      </trkpt>
      <trkpt lat="52.941729035228491" lon="-6.021457985043526">
        <ele>24.649999999999999</ele>
        <time>2026-07-09T13:47:49Z</time>
      </trkpt>
      <trkpt lat="52.942965030670166" lon="-6.02101600728929">
        <ele>20.809999999999999</ele>
        <time>2026-07-09T13:47:57Z</time>
      </trkpt>
      <trkpt lat="52.944267997518182" lon="-6.020575035363436">
        <ele>21.77</ele>
        <time>2026-07-09T13:48:05Z</time>
      </trkpt>
      <trkpt lat="52.945421012118459" lon="-6.020190976560116">
        <ele>22.73</ele>
        <time>2026-07-09T13:48:10Z</time>
      </trkpt>
      <trkpt lat="52.947093034163117" lon="-6.019609021022916">
        <ele>26.09</ele>
        <time>2026-07-09T13:48:18Z</time>
      </trkpt>
      <trkpt lat="52.947285985574126" lon="-6.019541965797544">
        <ele>26.09</ele>
        <time>2026-07-09T13:48:19Z</time>
      </trkpt>
      <trkpt lat="52.948619965463877" lon="-6.018537981435657">
        <ele>28.02</ele>
        <time>2026-07-09T13:48:27Z</time>
      </trkpt>
      <trkpt lat="52.949701985344291" lon="-6.017829962074757">
        <ele>28.02</ele>
        <time>2026-07-09T13:48:34Z</time>
      </trkpt>
      <trkpt lat="52.951134033501148" lon="-6.017469959333539">
        <ele>32.82</ele>
        <time>2026-07-09T13:48:41Z</time>
      </trkpt>
      <trkpt lat="52.953258007764816" lon="-6.017432995140553">
        <ele>41.469999999999999</ele>
        <time>2026-07-09T13:48:53Z</time>
      </trkpt>
      <trkpt lat="52.954390989616513" lon="-6.01716997101903">
        <ele>39.07</ele>
        <time>2026-07-09T13:48:59Z</time>
      </trkpt>
      <trkpt lat="52.954562986269593" lon="-6.017054971307516">
        <ele>38.590000000000003</ele>
        <time>2026-07-09T13:49:00Z</time>
      </trkpt>
      <trkpt lat="52.954719979315996" lon="-6.016915999352932">
        <ele>38.109999999999999</ele>
        <time>2026-07-09T13:49:01Z</time>
      </trkpt>
      <trkpt lat="52.956235008314252" lon="-6.014667972922325">
        <ele>41.469999999999999</ele>
        <time>2026-07-09T13:49:12Z</time>
      </trkpt>
      <trkpt lat="52.957874005660415" lon="-6.012245016172528">
        <ele>47.719999999999999</ele>
        <time>2026-07-09T13:49:24Z</time>
      </trkpt>
      <trkpt lat="52.959418036043644" lon="-6.010773992165923">
        <ele>49.159999999999997</ele>
        <time>2026-07-09T13:49:34Z</time>
      </trkpt>
      <trkpt lat="52.959858002141118" lon="-6.010527983307838">
        <ele>49.159999999999997</ele>
        <time>2026-07-09T13:49:37Z</time>
      </trkpt>
      <trkpt lat="52.959979958832264" lon="-6.010460006073117">
        <ele>49.649999999999999</ele>
        <time>2026-07-09T13:49:38Z</time>
      </trkpt>
      <trkpt lat="52.960084984079003" lon="-6.010433016344905">
        <ele>49.649999999999999</ele>
        <time>2026-07-09T13:49:39Z</time>
      </trkpt>
      <trkpt lat="52.960181962698698" lon="-6.010460006073117">
        <ele>49.649999999999999</ele>
        <time>2026-07-09T13:49:40Z</time>
      </trkpt>
      <trkpt lat="52.960276007652283" lon="-6.01048699580133">
        <ele>49.649999999999999</ele>
        <time>2026-07-09T13:49:41Z</time>
      </trkpt>
      <trkpt lat="52.961389040574431" lon="-6.010931991040707">
        <ele>49.159999999999997</ele>
        <time>2026-07-09T13:49:51Z</time>
      </trkpt>
      <trkpt lat="52.962594022974372" lon="-6.012039994820952">
        <ele>49.649999999999999</ele>
        <time>2026-07-09T13:50:00Z</time>
      </trkpt>
      <trkpt lat="52.963996985927224" lon="-6.013247994706035">
        <ele>46.759999999999998</ele>
        <time>2026-07-09T13:50:11Z</time>
      </trkpt>
      <trkpt lat="52.965368013828993" lon="-6.014365972951055">
        <ele>45.799999999999997</ele>
        <time>2026-07-09T13:50:22Z</time>
      </trkpt>
      <trkpt lat="52.966753961518407" lon="-6.015260992571712">
        <ele>46.759999999999998</ele>
        <time>2026-07-09T13:50:31Z</time>
      </trkpt>
      <trkpt lat="52.96835096552968" lon="-6.016141008585692">
        <ele>49.159999999999997</ele>
        <time>2026-07-09T13:50:41Z</time>
      </trkpt>
      <trkpt lat="52.969256965443492" lon="-6.016866965219379">
        <ele>49.649999999999999</ele>
        <time>2026-07-09T13:50:49Z</time>
      </trkpt>
      <trkpt lat="52.969300970435143" lon="-6.016923040151596">
        <ele>49.649999999999999</ele>
        <time>2026-07-09T13:50:50Z</time>
      </trkpt>
      <trkpt lat="52.969327038154006" lon="-6.016961010172963">
        <ele>49.159999999999997</ele>
        <time>2026-07-09T13:50:51Z</time>
      </trkpt>
      <trkpt lat="52.969345981255174" lon="-6.016987999901176">
        <ele>49.649999999999999</ele>
        <time>2026-07-09T13:50:52Z</time>
      </trkpt>
      <trkpt lat="52.969346987083554" lon="-6.016991017386317">
        <ele>49.649999999999999</ele>
        <time>2026-07-09T13:50:55Z</time>
      </trkpt>
      <trkpt lat="52.969330977648497" lon="-6.016966961324215">
        <ele>49.649999999999999</ele>
        <time>2026-07-09T13:50:56Z</time>
      </trkpt>
      <trkpt lat="52.969310022890568" lon="-6.016935026273131">
        <ele>49.649999999999999</ele>
        <time>2026-07-09T13:50:57Z</time>
      </trkpt>
      <trkpt lat="52.96927297487855" lon="-6.016881968826056">
        <ele>50.130000000000003</ele>
        <time>2026-07-09T13:50:59Z</time>
      </trkpt>
      <trkpt lat="52.96927297487855" lon="-6.016881968826056">
        <ele>50.609999999999999</ele>
        <time>2026-07-09T13:51:00Z</time>
      </trkpt>
      <trkpt lat="52.969135008752346" lon="-6.016752971336246">
        <ele>52.049999999999997</ele>
        <time>2026-07-09T13:51:07Z</time>
      </trkpt>
      <trkpt lat="52.969135008752346" lon="-6.016752971336246">
        <ele>52.049999999999997</ele>
        <time>2026-07-09T13:51:42Z</time>
      </trkpt>
      <trkpt lat="52.969135008752346" lon="-6.016752971336246">
        <ele>52.530000000000001</ele>
        <time>2026-07-09T13:52:34Z</time>
      </trkpt>
      <trkpt lat="52.969135008752346" lon="-6.016752971336246">
        <ele>52.530000000000001</ele>
        <time>2026-07-09T13:53:33Z</time>
      </trkpt>
      <trkpt lat="52.969135008752346" lon="-6.016752971336246">
        <ele>52.530000000000001</ele>
        <time>2026-07-09T13:54:19Z</time>
      </trkpt>
      <trkpt lat="52.969102989882231" lon="-6.016722964122891">
        <ele>52.049999999999997</ele>
        <time>2026-07-09T13:54:37Z</time>
      </trkpt>
      <trkpt lat="52.969102989882231" lon="-6.016722964122891">
        <ele>51.090000000000003</ele>
        <time>2026-07-09T13:55:21Z</time>
      </trkpt>
      <trkpt lat="52.969102989882231" lon="-6.016722964122891">
        <ele>50.609999999999999</ele>
        <time>2026-07-09T13:56:21Z</time>
      </trkpt>
      <trkpt lat="52.969102989882231" lon="-6.016722964122891">
        <ele>49.649999999999999</ele>
        <time>2026-07-09T13:57:17Z</time>
      </trkpt>
      <trkpt lat="52.969102989882231" lon="-6.016722964122891">
        <ele>49.649999999999999</ele>
        <time>2026-07-09T13:58:09Z</time>
      </trkpt>
      <trkpt lat="52.969102989882231" lon="-6.016722964122891">
        <ele>49.649999999999999</ele>
        <time>2026-07-09T13:58:46Z</time>
      </trkpt>
      <trkpt lat="52.969102989882231" lon="-6.016722964122891">
        <ele>49.649999999999999</ele>
        <time>2026-07-09T13:59:03Z</time>
      </trkpt>
      <trkpt lat="52.969083962962031" lon="-6.016705026850104">
        <ele>49.159999999999997</ele>
        <time>2026-07-09T13:59:07Z</time>
      </trkpt>
      <trkpt lat="52.969148000702262" lon="-6.016764035448432">
        <ele>48.200000000000003</ele>
        <time>2026-07-09T13:59:16Z</time>
      </trkpt>
      <trkpt lat="52.969148000702262" lon="-6.016764035448432">
        <ele>47.719999999999999</ele>
        <time>2026-07-09T14:00:07Z</time>
      </trkpt>
      <trkpt lat="52.969148000702262" lon="-6.016764035448432">
        <ele>47.719999999999999</ele>
        <time>2026-07-09T14:00:42Z</time>
      </trkpt>
      <trkpt lat="52.969189994037151" lon="-6.01680401712656">
        <ele>46.759999999999998</ele>
        <time>2026-07-09T14:00:44Z</time>
      </trkpt>
      <trkpt lat="52.969222012907267" lon="-6.016834024339914">
        <ele>46.759999999999998</ele>
        <time>2026-07-09T14:00:45Z</time>
      </trkpt>
      <trkpt lat="52.96927297487855" lon="-6.016881968826056">
        <ele>46.280000000000001</ele>
        <time>2026-07-09T14:00:46Z</time>
      </trkpt>
      <trkpt lat="52.969300970435143" lon="-6.016923040151596">
        <ele>46.280000000000001</ele>
        <time>2026-07-09T14:00:47Z</time>
      </trkpt>
      <trkpt lat="52.969335000962019" lon="-6.016971990466118">
        <ele>46.280000000000001</ele>
        <time>2026-07-09T14:00:48Z</time>
      </trkpt>
      <trkpt lat="52.969374982640147" lon="-6.017029993236065">
        <ele>47.240000000000002</ele>
        <time>2026-07-09T14:00:53Z</time>
      </trkpt>
      <trkpt lat="52.969439020380378" lon="-6.017124960198999">
        <ele>46.759999999999998</ele>
        <time>2026-07-09T14:00:54Z</time>
      </trkpt>
      <trkpt lat="52.969494005665183" lon="-6.017205007374287">
        <ele>46.759999999999998</ele>
        <time>2026-07-09T14:00:55Z</time>
      </trkpt>
      <trkpt lat="52.970011001452804" lon="-6.018271017819643">
        <ele>44.359999999999999</ele>
        <time>2026-07-09T14:01:03Z</time>
      </trkpt>
      <trkpt lat="52.971022026613355" lon="-6.020619040355086">
        <ele>39.549999999999997</ele>
        <time>2026-07-09T14:01:14Z</time>
      </trkpt>
      <trkpt lat="52.971179019659758" lon="-6.021054983139038">
        <ele>39.549999999999997</ele>
        <time>2026-07-09T14:01:16Z</time>
      </trkpt>
      <trkpt lat="52.971238028258085" lon="-6.021278025582433">
        <ele>39.07</ele>
        <time>2026-07-09T14:01:17Z</time>
      </trkpt>
      <trkpt lat="52.971328971907496" lon="-6.02193902246654">
        <ele>38.590000000000003</ele>
        <time>2026-07-09T14:01:19Z</time>
      </trkpt>
      <trkpt lat="52.971329977735877" lon="-6.022158041596413">
        <ele>38.109999999999999</ele>
        <time>2026-07-09T14:01:20Z</time>
      </trkpt>
      <trkpt lat="52.971323020756245" lon="-6.023287000134587">
        <ele>34.740000000000002</ele>
        <time>2026-07-09T14:01:26Z</time>
      </trkpt>
      <trkpt lat="52.971408013254404" lon="-6.023677010089159">
        <ele>34.259999999999998</ele>
        <time>2026-07-09T14:01:27Z</time>
      </trkpt>
      <trkpt lat="52.971470039337873" lon="-6.023818999528885">
        <ele>32.82</ele>
        <time>2026-07-09T14:01:29Z</time>
      </trkpt>
      <trkpt lat="52.971503986045718" lon="-6.023898040875793">
        <ele>32.82</ele>
        <time>2026-07-09T14:01:30Z</time>
      </trkpt>
      <trkpt lat="52.971673971042037" lon="-6.02395998314023">
        <ele>32.340000000000003</ele>
        <time>2026-07-09T14:01:32Z</time>
      </trkpt>
      <trkpt lat="52.972138999029994" lon="-6.02391597814858">
        <ele>33.299999999999997</ele>
        <time>2026-07-09T14:01:36Z</time>
      </trkpt>
      <trkpt lat="52.972353994846344" lon="-6.024030977860093">
        <ele>33.780000000000001</ele>
        <time>2026-07-09T14:01:37Z</time>
      </trkpt>
      <trkpt lat="52.972716009244323" lon="-6.024338006973267">
        <ele>35.229999999999997</ele>
        <time>2026-07-09T14:01:43Z</time>
      </trkpt>
      <trkpt lat="52.973348004743457" lon="-6.024985006079078">
        <ele>35.710000000000001</ele>
        <time>2026-07-09T14:01:53Z</time>
      </trkpt>
      <trkpt lat="52.974140010774136" lon="-6.025879019871354">
        <ele>38.109999999999999</ele>
        <time>2026-07-09T14:02:04Z</time>
      </trkpt>
      <trkpt lat="52.974607972428203" lon="-6.026587961241603">
        <ele>38.590000000000003</ele>
        <time>2026-07-09T14:02:13Z</time>
      </trkpt>
      <trkpt lat="52.975254971534014" lon="-6.027738964185119">
        <ele>35.229999999999997</ele>
        <time>2026-07-09T14:02:25Z</time>
      </trkpt>
      <trkpt lat="52.975788982585073" lon="-6.02874998934567">
        <ele>31.379999999999999</ele>
        <time>2026-07-09T14:02:34Z</time>
      </trkpt>
      <trkpt lat="52.976285023614764" lon="-6.029663030058146">
        <ele>27.530000000000001</ele>
        <time>2026-07-09T14:02:41Z</time>
      </trkpt>
      <trkpt lat="52.976988013833761" lon="-6.030960967764258">
        <ele>25.129999999999999</ele>
        <time>2026-07-09T14:02:54Z</time>
      </trkpt>
      <trkpt lat="52.978025022894144" lon="-6.032921997830272">
        <ele>25.129999999999999</ele>
        <time>2026-07-09T14:03:11Z</time>
      </trkpt>
      <trkpt lat="52.978477980941534" lon="-6.034086998552084">
        <ele>20.32</ele>
        <time>2026-07-09T14:03:20Z</time>
      </trkpt>
      <trkpt lat="52.978502037003636" lon="-6.034244997426868">
        <ele>19.359999999999999</ele>
        <time>2026-07-09T14:03:22Z</time>
      </trkpt>
      <trkpt lat="52.978530032560229" lon="-6.035077990964055">
        <ele>15.52</ele>
        <time>2026-07-09T14:03:27Z</time>
      </trkpt>
      <trkpt lat="52.978580994531512" lon="-6.035398012027144">
        <ele>14.56</ele>
        <time>2026-07-09T14:03:29Z</time>
      </trkpt>
      <trkpt lat="52.978614019230008" lon="-6.035518040880561">
        <ele>13.6</ele>
        <time>2026-07-09T14:03:30Z</time>
      </trkpt>
      <trkpt lat="52.978766988962889" lon="-6.035965969786048">
        <ele>11.19</ele>
        <time>2026-07-09T14:03:34Z</time>
      </trkpt>
      <trkpt lat="52.978815017268062" lon="-6.036102008074522">
        <ele>10.23</ele>
        <time>2026-07-09T14:03:35Z</time>
      </trkpt>
      <trkpt lat="52.978864973410964" lon="-6.036242991685867">
        <ele>9.75</ele>
        <time>2026-07-09T14:03:36Z</time>
      </trkpt>
      <trkpt lat="52.978917025029659" lon="-6.036379029974341">
        <ele>9.27</ele>
        <time>2026-07-09T14:03:37Z</time>
      </trkpt>
      <trkpt lat="52.978987013921142" lon="-6.036483971402049">
        <ele>8.789999999999999</ele>
        <time>2026-07-09T14:03:38Z</time>
      </trkpt>
      <trkpt lat="52.979075023904443" lon="-6.036558989435434">
        <ele>8.310000000000001</ele>
        <time>2026-07-09T14:03:39Z</time>
      </trkpt>
      <trkpt lat="52.97932798974216" lon="-6.036840034648776">
        <ele>7.83</ele>
        <time>2026-07-09T14:03:42Z</time>
      </trkpt>
      <trkpt lat="52.979405019432306" lon="-6.036932989954948">
        <ele>7.83</ele>
        <time>2026-07-09T14:03:43Z</time>
      </trkpt>
      <trkpt lat="52.979455981403589" lon="-6.037056958302856">
        <ele>7.83</ele>
        <time>2026-07-09T14:03:44Z</time>
      </trkpt>
      <trkpt lat="52.979624038562179" lon="-6.037462977692485">
        <ele>7.35</ele>
        <time>2026-07-09T14:03:47Z</time>
      </trkpt>
      <trkpt lat="52.979657985270023" lon="-6.037545036524534">
        <ele>7.83</ele>
        <time>2026-07-09T14:03:49Z</time>
      </trkpt>
      <trkpt lat="52.979622026905417" lon="-6.037582000717521">
        <ele>8.789999999999999</ele>
        <time>2026-07-09T14:03:50Z</time>
      </trkpt>
      <trkpt lat="52.979573998600245" lon="-6.037630029022694">
        <ele>8.789999999999999</ele>
        <time>2026-07-09T14:03:51Z</time>
      </trkpt>
      <trkpt lat="52.979514990001917" lon="-6.037688031792641">
        <ele>9.27</ele>
        <time>2026-07-09T14:03:52Z</time>
      </trkpt>
      <trkpt lat="52.979449024423957" lon="-6.037753997370601">
        <ele>9.75</ele>
        <time>2026-07-09T14:03:53Z</time>
      </trkpt>
      <trkpt lat="52.978767994791269" lon="-6.038413988426328">
        <ele>20.32</ele>
        <time>2026-07-09T14:04:02Z</time>
      </trkpt>
      <trkpt lat="52.978606978431344" lon="-6.038575004786253">
        <ele>22.25</ele>
        <time>2026-07-09T14:04:04Z</time>
      </trkpt>
      <trkpt lat="52.978569008409977" lon="-6.038641976192594">
        <ele>23.210000000000001</ele>
        <time>2026-07-09T14:04:05Z</time>
      </trkpt>
      <trkpt lat="52.978518968448043" lon="-6.038745995610952">
        <ele>24.170000000000002</ele>
        <time>2026-07-09T14:04:06Z</time>
      </trkpt>
      <trkpt lat="52.978503964841366" lon="-6.038893014192581">
        <ele>24.649999999999999</ele>
        <time>2026-07-09T14:04:07Z</time>
      </trkpt>
      <trkpt lat="52.978503964841366" lon="-6.039047995582223">
        <ele>25.129999999999999</ele>
        <time>2026-07-09T14:04:08Z</time>
      </trkpt>
      <trkpt lat="52.97851100564003" lon="-6.039209011942148">
        <ele>25.609999999999999</ele>
        <time>2026-07-09T14:04:09Z</time>
      </trkpt>
      <trkpt lat="52.978536989539862" lon="-6.039727013558149">
        <ele>27.530000000000001</ele>
        <time>2026-07-09T14:04:13Z</time>
      </trkpt>
      <trkpt lat="52.978542018681765" lon="-6.039828015491366">
        <ele>28.02</ele>
        <time>2026-07-09T14:04:14Z</time>
      </trkpt>
      <trkpt lat="52.978542018681765" lon="-6.039927005767822">
        <ele>28.5</ele>
        <time>2026-07-09T14:04:15Z</time>
      </trkpt>
      <trkpt lat="52.978516034781933" lon="-6.040091039612889">
        <ele>29.460000000000001</ele>
        <time>2026-07-09T14:04:16Z</time>
      </trkpt>
      <trkpt lat="52.978448979556561" lon="-6.040126997977495">
        <ele>29.940000000000001</ele>
        <time>2026-07-09T14:04:17Z</time>
      </trkpt>
      <trkpt lat="52.97835904173553" lon="-6.040175026282668">
        <ele>30.899999999999999</ele>
        <time>2026-07-09T14:04:18Z</time>
      </trkpt>
      <trkpt lat="52.977552032098174" lon="-6.040585990995169">
        <ele>39.549999999999997</ele>
        <time>2026-07-09T14:04:26Z</time>
      </trkpt>
      <trkpt lat="52.977448012679815" lon="-6.040635025128722">
        <ele>40.990000000000002</ele>
        <time>2026-07-09T14:04:27Z</time>
      </trkpt>
      <trkpt lat="52.977309040725231" lon="-6.040600994601846">
        <ele>41.950000000000003</ele>
        <time>2026-07-09T14:04:29Z</time>
      </trkpt>
      <trkpt lat="52.977093039080501" lon="-6.040537040680647">
        <ele>42.920000000000002</ele>
        <time>2026-07-09T14:04:32Z</time>
      </trkpt>
      <trkpt lat="52.977022966369987" lon="-6.04052203707397">
        <ele>43.399999999999999</ele>
        <time>2026-07-09T14:04:33Z</time>
      </trkpt>
      <trkpt lat="52.976954989135265" lon="-6.040506027638912">
        <ele>43.880000000000003</ele>
        <time>2026-07-09T14:04:34Z</time>
      </trkpt>
      <trkpt lat="52.976881982758641" lon="-6.040548020973802">
        <ele>44.840000000000003</ele>
        <time>2026-07-09T14:04:35Z</time>
      </trkpt>
      <trkpt lat="52.976802019402385" lon="-6.040594959631562">
        <ele>45.32</ele>
        <time>2026-07-09T14:04:36Z</time>
      </trkpt>
      <trkpt lat="52.976678973063827" lon="-6.04071800597012">
        <ele>46.759999999999998</ele>
        <time>2026-07-09T14:04:38Z</time>
      </trkpt>
      <trkpt lat="52.976633040234447" lon="-6.040763016790152">
        <ele>47.719999999999999</ele>
        <time>2026-07-09T14:04:39Z</time>
      </trkpt>
      <trkpt lat="52.976339003071189" lon="-6.041056970134378">
        <ele>53.969999999999999</ele>
        <time>2026-07-09T14:04:46Z</time>
      </trkpt>
      <trkpt lat="52.976305978372693" lon="-6.041091000661254">
        <ele>54.93</ele>
        <time>2026-07-09T14:04:47Z</time>
      </trkpt>
      <trkpt lat="52.976204976439476" lon="-6.041192002594471">
        <ele>55.409999999999997</ele>
        <time>2026-07-09T14:04:48Z</time>
      </trkpt>
      <trkpt lat="52.976144040003419" lon="-6.041242964565754">
        <ele>56.859999999999999</ele>
        <time>2026-07-09T14:04:50Z</time>
      </trkpt>
      <trkpt lat="52.97573902644217" lon="-6.041613025590777">
        <ele>61.659999999999997</ele>
        <time>2026-07-09T14:04:56Z</time>
      </trkpt>
      <trkpt lat="52.975425040349364" lon="-6.041937991976738">
        <ele>65.030000000000001</ele>
        <time>2026-07-09T14:04:59Z</time>
      </trkpt>
      <trkpt lat="52.975362008437514" lon="-6.042016027495265">
        <ele>65.989999999999995</ele>
        <time>2026-07-09T14:05:00Z</time>
      </trkpt>
      <trkpt lat="52.975281039252877" lon="-6.042116023600102">
        <ele>67.430000000000007</ele>
        <time>2026-07-09T14:05:01Z</time>
      </trkpt>
      <trkpt lat="52.975229993462563" lon="-6.04224200360477">
        <ele>68.390000000000001</ele>
        <time>2026-07-09T14:05:02Z</time>
      </trkpt>
      <trkpt lat="52.975178025662899" lon="-6.042392961680889">
        <ele>69.349999999999994</ele>
        <time>2026-07-09T14:05:03Z</time>
      </trkpt>
      <trkpt lat="52.975134020671248" lon="-6.042550038546324">
        <ele>70.310000000000002</ele>
        <time>2026-07-09T14:05:04Z</time>
      </trkpt>
      <trkpt lat="52.975094961002469" lon="-6.042688004672527">
        <ele>72.719999999999999</ele>
        <time>2026-07-09T14:05:06Z</time>
      </trkpt>
      <trkpt lat="52.974958000704646" lon="-6.043281024321914">
        <ele>77.519999999999996</ele>
        <time>2026-07-09T14:05:11Z</time>
      </trkpt>
      <trkpt lat="52.974927993491292" lon="-6.04342301376164">
        <ele>78.480000000000004</ele>
        <time>2026-07-09T14:05:12Z</time>
      </trkpt>
      <trkpt lat="52.974681984633207" lon="-6.044142013415694">
        <ele>83.290000000000006</ele>
        <time>2026-07-09T14:05:17Z</time>
      </trkpt>
      <trkpt lat="52.97389299608767" lon="-6.045711021870375">
        <ele>92.420000000000002</ele>
        <time>2026-07-09T14:05:28Z</time>
      </trkpt>
      <trkpt lat="52.973115993663669" lon="-6.047239964827895">
        <ele>92.900000000000006</ele>
        <time>2026-07-09T14:05:37Z</time>
      </trkpt>
      <trkpt lat="52.972362041473389" lon="-6.048929002135992">
        <ele>89.060000000000002</ele>
        <time>2026-07-09T14:05:46Z</time>
      </trkpt>
      <trkpt lat="52.972322981804609" lon="-6.049132011830807">
        <ele>88.579999999999998</ele>
        <time>2026-07-09T14:05:47Z</time>
      </trkpt>
      <trkpt lat="52.972291968762875" lon="-6.049344995990396">
        <ele>88.099999999999994</ele>
        <time>2026-07-09T14:05:48Z</time>
      </trkpt>
      <trkpt lat="52.972276965156198" lon="-6.049568960443139">
        <ele>87.620000000000005</ele>
        <time>2026-07-09T14:05:50Z</time>
      </trkpt>
      <trkpt lat="52.972261039540172" lon="-6.049793008714914">
        <ele>87.620000000000005</ele>
        <time>2026-07-09T14:05:51Z</time>
      </trkpt>
      <trkpt lat="52.97204595990479" lon="-6.051888987421989">
        <ele>88.579999999999998</ele>
        <time>2026-07-09T14:06:00Z</time>
      </trkpt>
      <trkpt lat="52.972084013745189" lon="-6.053106039762497">
        <ele>87.620000000000005</ele>
        <time>2026-07-09T14:06:07Z</time>
      </trkpt>
      <trkpt lat="52.972060963511467" lon="-6.053628986701369">
        <ele>86.659999999999997</ele>
        <time>2026-07-09T14:06:10Z</time>
      </trkpt>
      <trkpt lat="52.972025005146861" lon="-6.053813975304365">
        <ele>86.180000000000007</ele>
        <time>2026-07-09T14:06:11Z</time>
      </trkpt>
      <trkpt lat="52.971988962963223" lon="-6.054004998877645">
        <ele>86.180000000000007</ele>
        <time>2026-07-09T14:06:12Z</time>
      </trkpt>
      <trkpt lat="52.97193800099194" lon="-6.054184958338738">
        <ele>85.689999999999998</ele>
        <time>2026-07-09T14:06:13Z</time>
      </trkpt>
      <trkpt lat="52.971882009878755" lon="-6.054359972476959">
        <ele>85.689999999999998</ele>
        <time>2026-07-09T14:06:15Z</time>
      </trkpt>
      <trkpt lat="52.971297036856413" lon="-6.055641984567046">
        <ele>87.140000000000001</ele>
        <time>2026-07-09T14:06:23Z</time>
      </trkpt>
      <trkpt lat="52.971197040751576" lon="-6.055790008977056">
        <ele>87.620000000000005</ele>
        <time>2026-07-09T14:06:26Z</time>
      </trkpt>
      <trkpt lat="52.971152029931545" lon="-6.055853040888906">
        <ele>87.620000000000005</ele>
        <time>2026-07-09T14:06:27Z</time>
      </trkpt>
      <trkpt lat="52.971106013283134" lon="-6.055902997031808">
        <ele>87.620000000000005</ele>
        <time>2026-07-09T14:06:28Z</time>
      </trkpt>
      <trkpt lat="52.970630005002022" lon="-6.05646500363946">
        <ele>88.579999999999998</ele>
        <time>2026-07-09T14:06:35Z</time>
      </trkpt>
      <trkpt lat="52.970155002549291" lon="-6.057211998850107">
        <ele>88.099999999999994</ele>
        <time>2026-07-09T14:06:42Z</time>
      </trkpt>
      <trkpt lat="52.969761975109577" lon="-6.05788498185575">
        <ele>88.099999999999994</ele>
        <time>2026-07-09T14:06:48Z</time>
      </trkpt>
      <trkpt lat="52.96970296651125" lon="-6.057979026809335">
        <ele>88.099999999999994</ele>
        <time>2026-07-09T14:06:49Z</time>
      </trkpt>
      <trkpt lat="52.969172978773713" lon="-6.058959038928151">
        <ele>88.099999999999994</ele>
        <time>2026-07-09T14:06:56Z</time>
      </trkpt>
      <trkpt lat="52.969024032354355" lon="-6.059288028627634">
        <ele>87.620000000000005</ele>
        <time>2026-07-09T14:06:58Z</time>
      </trkpt>
      <trkpt lat="52.968897968530655" lon="-6.059566978365183">
        <ele>87.620000000000005</ele>
        <time>2026-07-09T14:07:00Z</time>
      </trkpt>
      <trkpt lat="52.968809036538005" lon="-6.059764036908746">
        <ele>88.099999999999994</ele>
        <time>2026-07-09T14:07:05Z</time>
      </trkpt>
      <trkpt lat="52.968769976869226" lon="-6.059851963073015">
        <ele>88.579999999999998</ele>
        <time>2026-07-09T14:07:48Z</time>
      </trkpt>
      <trkpt lat="52.968735024333" lon="-6.059929998591542">
        <ele>89.060000000000002</ele>
        <time>2026-07-09T14:07:50Z</time>
      </trkpt>
      <trkpt lat="52.968666963279247" lon="-6.060115993022919">
        <ele>89.060000000000002</ele>
        <time>2026-07-09T14:07:51Z</time>
      </trkpt>
      <trkpt lat="52.968467976897955" lon="-6.060642041265965">
        <ele>88.579999999999998</ele>
        <time>2026-07-09T14:07:55Z</time>
      </trkpt>
      <trkpt lat="52.968405028805137" lon="-6.060797022655606">
        <ele>88.579999999999998</ele>
        <time>2026-07-09T14:07:57Z</time>
      </trkpt>
      <trkpt lat="52.968309978023171" lon="-6.060929037630558">
        <ele>88.579999999999998</ele>
        <time>2026-07-09T14:07:58Z</time>
      </trkpt>
      <trkpt lat="52.967426022514701" lon="-6.062125973403454">
        <ele>86.180000000000007</ele>
        <time>2026-07-09T14:08:08Z</time>
      </trkpt>
      <trkpt lat="52.967265006154776" lon="-6.062368964776397">
        <ele>84.25</ele>
        <time>2026-07-09T14:08:12Z</time>
      </trkpt>
      <trkpt lat="52.967213960364461" lon="-6.062365025281906">
        <ele>83.769999999999996</ele>
        <time>2026-07-09T14:08:13Z</time>
      </trkpt>
      <trkpt lat="52.966574002057314" lon="-6.062314985319972">
        <ele>80.890000000000001</ele>
        <time>2026-07-09T14:08:19Z</time>
      </trkpt>
      <trkpt lat="52.964708022773266" lon="-6.062405006960034">
        <ele>78.969999999999999</ele>
        <time>2026-07-09T14:08:29Z</time>
      </trkpt>
      <trkpt lat="52.963132979348302" lon="-6.062493016943336">
        <ele>78.480000000000004</ele>
        <time>2026-07-09T14:08:38Z</time>
      </trkpt>
      <trkpt lat="52.962751016020775" lon="-6.062611034139991">
        <ele>78</ele>
        <time>2026-07-09T14:08:39Z</time>
      </trkpt>
      <trkpt lat="52.96256996691227" lon="-6.06269896030426">
        <ele>78</ele>
        <time>2026-07-09T14:08:40Z</time>
      </trkpt>
      <trkpt lat="52.962406016886234" lon="-6.062854025512934">
        <ele>77.040000000000006</ele>
        <time>2026-07-09T14:08:42Z</time>
      </trkpt>
      <trkpt lat="52.960670040920377" lon="-6.064527975395322">
        <ele>73.200000000000003</ele>
        <time>2026-07-09T14:08:51Z</time>
      </trkpt>
      <trkpt lat="52.96022797934711" lon="-6.065058968961239">
        <ele>73.200000000000003</ele>
        <time>2026-07-09T14:08:55Z</time>
      </trkpt>
      <trkpt lat="52.959128022193909" lon="-6.066925032064319">
        <ele>72.719999999999999</ele>
        <time>2026-07-09T14:09:03Z</time>
      </trkpt>
      <trkpt lat="52.957778032869101" lon="-6.069072978571057">
        <ele>74.159999999999997</ele>
        <time>2026-07-09T14:09:13Z</time>
      </trkpt>
      <trkpt lat="52.956947972998023" lon="-6.070368988439441">
        <ele>75.120000000000005</ele>
        <time>2026-07-09T14:09:20Z</time>
      </trkpt>
      <trkpt lat="52.956864992156625" lon="-6.070573003962636">
        <ele>73.200000000000003</ele>
        <time>2026-07-09T14:09:22Z</time>
      </trkpt>
      <trkpt lat="52.956726020202041" lon="-6.071039037778974">
        <ele>71.760000000000005</ele>
        <time>2026-07-09T14:09:24Z</time>
      </trkpt>
      <trkpt lat="52.956267027184367" lon="-6.072047967463732">
        <ele>72.239999999999995</ele>
        <time>2026-07-09T14:09:29Z</time>
      </trkpt>
      <trkpt lat="52.95590803027153" lon="-6.072453986853361">
        <ele>72.719999999999999</ele>
        <time>2026-07-09T14:09:32Z</time>
      </trkpt>
      <trkpt lat="52.954601962119341" lon="-6.073513962328434">
        <ele>75.120000000000005</ele>
        <time>2026-07-09T14:09:41Z</time>
      </trkpt>
      <trkpt lat="52.953605018556118" lon="-6.075098980218172">
        <ele>77.519999999999996</ele>
        <time>2026-07-09T14:09:48Z</time>
      </trkpt>
      <trkpt lat="52.952573038637638" lon="-6.077653029933572">
        <ele>73.680000000000007</ele>
        <time>2026-07-09T14:09:58Z</time>
      </trkpt>
      <trkpt lat="52.952506989240646" lon="-6.077894009649754">
        <ele>73.200000000000003</ele>
        <time>2026-07-09T14:09:59Z</time>
      </trkpt>
      <trkpt lat="52.95247002504766" lon="-6.078152004629374">
        <ele>71.269999999999996</ele>
        <time>2026-07-09T14:10:01Z</time>
      </trkpt>
      <trkpt lat="52.952536996454" lon="-6.080847037956119">
        <ele>65.510000000000005</ele>
        <time>2026-07-09T14:10:10Z</time>
      </trkpt>
      <trkpt lat="52.952801026403904" lon="-6.085024997591972">
        <ele>59.740000000000002</ele>
        <time>2026-07-09T14:10:22Z</time>
      </trkpt>
      <trkpt lat="52.952971011400223" lon="-6.089390963315964">
        <ele>56.859999999999999</ele>
        <time>2026-07-09T14:10:36Z</time>
      </trkpt>
      <trkpt lat="52.95283799059689" lon="-6.093281004577875">
        <ele>56.859999999999999</ele>
        <time>2026-07-09T14:10:47Z</time>
      </trkpt>
      <trkpt lat="52.953061033040285" lon="-6.094852024689317">
        <ele>57.82</ele>
        <time>2026-07-09T14:10:53Z</time>
      </trkpt>
      <trkpt lat="52.953105038031936" lon="-6.095037013292313">
        <ele>58.299999999999997</ele>
        <time>2026-07-09T14:10:54Z</time>
      </trkpt>
      <trkpt lat="52.953140996396542" lon="-6.095189983025193">
        <ele>59.259999999999998</ele>
        <time>2026-07-09T14:10:56Z</time>
      </trkpt>
      <trkpt lat="52.95307201333344" lon="-6.09565400518477">
        <ele>59.259999999999998</ele>
        <time>2026-07-09T14:10:58Z</time>
      </trkpt>
      <trkpt lat="52.953120041638613" lon="-6.09584896825254">
        <ele>58.780000000000001</ele>
        <time>2026-07-09T14:11:00Z</time>
      </trkpt>
      <trkpt lat="52.953179972246289" lon="-6.09593203291297">
        <ele>58.299999999999997</ele>
        <time>2026-07-09T14:11:01Z</time>
      </trkpt>
      <trkpt lat="52.953179972246289" lon="-6.09593203291297">
        <ele>58.299999999999997</ele>
        <time>2026-07-09T14:11:02Z</time>
      </trkpt>
      <trkpt lat="52.953392034396529" lon="-6.096112998202443">
        <ele>58.299999999999997</ele>
        <time>2026-07-09T14:11:03Z</time>
      </trkpt>
      <trkpt lat="52.953425981104374" lon="-6.096262028440833">
        <ele>57.82</ele>
        <time>2026-07-09T14:11:04Z</time>
      </trkpt>
      <trkpt lat="52.953461017459631" lon="-6.096420027315617">
        <ele>57.82</ele>
        <time>2026-07-09T14:11:05Z</time>
      </trkpt>
      <trkpt lat="52.953772991895676" lon="-6.098004961386323">
        <ele>58.780000000000001</ele>
        <time>2026-07-09T14:11:14Z</time>
      </trkpt>
      <trkpt lat="52.95382303185761" lon="-6.098279971629381">
        <ele>58.780000000000001</ele>
        <time>2026-07-09T14:11:15Z</time>
      </trkpt>
      <trkpt lat="52.953810039907694" lon="-6.098463032394648">
        <ele>58.780000000000001</ele>
        <time>2026-07-09T14:11:17Z</time>
      </trkpt>
      <trkpt lat="52.95375999994576" lon="-6.098554981872439">
        <ele>58.780000000000001</ele>
        <time>2026-07-09T14:11:18Z</time>
      </trkpt>
      <trkpt lat="52.953728986904025" lon="-6.098694037646055">
        <ele>58.299999999999997</ele>
        <time>2026-07-09T14:11:19Z</time>
      </trkpt>
      <trkpt lat="52.953755976632237" lon="-6.098807025700808">
        <ele>58.299999999999997</ele>
        <time>2026-07-09T14:11:20Z</time>
      </trkpt>
      <trkpt lat="52.953794030472636" lon="-6.098924037069082">
        <ele>58.299999999999997</ele>
        <time>2026-07-09T14:11:21Z</time>
      </trkpt>
      <trkpt lat="52.953852033242583" lon="-6.098967958241701">
        <ele>58.780000000000001</ele>
        <time>2026-07-09T14:11:22Z</time>
      </trkpt>
      <trkpt lat="52.953925039619207" lon="-6.098949015140533">
        <ele>59.259999999999998</ele>
        <time>2026-07-09T14:11:23Z</time>
      </trkpt>
      <trkpt lat="52.953972984105349" lon="-6.098882965743542">
        <ele>59.740000000000002</ele>
        <time>2026-07-09T14:11:24Z</time>
      </trkpt>
      <trkpt lat="52.954013971611857" lon="-6.098780035972595">
        <ele>59.740000000000002</ele>
        <time>2026-07-09T14:11:25Z</time>
      </trkpt>
      <trkpt lat="52.954241959378123" lon="-6.098408969119191">
        <ele>59.740000000000002</ele>
        <time>2026-07-09T14:11:27Z</time>
      </trkpt>
      <trkpt lat="52.95433902181685" lon="-6.098262034356594">
        <ele>59.740000000000002</ele>
        <time>2026-07-09T14:11:29Z</time>
      </trkpt>
      <trkpt lat="52.954575978219509" lon="-6.098000016063452">
        <ele>59.740000000000002</ele>
        <time>2026-07-09T14:11:30Z</time>
      </trkpt>
      <trkpt lat="52.955705020576715" lon="-6.097345976158977">
        <ele>61.659999999999997</ele>
        <time>2026-07-09T14:11:37Z</time>
      </trkpt>
      <trkpt lat="52.95799202285707" lon="-6.096533015370369">
        <ele>63.579999999999998</ele>
        <time>2026-07-09T14:11:50Z</time>
      </trkpt>
      <trkpt lat="52.959531024098396" lon="-6.096369987353683">
        <ele>67.430000000000007</ele>
        <time>2026-07-09T14:11:57Z</time>
      </trkpt>
      <trkpt lat="52.962005026638508" lon="-6.096426984295249">
        <ele>76.560000000000002</ele>
        <time>2026-07-09T14:12:06Z</time>
      </trkpt>
      <trkpt lat="52.965660961344838" lon="-6.096762008965015">
        <ele>92.900000000000006</ele>
        <time>2026-07-09T14:12:20Z</time>
      </trkpt>
      <trkpt lat="52.968551963567734" lon="-6.096991002559662">
        <ele>99.629999999999995</ele>
        <time>2026-07-09T14:12:31Z</time>
      </trkpt>
      <trkpt lat="52.971083968877792" lon="-6.097168028354645">
        <ele>103.95999999999999</ele>
        <time>2026-07-09T14:12:40Z</time>
      </trkpt>
      <trkpt lat="52.973475996404886" lon="-6.097145983949304">
        <ele>108.29000000000001</ele>
        <time>2026-07-09T14:12:49Z</time>
      </trkpt>
      <trkpt lat="52.975882021710277" lon="-6.096060024574399">
        <ele>108.29000000000001</ele>
        <time>2026-07-09T14:12:57Z</time>
      </trkpt>
      <trkpt lat="52.977649010717869" lon="-6.094417003914714">
        <ele>104.92</ele>
        <time>2026-07-09T14:13:04Z</time>
      </trkpt>
      <trkpt lat="52.980298027396202" lon="-6.091608982533217">
        <ele>91.939999999999998</ele>
        <time>2026-07-09T14:13:15Z</time>
      </trkpt>
      <trkpt lat="52.981895031407475" lon="-6.090737013146281">
        <ele>83.290000000000006</ele>
        <time>2026-07-09T14:13:22Z</time>
      </trkpt>
      <trkpt lat="52.983848014846444" lon="-6.090441970154643">
        <ele>75.120000000000005</ele>
        <time>2026-07-09T14:13:29Z</time>
      </trkpt>
      <trkpt lat="52.985776020213962" lon="-6.090937005355954">
        <ele>67.909999999999997</ele>
        <time>2026-07-09T14:13:36Z</time>
      </trkpt>
      <trkpt lat="52.987799998372793" lon="-6.092361006885767">
        <ele>59.740000000000002</ele>
        <time>2026-07-09T14:13:44Z</time>
      </trkpt>
      <trkpt lat="52.990453038364649" lon="-6.094627976417542">
        <ele>46.280000000000001</ele>
        <time>2026-07-09T14:13:56Z</time>
      </trkpt>
      <trkpt lat="52.992375008761883" lon="-6.095399027690291">
        <ele>39.549999999999997</ele>
        <time>2026-07-09T14:14:03Z</time>
      </trkpt>
      <trkpt lat="52.994139986112714" lon="-6.095359968021512">
        <ele>33.299999999999997</ele>
        <time>2026-07-09T14:14:10Z</time>
      </trkpt>
      <trkpt lat="52.995843021199107" lon="-6.094647003337741">
        <ele>29.460000000000001</ele>
        <time>2026-07-09T14:14:18Z</time>
      </trkpt>
      <trkpt lat="52.997514959424734" lon="-6.093431962653995">
        <ele>22.73</ele>
        <time>2026-07-09T14:14:26Z</time>
      </trkpt>
      <trkpt lat="52.998037990182638" lon="-6.093061985448003">
        <ele>18.399999999999999</ele>
        <time>2026-07-09T14:14:34Z</time>
      </trkpt>
      <trkpt lat="53.000181997194886" lon="-6.092278026044369">
        <ele>18.399999999999999</ele>
        <time>2026-07-09T14:14:41Z</time>
      </trkpt>
      <trkpt lat="53.000937039032578" lon="-6.092305015772581">
        <ele>19.84</ele>
        <time>2026-07-09T14:14:47Z</time>
      </trkpt>
      <trkpt lat="53.001052960753441" lon="-6.092381039634347">
        <ele>20.32</ele>
        <time>2026-07-09T14:14:49Z</time>
      </trkpt>
      <trkpt lat="53.001106018200517" lon="-6.092419009655714">
        <ele>20.32</ele>
        <time>2026-07-09T14:14:50Z</time>
      </trkpt>
      <trkpt lat="53.001168966293335" lon="-6.092480029910803">
        <ele>20.809999999999999</ele>
        <time>2026-07-09T14:14:51Z</time>
      </trkpt>
      <trkpt lat="53.001354038715363" lon="-6.092725032940507">
        <ele>22.25</ele>
        <time>2026-07-09T14:14:54Z</time>
      </trkpt>
      <trkpt lat="53.001444982364774" lon="-6.092934999614954">
        <ele>22.25</ele>
        <time>2026-07-09T14:14:55Z</time>
      </trkpt>
      <trkpt lat="53.001473983749747" lon="-6.093110013753176">
        <ele>22.25</ele>
        <time>2026-07-09T14:14:56Z</time>
      </trkpt>
      <trkpt lat="53.001915039494634" lon="-6.095243040472269">
        <ele>25.129999999999999</ele>
        <time>2026-07-09T14:15:05Z</time>
      </trkpt>
      <trkpt lat="53.002704028040171" lon="-6.097540017217398">
        <ele>28.02</ele>
        <time>2026-07-09T14:15:14Z</time>
      </trkpt>
      <trkpt lat="53.003741037100554" lon="-6.100112004205585">
        <ele>24.649999999999999</ele>
        <time>2026-07-09T14:15:23Z</time>
      </trkpt>
      <trkpt lat="53.004104979336262" lon="-6.100795967504382">
        <ele>25.129999999999999</ele>
        <time>2026-07-09T14:15:27Z</time>
      </trkpt>
      <trkpt lat="53.005547001957893" lon="-6.103276005014777">
        <ele>28.02</ele>
        <time>2026-07-09T14:15:40Z</time>
      </trkpt>
      <trkpt lat="53.00663597881794" lon="-6.104827998206019">
        <ele>24.649999999999999</ele>
        <time>2026-07-09T14:15:48Z</time>
      </trkpt>
      <trkpt lat="53.007222963497043" lon="-6.105696028098464">
        <ele>23.690000000000001</ele>
        <time>2026-07-09T14:15:53Z</time>
      </trkpt>
      <trkpt lat="53.007553964853287" lon="-6.106251999735832">
        <ele>25.129999999999999</ele>
        <time>2026-07-09T14:15:57Z</time>
      </trkpt>
      <trkpt lat="53.007990997284651" lon="-6.1070859991014">
        <ele>22.73</ele>
        <time>2026-07-09T14:16:08Z</time>
      </trkpt>
      <trkpt lat="53.008650988340378" lon="-6.108001973479986">
        <ele>22.25</ele>
        <time>2026-07-09T14:16:10Z</time>
      </trkpt>
      <trkpt lat="53.009618008509278" lon="-6.108315037563443">
        <ele>18.399999999999999</ele>
        <time>2026-07-09T14:16:18Z</time>
      </trkpt>
      <trkpt lat="53.009735019877553" lon="-6.108328029513359">
        <ele>17.920000000000002</ele>
        <time>2026-07-09T14:16:19Z</time>
      </trkpt>
      <trkpt lat="53.009856976568699" lon="-6.108342027291656">
        <ele>16</ele>
        <time>2026-07-09T14:16:21Z</time>
      </trkpt>
      <trkpt lat="53.011336969211698" lon="-6.108290981501341">
        <ele>15.52</ele>
        <time>2026-07-09T14:16:33Z</time>
      </trkpt>
      <trkpt lat="53.012108020484447" lon="-6.108082020655274">
        <ele>16.48</ele>
        <time>2026-07-09T14:16:41Z</time>
      </trkpt>
      <trkpt lat="53.012706991285086" lon="-6.107711959630251">
        <ele>17.920000000000002</ele>
        <time>2026-07-09T14:16:49Z</time>
      </trkpt>
      <trkpt lat="53.013525987043977" lon="-6.107241986319423">
        <ele>17.440000000000001</ele>
        <time>2026-07-09T14:16:59Z</time>
      </trkpt>
      <trkpt lat="53.013668982312083" lon="-6.107175014913082">
        <ele>17.920000000000002</ele>
        <time>2026-07-09T14:17:00Z</time>
      </trkpt>
      <trkpt lat="53.013748023658991" lon="-6.107286997139454">
        <ele>17.920000000000002</ele>
        <time>2026-07-09T14:17:02Z</time>
      </trkpt>
      <trkpt lat="53.013765038922429" lon="-6.107392022386193">
        <ele>17.920000000000002</ele>
        <time>2026-07-09T14:17:03Z</time>
      </trkpt>
      <trkpt lat="53.013771995902061" lon="-6.107526971027255">
        <ele>17.440000000000001</ele>
        <time>2026-07-09T14:17:04Z</time>
      </trkpt>
      <trkpt lat="53.013764033094049" lon="-6.107663009315729">
        <ele>17.920000000000002</ele>
        <time>2026-07-09T14:17:05Z</time>
      </trkpt>
      <trkpt lat="53.013691026717424" lon="-6.109284991398454">
        <ele>18.879999999999999</ele>
        <time>2026-07-09T14:17:14Z</time>
      </trkpt>
      <trkpt lat="53.013676023110747" lon="-6.109655974432826">
        <ele>19.359999999999999</ele>
        <time>2026-07-09T14:17:16Z</time>
      </trkpt>
      <trkpt lat="53.013668982312083" lon="-6.10985797829926">
        <ele>19.359999999999999</ele>
        <time>2026-07-09T14:17:17Z</time>
      </trkpt>
      <trkpt lat="53.013882972300053" lon="-6.111246021464467">
        <ele>19.84</ele>
        <time>2026-07-09T14:17:24Z</time>
      </trkpt>
      <trkpt lat="53.013912979513407" lon="-6.111428998410702">
        <ele>19.84</ele>
        <time>2026-07-09T14:17:25Z</time>
      </trkpt>
      <trkpt lat="53.013960001990199" lon="-6.111588003113866">
        <ele>20.32</ele>
        <time>2026-07-09T14:17:26Z</time>
      </trkpt>
      <trkpt lat="53.014022028073668" lon="-6.111727980896831">
        <ele>20.809999999999999</ele>
        <time>2026-07-09T14:17:27Z</time>
      </trkpt>
      <trkpt lat="53.014087993651628" lon="-6.111863013356924">
        <ele>20.809999999999999</ele>
        <time>2026-07-09T14:17:28Z</time>
      </trkpt>
      <trkpt lat="53.014170974493027" lon="-6.111928978934884">
        <ele>20.809999999999999</ele>
        <time>2026-07-09T14:17:29Z</time>
      </trkpt>
      <trkpt lat="53.014244986698031" lon="-6.111987987533212">
        <ele>20.809999999999999</ele>
        <time>2026-07-09T14:17:30Z</time>
      </trkpt>
      <trkpt lat="53.014318998903036" lon="-6.112029980868101">
        <ele>20.809999999999999</ele>
        <time>2026-07-09T14:17:31Z</time>
      </trkpt>
      <trkpt lat="53.0144970305264" lon="-6.112060993909836">
        <ele>20.809999999999999</ele>
        <time>2026-07-09T14:17:33Z</time>
      </trkpt>
      <trkpt lat="53.014594009146094" lon="-6.112078009173274">
        <ele>20.809999999999999</ele>
        <time>2026-07-09T14:17:34Z</time>
      </trkpt>
      <trkpt lat="53.01469199359417" lon="-6.112072980031371">
        <ele>20.809999999999999</ele>
        <time>2026-07-09T14:17:35Z</time>
      </trkpt>
      <trkpt lat="53.014796013012528" lon="-6.112026963382959">
        <ele>21.289999999999999</ele>
        <time>2026-07-09T14:17:36Z</time>
      </trkpt>
      <trkpt lat="53.01488796249032" lon="-6.111968038603663">
        <ele>21.77</ele>
        <time>2026-07-09T14:17:37Z</time>
      </trkpt>
      <trkpt lat="53.01574400626123" lon="-6.111263958737254">
        <ele>28.5</ele>
        <time>2026-07-09T14:17:47Z</time>
      </trkpt>
      <trkpt lat="53.015842996537685" lon="-6.111192964017391">
        <ele>28.5</ele>
        <time>2026-07-09T14:17:48Z</time>
      </trkpt>
      <trkpt lat="53.015942992642522" lon="-6.111251972615719">
        <ele>28.98</ele>
        <time>2026-07-09T14:17:50Z</time>
      </trkpt>
      <trkpt lat="53.016028990969062" lon="-6.11105902120471">
        <ele>29.460000000000001</ele>
        <time>2026-07-09T14:17:52Z</time>
      </trkpt>
      <trkpt lat="53.016105014830828" lon="-6.111018033698201">
        <ele>28.98</ele>
        <time>2026-07-09T14:17:53Z</time>
      </trkpt>
      <trkpt lat="53.016529977321625" lon="-6.110783005133271">
        <ele>30.899999999999999</ele>
        <time>2026-07-09T14:17:57Z</time>
      </trkpt>
      <trkpt lat="53.016655035316944" lon="-6.110716033726931">
        <ele>31.859999999999999</ele>
        <time>2026-07-09T14:17:58Z</time>
      </trkpt>
      <trkpt lat="53.017749041318893" lon="-6.110574966296554">
        <ele>37.630000000000003</ele>
        <time>2026-07-09T14:18:06Z</time>
      </trkpt>
      <trkpt lat="53.018573988229036" lon="-6.110410010442138">
        <ele>40.509999999999998</ele>
        <time>2026-07-09T14:18:12Z</time>
      </trkpt>
      <trkpt lat="53.019925989210606" lon="-6.109546003863215">
        <ele>43.880000000000003</ele>
        <time>2026-07-09T14:18:23Z</time>
      </trkpt>
      <trkpt lat="53.020047023892403" lon="-6.109455982223153">
        <ele>43.880000000000003</ele>
        <time>2026-07-09T14:18:24Z</time>
      </trkpt>
      <trkpt lat="53.020851016044617" lon="-6.108863968402147">
        <ele>43.399999999999999</ele>
        <time>2026-07-09T14:18:30Z</time>
      </trkpt>
      <trkpt lat="53.021986009553075" lon="-6.107969032600522">
        <ele>45.32</ele>
        <time>2026-07-09T14:18:38Z</time>
      </trkpt>
      <trkpt lat="53.022544998675585" lon="-6.10745295882225">
        <ele>47.240000000000002</ele>
        <time>2026-07-09T14:18:42Z</time>
      </trkpt>
      <trkpt lat="53.022658992558718" lon="-6.107347011566162">
        <ele>47.719999999999999</ele>
        <time>2026-07-09T14:18:43Z</time>
      </trkpt>
      <trkpt lat="53.022935008630157" lon="-6.107284985482693">
        <ele>48.200000000000003</ele>
        <time>2026-07-09T14:18:44Z</time>
      </trkpt>
      <trkpt lat="53.024385999888182" lon="-6.107136961072683">
        <ele>48.200000000000003</ele>
        <time>2026-07-09T14:18:53Z</time>
      </trkpt>
      <trkpt lat="53.027138030156493" lon="-6.106892041862011">
        <ele>44.840000000000003</ele>
        <time>2026-07-09T14:19:09Z</time>
      </trkpt>
      <trkpt lat="53.027658965438604" lon="-6.106819035485387">
        <ele>45.799999999999997</ele>
        <time>2026-07-09T14:19:11Z</time>
      </trkpt>
      <trkpt lat="53.027818975970149" lon="-6.106796991080046">
        <ele>46.759999999999998</ele>
        <time>2026-07-09T14:19:13Z</time>
      </trkpt>
      <trkpt lat="53.028256008401513" lon="-6.106588030233979">
        <ele>47.240000000000002</ele>
        <time>2026-07-09T14:19:15Z</time>
      </trkpt>
      <trkpt lat="53.028912981972098" lon="-6.106080003082752">
        <ele>51.090000000000003</ele>
        <time>2026-07-09T14:19:21Z</time>
      </trkpt>
      <trkpt lat="53.029740024358034" lon="-6.105695022270083">
        <ele>55.890000000000001</ele>
        <time>2026-07-09T14:19:27Z</time>
      </trkpt>
      <trkpt lat="53.029877990484238" lon="-6.10570902004838">
        <ele>56.859999999999999</ele>
        <time>2026-07-09T14:19:28Z</time>
      </trkpt>
      <trkpt lat="53.030010005459189" lon="-6.105723017826676">
        <ele>58.299999999999997</ele>
        <time>2026-07-09T14:19:29Z</time>
      </trkpt>
      <trkpt lat="53.030548039823771" lon="-6.105915969237685">
        <ele>62.619999999999997</ele>
        <time>2026-07-09T14:19:33Z</time>
      </trkpt>
      <trkpt lat="53.031184980645776" lon="-6.106442017480731">
        <ele>64.549999999999997</ele>
        <time>2026-07-09T14:19:38Z</time>
      </trkpt>
      <trkpt lat="53.031280031427741" lon="-6.106559028849006">
        <ele>65.030000000000001</ele>
        <time>2026-07-09T14:19:39Z</time>
      </trkpt>
      <trkpt lat="53.032185025513172" lon="-6.107930978760123">
        <ele>63.100000000000001</ele>
        <time>2026-07-09T14:19:48Z</time>
      </trkpt>
      <trkpt lat="53.032384011894464" lon="-6.108301039785147">
        <ele>63.100000000000001</ele>
        <time>2026-07-09T14:19:50Z</time>
      </trkpt>
      <trkpt lat="53.032475039362907" lon="-6.10848099924624">
        <ele>63.100000000000001</ele>
        <time>2026-07-09T14:19:51Z</time>
      </trkpt>
      <trkpt lat="53.03284996189177" lon="-6.109466962516308">
        <ele>64.549999999999997</ele>
        <time>2026-07-09T14:19:56Z</time>
      </trkpt>
      <trkpt lat="53.033139975741506" lon="-6.110042966902256">
        <ele>64.069999999999993</ele>
        <time>2026-07-09T14:19:59Z</time>
      </trkpt>
      <trkpt lat="53.03323402069509" lon="-6.11022099852562">
        <ele>64.069999999999993</ele>
        <time>2026-07-09T14:20:00Z</time>
      </trkpt>
      <trkpt lat="53.033301997929811" lon="-6.11035100184381">
        <ele>63.579999999999998</ele>
        <time>2026-07-09T14:20:01Z</time>
      </trkpt>
      <trkpt lat="53.033432001248002" lon="-6.110528027638793">
        <ele>63.579999999999998</ele>
        <time>2026-07-09T14:20:02Z</time>
      </trkpt>
      <trkpt lat="53.033539038151503" lon="-6.11067496240139">
        <ele>63.100000000000001</ele>
        <time>2026-07-09T14:20:03Z</time>
      </trkpt>
      <trkpt lat="53.03364297375083" lon="-6.110817035660148">
        <ele>63.100000000000001</ele>
        <time>2026-07-09T14:20:04Z</time>
      </trkpt>
      <trkpt lat="53.033740036189556" lon="-6.110924994572997">
        <ele>63.100000000000001</ele>
        <time>2026-07-09T14:20:05Z</time>
      </trkpt>
      <trkpt lat="53.033861992880702" lon="-6.110993977636099">
        <ele>63.100000000000001</ele>
        <time>2026-07-09T14:20:06Z</time>
      </trkpt>
      <trkpt lat="53.035069992765784" lon="-6.111666960641742">
        <ele>65.030000000000001</ele>
        <time>2026-07-09T14:20:14Z</time>
      </trkpt>
      <trkpt lat="53.035495961084962" lon="-6.111905006691814">
        <ele>66.469999999999999</ele>
        <time>2026-07-09T14:20:18Z</time>
      </trkpt>
      <trkpt lat="53.03600599989295" lon="-6.112061999738216">
        <ele>66.950000000000003</ele>
        <time>2026-07-09T14:20:21Z</time>
      </trkpt>
      <trkpt lat="53.036122005432844" lon="-6.112054036930203">
        <ele>66.950000000000003</ele>
        <time>2026-07-09T14:20:23Z</time>
      </trkpt>
      <trkpt lat="53.036576975136995" lon="-6.111874999478459">
        <ele>66.950000000000003</ele>
        <time>2026-07-09T14:20:26Z</time>
      </trkpt>
      <trkpt lat="53.036686023697257" lon="-6.111874999478459">
        <ele>66.950000000000003</ele>
        <time>2026-07-09T14:20:27Z</time>
      </trkpt>
      <trkpt lat="53.03677998483181" lon="-6.111935013905168">
        <ele>67.430000000000007</ele>
        <time>2026-07-09T14:20:29Z</time>
      </trkpt>
      <trkpt lat="53.036873023957014" lon="-6.112021012231708">
        <ele>67.909999999999997</ele>
        <time>2026-07-09T14:20:30Z</time>
      </trkpt>
      <trkpt lat="53.036964973434806" lon="-6.112103993073106">
        <ele>68.870000000000005</ele>
        <time>2026-07-09T14:20:31Z</time>
      </trkpt>
      <trkpt lat="53.037052983418107" lon="-6.112185968086124">
        <ele>70.310000000000002</ele>
        <time>2026-07-09T14:20:32Z</time>
      </trkpt>
      <trkpt lat="53.037147028371692" lon="-6.112270960584283">
        <ele>70.790000000000006</ele>
        <time>2026-07-09T14:20:33Z</time>
      </trkpt>
      <trkpt lat="53.037902992218733" lon="-6.112964982166886">
        <ele>78.480000000000004</ele>
        <time>2026-07-09T14:20:40Z</time>
      </trkpt>
      <trkpt lat="53.038895996287465" lon="-6.114140041172504">
        <ele>90.019999999999996</ele>
        <time>2026-07-09T14:20:49Z</time>
      </trkpt>
      <trkpt lat="53.039103029295802" lon="-6.114371968433261">
        <ele>90.980000000000004</ele>
        <time>2026-07-09T14:20:51Z</time>
      </trkpt>
      <trkpt lat="53.039286006242037" lon="-6.114590987563133">
        <ele>92.420000000000002</ele>
        <time>2026-07-09T14:20:53Z</time>
      </trkpt>
      <trkpt lat="53.039452973753214" lon="-6.114902039989829">
        <ele>93.870000000000005</ele>
        <time>2026-07-09T14:20:55Z</time>
      </trkpt>
      <trkpt lat="53.039547018706799" lon="-6.11507898196578">
        <ele>94.349999999999994</ele>
        <time>2026-07-09T14:20:56Z</time>
      </trkpt>
      <trkpt lat="53.039950020611286" lon="-6.116092018783093">
        <ele>98.670000000000002</ele>
        <time>2026-07-09T14:21:01Z</time>
      </trkpt>
      <trkpt lat="53.040198963135481" lon="-6.116629969328642">
        <ele>100.11</ele>
        <time>2026-07-09T14:21:04Z</time>
      </trkpt>
      <trkpt lat="53.040390992537141" lon="-6.116927023977041">
        <ele>100.11</ele>
        <time>2026-07-09T14:21:05Z</time>
      </trkpt>
      <trkpt lat="53.040390992537141" lon="-6.116927023977041">
        <ele>100.59999999999999</ele>
        <time>2026-07-09T14:21:06Z</time>
      </trkpt>
      <trkpt lat="53.041411992162466" lon="-6.118212975561619">
        <ele>103</ele>
        <time>2026-07-09T14:21:15Z</time>
      </trkpt>
      <trkpt lat="53.042068965733051" lon="-6.119385017082095">
        <ele>104.44</ele>
        <time>2026-07-09T14:21:22Z</time>
      </trkpt>
      <trkpt lat="53.042413964867592" lon="-6.120753027498722">
        <ele>106.84</ele>
        <time>2026-07-09T14:21:28Z</time>
      </trkpt>
      <trkpt lat="53.042676988989115" lon="-6.122405016794801">
        <ele>111.65000000000001</ele>
        <time>2026-07-09T14:21:35Z</time>
      </trkpt>
      <trkpt lat="53.042690986767411" lon="-6.122616995126009">
        <ele>112.61</ele>
        <time>2026-07-09T14:21:36Z</time>
      </trkpt>
      <trkpt lat="53.042703978717327" lon="-6.122826961800456">
        <ele>113.56999999999999</ele>
        <time>2026-07-09T14:21:37Z</time>
      </trkpt>
      <trkpt lat="53.042761981487274" lon="-6.123775960877538">
        <ele>115.01000000000001</ele>
        <time>2026-07-09T14:21:42Z</time>
      </trkpt>
      <trkpt lat="53.042764998972416" lon="-6.123896995559335">
        <ele>115.98</ele>
        <time>2026-07-09T14:21:44Z</time>
      </trkpt>
      <trkpt lat="53.042764998972416" lon="-6.124020041897893">
        <ele>116.45999999999999</ele>
        <time>2026-07-09T14:21:45Z</time>
      </trkpt>
      <trkpt lat="53.042745972052217" lon="-6.124148033559322">
        <ele>116.94</ele>
        <time>2026-07-09T14:21:46Z</time>
      </trkpt>
      <trkpt lat="53.042724011465907" lon="-6.124301003292203">
        <ele>117.42</ele>
        <time>2026-07-09T14:21:47Z</time>
      </trkpt>
      <trkpt lat="53.042604988440871" lon="-6.125113964080811">
        <ele>119.34</ele>
        <time>2026-07-09T14:21:51Z</time>
      </trkpt>
      <trkpt lat="53.042570035904646" lon="-6.125349998474121">
        <ele>120.3</ele>
        <time>2026-07-09T14:21:52Z</time>
      </trkpt>
      <trkpt lat="53.042186982929707" lon="-6.127544967457652">
        <ele>129.43000000000001</ele>
        <time>2026-07-09T14:22:01Z</time>
      </trkpt>
      <trkpt lat="53.042140966281295" lon="-6.12773297354579">
        <ele>130.88</ele>
        <time>2026-07-09T14:22:02Z</time>
      </trkpt>
      <trkpt lat="53.042100984603167" lon="-6.127900024875999">
        <ele>131.36000000000001</ele>
        <time>2026-07-09T14:22:03Z</time>
      </trkpt>
      <trkpt lat="53.042053040117025" lon="-6.128050982952118">
        <ele>131.84</ele>
        <time>2026-07-09T14:22:04Z</time>
      </trkpt>
      <trkpt lat="53.042003000155091" lon="-6.128207975998521">
        <ele>131.84</ele>
        <time>2026-07-09T14:22:05Z</time>
      </trkpt>
      <trkpt lat="53.041944997385144" lon="-6.128382990136743">
        <ele>132.31999999999999</ele>
        <time>2026-07-09T14:22:06Z</time>
      </trkpt>
      <trkpt lat="53.041757997125387" lon="-6.128692030906677">
        <ele>133.75999999999999</ele>
        <time>2026-07-09T14:22:08Z</time>
      </trkpt>
      <trkpt lat="53.041664035990834" lon="-6.128846006467938">
        <ele>134.72</ele>
        <time>2026-07-09T14:22:09Z</time>
      </trkpt>
      <trkpt lat="53.041574014350772" lon="-6.128994030877948">
        <ele>135.19999999999999</ele>
        <time>2026-07-09T14:22:10Z</time>
      </trkpt>
      <trkpt lat="53.041392965242267" lon="-6.129291001707315">
        <ele>135.68000000000001</ele>
        <time>2026-07-09T14:22:11Z</time>
      </trkpt>
      <trkpt lat="53.041265979409218" lon="-6.129590990021825">
        <ele>137.61000000000001</ele>
        <time>2026-07-09T14:22:14Z</time>
      </trkpt>
      <trkpt lat="53.041242007166147" lon="-6.129754018038511">
        <ele>138.56999999999999</ele>
        <time>2026-07-09T14:22:15Z</time>
      </trkpt>
      <trkpt lat="53.041264973580837" lon="-6.13009599968791">
        <ele>139.53</ele>
        <time>2026-07-09T14:22:16Z</time>
      </trkpt>
      <trkpt lat="53.041306966915727" lon="-6.130259027704597">
        <ele>140.97</ele>
        <time>2026-07-09T14:22:18Z</time>
      </trkpt>
      <trkpt lat="53.041350971907377" lon="-6.130427001044154">
        <ele>141.93000000000001</ele>
        <time>2026-07-09T14:22:19Z</time>
      </trkpt>
      <trkpt lat="53.041391959413886" lon="-6.130586005747318">
        <ele>141.93000000000001</ele>
        <time>2026-07-09T14:22:20Z</time>
      </trkpt>
      <trkpt lat="53.041559010744095" lon="-6.130852969363332">
        <ele>141.93000000000001</ele>
        <time>2026-07-09T14:22:21Z</time>
      </trkpt>
      <trkpt lat="53.041645009070635" lon="-6.130981966853142">
        <ele>142.88999999999999</ele>
        <time>2026-07-09T14:22:23Z</time>
      </trkpt>
      <trkpt lat="53.042654022574425" lon="-6.132388031110168">
        <ele>154.91</ele>
        <time>2026-07-09T14:22:33Z</time>
      </trkpt>
      <trkpt lat="53.043316025286913" lon="-6.133536016568542">
        <ele>162.59999999999999</ele>
        <time>2026-07-09T14:22:40Z</time>
      </trkpt>
      <trkpt lat="53.043378973379731" lon="-6.133699966594577">
        <ele>164.03999999999999</ele>
        <time>2026-07-09T14:22:41Z</time>
      </trkpt>
      <trkpt lat="53.043431024998426" lon="-6.133861988782883">
        <ele>165</ele>
        <time>2026-07-09T14:22:42Z</time>
      </trkpt>
      <trkpt lat="53.043478969484568" lon="-6.134035997092724">
        <ele>165.96000000000001</ele>
        <time>2026-07-09T14:22:43Z</time>
      </trkpt>
      <trkpt lat="53.04350595921278" lon="-6.134224003180862">
        <ele>166.93000000000001</ele>
        <time>2026-07-09T14:22:44Z</time>
      </trkpt>
      <trkpt lat="53.043667981401086" lon="-6.136363986879587">
        <ele>177.97999999999999</ele>
        <time>2026-07-09T14:22:53Z</time>
      </trkpt>
      <trkpt lat="53.04365498945117" lon="-6.137612974271178">
        <ele>184.22999999999999</ele>
        <time>2026-07-09T14:22:59Z</time>
      </trkpt>
      <trkpt lat="53.043846013024449" lon="-6.139887990429997">
        <ele>190.47999999999999</ele>
        <time>2026-07-09T14:23:09Z</time>
      </trkpt>
      <trkpt lat="53.043856993317604" lon="-6.140085970982909">
        <ele>190.96000000000001</ele>
        <time>2026-07-09T14:23:10Z</time>
      </trkpt>
      <trkpt lat="53.043867973610759" lon="-6.140273977071047">
        <ele>191.91999999999999</ele>
        <time>2026-07-09T14:23:11Z</time>
      </trkpt>
      <trkpt lat="53.043880965560675" lon="-6.140499031171203">
        <ele>192.40000000000001</ele>
        <time>2026-07-09T14:23:12Z</time>
      </trkpt>
      <trkpt lat="53.044384969398379" lon="-6.14197600632906">
        <ele>196.72999999999999</ele>
        <time>2026-07-09T14:23:19Z</time>
      </trkpt>
      <trkpt lat="53.044709013774991" lon="-6.14352397620678">
        <ele>202.97999999999999</ele>
        <time>2026-07-09T14:23:26Z</time>
      </trkpt>
      <trkpt lat="53.044759975746274" lon="-6.143904011696577">
        <ele>204.90000000000001</ele>
        <time>2026-07-09T14:23:29Z</time>
      </trkpt>
      <trkpt lat="53.044869024306536" lon="-6.144155971705914">
        <ele>205.38</ele>
        <time>2026-07-09T14:23:30Z</time>
      </trkpt>
      <trkpt lat="53.044932978227735" lon="-6.144299972802401">
        <ele>205.86000000000001</ele>
        <time>2026-07-09T14:23:31Z</time>
      </trkpt>
      <trkpt lat="53.045073039829731" lon="-6.144616976380348">
        <ele>207.30000000000001</ele>
        <time>2026-07-09T14:23:33Z</time>
      </trkpt>
      <trkpt lat="53.045145040377975" lon="-6.144782016053796">
        <ele>207.78</ele>
        <time>2026-07-09T14:23:35Z</time>
      </trkpt>
      <trkpt lat="53.045197008177638" lon="-6.144959963858128">
        <ele>207.78</ele>
        <time>2026-07-09T14:23:36Z</time>
      </trkpt>
      <trkpt lat="53.045669998973608" lon="-6.147030964493752">
        <ele>209.69999999999999</ele>
        <time>2026-07-09T14:23:45Z</time>
      </trkpt>
      <trkpt lat="53.046296965330839" lon="-6.149781988933682">
        <ele>214.03</ele>
        <time>2026-07-09T14:23:56Z</time>
      </trkpt>
      <trkpt lat="53.046889984980226" lon="-6.1524180136621">
        <ele>216.43000000000001</ele>
        <time>2026-07-09T14:24:06Z</time>
      </trkpt>
      <trkpt lat="53.047189973294735" lon="-6.153754005208612">
        <ele>216.91</ele>
        <time>2026-07-09T14:24:11Z</time>
      </trkpt>
      <trkpt lat="53.047247976064682" lon="-6.15400998853147">
        <ele>216.91</ele>
        <time>2026-07-09T14:24:12Z</time>
      </trkpt>
      <trkpt lat="53.047926994040608" lon="-6.157098971307278">
        <ele>216.43000000000001</ele>
        <time>2026-07-09T14:24:23Z</time>
      </trkpt>
      <trkpt lat="53.048715982586145" lon="-6.160542005673051">
        <ele>217.88</ele>
        <time>2026-07-09T14:24:36Z</time>
      </trkpt>
      <trkpt lat="53.049629023298621" lon="-6.163956960663199">
        <ele>221.72</ele>
        <time>2026-07-09T14:24:49Z</time>
      </trkpt>
      <trkpt lat="53.050121963024139" lon="-6.166497012600303">
        <ele>227.00999999999999</ele>
        <time>2026-07-09T14:24:59Z</time>
      </trkpt>
      <trkpt lat="53.050556983798742" lon="-6.168687958270311">
        <ele>236.13999999999999</ele>
        <time>2026-07-09T14:25:08Z</time>
      </trkpt>
      <trkpt lat="53.050612974911928" lon="-6.168931033462286">
        <ele>238.06</ele>
        <time>2026-07-09T14:25:09Z</time>
      </trkpt>
      <trkpt lat="53.05134798400104" lon="-6.171198002994061">
        <ele>244.78999999999999</ele>
        <time>2026-07-09T14:25:18Z</time>
      </trkpt>
      <trkpt lat="53.051551999524236" lon="-6.171855982393026">
        <ele>245.27000000000001</ele>
        <time>2026-07-09T14:25:21Z</time>
      </trkpt>
      <trkpt lat="53.051628023386002" lon="-6.172024961560965">
        <ele>245.27000000000001</ele>
        <time>2026-07-09T14:25:22Z</time>
      </trkpt>
      <trkpt lat="53.051864979788661" lon="-6.17255000397563">
        <ele>244.31</ele>
        <time>2026-07-09T14:25:25Z</time>
      </trkpt>
      <trkpt lat="53.051929017528892" lon="-6.172725018113852">
        <ele>244.31</ele>
        <time>2026-07-09T14:25:26Z</time>
      </trkpt>
      <trkpt lat="53.051979979500175" lon="-6.172907995060086">
        <ele>243.83000000000001</ele>
        <time>2026-07-09T14:25:27Z</time>
      </trkpt>
      <trkpt lat="53.052014010027051" lon="-6.173070017248392">
        <ele>244.31</ele>
        <time>2026-07-09T14:25:28Z</time>
      </trkpt>
      <trkpt lat="53.052014010027051" lon="-6.173256011679769">
        <ele>244.78999999999999</ele>
        <time>2026-07-09T14:25:29Z</time>
      </trkpt>
      <trkpt lat="53.0518629681319" lon="-6.175044039264321">
        <ele>246.22999999999999</ele>
        <time>2026-07-09T14:25:38Z</time>
      </trkpt>
      <trkpt lat="53.0518629681319" lon="-6.175503032281995">
        <ele>245.27000000000001</ele>
        <time>2026-07-09T14:25:40Z</time>
      </trkpt>
      <trkpt lat="53.0518629681319" lon="-6.175740994513035">
        <ele>244.78999999999999</ele>
        <time>2026-07-09T14:25:41Z</time>
      </trkpt>
      <trkpt lat="53.051933040842414" lon="-6.17620199918747">
        <ele>244.31</ele>
        <time>2026-07-09T14:25:43Z</time>
      </trkpt>
      <trkpt lat="53.052188018336892" lon="-6.177316037937999">
        <ele>242.38999999999999</ele>
        <time>2026-07-09T14:25:48Z</time>
      </trkpt>
      <trkpt lat="53.052236968651414" lon="-6.177538996562362">
        <ele>242.38999999999999</ele>
        <time>2026-07-09T14:25:49Z</time>
      </trkpt>
      <trkpt lat="53.052337970584631" lon="-6.177998995408416">
        <ele>240.94999999999999</ele>
        <time>2026-07-09T14:25:51Z</time>
      </trkpt>
      <trkpt lat="53.053008019924164" lon="-6.180548015981913">
        <ele>236.13999999999999</ele>
        <time>2026-07-09T14:26:01Z</time>
      </trkpt>
      <trkpt lat="53.05364697240293" lon="-6.182206040248275">
        <ele>231.81</ele>
        <time>2026-07-09T14:26:10Z</time>
      </trkpt>
      <trkpt lat="53.054103031754494" lon="-6.183152021840215">
        <ele>227.49000000000001</ele>
        <time>2026-07-09T14:26:16Z</time>
      </trkpt>
      <trkpt lat="53.054157011210918" lon="-6.183260986581445">
        <ele>227.00999999999999</ele>
        <time>2026-07-09T14:26:17Z</time>
      </trkpt>
      <trkpt lat="53.054204033687711" lon="-6.183354025706649">
        <ele>226.53</ele>
        <time>2026-07-09T14:26:18Z</time>
      </trkpt>
      <trkpt lat="53.054176038131118" lon="-6.1835309676826">
        <ele>226.05000000000001</ele>
        <time>2026-07-09T14:26:19Z</time>
      </trkpt>
      <trkpt lat="53.054133960977197" lon="-6.183652002364397">
        <ele>226.05000000000001</ele>
        <time>2026-07-09T14:26:20Z</time>
      </trkpt>
      <trkpt lat="53.053908990696073" lon="-6.184306964278221">
        <ele>226.05000000000001</ele>
        <time>2026-07-09T14:26:24Z</time>
      </trkpt>
      <trkpt lat="53.053610008209944" lon="-6.185175999999046">
        <ele>225.56999999999999</ele>
        <time>2026-07-09T14:26:27Z</time>
      </trkpt>
      <trkpt lat="53.053526021540165" lon="-6.185418991371989">
        <ele>225.56999999999999</ele>
        <time>2026-07-09T14:26:28Z</time>
      </trkpt>
      <trkpt lat="53.053443962708116" lon="-6.18565896525979">
        <ele>225.09</ele>
        <time>2026-07-09T14:26:30Z</time>
      </trkpt>
      <trkpt lat="53.052926966920495" lon="-6.18720299564302">
        <ele>223.63999999999999</ele>
        <time>2026-07-09T14:26:36Z</time>
      </trkpt>
      <trkpt lat="53.052833005785942" lon="-6.187472976744175">
        <ele>223.16</ele>
        <time>2026-07-09T14:26:37Z</time>
      </trkpt>
      <trkpt lat="53.051507994532585" lon="-6.191297974437475">
        <ele>220.75999999999999</ele>
        <time>2026-07-09T14:26:52Z</time>
      </trkpt>
      <trkpt lat="53.050608029589057" lon="-6.193898040801287">
        <ele>220.75999999999999</ele>
        <time>2026-07-09T14:27:02Z</time>
      </trkpt>
      <trkpt lat="53.05055296048522" lon="-6.194096021354199">
        <ele>220.75999999999999</ele>
        <time>2026-07-09T14:27:03Z</time>
      </trkpt>
      <trkpt lat="53.050511972978711" lon="-6.19427396915853">
        <ele>220.75999999999999</ele>
        <time>2026-07-09T14:27:04Z</time>
      </trkpt>
      <trkpt lat="53.050511972978711" lon="-6.194453006610274">
        <ele>220.75999999999999</ele>
        <time>2026-07-09T14:27:05Z</time>
      </trkpt>
      <trkpt lat="53.050528988242149" lon="-6.194644030183554">
        <ele>221.24000000000001</ele>
        <time>2026-07-09T14:27:06Z</time>
      </trkpt>
      <trkpt lat="53.050590008497238" lon="-6.194816026836634">
        <ele>222.19999999999999</ele>
        <time>2026-07-09T14:27:07Z</time>
      </trkpt>
      <trkpt lat="53.051340021193027" lon="-6.196806980296969">
        <ele>223.63999999999999</ele>
        <time>2026-07-09T14:27:16Z</time>
      </trkpt>
      <trkpt lat="53.051579995080829" lon="-6.197549030184746">
        <ele>223.63999999999999</ele>
        <time>2026-07-09T14:27:19Z</time>
      </trkpt>
      <trkpt lat="53.051657024770975" lon="-6.197804007679224">
        <ele>223.63999999999999</ele>
        <time>2026-07-09T14:27:20Z</time>
      </trkpt>
      <trkpt lat="53.052018033340573" lon="-6.199966035783291">
        <ele>228.93000000000001</ele>
        <time>2026-07-09T14:27:28Z</time>
      </trkpt>
      <trkpt lat="53.052431009709835" lon="-6.202555960044265">
        <ele>239.02000000000001</ele>
        <time>2026-07-09T14:27:37Z</time>
      </trkpt>
      <trkpt lat="53.052857983857393" lon="-6.20523196645081">
        <ele>239.50999999999999</ele>
        <time>2026-07-09T14:27:47Z</time>
      </trkpt>
      <trkpt lat="53.053294010460377" lon="-6.207962036132813">
        <ele>231.81</ele>
        <time>2026-07-09T14:27:57Z</time>
      </trkpt>
      <trkpt lat="53.05342803709209" lon="-6.208800980821252">
        <ele>229.41</ele>
        <time>2026-07-09T14:28:00Z</time>
      </trkpt>
      <trkpt lat="53.053964981809258" lon="-6.210727980360389">
        <ele>227.49000000000001</ele>
        <time>2026-07-09T14:28:08Z</time>
      </trkpt>
      <trkpt lat="53.054043017327785" lon="-6.210996033623815">
        <ele>227.49000000000001</ele>
        <time>2026-07-09T14:28:09Z</time>
      </trkpt>
      <trkpt lat="53.054754976183176" lon="-6.213461989536881">
        <ele>229.88999999999999</ele>
        <time>2026-07-09T14:28:19Z</time>
      </trkpt>
      <trkpt lat="53.05534103885293" lon="-6.215921994298697">
        <ele>234.69999999999999</ele>
        <time>2026-07-09T14:28:29Z</time>
      </trkpt>
      <trkpt lat="53.055485961958766" lon="-6.216539992019534">
        <ele>236.62</ele>
        <time>2026-07-09T14:28:31Z</time>
      </trkpt>
      <trkpt lat="53.055586963891983" lon="-6.216895971447229">
        <ele>238.06</ele>
        <time>2026-07-09T14:28:33Z</time>
      </trkpt>
      <trkpt lat="53.055641027167439" lon="-6.217051958665252">
        <ele>239.99000000000001</ele>
        <time>2026-07-09T14:28:35Z</time>
      </trkpt>
      <trkpt lat="53.055686037987471" lon="-6.217181039974093">
        <ele>240.47</ele>
        <time>2026-07-09T14:28:36Z</time>
      </trkpt>
      <trkpt lat="53.055779999122024" lon="-6.217282041907311">
        <ele>240.94999999999999</ele>
        <time>2026-07-09T14:28:37Z</time>
      </trkpt>
      <trkpt lat="53.055853005498648" lon="-6.217264020815492">
        <ele>241.43000000000001</ele>
        <time>2026-07-09T14:28:38Z</time>
      </trkpt>
      <trkpt lat="53.055931041017175" lon="-6.217242982238531">
        <ele>242.38999999999999</ele>
        <time>2026-07-09T14:28:39Z</time>
      </trkpt>
      <trkpt lat="53.056016033515334" lon="-6.217221021652222">
        <ele>242.87</ele>
        <time>2026-07-09T14:28:40Z</time>
      </trkpt>
      <trkpt lat="53.057081960141659" lon="-6.216969983652234">
        <ele>243.34999999999999</ele>
        <time>2026-07-09T14:28:47Z</time>
      </trkpt>
      <trkpt lat="53.057236019521952" lon="-6.216964032500982">
        <ele>243.34999999999999</ele>
        <time>2026-07-09T14:28:48Z</time>
      </trkpt>
      <trkpt lat="53.057529972866178" lon="-6.216963026672602">
        <ele>243.83000000000001</ele>
        <time>2026-07-09T14:28:50Z</time>
      </trkpt>
      <trkpt lat="53.057667016983032" lon="-6.21702304109931">
        <ele>244.78999999999999</ele>
        <time>2026-07-09T14:28:52Z</time>
      </trkpt>
      <trkpt lat="53.058892032131553" lon="-6.218157028779388">
        <ele>250.08000000000001</ele>
        <time>2026-07-09T14:29:01Z</time>
      </trkpt>
      <trkpt lat="53.058983981609344" lon="-6.218327013775706">
        <ele>250.56</ele>
        <time>2026-07-09T14:29:02Z</time>
      </trkpt>
      <trkpt lat="53.059352030977607" lon="-6.219077026471496">
        <ele>252.47999999999999</ele>
        <time>2026-07-09T14:29:06Z</time>
      </trkpt>
      <trkpt lat="53.059587981551886" lon="-6.219339966773987">
        <ele>253.44</ele>
        <time>2026-07-09T14:29:08Z</time>
      </trkpt>
      <trkpt lat="53.059828039258718" lon="-6.219606008380652">
        <ele>253.93000000000001</ele>
        <time>2026-07-09T14:29:10Z</time>
      </trkpt>
      <trkpt lat="53.059941027313471" lon="-6.21973198838532">
        <ele>254.41</ele>
        <time>2026-07-09T14:29:11Z</time>
      </trkpt>
      <trkpt lat="53.060056027024984" lon="-6.219859980046749">
        <ele>254.88999999999999</ele>
        <time>2026-07-09T14:29:12Z</time>
      </trkpt>
      <trkpt lat="53.060164991766214" lon="-6.220031976699829">
        <ele>254.88999999999999</ele>
        <time>2026-07-09T14:29:13Z</time>
      </trkpt>
      <trkpt lat="53.060251995921135" lon="-6.220238003879786">
        <ele>254.88999999999999</ele>
        <time>2026-07-09T14:29:14Z</time>
      </trkpt>
      <trkpt lat="53.060344029217958" lon="-6.220457023009658">
        <ele>254.88999999999999</ele>
        <time>2026-07-09T14:29:15Z</time>
      </trkpt>
      <trkpt lat="53.060639994218946" lon="-6.221159007400274">
        <ele>253.93000000000001</ele>
        <time>2026-07-09T14:29:18Z</time>
      </trkpt>
      <trkpt lat="53.060709983110428" lon="-6.221382971853018">
        <ele>253.44</ele>
        <time>2026-07-09T14:29:19Z</time>
      </trkpt>
      <trkpt lat="53.060791036114097" lon="-6.221641972661018">
        <ele>252</ele>
        <time>2026-07-09T14:29:21Z</time>
      </trkpt>
      <trkpt lat="53.061318006366491" lon="-6.223316006362438">
        <ele>245.75</ele>
        <time>2026-07-09T14:29:28Z</time>
      </trkpt>
      <trkpt lat="53.061900967732072" lon="-6.225057011470199">
        <ele>235.18000000000001</ele>
        <time>2026-07-09T14:29:40Z</time>
      </trkpt>
      <trkpt lat="53.061979003250599" lon="-6.225174022838473">
        <ele>234.69999999999999</ele>
        <time>2026-07-09T14:29:41Z</time>
      </trkpt>
      <trkpt lat="53.062026025727391" lon="-6.225245017558336">
        <ele>233.25999999999999</ele>
        <time>2026-07-09T14:29:50Z</time>
      </trkpt>
      <trkpt lat="53.062043963000178" lon="-6.225272007286549">
        <ele>232.78</ele>
        <time>2026-07-09T14:29:52Z</time>
      </trkpt>
      <trkpt lat="53.06211001239717" lon="-6.225303020328283">
        <ele>232.78</ele>
        <time>2026-07-09T14:29:53Z</time>
      </trkpt>
      <trkpt lat="53.062899000942707" lon="-6.224982999265194">
        <ele>230.37</ele>
        <time>2026-07-09T14:30:02Z</time>
      </trkpt>
      <trkpt lat="53.064070036634803" lon="-6.224714023992419">
        <ele>224.61000000000001</ele>
        <time>2026-07-09T14:30:14Z</time>
      </trkpt>
      <trkpt lat="53.064461974427104" lon="-6.224639005959034">
        <ele>223.16</ele>
        <time>2026-07-09T14:30:18Z</time>
      </trkpt>
      <trkpt lat="53.065727977082133" lon="-6.224260982125998">
        <ele>225.56999999999999</ele>
        <time>2026-07-09T14:30:29Z</time>
      </trkpt>
      <trkpt lat="53.066347986459732" lon="-6.224166015163064">
        <ele>227.97</ele>
        <time>2026-07-09T14:30:35Z</time>
      </trkpt>
      <trkpt lat="53.067689007148147" lon="-6.223570983856916">
        <ele>227.49000000000001</ele>
        <time>2026-07-09T14:30:45Z</time>
      </trkpt>
      <trkpt lat="53.069224990904331" lon="-6.222847960889339">
        <ele>227.97</ele>
        <time>2026-07-09T14:30:58Z</time>
      </trkpt>
      <trkpt lat="53.070334000512958" lon="-6.222042040899396">
        <ele>227.49000000000001</ele>
        <time>2026-07-09T14:31:07Z</time>
      </trkpt>
      <trkpt lat="53.070458974689245" lon="-6.221932992339134">
        <ele>227.00999999999999</ele>
        <time>2026-07-09T14:31:09Z</time>
      </trkpt>
      <trkpt lat="53.070729961618781" lon="-6.221635015681386">
        <ele>225.09</ele>
        <time>2026-07-09T14:31:12Z</time>
      </trkpt>
      <trkpt lat="53.070831969380379" lon="-6.221518004313111">
        <ele>224.61000000000001</ele>
        <time>2026-07-09T14:31:13Z</time>
      </trkpt>
      <trkpt lat="53.070917967706919" lon="-6.221587993204594">
        <ele>223.63999999999999</ele>
        <time>2026-07-09T14:31:15Z</time>
      </trkpt>
      <trkpt lat="53.07091997936368" lon="-6.221593022346497">
        <ele>223.63999999999999</ele>
        <time>2026-07-09T14:31:16Z</time>
      </trkpt>
      <trkpt lat="53.070947974920273" lon="-6.221669968217611">
        <ele>223.16</ele>
        <time>2026-07-09T14:31:17Z</time>
      </trkpt>
      <trkpt lat="53.071040008217096" lon="-6.221740040928125">
        <ele>223.16</ele>
        <time>2026-07-09T14:31:18Z</time>
      </trkpt>
      <trkpt lat="53.071923963725567" lon="-6.22140702791512">
        <ele>220.75999999999999</ele>
        <time>2026-07-09T14:31:25Z</time>
      </trkpt>
      <trkpt lat="53.073288034647703" lon="-6.220844015479088">
        <ele>222.68000000000001</ele>
        <time>2026-07-09T14:31:34Z</time>
      </trkpt>
      <trkpt lat="53.074564011767507" lon="-6.220043962821364">
        <ele>227.00999999999999</ele>
        <time>2026-07-09T14:31:43Z</time>
      </trkpt>
      <trkpt lat="53.075831020250916" lon="-6.219171993434429">
        <ele>237.58000000000001</ele>
        <time>2026-07-09T14:31:52Z</time>
      </trkpt>
      <trkpt lat="53.077399022877216" lon="-6.218633959069848">
        <ele>241.91</ele>
        <time>2026-07-09T14:32:02Z</time>
      </trkpt>
      <trkpt lat="53.077848963439465" lon="-6.218541003763676">
        <ele>242.38999999999999</ele>
        <time>2026-07-09T14:32:05Z</time>
      </trkpt>
      <trkpt lat="53.077992964535952" lon="-6.218560030683875">
        <ele>242.38999999999999</ele>
        <time>2026-07-09T14:32:06Z</time>
      </trkpt>
      <trkpt lat="53.078126991167665" lon="-6.218605041503906">
        <ele>242.87</ele>
        <time>2026-07-09T14:32:07Z</time>
      </trkpt>
      <trkpt lat="53.078259006142616" lon="-6.218648962676525">
        <ele>244.31</ele>
        <time>2026-07-09T14:32:09Z</time>
      </trkpt>
      <trkpt lat="53.080039992928505" lon="-6.219496037811041">
        <ele>240.47</ele>
        <time>2026-07-09T14:32:20Z</time>
      </trkpt>
      <trkpt lat="53.081092005595565" lon="-6.2199039850384">
        <ele>239.02000000000001</ele>
        <time>2026-07-09T14:32:26Z</time>
      </trkpt>
      <trkpt lat="53.081397023051977" lon="-6.219943966716528">
        <ele>240.47</ele>
        <time>2026-07-09T14:32:28Z</time>
      </trkpt>
      <trkpt lat="53.081539012491703" lon="-6.219985960051417">
        <ele>240.94999999999999</ele>
        <time>2026-07-09T14:32:29Z</time>
      </trkpt>
      <trkpt lat="53.081673961132765" lon="-6.220080005005002">
        <ele>240.94999999999999</ele>
        <time>2026-07-09T14:32:30Z</time>
      </trkpt>
      <trkpt lat="53.081817962229252" lon="-6.220180001109839">
        <ele>241.43000000000001</ele>
        <time>2026-07-09T14:32:31Z</time>
      </trkpt>
      <trkpt lat="53.081970009952784" lon="-6.220285026356578">
        <ele>241.91</ele>
        <time>2026-07-09T14:32:32Z</time>
      </trkpt>
      <trkpt lat="53.083102991804481" lon="-6.220622984692454">
        <ele>248.16</ele>
        <time>2026-07-09T14:32:39Z</time>
      </trkpt>
      <trkpt lat="53.085085982456803" lon="-6.220178995281458">
        <ele>253.93000000000001</ele>
        <time>2026-07-09T14:32:51Z</time>
      </trkpt>
      <trkpt lat="53.086361037567258" lon="-6.219963999465108">
        <ele>252.47999999999999</ele>
        <time>2026-07-09T14:32:59Z</time>
      </trkpt>
      <trkpt lat="53.087594015523791" lon="-6.219815975055099">
        <ele>249.59999999999999</ele>
        <time>2026-07-09T14:33:08Z</time>
      </trkpt>
      <trkpt lat="53.087939014658332" lon="-6.219810023903847">
        <ele>248.16</ele>
        <time>2026-07-09T14:33:10Z</time>
      </trkpt>
      <trkpt lat="53.088271021842957" lon="-6.219900967553258">
        <ele>247.68000000000001</ele>
        <time>2026-07-09T14:33:11Z</time>
      </trkpt>
      <trkpt lat="53.088708976283669" lon="-6.220058966428042">
        <ele>246.72</ele>
        <time>2026-07-09T14:33:15Z</time>
      </trkpt>
      <trkpt lat="53.090014038607478" lon="-6.220674030482769">
        <ele>246.22999999999999</ele>
        <time>2026-07-09T14:33:25Z</time>
      </trkpt>
      <trkpt lat="53.090143036097288" lon="-6.220728009939194">
        <ele>245.75</ele>
        <time>2026-07-09T14:33:31Z</time>
      </trkpt>
      <trkpt lat="53.090166002511978" lon="-6.220736978575587">
        <ele>245.75</ele>
        <time>2026-07-09T14:33:33Z</time>
      </trkpt>
      <trkpt lat="53.090200033038855" lon="-6.220750976353884">
        <ele>245.27000000000001</ele>
        <time>2026-07-09T14:33:34Z</time>
      </trkpt>
      <trkpt lat="53.090250995010138" lon="-6.220772014930844">
        <ele>245.27000000000001</ele>
        <time>2026-07-09T14:33:35Z</time>
      </trkpt>
      <trkpt lat="53.09034202247858" lon="-6.220813002437353">
        <ele>244.78999999999999</ele>
        <time>2026-07-09T14:33:36Z</time>
      </trkpt>
      <trkpt lat="53.090431960299611" lon="-6.220853989943862">
        <ele>244.78999999999999</ele>
        <time>2026-07-09T14:33:37Z</time>
      </trkpt>
      <trkpt lat="53.09053698554635" lon="-6.220901012420654">
        <ele>244.78999999999999</ele>
        <time>2026-07-09T14:33:38Z</time>
      </trkpt>
      <trkpt lat="53.090649973601103" lon="-6.220951974391937">
        <ele>244.78999999999999</ele>
        <time>2026-07-09T14:33:39Z</time>
      </trkpt>
      <trkpt lat="53.091519009321928" lon="-6.221341984346509">
        <ele>248.16</ele>
        <time>2026-07-09T14:33:45Z</time>
      </trkpt>
      <trkpt lat="53.092966983094811" lon="-6.221968028694391">
        <ele>258.73000000000002</ele>
        <time>2026-07-09T14:33:54Z</time>
      </trkpt>
      <trkpt lat="53.094280008226633" lon="-6.222614021971822">
        <ele>271.23000000000002</ele>
        <time>2026-07-09T14:34:03Z</time>
      </trkpt>
      <trkpt lat="53.094431972131133" lon="-6.222688034176827">
        <ele>272.67000000000002</ele>
        <time>2026-07-09T14:34:04Z</time>
      </trkpt>
      <trkpt lat="53.096185969188809" lon="-6.223698975518346">
        <ele>284.20999999999998</ele>
        <time>2026-07-09T14:34:16Z</time>
      </trkpt>
      <trkpt lat="53.097007982432842" lon="-6.224241033196449">
        <ele>289.97000000000003</ele>
        <time>2026-07-09T14:34:23Z</time>
      </trkpt>
      <trkpt lat="53.097870983183384" lon="-6.224492993205786">
        <ele>292.38</ele>
        <time>2026-07-09T14:34:31Z</time>
      </trkpt>
      <trkpt lat="53.099121982231736" lon="-6.224591983482242">
        <ele>287.56999999999999</ele>
        <time>2026-07-09T14:34:40Z</time>
      </trkpt>
      <trkpt lat="53.100306009873748" lon="-6.224081022664905">
        <ele>277.95999999999998</ele>
        <time>2026-07-09T14:34:49Z</time>
      </trkpt>
      <trkpt lat="53.102060006931424" lon="-6.222620978951454">
        <ele>282.27999999999997</ele>
        <time>2026-07-09T14:35:00Z</time>
      </trkpt>
      <trkpt lat="53.103544022887945" lon="-6.221132017672062">
        <ele>286.61000000000001</ele>
        <time>2026-07-09T14:35:11Z</time>
      </trkpt>
      <trkpt lat="53.104744981974363" lon="-6.21938799507916">
        <ele>292.86000000000001</ele>
        <time>2026-07-09T14:35:21Z</time>
      </trkpt>
      <trkpt lat="53.10645698569715" lon="-6.217836001887918">
        <ele>301.50999999999999</ele>
        <time>2026-07-09T14:35:33Z</time>
      </trkpt>
      <trkpt lat="53.106759991496801" lon="-6.217593010514975">
        <ele>302.94999999999999</ele>
        <time>2026-07-09T14:35:35Z</time>
      </trkpt>
      <trkpt lat="53.108335034921765" lon="-6.21610002592206">
        <ele>308.24000000000001</ele>
        <time>2026-07-09T14:35:47Z</time>
      </trkpt>
      <trkpt lat="53.109342958778143" lon="-6.214791024103761">
        <ele>305.83999999999997</ele>
        <time>2026-07-09T14:35:55Z</time>
      </trkpt>
      <trkpt lat="53.109469022601843" lon="-6.214658003300428">
        <ele>305.83999999999997</ele>
        <time>2026-07-09T14:35:56Z</time>
      </trkpt>
      <trkpt lat="53.109595002606511" lon="-6.214524982497096">
        <ele>305.36000000000001</ele>
        <time>2026-07-09T14:35:57Z</time>
      </trkpt>
      <trkpt lat="53.109713019803166" lon="-6.214399002492428">
        <ele>304.88</ele>
        <time>2026-07-09T14:35:58Z</time>
      </trkpt>
      <trkpt lat="53.109837993979454" lon="-6.214184006676078">
        <ele>304.88</ele>
        <time>2026-07-09T14:35:59Z</time>
      </trkpt>
      <trkpt lat="53.109943019226193" lon="-6.214001029729843">
        <ele>304.38999999999999</ele>
        <time>2026-07-09T14:36:00Z</time>
      </trkpt>
      <trkpt lat="53.110180981457233" lon="-6.213668016716838">
        <ele>303.91000000000003</ele>
        <time>2026-07-09T14:36:02Z</time>
      </trkpt>
      <trkpt lat="53.111314969137311" lon="-6.21232096105814">
        <ele>299.58999999999997</ele>
        <time>2026-07-09T14:36:11Z</time>
      </trkpt>
      <trkpt lat="53.111511021852493" lon="-6.212089033797383">
        <ele>299.11000000000001</ele>
        <time>2026-07-09T14:36:13Z</time>
      </trkpt>
      <trkpt lat="53.111609006300569" lon="-6.211972022429109">
        <ele>299.11000000000001</ele>
        <time>2026-07-09T14:36:14Z</time>
      </trkpt>
      <trkpt lat="53.112825974822044" lon="-6.210870975628495">
        <ele>296.69999999999999</ele>
        <time>2026-07-09T14:36:23Z</time>
      </trkpt>
      <trkpt lat="53.114175964146852" lon="-6.209700023755431">
        <ele>289.00999999999999</ele>
        <time>2026-07-09T14:36:33Z</time>
      </trkpt>
      <trkpt lat="53.1142339669168" lon="-6.209444962441921">
        <ele>288.05000000000001</ele>
        <time>2026-07-09T14:36:34Z</time>
      </trkpt>
      <trkpt lat="53.114280989393592" lon="-6.209238013252616">
        <ele>287.08999999999997</ele>
        <time>2026-07-09T14:36:35Z</time>
      </trkpt>
      <trkpt lat="53.114359024912119" lon="-6.208957973867655">
        <ele>286.61000000000001</ele>
        <time>2026-07-09T14:36:37Z</time>
      </trkpt>
      <trkpt lat="53.114659013226628" lon="-6.208428991958499">
        <ele>286.61000000000001</ele>
        <time>2026-07-09T14:36:39Z</time>
      </trkpt>
      <trkpt lat="53.114756997674704" lon="-6.208309968933463">
        <ele>287.08999999999997</ele>
        <time>2026-07-09T14:36:40Z</time>
      </trkpt>
      <trkpt lat="53.114853976294398" lon="-6.208190023899078">
        <ele>287.56999999999999</ele>
        <time>2026-07-09T14:36:41Z</time>
      </trkpt>
      <trkpt lat="53.115896014496684" lon="-6.206629984080792">
        <ele>293.81999999999999</ele>
        <time>2026-07-09T14:36:51Z</time>
      </trkpt>
      <trkpt lat="53.116768989712" lon="-6.205775029957295">
        <ele>294.77999999999997</ele>
        <time>2026-07-09T14:36:59Z</time>
      </trkpt>
      <trkpt lat="53.118092995136976" lon="-6.204962991178036">
        <ele>290.94</ele>
        <time>2026-07-09T14:37:09Z</time>
      </trkpt>
      <trkpt lat="53.118210006505251" lon="-6.204828964546323">
        <ele>290.45999999999998</ele>
        <time>2026-07-09T14:37:10Z</time>
      </trkpt>
      <trkpt lat="53.119308035820723" lon="-6.203190973028541">
        <ele>289.97000000000003</ele>
        <time>2026-07-09T14:37:19Z</time>
      </trkpt>
      <trkpt lat="53.120373040437698" lon="-6.201359024271369">
        <ele>277.95999999999998</ele>
        <time>2026-07-09T14:37:28Z</time>
      </trkpt>
      <trkpt lat="53.121354980394244" lon="-6.200169967487454">
        <ele>277.48000000000002</ele>
        <time>2026-07-09T14:37:36Z</time>
      </trkpt>
      <trkpt lat="53.1214539706707" lon="-6.20007298886776">
        <ele>277.95999999999998</ele>
        <time>2026-07-09T14:37:37Z</time>
      </trkpt>
      <trkpt lat="53.121906006708741" lon="-6.199630005285144">
        <ele>280.36000000000001</ele>
        <time>2026-07-09T14:37:43Z</time>
      </trkpt>
      <trkpt lat="53.121954035013914" lon="-6.199582982808352">
        <ele>280.36000000000001</ele>
        <time>2026-07-09T14:37:44Z</time>
      </trkpt>
      <trkpt lat="53.121983036398888" lon="-6.199525985866785">
        <ele>280.83999999999997</ele>
        <time>2026-07-09T14:37:46Z</time>
      </trkpt>
      <trkpt lat="53.121948000043631" lon="-6.199335968121886">
        <ele>281.31999999999999</ele>
        <time>2026-07-09T14:37:47Z</time>
      </trkpt>
      <trkpt lat="53.12192402780056" lon="-6.199205964803696">
        <ele>281.31999999999999</ele>
        <time>2026-07-09T14:37:48Z</time>
      </trkpt>
      <trkpt lat="53.121866025030613" lon="-6.198887033388019">
        <ele>281.80000000000001</ele>
        <time>2026-07-09T14:37:50Z</time>
      </trkpt>
      <trkpt lat="53.121835011988878" lon="-6.198716964572668">
        <ele>281.80000000000001</ele>
        <time>2026-07-09T14:37:51Z</time>
      </trkpt>
      <trkpt lat="53.121414994820952" lon="-6.197076961398125">
        <ele>279.39999999999998</ele>
        <time>2026-07-09T14:37:59Z</time>
      </trkpt>
      <trkpt lat="53.121007969602942" lon="-6.195986978709698">
        <ele>278.44</ele>
        <time>2026-07-09T14:38:04Z</time>
      </trkpt>
      <trkpt lat="53.120897999033332" lon="-6.195808025076985">
        <ele>277.95999999999998</ele>
        <time>2026-07-09T14:38:05Z</time>
      </trkpt>
      <trkpt lat="53.120247982442379" lon="-6.194741008803248">
        <ele>276.51999999999998</ele>
        <time>2026-07-09T14:38:11Z</time>
      </trkpt>
      <trkpt lat="53.120116973295808" lon="-6.194320991635323">
        <ele>276.04000000000002</ele>
        <time>2026-07-09T14:38:13Z</time>
      </trkpt>
      <trkpt lat="53.119980012997985" lon="-6.193880019709468">
        <ele>275.06999999999999</ele>
        <time>2026-07-09T14:38:15Z</time>
      </trkpt>
      <trkpt lat="53.119911029934883" lon="-6.193661000579596">
        <ele>274.58999999999997</ele>
        <time>2026-07-09T14:38:16Z</time>
      </trkpt>
      <trkpt lat="53.11983902938664" lon="-6.193409040570259">
        <ele>273.63</ele>
        <time>2026-07-09T14:38:17Z</time>
      </trkpt>
      <trkpt lat="53.119555972516537" lon="-6.190280998125672">
        <ele>266.42000000000002</ele>
        <time>2026-07-09T14:38:29Z</time>
      </trkpt>
      <trkpt lat="53.119545998051763" lon="-6.190044963732362">
        <ele>265.45999999999998</ele>
        <time>2026-07-09T14:38:30Z</time>
      </trkpt>
      <trkpt lat="53.119564019143581" lon="-6.189805995672941">
        <ele>264.98000000000002</ele>
        <time>2026-07-09T14:38:31Z</time>
      </trkpt>
      <trkpt lat="53.119616992771626" lon="-6.18750499561429">
        <ele>259.69</ele>
        <time>2026-07-09T14:38:40Z</time>
      </trkpt>
      <trkpt lat="53.119607018306851" lon="-6.18612902238965">
        <ele>256.32999999999998</ele>
        <time>2026-07-09T14:38:48Z</time>
      </trkpt>
      <trkpt lat="53.119606012478471" lon="-6.185930036008358">
        <ele>255.84999999999999</ele>
        <time>2026-07-09T14:38:54Z</time>
      </trkpt>
      <trkpt lat="53.119637025520205" lon="-6.185821993276477">
        <ele>255.37</ele>
        <time>2026-07-09T14:38:58Z</time>
      </trkpt>
      <trkpt lat="53.119678013026714" lon="-6.185799026861787">
        <ele>255.37</ele>
        <time>2026-07-09T14:38:59Z</time>
      </trkpt>
      <trkpt lat="53.120253011584282" lon="-6.185479005798698">
        <ele>253.93000000000001</ele>
        <time>2026-07-09T14:39:05Z</time>
      </trkpt>
      <trkpt lat="53.121557990089059" lon="-6.184597983956337">
        <ele>252.47999999999999</ele>
        <time>2026-07-09T14:39:12Z</time>
      </trkpt>
      <trkpt lat="53.123609963804483" lon="-6.183054959401488">
        <ele>253.93000000000001</ele>
        <time>2026-07-09T14:39:24Z</time>
      </trkpt>
      <trkpt lat="53.125122981145978" lon="-6.18191703222692">
        <ele>256.32999999999998</ele>
        <time>2026-07-09T14:39:33Z</time>
      </trkpt>
      <trkpt lat="53.127239998430014" lon="-6.180696962401271">
        <ele>258.25</ele>
        <time>2026-07-09T14:39:45Z</time>
      </trkpt>
      <trkpt lat="53.128061005845666" lon="-6.180260013788939">
        <ele>261.62</ele>
        <time>2026-07-09T14:39:50Z</time>
      </trkpt>
      <trkpt lat="53.128221016377211" lon="-6.180174015462399">
        <ele>262.57999999999998</ele>
        <time>2026-07-09T14:39:51Z</time>
      </trkpt>
      <trkpt lat="53.128388989716768" lon="-6.180080976337194">
        <ele>263.06</ele>
        <time>2026-07-09T14:39:52Z</time>
      </trkpt>
      <trkpt lat="53.128542965278029" lon="-6.179917026311159">
        <ele>263.54000000000002</ele>
        <time>2026-07-09T14:39:53Z</time>
      </trkpt>
      <trkpt lat="53.128699958324432" lon="-6.17974997498095">
        <ele>264.01999999999998</ele>
        <time>2026-07-09T14:39:54Z</time>
      </trkpt>
      <trkpt lat="53.128841025754809" lon="-6.17953397333622">
        <ele>264.01999999999998</ele>
        <time>2026-07-09T14:39:55Z</time>
      </trkpt>
      <trkpt lat="53.130340967327356" lon="-6.177252000197768">
        <ele>260.64999999999998</ele>
        <time>2026-07-09T14:40:05Z</time>
      </trkpt>
      <trkpt lat="53.1305200047791" lon="-6.177106993272901">
        <ele>260.64999999999998</ele>
        <time>2026-07-09T14:40:06Z</time>
      </trkpt>
      <trkpt lat="53.130696024745703" lon="-6.176970032975078">
        <ele>261.62</ele>
        <time>2026-07-09T14:40:07Z</time>
      </trkpt>
      <trkpt lat="53.130877995863557" lon="-6.176894009113312">
        <ele>262.57999999999998</ele>
        <time>2026-07-09T14:40:08Z</time>
      </trkpt>
      <trkpt lat="53.131058039143682" lon="-6.176841035485268">
        <ele>263.06</ele>
        <time>2026-07-09T14:40:09Z</time>
      </trkpt>
      <trkpt lat="53.131232969462872" lon="-6.176789989694953">
        <ele>264.01999999999998</ele>
        <time>2026-07-09T14:40:10Z</time>
      </trkpt>
      <trkpt lat="53.132880013436079" lon="-6.176682030782104">
        <ele>273.14999999999998</ele>
        <time>2026-07-09T14:40:19Z</time>
      </trkpt>
      <trkpt lat="53.134728977456689" lon="-6.176277017220855">
        <ele>276.51999999999998</ele>
        <time>2026-07-09T14:40:29Z</time>
      </trkpt>
      <trkpt lat="53.136780029162765" lon="-6.175295999273658">
        <ele>281.31999999999999</ele>
        <time>2026-07-09T14:40:40Z</time>
      </trkpt>
      <trkpt lat="53.136938028037548" lon="-6.17517102509737">
        <ele>281.31999999999999</ele>
        <time>2026-07-09T14:40:41Z</time>
      </trkpt>
      <trkpt lat="53.137082029134035" lon="-6.175003973767161">
        <ele>280.83999999999997</ele>
        <time>2026-07-09T14:40:42Z</time>
      </trkpt>
      <trkpt lat="53.137216977775097" lon="-6.174824014306068">
        <ele>280.83999999999997</ele>
        <time>2026-07-09T14:40:43Z</time>
      </trkpt>
      <trkpt lat="53.137339018285275" lon="-6.174609018489718">
        <ele>280.36000000000001</ele>
        <time>2026-07-09T14:40:44Z</time>
      </trkpt>
      <trkpt lat="53.138621030375361" lon="-6.172571964561939">
        <ele>277.95999999999998</ele>
        <time>2026-07-09T14:40:54Z</time>
      </trkpt>
      <trkpt lat="53.140382990241051" lon="-6.170731969177723">
        <ele>277</ele>
        <time>2026-07-09T14:41:05Z</time>
      </trkpt>
      <trkpt lat="53.141095032915473" lon="-6.170113971456885">
        <ele>276.04000000000002</ele>
        <time>2026-07-09T14:41:10Z</time>
      </trkpt>
      <trkpt lat="53.141301982104778" lon="-6.169935017824173">
        <ele>275.06999999999999</ele>
        <time>2026-07-09T14:41:15Z</time>
      </trkpt>
      <trkpt lat="53.141301982104778" lon="-6.169935017824173">
        <ele>275.06999999999999</ele>
        <time>2026-07-09T14:41:53Z</time>
      </trkpt>
      <trkpt lat="53.141308017075062" lon="-6.16992898285389">
        <ele>275.56</ele>
        <time>2026-07-09T14:41:57Z</time>
      </trkpt>
      <trkpt lat="53.141713030636311" lon="-6.169580966234207">
        <ele>276.04000000000002</ele>
        <time>2026-07-09T14:42:02Z</time>
      </trkpt>
      <trkpt lat="53.14276403747499" lon="-6.168701034039259">
        <ele>277.95999999999998</ele>
        <time>2026-07-09T14:42:08Z</time>
      </trkpt>
      <trkpt lat="53.144413009285927" lon="-6.167315002530813">
        <ele>276.04000000000002</ele>
        <time>2026-07-09T14:42:16Z</time>
      </trkpt>
      <trkpt lat="53.145096972584724" lon="-6.166741009801626">
        <ele>276.51999999999998</ele>
        <time>2026-07-09T14:42:21Z</time>
      </trkpt>
      <trkpt lat="53.145992998033762" lon="-6.165987979620695">
        <ele>278.92000000000002</ele>
        <time>2026-07-09T14:42:30Z</time>
      </trkpt>
      <trkpt lat="53.146866979077458" lon="-6.165252970531583">
        <ele>280.83999999999997</ele>
        <time>2026-07-09T14:42:38Z</time>
      </trkpt>
      <trkpt lat="53.147225975990295" lon="-6.164950970560312">
        <ele>279.88</ele>
        <time>2026-07-09T14:42:44Z</time>
      </trkpt>
      <trkpt lat="53.147285990417004" lon="-6.16490101441741">
        <ele>279.39999999999998</ele>
        <time>2026-07-09T14:42:55Z</time>
      </trkpt>
      <trkpt lat="53.147899964824319" lon="-6.164401033893228">
        <ele>278.92000000000002</ele>
        <time>2026-07-09T14:43:04Z</time>
      </trkpt>
      <trkpt lat="53.149054991081357" lon="-6.163712041452527">
        <ele>277</ele>
        <time>2026-07-09T14:43:14Z</time>
      </trkpt>
      <trkpt lat="53.149592019617558" lon="-6.163378022611141">
        <ele>275.06999999999999</ele>
        <time>2026-07-09T14:43:19Z</time>
      </trkpt>
      <trkpt lat="53.149950010702014" lon="-6.163122961297631">
        <ele>273.63</ele>
        <time>2026-07-09T14:43:25Z</time>
      </trkpt>
      <trkpt lat="53.149988986551762" lon="-6.163093959912658">
        <ele>273.14999999999998</ele>
        <time>2026-07-09T14:43:26Z</time>
      </trkpt>
      <trkpt lat="53.150055035948753" lon="-6.163093959912658">
        <ele>273.14999999999998</ele>
        <time>2026-07-09T14:43:27Z</time>
      </trkpt>
      <trkpt lat="53.150099040940404" lon="-6.163093959912658">
        <ele>272.67000000000002</ele>
        <time>2026-07-09T14:43:28Z</time>
      </trkpt>
      <trkpt lat="53.150143967941403" lon="-6.163093959912658">
        <ele>272.67000000000002</ele>
        <time>2026-07-09T14:43:29Z</time>
      </trkpt>
      <trkpt lat="53.150225020945072" lon="-6.163093959912658">
        <ele>272.67000000000002</ele>
        <time>2026-07-09T14:43:30Z</time>
      </trkpt>
      <trkpt lat="53.150261985138059" lon="-6.163136037066579">
        <ele>272.19</ele>
        <time>2026-07-09T14:43:31Z</time>
      </trkpt>
      <trkpt lat="53.150314958766103" lon="-6.163198985159397">
        <ele>272.19</ele>
        <time>2026-07-09T14:43:32Z</time>
      </trkpt>
      <trkpt lat="53.150372039526701" lon="-6.163278026506305">
        <ele>272.19</ele>
        <time>2026-07-09T14:43:33Z</time>
      </trkpt>
      <trkpt lat="53.150591980665922" lon="-6.163684967905283">
        <ele>271.23000000000002</ele>
        <time>2026-07-09T14:43:37Z</time>
      </trkpt>
      <trkpt lat="53.150663981214166" lon="-6.163820000365377">
        <ele>270.75</ele>
        <time>2026-07-09T14:43:38Z</time>
      </trkpt>
      <trkpt lat="53.151646004989743" lon="-6.165039986371994">
        <ele>260.64999999999998</ele>
        <time>2026-07-09T14:43:48Z</time>
      </trkpt>
      <trkpt lat="53.151951022446156" lon="-6.165338968858123">
        <ele>259.20999999999998</ele>
        <time>2026-07-09T14:43:51Z</time>
      </trkpt>
      <trkpt lat="53.152056969702244" lon="-6.165413986891508">
        <ele>258.73000000000002</ele>
        <time>2026-07-09T14:43:52Z</time>
      </trkpt>
      <trkpt lat="53.153184000402689" lon="-6.165797961875796">
        <ele>250.56</ele>
        <time>2026-07-09T14:44:02Z</time>
      </trkpt>
      <trkpt lat="53.154906984418631" lon="-6.165754962712526">
        <ele>236.13999999999999</ele>
        <time>2026-07-09T14:44:14Z</time>
      </trkpt>
      <trkpt lat="53.155954973772168" lon="-6.165582966059446">
        <ele>227.00999999999999</ele>
        <time>2026-07-09T14:44:23Z</time>
      </trkpt>
      <trkpt lat="53.156055975705385" lon="-6.165608027949929">
        <ele>226.05000000000001</ele>
        <time>2026-07-09T14:44:24Z</time>
      </trkpt>
      <trkpt lat="53.156153960153461" lon="-6.16563300602138">
        <ele>225.09</ele>
        <time>2026-07-09T14:44:25Z</time>
      </trkpt>
      <trkpt lat="53.157356008887291" lon="-6.166481003165245">
        <ele>211.63</ele>
        <time>2026-07-09T14:44:36Z</time>
      </trkpt>
      <trkpt lat="53.158693006262183" lon="-6.167209977284074">
        <ele>201.53</ele>
        <time>2026-07-09T14:44:47Z</time>
      </trkpt>
      <trkpt lat="53.158892998471856" lon="-6.167230010032654">
        <ele>199.61000000000001</ele>
        <time>2026-07-09T14:44:49Z</time>
      </trkpt>
      <trkpt lat="53.158990982919931" lon="-6.167237972840667">
        <ele>198.16999999999999</ele>
        <time>2026-07-09T14:44:50Z</time>
      </trkpt>
      <trkpt lat="53.159090979024768" lon="-6.167246019467711">
        <ele>197.21000000000001</ele>
        <time>2026-07-09T14:44:51Z</time>
      </trkpt>
      <trkpt lat="53.159216037020087" lon="-6.167256999760866">
        <ele>196.25</ele>
        <time>2026-07-09T14:44:52Z</time>
      </trkpt>
      <trkpt lat="53.159305974841118" lon="-6.1672000028193">
        <ele>195.28</ele>
        <time>2026-07-09T14:44:53Z</time>
      </trkpt>
      <trkpt lat="53.159636976197362" lon="-6.166990036144853">
        <ele>193.84</ele>
        <time>2026-07-09T14:44:56Z</time>
      </trkpt>
      <trkpt lat="53.160436023026705" lon="-6.166435992345214">
        <ele>188.56</ele>
        <time>2026-07-09T14:45:05Z</time>
      </trkpt>
      <trkpt lat="53.160549011081457" lon="-6.166355023160577">
        <ele>188.08000000000001</ele>
        <time>2026-07-09T14:45:06Z</time>
      </trkpt>
      <trkpt lat="53.161825994029641" lon="-6.165831992402673">
        <ele>178.94</ele>
        <time>2026-07-09T14:45:15Z</time>
      </trkpt>
      <trkpt lat="53.161947028711438" lon="-6.16578103043139">
        <ele>177.5</ele>
        <time>2026-07-09T14:45:16Z</time>
      </trkpt>
      <trkpt lat="53.162053981795907" lon="-6.165736019611359">
        <ele>177.02000000000001</ele>
        <time>2026-07-09T14:45:17Z</time>
      </trkpt>
      <trkpt lat="53.162150960415602" lon="-6.16569503210485">
        <ele>176.53999999999999</ele>
        <time>2026-07-09T14:45:18Z</time>
      </trkpt>
      <trkpt lat="53.162349024787545" lon="-6.165653960779309">
        <ele>174.62</ele>
        <time>2026-07-09T14:45:20Z</time>
      </trkpt>
      <trkpt lat="53.163532968610525" lon="-6.165737025439739">
        <ele>165</ele>
        <time>2026-07-09T14:45:30Z</time>
      </trkpt>
      <trkpt lat="53.164537036791444" lon="-6.165437959134579">
        <ele>154.91</ele>
        <time>2026-07-09T14:45:38Z</time>
      </trkpt>
      <trkpt lat="53.164790002629161" lon="-6.165324971079826">
        <ele>152.03</ele>
        <time>2026-07-09T14:45:40Z</time>
      </trkpt>
      <trkpt lat="53.16491799429059" lon="-6.165248025208712">
        <ele>151.06</ele>
        <time>2026-07-09T14:45:41Z</time>
      </trkpt>
      <trkpt lat="53.165284032002091" lon="-6.164975026622415">
        <ele>148.66</ele>
        <time>2026-07-09T14:45:44Z</time>
      </trkpt>
      <trkpt lat="53.166408967226744" lon="-6.163638029247522">
        <ele>139.05000000000001</ele>
        <time>2026-07-09T14:45:54Z</time>
      </trkpt>
      <trkpt lat="53.167274985462427" lon="-6.16221503354609">
        <ele>127.98999999999999</ele>
        <time>2026-07-09T14:46:03Z</time>
      </trkpt>
      <trkpt lat="53.167819976806641" lon="-6.160839982330799">
        <ele>122.70999999999999</ele>
        <time>2026-07-09T14:46:11Z</time>
      </trkpt>
      <trkpt lat="53.167961966246367" lon="-6.160077983513475">
        <ele>120.78</ele>
        <time>2026-07-09T14:46:15Z</time>
      </trkpt>
      <trkpt lat="53.168055005371571" lon="-6.158020980656147">
        <ele>115.98</ele>
        <time>2026-07-09T14:46:24Z</time>
      </trkpt>
      <trkpt lat="53.168329009786248" lon="-6.155636999756098">
        <ele>112.13</ele>
        <time>2026-07-09T14:46:34Z</time>
      </trkpt>
      <trkpt lat="53.16844099201262" lon="-6.154703004285693">
        <ele>111.17</ele>
        <time>2026-07-09T14:46:38Z</time>
      </trkpt>
      <trkpt lat="53.168463036417961" lon="-6.154488008469343">
        <ele>110.69</ele>
        <time>2026-07-09T14:46:39Z</time>
      </trkpt>
      <trkpt lat="53.168451972305775" lon="-6.154284998774529">
        <ele>110.20999999999999</ele>
        <time>2026-07-09T14:46:40Z</time>
      </trkpt>
      <trkpt lat="53.168443003669381" lon="-6.154124988242984">
        <ele>110.20999999999999</ele>
        <time>2026-07-09T14:46:41Z</time>
      </trkpt>
      <trkpt lat="53.168407967314124" lon="-6.153945028781891">
        <ele>109.73</ele>
        <time>2026-07-09T14:46:42Z</time>
      </trkpt>
      <trkpt lat="53.16837502643466" lon="-6.153780994936824">
        <ele>109.25</ele>
        <time>2026-07-09T14:46:43Z</time>
      </trkpt>
      <trkpt lat="53.168344013392925" lon="-6.15362299606204">
        <ele>108.29000000000001</ele>
        <time>2026-07-09T14:46:44Z</time>
      </trkpt>
      <trkpt lat="53.168313000351191" lon="-6.153461979702115">
        <ele>107.31999999999999</ele>
        <time>2026-07-09T14:46:45Z</time>
      </trkpt>
      <trkpt lat="53.168279975652695" lon="-6.153295012190938">
        <ele>106.36</ele>
        <time>2026-07-09T14:46:46Z</time>
      </trkpt>
      <trkpt lat="53.168245023116469" lon="-6.153116980567575">
        <ele>105.40000000000001</ele>
        <time>2026-07-09T14:46:47Z</time>
      </trkpt>
      <trkpt lat="53.168208980932832" lon="-6.152932997792959">
        <ele>104.44</ele>
        <time>2026-07-09T14:46:48Z</time>
      </trkpt>
      <trkpt lat="53.168200012296438" lon="-6.15274197421968">
        <ele>103.95999999999999</ele>
        <time>2026-07-09T14:46:49Z</time>
      </trkpt>
      <trkpt lat="53.168193977326155" lon="-6.152562014758587">
        <ele>103</ele>
        <time>2026-07-09T14:46:50Z</time>
      </trkpt>
      <trkpt lat="53.168188026174903" lon="-6.152390018105507">
        <ele>102.52</ele>
        <time>2026-07-09T14:46:51Z</time>
      </trkpt>
      <trkpt lat="53.168199006468058" lon="-6.152237970381975">
        <ele>102.04000000000001</ele>
        <time>2026-07-09T14:46:52Z</time>
      </trkpt>
      <trkpt lat="53.168220967054367" lon="-6.152093969285488">
        <ele>101.08</ele>
        <time>2026-07-09T14:46:53Z</time>
      </trkpt>
      <trkpt lat="53.168335966765881" lon="-6.151568004861474">
        <ele>98.670000000000002</ele>
        <time>2026-07-09T14:46:57Z</time>
      </trkpt>
      <trkpt lat="53.168376032263041" lon="-6.151410005986691">
        <ele>97.709999999999994</ele>
        <time>2026-07-09T14:46:58Z</time>
      </trkpt>
      <trkpt lat="53.168420037254691" lon="-6.151234991848469">
        <ele>97.230000000000004</ele>
        <time>2026-07-09T14:46:59Z</time>
      </trkpt>
      <trkpt lat="53.168447026982903" lon="-6.151045979931951">
        <ele>96.269999999999996</ele>
        <time>2026-07-09T14:47:00Z</time>
      </trkpt>
      <trkpt lat="53.168457001447678" lon="-6.150840958580375">
        <ele>95.310000000000002</ele>
        <time>2026-07-09T14:47:01Z</time>
      </trkpt>
      <trkpt lat="53.168460018932819" lon="-6.150634009391069">
        <ele>94.349999999999994</ele>
        <time>2026-07-09T14:47:02Z</time>
      </trkpt>
      <trkpt lat="53.168428000062704" lon="-6.150253973901272">
        <ele>93.390000000000001</ele>
        <time>2026-07-09T14:47:04Z</time>
      </trkpt>
      <trkpt lat="53.168416013941169" lon="-6.150089018046856">
        <ele>92.900000000000006</ele>
        <time>2026-07-09T14:47:05Z</time>
      </trkpt>
      <trkpt lat="53.168406039476395" lon="-6.149677969515324">
        <ele>90.980000000000004</ele>
        <time>2026-07-09T14:47:08Z</time>
      </trkpt>
      <trkpt lat="53.168410984799266" lon="-6.149541009217501">
        <ele>90.980000000000004</ele>
        <time>2026-07-09T14:47:09Z</time>
      </trkpt>
      <trkpt lat="53.168416013941169" lon="-6.149398013949394">
        <ele>90.5</ele>
        <time>2026-07-09T14:47:10Z</time>
      </trkpt>
      <trkpt lat="53.168425988405943" lon="-6.149236997589469">
        <ele>90.019999999999996</ele>
        <time>2026-07-09T14:47:11Z</time>
      </trkpt>
      <trkpt lat="53.168463036417961" lon="-6.14908897317946">
        <ele>89.540000000000006</ele>
        <time>2026-07-09T14:47:12Z</time>
      </trkpt>
      <trkpt lat="53.168622041121125" lon="-6.148453038185835">
        <ele>88.099999999999994</ele>
        <time>2026-07-09T14:47:16Z</time>
      </trkpt>
      <trkpt lat="53.168852962553501" lon="-6.14745601080358">
        <ele>87.620000000000005</ele>
        <time>2026-07-09T14:47:21Z</time>
      </trkpt>
      <trkpt lat="53.168883975595236" lon="-6.147236991673708">
        <ele>87.140000000000001</ele>
        <time>2026-07-09T14:47:22Z</time>
      </trkpt>
      <trkpt lat="53.168914988636971" lon="-6.147021995857358">
        <ele>87.140000000000001</ele>
        <time>2026-07-09T14:47:23Z</time>
      </trkpt>
      <trkpt lat="53.168914988636971" lon="-6.146780010312796">
        <ele>86.659999999999997</ele>
        <time>2026-07-09T14:47:24Z</time>
      </trkpt>
      <trkpt lat="53.168914988636971" lon="-6.146551016718149">
        <ele>86.659999999999997</ele>
        <time>2026-07-09T14:47:25Z</time>
      </trkpt>
      <trkpt lat="53.168728994205594" lon="-6.145114023238421">
        <ele>85.209999999999994</ele>
        <time>2026-07-09T14:47:32Z</time>
      </trkpt>
      <trkpt lat="53.168520033359528" lon="-6.144161000847817">
        <ele>84.730000000000004</ele>
        <time>2026-07-09T14:47:37Z</time>
      </trkpt>
      <trkpt lat="53.168360022827983" lon="-6.143650962039828">
        <ele>84.25</ele>
        <time>2026-07-09T14:47:40Z</time>
      </trkpt>
      <trkpt lat="53.168306965380907" lon="-6.143486006185412">
        <ele>83.769999999999996</ele>
        <time>2026-07-09T14:47:41Z</time>
      </trkpt>
      <trkpt lat="53.168252985924482" lon="-6.143321972340345">
        <ele>83.769999999999996</ele>
        <time>2026-07-09T14:47:42Z</time>
      </trkpt>
      <trkpt lat="53.167848978191614" lon="-6.14156898111105">
        <ele>78.480000000000004</ele>
        <time>2026-07-09T14:47:52Z</time>
      </trkpt>
      <trkpt lat="53.16781897097826" lon="-6.141402013599873">
        <ele>78</ele>
        <time>2026-07-09T14:47:53Z</time>
      </trkpt>
      <trkpt lat="53.167799022048712" lon="-6.141228005290031">
        <ele>77.519999999999996</ele>
        <time>2026-07-09T14:47:54Z</time>
      </trkpt>
      <trkpt lat="53.167799022048712" lon="-6.140845958143473">
        <ele>76.560000000000002</ele>
        <time>2026-07-09T14:47:56Z</time>
      </trkpt>
      <trkpt lat="53.167860964313149" lon="-6.140284035354853">
        <ele>75.599999999999994</ele>
        <time>2026-07-09T14:47:59Z</time>
      </trkpt>
      <trkpt lat="53.167932964861393" lon="-6.139804003760219">
        <ele>75.599999999999994</ele>
        <time>2026-07-09T14:48:02Z</time>
      </trkpt>
      <trkpt lat="53.168026003986597" lon="-6.139185000211">
        <ele>75.599999999999994</ele>
        <time>2026-07-09T14:48:06Z</time>
      </trkpt>
      <trkpt lat="53.168050982058048" lon="-6.139022978022695">
        <ele>75.599999999999994</ele>
        <time>2026-07-09T14:48:07Z</time>
      </trkpt>
      <trkpt lat="53.16807403229177" lon="-6.138873025774956">
        <ele>75.599999999999994</ele>
        <time>2026-07-09T14:48:08Z</time>
      </trkpt>
      <trkpt lat="53.16809699870646" lon="-6.138727013021708">
        <ele>75.599999999999994</ele>
        <time>2026-07-09T14:48:09Z</time>
      </trkpt>
      <trkpt lat="53.16811703145504" lon="-6.138590974733234">
        <ele>75.120000000000005</ele>
        <time>2026-07-09T14:48:10Z</time>
      </trkpt>
      <trkpt lat="53.168211998417974" lon="-6.137968031689525">
        <ele>74.640000000000001</ele>
        <time>2026-07-09T14:48:18Z</time>
      </trkpt>
      <trkpt lat="53.168254997581244" lon="-6.137609034776688">
        <ele>74.640000000000001</ele>
        <time>2026-07-09T14:48:23Z</time>
      </trkpt>
      <trkpt lat="53.168262960389256" lon="-6.137538040056825">
        <ele>75.120000000000005</ele>
        <time>2026-07-09T14:48:24Z</time>
      </trkpt>
      <trkpt lat="53.168271007016301" lon="-6.137474002316594">
        <ele>75.120000000000005</ele>
        <time>2026-07-09T14:48:25Z</time>
      </trkpt>
      <trkpt lat="53.168305959552526" lon="-6.137422034516931">
        <ele>75.120000000000005</ele>
        <time>2026-07-09T14:48:26Z</time>
      </trkpt>
      <trkpt lat="53.168292967602611" lon="-6.137302005663514">
        <ele>75.120000000000005</ele>
        <time>2026-07-09T14:48:27Z</time>
      </trkpt>
      <trkpt lat="53.168304031714797" lon="-6.137267975136638">
        <ele>75.599999999999994</ele>
        <time>2026-07-09T14:48:28Z</time>
      </trkpt>
      <trkpt lat="53.168326998129487" lon="-6.137199997901917">
        <ele>75.599999999999994</ele>
        <time>2026-07-09T14:48:29Z</time>
      </trkpt>
      <trkpt lat="53.168349964544177" lon="-6.137131014838815">
        <ele>75.599999999999994</ele>
        <time>2026-07-09T14:48:30Z</time>
      </trkpt>
      <trkpt lat="53.168376032263041" lon="-6.137052979320288">
        <ele>75.599999999999994</ele>
        <time>2026-07-09T14:48:31Z</time>
      </trkpt>
      <trkpt lat="53.168404027819633" lon="-6.136964969336987">
        <ele>75.599999999999994</ele>
        <time>2026-07-09T14:48:32Z</time>
      </trkpt>
      <trkpt lat="53.168549034744501" lon="-6.136403968557715">
        <ele>75.120000000000005</ele>
        <time>2026-07-09T14:48:41Z</time>
      </trkpt>
      <trkpt lat="53.168679038062692" lon="-6.136100040748715">
        <ele>77.040000000000006</ele>
        <time>2026-07-09T14:48:49Z</time>
      </trkpt>
      <trkpt lat="53.168921023607254" lon="-6.136114960536361">
        <ele>75.599999999999994</ele>
        <time>2026-07-09T14:48:56Z</time>
      </trkpt>
      <trkpt lat="53.169067958369851" lon="-6.136204982176423">
        <ele>74.640000000000001</ele>
        <time>2026-07-09T14:48:59Z</time>
      </trkpt>
      <trkpt lat="53.169114980846643" lon="-6.136230966076255">
        <ele>74.640000000000001</ele>
        <time>2026-07-09T14:49:00Z</time>
      </trkpt>
      <trkpt lat="53.169311033561826" lon="-6.136286035180092">
        <ele>74.159999999999997</ele>
        <time>2026-07-09T14:49:04Z</time>
      </trkpt>
      <trkpt lat="53.169458974152803" lon="-6.136327022686601">
        <ele>74.159999999999997</ele>
        <time>2026-07-09T14:49:06Z</time>
      </trkpt>
      <trkpt lat="53.170151989907026" lon="-6.136732958257198">
        <ele>73.680000000000007</ele>
        <time>2026-07-09T14:49:12Z</time>
      </trkpt>
      <trkpt lat="53.171380022540689" lon="-6.137634012848139">
        <ele>73.200000000000003</ele>
        <time>2026-07-09T14:49:19Z</time>
      </trkpt>
      <trkpt lat="53.17336100153625" lon="-6.138812005519867">
        <ele>74.159999999999997</ele>
        <time>2026-07-09T14:49:29Z</time>
      </trkpt>
      <trkpt lat="53.174715014174581" lon="-6.139019038528204">
        <ele>74.640000000000001</ele>
        <time>2026-07-09T14:49:36Z</time>
      </trkpt>
      <trkpt lat="53.176402961835265" lon="-6.138556022197008">
        <ele>76.079999999999998</ele>
        <time>2026-07-09T14:49:43Z</time>
      </trkpt>
      <trkpt lat="53.178820973262191" lon="-6.137365037575364">
        <ele>77.519999999999996</ele>
        <time>2026-07-09T14:49:55Z</time>
      </trkpt>
      <trkpt lat="53.180570024996996" lon="-6.135998032987118">
        <ele>70.310000000000002</ele>
        <time>2026-07-09T14:50:04Z</time>
      </trkpt>
      <trkpt lat="53.182284962385893" lon="-6.135334018617868">
        <ele>61.18</ele>
        <time>2026-07-09T14:50:12Z</time>
      </trkpt>
      <trkpt lat="53.184034014120698" lon="-6.135557983070612">
        <ele>51.090000000000003</ele>
        <time>2026-07-09T14:50:20Z</time>
      </trkpt>
      <trkpt lat="53.185696983709931" lon="-6.136642014607787">
        <ele>42.920000000000002</ele>
        <time>2026-07-09T14:50:28Z</time>
      </trkpt>
      <trkpt lat="53.18799396045506" lon="-6.138286041095853">
        <ele>31.379999999999999</ele>
        <time>2026-07-09T14:50:40Z</time>
      </trkpt>
      <trkpt lat="53.189415028318763" lon="-6.138674961403012">
        <ele>24.649999999999999</ele>
        <time>2026-07-09T14:50:47Z</time>
      </trkpt>
      <trkpt lat="53.190995017066598" lon="-6.138286041095853">
        <ele>16</ele>
        <time>2026-07-09T14:50:55Z</time>
      </trkpt>
      <trkpt lat="53.19243997335434" lon="-6.137291025370359">
        <ele>12.630000000000001</ele>
        <time>2026-07-09T14:51:03Z</time>
      </trkpt>
      <trkpt lat="53.193804966285825" lon="-6.135765016078949">
        <ele>10.23</ele>
        <time>2026-07-09T14:51:12Z</time>
      </trkpt>
      <trkpt lat="53.194891009479761" lon="-6.134981978684664">
        <ele>11.19</ele>
        <time>2026-07-09T14:51:20Z</time>
      </trkpt>
      <trkpt lat="53.195171970874071" lon="-6.134912995621562">
        <ele>12.15</ele>
        <time>2026-07-09T14:51:21Z</time>
      </trkpt>
      <trkpt lat="53.195674968883395" lon="-6.134812999516726">
        <ele>17.920000000000002</ele>
        <time>2026-07-09T14:51:26Z</time>
      </trkpt>
      <trkpt lat="53.195783011615276" lon="-6.134836971759796">
        <ele>18.879999999999999</ele>
        <time>2026-07-09T14:51:27Z</time>
      </trkpt>
      <trkpt lat="53.195876972749829" lon="-6.13486597314477">
        <ele>19.359999999999999</ele>
        <time>2026-07-09T14:51:28Z</time>
      </trkpt>
      <trkpt lat="53.195949979126453" lon="-6.134930010885">
        <ele>19.359999999999999</ele>
        <time>2026-07-09T14:51:29Z</time>
      </trkpt>
      <trkpt lat="53.196013011038303" lon="-6.134987007826567">
        <ele>19.84</ele>
        <time>2026-07-09T14:51:30Z</time>
      </trkpt>
      <trkpt lat="53.196075037121773" lon="-6.135047022253275">
        <ele>20.32</ele>
        <time>2026-07-09T14:51:31Z</time>
      </trkpt>
      <trkpt lat="53.196143014356494" lon="-6.135127991437912">
        <ele>20.809999999999999</ele>
        <time>2026-07-09T14:51:32Z</time>
      </trkpt>
      <trkpt lat="53.196205962449312" lon="-6.135288001969457">
        <ele>21.289999999999999</ele>
        <time>2026-07-09T14:51:33Z</time>
      </trkpt>
      <trkpt lat="53.196253990754485" lon="-6.135449018329382">
        <ele>21.289999999999999</ele>
        <time>2026-07-09T14:51:34Z</time>
      </trkpt>
      <trkpt lat="53.196303024888039" lon="-6.135641969740391">
        <ele>22.25</ele>
        <time>2026-07-09T14:51:35Z</time>
      </trkpt>
      <trkpt lat="53.196335965767503" lon="-6.13585302606225">
        <ele>22.73</ele>
        <time>2026-07-09T14:51:36Z</time>
      </trkpt>
      <trkpt lat="53.196368990465999" lon="-6.136071039363742">
        <ele>23.210000000000001</ele>
        <time>2026-07-09T14:51:37Z</time>
      </trkpt>
      <trkpt lat="53.196641989052296" lon="-6.137599982321262">
        <ele>31.859999999999999</ele>
        <time>2026-07-09T14:51:44Z</time>
      </trkpt>
      <trkpt lat="53.196694040670991" lon="-6.137817995622754">
        <ele>33.299999999999997</ele>
        <time>2026-07-09T14:51:45Z</time>
      </trkpt>
      <trkpt lat="53.196765035390854" lon="-6.138025028631091">
        <ele>34.259999999999998</ele>
        <time>2026-07-09T14:51:46Z</time>
      </trkpt>
      <trkpt lat="53.196858996525407" lon="-6.138209011405706">
        <ele>35.710000000000001</ele>
        <time>2026-07-09T14:51:47Z</time>
      </trkpt>
      <trkpt lat="53.19695396348834" lon="-6.138394000008702">
        <ele>37.149999999999999</ele>
        <time>2026-07-09T14:51:48Z</time>
      </trkpt>
      <trkpt lat="53.197044990956783" lon="-6.138572031632066">
        <ele>38.590000000000003</ele>
        <time>2026-07-09T14:51:49Z</time>
      </trkpt>
      <trkpt lat="53.197442041710019" lon="-6.13922799937427">
        <ele>44.840000000000003</ele>
        <time>2026-07-09T14:51:54Z</time>
      </trkpt>
      <trkpt lat="53.19748898036778" lon="-6.139349034056068">
        <ele>45.32</ele>
        <time>2026-07-09T14:51:55Z</time>
      </trkpt>
      <trkpt lat="53.197533991187811" lon="-6.139465039595962">
        <ele>45.799999999999997</ele>
        <time>2026-07-09T14:51:56Z</time>
      </trkpt>
      <trkpt lat="53.197560980916023" lon="-6.139583978801966">
        <ele>46.759999999999998</ele>
        <time>2026-07-09T14:51:57Z</time>
      </trkpt>
      <trkpt lat="53.197560980916023" lon="-6.139710964635015">
        <ele>47.240000000000002</ele>
        <time>2026-07-09T14:51:58Z</time>
      </trkpt>
      <trkpt lat="53.197582019492984" lon="-6.139877010136843">
        <ele>47.719999999999999</ele>
        <time>2026-07-09T14:51:59Z</time>
      </trkpt>
      <trkpt lat="53.197652008384466" lon="-6.139994021505117">
        <ele>48.200000000000003</ele>
        <time>2026-07-09T14:52:00Z</time>
      </trkpt>
      <trkpt lat="53.197729038074613" lon="-6.140023022890091">
        <ele>48.200000000000003</ele>
        <time>2026-07-09T14:52:01Z</time>
      </trkpt>
      <trkpt lat="53.197829034179449" lon="-6.14002101123333">
        <ele>48.68</ele>
        <time>2026-07-09T14:52:02Z</time>
      </trkpt>
      <trkpt lat="53.19789701141417" lon="-6.139963008463383">
        <ele>48.68</ele>
        <time>2026-07-09T14:52:03Z</time>
      </trkpt>
      <trkpt lat="53.197965994477272" lon="-6.139862006530166">
        <ele>49.159999999999997</ele>
        <time>2026-07-09T14:52:04Z</time>
      </trkpt>
      <trkpt lat="53.197989966720343" lon="-6.139791011810303">
        <ele>48.68</ele>
        <time>2026-07-09T14:52:05Z</time>
      </trkpt>
      <trkpt lat="53.197976974770427" lon="-6.139580039307475">
        <ele>48.68</ele>
        <time>2026-07-09T14:52:06Z</time>
      </trkpt>
      <trkpt lat="53.197969011962414" lon="-6.139448024332523">
        <ele>48.68</ele>
        <time>2026-07-09T14:52:07Z</time>
      </trkpt>
      <trkpt lat="53.198057021945715" lon="-6.139289019629359">
        <ele>48.68</ele>
        <time>2026-07-09T14:52:08Z</time>
      </trkpt>
      <trkpt lat="53.198118964210153" lon="-6.139177037402988">
        <ele>48.200000000000003</ele>
        <time>2026-07-09T14:52:09Z</time>
      </trkpt>
      <trkpt lat="53.198175961151719" lon="-6.139074023813009">
        <ele>48.200000000000003</ele>
        <time>2026-07-09T14:52:10Z</time>
      </trkpt>
      <trkpt lat="53.198223989456892" lon="-6.138953994959593">
        <ele>47.719999999999999</ele>
        <time>2026-07-09T14:52:11Z</time>
      </trkpt>
      <trkpt lat="53.19826397113502" lon="-6.138847041875124">
        <ele>47.240000000000002</ele>
        <time>2026-07-09T14:52:12Z</time>
      </trkpt>
      <trkpt lat="53.198298001661897" lon="-6.138758026063442">
        <ele>46.759999999999998</ele>
        <time>2026-07-09T14:52:13Z</time>
      </trkpt>
      <trkpt lat="53.19832599721849" lon="-6.138684013858438">
        <ele>46.759999999999998</ele>
        <time>2026-07-09T14:52:14Z</time>
      </trkpt>
      <trkpt lat="53.198351981118321" lon="-6.138614024966955">
        <ele>45.799999999999997</ele>
        <time>2026-07-09T14:52:15Z</time>
      </trkpt>
      <trkpt lat="53.19852096028626" lon="-6.138168023899198">
        <ele>40.509999999999998</ele>
        <time>2026-07-09T14:52:24Z</time>
      </trkpt>
      <trkpt lat="53.19852096028626" lon="-6.138168023899198">
        <ele>38.590000000000003</ele>
        <time>2026-07-09T14:52:42Z</time>
      </trkpt>
      <trkpt lat="53.198548033833504" lon="-6.138096023350954">
        <ele>37.630000000000003</ele>
        <time>2026-07-09T14:52:47Z</time>
      </trkpt>
      <trkpt lat="53.198548033833504" lon="-6.138096023350954">
        <ele>37.630000000000003</ele>
        <time>2026-07-09T14:52:48Z</time>
      </trkpt>
      <trkpt lat="53.198548033833504" lon="-6.138096023350954">
        <ele>38.590000000000003</ele>
        <time>2026-07-09T14:53:01Z</time>
      </trkpt>
      <trkpt lat="53.198548033833504" lon="-6.138096023350954">
        <ele>39.549999999999997</ele>
        <time>2026-07-09T14:53:13Z</time>
      </trkpt>
      <trkpt lat="53.198548033833504" lon="-6.138096023350954">
        <ele>39.549999999999997</ele>
        <time>2026-07-09T14:53:26Z</time>
      </trkpt>
      <trkpt lat="53.198548033833504" lon="-6.138096023350954">
        <ele>39.549999999999997</ele>
        <time>2026-07-09T14:53:43Z</time>
      </trkpt>
      <trkpt lat="53.198548033833504" lon="-6.138096023350954">
        <ele>39.07</ele>
        <time>2026-07-09T14:54:02Z</time>
      </trkpt>
      <trkpt lat="53.198547028005123" lon="-6.137857977300882">
        <ele>43.399999999999999</ele>
        <time>2026-07-09T15:08:49Z</time>
      </trkpt>
      <trkpt lat="53.198543004691601" lon="-6.137921009212732">
        <ele>33.780000000000001</ele>
        <time>2026-07-09T15:09:19Z</time>
      </trkpt>
      <trkpt lat="53.198538981378078" lon="-6.137912962585688">
        <ele>34.740000000000002</ele>
        <time>2026-07-09T15:09:59Z</time>
      </trkpt>
      <trkpt lat="53.19854199886322" lon="-6.137898964807391">
        <ele>32.82</ele>
        <time>2026-07-09T15:10:19Z</time>
      </trkpt>
      <trkpt lat="53.198550967499614" lon="-6.138010025024414">
        <ele>32.340000000000003</ele>
        <time>2026-07-09T15:10:29Z</time>
      </trkpt>
      <trkpt lat="53.198543004691601" lon="-6.138110021129251">
        <ele>31.859999999999999</ele>
        <time>2026-07-09T15:10:31Z</time>
      </trkpt>
      <trkpt lat="53.198516014963388" lon="-6.138179004192352">
        <ele>31.859999999999999</ele>
        <time>2026-07-09T15:10:32Z</time>
      </trkpt>
      <trkpt lat="53.198270006105304" lon="-6.138831032440066">
        <ele>33.299999999999997</ele>
        <time>2026-07-09T15:10:37Z</time>
      </trkpt>
      <trkpt lat="53.19821703247726" lon="-6.138973021879792">
        <ele>33.780000000000001</ele>
        <time>2026-07-09T15:10:38Z</time>
      </trkpt>
      <trkpt lat="53.198159029707313" lon="-6.139105958864093">
        <ele>34.259999999999998</ele>
        <time>2026-07-09T15:10:39Z</time>
      </trkpt>
      <trkpt lat="53.198102032765746" lon="-6.13920696079731">
        <ele>34.740000000000002</ele>
        <time>2026-07-09T15:10:40Z</time>
      </trkpt>
      <trkpt lat="53.198061967268586" lon="-6.139279967173934">
        <ele>34.740000000000002</ele>
        <time>2026-07-09T15:10:41Z</time>
      </trkpt>
      <trkpt lat="53.198033971711993" lon="-6.139331012964249">
        <ele>35.229999999999997</ele>
        <time>2026-07-09T15:10:42Z</time>
      </trkpt>
      <trkpt lat="53.198016034439206" lon="-6.139363031834364">
        <ele>35.710000000000001</ele>
        <time>2026-07-09T15:10:43Z</time>
      </trkpt>
      <trkpt lat="53.197927018627524" lon="-6.139418017119169">
        <ele>35.710000000000001</ele>
        <time>2026-07-09T15:10:44Z</time>
      </trkpt>
      <trkpt lat="53.197906985878944" lon="-6.139405025169253">
        <ele>36.189999999999998</ele>
        <time>2026-07-09T15:10:45Z</time>
      </trkpt>
      <trkpt lat="53.197887036949396" lon="-6.139390021562576">
        <ele>36.670000000000002</ele>
        <time>2026-07-09T15:10:46Z</time>
      </trkpt>
      <trkpt lat="53.197856023907661" lon="-6.139368982985616">
        <ele>36.670000000000002</ele>
        <time>2026-07-09T15:10:47Z</time>
      </trkpt>
      <trkpt lat="53.197812018916011" lon="-6.139337969943881">
        <ele>36.670000000000002</ele>
        <time>2026-07-09T15:10:48Z</time>
      </trkpt>
      <trkpt lat="53.197760973125696" lon="-6.139303017407656">
        <ele>36.670000000000002</ele>
        <time>2026-07-09T15:10:49Z</time>
      </trkpt>
      <trkpt lat="53.197699030861259" lon="-6.139243002980948">
        <ele>36.670000000000002</ele>
        <time>2026-07-09T15:10:50Z</time>
      </trkpt>
      <trkpt lat="53.197614960372448" lon="-6.139159016311169">
        <ele>37.149999999999999</ele>
        <time>2026-07-09T15:10:51Z</time>
      </trkpt>
      <trkpt lat="53.197516975924373" lon="-6.139061031863093">
        <ele>37.149999999999999</ele>
        <time>2026-07-09T15:10:52Z</time>
      </trkpt>
      <trkpt lat="53.197413962334394" lon="-6.138918958604336">
        <ele>36.670000000000002</ele>
        <time>2026-07-09T15:10:53Z</time>
      </trkpt>
      <trkpt lat="53.196920016780496" lon="-6.138011030852795">
        <ele>31.859999999999999</ele>
        <time>2026-07-09T15:10:58Z</time>
      </trkpt>
      <trkpt lat="53.196854973211884" lon="-6.137854037806392">
        <ele>30.899999999999999</ele>
        <time>2026-07-09T15:10:59Z</time>
      </trkpt>
      <trkpt lat="53.196786995977163" lon="-6.137693021446466">
        <ele>29.460000000000001</ele>
        <time>2026-07-09T15:11:00Z</time>
      </trkpt>
      <trkpt lat="53.196737039834261" lon="-6.137508032843471">
        <ele>28.98</ele>
        <time>2026-07-09T15:11:01Z</time>
      </trkpt>
      <trkpt lat="53.196690017357469" lon="-6.13729395903647">
        <ele>28.02</ele>
        <time>2026-07-09T15:11:02Z</time>
      </trkpt>
      <trkpt lat="53.196641989052296" lon="-6.137072006240487">
        <ele>27.050000000000001</ele>
        <time>2026-07-09T15:11:03Z</time>
      </trkpt>
      <trkpt lat="53.196377037093043" lon="-6.135453963652253">
        <ele>16.960000000000001</ele>
        <time>2026-07-09T15:11:11Z</time>
      </trkpt>
      <trkpt lat="53.196368990465999" lon="-6.135303005576134">
        <ele>16</ele>
        <time>2026-07-09T15:11:12Z</time>
      </trkpt>
      <trkpt lat="53.196366978809237" lon="-6.135112987831235">
        <ele>15.039999999999999</ele>
        <time>2026-07-09T15:11:13Z</time>
      </trkpt>
      <trkpt lat="53.196412995457649" lon="-6.134986001998186">
        <ele>14.56</ele>
        <time>2026-07-09T15:11:14Z</time>
      </trkpt>
      <trkpt lat="53.196469992399216" lon="-6.13484300673008">
        <ele>14.56</ele>
        <time>2026-07-09T15:11:15Z</time>
      </trkpt>
      <trkpt lat="53.196535035967827" lon="-6.134699005633593">
        <ele>13.6</ele>
        <time>2026-07-09T15:11:16Z</time>
      </trkpt>
      <trkpt lat="53.19660603068769" lon="-6.134540000930429">
        <ele>13.6</ele>
        <time>2026-07-09T15:11:17Z</time>
      </trkpt>
      <trkpt lat="53.19686695933342" lon="-6.134000038728118">
        <ele>11.19</ele>
        <time>2026-07-09T15:11:20Z</time>
      </trkpt>
      <trkpt lat="53.196984976530075" lon="-6.133837010711432">
        <ele>9.75</ele>
        <time>2026-07-09T15:11:21Z</time>
      </trkpt>
      <trkpt lat="53.197246994823217" lon="-6.133535010740161">
        <ele>6.87</ele>
        <time>2026-07-09T15:11:23Z</time>
      </trkpt>
      <trkpt lat="53.197388984262943" lon="-6.133414981886745">
        <ele>5.91</ele>
        <time>2026-07-09T15:11:24Z</time>
      </trkpt>
      <trkpt lat="53.197539020329714" lon="-6.133314985781908">
        <ele>4.94</ele>
        <time>2026-07-09T15:11:25Z</time>
      </trkpt>
      <trkpt lat="53.199066035449505" lon="-6.132574025541544">
        <ele>6.87</ele>
        <time>2026-07-09T15:11:35Z</time>
      </trkpt>
      <trkpt lat="53.200860014185309" lon="-6.131403995677829">
        <ele>14.56</ele>
        <time>2026-07-09T15:11:47Z</time>
      </trkpt>
      <trkpt lat="53.20225702598691" lon="-6.130166994407773">
        <ele>17.920000000000002</ele>
        <time>2026-07-09T15:11:56Z</time>
      </trkpt>
      <trkpt lat="53.204244961962104" lon="-6.128391036763787">
        <ele>19.84</ele>
        <time>2026-07-09T15:12:07Z</time>
      </trkpt>
      <trkpt lat="53.206144971773028" lon="-6.126664029434323">
        <ele>17.920000000000002</ele>
        <time>2026-07-09T15:12:17Z</time>
      </trkpt>
      <trkpt lat="53.208460975438356" lon="-6.125018997117877">
        <ele>12.630000000000001</ele>
        <time>2026-07-09T15:12:28Z</time>
      </trkpt>
      <trkpt lat="53.210438014939427" lon="-6.124470988288522">
        <ele>7.35</ele>
        <time>2026-07-09T15:12:37Z</time>
      </trkpt>
      <trkpt lat="53.212445983663201" lon="-6.124730994924903">
        <ele>8.310000000000001</ele>
        <time>2026-07-09T15:12:46Z</time>
      </trkpt>
      <trkpt lat="53.214141977950931" lon="-6.125464998185635">
        <ele>11.19</ele>
        <time>2026-07-09T15:12:54Z</time>
      </trkpt>
      <trkpt lat="53.215949032455683" lon="-6.126540983095765">
        <ele>14.08</ele>
        <time>2026-07-09T15:13:03Z</time>
      </trkpt>
      <trkpt lat="53.218551026657224" lon="-6.12807503901422">
        <ele>16.960000000000001</ele>
        <time>2026-07-09T15:13:16Z</time>
      </trkpt>
      <trkpt lat="53.22049998678267" lon="-6.128756990656257">
        <ele>19.84</ele>
        <time>2026-07-09T15:13:24Z</time>
      </trkpt>
      <trkpt lat="53.22292897850275" lon="-6.128967041149736">
        <ele>21.77</ele>
        <time>2026-07-09T15:13:34Z</time>
      </trkpt>
      <trkpt lat="53.2255719602108" lon="-6.129013979807496">
        <ele>23.690000000000001</ele>
        <time>2026-07-09T15:13:45Z</time>
      </trkpt>
      <trkpt lat="53.227164018899202" lon="-6.129556959494948">
        <ele>24.170000000000002</ele>
        <time>2026-07-09T15:13:52Z</time>
      </trkpt>
      <trkpt lat="53.229427970945835" lon="-6.131248008459806">
        <ele>26.09</ele>
        <time>2026-07-09T15:14:03Z</time>
      </trkpt>
      <trkpt lat="53.230954986065626" lon="-6.132593974471092">
        <ele>28.98</ele>
        <time>2026-07-09T15:14:11Z</time>
      </trkpt>
      <trkpt lat="53.232326013967395" lon="-6.132758008316159">
        <ele>33.780000000000001</ele>
        <time>2026-07-09T15:14:18Z</time>
      </trkpt>
      <trkpt lat="53.233570978045464" lon="-6.1319649964571">
        <ele>34.740000000000002</ele>
        <time>2026-07-09T15:14:25Z</time>
      </trkpt>
      <trkpt lat="53.235049964860082" lon="-6.130803013220429">
        <ele>31.859999999999999</ele>
        <time>2026-07-09T15:14:33Z</time>
      </trkpt>
      <trkpt lat="53.235235037282109" lon="-6.130694970488548">
        <ele>31.859999999999999</ele>
        <time>2026-07-09T15:14:34Z</time>
      </trkpt>
      <trkpt lat="53.235421031713486" lon="-6.130597991868854">
        <ele>31.859999999999999</ele>
        <time>2026-07-09T15:14:35Z</time>
      </trkpt>
      <trkpt lat="53.237295979633927" lon="-6.129600964486599">
        <ele>29.940000000000001</ele>
        <time>2026-07-09T15:14:45Z</time>
      </trkpt>
      <trkpt lat="53.23910303413868" lon="-6.129122022539377">
        <ele>27.530000000000001</ele>
        <time>2026-07-09T15:14:54Z</time>
      </trkpt>
      <trkpt lat="53.240299969911575" lon="-6.129120010882616">
        <ele>24.649999999999999</ele>
        <time>2026-07-09T15:15:01Z</time>
      </trkpt>
      <trkpt lat="53.241029027849436" lon="-6.129244985058904">
        <ele>23.210000000000001</ele>
        <time>2026-07-09T15:15:07Z</time>
      </trkpt>
      <trkpt lat="53.241103962063789" lon="-6.129285972565413">
        <ele>23.210000000000001</ele>
        <time>2026-07-09T15:15:08Z</time>
      </trkpt>
      <trkpt lat="53.241313006728888" lon="-6.1295560374856">
        <ele>25.129999999999999</ele>
        <time>2026-07-09T15:15:13Z</time>
      </trkpt>
      <trkpt lat="53.241372015327215" lon="-6.129599958658218">
        <ele>25.129999999999999</ele>
        <time>2026-07-09T15:15:14Z</time>
      </trkpt>
      <trkpt lat="53.241449967026711" lon="-6.129628960043192">
        <ele>24.649999999999999</ele>
        <time>2026-07-09T15:15:15Z</time>
      </trkpt>
      <trkpt lat="53.241649037227035" lon="-6.129743037745357">
        <ele>24.649999999999999</ele>
        <time>2026-07-09T15:15:17Z</time>
      </trkpt>
      <trkpt lat="53.241756996139884" lon="-6.129832975566387">
        <ele>24.170000000000002</ele>
        <time>2026-07-09T15:15:18Z</time>
      </trkpt>
      <trkpt lat="53.241878030821681" lon="-6.129934983327985">
        <ele>24.170000000000002</ele>
        <time>2026-07-09T15:15:19Z</time>
      </trkpt>
      <trkpt lat="53.243321981281042" lon="-6.131250020116568">
        <ele>18.879999999999999</ele>
        <time>2026-07-09T15:15:29Z</time>
      </trkpt>
      <trkpt lat="53.244180958718061" lon="-6.132562961429358">
        <ele>14.56</ele>
        <time>2026-07-09T15:15:35Z</time>
      </trkpt>
      <trkpt lat="53.245302960276604" lon="-6.134531032294035">
        <ele>11.67</ele>
        <time>2026-07-09T15:15:45Z</time>
      </trkpt>
      <trkpt lat="53.245387030765414" lon="-6.134680984541774">
        <ele>11.19</ele>
        <time>2026-07-09T15:15:50Z</time>
      </trkpt>
      <trkpt lat="53.245524996891618" lon="-6.134915007278323">
        <ele>10.23</ele>
        <time>2026-07-09T15:16:10Z</time>
      </trkpt>
      <trkpt lat="53.246163027361035" lon="-6.135811032727361">
        <ele>11.67</ele>
        <time>2026-07-09T15:16:16Z</time>
      </trkpt>
      <trkpt lat="53.247469011694193" lon="-6.137452963739634">
        <ele>11.67</ele>
        <time>2026-07-09T15:16:25Z</time>
      </trkpt>
      <trkpt lat="53.248976999893785" lon="-6.13952899351716">
        <ele>19.84</ele>
        <time>2026-07-09T15:16:35Z</time>
      </trkpt>
      <trkpt lat="53.250826969742775" lon="-6.141699990257621">
        <ele>28.98</ele>
        <time>2026-07-09T15:16:47Z</time>
      </trkpt>
      <trkpt lat="53.253236012533307" lon="-6.143777025863528">
        <ele>29.940000000000001</ele>
        <time>2026-07-09T15:17:01Z</time>
      </trkpt>
      <trkpt lat="53.255416983738542" lon="-6.145415017381311">
        <ele>29.940000000000001</ele>
        <time>2026-07-09T15:17:14Z</time>
      </trkpt>
      <trkpt lat="53.257169974967837" lon="-6.145904017612338">
        <ele>29.460000000000001</ele>
        <time>2026-07-09T15:17:24Z</time>
      </trkpt>
      <trkpt lat="53.257536012679338" lon="-6.146012982353568">
        <ele>27.530000000000001</ele>
        <time>2026-07-09T15:17:29Z</time>
      </trkpt>
      <trkpt lat="53.257916970178485" lon="-6.146126976236701">
        <ele>24.649999999999999</ele>
        <time>2026-07-09T15:17:36Z</time>
      </trkpt>
      <trkpt lat="53.258771002292633" lon="-6.146425036713481">
        <ele>23.210000000000001</ele>
        <time>2026-07-09T15:17:44Z</time>
      </trkpt>
      <trkpt lat="53.259710026904941" lon="-6.146913031116128">
        <ele>24.170000000000002</ele>
        <time>2026-07-09T15:17:52Z</time>
      </trkpt>
      <trkpt lat="53.260523993521929" lon="-6.147660026326776">
        <ele>28.02</ele>
        <time>2026-07-09T15:18:01Z</time>
      </trkpt>
      <trkpt lat="53.260990027338266" lon="-6.148223960772157">
        <ele>32.340000000000003</ele>
        <time>2026-07-09T15:18:11Z</time>
      </trkpt>
      <trkpt lat="53.261179039254785" lon="-6.148496959358454">
        <ele>33.299999999999997</ele>
        <time>2026-07-09T15:18:23Z</time>
      </trkpt>
      <trkpt lat="53.261216003447771" lon="-6.148552028462291">
        <ele>32.340000000000003</ele>
        <time>2026-07-09T15:18:35Z</time>
      </trkpt>
      <trkpt lat="53.261361010372639" lon="-6.148785967379808">
        <ele>31.859999999999999</ele>
        <time>2026-07-09T15:19:06Z</time>
      </trkpt>
      <trkpt lat="53.261636020615697" lon="-6.149278990924358">
        <ele>31.859999999999999</ele>
        <time>2026-07-09T15:19:10Z</time>
      </trkpt>
      <trkpt lat="53.262253012508154" lon="-6.150597967207432">
        <ele>32.82</ele>
        <time>2026-07-09T15:19:18Z</time>
      </trkpt>
      <trkpt lat="53.262872016057372" lon="-6.151916021481156">
        <ele>33.780000000000001</ele>
        <time>2026-07-09T15:19:26Z</time>
      </trkpt>
      <trkpt lat="53.263800982385874" lon="-6.153884008526802">
        <ele>33.780000000000001</ele>
        <time>2026-07-09T15:19:35Z</time>
      </trkpt>
      <trkpt lat="53.264960031956434" lon="-6.156349964439869">
        <ele>34.740000000000002</ele>
        <time>2026-07-09T15:19:46Z</time>
      </trkpt>
      <trkpt lat="53.266044985502958" lon="-6.158422976732254">
        <ele>35.710000000000001</ele>
        <time>2026-07-09T15:19:57Z</time>
      </trkpt>
      <trkpt lat="53.267300007864833" lon="-6.160171022638679">
        <ele>37.630000000000003</ele>
        <time>2026-07-09T15:20:06Z</time>
      </trkpt>
      <trkpt lat="53.268484035506845" lon="-6.162335984408855">
        <ele>39.07</ele>
        <time>2026-07-09T15:20:15Z</time>
      </trkpt>
      <trkpt lat="53.269690023735166" lon="-6.164893973618746">
        <ele>42.920000000000002</ele>
        <time>2026-07-09T15:20:26Z</time>
      </trkpt>
      <trkpt lat="53.269993029534817" lon="-6.165528986603022">
        <ele>44.840000000000003</ele>
        <time>2026-07-09T15:20:32Z</time>
      </trkpt>
      <trkpt lat="53.270152034237981" lon="-6.165861999616027">
        <ele>45.799999999999997</ele>
        <time>2026-07-09T15:20:43Z</time>
      </trkpt>
      <trkpt lat="53.270274996757507" lon="-6.166108008474112">
        <ele>45.799999999999997</ele>
        <time>2026-07-09T15:21:11Z</time>
      </trkpt>
      <trkpt lat="53.270847983658314" lon="-6.167336041107774">
        <ele>49.159999999999997</ele>
        <time>2026-07-09T15:21:20Z</time>
      </trkpt>
      <trkpt lat="53.271519038826227" lon="-6.169129014015198">
        <ele>53.490000000000002</ele>
        <time>2026-07-09T15:21:28Z</time>
      </trkpt>
      <trkpt lat="53.272197972983122" lon="-6.171119967475534">
        <ele>59.740000000000002</ele>
        <time>2026-07-09T15:21:37Z</time>
      </trkpt>
      <trkpt lat="53.273236993700266" lon="-6.17304403334856">
        <ele>63.579999999999998</ele>
        <time>2026-07-09T15:21:47Z</time>
      </trkpt>
      <trkpt lat="53.274064958095551" lon="-6.175326006487012">
        <ele>66.469999999999999</ele>
        <time>2026-07-09T15:21:56Z</time>
      </trkpt>
      <trkpt lat="53.274777000769973" lon="-6.178044006228447">
        <ele>75.120000000000005</ele>
        <time>2026-07-09T15:22:06Z</time>
      </trkpt>
      <trkpt lat="53.275778973475099" lon="-6.179981986060739">
        <ele>79.450000000000003</ele>
        <time>2026-07-09T15:22:14Z</time>
      </trkpt>
      <trkpt lat="53.276822017505765" lon="-6.181816030293703">
        <ele>83.769999999999996</ele>
        <time>2026-07-09T15:22:24Z</time>
      </trkpt>
      <trkpt lat="53.277081018313766" lon="-6.18230402469635">
        <ele>83.769999999999996</ele>
        <time>2026-07-09T15:22:30Z</time>
      </trkpt>
      <trkpt lat="53.277465999126434" lon="-6.183026041835547">
        <ele>82.810000000000002</ele>
        <time>2026-07-09T15:22:37Z</time>
      </trkpt>
      <trkpt lat="53.277697004377842" lon="-6.183463996276259">
        <ele>83.290000000000006</ele>
        <time>2026-07-09T15:22:42Z</time>
      </trkpt>
      <trkpt lat="53.277900014072657" lon="-6.183906979858875">
        <ele>82.810000000000002</ele>
        <time>2026-07-09T15:22:54Z</time>
      </trkpt>
      <trkpt lat="53.277900014072657" lon="-6.183906979858875">
        <ele>82.810000000000002</ele>
        <time>2026-07-09T15:23:45Z</time>
      </trkpt>
      <trkpt lat="53.27810101211071" lon="-6.184373013675213">
        <ele>81.370000000000005</ele>
        <time>2026-07-09T15:23:52Z</time>
      </trkpt>
      <trkpt lat="53.278584983199835" lon="-6.185539020225406">
        <ele>80.409999999999997</ele>
        <time>2026-07-09T15:24:00Z</time>
      </trkpt>
      <trkpt lat="53.279413031414151" lon="-6.187529973685741">
        <ele>76.079999999999998</ele>
        <time>2026-07-09T15:24:11Z</time>
      </trkpt>
      <trkpt lat="53.280280977487564" lon="-6.189617989584804">
        <ele>70.790000000000006</ele>
        <time>2026-07-09T15:24:22Z</time>
      </trkpt>
      <trkpt lat="53.281134003773332" lon="-6.191812958568335">
        <ele>68.870000000000005</ele>
        <time>2026-07-09T15:24:34Z</time>
      </trkpt>
      <trkpt lat="53.281330978497863" lon="-6.192247979342938">
        <ele>70.310000000000002</ele>
        <time>2026-07-09T15:24:38Z</time>
      </trkpt>
      <trkpt lat="53.281379006803036" lon="-6.192329032346606">
        <ele>70.790000000000006</ele>
        <time>2026-07-09T15:24:39Z</time>
      </trkpt>
      <trkpt lat="53.281493000686169" lon="-6.192518966272473">
        <ele>72.239999999999995</ele>
        <time>2026-07-09T15:24:42Z</time>
      </trkpt>
      <trkpt lat="53.281528037041426" lon="-6.192571017891169">
        <ele>72.239999999999995</ele>
        <time>2026-07-09T15:24:43Z</time>
      </trkpt>
      <trkpt lat="53.281584028154612" lon="-6.192655004560947">
        <ele>72.719999999999999</ele>
        <time>2026-07-09T15:24:50Z</time>
      </trkpt>
      <trkpt lat="53.281787959858775" lon="-6.192942000925541">
        <ele>72.719999999999999</ele>
        <time>2026-07-09T15:24:56Z</time>
      </trkpt>
      <trkpt lat="53.282559011131525" lon="-6.193609032779932">
        <ele>71.269999999999996</ele>
        <time>2026-07-09T15:25:04Z</time>
      </trkpt>
      <trkpt lat="53.283787965774536" lon="-6.194325014948845">
        <ele>66.950000000000003</ele>
        <time>2026-07-09T15:25:15Z</time>
      </trkpt>
      <trkpt lat="53.284515012055635" lon="-6.194674959406257">
        <ele>62.619999999999997</ele>
        <time>2026-07-09T15:25:23Z</time>
      </trkpt>
      <trkpt lat="53.284569997340441" lon="-6.194698009639978">
        <ele>61.18</ele>
        <time>2026-07-09T15:25:31Z</time>
      </trkpt>
      <trkpt lat="53.284769989550114" lon="-6.194754000753164">
        <ele>58.780000000000001</ele>
        <time>2026-07-09T15:25:53Z</time>
      </trkpt>
      <trkpt lat="53.285063020884991" lon="-6.19478702545166">
        <ele>56.859999999999999</ele>
        <time>2026-07-09T15:25:56Z</time>
      </trkpt>
      <trkpt lat="53.285177014768124" lon="-6.194800017401576">
        <ele>56.369999999999997</ele>
        <time>2026-07-09T15:25:57Z</time>
      </trkpt>
      <trkpt lat="53.286373028531671" lon="-6.194600025191903">
        <ele>53.969999999999999</ele>
        <time>2026-07-09T15:26:06Z</time>
      </trkpt>
      <trkpt lat="53.287870036438107" lon="-6.194669008255005">
        <ele>50.609999999999999</ele>
        <time>2026-07-09T15:26:16Z</time>
      </trkpt>
      <trkpt lat="53.28860898502171" lon="-6.194976037368178">
        <ele>45.799999999999997</ele>
        <time>2026-07-09T15:26:23Z</time>
      </trkpt>
      <trkpt lat="53.28895197249949" lon="-6.195210982114077">
        <ele>41.950000000000003</ele>
        <time>2026-07-09T15:26:31Z</time>
      </trkpt>
      <trkpt lat="53.289753030985594" lon="-6.19596702978015">
        <ele>43.880000000000003</ele>
        <time>2026-07-09T15:26:40Z</time>
      </trkpt>
      <trkpt lat="53.290621982887387" lon="-6.197308972477913">
        <ele>45.32</ele>
        <time>2026-07-09T15:26:47Z</time>
      </trkpt>
      <trkpt lat="53.291652034968138" lon="-6.198995998129249">
        <ele>46.280000000000001</ele>
        <time>2026-07-09T15:26:56Z</time>
      </trkpt>
      <trkpt lat="53.291742978617549" lon="-6.199146034196019">
        <ele>45.799999999999997</ele>
        <time>2026-07-09T15:26:57Z</time>
      </trkpt>
      <trkpt lat="53.292700024321675" lon="-6.20076198130846">
        <ele>46.759999999999998</ele>
        <time>2026-07-09T15:27:06Z</time>
      </trkpt>
      <trkpt lat="53.293402008712292" lon="-6.201873002573848">
        <ele>49.159999999999997</ele>
        <time>2026-07-09T15:27:12Z</time>
      </trkpt>
      <trkpt lat="53.294669017195702" lon="-6.203231038525701">
        <ele>48.68</ele>
        <time>2026-07-09T15:27:23Z</time>
      </trkpt>
      <trkpt lat="53.295624973252416" lon="-6.203873008489609">
        <ele>48.200000000000003</ele>
        <time>2026-07-09T15:27:32Z</time>
      </trkpt>
      <trkpt lat="53.295866036787629" lon="-6.203964035958052">
        <ele>48.200000000000003</ele>
        <time>2026-07-09T15:27:38Z</time>
      </trkpt>
      <trkpt lat="53.295866036787629" lon="-6.203964035958052">
        <ele>48.200000000000003</ele>
        <time>2026-07-09T15:27:50Z</time>
      </trkpt>
      <trkpt lat="53.296010037884116" lon="-6.204007035121322">
        <ele>47.240000000000002</ele>
        <time>2026-07-09T15:28:15Z</time>
      </trkpt>
      <trkpt lat="53.296828027814627" lon="-6.204166039824486">
        <ele>45.32</ele>
        <time>2026-07-09T15:28:23Z</time>
      </trkpt>
      <trkpt lat="53.297992022708058" lon="-6.204511960968375">
        <ele>45.32</ele>
        <time>2026-07-09T15:28:33Z</time>
      </trkpt>
      <trkpt lat="53.298988966271281" lon="-6.205031974241138">
        <ele>42.439999999999998</ele>
        <time>2026-07-09T15:28:40Z</time>
      </trkpt>
      <trkpt lat="53.299632025882602" lon="-6.205396000295878">
        <ele>39.549999999999997</ele>
        <time>2026-07-09T15:28:44Z</time>
      </trkpt>
      <trkpt lat="53.299784995615482" lon="-6.205473029986024">
        <ele>39.549999999999997</ele>
        <time>2026-07-09T15:28:45Z</time>
      </trkpt>
      <trkpt lat="53.300523022189736" lon="-6.205883994698525">
        <ele>37.630000000000003</ele>
        <time>2026-07-09T15:28:50Z</time>
      </trkpt>
      <trkpt lat="53.300670040771365" lon="-6.205965969711542">
        <ele>37.149999999999999</ele>
        <time>2026-07-09T15:28:51Z</time>
      </trkpt>
      <trkpt lat="53.302327981218696" lon="-6.207062993198633">
        <ele>28.5</ele>
        <time>2026-07-09T15:29:02Z</time>
      </trkpt>
      <trkpt lat="53.302864003926516" lon="-6.207680990919471">
        <ele>25.129999999999999</ele>
        <time>2026-07-09T15:29:08Z</time>
      </trkpt>
      <trkpt lat="53.303051004186273" lon="-6.207901015877724">
        <ele>23.210000000000001</ele>
        <time>2026-07-09T15:29:16Z</time>
      </trkpt>
      <trkpt lat="53.303051004186273" lon="-6.207901015877724">
        <ele>23.210000000000001</ele>
        <time>2026-07-09T15:30:00Z</time>
      </trkpt>
      <trkpt lat="53.303119987249374" lon="-6.2079799734056">
        <ele>22.25</ele>
        <time>2026-07-09T15:30:04Z</time>
      </trkpt>
      <trkpt lat="53.303574034944177" lon="-6.208606017753482">
        <ele>22.25</ele>
        <time>2026-07-09T15:30:11Z</time>
      </trkpt>
      <trkpt lat="53.304494032636285" lon="-6.209933962672949">
        <ele>24.649999999999999</ele>
        <time>2026-07-09T15:30:21Z</time>
      </trkpt>
      <trkpt lat="53.305760035291314" lon="-6.211763983592391">
        <ele>26.57</ele>
        <time>2026-07-09T15:30:33Z</time>
      </trkpt>
      <trkpt lat="53.30727799795568" lon="-6.214077975600958">
        <ele>23.690000000000001</ele>
        <time>2026-07-09T15:30:46Z</time>
      </trkpt>
      <trkpt lat="53.30831098370254" lon="-6.216001035645604">
        <ele>20.809999999999999</ele>
        <time>2026-07-09T15:30:56Z</time>
      </trkpt>
      <trkpt lat="53.309326032176614" lon="-6.217920994386077">
        <ele>16.960000000000001</ele>
        <time>2026-07-09T15:31:05Z</time>
      </trkpt>
      <trkpt lat="53.310318030416965" lon="-6.219678008928895">
        <ele>18.879999999999999</ele>
        <time>2026-07-09T15:31:14Z</time>
      </trkpt>
      <trkpt lat="53.311255965381861" lon="-6.220631031319499">
        <ele>19.359999999999999</ele>
        <time>2026-07-09T15:31:22Z</time>
      </trkpt>
      <trkpt lat="53.312477963045239" lon="-6.22153602540493">
        <ele>18.879999999999999</ele>
        <time>2026-07-09T15:31:35Z</time>
      </trkpt>
      <trkpt lat="53.313204003497958" lon="-6.222197022289038">
        <ele>18.879999999999999</ele>
        <time>2026-07-09T15:31:42Z</time>
      </trkpt>
      <trkpt lat="53.313412964344025" lon="-6.222463985905051">
        <ele>19.359999999999999</ele>
        <time>2026-07-09T15:31:48Z</time>
      </trkpt>
      <trkpt lat="53.313412964344025" lon="-6.222463985905051">
        <ele>18.879999999999999</ele>
        <time>2026-07-09T15:32:00Z</time>
      </trkpt>
      <trkpt lat="53.313475996255875" lon="-6.222565993666649">
        <ele>17.920000000000002</ele>
        <time>2026-07-09T15:32:44Z</time>
      </trkpt>
      <trkpt lat="53.313851002603769" lon="-6.223250040784478">
        <ele>16.48</ele>
        <time>2026-07-09T15:32:50Z</time>
      </trkpt>
      <trkpt lat="53.314552986994386" lon="-6.225068997591734">
        <ele>16.48</ele>
        <time>2026-07-09T15:33:00Z</time>
      </trkpt>
      <trkpt lat="53.314941991120577" lon="-6.226040041074157">
        <ele>16.960000000000001</ele>
        <time>2026-07-09T15:33:05Z</time>
      </trkpt>
      <trkpt lat="53.315730979666114" lon="-6.227313000708818">
        <ele>16.48</ele>
        <time>2026-07-09T15:33:14Z</time>
      </trkpt>
      <trkpt lat="53.315877998247743" lon="-6.227521961554885">
        <ele>16.48</ele>
        <time>2026-07-09T15:33:20Z</time>
      </trkpt>
      <trkpt lat="53.316012024879456" lon="-6.227708961814642">
        <ele>16.960000000000001</ele>
        <time>2026-07-09T15:33:45Z</time>
      </trkpt>
      <trkpt lat="53.316583000123501" lon="-6.228464003652334">
        <ele>17.920000000000002</ele>
        <time>2026-07-09T15:33:51Z</time>
      </trkpt>
      <trkpt lat="53.317812960594893" lon="-6.230179024860263">
        <ele>13.119999999999999</ele>
        <time>2026-07-09T15:34:02Z</time>
      </trkpt>
      <trkpt lat="53.318969998508692" lon="-6.231755996122956">
        <ele>11.67</ele>
        <time>2026-07-09T15:34:13Z</time>
      </trkpt>
      <trkpt lat="53.320204988121986" lon="-6.233372027054429">
        <ele>8.310000000000001</ele>
        <time>2026-07-09T15:34:25Z</time>
      </trkpt>
      <trkpt lat="53.320588041096926" lon="-6.233903020620346">
        <ele>7.83</ele>
        <time>2026-07-09T15:34:29Z</time>
      </trkpt>
      <trkpt lat="53.32081301137805" lon="-6.234236033633351">
        <ele>8.310000000000001</ele>
        <time>2026-07-09T15:34:32Z</time>
      </trkpt>
      <trkpt lat="53.320871014147997" lon="-6.234318008646369">
        <ele>8.310000000000001</ele>
        <time>2026-07-09T15:34:33Z</time>
      </trkpt>
      <trkpt lat="53.320915019139647" lon="-6.234379028901458">
        <ele>8.789999999999999</ele>
        <time>2026-07-09T15:34:34Z</time>
      </trkpt>
      <trkpt lat="53.320948965847492" lon="-6.234426973387599">
        <ele>8.789999999999999</ele>
        <time>2026-07-09T15:34:35Z</time>
      </trkpt>
      <trkpt lat="53.320976961404085" lon="-6.234466033056378">
        <ele>8.789999999999999</ele>
        <time>2026-07-09T15:34:36Z</time>
      </trkpt>
      <trkpt lat="53.321013003587723" lon="-6.234515989199281">
        <ele>8.310000000000001</ele>
        <time>2026-07-09T15:34:45Z</time>
      </trkpt>
      <trkpt lat="53.321251971647143" lon="-6.234851013869047">
        <ele>7.35</ele>
        <time>2026-07-09T15:34:51Z</time>
      </trkpt>
      <trkpt lat="53.32190902903676" lon="-6.235820967704058">
        <ele>10.710000000000001</ele>
        <time>2026-07-09T15:35:02Z</time>
      </trkpt>
      <trkpt lat="53.321959991008043" lon="-6.235934039577842">
        <ele>11.19</ele>
        <time>2026-07-09T15:35:03Z</time>
      </trkpt>
      <trkpt lat="53.322011036798358" lon="-6.236047027632594">
        <ele>11.19</ele>
        <time>2026-07-09T15:35:04Z</time>
      </trkpt>
      <trkpt lat="53.322089994326234" lon="-6.236282978206873">
        <ele>11.67</ele>
        <time>2026-07-09T15:35:06Z</time>
      </trkpt>
      <trkpt lat="53.322108015418053" lon="-6.236424967646599">
        <ele>12.630000000000001</ele>
        <time>2026-07-09T15:35:07Z</time>
      </trkpt>
      <trkpt lat="53.322125030681491" lon="-6.236558994278312">
        <ele>13.6</ele>
        <time>2026-07-09T15:35:08Z</time>
      </trkpt>
      <trkpt lat="53.322184961289167" lon="-6.236936012282968">
        <ele>14.56</ele>
        <time>2026-07-09T15:35:11Z</time>
      </trkpt>
      <trkpt lat="53.322226032614708" lon="-6.237046988680959">
        <ele>15.039999999999999</ele>
        <time>2026-07-09T15:35:12Z</time>
      </trkpt>
      <trkpt lat="53.322276994585991" lon="-6.237171962857246">
        <ele>15.039999999999999</ele>
        <time>2026-07-09T15:35:13Z</time>
      </trkpt>
      <trkpt lat="53.322761971503496" lon="-6.237963968887925">
        <ele>14.08</ele>
        <time>2026-07-09T15:35:20Z</time>
      </trkpt>
      <trkpt lat="53.322839001193643" lon="-6.238079974427819">
        <ele>14.08</ele>
        <time>2026-07-09T15:35:21Z</time>
      </trkpt>
      <trkpt lat="53.322917958721519" lon="-6.238189022988081">
        <ele>13.6</ele>
        <time>2026-07-09T15:35:22Z</time>
      </trkpt>
      <trkpt lat="53.323216019198298" lon="-6.23857400380075">
        <ele>12.630000000000001</ele>
        <time>2026-07-09T15:35:26Z</time>
      </trkpt>
      <trkpt lat="53.323287013918161" lon="-6.238664025440812">
        <ele>12.630000000000001</ele>
        <time>2026-07-09T15:35:27Z</time>
      </trkpt>
      <trkpt lat="53.323986986652017" lon="-6.239567007869482">
        <ele>11.67</ele>
        <time>2026-07-09T15:35:36Z</time>
      </trkpt>
      <trkpt lat="53.324419995769858" lon="-6.240156004205346">
        <ele>12.15</ele>
        <time>2026-07-09T15:35:44Z</time>
      </trkpt>
      <trkpt lat="53.324469029903412" lon="-6.240219036117196">
        <ele>11.67</ele>
        <time>2026-07-09T15:35:45Z</time>
      </trkpt>
      <trkpt lat="53.3245749771595" lon="-6.240353984758258">
        <ele>10.23</ele>
        <time>2026-07-09T15:35:52Z</time>
      </trkpt>
      <trkpt lat="53.32476700656116" lon="-6.240612985566258">
        <ele>9.27</ele>
        <time>2026-07-09T15:35:58Z</time>
      </trkpt>
      <trkpt lat="53.325390033423901" lon="-6.241436004638672">
        <ele>6.39</ele>
        <time>2026-07-09T15:36:07Z</time>
      </trkpt>
      <trkpt lat="53.326028985902667" lon="-6.242319960147142">
        <ele>4.94</ele>
        <time>2026-07-09T15:36:15Z</time>
      </trkpt>
      <trkpt lat="53.326107021421194" lon="-6.242428002879024">
        <ele>4.94</ele>
        <time>2026-07-09T15:36:16Z</time>
      </trkpt>
      <trkpt lat="53.326928028836846" lon="-6.243496024981141">
        <ele>3.98</ele>
        <time>2026-07-09T15:36:26Z</time>
      </trkpt>
      <trkpt lat="53.32764501683414" lon="-6.244539991021156">
        <ele>2.06</ele>
        <time>2026-07-09T15:36:35Z</time>
      </trkpt>
      <trkpt lat="53.327748030424118" lon="-6.244730008766055">
        <ele>3.02</ele>
        <time>2026-07-09T15:36:37Z</time>
      </trkpt>
      <trkpt lat="53.328125970438123" lon="-6.245610024780035">
        <ele>6.39</ele>
        <time>2026-07-09T15:36:46Z</time>
      </trkpt>
      <trkpt lat="53.328460995107889" lon="-6.246559023857117">
        <ele>5.91</ele>
        <time>2026-07-09T15:36:55Z</time>
      </trkpt>
      <trkpt lat="53.32848496735096" lon="-6.246627001091838">
        <ele>6.39</ele>
        <time>2026-07-09T15:37:02Z</time>
      </trkpt>
      <trkpt lat="53.32848496735096" lon="-6.246627001091838">
        <ele>6.39</ele>
        <time>2026-07-09T15:37:51Z</time>
      </trkpt>
      <trkpt lat="53.328502988442779" lon="-6.246676035225391">
        <ele>7.83</ele>
        <time>2026-07-09T15:37:59Z</time>
      </trkpt>
      <trkpt lat="53.32874296233058" lon="-6.247166963294148">
        <ele>11.19</ele>
        <time>2026-07-09T15:38:06Z</time>
      </trkpt>
      <trkpt lat="53.329078992828727" lon="-6.2478550337255">
        <ele>11.67</ele>
        <time>2026-07-09T15:38:12Z</time>
      </trkpt>
      <trkpt lat="53.329264987260103" lon="-6.248294999822974">
        <ele>11.67</ele>
        <time>2026-07-09T15:38:15Z</time>
      </trkpt>
      <trkpt lat="53.329311003908515" lon="-6.248409999534488">
        <ele>11.67</ele>
        <time>2026-07-09T15:38:16Z</time>
      </trkpt>
      <trkpt lat="53.329336987808347" lon="-6.248618038371205">
        <ele>12.15</ele>
        <time>2026-07-09T15:38:17Z</time>
      </trkpt>
      <trkpt lat="53.329357020556927" lon="-6.24878098256886">
        <ele>11.67</ele>
        <time>2026-07-09T15:38:18Z</time>
      </trkpt>
      <trkpt lat="53.329381998628378" lon="-6.248962031677365">
        <ele>11.67</ele>
        <time>2026-07-09T15:38:19Z</time>
      </trkpt>
      <trkpt lat="53.329520970582962" lon="-6.249753031879664">
        <ele>11.67</ele>
        <time>2026-07-09T15:38:23Z</time>
      </trkpt>
      <trkpt lat="53.330061016604304" lon="-6.251235036179423">
        <ele>13.6</ele>
        <time>2026-07-09T15:38:32Z</time>
      </trkpt>
      <trkpt lat="53.330307025462389" lon="-6.251581041142345">
        <ele>14.56</ele>
        <time>2026-07-09T15:38:35Z</time>
      </trkpt>
      <trkpt lat="53.330399980768561" lon="-6.251696962863207">
        <ele>14.56</ele>
        <time>2026-07-09T15:38:36Z</time>
      </trkpt>
      <trkpt lat="53.330495031550527" lon="-6.251793019473553">
        <ele>15.039999999999999</ele>
        <time>2026-07-09T15:38:37Z</time>
      </trkpt>
      <trkpt lat="53.330601984634995" lon="-6.251876000314951">
        <ele>15.52</ele>
        <time>2026-07-09T15:38:38Z</time>
      </trkpt>
      <trkpt lat="53.330708015710115" lon="-6.251956969499588">
        <ele>16</ele>
        <time>2026-07-09T15:38:39Z</time>
      </trkpt>
      <trkpt lat="53.330810023471713" lon="-6.252017989754677">
        <ele>16</ele>
        <time>2026-07-09T15:38:40Z</time>
      </trkpt>
      <trkpt lat="53.330913037061691" lon="-6.252075992524624">
        <ele>16</ele>
        <time>2026-07-09T15:38:41Z</time>
      </trkpt>
      <trkpt lat="53.331009009853005" lon="-6.252129971981049">
        <ele>16</ele>
        <time>2026-07-09T15:38:42Z</time>
      </trkpt>
      <trkpt lat="53.331101965159178" lon="-6.252185963094235">
        <ele>16</ele>
        <time>2026-07-09T15:38:43Z</time>
      </trkpt>
      <trkpt lat="53.331262981519103" lon="-6.252292999997735">
        <ele>16</ele>
        <time>2026-07-09T15:38:45Z</time>
      </trkpt>
      <trkpt lat="53.331329030916095" lon="-6.252337004989386">
        <ele>16</ele>
        <time>2026-07-09T15:38:46Z</time>
      </trkpt>
      <trkpt lat="53.331595994532108" lon="-6.252501038834453">
        <ele>16.48</ele>
        <time>2026-07-09T15:38:53Z</time>
      </trkpt>
      <trkpt lat="53.331759022548795" lon="-6.252590976655483">
        <ele>15.039999999999999</ele>
        <time>2026-07-09T15:38:56Z</time>
      </trkpt>
      <trkpt lat="53.332121958956122" lon="-6.252830028533936">
        <ele>13.119999999999999</ele>
        <time>2026-07-09T15:39:02Z</time>
      </trkpt>
      <trkpt lat="53.332449020817876" lon="-6.253191959112883">
        <ele>12.15</ele>
        <time>2026-07-09T15:39:09Z</time>
      </trkpt>
      <trkpt lat="53.332516998052597" lon="-6.253264965489507">
        <ele>12.15</ele>
        <time>2026-07-09T15:39:11Z</time>
      </trkpt>
      <trkpt lat="53.332872977480292" lon="-6.253641983494163">
        <ele>12.630000000000001</ele>
        <time>2026-07-09T15:39:17Z</time>
      </trkpt>
      <trkpt lat="53.332937015220523" lon="-6.253709960728884">
        <ele>12.15</ele>
        <time>2026-07-09T15:39:18Z</time>
      </trkpt>
      <trkpt lat="53.3337929751724" lon="-6.25460104085505">
        <ele>9.27</ele>
        <time>2026-07-09T15:39:28Z</time>
      </trkpt>
      <trkpt lat="53.334201006218791" lon="-6.255035977810621">
        <ele>6.87</ele>
        <time>2026-07-09T15:39:35Z</time>
      </trkpt>
      <trkpt lat="53.3342419937253" lon="-6.255078976973891">
        <ele>5.91</ele>
        <time>2026-07-09T15:39:45Z</time>
      </trkpt>
      <trkpt lat="53.3342419937253" lon="-6.255078976973891">
        <ele>4.94</ele>
        <time>2026-07-09T15:40:37Z</time>
      </trkpt>
      <trkpt lat="53.33443502895534" lon="-6.255278969183564">
        <ele>4.94</ele>
        <time>2026-07-09T15:40:52Z</time>
      </trkpt>
      <trkpt lat="53.334780028089881" lon="-6.255663027986884">
        <ele>4.94</ele>
        <time>2026-07-09T15:41:00Z</time>
      </trkpt>
      <trkpt lat="53.334850016981363" lon="-6.255743997171521">
        <ele>4.94</ele>
        <time>2026-07-09T15:41:08Z</time>
      </trkpt>
      <trkpt lat="53.334985971450806" lon="-6.255896966904402">
        <ele>6.39</ele>
        <time>2026-07-09T15:41:32Z</time>
      </trkpt>
      <trkpt lat="53.335300041362643" lon="-6.256205001845956">
        <ele>8.310000000000001</ele>
        <time>2026-07-09T15:41:42Z</time>
      </trkpt>
      <trkpt lat="53.335842015221715" lon="-6.256780000403523">
        <ele>9.27</ele>
        <time>2026-07-09T15:41:53Z</time>
      </trkpt>
      <trkpt lat="53.336009988561273" lon="-6.257031038403511">
        <ele>11.19</ele>
        <time>2026-07-09T15:42:01Z</time>
      </trkpt>
      <trkpt lat="53.336009988561273" lon="-6.257031038403511">
        <ele>11.19</ele>
        <time>2026-07-09T15:42:39Z</time>
      </trkpt>
      <trkpt lat="53.336126999929547" lon="-6.257205968722701">
        <ele>13.119999999999999</ele>
        <time>2026-07-09T15:43:04Z</time>
      </trkpt>
      <trkpt lat="53.33617402240634" lon="-6.257310993969441">
        <ele>13.6</ele>
        <time>2026-07-09T15:43:05Z</time>
      </trkpt>
      <trkpt lat="53.336551962420344" lon="-6.258688978850842">
        <ele>15.52</ele>
        <time>2026-07-09T15:43:13Z</time>
      </trkpt>
      <trkpt lat="53.336752038449049" lon="-6.259435974061489">
        <ele>16</ele>
        <time>2026-07-09T15:43:17Z</time>
      </trkpt>
      <trkpt lat="53.33679897710681" lon="-6.259607970714569">
        <ele>16.48</ele>
        <time>2026-07-09T15:43:18Z</time>
      </trkpt>
      <trkpt lat="53.33688598126173" lon="-6.260011978447437">
        <ele>16</ele>
        <time>2026-07-09T15:43:23Z</time>
      </trkpt>
      <trkpt lat="53.33688598126173" lon="-6.260011978447437">
        <ele>15.52</ele>
        <time>2026-07-09T15:43:38Z</time>
      </trkpt>
      <trkpt lat="53.336983965709805" lon="-6.260427972301841">
        <ele>16</ele>
        <time>2026-07-09T15:43:58Z</time>
      </trkpt>
      <trkpt lat="53.337347991764545" lon="-6.261763963848352">
        <ele>16</ele>
        <time>2026-07-09T15:44:06Z</time>
      </trkpt>
      <trkpt lat="53.33750800229609" lon="-6.262466032058001">
        <ele>16</ele>
        <time>2026-07-09T15:44:10Z</time>
      </trkpt>
      <trkpt lat="53.337544966489077" lon="-6.262631993740797">
        <ele>16</ele>
        <time>2026-07-09T15:44:11Z</time>
      </trkpt>
      <trkpt lat="53.337556030601263" lon="-6.262799967080355">
        <ele>16</ele>
        <time>2026-07-09T15:44:12Z</time>
      </trkpt>
      <trkpt lat="53.337563993409276" lon="-6.262976992875338">
        <ele>16</ele>
        <time>2026-07-09T15:44:13Z</time>
      </trkpt>
      <trkpt lat="53.33757103420794" lon="-6.263158963993192">
        <ele>16</ele>
        <time>2026-07-09T15:44:14Z</time>
      </trkpt>
      <trkpt lat="53.337572040036321" lon="-6.263341018930078">
        <ele>16</ele>
        <time>2026-07-09T15:44:15Z</time>
      </trkpt>
      <trkpt lat="53.337572040036321" lon="-6.263521984219551">
        <ele>16</ele>
        <time>2026-07-09T15:44:16Z</time>
      </trkpt>
      <trkpt lat="53.337572040036321" lon="-6.263705966994166">
        <ele>15.52</ele>
        <time>2026-07-09T15:44:17Z</time>
      </trkpt>
      <trkpt lat="53.337557036429644" lon="-6.264922013506293">
        <ele>13.6</ele>
        <time>2026-07-09T15:44:25Z</time>
      </trkpt>
      <trkpt lat="53.337561981752515" lon="-6.265055034309626">
        <ele>13.119999999999999</ele>
        <time>2026-07-09T15:44:26Z</time>
      </trkpt>
      <trkpt lat="53.337572040036321" lon="-6.265440015122294">
        <ele>10.710000000000001</ele>
        <time>2026-07-09T15:44:33Z</time>
      </trkpt>
      <trkpt lat="53.337572040036321" lon="-6.265440015122294">
        <ele>10.710000000000001</ele>
        <time>2026-07-09T15:45:11Z</time>
      </trkpt>
      <trkpt lat="53.337572040036321" lon="-6.26566800288856">
        <ele>10.710000000000001</ele>
        <time>2026-07-09T15:45:25Z</time>
      </trkpt>
      <trkpt lat="53.3376369997859" lon="-6.265855003148317">
        <ele>13.6</ele>
        <time>2026-07-09T15:45:31Z</time>
      </trkpt>
      <trkpt lat="53.337689973413944" lon="-6.265866989269853">
        <ele>13.6</ele>
        <time>2026-07-09T15:45:32Z</time>
      </trkpt>
      <trkpt lat="53.337749987840652" lon="-6.265879981219769">
        <ele>13.6</ele>
        <time>2026-07-09T15:45:33Z</time>
      </trkpt>
      <trkpt lat="53.337812013924122" lon="-6.265893978998065">
        <ele>14.08</ele>
        <time>2026-07-09T15:45:34Z</time>
      </trkpt>
      <trkpt lat="53.33787496201694" lon="-6.265910994261503">
        <ele>14.08</ele>
        <time>2026-07-09T15:45:35Z</time>
      </trkpt>
      <trkpt lat="53.338369997218251" lon="-6.266083996742964">
        <ele>14.56</ele>
        <time>2026-07-09T15:45:42Z</time>
      </trkpt>
      <trkpt lat="53.338436968624592" lon="-6.26609799452126">
        <ele>14.56</ele>
        <time>2026-07-09T15:45:43Z</time>
      </trkpt>
      <trkpt lat="53.338507041335106" lon="-6.266107968986034">
        <ele>14.56</ele>
        <time>2026-07-09T15:45:44Z</time>
      </trkpt>
      <trkpt lat="53.339307010173798" lon="-6.265936978161335">
        <ele>13.6</ele>
        <time>2026-07-09T15:45:55Z</time>
      </trkpt>
      <trkpt lat="53.340005977079272" lon="-6.265786020085216">
        <ele>11.19</ele>
        <time>2026-07-09T15:46:05Z</time>
      </trkpt>
      <trkpt lat="53.340118965134025" lon="-6.265760958194733">
        <ele>10.710000000000001</ele>
        <time>2026-07-09T15:46:07Z</time>
      </trkpt>
      <trkpt lat="53.340207980945706" lon="-6.265742015093565">
        <ele>8.789999999999999</ele>
        <time>2026-07-09T15:46:15Z</time>
      </trkpt>
      <trkpt lat="53.340207980945706" lon="-6.265742015093565">
        <ele>8.310000000000001</ele>
        <time>2026-07-09T15:47:05Z</time>
      </trkpt>
      <trkpt lat="53.340235976502299" lon="-6.265734974294901">
        <ele>8.310000000000001</ele>
        <time>2026-07-09T15:47:24Z</time>
      </trkpt>
      <trkpt lat="53.340373020619154" lon="-6.265704967081547">
        <ele>6.39</ele>
        <time>2026-07-09T15:47:32Z</time>
      </trkpt>
      <trkpt lat="53.340567983686924" lon="-6.265656016767025">
        <ele>7.35</ele>
        <time>2026-07-09T15:47:51Z</time>
      </trkpt>
      <trkpt lat="53.341012978926301" lon="-6.265550991520286">
        <ele>6.87</ele>
        <time>2026-07-09T15:48:06Z</time>
      </trkpt>
      <trkpt lat="53.341111969202757" lon="-6.265525007620454">
        <ele>7.35</ele>
        <time>2026-07-09T15:48:18Z</time>
      </trkpt>
      <trkpt lat="53.341251024976373" lon="-6.265471028164029">
        <ele>8.310000000000001</ele>
        <time>2026-07-09T15:48:34Z</time>
      </trkpt>
      <trkpt lat="53.341265022754669" lon="-6.265464993193746">
        <ele>8.310000000000001</ele>
        <time>2026-07-09T15:48:48Z</time>
      </trkpt>
      <trkpt lat="53.34141799248755" lon="-6.265405984595418">
        <ele>7.83</ele>
        <time>2026-07-09T15:49:26Z</time>
      </trkpt>
      <trkpt lat="53.341475995257497" lon="-6.265384024009109">
        <ele>8.310000000000001</ele>
        <time>2026-07-09T15:49:27Z</time>
      </trkpt>
      <trkpt lat="53.341529974713922" lon="-6.265329038724303">
        <ele>8.789999999999999</ele>
        <time>2026-07-09T15:49:28Z</time>
      </trkpt>
      <trkpt lat="53.341579008847475" lon="-6.265277992933989">
        <ele>8.789999999999999</ele>
        <time>2026-07-09T15:49:29Z</time>
      </trkpt>
      <trkpt lat="53.342039007693529" lon="-6.264802990481257">
        <ele>10.23</ele>
        <time>2026-07-09T15:49:37Z</time>
      </trkpt>
      <trkpt lat="53.342371014878154" lon="-6.264569973573089">
        <ele>8.310000000000001</ele>
        <time>2026-07-09T15:49:44Z</time>
      </trkpt>
      <trkpt lat="53.342415019869804" lon="-6.264544995501638">
        <ele>7.35</ele>
        <time>2026-07-09T15:49:45Z</time>
      </trkpt>
      <trkpt lat="53.342460030689836" lon="-6.264520017430186">
        <ele>6.87</ele>
        <time>2026-07-09T15:49:46Z</time>
      </trkpt>
      <trkpt lat="53.342503029853106" lon="-6.264495961368084">
        <ele>6.39</ele>
        <time>2026-07-09T15:49:47Z</time>
      </trkpt>
      <trkpt lat="53.342550974339247" lon="-6.264480035752058">
        <ele>6.39</ele>
        <time>2026-07-09T15:49:48Z</time>
      </trkpt>
      <trkpt lat="53.342733029276133" lon="-6.264461008831859">
        <ele>5.42</ele>
        <time>2026-07-09T15:49:52Z</time>
      </trkpt>
      <trkpt lat="53.343111975118518" lon="-6.264417003840208">
        <ele>4.46</ele>
        <time>2026-07-09T15:50:01Z</time>
      </trkpt>
      <trkpt lat="53.343223035335541" lon="-6.264412980526686">
        <ele>5.91</ele>
        <time>2026-07-09T15:50:11Z</time>
      </trkpt>
      <trkpt lat="53.343380028381944" lon="-6.264404011890292">
        <ele>12.15</ele>
        <time>2026-07-09T15:50:38Z</time>
      </trkpt>
      <trkpt lat="53.3437380194664" lon="-6.264395965263248">
        <ele>15.52</ele>
        <time>2026-07-09T15:50:47Z</time>
      </trkpt>
      <trkpt lat="53.343816976994276" lon="-6.264395965263248">
        <ele>14.56</ele>
        <time>2026-07-09T15:50:58Z</time>
      </trkpt>
      <trkpt lat="53.343816976994276" lon="-6.264395965263248">
        <ele>15.039999999999999</ele>
        <time>2026-07-09T15:51:44Z</time>
      </trkpt>
      <trkpt lat="53.344005988910794" lon="-6.264405017718673">
        <ele>18.879999999999999</ele>
        <time>2026-07-09T15:52:09Z</time>
      </trkpt>
      <trkpt lat="53.344101961702108" lon="-6.264411974698305">
        <ele>20.809999999999999</ele>
        <time>2026-07-09T15:52:13Z</time>
      </trkpt>
      <trkpt lat="53.344181003049016" lon="-6.264441981911659">
        <ele>21.289999999999999</ele>
        <time>2026-07-09T15:52:14Z</time>
      </trkpt>
      <trkpt lat="53.344181003049016" lon="-6.264518005773425">
        <ele>21.77</ele>
        <time>2026-07-09T15:52:15Z</time>
      </trkpt>
      <trkpt lat="53.344181003049016" lon="-6.264609033241868">
        <ele>21.77</ele>
        <time>2026-07-09T15:52:16Z</time>
      </trkpt>
      <trkpt lat="53.344181003049016" lon="-6.264725038781762">
        <ele>21.289999999999999</ele>
        <time>2026-07-09T15:52:17Z</time>
      </trkpt>
      <trkpt lat="53.344181003049016" lon="-6.265468010678887">
        <ele>16.48</ele>
        <time>2026-07-09T15:52:26Z</time>
      </trkpt>
      <trkpt lat="53.344181003049016" lon="-6.265828013420105">
        <ele>13.6</ele>
        <time>2026-07-09T15:52:36Z</time>
      </trkpt>
      <trkpt lat="53.344181003049016" lon="-6.266184998676181">
        <ele>12.630000000000001</ele>
        <time>2026-07-09T15:52:54Z</time>
      </trkpt>
      <trkpt lat="53.344158958643675" lon="-6.266809031367302">
        <ele>11.67</ele>
        <time>2026-07-09T15:53:05Z</time>
      </trkpt>
      <trkpt lat="53.344158958643675" lon="-6.266809031367302">
        <ele>11.67</ele>
        <time>2026-07-09T15:53:20Z</time>
      </trkpt>
      <trkpt lat="53.344158958643675" lon="-6.266809031367302">
        <ele>11.67</ele>
        <time>2026-07-09T15:53:39Z</time>
      </trkpt>
      <trkpt lat="53.344158958643675" lon="-6.266809031367302">
        <ele>11.67</ele>
        <time>2026-07-09T15:53:53Z</time>
      </trkpt>
      <trkpt lat="53.344138003885746" lon="-6.266970969736576">
        <ele>11.67</ele>
        <time>2026-07-09T15:53:58Z</time>
      </trkpt>
      <trkpt lat="53.344138003885746" lon="-6.266970969736576">
        <ele>11.67</ele>
        <time>2026-07-09T15:53:59Z</time>
      </trkpt>
      <trkpt lat="53.343939017504454" lon="-6.267014974728227">
        <ele>-2.75</ele>
        <time>2026-07-09T17:04:26Z</time>
      </trkpt>
      <trkpt lat="53.344034990295768" lon="-6.266950014978647">
        <ele>16</ele>
        <time>2026-07-09T17:04:51Z</time>
      </trkpt>
      <trkpt lat="53.344031972810626" lon="-6.266965018585324">
        <ele>18.399999999999999</ele>
        <time>2026-07-09T17:05:24Z</time>
      </trkpt>
      <trkpt lat="53.344084024429321" lon="-6.266907015815377">
        <ele>14.56</ele>
        <time>2026-07-09T17:05:51Z</time>
      </trkpt>
      <trkpt lat="53.344090981408954" lon="-6.266894023865461">
        <ele>13.119999999999999</ele>
        <time>2026-07-09T17:06:17Z</time>
      </trkpt>
      <trkpt lat="53.34412501193583" lon="-6.267112959176302">
        <ele>13.6</ele>
        <time>2026-07-09T17:06:24Z</time>
      </trkpt>
      <trkpt lat="53.344115037471056" lon="-6.267224019393325">
        <ele>13.6</ele>
        <time>2026-07-09T17:06:25Z</time>
      </trkpt>
      <trkpt lat="53.34410497918725" lon="-6.2673410307616">
        <ele>14.08</ele>
        <time>2026-07-09T17:06:26Z</time>
      </trkpt>
      <trkpt lat="53.344067009165883" lon="-6.267726011574268">
        <ele>14.08</ele>
        <time>2026-07-09T17:06:31Z</time>
      </trkpt>
      <trkpt lat="53.343949997797608" lon="-6.268316013738513">
        <ele>15.039999999999999</ele>
        <time>2026-07-09T17:06:37Z</time>
      </trkpt>
      <trkpt lat="53.343930970877409" lon="-6.268405029550195">
        <ele>15.039999999999999</ele>
        <time>2026-07-09T17:06:38Z</time>
      </trkpt>
      <trkpt lat="53.343914039433002" lon="-6.268488010391593">
        <ele>15.039999999999999</ele>
        <time>2026-07-09T17:06:39Z</time>
      </trkpt>
      <trkpt lat="53.343858970329165" lon="-6.268815994262695">
        <ele>16.48</ele>
        <time>2026-07-09T17:06:46Z</time>
      </trkpt>
      <trkpt lat="53.343858970329165" lon="-6.268815994262695">
        <ele>16.960000000000001</ele>
        <time>2026-07-09T17:07:01Z</time>
      </trkpt>
      <trkpt lat="53.343784958124161" lon="-6.269178008660674">
        <ele>17.920000000000002</ele>
        <time>2026-07-09T17:07:10Z</time>
      </trkpt>
      <trkpt lat="53.343644980341196" lon="-6.269867001101375">
        <ele>17.920000000000002</ele>
        <time>2026-07-09T17:07:17Z</time>
      </trkpt>
      <trkpt lat="53.343620002269745" lon="-6.269930033013225">
        <ele>18.399999999999999</ele>
        <time>2026-07-09T17:07:18Z</time>
      </trkpt>
      <trkpt lat="53.343591000884771" lon="-6.270002033561468">
        <ele>18.399999999999999</ele>
        <time>2026-07-09T17:07:19Z</time>
      </trkpt>
      <trkpt lat="53.343558982014656" lon="-6.270081996917725">
        <ele>18.879999999999999</ele>
        <time>2026-07-09T17:07:20Z</time>
      </trkpt>
      <trkpt lat="53.343526041135192" lon="-6.270106974989176">
        <ele>19.359999999999999</ele>
        <time>2026-07-09T17:07:21Z</time>
      </trkpt>
      <trkpt lat="53.343482036143541" lon="-6.270141005516052">
        <ele>19.359999999999999</ele>
        <time>2026-07-09T17:07:22Z</time>
      </trkpt>
      <trkpt lat="53.343336023390293" lon="-6.270252987742424">
        <ele>19.84</ele>
        <time>2026-07-09T17:07:25Z</time>
      </trkpt>
      <trkpt lat="53.343237033113837" lon="-6.270124996080995">
        <ele>19.84</ele>
        <time>2026-07-09T17:07:26Z</time>
      </trkpt>
      <trkpt lat="53.343237033113837" lon="-6.270124996080995">
        <ele>19.84</ele>
        <time>2026-07-09T17:07:27Z</time>
      </trkpt>
      <trkpt lat="53.343224041163921" lon="-6.270085014402866">
        <ele>19.84</ele>
        <time>2026-07-09T17:07:33Z</time>
      </trkpt>
      <trkpt lat="53.343208031728864" lon="-6.270037991926074">
        <ele>20.32</ele>
        <time>2026-07-09T17:07:34Z</time>
      </trkpt>
      <trkpt lat="53.343172995373607" lon="-6.269931960850954">
        <ele>20.809999999999999</ele>
        <time>2026-07-09T17:07:36Z</time>
      </trkpt>
      <trkpt lat="53.343066964298487" lon="-6.269897008314729">
        <ele>21.289999999999999</ele>
        <time>2026-07-09T17:07:37Z</time>
      </trkpt>
      <trkpt lat="53.343043997883797" lon="-6.269888961687684">
        <ele>21.77</ele>
        <time>2026-07-09T17:07:39Z</time>
      </trkpt>
      <trkpt lat="53.342658011242747" lon="-6.269872030243278">
        <ele>23.690000000000001</ele>
        <time>2026-07-09T17:07:44Z</time>
      </trkpt>
      <trkpt lat="53.342593973502517" lon="-6.269869012758136">
        <ele>24.170000000000002</ele>
        <time>2026-07-09T17:07:45Z</time>
      </trkpt>
      <trkpt lat="53.341789981350303" lon="-6.270047966390848">
        <ele>25.129999999999999</ele>
        <time>2026-07-09T17:07:56Z</time>
      </trkpt>
      <trkpt lat="53.341738013550639" lon="-6.270051989704371">
        <ele>24.649999999999999</ele>
        <time>2026-07-09T17:07:57Z</time>
      </trkpt>
      <trkpt lat="53.341738013550639" lon="-6.270051989704371">
        <ele>24.649999999999999</ele>
        <time>2026-07-09T17:07:58Z</time>
      </trkpt>
      <trkpt lat="53.341738013550639" lon="-6.270051989704371">
        <ele>25.129999999999999</ele>
        <time>2026-07-09T17:08:10Z</time>
      </trkpt>
      <trkpt lat="53.34167598746717" lon="-6.270058024674654">
        <ele>24.649999999999999</ele>
        <time>2026-07-09T17:08:22Z</time>
      </trkpt>
      <trkpt lat="53.341166032478213" lon="-6.270060958340764">
        <ele>26.57</ele>
        <time>2026-07-09T17:08:29Z</time>
      </trkpt>
      <trkpt lat="53.341038962826133" lon="-6.270060958340764">
        <ele>28.02</ele>
        <time>2026-07-09T17:08:32Z</time>
      </trkpt>
      <trkpt lat="53.340764036402106" lon="-6.270060958340764">
        <ele>28.5</ele>
        <time>2026-07-09T17:08:41Z</time>
      </trkpt>
      <trkpt lat="53.340764036402106" lon="-6.270060958340764">
        <ele>27.530000000000001</ele>
        <time>2026-07-09T17:09:19Z</time>
      </trkpt>
      <trkpt lat="53.340597990900278" lon="-6.270060958340764">
        <ele>27.050000000000001</ele>
        <time>2026-07-09T17:09:24Z</time>
      </trkpt>
      <trkpt lat="53.340574018657207" lon="-6.270051989704371">
        <ele>27.050000000000001</ele>
        <time>2026-07-09T17:09:25Z</time>
      </trkpt>
      <trkpt lat="53.340592961758375" lon="-6.269955011084676">
        <ele>27.050000000000001</ele>
        <time>2026-07-09T17:09:26Z</time>
      </trkpt>
      <trkpt lat="53.340588016435504" lon="-6.26906200312078">
        <ele>27.530000000000001</ele>
        <time>2026-07-09T17:09:34Z</time>
      </trkpt>
      <trkpt lat="53.340603020042181" lon="-6.268929988145828">
        <ele>27.530000000000001</ele>
        <time>2026-07-09T17:09:35Z</time>
      </trkpt>
      <trkpt lat="53.340810975059867" lon="-6.267712013795972">
        <ele>27.050000000000001</ele>
        <time>2026-07-09T17:09:45Z</time>
      </trkpt>
      <trkpt lat="53.340832013636827" lon="-6.267593996599317">
        <ele>26.57</ele>
        <time>2026-07-09T17:09:46Z</time>
      </trkpt>
      <trkpt lat="53.340852968394756" lon="-6.267477991059423">
        <ele>26.57</ele>
        <time>2026-07-09T17:09:47Z</time>
      </trkpt>
      <trkpt lat="53.340885993093252" lon="-6.267381012439728">
        <ele>26.09</ele>
        <time>2026-07-09T17:09:48Z</time>
      </trkpt>
      <trkpt lat="53.340924968943" lon="-6.267274981364608">
        <ele>26.09</ele>
        <time>2026-07-09T17:09:49Z</time>
      </trkpt>
      <trkpt lat="53.340964028611779" lon="-6.267168028280139">
        <ele>25.609999999999999</ele>
        <time>2026-07-09T17:09:50Z</time>
      </trkpt>
      <trkpt lat="53.341005016118288" lon="-6.267056968063116">
        <ele>25.129999999999999</ele>
        <time>2026-07-09T17:09:51Z</time>
      </trkpt>
      <trkpt lat="53.341277008876204" lon="-6.266644997522235">
        <ele>23.210000000000001</ele>
        <time>2026-07-09T17:09:56Z</time>
      </trkpt>
      <trkpt lat="53.34133299998939" lon="-6.266564028337598">
        <ele>22.73</ele>
        <time>2026-07-09T17:09:57Z</time>
      </trkpt>
      <trkpt lat="53.341483036056161" lon="-6.266203019768">
        <ele>19.84</ele>
        <time>2026-07-09T17:10:01Z</time>
      </trkpt>
      <trkpt lat="53.341502984985709" lon="-6.266128001734614">
        <ele>19.359999999999999</ele>
        <time>2026-07-09T17:10:02Z</time>
      </trkpt>
      <trkpt lat="53.341512959450483" lon="-6.266062958166003">
        <ele>19.359999999999999</ele>
        <time>2026-07-09T17:10:03Z</time>
      </trkpt>
      <trkpt lat="53.341526035219431" lon="-6.265980983152986">
        <ele>18.399999999999999</ele>
        <time>2026-07-09T17:10:12Z</time>
      </trkpt>
      <trkpt lat="53.341526035219431" lon="-6.265980983152986">
        <ele>18.399999999999999</ele>
        <time>2026-07-09T17:10:58Z</time>
      </trkpt>
      <trkpt lat="53.341522011905909" lon="-6.265722988173366">
        <ele>17.920000000000002</ele>
        <time>2026-07-09T17:11:23Z</time>
      </trkpt>
      <trkpt lat="53.341529974713922" lon="-6.265329038724303">
        <ele>16.48</ele>
        <time>2026-07-09T17:11:28Z</time>
      </trkpt>
      <trkpt lat="53.34156802855432" lon="-6.265288973227143">
        <ele>16</ele>
        <time>2026-07-09T17:11:29Z</time>
      </trkpt>
      <trkpt lat="53.341823006048799" lon="-6.265027038753033">
        <ele>15.039999999999999</ele>
        <time>2026-07-09T17:11:33Z</time>
      </trkpt>
      <trkpt lat="53.341906992718577" lon="-6.264940034598112">
        <ele>14.56</ele>
        <time>2026-07-09T17:11:35Z</time>
      </trkpt>
      <trkpt lat="53.341946974396706" lon="-6.264898041263223">
        <ele>14.08</ele>
        <time>2026-07-09T17:11:36Z</time>
      </trkpt>
      <trkpt lat="53.341988967731595" lon="-6.264854958280921">
        <ele>13.6</ele>
        <time>2026-07-09T17:11:38Z</time>
      </trkpt>
      <trkpt lat="53.342300020158291" lon="-6.264609033241868">
        <ele>14.56</ele>
        <time>2026-07-09T17:11:46Z</time>
      </trkpt>
      <trkpt lat="53.34238501265645" lon="-6.264562010765076">
        <ele>14.56</ele>
        <time>2026-07-09T17:11:48Z</time>
      </trkpt>
      <trkpt lat="53.342444021254778" lon="-6.26452898606658">
        <ele>15.52</ele>
        <time>2026-07-09T17:11:50Z</time>
      </trkpt>
      <trkpt lat="53.342459024861455" lon="-6.264521023258567">
        <ele>15.52</ele>
        <time>2026-07-09T17:11:51Z</time>
      </trkpt>
      <trkpt lat="53.342459024861455" lon="-6.264521023258567">
        <ele>15.52</ele>
        <time>2026-07-09T17:11:52Z</time>
      </trkpt>
      <trkpt lat="53.342554997652769" lon="-6.264479029923677">
        <ele>15.52</ele>
        <time>2026-07-09T17:12:01Z</time>
      </trkpt>
      <trkpt lat="53.342639990150928" lon="-6.264470983296633">
        <ele>15.52</ele>
        <time>2026-07-09T17:12:03Z</time>
      </trkpt>
      <trkpt lat="53.343022037297487" lon="-6.264351960271597">
        <ele>15.52</ele>
        <time>2026-07-09T17:12:10Z</time>
      </trkpt>
      <trkpt lat="53.343022037297487" lon="-6.264282977208495">
        <ele>15.039999999999999</ele>
        <time>2026-07-09T17:12:11Z</time>
      </trkpt>
      <trkpt lat="53.343024970963597" lon="-6.263620974496007">
        <ele>14.56</ele>
        <time>2026-07-09T17:12:22Z</time>
      </trkpt>
      <trkpt lat="53.343027988448739" lon="-6.263487031683326">
        <ele>14.56</ele>
        <time>2026-07-09T17:12:24Z</time>
      </trkpt>
      <trkpt lat="53.343043997883797" lon="-6.262582037597895">
        <ele>15.039999999999999</ele>
        <time>2026-07-09T17:12:36Z</time>
      </trkpt>
      <trkpt lat="53.343043997883797" lon="-6.262258999049664">
        <ele>16</ele>
        <time>2026-07-09T17:12:47Z</time>
      </trkpt>
      <trkpt lat="53.343038968741894" lon="-6.261931015178561">
        <ele>16</ele>
        <time>2026-07-09T17:13:00Z</time>
      </trkpt>
      <trkpt lat="53.343017008155584" lon="-6.261419970542193">
        <ele>16.48</ele>
        <time>2026-07-09T17:13:12Z</time>
      </trkpt>
      <trkpt lat="53.343017008155584" lon="-6.261419970542193">
        <ele>17.920000000000002</ele>
        <time>2026-07-09T17:13:24Z</time>
      </trkpt>
      <trkpt lat="53.343017008155584" lon="-6.261419970542193">
        <ele>17.440000000000001</ele>
        <time>2026-07-09T17:13:41Z</time>
      </trkpt>
      <trkpt lat="53.343017008155584" lon="-6.261419970542193">
        <ele>17.920000000000002</ele>
        <time>2026-07-09T17:14:08Z</time>
      </trkpt>
      <trkpt lat="53.343034023419023" lon="-6.261208998039365">
        <ele>17.440000000000001</ele>
        <time>2026-07-09T17:38:41Z</time>
      </trkpt>
      <trkpt lat="53.343039974570274" lon="-6.26119701191783">
        <ele>19.359999999999999</ele>
        <time>2026-07-09T17:39:11Z</time>
      </trkpt>
      <trkpt lat="53.343041986227036" lon="-6.261212015524507">
        <ele>16.960000000000001</ele>
        <time>2026-07-09T17:39:49Z</time>
      </trkpt>
      <trkpt lat="53.343061013147235" lon="-6.261225007474423">
        <ele>20.32</ele>
        <time>2026-07-09T17:40:27Z</time>
      </trkpt>
      <trkpt lat="53.343063024803996" lon="-6.261222995817661">
        <ele>20.809999999999999</ele>
        <time>2026-07-09T17:41:01Z</time>
      </trkpt>
      <trkpt lat="53.342995969578624" lon="-6.261072037741542">
        <ele>19.84</ele>
        <time>2026-07-09T17:41:08Z</time>
      </trkpt>
      <trkpt lat="53.342976020649076" lon="-6.261003976687789">
        <ele>19.359999999999999</ele>
        <time>2026-07-09T17:41:09Z</time>
      </trkpt>
      <trkpt lat="53.342960011214018" lon="-6.260945973917842">
        <ele>19.359999999999999</ele>
        <time>2026-07-09T17:41:10Z</time>
      </trkpt>
      <trkpt lat="53.342862026765943" lon="-6.260668030008674">
        <ele>18.399999999999999</ele>
        <time>2026-07-09T17:41:17Z</time>
      </trkpt>
      <trkpt lat="53.342830007895827" lon="-6.260656965896487">
        <ele>18.399999999999999</ele>
        <time>2026-07-09T17:41:18Z</time>
      </trkpt>
      <trkpt lat="53.342760019004345" lon="-6.260713962838054">
        <ele>18.399999999999999</ele>
        <time>2026-07-09T17:41:20Z</time>
      </trkpt>
      <trkpt lat="53.342625992372632" lon="-6.260828962549567">
        <ele>17.920000000000002</ele>
        <time>2026-07-09T17:41:23Z</time>
      </trkpt>
      <trkpt lat="53.342577964067459" lon="-6.260871039703488">
        <ele>17.920000000000002</ele>
        <time>2026-07-09T17:41:24Z</time>
      </trkpt>
      <trkpt lat="53.342527002096176" lon="-6.260913033038378">
        <ele>17.440000000000001</ele>
        <time>2026-07-09T17:41:25Z</time>
      </trkpt>
      <trkpt lat="53.341830968856812" lon="-6.261501023545861">
        <ele>18.879999999999999</ele>
        <time>2026-07-09T17:41:37Z</time>
      </trkpt>
      <trkpt lat="53.341767014935613" lon="-6.261556008830667">
        <ele>18.879999999999999</ele>
        <time>2026-07-09T17:41:38Z</time>
      </trkpt>
      <trkpt lat="53.341644974425435" lon="-6.261675031855702">
        <ele>19.359999999999999</ele>
        <time>2026-07-09T17:41:40Z</time>
      </trkpt>
      <trkpt lat="53.341584959998727" lon="-6.261734962463379">
        <ele>19.359999999999999</ele>
        <time>2026-07-09T17:41:41Z</time>
      </trkpt>
      <trkpt lat="53.341253958642483" lon="-6.262073004618287">
        <ele>20.809999999999999</ele>
        <time>2026-07-09T17:41:50Z</time>
      </trkpt>
      <trkpt lat="53.341241972520947" lon="-6.262085996568203">
        <ele>21.289999999999999</ele>
        <time>2026-07-09T17:41:51Z</time>
      </trkpt>
      <trkpt lat="53.341241972520947" lon="-6.262085996568203">
        <ele>21.77</ele>
        <time>2026-07-09T17:41:53Z</time>
      </trkpt>
      <trkpt lat="53.34122302941978" lon="-6.262106029316783">
        <ele>22.73</ele>
        <time>2026-07-09T17:41:54Z</time>
      </trkpt>
      <trkpt lat="53.341135019436479" lon="-6.262197978794575">
        <ele>27.530000000000001</ele>
        <time>2026-07-09T17:42:06Z</time>
      </trkpt>
      <trkpt lat="53.34103100001812" lon="-6.262562004849315">
        <ele>26.57</ele>
        <time>2026-07-09T17:42:19Z</time>
      </trkpt>
      <trkpt lat="53.341048015281558" lon="-6.262638028711081">
        <ele>26.57</ele>
        <time>2026-07-09T17:42:23Z</time>
      </trkpt>
      <trkpt lat="53.341055978089571" lon="-6.262673987075687">
        <ele>26.09</ele>
        <time>2026-07-09T17:42:24Z</time>
      </trkpt>
      <trkpt lat="53.341061007231474" lon="-6.262696031481028">
        <ele>26.09</ele>
        <time>2026-07-09T17:42:25Z</time>
      </trkpt>
      <trkpt lat="53.341105012223125" lon="-6.262878002598882">
        <ele>23.210000000000001</ele>
        <time>2026-07-09T17:42:39Z</time>
      </trkpt>
      <trkpt lat="53.341105012223125" lon="-6.262878002598882">
        <ele>23.210000000000001</ele>
        <time>2026-07-09T17:42:40Z</time>
      </trkpt>
      <trkpt lat="53.341124039143324" lon="-6.262940028682351">
        <ele>22.73</ele>
        <time>2026-07-09T17:42:50Z</time>
      </trkpt>
      <trkpt lat="53.341133007779717" lon="-6.262970035895705">
        <ele>22.25</ele>
        <time>2026-07-09T17:42:51Z</time>
      </trkpt>
      <trkpt lat="53.34113996475935" lon="-6.263245968148112">
        <ele>19.84</ele>
        <time>2026-07-09T17:42:59Z</time>
      </trkpt>
      <trkpt lat="53.341122027486563" lon="-6.26326197758317">
        <ele>19.359999999999999</ele>
        <time>2026-07-09T17:43:00Z</time>
      </trkpt>
      <trkpt lat="53.341108029708266" lon="-6.263274969533086">
        <ele>18.879999999999999</ele>
        <time>2026-07-09T17:43:01Z</time>
      </trkpt>
      <trkpt lat="53.341062013059855" lon="-6.263315035030246">
        <ele>17.920000000000002</ele>
        <time>2026-07-09T17:43:16Z</time>
      </trkpt>
      <trkpt lat="53.340771999210119" lon="-6.263412013649941">
        <ele>16.960000000000001</ele>
        <time>2026-07-09T17:43:25Z</time>
      </trkpt>
      <trkpt lat="53.340694969519973" lon="-6.263425005599856">
        <ele>16.960000000000001</ele>
        <time>2026-07-09T17:43:26Z</time>
      </trkpt>
      <trkpt lat="53.340621041134" lon="-6.263458030298352">
        <ele>16.960000000000001</ele>
        <time>2026-07-09T17:43:27Z</time>
      </trkpt>
      <trkpt lat="53.340448038652539" lon="-6.263559032231569">
        <ele>16.960000000000001</ele>
        <time>2026-07-09T17:43:30Z</time>
      </trkpt>
      <trkpt lat="53.340361034497619" lon="-6.263628015294671">
        <ele>16.960000000000001</ele>
        <time>2026-07-09T17:43:32Z</time>
      </trkpt>
      <trkpt lat="53.340333038941026" lon="-6.263678977265954">
        <ele>16.48</ele>
        <time>2026-07-09T17:43:33Z</time>
      </trkpt>
      <trkpt lat="53.340318035334349" lon="-6.263757012784481">
        <ele>16.48</ele>
        <time>2026-07-09T17:43:34Z</time>
      </trkpt>
      <trkpt lat="53.340313006192446" lon="-6.263882992789149">
        <ele>16.48</ele>
        <time>2026-07-09T17:43:35Z</time>
      </trkpt>
      <trkpt lat="53.340351982042193" lon="-6.263944013044238">
        <ele>16.48</ele>
        <time>2026-07-09T17:43:36Z</time>
      </trkpt>
      <trkpt lat="53.340392969548702" lon="-6.264008972793818">
        <ele>16</ele>
        <time>2026-07-09T17:43:37Z</time>
      </trkpt>
      <trkpt lat="53.340436974540353" lon="-6.26407602801919">
        <ele>15.52</ele>
        <time>2026-07-09T17:43:38Z</time>
      </trkpt>
      <trkpt lat="53.340480979532003" lon="-6.264146016910672">
        <ele>15.039999999999999</ele>
        <time>2026-07-09T17:43:39Z</time>
      </trkpt>
      <trkpt lat="53.340514004230499" lon="-6.264237966388464">
        <ele>15.039999999999999</ele>
        <time>2026-07-09T17:43:40Z</time>
      </trkpt>
      <trkpt lat="53.340607965365052" lon="-6.264630993828178">
        <ele>15.52</ele>
        <time>2026-07-09T17:43:45Z</time>
      </trkpt>
      <trkpt lat="53.340617017820477" lon="-6.264716992154717">
        <ele>15.52</ele>
        <time>2026-07-09T17:43:46Z</time>
      </trkpt>
      <trkpt lat="53.340625986456871" lon="-6.264801984652877">
        <ele>15.52</ele>
        <time>2026-07-09T17:43:47Z</time>
      </trkpt>
      <trkpt lat="53.340633027255535" lon="-6.264875996857882">
        <ele>16</ele>
        <time>2026-07-09T17:43:48Z</time>
      </trkpt>
      <trkpt lat="53.340638978406787" lon="-6.264935005456209">
        <ele>16</ele>
        <time>2026-07-09T17:43:49Z</time>
      </trkpt>
      <trkpt lat="53.340640990063548" lon="-6.264954032376409">
        <ele>16</ele>
        <time>2026-07-09T17:43:50Z</time>
      </trkpt>
      <trkpt lat="53.340640990063548" lon="-6.264954032376409">
        <ele>16.48</ele>
        <time>2026-07-09T17:43:51Z</time>
      </trkpt>
      <trkpt lat="53.340640990063548" lon="-6.264954032376409">
        <ele>17.920000000000002</ele>
        <time>2026-07-09T17:44:01Z</time>
      </trkpt>
      <trkpt lat="53.340640990063548" lon="-6.264954032376409">
        <ele>17.920000000000002</ele>
        <time>2026-07-09T17:44:31Z</time>
      </trkpt>
      <trkpt lat="53.340662028640509" lon="-6.265360973775387">
        <ele>19.359999999999999</ele>
        <time>2026-07-09T17:45:00Z</time>
      </trkpt>
      <trkpt lat="53.340727994218469" lon="-6.266095982864499">
        <ele>18.879999999999999</ele>
        <time>2026-07-09T17:45:07Z</time>
      </trkpt>
      <trkpt lat="53.340751966461539" lon="-6.266463026404381">
        <ele>18.879999999999999</ele>
        <time>2026-07-09T17:45:10Z</time>
      </trkpt>
      <trkpt lat="53.340783985331655" lon="-6.266829986125231">
        <ele>19.359999999999999</ele>
        <time>2026-07-09T17:45:14Z</time>
      </trkpt>
      <trkpt lat="53.340789014473557" lon="-6.26689100638032">
        <ele>19.359999999999999</ele>
        <time>2026-07-09T17:45:15Z</time>
      </trkpt>
      <trkpt lat="53.340793959796429" lon="-6.266944985836744">
        <ele>19.359999999999999</ele>
        <time>2026-07-09T17:45:16Z</time>
      </trkpt>
      <trkpt lat="53.340797983109951" lon="-6.26700097694993">
        <ele>18.879999999999999</ele>
        <time>2026-07-09T17:45:17Z</time>
      </trkpt>
      <trkpt lat="53.340803012251854" lon="-6.267055040225387">
        <ele>18.879999999999999</ele>
        <time>2026-07-09T17:45:18Z</time>
      </trkpt>
      <trkpt lat="53.340828996151686" lon="-6.267282022163272">
        <ele>18.879999999999999</ele>
        <time>2026-07-09T17:45:21Z</time>
      </trkpt>
      <trkpt lat="53.340854980051517" lon="-6.267463993281126">
        <ele>18.879999999999999</ele>
        <time>2026-07-09T17:45:22Z</time>
      </trkpt>
      <trkpt lat="53.340705027803779" lon="-6.268301010131836">
        <ele>19.359999999999999</ele>
        <time>2026-07-09T17:45:30Z</time>
      </trkpt>
      <trkpt lat="53.340662028640509" lon="-6.268430007621646">
        <ele>19.359999999999999</ele>
        <time>2026-07-09T17:45:31Z</time>
      </trkpt>
      <trkpt lat="53.340612994506955" lon="-6.268849018961191">
        <ele>21.289999999999999</ele>
        <time>2026-07-09T17:45:36Z</time>
      </trkpt>
      <trkpt lat="53.3406020142138" lon="-6.268943985924125">
        <ele>21.77</ele>
        <time>2026-07-09T17:45:37Z</time>
      </trkpt>
      <trkpt lat="53.340576030313969" lon="-6.269158981740475">
        <ele>21.77</ele>
        <time>2026-07-09T17:45:38Z</time>
      </trkpt>
      <trkpt lat="53.340576030313969" lon="-6.269158981740475">
        <ele>22.25</ele>
        <time>2026-07-09T17:45:39Z</time>
      </trkpt>
      <trkpt lat="53.340576030313969" lon="-6.269181026145816">
        <ele>22.25</ele>
        <time>2026-07-09T17:45:40Z</time>
      </trkpt>
      <trkpt lat="53.340576030313969" lon="-6.269230982288718">
        <ele>22.25</ele>
        <time>2026-07-09T17:45:41Z</time>
      </trkpt>
      <trkpt lat="53.340576030313969" lon="-6.269268030300736">
        <ele>22.25</ele>
        <time>2026-07-09T17:45:42Z</time>
      </trkpt>
      <trkpt lat="53.340576030313969" lon="-6.269268030300736">
        <ele>22.25</ele>
        <time>2026-07-09T17:45:54Z</time>
      </trkpt>
      <trkpt lat="53.340582987293601" lon="-6.269703973084688">
        <ele>23.690000000000001</ele>
        <time>2026-07-09T17:46:04Z</time>
      </trkpt>
      <trkpt lat="53.340590028092265" lon="-6.269879993051291">
        <ele>25.609999999999999</ele>
        <time>2026-07-09T17:46:06Z</time>
      </trkpt>
      <trkpt lat="53.340593967586756" lon="-6.269959034398198">
        <ele>26.57</ele>
        <time>2026-07-09T17:46:07Z</time>
      </trkpt>
      <trkpt lat="53.340597990900278" lon="-6.270060958340764">
        <ele>27.530000000000001</ele>
        <time>2026-07-09T17:46:08Z</time>
      </trkpt>
      <trkpt lat="53.340694969519973" lon="-6.270060958340764">
        <ele>28.5</ele>
        <time>2026-07-09T17:46:09Z</time>
      </trkpt>
      <trkpt lat="53.340735035017133" lon="-6.270060958340764">
        <ele>29.460000000000001</ele>
        <time>2026-07-09T17:46:10Z</time>
      </trkpt>
      <trkpt lat="53.340780967846513" lon="-6.270060958340764">
        <ele>30.899999999999999</ele>
        <time>2026-07-09T17:46:11Z</time>
      </trkpt>
      <trkpt lat="53.340824972838163" lon="-6.270060958340764">
        <ele>32.340000000000003</ele>
        <time>2026-07-09T17:46:12Z</time>
      </trkpt>
      <trkpt lat="53.340869983658195" lon="-6.270060958340764">
        <ele>33.780000000000001</ele>
        <time>2026-07-09T17:46:13Z</time>
      </trkpt>
      <trkpt lat="53.341003004461527" lon="-6.270060958340764">
        <ele>38.109999999999999</ele>
        <time>2026-07-09T17:46:16Z</time>
      </trkpt>
      <trkpt lat="53.341087996959686" lon="-6.270060958340764">
        <ele>40.990000000000002</ele>
        <time>2026-07-09T17:46:18Z</time>
      </trkpt>
      <trkpt lat="53.341125966981053" lon="-6.270060958340764">
        <ele>42.439999999999998</ele>
        <time>2026-07-09T17:46:19Z</time>
      </trkpt>
      <trkpt lat="53.341156980022788" lon="-6.270060958340764">
        <ele>43.880000000000003</ele>
        <time>2026-07-09T17:46:20Z</time>
      </trkpt>
      <trkpt lat="53.341178018599749" lon="-6.270060958340764">
        <ele>45.32</ele>
        <time>2026-07-09T17:46:21Z</time>
      </trkpt>
      <trkpt lat="53.341178018599749" lon="-6.270060958340764">
        <ele>46.280000000000001</ele>
        <time>2026-07-09T17:46:22Z</time>
      </trkpt>
      <trkpt lat="53.341178018599749" lon="-6.270060958340764">
        <ele>47.719999999999999</ele>
        <time>2026-07-09T17:46:38Z</time>
      </trkpt>
      <trkpt lat="53.341323025524616" lon="-6.270060958340764">
        <ele>53.490000000000002</ele>
        <time>2026-07-09T17:47:05Z</time>
      </trkpt>
      <trkpt lat="53.341358983889222" lon="-6.270060958340764">
        <ele>53.490000000000002</ele>
        <time>2026-07-09T17:47:06Z</time>
      </trkpt>
      <trkpt lat="53.341478006914258" lon="-6.270141005516052">
        <ele>53.490000000000002</ele>
        <time>2026-07-09T17:47:07Z</time>
      </trkpt>
      <trkpt lat="53.341478006914258" lon="-6.270232032984495">
        <ele>53.009999999999998</ele>
        <time>2026-07-09T17:47:08Z</time>
      </trkpt>
      <trkpt lat="53.341478006914258" lon="-6.270346026867628">
        <ele>52.530000000000001</ele>
        <time>2026-07-09T17:47:09Z</time>
      </trkpt>
      <trkpt lat="53.341478006914258" lon="-6.270487010478973">
        <ele>52.049999999999997</ele>
        <time>2026-07-09T17:47:10Z</time>
      </trkpt>
      <trkpt lat="53.341497033834457" lon="-6.271526031196117">
        <ele>46.280000000000001</ele>
        <time>2026-07-09T17:47:18Z</time>
      </trkpt>
      <trkpt lat="53.341498961672187" lon="-6.271684030070901">
        <ele>44.840000000000003</ele>
        <time>2026-07-09T17:47:20Z</time>
      </trkpt>
      <trkpt lat="53.341498961672187" lon="-6.271757036447525">
        <ele>43.880000000000003</ele>
        <time>2026-07-09T17:47:21Z</time>
      </trkpt>
      <trkpt lat="53.341498961672187" lon="-6.271821996197105">
        <ele>42.920000000000002</ele>
        <time>2026-07-09T17:47:22Z</time>
      </trkpt>
      <trkpt lat="53.341498961672187" lon="-6.271866001188755">
        <ele>42.439999999999998</ele>
        <time>2026-07-09T17:47:23Z</time>
      </trkpt>
      <trkpt lat="53.341498961672187" lon="-6.272108992561698">
        <ele>37.630000000000003</ele>
        <time>2026-07-09T17:47:30Z</time>
      </trkpt>
      <trkpt lat="53.341498961672187" lon="-6.272246036678553">
        <ele>36.189999999999998</ele>
        <time>2026-07-09T17:47:32Z</time>
      </trkpt>
      <trkpt lat="53.341605998575687" lon="-6.272347960621119">
        <ele>35.710000000000001</ele>
        <time>2026-07-09T17:47:33Z</time>
      </trkpt>
      <trkpt lat="53.341646986082196" lon="-6.272353995591402">
        <ele>35.710000000000001</ele>
        <time>2026-07-09T17:47:34Z</time>
      </trkpt>
      <trkpt lat="53.341693002730608" lon="-6.272357013076544">
        <ele>35.710000000000001</ele>
        <time>2026-07-09T17:47:35Z</time>
      </trkpt>
      <trkpt lat="53.341736001893878" lon="-6.272357013076544">
        <ele>35.229999999999997</ele>
        <time>2026-07-09T17:47:36Z</time>
      </trkpt>
      <trkpt lat="53.341780006885529" lon="-6.272357013076544">
        <ele>35.229999999999997</ele>
        <time>2026-07-09T17:47:37Z</time>
      </trkpt>
      <trkpt lat="53.341817976906896" lon="-6.272357013076544">
        <ele>35.229999999999997</ele>
        <time>2026-07-09T17:47:38Z</time>
      </trkpt>
      <trkpt lat="53.341967007145286" lon="-6.272351983934641">
        <ele>35.710000000000001</ele>
        <time>2026-07-09T17:47:42Z</time>
      </trkpt>
      <trkpt lat="53.342011012136936" lon="-6.272348966449499">
        <ele>35.710000000000001</ele>
        <time>2026-07-09T17:47:43Z</time>
      </trkpt>
      <trkpt lat="53.342051999643445" lon="-6.272346032783389">
        <ele>35.710000000000001</ele>
        <time>2026-07-09T17:47:44Z</time>
      </trkpt>
      <trkpt lat="53.342086030170321" lon="-6.272344021126628">
        <ele>35.710000000000001</ele>
        <time>2026-07-09T17:47:45Z</time>
      </trkpt>
      <trkpt lat="53.342110002413392" lon="-6.272343015298247">
        <ele>36.189999999999998</ele>
        <time>2026-07-09T17:47:46Z</time>
      </trkpt>
      <trkpt lat="53.34212601184845" lon="-6.272342009469867">
        <ele>36.189999999999998</ele>
        <time>2026-07-09T17:47:47Z</time>
      </trkpt>
      <trkpt lat="53.342156019061804" lon="-6.272339997813106">
        <ele>36.189999999999998</ele>
        <time>2026-07-09T17:47:59Z</time>
      </trkpt>
      <trkpt lat="53.342488026246428" lon="-6.272174036130309">
        <ele>36.189999999999998</ele>
        <time>2026-07-09T17:48:07Z</time>
      </trkpt>
      <trkpt lat="53.342552985996008" lon="-6.272119972854853">
        <ele>35.710000000000001</ele>
        <time>2026-07-09T17:48:08Z</time>
      </trkpt>
      <trkpt lat="53.342661028727889" lon="-6.272031962871552">
        <ele>35.229999999999997</ele>
        <time>2026-07-09T17:48:10Z</time>
      </trkpt>
      <trkpt lat="53.34270603954792" lon="-6.271992987021804">
        <ele>35.229999999999997</ele>
        <time>2026-07-09T17:48:11Z</time>
      </trkpt>
      <trkpt lat="53.342746021226048" lon="-6.271959962323308">
        <ele>35.229999999999997</ele>
        <time>2026-07-09T17:48:12Z</time>
      </trkpt>
      <trkpt lat="53.342970991507173" lon="-6.272100023925304">
        <ele>35.229999999999997</ele>
        <time>2026-07-09T17:48:13Z</time>
      </trkpt>
      <trkpt lat="53.342981971800327" lon="-6.272192979231477">
        <ele>35.229999999999997</ele>
        <time>2026-07-09T17:48:14Z</time>
      </trkpt>
      <trkpt lat="53.342996975407004" lon="-6.272326000034809">
        <ele>35.229999999999997</ele>
        <time>2026-07-09T17:48:15Z</time>
      </trkpt>
      <trkpt lat="53.343024970963597" lon="-6.272487016394734">
        <ele>34.740000000000002</ele>
        <time>2026-07-09T17:48:16Z</time>
      </trkpt>
      <trkpt lat="53.343057995662093" lon="-6.27267200499773">
        <ele>34.259999999999998</ele>
        <time>2026-07-09T17:48:17Z</time>
      </trkpt>
      <trkpt lat="53.343336023390293" lon="-6.274404041469097">
        <ele>29.940000000000001</ele>
        <time>2026-07-09T17:48:28Z</time>
      </trkpt>
      <trkpt lat="53.343343986198306" lon="-6.274480987340212">
        <ele>28.98</ele>
        <time>2026-07-09T17:48:37Z</time>
      </trkpt>
      <trkpt lat="53.343343986198306" lon="-6.274480987340212">
        <ele>28.98</ele>
        <time>2026-07-09T17:49:26Z</time>
      </trkpt>
      <trkpt lat="53.343339040875435" lon="-6.274608979001641">
        <ele>28.98</ele>
        <time>2026-07-09T17:49:40Z</time>
      </trkpt>
      <trkpt lat="53.343332000076771" lon="-6.274771001189947">
        <ele>28.5</ele>
        <time>2026-07-09T17:49:42Z</time>
      </trkpt>
      <trkpt lat="53.343327976763248" lon="-6.274860017001629">
        <ele>28.5</ele>
        <time>2026-07-09T17:49:43Z</time>
      </trkpt>
      <trkpt lat="53.343370975926518" lon="-6.275050034746528">
        <ele>28.5</ele>
        <time>2026-07-09T17:49:44Z</time>
      </trkpt>
      <trkpt lat="53.343417998403311" lon="-6.275124968960881">
        <ele>28.02</ele>
        <time>2026-07-09T17:49:45Z</time>
      </trkpt>
      <trkpt lat="53.343474995344877" lon="-6.275215996429324">
        <ele>28.02</ele>
        <time>2026-07-09T17:49:46Z</time>
      </trkpt>
      <trkpt lat="53.343540960922837" lon="-6.275320015847683">
        <ele>27.530000000000001</ele>
        <time>2026-07-09T17:49:47Z</time>
      </trkpt>
      <trkpt lat="53.343598963692784" lon="-6.275427974760532">
        <ele>27.530000000000001</ele>
        <time>2026-07-09T17:49:48Z</time>
      </trkpt>
      <trkpt lat="53.343752017244697" lon="-6.275768028572202">
        <ele>25.609999999999999</ele>
        <time>2026-07-09T17:49:52Z</time>
      </trkpt>
      <trkpt lat="53.344204975292087" lon="-6.276272032409906">
        <ele>18.879999999999999</ele>
        <time>2026-07-09T17:50:01Z</time>
      </trkpt>
      <trkpt lat="53.344259960576892" lon="-6.2762810010463">
        <ele>17.920000000000002</ele>
        <time>2026-07-09T17:50:03Z</time>
      </trkpt>
      <trkpt lat="53.344302037730813" lon="-6.276287036016583">
        <ele>17.440000000000001</ele>
        <time>2026-07-09T17:50:04Z</time>
      </trkpt>
      <trkpt lat="53.344348976388574" lon="-6.276293992996216">
        <ele>17.440000000000001</ele>
        <time>2026-07-09T17:50:05Z</time>
      </trkpt>
      <trkpt lat="53.344392981380224" lon="-6.27630103379488">
        <ele>16.960000000000001</ele>
        <time>2026-07-09T17:50:06Z</time>
      </trkpt>
      <trkpt lat="53.344429023563862" lon="-6.276299022138119">
        <ele>16.48</ele>
        <time>2026-07-09T17:50:07Z</time>
      </trkpt>
      <trkpt lat="53.344474034383893" lon="-6.276275971904397">
        <ele>16.48</ele>
        <time>2026-07-09T17:50:08Z</time>
      </trkpt>
      <trkpt lat="53.344647958874702" lon="-6.276189973577857">
        <ele>16</ele>
        <time>2026-07-09T17:50:12Z</time>
      </trkpt>
      <trkpt lat="53.344687018543482" lon="-6.276171030476689">
        <ele>16</ele>
        <time>2026-07-09T17:50:13Z</time>
      </trkpt>
      <trkpt lat="53.344821967184544" lon="-6.276113027706742">
        <ele>18.879999999999999</ele>
        <time>2026-07-09T17:50:22Z</time>
      </trkpt>
      <trkpt lat="53.345130002126098" lon="-6.275938013568521">
        <ele>23.210000000000001</ele>
        <time>2026-07-09T17:50:34Z</time>
      </trkpt>
      <trkpt lat="53.345247013494372" lon="-6.275870958343148">
        <ele>22.73</ele>
        <time>2026-07-09T17:50:37Z</time>
      </trkpt>
      <trkpt lat="53.345300992950797" lon="-6.2760029733181">
        <ele>22.73</ele>
        <time>2026-07-09T17:50:38Z</time>
      </trkpt>
      <trkpt lat="53.345317002385855" lon="-6.276089977473021">
        <ele>22.73</ele>
        <time>2026-07-09T17:50:39Z</time>
      </trkpt>
      <trkpt lat="53.345336029306054" lon="-6.276200031861663">
        <ele>22.25</ele>
        <time>2026-07-09T17:50:40Z</time>
      </trkpt>
      <trkpt lat="53.345356984063983" lon="-6.276320982724428">
        <ele>21.289999999999999</ele>
        <time>2026-07-09T17:50:41Z</time>
      </trkpt>
      <trkpt lat="53.345380034297705" lon="-6.276448974385858">
        <ele>20.809999999999999</ele>
        <time>2026-07-09T17:50:42Z</time>
      </trkpt>
      <trkpt lat="53.345626965165138" lon="-6.2776970397681">
        <ele>16.48</ele>
        <time>2026-07-09T17:50:52Z</time>
      </trkpt>
      <trkpt lat="53.345716986805201" lon="-6.278159972280264">
        <ele>15.52</ele>
        <time>2026-07-09T17:50:56Z</time>
      </trkpt>
      <trkpt lat="53.345738025382161" lon="-6.278266003355384">
        <ele>15.52</ele>
        <time>2026-07-09T17:50:57Z</time>
      </trkpt>
      <trkpt lat="53.345755962654948" lon="-6.278361976146698">
        <ele>15.52</ele>
        <time>2026-07-09T17:50:58Z</time>
      </trkpt>
      <trkpt lat="53.34582201205194" lon="-6.278726002201438">
        <ele>15.039999999999999</ele>
        <time>2026-07-09T17:51:05Z</time>
      </trkpt>
      <trkpt lat="53.345835004001856" lon="-6.278804037719965">
        <ele>13.119999999999999</ele>
        <time>2026-07-09T17:51:14Z</time>
      </trkpt>
      <trkpt lat="53.345910022035241" lon="-6.279205027967691">
        <ele>14.56</ele>
        <time>2026-07-09T17:51:20Z</time>
      </trkpt>
      <trkpt lat="53.346049999818206" lon="-6.279923021793366">
        <ele>15.039999999999999</ele>
        <time>2026-07-09T17:51:27Z</time>
      </trkpt>
      <trkpt lat="53.346068020910025" lon="-6.280016982927918">
        <ele>15.52</ele>
        <time>2026-07-09T17:51:28Z</time>
      </trkpt>
      <trkpt lat="53.346083024516702" lon="-6.280098035931587">
        <ele>16</ele>
        <time>2026-07-09T17:51:29Z</time>
      </trkpt>
      <trkpt lat="53.346187965944409" lon="-6.280717961490154">
        <ele>16.960000000000001</ele>
        <time>2026-07-09T17:51:37Z</time>
      </trkpt>
      <trkpt lat="53.346339007839561" lon="-6.282145986333489">
        <ele>16.960000000000001</ele>
        <time>2026-07-09T17:51:46Z</time>
      </trkpt>
      <trkpt lat="53.346353005617857" lon="-6.282282024621964">
        <ele>16.48</ele>
        <time>2026-07-09T17:51:51Z</time>
      </trkpt>
      <trkpt lat="53.346353005617857" lon="-6.282282024621964">
        <ele>16.48</ele>
        <time>2026-07-09T17:52:26Z</time>
      </trkpt>
      <trkpt lat="53.346390975639224" lon="-6.282656025141478">
        <ele>17.920000000000002</ele>
        <time>2026-07-09T17:52:49Z</time>
      </trkpt>
      <trkpt lat="53.346464987844229" lon="-6.28354299813509">
        <ele>17.440000000000001</ele>
        <time>2026-07-09T17:52:54Z</time>
      </trkpt>
      <trkpt lat="53.346479991450906" lon="-6.283722035586834">
        <ele>17.920000000000002</ele>
        <time>2026-07-09T17:52:55Z</time>
      </trkpt>
      <trkpt lat="53.346497006714344" lon="-6.283903000876308">
        <ele>17.920000000000002</ele>
        <time>2026-07-09T17:52:56Z</time>
      </trkpt>
      <trkpt lat="53.346513016149402" lon="-6.284083966165781">
        <ele>17.920000000000002</ele>
        <time>2026-07-09T17:52:57Z</time>
      </trkpt>
      <trkpt lat="53.346523996442556" lon="-6.284265015274286">
        <ele>17.920000000000002</ele>
        <time>2026-07-09T17:52:58Z</time>
      </trkpt>
      <trkpt lat="53.346601026132703" lon="-6.286489991471171">
        <ele>15.039999999999999</ele>
        <time>2026-07-09T17:53:10Z</time>
      </trkpt>
      <trkpt lat="53.346655005589128" lon="-6.28811800852418">
        <ele>14.08</ele>
        <time>2026-07-09T17:53:19Z</time>
      </trkpt>
      <trkpt lat="53.346674032509327" lon="-6.288674985989928">
        <ele>12.630000000000001</ele>
        <time>2026-07-09T17:53:26Z</time>
      </trkpt>
      <trkpt lat="53.346679983660579" lon="-6.288830973207951">
        <ele>12.630000000000001</ele>
        <time>2026-07-09T17:53:28Z</time>
      </trkpt>
      <trkpt lat="53.34668300114572" lon="-6.288931975141168">
        <ele>12.15</ele>
        <time>2026-07-09T17:53:29Z</time>
      </trkpt>
      <trkpt lat="53.346687024459243" lon="-6.289032977074385">
        <ele>12.15</ele>
        <time>2026-07-09T17:53:30Z</time>
      </trkpt>
      <trkpt lat="53.34679096005857" lon="-6.289978958666325">
        <ele>10.710000000000001</ele>
        <time>2026-07-09T17:53:38Z</time>
      </trkpt>
      <trkpt lat="53.346813004463911" lon="-6.290136035531759">
        <ele>10.23</ele>
        <time>2026-07-09T17:53:40Z</time>
      </trkpt>
      <trkpt lat="53.346827002242208" lon="-6.290236031636596">
        <ele>9.75</ele>
        <time>2026-07-09T17:53:47Z</time>
      </trkpt>
      <trkpt lat="53.346827002242208" lon="-6.290236031636596">
        <ele>10.23</ele>
        <time>2026-07-09T17:54:31Z</time>
      </trkpt>
      <trkpt lat="53.346848962828517" lon="-6.290385983884335">
        <ele>10.710000000000001</ele>
        <time>2026-07-09T17:54:37Z</time>
      </trkpt>
      <trkpt lat="53.346915012225509" lon="-6.290776999667287">
        <ele>12.15</ele>
        <time>2026-07-09T17:54:43Z</time>
      </trkpt>
      <trkpt lat="53.346929010003805" lon="-6.290854029357433">
        <ele>12.630000000000001</ele>
        <time>2026-07-09T17:54:44Z</time>
      </trkpt>
      <trkpt lat="53.34694099612534" lon="-6.290922006592155">
        <ele>12.630000000000001</ele>
        <time>2026-07-09T17:54:45Z</time>
      </trkpt>
      <trkpt lat="53.34708902053535" lon="-6.291006999090314">
        <ele>13.119999999999999</ele>
        <time>2026-07-09T17:54:46Z</time>
      </trkpt>
      <trkpt lat="53.347135037183762" lon="-6.290971040725708">
        <ele>13.119999999999999</ele>
        <time>2026-07-09T17:54:47Z</time>
      </trkpt>
      <trkpt lat="53.347185999155045" lon="-6.290929969400168">
        <ele>13.119999999999999</ele>
        <time>2026-07-09T17:54:48Z</time>
      </trkpt>
      <trkpt lat="53.347238972783089" lon="-6.290888981893659">
        <ele>13.6</ele>
        <time>2026-07-09T17:54:49Z</time>
      </trkpt>
      <trkpt lat="53.347351960837841" lon="-6.290813963860273">
        <ele>13.6</ele>
        <time>2026-07-09T17:54:51Z</time>
      </trkpt>
      <trkpt lat="53.347400994971395" lon="-6.290781022980809">
        <ele>13.119999999999999</ele>
        <time>2026-07-09T17:54:52Z</time>
      </trkpt>
      <trkpt lat="53.347518006339669" lon="-6.290859980508685">
        <ele>13.119999999999999</ele>
        <time>2026-07-09T17:54:53Z</time>
      </trkpt>
      <trkpt lat="53.347538039088249" lon="-6.290946984663606">
        <ele>13.119999999999999</ele>
        <time>2026-07-09T17:54:54Z</time>
      </trkpt>
      <trkpt lat="53.347571985796094" lon="-6.291088974103332">
        <ele>13.119999999999999</ele>
        <time>2026-07-09T17:54:55Z</time>
      </trkpt>
      <trkpt lat="53.347601993009448" lon="-6.291187964379787">
        <ele>12.630000000000001</ele>
        <time>2026-07-09T17:54:56Z</time>
      </trkpt>
      <trkpt lat="53.347743982449174" lon="-6.291738990694284">
        <ele>12.15</ele>
        <time>2026-07-09T17:55:00Z</time>
      </trkpt>
      <trkpt lat="53.348025027662516" lon="-6.293214038014412">
        <ele>12.630000000000001</ele>
        <time>2026-07-09T17:55:11Z</time>
      </trkpt>
      <trkpt lat="53.3481449726969" lon="-6.294902991503477">
        <ele>14.08</ele>
        <time>2026-07-09T17:55:22Z</time>
      </trkpt>
      <trkpt lat="53.348151007667184" lon="-6.295578991994262">
        <ele>16</ele>
        <time>2026-07-09T17:55:26Z</time>
      </trkpt>
      <trkpt lat="53.348151007667184" lon="-6.29578803665936">
        <ele>16</ele>
        <time>2026-07-09T17:55:27Z</time>
      </trkpt>
      <trkpt lat="53.348194006830454" lon="-6.297269035130739">
        <ele>19.359999999999999</ele>
        <time>2026-07-09T17:55:36Z</time>
      </trkpt>
      <trkpt lat="53.348194006830454" lon="-6.297430973500013">
        <ele>18.879999999999999</ele>
        <time>2026-07-09T17:55:37Z</time>
      </trkpt>
      <trkpt lat="53.348194006830454" lon="-6.297633983194828">
        <ele>18.879999999999999</ele>
        <time>2026-07-09T17:55:38Z</time>
      </trkpt>
      <trkpt lat="53.348263995721936" lon="-6.300017964094877">
        <ele>20.32</ele>
        <time>2026-07-09T17:55:49Z</time>
      </trkpt>
      <trkpt lat="53.348306994885206" lon="-6.302697993814945">
        <ele>23.210000000000001</ele>
        <time>2026-07-09T17:56:02Z</time>
      </trkpt>
      <trkpt lat="53.348361980170012" lon="-6.305446000769734">
        <ele>20.809999999999999</ele>
        <time>2026-07-09T17:56:15Z</time>
      </trkpt>
      <trkpt lat="53.348327027633786" lon="-6.306732036173344">
        <ele>20.809999999999999</ele>
        <time>2026-07-09T17:56:23Z</time>
      </trkpt>
      <trkpt lat="53.348325015977025" lon="-6.30681099370122">
        <ele>20.809999999999999</ele>
        <time>2026-07-09T17:56:24Z</time>
      </trkpt>
      <trkpt lat="53.3483159635216" lon="-6.307010985910893">
        <ele>19.84</ele>
        <time>2026-07-09T17:56:33Z</time>
      </trkpt>
      <trkpt lat="53.34829400293529" lon="-6.307445000857115">
        <ele>19.84</ele>
        <time>2026-07-09T17:56:43Z</time>
      </trkpt>
      <trkpt lat="53.348286040127277" lon="-6.307643987238407">
        <ele>19.359999999999999</ele>
        <time>2026-07-09T17:56:45Z</time>
      </trkpt>
      <trkpt lat="53.34827003069222" lon="-6.307932995259762">
        <ele>18.879999999999999</ele>
        <time>2026-07-09T17:56:52Z</time>
      </trkpt>
      <trkpt lat="53.34827003069222" lon="-6.307932995259762">
        <ele>18.399999999999999</ele>
        <time>2026-07-09T17:57:42Z</time>
      </trkpt>
      <trkpt lat="53.348254021257162" lon="-6.308140028268099">
        <ele>18.879999999999999</ele>
        <time>2026-07-09T17:58:32Z</time>
      </trkpt>
      <trkpt lat="53.3481639996171" lon="-6.309728985652328">
        <ele>18.399999999999999</ele>
        <time>2026-07-09T17:58:41Z</time>
      </trkpt>
      <trkpt lat="53.347912961617112" lon="-6.312030991539359">
        <ele>14.56</ele>
        <time>2026-07-09T17:58:52Z</time>
      </trkpt>
      <trkpt lat="53.347882032394409" lon="-6.312237018719316">
        <ele>15.039999999999999</ele>
        <time>2026-07-09T17:58:53Z</time>
      </trkpt>
      <trkpt lat="53.347509959712625" lon="-6.314575988799334">
        <ele>16.48</ele>
        <time>2026-07-09T17:59:04Z</time>
      </trkpt>
      <trkpt lat="53.347006039693952" lon="-6.317462967708707">
        <ele>20.32</ele>
        <time>2026-07-09T17:59:16Z</time>
      </trkpt>
      <trkpt lat="53.346645031124353" lon="-6.319892965257168">
        <ele>22.25</ele>
        <time>2026-07-09T17:59:26Z</time>
      </trkpt>
      <trkpt lat="53.346465993672609" lon="-6.322531001642346">
        <ele>24.649999999999999</ele>
        <time>2026-07-09T17:59:37Z</time>
      </trkpt>
      <trkpt lat="53.346329033374786" lon="-6.325744958594441">
        <ele>25.609999999999999</ele>
        <time>2026-07-09T17:59:50Z</time>
      </trkpt>
      <trkpt lat="53.346272958442569" lon="-6.328291967511177">
        <ele>25.129999999999999</ele>
        <time>2026-07-09T18:00:00Z</time>
      </trkpt>
      <trkpt lat="53.346425006166101" lon="-6.331599969416857">
        <ele>25.129999999999999</ele>
        <time>2026-07-09T18:00:13Z</time>
      </trkpt>
      <trkpt lat="53.346645031124353" lon="-6.335198991000652">
        <ele>24.170000000000002</ele>
        <time>2026-07-09T18:00:27Z</time>
      </trkpt>
      <trkpt lat="53.346921969205141" lon="-6.3386519998312">
        <ele>25.129999999999999</ele>
        <time>2026-07-09T18:00:42Z</time>
      </trkpt>
      <trkpt lat="53.347123973071575" lon="-6.339656990021467">
        <ele>25.129999999999999</ele>
        <time>2026-07-09T18:00:47Z</time>
      </trkpt>
      <trkpt lat="53.347707018256187" lon="-6.341242007911205">
        <ele>24.170000000000002</ele>
        <time>2026-07-09T18:00:57Z</time>
      </trkpt>
      <trkpt lat="53.348109014332294" lon="-6.342170974239707">
        <ele>23.210000000000001</ele>
        <time>2026-07-09T18:01:05Z</time>
      </trkpt>
      <trkpt lat="53.348188977688551" lon="-6.342372978106141">
        <ele>23.210000000000001</ele>
        <time>2026-07-09T18:01:15Z</time>
      </trkpt>
      <trkpt lat="53.348435992375016" lon="-6.342800036072731">
        <ele>22.73</ele>
        <time>2026-07-09T18:01:21Z</time>
      </trkpt>
      <trkpt lat="53.349040998145938" lon="-6.343704024329782">
        <ele>18.879999999999999</ele>
        <time>2026-07-09T18:01:31Z</time>
      </trkpt>
      <trkpt lat="53.349106963723898" lon="-6.343834027647972">
        <ele>17.920000000000002</ele>
        <time>2026-07-09T18:01:33Z</time>
      </trkpt>
      <trkpt lat="53.349139988422394" lon="-6.343897981569171">
        <ele>17.920000000000002</ele>
        <time>2026-07-09T18:01:34Z</time>
      </trkpt>
      <trkpt lat="53.349175024777651" lon="-6.343964030966163">
        <ele>17.440000000000001</ele>
        <time>2026-07-09T18:01:35Z</time>
      </trkpt>
      <trkpt lat="53.349261023104191" lon="-6.344124963507056">
        <ele>16.960000000000001</ele>
        <time>2026-07-09T18:01:37Z</time>
      </trkpt>
      <trkpt lat="53.349311985075474" lon="-6.344210961833596">
        <ele>16.960000000000001</ele>
        <time>2026-07-09T18:01:38Z</time>
      </trkpt>
      <trkpt lat="53.349664025008678" lon="-6.344713037833571">
        <ele>16.960000000000001</ele>
        <time>2026-07-09T18:01:44Z</time>
      </trkpt>
      <trkpt lat="53.350124023854733" lon="-6.345440000295639">
        <ele>16.960000000000001</ele>
        <time>2026-07-09T18:01:53Z</time>
      </trkpt>
      <trkpt lat="53.350519984960556" lon="-6.346194036304951">
        <ele>18.879999999999999</ele>
        <time>2026-07-09T18:02:01Z</time>
      </trkpt>
      <trkpt lat="53.35057002492249" lon="-6.346273999661207">
        <ele>18.879999999999999</ele>
        <time>2026-07-09T18:02:02Z</time>
      </trkpt>
      <trkpt lat="53.350615035742521" lon="-6.346348011866212">
        <ele>19.359999999999999</ele>
        <time>2026-07-09T18:02:03Z</time>
      </trkpt>
      <trkpt lat="53.351018959656358" lon="-6.347058964893222">
        <ele>16.960000000000001</ele>
        <time>2026-07-09T18:02:11Z</time>
      </trkpt>
      <trkpt lat="53.351142005994916" lon="-6.347230961546302">
        <ele>16.960000000000001</ele>
        <time>2026-07-09T18:02:13Z</time>
      </trkpt>
      <trkpt lat="53.351290030404925" lon="-6.347383009269834">
        <ele>17.440000000000001</ele>
        <time>2026-07-09T18:02:16Z</time>
      </trkpt>
      <trkpt lat="53.351386003196239" lon="-6.347489040344954">
        <ele>17.920000000000002</ele>
        <time>2026-07-09T18:02:18Z</time>
      </trkpt>
      <trkpt lat="53.351448029279709" lon="-6.347557017579675">
        <ele>17.920000000000002</ele>
        <time>2026-07-09T18:02:19Z</time>
      </trkpt>
      <trkpt lat="53.351513994857669" lon="-6.347630023956299">
        <ele>17.920000000000002</ele>
        <time>2026-07-09T18:02:20Z</time>
      </trkpt>
      <trkpt lat="53.351747011765838" lon="-6.347878966480494">
        <ele>16.960000000000001</ele>
        <time>2026-07-09T18:02:23Z</time>
      </trkpt>
      <trkpt lat="53.352199969813228" lon="-6.348308036103845">
        <ele>18.879999999999999</ele>
        <time>2026-07-09T18:02:30Z</time>
      </trkpt>
      <trkpt lat="53.352616969496012" lon="-6.348716989159584">
        <ele>18.879999999999999</ele>
        <time>2026-07-09T18:02:38Z</time>
      </trkpt>
      <trkpt lat="53.352944031357765" lon="-6.349038016051054">
        <ele>18.399999999999999</ele>
        <time>2026-07-09T18:02:44Z</time>
      </trkpt>
      <trkpt lat="53.352991975843906" lon="-6.349085038527846">
        <ele>18.399999999999999</ele>
        <time>2026-07-09T18:02:45Z</time>
      </trkpt>
      <trkpt lat="53.353044027462602" lon="-6.349136000499129">
        <ele>18.399999999999999</ele>
        <time>2026-07-09T18:02:46Z</time>
      </trkpt>
      <trkpt lat="53.353231027722359" lon="-6.349330963566899">
        <ele>17.920000000000002</ele>
        <time>2026-07-09T18:02:49Z</time>
      </trkpt>
      <trkpt lat="53.353350972756743" lon="-6.349532967433333">
        <ele>16.960000000000001</ele>
        <time>2026-07-09T18:02:51Z</time>
      </trkpt>
      <trkpt lat="53.353561023250222" lon="-6.349885007366538">
        <ele>16.960000000000001</ele>
        <time>2026-07-09T18:02:55Z</time>
      </trkpt>
      <trkpt lat="53.35375196300447" lon="-6.350246015936136">
        <ele>17.440000000000001</ele>
        <time>2026-07-09T18:03:00Z</time>
      </trkpt>
      <trkpt lat="53.354075001552701" lon="-6.350960992276669">
        <ele>19.359999999999999</ele>
        <time>2026-07-09T18:03:08Z</time>
      </trkpt>
      <trkpt lat="53.354164017364383" lon="-6.351150004193187">
        <ele>19.84</ele>
        <time>2026-07-09T18:03:10Z</time>
      </trkpt>
      <trkpt lat="53.354210034012794" lon="-6.351248994469643">
        <ele>19.84</ele>
        <time>2026-07-09T18:03:11Z</time>
      </trkpt>
      <trkpt lat="53.354260995984077" lon="-6.351345973089337">
        <ele>19.84</ele>
        <time>2026-07-09T18:03:12Z</time>
      </trkpt>
      <trkpt lat="53.354312041774392" lon="-6.351440018042922">
        <ele>19.84</ele>
        <time>2026-07-09T18:03:13Z</time>
      </trkpt>
      <trkpt lat="53.354360992088914" lon="-6.351530961692333">
        <ele>19.359999999999999</ele>
        <time>2026-07-09T18:03:14Z</time>
      </trkpt>
      <trkpt lat="53.354447996243834" lon="-6.351688960567117">
        <ele>19.359999999999999</ele>
        <time>2026-07-09T18:03:16Z</time>
      </trkpt>
      <trkpt lat="53.354488983750343" lon="-6.351760039106011">
        <ele>19.359999999999999</ele>
        <time>2026-07-09T18:03:17Z</time>
      </trkpt>
      <trkpt lat="53.354706997051835" lon="-6.352094979956746">
        <ele>19.84</ele>
        <time>2026-07-09T18:03:21Z</time>
      </trkpt>
      <trkpt lat="53.355050990357995" lon="-6.352838035672903">
        <ele>26.57</ele>
        <time>2026-07-09T18:03:29Z</time>
      </trkpt>
      <trkpt lat="53.355090972036123" lon="-6.352925039827824">
        <ele>27.530000000000001</ele>
        <time>2026-07-09T18:03:30Z</time>
      </trkpt>
      <trkpt lat="53.355125002563" lon="-6.353023024275899">
        <ele>28.02</ele>
        <time>2026-07-09T18:03:31Z</time>
      </trkpt>
      <trkpt lat="53.355263974517584" lon="-6.353466007858515">
        <ele>31.859999999999999</ele>
        <time>2026-07-09T18:03:34Z</time>
      </trkpt>
      <trkpt lat="53.355315020307899" lon="-6.353630963712931">
        <ele>33.780000000000001</ele>
        <time>2026-07-09T18:03:35Z</time>
      </trkpt>
      <trkpt lat="53.355401018634439" lon="-6.353731965646148">
        <ele>35.710000000000001</ele>
        <time>2026-07-09T18:03:36Z</time>
      </trkpt>
      <trkpt lat="53.355495985597372" lon="-6.353839002549648">
        <ele>37.630000000000003</ele>
        <time>2026-07-09T18:03:37Z</time>
      </trkpt>
      <trkpt lat="53.35566102527082" lon="-6.354023991152644">
        <ele>39.549999999999997</ele>
        <time>2026-07-09T18:03:38Z</time>
      </trkpt>
      <trkpt lat="53.355698995292187" lon="-6.354049975052476">
        <ele>41.469999999999999</ele>
        <time>2026-07-09T18:03:39Z</time>
      </trkpt>
      <trkpt lat="53.356743967160583" lon="-6.355124032124877">
        <ele>50.130000000000003</ele>
        <time>2026-07-09T18:03:48Z</time>
      </trkpt>
      <trkpt lat="53.356851004064083" lon="-6.355266021564603">
        <ele>50.130000000000003</ele>
        <time>2026-07-09T18:03:49Z</time>
      </trkpt>
      <trkpt lat="53.35710296407342" lon="-6.355658965185285">
        <ele>51.090000000000003</ele>
        <time>2026-07-09T18:03:52Z</time>
      </trkpt>
      <trkpt lat="53.357170019298792" lon="-6.355762984603643">
        <ele>51.57</ele>
        <time>2026-07-09T18:03:53Z</time>
      </trkpt>
      <trkpt lat="53.357590036466718" lon="-6.356348963454366">
        <ele>50.609999999999999</ele>
        <time>2026-07-09T18:04:01Z</time>
      </trkpt>
      <trkpt lat="53.358605001121759" lon="-6.357479011639953">
        <ele>49.159999999999997</ele>
        <time>2026-07-09T18:04:12Z</time>
      </trkpt>
      <trkpt lat="53.359793974086642" lon="-6.358578968793154">
        <ele>52.530000000000001</ele>
        <time>2026-07-09T18:04:23Z</time>
      </trkpt>
      <trkpt lat="53.360324967652559" lon="-6.359920995309949">
        <ele>54.450000000000003</ele>
        <time>2026-07-09T18:04:31Z</time>
      </trkpt>
      <trkpt lat="53.360449019819498" lon="-6.360253002494574">
        <ele>54.93</ele>
        <time>2026-07-09T18:04:33Z</time>
      </trkpt>
      <trkpt lat="53.360527977347374" lon="-6.360389040783048">
        <ele>55.409999999999997</ele>
        <time>2026-07-09T18:04:34Z</time>
      </trkpt>
      <trkpt lat="53.360614981502295" lon="-6.360529018566012">
        <ele>55.409999999999997</ele>
        <time>2026-07-09T18:04:35Z</time>
      </trkpt>
      <trkpt lat="53.361181011423469" lon="-6.361203007400036">
        <ele>57.82</ele>
        <time>2026-07-09T18:04:40Z</time>
      </trkpt>
      <trkpt lat="53.362480960786343" lon="-6.362538998946548">
        <ele>59.740000000000002</ele>
        <time>2026-07-09T18:04:50Z</time>
      </trkpt>
      <trkpt lat="53.363042967393994" lon="-6.363101005554199">
        <ele>59.740000000000002</ele>
        <time>2026-07-09T18:04:55Z</time>
      </trkpt>
      <trkpt lat="53.363158972933888" lon="-6.363137969747186">
        <ele>60.219999999999999</ele>
        <time>2026-07-09T18:04:56Z</time>
      </trkpt>
      <trkpt lat="53.363443035632372" lon="-6.363227991387248">
        <ele>60.700000000000003</ele>
        <time>2026-07-09T18:04:58Z</time>
      </trkpt>
      <trkpt lat="53.363586030900478" lon="-6.36327501386404">
        <ele>61.18</ele>
        <time>2026-07-09T18:04:59Z</time>
      </trkpt>
      <trkpt lat="53.364835018292069" lon="-6.363696958869696">
        <ele>63.100000000000001</ele>
        <time>2026-07-09T18:05:09Z</time>
      </trkpt>
      <trkpt lat="53.365399958565831" lon="-6.363887982442975">
        <ele>63.579999999999998</ele>
        <time>2026-07-09T18:05:14Z</time>
      </trkpt>
      <trkpt lat="53.365490986034274" lon="-6.363917989656329">
        <ele>64.069999999999993</ele>
        <time>2026-07-09T18:05:15Z</time>
      </trkpt>
      <trkpt lat="53.365644039586186" lon="-6.363970041275024">
        <ele>64.549999999999997</ele>
        <time>2026-07-09T18:05:17Z</time>
      </trkpt>
      <trkpt lat="53.365820981562138" lon="-6.364029971882701">
        <ele>64.549999999999997</ele>
        <time>2026-07-09T18:05:20Z</time>
      </trkpt>
      <trkpt lat="53.365871021524072" lon="-6.364046987146139">
        <ele>64.549999999999997</ele>
        <time>2026-07-09T18:05:21Z</time>
      </trkpt>
      <trkpt lat="53.36616899818182" lon="-6.364146983250976">
        <ele>65.510000000000005</ele>
        <time>2026-07-09T18:05:28Z</time>
      </trkpt>
      <trkpt lat="53.366196993738413" lon="-6.364156035706401">
        <ele>65.030000000000001</ele>
        <time>2026-07-09T18:05:29Z</time>
      </trkpt>
      <trkpt lat="53.366215014830232" lon="-6.364162992686033">
        <ele>65.030000000000001</ele>
        <time>2026-07-09T18:05:30Z</time>
      </trkpt>
      <trkpt lat="53.366215014830232" lon="-6.364162992686033">
        <ele>65.030000000000001</ele>
        <time>2026-07-09T18:05:45Z</time>
      </trkpt>
      <trkpt lat="53.366486001759768" lon="-6.364254020154476">
        <ele>66.950000000000003</ele>
        <time>2026-07-09T18:05:57Z</time>
      </trkpt>
      <trkpt lat="53.366563031449914" lon="-6.364280004054308">
        <ele>67.430000000000007</ele>
        <time>2026-07-09T18:05:58Z</time>
      </trkpt>
      <trkpt lat="53.366919010877609" lon="-6.364400032907724">
        <ele>68.870000000000005</ele>
        <time>2026-07-09T18:06:03Z</time>
      </trkpt>
      <trkpt lat="53.366948012262583" lon="-6.364410007372499">
        <ele>68.870000000000005</ele>
        <time>2026-07-09T18:06:04Z</time>
      </trkpt>
      <trkpt lat="53.367077009752393" lon="-6.364410007372499">
        <ele>69.349999999999994</ele>
        <time>2026-07-09T18:06:05Z</time>
      </trkpt>
      <trkpt lat="53.367077009752393" lon="-6.364565994590521">
        <ele>69.349999999999994</ele>
        <time>2026-07-09T18:06:06Z</time>
      </trkpt>
      <trkpt lat="53.367077009752393" lon="-6.364669008180499">
        <ele>69.829999999999998</ele>
        <time>2026-07-09T18:06:07Z</time>
      </trkpt>
      <trkpt lat="53.367077009752393" lon="-6.364807980135083">
        <ele>69.829999999999998</ele>
        <time>2026-07-09T18:06:08Z</time>
      </trkpt>
      <trkpt lat="53.367077009752393" lon="-6.364977965131402">
        <ele>69.829999999999998</ele>
        <time>2026-07-09T18:06:09Z</time>
      </trkpt>
      <trkpt lat="53.367077009752393" lon="-6.36516303755343">
        <ele>69.349999999999994</ele>
        <time>2026-07-09T18:06:10Z</time>
      </trkpt>
      <trkpt lat="53.367068963125348" lon="-6.366146989166737">
        <ele>68.390000000000001</ele>
        <time>2026-07-09T18:06:15Z</time>
      </trkpt>
      <trkpt lat="53.366849021986127" lon="-6.368434997275472">
        <ele>69.349999999999994</ele>
        <time>2026-07-09T18:06:25Z</time>
      </trkpt>
      <trkpt lat="53.366711977869272" lon="-6.369260028004646">
        <ele>68.870000000000005</ele>
        <time>2026-07-09T18:06:29Z</time>
      </trkpt>
      <trkpt lat="53.366711977869272" lon="-6.369473012164235">
        <ele>68.870000000000005</ele>
        <time>2026-07-09T18:06:30Z</time>
      </trkpt>
      <trkpt lat="53.366711977869272" lon="-6.369691025465727">
        <ele>69.349999999999994</ele>
        <time>2026-07-09T18:06:31Z</time>
      </trkpt>
      <trkpt lat="53.366850027814507" lon="-6.371540995314717">
        <ele>68.390000000000001</ele>
        <time>2026-07-09T18:06:40Z</time>
      </trkpt>
      <trkpt lat="53.366850027814507" lon="-6.371908960863948">
        <ele>67.430000000000007</ele>
        <time>2026-07-09T18:06:42Z</time>
      </trkpt>
      <trkpt lat="53.366839969530702" lon="-6.372109036892653">
        <ele>66.950000000000003</ele>
        <time>2026-07-09T18:06:43Z</time>
      </trkpt>
      <trkpt lat="53.366828989237547" lon="-6.372311040759087">
        <ele>66.950000000000003</ele>
        <time>2026-07-09T18:06:44Z</time>
      </trkpt>
      <trkpt lat="53.366819014772773" lon="-6.372499968856573">
        <ele>66.950000000000003</ele>
        <time>2026-07-09T18:06:45Z</time>
      </trkpt>
      <trkpt lat="53.366844998672605" lon="-6.372697027400136">
        <ele>66.950000000000003</ele>
        <time>2026-07-09T18:06:46Z</time>
      </trkpt>
      <trkpt lat="53.366867965087295" lon="-6.372872041538358">
        <ele>66.469999999999999</ele>
        <time>2026-07-09T18:06:47Z</time>
      </trkpt>
      <trkpt lat="53.366903001442552" lon="-6.373043032363057">
        <ele>66.469999999999999</ele>
        <time>2026-07-09T18:06:48Z</time>
      </trkpt>
      <trkpt lat="53.366952035576105" lon="-6.373165994882584">
        <ele>66.469999999999999</ele>
        <time>2026-07-09T18:06:49Z</time>
      </trkpt>
      <trkpt lat="53.366987993940711" lon="-6.373255010694265">
        <ele>66.469999999999999</ele>
        <time>2026-07-09T18:06:50Z</time>
      </trkpt>
      <trkpt lat="53.367131995037198" lon="-6.373599004000425">
        <ele>65.030000000000001</ele>
        <time>2026-07-09T18:06:58Z</time>
      </trkpt>
      <trkpt lat="53.367364006116986" lon="-6.37408004142344">
        <ele>64.549999999999997</ele>
        <time>2026-07-09T18:07:04Z</time>
      </trkpt>
      <trkpt lat="53.367530973628163" lon="-6.374290008097887">
        <ele>64.549999999999997</ele>
        <time>2026-07-09T18:07:06Z</time>
      </trkpt>
      <trkpt lat="53.368508974090219" lon="-6.375296004116535">
        <ele>68.390000000000001</ele>
        <time>2026-07-09T18:07:16Z</time>
      </trkpt>
      <trkpt lat="53.369416985660791" lon="-6.37612204067409">
        <ele>67.430000000000007</ele>
        <time>2026-07-09T18:07:25Z</time>
      </trkpt>
      <trkpt lat="53.369514970108867" lon="-6.376193035393953">
        <ele>67.430000000000007</ele>
        <time>2026-07-09T18:07:26Z</time>
      </trkpt>
      <trkpt lat="53.369613038375974" lon="-6.376264030113816">
        <ele>67.430000000000007</ele>
        <time>2026-07-09T18:07:27Z</time>
      </trkpt>
      <trkpt lat="53.369711022824049" lon="-6.376333013176918">
        <ele>66.950000000000003</ele>
        <time>2026-07-09T18:07:28Z</time>
      </trkpt>
      <trkpt lat="53.369814036414027" lon="-6.376395039260387">
        <ele>66.950000000000003</ele>
        <time>2026-07-09T18:07:29Z</time>
      </trkpt>
      <trkpt lat="53.369926018640399" lon="-6.376436026766896">
        <ele>66.469999999999999</ele>
        <time>2026-07-09T18:07:30Z</time>
      </trkpt>
      <trkpt lat="53.370919022709131" lon="-6.376786977052689">
        <ele>63.100000000000001</ele>
        <time>2026-07-09T18:07:39Z</time>
      </trkpt>
      <trkpt lat="53.371567027643323" lon="-6.37689895927906">
        <ele>65.030000000000001</ele>
        <time>2026-07-09T18:07:46Z</time>
      </trkpt>
      <trkpt lat="53.371651014313102" lon="-6.376910023391247">
        <ele>65.510000000000005</ele>
        <time>2026-07-09T18:07:47Z</time>
      </trkpt>
      <trkpt lat="53.371816975995898" lon="-6.376995015889406">
        <ele>65.989999999999995</ele>
        <time>2026-07-09T18:07:49Z</time>
      </trkpt>
      <trkpt lat="53.371889982372522" lon="-6.377058969810605">
        <ele>65.989999999999995</ele>
        <time>2026-07-09T18:07:50Z</time>
      </trkpt>
      <trkpt lat="53.371945973485708" lon="-6.377142034471035">
        <ele>66.469999999999999</ele>
        <time>2026-07-09T18:07:51Z</time>
      </trkpt>
      <trkpt lat="53.371988972648978" lon="-6.377249993383884">
        <ele>66.469999999999999</ele>
        <time>2026-07-09T18:07:52Z</time>
      </trkpt>
      <trkpt lat="53.372009005397558" lon="-6.37739198282361">
        <ele>66.469999999999999</ele>
        <time>2026-07-09T18:07:53Z</time>
      </trkpt>
      <trkpt lat="53.372004982084036" lon="-6.377537995576859">
        <ele>66.469999999999999</ele>
        <time>2026-07-09T18:07:54Z</time>
      </trkpt>
      <trkpt lat="53.372000036761165" lon="-6.377689959481359">
        <ele>66.469999999999999</ele>
        <time>2026-07-09T18:07:55Z</time>
      </trkpt>
      <trkpt lat="53.371995007619262" lon="-6.377852987498045">
        <ele>65.989999999999995</ele>
        <time>2026-07-09T18:07:56Z</time>
      </trkpt>
      <trkpt lat="53.371867015957832" lon="-6.379691977053881">
        <ele>65.510000000000005</ele>
        <time>2026-07-09T18:08:06Z</time>
      </trkpt>
      <trkpt lat="53.371861986815929" lon="-6.379847964271903">
        <ele>65.510000000000005</ele>
        <time>2026-07-09T18:08:07Z</time>
      </trkpt>
      <trkpt lat="53.371861986815929" lon="-6.379995988681912">
        <ele>65.510000000000005</ele>
        <time>2026-07-09T18:08:08Z</time>
      </trkpt>
      <trkpt lat="53.371853018179536" lon="-6.380425980314612">
        <ele>66.469999999999999</ele>
        <time>2026-07-09T18:08:12Z</time>
      </trkpt>
      <trkpt lat="53.371852012351155" lon="-6.380459005013108">
        <ele>66.469999999999999</ele>
        <time>2026-07-09T18:08:13Z</time>
      </trkpt>
      <trkpt lat="53.371851006522775" lon="-6.380483983084559">
        <ele>66.469999999999999</ele>
        <time>2026-07-09T18:08:14Z</time>
      </trkpt>
      <trkpt lat="53.371850000694394" lon="-6.380522958934307">
        <ele>66.469999999999999</ele>
        <time>2026-07-09T18:08:15Z</time>
      </trkpt>
      <trkpt lat="53.371847989037633" lon="-6.380577022209764">
        <ele>66.469999999999999</ele>
        <time>2026-07-09T18:08:16Z</time>
      </trkpt>
      <trkpt lat="53.371845977380872" lon="-6.380654973909259">
        <ele>66.469999999999999</ele>
        <time>2026-07-09T18:08:17Z</time>
      </trkpt>
      <trkpt lat="53.371842037886381" lon="-6.380767039954662">
        <ele>66.950000000000003</ele>
        <time>2026-07-09T18:08:18Z</time>
      </trkpt>
      <trkpt lat="53.371841032058001" lon="-6.380877010524273">
        <ele>66.950000000000003</ele>
        <time>2026-07-09T18:08:19Z</time>
      </trkpt>
      <trkpt lat="53.37184295989573" lon="-6.38100097887218">
        <ele>66.950000000000003</ele>
        <time>2026-07-09T18:08:20Z</time>
      </trkpt>
      <trkpt lat="53.371845977380872" lon="-6.38112997636199">
        <ele>66.469999999999999</ele>
        <time>2026-07-09T18:08:21Z</time>
      </trkpt>
      <trkpt lat="53.371847989037633" lon="-6.381256962195039">
        <ele>65.989999999999995</ele>
        <time>2026-07-09T18:08:22Z</time>
      </trkpt>
      <trkpt lat="53.371851006522775" lon="-6.381377996876836">
        <ele>65.510000000000005</ele>
        <time>2026-07-09T18:08:23Z</time>
      </trkpt>
      <trkpt lat="53.371853018179536" lon="-6.381497019901872">
        <ele>64.549999999999997</ele>
        <time>2026-07-09T18:08:24Z</time>
      </trkpt>
      <trkpt lat="53.371855029836297" lon="-6.381620988249779">
        <ele>64.069999999999993</ele>
        <time>2026-07-09T18:08:25Z</time>
      </trkpt>
      <trkpt lat="53.371859975159168" lon="-6.381843024864793">
        <ele>64.069999999999993</ele>
        <time>2026-07-09T18:08:27Z</time>
      </trkpt>
      <trkpt lat="53.371866010129452" lon="-6.382049974054098">
        <ele>63.579999999999998</ele>
        <time>2026-07-09T18:08:30Z</time>
      </trkpt>
      <trkpt lat="53.371500978246331" lon="-6.382118035107851">
        <ele>62.140000000000001</ele>
        <time>2026-07-09T18:08:34Z</time>
      </trkpt>
      <trkpt lat="53.37119797244668" lon="-6.38213898986578">
        <ele>62.140000000000001</ele>
        <time>2026-07-09T18:08:45Z</time>
      </trkpt>
      <trkpt lat="53.37119797244668" lon="-6.38213898986578">
        <ele>62.140000000000001</ele>
        <time>2026-07-09T18:08:47Z</time>
      </trkpt>
      <trkpt lat="53.371181963011622" lon="-6.382115017622709">
        <ele>62.619999999999997</ele>
        <time>2026-07-09T18:09:01Z</time>
      </trkpt>
      <trkpt lat="53.371198978275061" lon="-6.382103031501174">
        <ele>63.100000000000001</ele>
        <time>2026-07-09T18:09:07Z</time>
      </trkpt>
      <trkpt lat="53.37136996909976" lon="-6.382115017622709">
        <ele>68.390000000000001</ele>
        <time>2026-07-09T18:09:21Z</time>
      </trkpt>
      <trkpt lat="53.37136996909976" lon="-6.382115017622709">
        <ele>68.390000000000001</ele>
        <time>2026-07-09T18:09:41Z</time>
      </trkpt>
      <trkpt lat="53.371366029605269" lon="-6.382118035107851">
        <ele>68.870000000000005</ele>
        <time>2026-07-09T18:10:04Z</time>
      </trkpt>
      <trkpt lat="53.371378015726805" lon="-6.382139995694161">
        <ele>68.870000000000005</ele>
        <time>2026-07-09T18:10:14Z</time>
      </trkpt>
    </trkseg>
  </trk>

</gpx>